<?xml version='1.0' encoding='UTF-8'?><gpx version="1.1" creator="JPX - https://github.com/jenetics/jpx" xmlns="http://www.topografix.com/GPX/1/1"><trk><trkseg><trkpt lat="-25.649058469496403" lon="114.20220203174462"><ele>22.0</ele><time>2026-04-16T07:33:40Z</time></trkpt><trkpt lat="-25.64878949432791" lon="114.20204855647268"><ele>22.0</ele><time>2026-04-16T07:33:41Z</time></trkpt><trkpt lat="-25.648521129689023" lon="114.20189619909016"><ele>20.0</ele><time>2026-04-16T07:33:42Z</time></trkpt><trkpt lat="-25.647990877823542" lon="114.20159834149513"><ele>20.0</ele><time>2026-04-16T07:33:44Z</time></trkpt><trkpt lat="-25.647724286019876" lon="114.2014488419716"><ele>20.0</ele><time>2026-04-16T07:33:45Z</time></trkpt><trkpt lat="-25.647460081838553" lon="114.20130250423539"><ele>20.0</ele><time>2026-04-16T07:33:46Z</time></trkpt><trkpt lat="-25.647196754913608" lon="114.20115415509362"><ele>20.0</ele><time>2026-04-16T07:33:47Z</time></trkpt><trkpt lat="-25.646933440032793" lon="114.20100634938291"><ele>20.0</ele><time>2026-04-16T07:33:48Z</time></trkpt><trkpt lat="-25.64667105023604" lon="114.20085813096833"><ele>20.0</ele><time>2026-04-16T07:33:49Z</time></trkpt><trkpt lat="-25.646411354365117" lon="114.20070929513315"><ele>19.5</ele><time>2026-04-16T07:33:50Z</time></trkpt><trkpt lat="-25.64614985792274" lon="114.20055453407927"><ele>19.0</ele><time>2026-04-16T07:33:51Z</time></trkpt><trkpt lat="-25.645891925535274" lon="114.20040098085065"><ele>18.5</ele><time>2026-04-16T07:33:52Z</time></trkpt><trkpt lat="-25.645635148267235" lon="114.20025082056463"><ele>18.0</ele><time>2026-04-16T07:33:53Z</time></trkpt><trkpt lat="-25.64537778472679" lon="114.20010487102313"><ele>17.5</ele><time>2026-04-16T07:33:54Z</time></trkpt><trkpt lat="-25.645120712381438" lon="114.19996118052725"><ele>17.0</ele><time>2026-04-16T07:33:55Z</time></trkpt><trkpt lat="-25.64486144565215" lon="114.19981379468699"><ele>18.5</ele><time>2026-04-16T07:33:56Z</time></trkpt><trkpt lat="-25.644601541187825" lon="114.19966598828232"><ele>20.0</ele><time>2026-04-16T07:33:57Z</time></trkpt><trkpt lat="-25.64433990717371" lon="114.19951850681674"><ele>21.0</ele><time>2026-04-16T07:33:58Z</time></trkpt><trkpt lat="-25.644078913071297" lon="114.19937461671404"><ele>22.0</ele><time>2026-04-16T07:33:59Z</time></trkpt><trkpt lat="-25.643814809857556" lon="114.19922832834011"><ele>22.0</ele><time>2026-04-16T07:34:00Z</time></trkpt><trkpt lat="-25.64354959339184" lon="114.19907616987912"><ele>20.0</ele><time>2026-04-16T07:34:01Z</time></trkpt></trkseg><trkseg><trkpt lat="-24.490874654249602" lon="113.41832353696431"><ele>7.999999999999999</ele><time>2026-04-16T23:58:03Z</time></trkpt><trkpt lat="-24.490850667056602" lon="113.41838759313866"><ele>8.0</ele><time>2026-04-16T23:58:06Z</time></trkpt><trkpt lat="-24.49079162376315" lon="113.41836284831292"><ele>8.0</ele><time>2026-04-16T23:58:21Z</time></trkpt><trkpt lat="-24.490739747249055" lon="113.41827043390903"><ele>8.0</ele><time>2026-04-16T23:58:23Z</time></trkpt><trkpt lat="-24.49067916805032" lon="113.41816423633031"><ele>7.999999999999999</ele><time>2026-04-16T23:58:24.999Z</time></trkpt><trkpt lat="-24.490610905228557" lon="113.41808541062738"><ele>8.0</ele><time>2026-04-16T23:58:26.999Z</time></trkpt><trkpt lat="-24.490527972053577" lon="113.41799272685131"><ele>8.0</ele><time>2026-04-16T23:58:28.999Z</time></trkpt><trkpt lat="-24.49048625131257" lon="113.41793892409386"><ele>8.0</ele><time>2026-04-16T23:58:29.999Z</time></trkpt><trkpt lat="-24.490407697855535" lon="113.41783591285392"><ele>8.0</ele><time>2026-04-16T23:58:31.999Z</time></trkpt><trkpt lat="-24.490362156388436" lon="113.41778181343551"><ele>8.0</ele><time>2026-04-16T23:58:32.999Z</time></trkpt><trkpt lat="-24.490282252227384" lon="113.41770258815444"><ele>8.0</ele><time>2026-04-16T23:58:34.999Z</time></trkpt><trkpt lat="-24.49020401271567" lon="113.41764260431273"><ele>8.0</ele><time>2026-04-16T23:58:36.999Z</time></trkpt><trkpt lat="-24.4901100245657" lon="113.41760746165605"><ele>8.0</ele><time>2026-04-16T23:58:38.999Z</time></trkpt><trkpt lat="-24.490019612821733" lon="113.41760446824253"><ele>8.0</ele><time>2026-04-16T23:58:40.999Z</time></trkpt><trkpt lat="-24.48991061793246" lon="113.41754914585519"><ele>8.0</ele><time>2026-04-16T23:58:42.999Z</time></trkpt><trkpt lat="-24.489876380612188" lon="113.41746913860192"><ele>8.0</ele><time>2026-04-16T23:58:43.999Z</time></trkpt><trkpt lat="-24.48982037792706" lon="113.41733982585673"><ele>8.0</ele><time>2026-04-16T23:58:45.999Z</time></trkpt><trkpt lat="-24.4897928618789" lon="113.41726213684701"><ele>8.0</ele><time>2026-04-16T23:58:46.999Z</time></trkpt><trkpt lat="-24.489755547244354" lon="113.41716769561687"><ele>8.0</ele><time>2026-04-16T23:58:47.999Z</time></trkpt><trkpt lat="-24.489717470214746" lon="113.41707582696519"><ele>8.0</ele><time>2026-04-16T23:58:48.999Z</time></trkpt><trkpt lat="-24.489682178996013" lon="113.41697346486748"><ele>8.0</ele><time>2026-04-16T23:58:49.999Z</time></trkpt><trkpt lat="-24.48964987292484" lon="113.41685947180628"><ele>8.0</ele><time>2026-04-16T23:58:51Z</time></trkpt><trkpt lat="-24.489619095799938" lon="113.41674383698945"><ele>8.0</ele><time>2026-04-16T23:58:52Z</time></trkpt><trkpt lat="-24.489592332145396" lon="113.41662732241981"><ele>8.0</ele><time>2026-04-16T23:58:53Z</time></trkpt><trkpt lat="-24.48957038340291" lon="113.41651452954693"><ele>8.0</ele><time>2026-04-16T23:58:54Z</time></trkpt><trkpt lat="-24.489558363234604" lon="113.41640282205657"><ele>8.0</ele><time>2026-04-16T23:58:55Z</time></trkpt><trkpt lat="-24.489547227678646" lon="113.41627430632641"><ele>8.0</ele><time>2026-04-16T23:58:56Z</time></trkpt><trkpt lat="-24.48952457734168" lon="113.41614215406958"><ele>8.0</ele><time>2026-04-16T23:58:57Z</time></trkpt><trkpt lat="-24.489481921390244" lon="113.4160149445541"><ele>8.0</ele><time>2026-04-16T23:58:58Z</time></trkpt><trkpt lat="-24.48945035155185" lon="113.41589058613913"><ele>8.0</ele><time>2026-04-16T23:58:59Z</time></trkpt><trkpt lat="-24.48942414369906" lon="113.41576628140115"><ele>8.0</ele><time>2026-04-16T23:59:00Z</time></trkpt><trkpt lat="-24.48939853801716" lon="113.4156416233456"><ele>8.0</ele><time>2026-04-16T23:59:01Z</time></trkpt><trkpt lat="-24.489368217903674" lon="113.4155046382641"><ele>8.0</ele><time>2026-04-16T23:59:02Z</time></trkpt><trkpt lat="-24.48932943429303" lon="113.41535696189648"><ele>8.0</ele><time>2026-04-16T23:59:03Z</time></trkpt><trkpt lat="-24.489284600095363" lon="113.4152035946353"><ele>8.0</ele><time>2026-04-16T23:59:04Z</time></trkpt><trkpt lat="-24.489243652914265" lon="113.41505890934488"><ele>8.0</ele><time>2026-04-16T23:59:05Z</time></trkpt><trkpt lat="-24.489209538614457" lon="113.41492445432543"><ele>8.0</ele><time>2026-04-16T23:59:06Z</time></trkpt><trkpt lat="-24.489182580014234" lon="113.41480261442372"><ele>8.0</ele><time>2026-04-16T23:59:07Z</time></trkpt><trkpt lat="-24.48916639743609" lon="113.41468876916029"><ele>8.0</ele><time>2026-04-16T23:59:08Z</time></trkpt><trkpt lat="-24.4891569809633" lon="113.41457511428534"><ele>8.0</ele><time>2026-04-16T23:59:09Z</time></trkpt><trkpt lat="-24.48912801085795" lon="113.41444791034127"><ele>8.0</ele><time>2026-04-16T23:59:10Z</time></trkpt><trkpt lat="-24.489089300450644" lon="113.41431579389032"><ele>8.0</ele><time>2026-04-16T23:59:11Z</time></trkpt><trkpt lat="-24.489039825504104" lon="113.41417646006025"><ele>8.0</ele><time>2026-04-16T23:59:12Z</time></trkpt><trkpt lat="-24.48897642403217" lon="113.41402906290587"><ele>8.0</ele><time>2026-04-16T23:59:13Z</time></trkpt><trkpt lat="-24.488913655621737" lon="113.41388664850432"><ele>8.0</ele><time>2026-04-16T23:59:14Z</time></trkpt><trkpt lat="-24.48885234718028" lon="113.41372619553005"><ele>8.25</ele><time>2026-04-16T23:59:15Z</time></trkpt><trkpt lat="-24.48880308652139" lon="113.41358491320503"><ele>8.5</ele><time>2026-04-16T23:59:16Z</time></trkpt><trkpt lat="-24.488759846392586" lon="113.41345602544604"><ele>8.75</ele><time>2026-04-16T23:59:17Z</time></trkpt><trkpt lat="-24.4887181097496" lon="113.41333317142039"><ele>9.0</ele><time>2026-04-16T23:59:18Z</time></trkpt><trkpt lat="-24.488672002409988" lon="113.41319846133383"><ele>9.0</ele><time>2026-04-16T23:59:19Z</time></trkpt><trkpt lat="-24.488624503871257" lon="113.41306263973924"><ele>9.0</ele><time>2026-04-16T23:59:20Z</time></trkpt><trkpt lat="-24.488575052177882" lon="113.41292620374118"><ele>9.0</ele><time>2026-04-16T23:59:21Z</time></trkpt><trkpt lat="-24.488528171345127" lon="113.41280080784914"><ele>9.0</ele><time>2026-04-16T23:59:22Z</time></trkpt><trkpt lat="-24.488476712733686" lon="113.41267346807689"><ele>9.0</ele><time>2026-04-16T23:59:23Z</time></trkpt><trkpt lat="-24.488418305992337" lon="113.41255869939612"><ele>9.0</ele><time>2026-04-16T23:59:24Z</time></trkpt><trkpt lat="-24.4883598297718" lon="113.41246060464127"><ele>9.0</ele><time>2026-04-16T23:59:25Z</time></trkpt><trkpt lat="-24.48830102107327" lon="113.41237713129658"><ele>9.0</ele><time>2026-04-16T23:59:26Z</time></trkpt><trkpt lat="-24.48823566860345" lon="113.41229867534346"><ele>9.0</ele><time>2026-04-16T23:59:27Z</time></trkpt><trkpt lat="-24.48817713371829" lon="113.41223728205141"><ele>9.0</ele><time>2026-04-16T23:59:28Z</time></trkpt><trkpt lat="-24.48809518042201" lon="113.41219648257375"><ele>9.0</ele><time>2026-04-16T23:59:29Z</time></trkpt><trkpt lat="-24.488007774871956" lon="113.41216552887862"><ele>9.0</ele><time>2026-04-16T23:59:30Z</time></trkpt><trkpt lat="-24.487894157917292" lon="113.41213914955692"><ele>9.0</ele><time>2026-04-16T23:59:31Z</time></trkpt><trkpt lat="-24.487761281189893" lon="113.41209917797919"><ele>9.0</ele><time>2026-04-16T23:59:32Z</time></trkpt><trkpt lat="-24.48761868607464" lon="113.41206549211459"><ele>9.2</ele><time>2026-04-16T23:59:33Z</time></trkpt><trkpt lat="-24.48750020588254" lon="113.41203207827107"><ele>9.4</ele><time>2026-04-16T23:59:34Z</time></trkpt><trkpt lat="-24.487396769629125" lon="113.41200481386834"><ele>9.6</ele><time>2026-04-16T23:59:35Z</time></trkpt><trkpt lat="-24.487299898256715" lon="113.41200179740615"><ele>9.8</ele><time>2026-04-16T23:59:36Z</time></trkpt><trkpt lat="-24.487222509979315" lon="113.41200957050808"><ele>10.0</ele><time>2026-04-16T23:59:37Z</time></trkpt><trkpt lat="-24.48712749762426" lon="113.41202741327763"><ele>10.25</ele><time>2026-04-16T23:59:39Z</time></trkpt><trkpt lat="-24.486957246281726" lon="113.4120557386349"><ele>10.5</ele><time>2026-04-17T00:01:10.999Z</time></trkpt><trkpt lat="-24.48689490375493" lon="113.41206680755572"><ele>10.75</ele><time>2026-04-17T00:01:11.999Z</time></trkpt><trkpt lat="-24.486796379093583" lon="113.4120881829142"><ele>11.0</ele><time>2026-04-17T00:01:12.999Z</time></trkpt><trkpt lat="-24.48668049556527" lon="113.41212959839737"><ele>11.0</ele><time>2026-04-17T00:01:13.999Z</time></trkpt><trkpt lat="-24.486539290639612" lon="113.41213879002879"><ele>11.0</ele><time>2026-04-17T00:01:14.999Z</time></trkpt><trkpt lat="-24.48636562654113" lon="113.41214988673468"><ele>11.0</ele><time>2026-04-17T00:01:16Z</time></trkpt><trkpt lat="-24.486180221410354" lon="113.41214832936329"><ele>11.666666666666666</ele><time>2026-04-17T00:01:17Z</time></trkpt><trkpt lat="-24.485975746471933" lon="113.41213018601741"><ele>12.333333333333332</ele><time>2026-04-17T00:01:18Z</time></trkpt><trkpt lat="-24.485770103000334" lon="113.41210480289287"><ele>13.0</ele><time>2026-04-17T00:01:19Z</time></trkpt><trkpt lat="-24.485551698214575" lon="113.41209238393446"><ele>12.333333333333332</ele><time>2026-04-17T00:01:20Z</time></trkpt><trkpt lat="-24.485334878998056" lon="113.41205830973644"><ele>11.666666666666666</ele><time>2026-04-17T00:01:21Z</time></trkpt><trkpt lat="-24.485131402315314" lon="113.41198146217"><ele>11.0</ele><time>2026-04-17T00:01:22Z</time></trkpt><trkpt lat="-24.484944568703604" lon="113.41189072543814"><ele>11.0</ele><time>2026-04-17T00:01:23Z</time></trkpt><trkpt lat="-24.48474208668977" lon="113.41178469527362"><ele>11.0</ele><time>2026-04-17T00:01:24Z</time></trkpt><trkpt lat="-24.484533146172335" lon="113.41166904563082"><ele>9.0</ele><time>2026-04-17T00:01:25Z</time></trkpt><trkpt lat="-24.48431482299739" lon="113.41154661719942"><ele>7.0</ele><time>2026-04-17T00:01:26Z</time></trkpt><trkpt lat="-24.484110287030404" lon="113.411422977117"><ele>6.5</ele><time>2026-04-17T00:01:27Z</time></trkpt><trkpt lat="-24.483901617654926" lon="113.41131096624741"><ele>6.0</ele><time>2026-04-17T00:01:28Z</time></trkpt><trkpt lat="-24.483704750562435" lon="113.41117340973896"><ele>6.0</ele><time>2026-04-17T00:01:29Z</time></trkpt><trkpt lat="-24.48352709231098" lon="113.41100989995967"><ele>6.0</ele><time>2026-04-17T00:01:30Z</time></trkpt><trkpt lat="-24.483342930414995" lon="113.41085918269897"><ele>6.0</ele><time>2026-04-17T00:01:31Z</time></trkpt><trkpt lat="-24.483151597126316" lon="113.41072484603232"><ele>6.0</ele><time>2026-04-17T00:01:32Z</time></trkpt><trkpt lat="-24.482970916309636" lon="113.41057526359815"><ele>7.0</ele><time>2026-04-17T00:01:33Z</time></trkpt><trkpt lat="-24.48279578204731" lon="113.41042355905377"><ele>8.0</ele><time>2026-04-17T00:01:34Z</time></trkpt><trkpt lat="-24.482645599897445" lon="113.41024441519495"><ele>9.0</ele><time>2026-04-17T00:01:35Z</time></trkpt><trkpt lat="-24.482489617122415" lon="113.41006985715492"><ele>9.0</ele><time>2026-04-17T00:01:36Z</time></trkpt><trkpt lat="-24.48232401632926" lon="113.4099149485959"><ele>9.0</ele><time>2026-04-17T00:01:37Z</time></trkpt><trkpt lat="-24.482177980196177" lon="113.40975193165863"><ele>9.0</ele><time>2026-04-17T00:01:38Z</time></trkpt><trkpt lat="-24.482034678317945" lon="113.40960071325917"><ele>10.333333333333332</ele><time>2026-04-17T00:01:39Z</time></trkpt><trkpt lat="-24.48189332064623" lon="113.40945428416538"><ele>11.666666666666666</ele><time>2026-04-17T00:01:40Z</time></trkpt><trkpt lat="-24.4817553172455" lon="113.40931090704166"><ele>13.0</ele><time>2026-04-17T00:01:41Z</time></trkpt><trkpt lat="-24.481625037179516" lon="113.40915358958365"><ele>13.0</ele><time>2026-04-17T00:01:42Z</time></trkpt><trkpt lat="-24.481470386336497" lon="113.40901897382065"><ele>13.0</ele><time>2026-04-17T00:01:43Z</time></trkpt><trkpt lat="-24.48129688416492" lon="113.40892460714076"><ele>13.0</ele><time>2026-04-17T00:01:44Z</time></trkpt><trkpt lat="-24.481100644606922" lon="113.40888077364674"><ele>13.0</ele><time>2026-04-17T00:01:45Z</time></trkpt><trkpt lat="-24.480901889656124" lon="113.40884401630947"><ele>13.0</ele><time>2026-04-17T00:01:46Z</time></trkpt><trkpt lat="-24.480687060107382" lon="113.40881978603312"><ele>13.0</ele><time>2026-04-17T00:01:47Z</time></trkpt><trkpt lat="-24.480469936757967" lon="113.40876033788228"><ele>12.5</ele><time>2026-04-17T00:01:48Z</time></trkpt><trkpt lat="-24.480248491816727" lon="113.40871620302066"><ele>12.0</ele><time>2026-04-17T00:01:49Z</time></trkpt><trkpt lat="-24.480024906517805" lon="113.40867220787244"><ele>12.0</ele><time>2026-04-17T00:01:50Z</time></trkpt><trkpt lat="-24.479800882879243" lon="113.40864623072218"><ele>12.0</ele><time>2026-04-17T00:01:51Z</time></trkpt><trkpt lat="-24.479581586526166" lon="113.4086047349086"><ele>12.0</ele><time>2026-04-17T00:01:52Z</time></trkpt><trkpt lat="-24.479365011577627" lon="113.40856436268784"><ele>11.333333333333334</ele><time>2026-04-17T00:01:53Z</time></trkpt><trkpt lat="-24.479158714404292" lon="113.40852585227908"><ele>10.666666666666668</ele><time>2026-04-17T00:01:54Z</time></trkpt><trkpt lat="-24.478964031810694" lon="113.40849439391728"><ele>10.0</ele><time>2026-04-17T00:01:55Z</time></trkpt><trkpt lat="-24.478776856817213" lon="113.40844943142949"><ele>10.666666666666668</ele><time>2026-04-17T00:01:56Z</time></trkpt><trkpt lat="-24.478603849941063" lon="113.40845163064259"><ele>11.333333333333334</ele><time>2026-04-17T00:01:57Z</time></trkpt><trkpt lat="-24.478447488650634" lon="113.40844153955486"><ele>12.0</ele><time>2026-04-17T00:01:58Z</time></trkpt><trkpt lat="-24.47831346062618" lon="113.40843801012052"><ele>12.0</ele><time>2026-04-17T00:01:59Z</time></trkpt><trkpt lat="-24.478193167270224" lon="113.40844114956363"><ele>12.0</ele><time>2026-04-17T00:02:00Z</time></trkpt><trkpt lat="-24.478081836590867" lon="113.4084419110263"><ele>12.0</ele><time>2026-04-17T00:02:01Z</time></trkpt><trkpt lat="-24.477987112883635" lon="113.40842420538668"><ele>12.0</ele><time>2026-04-17T00:02:02Z</time></trkpt><trkpt lat="-24.47792127140161" lon="113.4084231816281"><ele>12.0</ele><time>2026-04-17T00:02:03Z</time></trkpt><trkpt lat="-24.47787097770221" lon="113.40862063616139"><ele>12.5</ele><time>2026-04-17T00:02:04Z</time></trkpt><trkpt lat="-24.477856017052304" lon="113.4087372794514"><ele>13.0</ele><time>2026-04-17T00:02:05Z</time></trkpt><trkpt lat="-24.477853809976395" lon="113.40887755231896"><ele>13.5</ele><time>2026-04-17T00:02:06Z</time></trkpt><trkpt lat="-24.47786490541527" lon="113.40904458589407"><ele>14.0</ele><time>2026-04-17T00:02:07Z</time></trkpt><trkpt lat="-24.477862642070335" lon="113.40922101338028"><ele>14.0</ele><time>2026-04-17T00:02:08Z</time></trkpt><trkpt lat="-24.47785499414793" lon="113.40941572577712"><ele>14.0</ele><time>2026-04-17T00:02:09Z</time></trkpt><trkpt lat="-24.47784545693917" lon="113.40962395304597"><ele>14.0</ele><time>2026-04-17T00:02:10Z</time></trkpt><trkpt lat="-24.47783756762576" lon="113.40984431953697"><ele>13.666666666666668</ele><time>2026-04-17T00:02:11Z</time></trkpt><trkpt lat="-24.477830885205005" lon="113.4100676845262"><ele>13.333333333333332</ele><time>2026-04-17T00:02:12Z</time></trkpt><trkpt lat="-24.477820739408852" lon="113.41029995811068"><ele>13.0</ele><time>2026-04-17T00:02:13Z</time></trkpt><trkpt lat="-24.47780834131191" lon="113.41053884334409"><ele>12.0</ele><time>2026-04-17T00:02:14Z</time></trkpt><trkpt lat="-24.477790158186647" lon="113.41076419253967"><ele>11.0</ele><time>2026-04-17T00:02:14.999Z</time></trkpt><trkpt lat="-24.477765260432673" lon="113.41100352568023"><ele>10.0</ele><time>2026-04-17T00:02:15.999Z</time></trkpt><trkpt lat="-24.477736156699713" lon="113.41125959870776"><ele>11.0</ele><time>2026-04-17T00:02:16.999Z</time></trkpt><trkpt lat="-24.47770077515308" lon="113.41151354788917"><ele>12.0</ele><time>2026-04-17T00:02:17.999Z</time></trkpt><trkpt lat="-24.477659070562535" lon="113.4117647651562"><ele>12.0</ele><time>2026-04-17T00:02:18.999Z</time></trkpt><trkpt lat="-24.477610700820577" lon="113.41201855490489"><ele>12.0</ele><time>2026-04-17T00:02:19.999Z</time></trkpt><trkpt lat="-24.477555371589208" lon="113.41227756610252"><ele>12.5</ele><time>2026-04-17T00:02:20.999Z</time></trkpt><trkpt lat="-24.477489361752138" lon="113.4125375066356"><ele>13.0</ele><time>2026-04-17T00:02:21.999Z</time></trkpt><trkpt lat="-24.477416583962626" lon="113.41279053043658"><ele>12.0</ele><time>2026-04-17T00:02:22.999Z</time></trkpt><trkpt lat="-24.477339491313483" lon="113.4130466058579"><ele>11.0</ele><time>2026-04-17T00:02:23.999Z</time></trkpt><trkpt lat="-24.477258504921444" lon="113.41330302610606"><ele>11.0</ele><time>2026-04-17T00:02:24.999Z</time></trkpt><trkpt lat="-24.47716191280797" lon="113.41355645593555"><ele>11.0</ele><time>2026-04-17T00:02:25.999Z</time></trkpt><trkpt lat="-24.4770625942047" lon="113.41380700837354"><ele>10.0</ele><time>2026-04-17T00:02:26.999Z</time></trkpt><trkpt lat="-24.476956530911337" lon="113.41405114718211"><ele>9.0</ele><time>2026-04-17T00:02:27.999Z</time></trkpt><trkpt lat="-24.47684414834048" lon="113.4142969198716"><ele>9.0</ele><time>2026-04-17T00:02:28.999Z</time></trkpt><trkpt lat="-24.47672555242479" lon="113.41454403311444"><ele>9.0</ele><time>2026-04-17T00:02:29.999Z</time></trkpt><trkpt lat="-24.47660652271192" lon="113.41479247022058"><ele>10.0</ele><time>2026-04-17T00:02:30.999Z</time></trkpt><trkpt lat="-24.4764906495035" lon="113.41504464330032"><ele>11.0</ele><time>2026-04-17T00:02:31.999Z</time></trkpt><trkpt lat="-24.476375047181374" lon="113.41529912492075"><ele>12.0</ele><time>2026-04-17T00:02:32.999Z</time></trkpt><trkpt lat="-24.47625746938304" lon="113.41555282078454"><ele>13.0</ele><time>2026-04-17T00:02:33.999Z</time></trkpt><trkpt lat="-24.47613785399376" lon="113.41580971126248"><ele>13.0</ele><time>2026-04-17T00:02:34.999Z</time></trkpt><trkpt lat="-24.47602059667868" lon="113.41606730022245"><ele>13.0</ele><time>2026-04-17T00:02:35.999Z</time></trkpt><trkpt lat="-24.475901961388875" lon="113.41633035663453"><ele>13.0</ele><time>2026-04-17T00:02:36.999Z</time></trkpt><trkpt lat="-24.4757817753598" lon="113.41659378728477"><ele>13.0</ele><time>2026-04-17T00:02:37.999Z</time></trkpt><trkpt lat="-24.475660880997918" lon="113.41686252261822"><ele>13.0</ele><time>2026-04-17T00:02:38.999Z</time></trkpt><trkpt lat="-24.475540669728097" lon="113.41713358885788"><ele>13.0</ele><time>2026-04-17T00:02:39.999Z</time></trkpt><trkpt lat="-24.47542180112913" lon="113.41740403631998"><ele>16.5</ele><time>2026-04-17T00:02:40.999Z</time></trkpt><trkpt lat="-24.475299638492892" lon="113.41767368862725"><ele>20.0</ele><time>2026-04-17T00:02:41.999Z</time></trkpt><trkpt lat="-24.475174715533722" lon="113.41794004208744"><ele>22.0</ele><time>2026-04-17T00:02:42.999Z</time></trkpt><trkpt lat="-24.47505026398654" lon="113.41820919403123"><ele>24.0</ele><time>2026-04-17T00:02:43.999Z</time></trkpt><trkpt lat="-24.474927935477126" lon="113.4184785114463"><ele>24.0</ele><time>2026-04-17T00:02:44.999Z</time></trkpt><trkpt lat="-24.474805182970073" lon="113.4187472349848"><ele>24.0</ele><time>2026-04-17T00:02:45.999Z</time></trkpt><trkpt lat="-24.474682276555075" lon="113.41901430976749"><ele>21.0</ele><time>2026-04-17T00:02:46.999Z</time></trkpt><trkpt lat="-24.474563586350293" lon="113.41927930145081"><ele>18.0</ele><time>2026-04-17T00:02:47.999Z</time></trkpt><trkpt lat="-24.474437614445215" lon="113.41952827553853"><ele>17.5</ele><time>2026-04-17T00:02:48.999Z</time></trkpt><trkpt lat="-24.474335852991" lon="113.41978105118774"><ele>17.0</ele><time>2026-04-17T00:02:49.999Z</time></trkpt><trkpt lat="-24.474260676923922" lon="113.42003933328841"><ele>17.0</ele><time>2026-04-17T00:02:50.999Z</time></trkpt><trkpt lat="-24.474163741796072" lon="113.42028560319922"><ele>17.0</ele><time>2026-04-17T00:02:51.999Z</time></trkpt><trkpt lat="-24.474099735476184" lon="113.42054386797831"><ele>17.0</ele><time>2026-04-17T00:02:52.999Z</time></trkpt><trkpt lat="-24.474059297735437" lon="113.42081204585564"><ele>17.0</ele><time>2026-04-17T00:02:53.999Z</time></trkpt><trkpt lat="-24.47401803102138" lon="113.42107774900575"><ele>18.0</ele><time>2026-04-17T00:02:54.999Z</time></trkpt><trkpt lat="-24.47399240149138" lon="113.42134421120335"><ele>19.0</ele><time>2026-04-17T00:02:55.999Z</time></trkpt><trkpt lat="-24.473975988624034" lon="113.4216062544696"><ele>19.0</ele><time>2026-04-17T00:02:56.999Z</time></trkpt><trkpt lat="-24.473973468936478" lon="113.42187023445513"><ele>19.0</ele><time>2026-04-17T00:02:57.999Z</time></trkpt><trkpt lat="-24.473979854757275" lon="113.42214211813445"><ele>18.5</ele><time>2026-04-17T00:02:58.999Z</time></trkpt><trkpt lat="-24.473999271951456" lon="113.42241437972636"><ele>18.0</ele><time>2026-04-17T00:02:59.999Z</time></trkpt><trkpt lat="-24.474037389619294" lon="113.42268712952325"><ele>18.0</ele><time>2026-04-17T00:03:00.999Z</time></trkpt><trkpt lat="-24.474090601599165" lon="113.42295557662985"><ele>18.0</ele><time>2026-04-17T00:03:01.999Z</time></trkpt><trkpt lat="-24.47416323490592" lon="113.42322373451225"><ele>18.5</ele><time>2026-04-17T00:03:02.999Z</time></trkpt><trkpt lat="-24.47424950243053" lon="113.42349132538259"><ele>19.0</ele><time>2026-04-17T00:03:03.999Z</time></trkpt><trkpt lat="-24.47434517371721" lon="113.42375999625983"><ele>17.0</ele><time>2026-04-17T00:03:04.999Z</time></trkpt><trkpt lat="-24.47444587265662" lon="113.42402760226285"><ele>15.0</ele><time>2026-04-17T00:03:05.999Z</time></trkpt><trkpt lat="-24.474548595414408" lon="113.42430089973831"><ele>16.0</ele><time>2026-04-17T00:03:06.999Z</time></trkpt><trkpt lat="-24.474649782022087" lon="113.42457695864124"><ele>17.0</ele><time>2026-04-17T00:03:07.999Z</time></trkpt><trkpt lat="-24.47474913831522" lon="113.42485289708459"><ele>17.5</ele><time>2026-04-17T00:03:08.999Z</time></trkpt><trkpt lat="-24.47485011351136" lon="113.42513276413317"><ele>18.0</ele><time>2026-04-17T00:03:09.999Z</time></trkpt><trkpt lat="-24.47495339108553" lon="113.42541040594094"><ele>20.0</ele><time>2026-04-17T00:03:10.999Z</time></trkpt><trkpt lat="-24.475056209774863" lon="113.42568841599216"><ele>22.0</ele><time>2026-04-17T00:03:11.999Z</time></trkpt><trkpt lat="-24.47515840425382" lon="113.425967738639"><ele>22.0</ele><time>2026-04-17T00:03:12.999Z</time></trkpt><trkpt lat="-24.475261271721575" lon="113.42624595811989"><ele>22.0</ele><time>2026-04-17T00:03:13.999Z</time></trkpt><trkpt lat="-24.475360404950518" lon="113.42652295909987"><ele>22.5</ele><time>2026-04-17T00:03:14.999Z</time></trkpt><trkpt lat="-24.47546073534619" lon="113.42680194413097"><ele>23.0</ele><time>2026-04-17T00:03:15.999Z</time></trkpt><trkpt lat="-24.4755644419289" lon="113.42708167873828"><ele>22.0</ele><time>2026-04-17T00:03:16.999Z</time></trkpt><trkpt lat="-24.47567021082968" lon="113.42736900059285"><ele>21.0</ele><time>2026-04-17T00:03:17.999Z</time></trkpt><trkpt lat="-24.475774079102504" lon="113.4276592663068"><ele>21.0</ele><time>2026-04-17T00:03:18.999Z</time></trkpt><trkpt lat="-24.47587895592741" lon="113.4279511588965"><ele>21.0</ele><time>2026-04-17T00:03:19.999Z</time></trkpt><trkpt lat="-24.47598467819947" lon="113.42823871632174"><ele>21.0</ele><time>2026-04-17T00:03:20.999Z</time></trkpt><trkpt lat="-24.47608867889575" lon="113.42852205411145"><ele>21.0</ele><time>2026-04-17T00:03:22Z</time></trkpt><trkpt lat="-24.47619158877613" lon="113.42880792866849"><ele>21.5</ele><time>2026-04-17T00:03:23Z</time></trkpt><trkpt lat="-24.4762916526698" lon="113.42909430845637"><ele>22.0</ele><time>2026-04-17T00:03:24Z</time></trkpt><trkpt lat="-24.47638321457228" lon="113.42938012309827"><ele>20.0</ele><time>2026-04-17T00:03:25Z</time></trkpt><trkpt lat="-24.47646834544513" lon="113.42966954563137"><ele>18.0</ele><time>2026-04-17T00:03:26Z</time></trkpt><trkpt lat="-24.47654322739047" lon="113.42995950993567"><ele>18.0</ele><time>2026-04-17T00:03:27Z</time></trkpt><trkpt lat="-24.47660742178918" lon="113.43025921195118"><ele>18.0</ele><time>2026-04-17T00:03:28Z</time></trkpt><trkpt lat="-24.476668780234387" lon="113.43055556208131"><ele>17.5</ele><time>2026-04-17T00:03:29Z</time></trkpt><trkpt lat="-24.476735072331817" lon="113.43085456884678"><ele>17.0</ele><time>2026-04-17T00:03:30Z</time></trkpt><trkpt lat="-24.476807026262026" lon="113.43116195221161"><ele>16.0</ele><time>2026-04-17T00:03:31Z</time></trkpt><trkpt lat="-24.476878134520092" lon="113.43146879635087"><ele>15.0</ele><time>2026-04-17T00:03:32Z</time></trkpt><trkpt lat="-24.4769467222359" lon="113.4317807357213"><ele>15.0</ele><time>2026-04-17T00:03:33Z</time></trkpt><trkpt lat="-24.47701530123703" lon="113.43209232406831"><ele>15.0</ele><time>2026-04-17T00:03:34Z</time></trkpt><trkpt lat="-24.477085274443244" lon="113.43240263859424"><ele>15.0</ele><time>2026-04-17T00:03:35Z</time></trkpt><trkpt lat="-24.47715530904125" lon="113.43271166120691"><ele>15.0</ele><time>2026-04-17T00:03:36Z</time></trkpt><trkpt lat="-24.4772234022835" lon="113.43301879471812"><ele>16.0</ele><time>2026-04-17T00:03:37Z</time></trkpt><trkpt lat="-24.477294693092027" lon="113.43332597595703"><ele>17.0</ele><time>2026-04-17T00:03:38Z</time></trkpt><trkpt lat="-24.47737420496811" lon="113.4336269801407"><ele>16.5</ele><time>2026-04-17T00:03:39Z</time></trkpt><trkpt lat="-24.477464755749146" lon="113.43392173611247"><ele>16.0</ele><time>2026-04-17T00:03:40Z</time></trkpt><trkpt lat="-24.477570992574137" lon="113.43420924395612"><ele>16.0</ele><time>2026-04-17T00:03:41Z</time></trkpt><trkpt lat="-24.47769155090679" lon="113.43449030578051"><ele>16.0</ele><time>2026-04-17T00:03:42Z</time></trkpt><trkpt lat="-24.47782514444847" lon="113.43476890904927"><ele>18.0</ele><time>2026-04-17T00:03:43Z</time></trkpt><trkpt lat="-24.4779686959124" lon="113.43504379392124"><ele>20.0</ele><time>2026-04-17T00:03:44Z</time></trkpt><trkpt lat="-24.478123879153483" lon="113.43531606174282"><ele>19.5</ele><time>2026-04-17T00:03:45Z</time></trkpt><trkpt lat="-24.478289219796387" lon="113.43557962336936"><ele>19.0</ele><time>2026-04-17T00:03:46Z</time></trkpt><trkpt lat="-24.4784608002722" lon="113.43583744760517"><ele>19.0</ele><time>2026-04-17T00:03:47Z</time></trkpt><trkpt lat="-24.478645632613993" lon="113.43608538515426"><ele>19.0</ele><time>2026-04-17T00:03:48Z</time></trkpt><trkpt lat="-24.478835581054184" lon="113.436328035231"><ele>18.5</ele><time>2026-04-17T00:03:49Z</time></trkpt><trkpt lat="-24.479032713243477" lon="113.43656933327445"><ele>18.0</ele><time>2026-04-17T00:03:50Z</time></trkpt><trkpt lat="-24.479230516280584" lon="113.43681156464142"><ele>18.0</ele><time>2026-04-17T00:03:51Z</time></trkpt><trkpt lat="-24.479427716349672" lon="113.43705316461933"><ele>18.0</ele><time>2026-04-17T00:03:52Z</time></trkpt><trkpt lat="-24.479622757353795" lon="113.43729813676126"><ele>19.0</ele><time>2026-04-17T00:03:53Z</time></trkpt><trkpt lat="-24.479819989679935" lon="113.43754097289244"><ele>20.0</ele><time>2026-04-17T00:03:54Z</time></trkpt><trkpt lat="-24.48002062931583" lon="113.43778185759963"><ele>20.0</ele><time>2026-04-17T00:03:55Z</time></trkpt><trkpt lat="-24.480219575544346" lon="113.4380217166796"><ele>20.0</ele><time>2026-04-17T00:03:56Z</time></trkpt><trkpt lat="-24.48041384451078" lon="113.4382633672953"><ele>20.5</ele><time>2026-04-17T00:03:57Z</time></trkpt><trkpt lat="-24.48060555050484" lon="113.43850154151752"><ele>21.0</ele><time>2026-04-17T00:03:58Z</time></trkpt><trkpt lat="-24.480798681736378" lon="113.43874024733046"><ele>20.0</ele><time>2026-04-17T00:03:59Z</time></trkpt><trkpt lat="-24.480989906951145" lon="113.43897685098"><ele>19.0</ele><time>2026-04-17T00:04:00Z</time></trkpt><trkpt lat="-24.481183576339607" lon="113.43921456671383"><ele>18.5</ele><time>2026-04-17T00:04:01Z</time></trkpt><trkpt lat="-24.48137925005304" lon="113.43945226671917"><ele>18.0</ele><time>2026-04-17T00:04:02Z</time></trkpt><trkpt lat="-24.481575520988546" lon="113.43969105367988"><ele>17.5</ele><time>2026-04-17T00:04:03Z</time></trkpt><trkpt lat="-24.48176916878422" lon="113.43993028378468"><ele>17.0</ele><time>2026-04-17T00:04:04Z</time></trkpt><trkpt lat="-24.481962941639342" lon="113.44017688858708"><ele>17.0</ele><time>2026-04-17T00:04:05Z</time></trkpt><trkpt lat="-24.482150078272134" lon="113.44043029566977"><ele>17.0</ele><time>2026-04-17T00:04:06Z</time></trkpt><trkpt lat="-24.482327130812898" lon="113.44068666916513"><ele>17.0</ele><time>2026-04-17T00:04:07Z</time></trkpt><trkpt lat="-24.482494832815814" lon="113.44094944854848"><ele>17.0</ele><time>2026-04-17T00:04:08Z</time></trkpt><trkpt lat="-24.482651205343778" lon="113.44122027894613"><ele>16.0</ele><time>2026-04-17T00:04:09Z</time></trkpt><trkpt lat="-24.482800260588014" lon="113.44149767599946"><ele>15.0</ele><time>2026-04-17T00:04:10Z</time></trkpt><trkpt lat="-24.482942307240428" lon="113.44178121010218"><ele>14.0</ele><time>2026-04-17T00:04:11Z</time></trkpt><trkpt lat="-24.483073765652815" lon="113.44207155492556"><ele>13.0</ele><time>2026-04-17T00:04:12Z</time></trkpt><trkpt lat="-24.483191693201498" lon="113.44236850466895"><ele>13.0</ele><time>2026-04-17T00:04:13Z</time></trkpt><trkpt lat="-24.483303627886183" lon="113.44266790081188"><ele>13.0</ele><time>2026-04-17T00:04:14Z</time></trkpt><trkpt lat="-24.483409559002972" lon="113.44296798067211"><ele>12.0</ele><time>2026-04-17T00:04:15Z</time></trkpt><trkpt lat="-24.483511660774727" lon="113.44326808896653"><ele>11.0</ele><time>2026-04-17T00:04:16Z</time></trkpt><trkpt lat="-24.48360864207579" lon="113.44357286950247"><ele>11.5</ele><time>2026-04-17T00:04:17Z</time></trkpt><trkpt lat="-24.48370527132419" lon="113.44387631688481"><ele>12.0</ele><time>2026-04-17T00:04:18Z</time></trkpt><trkpt lat="-24.483808037139273" lon="113.4441801337969"><ele>12.0</ele><time>2026-04-17T00:04:19Z</time></trkpt><trkpt lat="-24.48391274384374" lon="113.44447872411175"><ele>12.0</ele><time>2026-04-17T00:04:20Z</time></trkpt><trkpt lat="-24.484019768463458" lon="113.44477675814042"><ele>12.0</ele><time>2026-04-17T00:04:21Z</time></trkpt><trkpt lat="-24.48412872914397" lon="113.44507164273672"><ele>12.0</ele><time>2026-04-17T00:04:22Z</time></trkpt><trkpt lat="-24.484246410999145" lon="113.44536115501248"><ele>12.0</ele><time>2026-04-17T00:04:23Z</time></trkpt><trkpt lat="-24.484343826477794" lon="113.44566144067812"><ele>12.0</ele><time>2026-04-17T00:04:24Z</time></trkpt><trkpt lat="-24.48451824221816" lon="113.44592802910232"><ele>12.0</ele><time>2026-04-17T00:04:25Z</time></trkpt><trkpt lat="-24.484675651883563" lon="113.44620207359976"><ele>12.0</ele><time>2026-04-17T00:04:26Z</time></trkpt><trkpt lat="-24.48483914918223" lon="113.44647413004596"><ele>11.5</ele><time>2026-04-17T00:04:27Z</time></trkpt><trkpt lat="-24.48500840402252" lon="113.4467445165568"><ele>11.0</ele><time>2026-04-17T00:04:28Z</time></trkpt><trkpt lat="-24.485185367891663" lon="113.44700820112318"><ele>10.5</ele><time>2026-04-17T00:04:29Z</time></trkpt><trkpt lat="-24.485373438163364" lon="113.44726700299381"><ele>10.0</ele><time>2026-04-17T00:04:30Z</time></trkpt><trkpt lat="-24.48556592606048" lon="113.44752174953062"><ele>9.5</ele><time>2026-04-17T00:04:31Z</time></trkpt><trkpt lat="-24.485759297526574" lon="113.44777708860346"><ele>9.0</ele><time>2026-04-17T00:04:31.999Z</time></trkpt><trkpt lat="-24.485947591429035" lon="113.44803246875566"><ele>10.0</ele><time>2026-04-17T00:04:32.999Z</time></trkpt><trkpt lat="-24.486133798430906" lon="113.44828636104285"><ele>11.0</ele><time>2026-04-17T00:04:33.999Z</time></trkpt><trkpt lat="-24.486321321714964" lon="113.44853922944438"><ele>11.0</ele><time>2026-04-17T00:04:34.999Z</time></trkpt><trkpt lat="-24.486507122528764" lon="113.44879250996196"><ele>11.0</ele><time>2026-04-17T00:04:35.999Z</time></trkpt><trkpt lat="-24.486690586474783" lon="113.44904487448566"><ele>11.0</ele><time>2026-04-17T00:04:36.999Z</time></trkpt><trkpt lat="-24.486874656661147" lon="113.44929443812559"><ele>11.0</ele><time>2026-04-17T00:04:37.999Z</time></trkpt><trkpt lat="-24.48705952576362" lon="113.44954349279448"><ele>11.5</ele><time>2026-04-17T00:04:38.999Z</time></trkpt><trkpt lat="-24.487245176757884" lon="113.44979486020435"><ele>12.0</ele><time>2026-04-17T00:04:39.999Z</time></trkpt><trkpt lat="-24.487431861625677" lon="113.45004563937995"><ele>12.0</ele><time>2026-04-17T00:04:40.999Z</time></trkpt><trkpt lat="-24.48761354929609" lon="113.45029559140227"><ele>12.0</ele><time>2026-04-17T00:04:41.999Z</time></trkpt><trkpt lat="-24.48779687927367" lon="113.45054677261288"><ele>11.5</ele><time>2026-04-17T00:04:42.999Z</time></trkpt><trkpt lat="-24.48798059734878" lon="113.45079718353122"><ele>11.0</ele><time>2026-04-17T00:04:43.999Z</time></trkpt><trkpt lat="-24.48816620951993" lon="113.45104787580276"><ele>12.5</ele><time>2026-04-17T00:04:44.999Z</time></trkpt><trkpt lat="-24.48834924508262" lon="113.45129602659713"><ele>14.0</ele><time>2026-04-17T00:04:45.999Z</time></trkpt><trkpt lat="-24.48853404182465" lon="113.45154781858962"><ele>14.0</ele><time>2026-04-17T00:04:46.999Z</time></trkpt><trkpt lat="-24.48871670722855" lon="113.45179634477832"><ele>14.0</ele><time>2026-04-17T00:04:47.999Z</time></trkpt><trkpt lat="-24.488902848399434" lon="113.45204608206713"><ele>12.5</ele><time>2026-04-17T00:04:48.999Z</time></trkpt><trkpt lat="-24.489089412169932" lon="113.45229678530384"><ele>11.0</ele><time>2026-04-17T00:04:49.999Z</time></trkpt><trkpt lat="-24.489275952344435" lon="113.45254996244283"><ele>11.0</ele><time>2026-04-17T00:04:50.999Z</time></trkpt><trkpt lat="-24.489464456942557" lon="113.452807324055"><ele>11.0</ele><time>2026-04-17T00:04:51.999Z</time></trkpt><trkpt lat="-24.489652666814006" lon="113.45306594234727"><ele>9.0</ele><time>2026-04-17T00:04:52.999Z</time></trkpt><trkpt lat="-24.48984236531864" lon="113.4533261191488"><ele>7.0</ele><time>2026-04-17T00:04:53.999Z</time></trkpt><trkpt lat="-24.490032665536695" lon="113.45358568294945"><ele>8.0</ele><time>2026-04-17T00:04:54.999Z</time></trkpt><trkpt lat="-24.49022450926187" lon="113.45384693996029"><ele>9.0</ele><time>2026-04-17T00:04:55.999Z</time></trkpt><trkpt lat="-24.490414727165746" lon="113.45410770033799"><ele>8.5</ele><time>2026-04-17T00:04:56.999Z</time></trkpt><trkpt lat="-24.490606512886835" lon="113.4543692598189"><ele>8.0</ele><time>2026-04-17T00:04:57.999Z</time></trkpt><trkpt lat="-24.4907992754346" lon="113.45463009645592"><ele>8.0</ele><time>2026-04-17T00:04:58.999Z</time></trkpt><trkpt lat="-24.49099313636748" lon="113.4548906688129"><ele>8.0</ele><time>2026-04-17T00:04:59.999Z</time></trkpt><trkpt lat="-24.491183502913483" lon="113.45514957821476"><ele>8.0</ele><time>2026-04-17T00:05:00.999Z</time></trkpt><trkpt lat="-24.49137313711139" lon="113.45540829433534"><ele>8.0</ele><time>2026-04-17T00:05:01.999Z</time></trkpt><trkpt lat="-24.49156036418668" lon="113.45566496643612"><ele>7.5</ele><time>2026-04-17T00:05:02.999Z</time></trkpt><trkpt lat="-24.49174616760934" lon="113.45591898297911"><ele>7.0</ele><time>2026-04-17T00:05:03.999Z</time></trkpt><trkpt lat="-24.491932918244885" lon="113.45616636123788"><ele>7.0</ele><time>2026-04-17T00:05:04.999Z</time></trkpt><trkpt lat="-24.49211632379782" lon="113.4564150229833"><ele>7.0</ele><time>2026-04-17T00:05:05.999Z</time></trkpt><trkpt lat="-24.492296509217834" lon="113.45666149823153"><ele>7.0</ele><time>2026-04-17T00:05:06.999Z</time></trkpt><trkpt lat="-24.492476315815498" lon="113.45690685116861"><ele>7.0</ele><time>2026-04-17T00:05:08Z</time></trkpt><trkpt lat="-24.4926593094153" lon="113.4571496258884"><ele>7.5</ele><time>2026-04-17T00:05:09Z</time></trkpt><trkpt lat="-24.492838851987486" lon="113.4573923897896"><ele>8.0</ele><time>2026-04-17T00:05:10Z</time></trkpt><trkpt lat="-24.493013523695115" lon="113.45763944696084"><ele>8.0</ele><time>2026-04-17T00:05:11Z</time></trkpt><trkpt lat="-24.493188034243328" lon="113.4578831285626"><ele>8.0</ele><time>2026-04-17T00:05:12Z</time></trkpt><trkpt lat="-24.493364353283596" lon="113.45812526527007"><ele>7.5</ele><time>2026-04-17T00:05:13Z</time></trkpt><trkpt lat="-24.493538811468188" lon="113.45836610927137"><ele>7.0</ele><time>2026-04-17T00:05:14Z</time></trkpt><trkpt lat="-24.493711163830856" lon="113.45860155258293"><ele>6.5</ele><time>2026-04-17T00:05:15Z</time></trkpt><trkpt lat="-24.49388701334925" lon="113.45883795517871"><ele>6.0</ele><time>2026-04-17T00:05:16Z</time></trkpt><trkpt lat="-24.494060121418915" lon="113.45907258187685"><ele>6.0</ele><time>2026-04-17T00:05:17Z</time></trkpt><trkpt lat="-24.494231658941548" lon="113.45930995901047"><ele>6.0</ele><time>2026-04-17T00:05:18Z</time></trkpt><trkpt lat="-24.494403714637865" lon="113.45954441860599"><ele>6.0</ele><time>2026-04-17T00:05:19Z</time></trkpt><trkpt lat="-24.494578684767912" lon="113.45977620662843"><ele>6.0</ele><time>2026-04-17T00:05:20Z</time></trkpt><trkpt lat="-24.49475109308651" lon="113.46000610444699"><ele>6.0</ele><time>2026-04-17T00:05:21Z</time></trkpt><trkpt lat="-24.494921394517533" lon="113.46023337007131"><ele>6.0</ele><time>2026-04-17T00:05:22Z</time></trkpt><trkpt lat="-24.495091762932496" lon="113.4604659042037"><ele>6.0</ele><time>2026-04-17T00:05:23Z</time></trkpt><trkpt lat="-24.495259113262836" lon="113.46069387099466"><ele>6.0</ele><time>2026-04-17T00:05:24Z</time></trkpt><trkpt lat="-24.495422907055513" lon="113.46092126100982"><ele>6.0</ele><time>2026-04-17T00:05:25Z</time></trkpt><trkpt lat="-24.495587919023365" lon="113.46114501549236"><ele>6.0</ele><time>2026-04-17T00:05:26Z</time></trkpt><trkpt lat="-24.49575550623937" lon="113.46136553008176"><ele>7.5</ele><time>2026-04-17T00:05:27Z</time></trkpt><trkpt lat="-24.495920262040748" lon="113.46158536700388"><ele>9.0</ele><time>2026-04-17T00:05:28Z</time></trkpt><trkpt lat="-24.49608152751886" lon="113.46180661072724"><ele>9.0</ele><time>2026-04-17T00:05:29Z</time></trkpt><trkpt lat="-24.496245624138428" lon="113.46202417451681"><ele>9.0</ele><time>2026-04-17T00:05:30Z</time></trkpt><trkpt lat="-24.496416791340582" lon="113.46223826158104"><ele>8.5</ele><time>2026-04-17T00:05:31Z</time></trkpt><trkpt lat="-24.49659163021798" lon="113.46244404273796"><ele>8.0</ele><time>2026-04-17T00:05:32Z</time></trkpt><trkpt lat="-24.49677184062061" lon="113.46264092896573"><ele>8.0</ele><time>2026-04-17T00:05:33Z</time></trkpt><trkpt lat="-24.49695712784527" lon="113.46283286486049"><ele>8.0</ele><time>2026-04-17T00:05:34Z</time></trkpt><trkpt lat="-24.497147971584475" lon="113.46302168888472"><ele>7.5</ele><time>2026-04-17T00:05:35Z</time></trkpt><trkpt lat="-24.49733931488436" lon="113.4632044441438"><ele>7.0</ele><time>2026-04-17T00:05:36Z</time></trkpt><trkpt lat="-24.497532006689035" lon="113.4633851870681"><ele>7.0</ele><time>2026-04-17T00:05:37Z</time></trkpt><trkpt lat="-24.497727055292675" lon="113.46355845986028"><ele>7.0</ele><time>2026-04-17T00:05:38Z</time></trkpt><trkpt lat="-24.497928053158713" lon="113.46372118738572"><ele>7.0</ele><time>2026-04-17T00:05:39Z</time></trkpt><trkpt lat="-24.49813174642938" lon="113.463879538509"><ele>7.0</ele><time>2026-04-17T00:05:40Z</time></trkpt><trkpt lat="-24.498334391762437" lon="113.46403675887302"><ele>7.0</ele><time>2026-04-17T00:05:41Z</time></trkpt><trkpt lat="-24.49853876171541" lon="113.46418720501539"><ele>7.0</ele><time>2026-04-17T00:05:42Z</time></trkpt><trkpt lat="-24.49874570077694" lon="113.46433553787396"><ele>7.5</ele><time>2026-04-17T00:05:43Z</time></trkpt><trkpt lat="-24.498950131272736" lon="113.46448065011286"><ele>8.0</ele><time>2026-04-17T00:05:44Z</time></trkpt><trkpt lat="-24.49915669779881" lon="113.46463125688524"><ele>8.0</ele><time>2026-04-17T00:05:45Z</time></trkpt><trkpt lat="-24.499357845625134" lon="113.46478386021778"><ele>8.0</ele><time>2026-04-17T00:05:46Z</time></trkpt><trkpt lat="-24.49955747011691" lon="113.46494244589303"><ele>6.5</ele><time>2026-04-17T00:05:47Z</time></trkpt><trkpt lat="-24.499760386353103" lon="113.46509977025738"><ele>5.0</ele><time>2026-04-17T00:05:48Z</time></trkpt><trkpt lat="-24.49996743481868" lon="113.46524981705633"><ele>5.0</ele><time>2026-04-17T00:05:49Z</time></trkpt><trkpt lat="-24.50017530956916" lon="113.465399373523"><ele>5.0</ele><time>2026-04-17T00:05:50Z</time></trkpt><trkpt lat="-24.500383675603192" lon="113.46555141888608"><ele>6.5</ele><time>2026-04-17T00:05:51Z</time></trkpt><trkpt lat="-24.50059073975462" lon="113.4657028308166"><ele>8.0</ele><time>2026-04-17T00:05:52Z</time></trkpt><trkpt lat="-24.500799412965094" lon="113.46585635202607"><ele>8.0</ele><time>2026-04-17T00:05:53Z</time></trkpt><trkpt lat="-24.501003400161057" lon="113.46600736048183"><ele>8.0</ele><time>2026-04-17T00:05:54Z</time></trkpt><trkpt lat="-24.501211678666586" lon="113.46615827201177"><ele>7.0</ele><time>2026-04-17T00:05:55Z</time></trkpt><trkpt lat="-24.50141664962482" lon="113.46630623785398"><ele>6.0</ele><time>2026-04-17T00:05:56Z</time></trkpt><trkpt lat="-24.50162186371841" lon="113.46645774805839"><ele>6.0</ele><time>2026-04-17T00:05:57Z</time></trkpt><trkpt lat="-24.50182708617141" lon="113.46660902764378"><ele>6.0</ele><time>2026-04-17T00:05:58Z</time></trkpt><trkpt lat="-24.50203112364073" lon="113.46676231246731"><ele>6.5</ele><time>2026-04-17T00:05:59Z</time></trkpt><trkpt lat="-24.502232662332336" lon="113.46691472500767"><ele>7.0</ele><time>2026-04-17T00:06:00Z</time></trkpt><trkpt lat="-24.502436848186157" lon="113.46706545136767"><ele>7.0</ele><time>2026-04-17T00:06:01Z</time></trkpt><trkpt lat="-24.502642803197958" lon="113.46721751492446"><ele>7.0</ele><time>2026-04-17T00:06:02Z</time></trkpt><trkpt lat="-24.502847993894864" lon="113.4673726225448"><ele>7.0</ele><time>2026-04-17T00:06:03Z</time></trkpt><trkpt lat="-24.503055258551715" lon="113.46752725612426"><ele>7.0</ele><time>2026-04-17T00:06:04Z</time></trkpt><trkpt lat="-24.503262114042357" lon="113.46768085682058"><ele>7.0</ele><time>2026-04-17T00:06:05Z</time></trkpt><trkpt lat="-24.503466729168274" lon="113.46783443315447"><ele>7.0</ele><time>2026-04-17T00:06:06Z</time></trkpt><trkpt lat="-24.503675223914968" lon="113.46798696779568"><ele>6.0</ele><time>2026-04-17T00:06:07Z</time></trkpt><trkpt lat="-24.503881354817544" lon="113.46813940958282"><ele>5.0</ele><time>2026-04-17T00:06:08Z</time></trkpt><trkpt lat="-24.50409164716251" lon="113.46829404535478"><ele>5.0</ele><time>2026-04-17T00:06:09Z</time></trkpt><trkpt lat="-24.504304066994155" lon="113.46844772193919"><ele>5.0</ele><time>2026-04-17T00:06:10Z</time></trkpt><trkpt lat="-24.504519496904464" lon="113.4686055147855"><ele>5.0</ele><time>2026-04-17T00:06:11Z</time></trkpt><trkpt lat="-24.50473836936021" lon="113.46876729967616"><ele>5.0</ele><time>2026-04-17T00:06:12Z</time></trkpt><trkpt lat="-24.504959596904243" lon="113.46892932076865"><ele>5.5</ele><time>2026-04-17T00:06:13Z</time></trkpt><trkpt lat="-24.505181452295957" lon="113.46908869299128"><ele>6.0</ele><time>2026-04-17T00:06:14Z</time></trkpt><trkpt lat="-24.505402167391658" lon="113.46924927089397"><ele>6.0</ele><time>2026-04-17T00:06:15Z</time></trkpt><trkpt lat="-24.50561936547268" lon="113.46941157182765"><ele>6.0</ele><time>2026-04-17T00:06:16Z</time></trkpt><trkpt lat="-24.50583562603418" lon="113.46957354570728"><ele>5.5</ele><time>2026-04-17T00:06:17Z</time></trkpt><trkpt lat="-24.506051673213832" lon="113.46973181617295"><ele>5.0</ele><time>2026-04-17T00:06:18Z</time></trkpt><trkpt lat="-24.506266895138406" lon="113.46988931853744"><ele>5.0</ele><time>2026-04-17T00:06:19Z</time></trkpt><trkpt lat="-24.50648041670682" lon="113.47005071249059"><ele>5.0</ele><time>2026-04-17T00:06:20Z</time></trkpt><trkpt lat="-24.50669325350407" lon="113.47021525327331"><ele>5.0</ele><time>2026-04-17T00:06:21Z</time></trkpt><trkpt lat="-24.506906239849183" lon="113.47038043532287"><ele>5.0</ele><time>2026-04-17T00:06:22Z</time></trkpt><trkpt lat="-24.50712263198452" lon="113.47054100396058"><ele>4.5</ele><time>2026-04-17T00:06:23Z</time></trkpt><trkpt lat="-24.507341759526927" lon="113.47070190643115"><ele>4.0</ele><time>2026-04-17T00:06:24Z</time></trkpt><trkpt lat="-24.507560027079755" lon="113.47086215745786"><ele>4.0</ele><time>2026-04-17T00:06:25Z</time></trkpt><trkpt lat="-24.507778689420693" lon="113.47102567470188"><ele>4.0</ele><time>2026-04-17T00:06:26Z</time></trkpt><trkpt lat="-24.507997755876577" lon="113.47118720572446"><ele>5.5</ele><time>2026-04-17T00:06:27Z</time></trkpt><trkpt lat="-24.508220542049038" lon="113.4713499247092"><ele>7.0</ele><time>2026-04-17T00:06:28Z</time></trkpt><trkpt lat="-24.508448235238934" lon="113.4715136507946"><ele>7.0</ele><time>2026-04-17T00:06:29Z</time></trkpt><trkpt lat="-24.5086788209641" lon="113.4716803995828"><ele>7.0</ele><time>2026-04-17T00:06:30Z</time></trkpt><trkpt lat="-24.50890760376802" lon="113.47184984517675"><ele>6.5</ele><time>2026-04-17T00:06:31Z</time></trkpt><trkpt lat="-24.50913476301161" lon="113.47202084201767"><ele>6.0</ele><time>2026-04-17T00:06:32Z</time></trkpt><trkpt lat="-24.509361599579012" lon="113.47219149056446"><ele>6.5</ele><time>2026-04-17T00:06:33Z</time></trkpt><trkpt lat="-24.509589765053416" lon="113.47235743493464"><ele>7.0</ele><time>2026-04-17T00:06:34Z</time></trkpt><trkpt lat="-24.509817824346335" lon="113.47252046113944"><ele>7.0</ele><time>2026-04-17T00:06:35Z</time></trkpt><trkpt lat="-24.510042318352184" lon="113.47268576107142"><ele>7.0</ele><time>2026-04-17T00:06:36Z</time></trkpt><trkpt lat="-24.51026499889209" lon="113.47285264187673"><ele>6.5</ele><time>2026-04-17T00:06:37Z</time></trkpt><trkpt lat="-24.51048743366138" lon="113.47302085074362"><ele>6.0</ele><time>2026-04-17T00:06:38Z</time></trkpt><trkpt lat="-24.51071002770632" lon="113.47318735679337"><ele>6.0</ele><time>2026-04-17T00:06:39Z</time></trkpt><trkpt lat="-24.510934380145454" lon="113.47335192060045"><ele>6.0</ele><time>2026-04-17T00:06:40Z</time></trkpt><trkpt lat="-24.5111595337395" lon="113.47351656206796"><ele>6.0</ele><time>2026-04-17T00:06:41Z</time></trkpt><trkpt lat="-24.511382133285874" lon="113.47368270567813"><ele>6.0</ele><time>2026-04-17T00:06:42Z</time></trkpt><trkpt lat="-24.511604158197983" lon="113.47384893826715"><ele>5.5</ele><time>2026-04-17T00:06:43Z</time></trkpt><trkpt lat="-24.511827274395902" lon="113.47401083940814"><ele>5.0</ele><time>2026-04-17T00:06:44Z</time></trkpt><trkpt lat="-24.51205127977669" lon="113.47417138537055"><ele>6.0</ele><time>2026-04-17T00:06:45Z</time></trkpt><trkpt lat="-24.512271739777603" lon="113.47433315396104"><ele>7.0</ele><time>2026-04-17T00:06:46Z</time></trkpt><trkpt lat="-24.51249048679565" lon="113.47449967557598"><ele>6.0</ele><time>2026-04-17T00:06:47Z</time></trkpt><trkpt lat="-24.51270883448126" lon="113.47466756958086"><ele>5.0</ele><time>2026-04-17T00:06:48Z</time></trkpt><trkpt lat="-24.512925992568086" lon="113.47483459709896"><ele>5.0</ele><time>2026-04-17T00:06:49Z</time></trkpt><trkpt lat="-24.513138710029367" lon="113.47499061515991"><ele>5.0</ele><time>2026-04-17T00:06:50Z</time></trkpt><trkpt lat="-24.513350805105063" lon="113.47514587824445"><ele>5.0</ele><time>2026-04-17T00:06:51Z</time></trkpt><trkpt lat="-24.51356189736127" lon="113.47530131396569"><ele>5.0</ele><time>2026-04-17T00:06:52Z</time></trkpt><trkpt lat="-24.51377315430829" lon="113.4754590189344"><ele>5.0</ele><time>2026-04-17T00:06:53Z</time></trkpt><trkpt lat="-24.513989859267426" lon="113.47562029170138"><ele>5.0</ele><time>2026-04-17T00:06:54Z</time></trkpt><trkpt lat="-24.514212207314937" lon="113.47578198086424"><ele>5.0</ele><time>2026-04-17T00:06:55Z</time></trkpt><trkpt lat="-24.51443860399462" lon="113.47594722226424"><ele>5.0</ele><time>2026-04-17T00:06:56Z</time></trkpt><trkpt lat="-24.51466725948806" lon="113.47611634567112"><ele>6.0</ele><time>2026-04-17T00:06:57Z</time></trkpt><trkpt lat="-24.51489779311045" lon="113.47628390165379"><ele>7.0</ele><time>2026-04-17T00:06:58Z</time></trkpt><trkpt lat="-24.515129402163808" lon="113.47645099035661"><ele>7.0</ele><time>2026-04-17T00:06:59Z</time></trkpt><trkpt lat="-24.51535917260744" lon="113.47662211766999"><ele>7.0</ele><time>2026-04-17T00:07:00Z</time></trkpt><trkpt lat="-24.515584340408477" lon="113.47679136170655"><ele>7.0</ele><time>2026-04-17T00:07:01Z</time></trkpt><trkpt lat="-24.515807319894773" lon="113.4769570743316"><ele>7.0</ele><time>2026-04-17T00:07:02Z</time></trkpt><trkpt lat="-24.51603254527801" lon="113.4771216661834"><ele>5.5</ele><time>2026-04-17T00:07:03Z</time></trkpt><trkpt lat="-24.516254515146322" lon="113.47728791905935"><ele>4.0</ele><time>2026-04-17T00:07:04Z</time></trkpt><trkpt lat="-24.516472444843618" lon="113.47745630603171"><ele>4.0</ele><time>2026-04-17T00:07:05Z</time></trkpt><trkpt lat="-24.516686635811137" lon="113.4776178196077"><ele>4.0</ele><time>2026-04-17T00:07:06Z</time></trkpt><trkpt lat="-24.51690190738475" lon="113.47777395786795"><ele>4.5</ele><time>2026-04-17T00:07:07Z</time></trkpt><trkpt lat="-24.517111619636164" lon="113.47792630519992"><ele>5.0</ele><time>2026-04-17T00:07:08Z</time></trkpt><trkpt lat="-24.517318005190553" lon="113.47807822310219"><ele>5.5</ele><time>2026-04-17T00:07:09Z</time></trkpt><trkpt lat="-24.517520996063784" lon="113.47822912724223"><ele>6.0</ele><time>2026-04-17T00:07:10Z</time></trkpt><trkpt lat="-24.51772655250004" lon="113.47837958279612"><ele>5.5</ele><time>2026-04-17T00:07:11Z</time></trkpt><trkpt lat="-24.517934321139137" lon="113.47852778414432"><ele>5.0</ele><time>2026-04-17T00:07:12Z</time></trkpt><trkpt lat="-24.518137923138532" lon="113.47867635256245"><ele>4.5</ele><time>2026-04-17T00:07:13Z</time></trkpt><trkpt lat="-24.51833870122836" lon="113.47882883417915"><ele>4.0</ele><time>2026-04-17T00:07:14Z</time></trkpt><trkpt lat="-24.518534295184327" lon="113.47897895115257"><ele>5.0</ele><time>2026-04-17T00:07:15Z</time></trkpt><trkpt lat="-24.51873540970572" lon="113.47912585812065"><ele>6.0</ele><time>2026-04-17T00:07:16Z</time></trkpt><trkpt lat="-24.518934669526928" lon="113.47927223787043"><ele>6.0</ele><time>2026-04-17T00:07:17Z</time></trkpt><trkpt lat="-24.51913141500247" lon="113.47942461602379"><ele>6.0</ele><time>2026-04-17T00:07:18Z</time></trkpt><trkpt lat="-24.519319737518543" lon="113.47958330367142"><ele>6.0</ele><time>2026-04-17T00:07:19Z</time></trkpt><trkpt lat="-24.5195003219105" lon="113.47975043944875"><ele>6.0</ele><time>2026-04-17T00:07:20Z</time></trkpt><trkpt lat="-24.519678164496582" lon="113.47992128574958"><ele>5.0</ele><time>2026-04-17T00:07:21Z</time></trkpt><trkpt lat="-24.519853600689967" lon="113.48009237940276"><ele>4.0</ele><time>2026-04-17T00:07:22Z</time></trkpt><trkpt lat="-24.520023153184365" lon="113.48026429862561"><ele>4.0</ele><time>2026-04-17T00:07:23Z</time></trkpt><trkpt lat="-24.52019125165732" lon="113.48043893895968"><ele>4.0</ele><time>2026-04-17T00:07:24Z</time></trkpt><trkpt lat="-24.520355029361905" lon="113.48061545830983"><ele>4.5</ele><time>2026-04-17T00:07:25Z</time></trkpt><trkpt lat="-24.520513511664547" lon="113.4807975334597"><ele>5.0</ele><time>2026-04-17T00:07:26Z</time></trkpt><trkpt lat="-24.520667948753267" lon="113.48098311196362"><ele>5.0</ele><time>2026-04-17T00:07:27Z</time></trkpt><trkpt lat="-24.520820655160684" lon="113.48116711900059"><ele>5.0</ele><time>2026-04-17T00:07:28Z</time></trkpt><trkpt lat="-24.52096860484416" lon="113.48135695570687"><ele>4.5</ele><time>2026-04-17T00:07:29Z</time></trkpt><trkpt lat="-24.52110840695951" lon="113.48155559146731"><ele>4.0</ele><time>2026-04-17T00:07:30Z</time></trkpt><trkpt lat="-24.521247060393225" lon="113.48175900340225"><ele>4.0</ele><time>2026-04-17T00:07:31Z</time></trkpt><trkpt lat="-24.521386142993162" lon="113.48196633752302"><ele>4.0</ele><time>2026-04-17T00:07:32Z</time></trkpt><trkpt lat="-24.521525427673776" lon="113.48217981878823"><ele>4.0</ele><time>2026-04-17T00:07:33Z</time></trkpt><trkpt lat="-24.521664784993845" lon="113.48240536330557"><ele>4.0</ele><time>2026-04-17T00:07:34Z</time></trkpt><trkpt lat="-24.52179967735618" lon="113.4826380765208"><ele>4.0</ele><time>2026-04-17T00:07:35Z</time></trkpt><trkpt lat="-24.52193268234413" lon="113.48288003224741"><ele>4.0</ele><time>2026-04-17T00:07:36Z</time></trkpt><trkpt lat="-24.52206393968866" lon="113.48312878753686"><ele>5.0</ele><time>2026-04-17T00:07:37Z</time></trkpt><trkpt lat="-24.522191120789795" lon="113.48338387420196"><ele>6.0</ele><time>2026-04-17T00:07:38Z</time></trkpt><trkpt lat="-24.522311144820577" lon="113.48363864783558"><ele>6.0</ele><time>2026-04-17T00:07:39Z</time></trkpt><trkpt lat="-24.522424335717684" lon="113.4838861341074"><ele>6.0</ele><time>2026-04-17T00:07:40Z</time></trkpt><trkpt lat="-24.522540867495724" lon="113.48412318622397"><ele>6.0</ele><time>2026-04-17T00:07:41Z</time></trkpt><trkpt lat="-24.522659038700287" lon="113.484351735165"><ele>6.0</ele><time>2026-04-17T00:07:42Z</time></trkpt><trkpt lat="-24.522771903116492" lon="113.48457879875866"><ele>6.0</ele><time>2026-04-17T00:07:43Z</time></trkpt><trkpt lat="-24.522878290673816" lon="113.48480122750809"><ele>6.0</ele><time>2026-04-17T00:07:44Z</time></trkpt><trkpt lat="-24.52298267758015" lon="113.48502303555892"><ele>5.333333333333333</ele><time>2026-04-17T00:07:45Z</time></trkpt><trkpt lat="-24.523081980439354" lon="113.48523930690314"><ele>4.666666666666666</ele><time>2026-04-17T00:07:46Z</time></trkpt><trkpt lat="-24.523186169088262" lon="113.4854539668616"><ele>4.0</ele><time>2026-04-17T00:07:47Z</time></trkpt><trkpt lat="-24.523292349934874" lon="113.48566126881221"><ele>3.6666666666666665</ele><time>2026-04-17T00:07:48Z</time></trkpt><trkpt lat="-24.523395974510507" lon="113.48586846673786"><ele>3.333333333333333</ele><time>2026-04-17T00:07:49Z</time></trkpt><trkpt lat="-24.52349671502487" lon="113.48607945169607"><ele>3.0</ele><time>2026-04-17T00:07:50Z</time></trkpt><trkpt lat="-24.52359778552572" lon="113.48629302538293"><ele>3.0</ele><time>2026-04-17T00:07:51Z</time></trkpt><trkpt lat="-24.523701434317577" lon="113.48650503491551"><ele>3.0</ele><time>2026-04-17T00:07:52Z</time></trkpt><trkpt lat="-24.52380703271544" lon="113.48671260908453"><ele>3.0</ele><time>2026-04-17T00:07:53Z</time></trkpt><trkpt lat="-24.523912893269603" lon="113.48692505450771"><ele>3.0</ele><time>2026-04-17T00:07:54Z</time></trkpt><trkpt lat="-24.524018286749374" lon="113.4871379648017"><ele>3.0</ele><time>2026-04-17T00:07:55Z</time></trkpt><trkpt lat="-24.524124795611613" lon="113.48735112075477"><ele>3.0</ele><time>2026-04-17T00:07:56Z</time></trkpt><trkpt lat="-24.524232136051634" lon="113.48756862293881"><ele>3.0</ele><time>2026-04-17T00:07:57Z</time></trkpt><trkpt lat="-24.52433759574768" lon="113.48778825811658"><ele>3.0</ele><time>2026-04-17T00:07:58Z</time></trkpt><trkpt lat="-24.524442179065908" lon="113.48800852630913"><ele>3.0</ele><time>2026-04-17T00:07:59Z</time></trkpt><trkpt lat="-24.52454894949243" lon="113.48822746373104"><ele>3.0</ele><time>2026-04-17T00:08:00Z</time></trkpt><trkpt lat="-24.524658331202744" lon="113.48845064324057"><ele>3.0</ele><time>2026-04-17T00:08:01Z</time></trkpt><trkpt lat="-24.52476790439389" lon="113.48867319214605"><ele>3.0</ele><time>2026-04-17T00:08:02Z</time></trkpt><trkpt lat="-24.524882024677897" lon="113.48890415425063"><ele>3.0</ele><time>2026-04-17T00:08:03Z</time></trkpt><trkpt lat="-24.52499891024775" lon="113.48914189374443"><ele>3.0</ele><time>2026-04-17T00:08:04Z</time></trkpt><trkpt lat="-24.52511777469993" lon="113.48938687854573"><ele>2.5</ele><time>2026-04-17T00:08:05Z</time></trkpt><trkpt lat="-24.525239694034987" lon="113.48963755814825"><ele>2.0</ele><time>2026-04-17T00:08:06Z</time></trkpt><trkpt lat="-24.52536542892913" lon="113.48989632035709"><ele>2.0</ele><time>2026-04-17T00:08:07Z</time></trkpt><trkpt lat="-24.5254922712244" lon="113.49016072189222"><ele>2.0</ele><time>2026-04-17T00:08:08Z</time></trkpt><trkpt lat="-24.52562405551673" lon="113.49043404352102"><ele>2.0</ele><time>2026-04-17T00:08:09Z</time></trkpt><trkpt lat="-24.525758966259882" lon="113.4907092727376"><ele>2.0</ele><time>2026-04-17T00:08:10Z</time></trkpt><trkpt lat="-24.52589637816465" lon="113.49098864580654"><ele>1.5</ele><time>2026-04-17T00:08:11Z</time></trkpt><trkpt lat="-24.52603410326317" lon="113.49126949421476"><ele>1.0</ele><time>2026-04-17T00:08:12Z</time></trkpt><trkpt lat="-24.526173744238893" lon="113.49155374333644"><ele>1.5</ele><time>2026-04-17T00:08:13Z</time></trkpt><trkpt lat="-24.526310833798806" lon="113.49183297042985"><ele>2.0</ele><time>2026-04-17T00:08:14Z</time></trkpt><trkpt lat="-24.52644532629183" lon="113.4921137404179"><ele>1.0</ele><time>2026-04-17T00:08:15Z</time></trkpt><trkpt lat="-24.526580022313166" lon="113.49238989723843"><ele>0.0</ele><time>2026-04-17T00:08:16Z</time></trkpt><trkpt lat="-24.5267140260028" lon="113.4926608222603"><ele>1.5</ele><time>2026-04-17T00:08:17Z</time></trkpt><trkpt lat="-24.526845539055312" lon="113.49293340934851"><ele>3.0</ele><time>2026-04-17T00:08:18Z</time></trkpt><trkpt lat="-24.526975739050922" lon="113.49320790041223"><ele>4.0</ele><time>2026-04-17T00:08:19Z</time></trkpt><trkpt lat="-24.527105648411474" lon="113.49347904446797"><ele>5.0</ele><time>2026-04-17T00:08:20Z</time></trkpt><trkpt lat="-24.527238422900073" lon="113.49375415507026"><ele>5.0</ele><time>2026-04-17T00:08:21Z</time></trkpt><trkpt lat="-24.52737318273391" lon="113.49403012253029"><ele>5.0</ele><time>2026-04-17T00:08:22Z</time></trkpt><trkpt lat="-24.527509307137624" lon="113.49430520999086"><ele>5.0</ele><time>2026-04-17T00:08:23Z</time></trkpt><trkpt lat="-24.527644458364502" lon="113.49458279136321"><ele>5.0</ele><time>2026-04-17T00:08:24Z</time></trkpt><trkpt lat="-24.527779554397476" lon="113.49485955050325"><ele>4.5</ele><time>2026-04-17T00:08:25Z</time></trkpt><trkpt lat="-24.527915041535156" lon="113.49513723479072"><ele>4.0</ele><time>2026-04-17T00:08:26Z</time></trkpt><trkpt lat="-24.528052584661115" lon="113.49541663929861"><ele>2.5</ele><time>2026-04-17T00:08:27Z</time></trkpt><trkpt lat="-24.528189970434756" lon="113.49569467100744"><ele>1.0</ele><time>2026-04-17T00:08:28Z</time></trkpt><trkpt lat="-24.52832679362118" lon="113.49597567162948"><ele>2.0</ele><time>2026-04-17T00:08:29Z</time></trkpt><trkpt lat="-24.52846103262121" lon="113.49625644665907"><ele>3.0</ele><time>2026-04-17T00:08:30Z</time></trkpt><trkpt lat="-24.52859396825678" lon="113.49653524737194"><ele>4.5</ele><time>2026-04-17T00:08:31Z</time></trkpt><trkpt lat="-24.5287279445155" lon="113.49681167169848"><ele>6.0</ele><time>2026-04-17T00:08:32Z</time></trkpt><trkpt lat="-24.528863823561533" lon="113.4970856505677"><ele>5.5</ele><time>2026-04-17T00:08:33Z</time></trkpt><trkpt lat="-24.52900029333522" lon="113.49736066000115"><ele>5.0</ele><time>2026-04-17T00:08:34Z</time></trkpt><trkpt lat="-24.52913613283959" lon="113.49763406673395"><ele>5.0</ele><time>2026-04-17T00:08:35Z</time></trkpt><trkpt lat="-24.529276277183527" lon="113.49790159707815"><ele>5.0</ele><time>2026-04-17T00:08:36Z</time></trkpt><trkpt lat="-24.52942705567491" lon="113.49815925950824"><ele>6.0</ele><time>2026-04-17T00:08:37Z</time></trkpt><trkpt lat="-24.529587142176492" lon="113.49840947991034"><ele>7.0</ele><time>2026-04-17T00:08:38Z</time></trkpt><trkpt lat="-24.529756282968084" lon="113.49865420571861"><ele>6.0</ele><time>2026-04-17T00:08:39Z</time></trkpt><trkpt lat="-24.52993054565021" lon="113.49889327451562"><ele>5.0</ele><time>2026-04-17T00:08:40Z</time></trkpt><trkpt lat="-24.53010815544576" lon="113.4991296441424"><ele>5.0</ele><time>2026-04-17T00:08:41Z</time></trkpt><trkpt lat="-24.53029353802489" lon="113.49936444932163"><ele>5.0</ele><time>2026-04-17T00:08:42Z</time></trkpt><trkpt lat="-24.530485196271556" lon="113.49959454616544"><ele>5.0</ele><time>2026-04-17T00:08:43Z</time></trkpt><trkpt lat="-24.530686578127938" lon="113.49981803732908"><ele>5.0</ele><time>2026-04-17T00:08:44Z</time></trkpt><trkpt lat="-24.53089090367634" lon="113.5000399783932"><ele>5.0</ele><time>2026-04-17T00:08:45Z</time></trkpt><trkpt lat="-24.53108940537887" lon="113.50027143538841"><ele>5.0</ele><time>2026-04-17T00:08:46Z</time></trkpt><trkpt lat="-24.531320800271708" lon="113.50046380293102"><ele>5.0</ele><time>2026-04-17T00:08:47Z</time></trkpt><trkpt lat="-24.531546665244434" lon="113.50066366875141"><ele>5.0</ele><time>2026-04-17T00:08:48Z</time></trkpt><trkpt lat="-24.531776630537554" lon="113.5008594660566"><ele>5.0</ele><time>2026-04-17T00:08:49Z</time></trkpt><trkpt lat="-24.53200703411385" lon="113.50104924173606"><ele>5.0</ele><time>2026-04-17T00:08:50Z</time></trkpt><trkpt lat="-24.532238929888955" lon="113.5012348311401"><ele>5.5</ele><time>2026-04-17T00:08:51Z</time></trkpt><trkpt lat="-24.532468645211257" lon="113.5014226471209"><ele>6.0</ele><time>2026-04-17T00:08:52Z</time></trkpt><trkpt lat="-24.53269635121212" lon="113.50161261004924"><ele>6.0</ele><time>2026-04-17T00:08:53Z</time></trkpt><trkpt lat="-24.53292181731163" lon="113.50180376559257"><ele>6.0</ele><time>2026-04-17T00:08:54Z</time></trkpt><trkpt lat="-24.533148797179383" lon="113.50199183673104"><ele>4.5</ele><time>2026-04-17T00:08:55Z</time></trkpt><trkpt lat="-24.533374138320966" lon="113.50217722345334"><ele>3.0</ele><time>2026-04-17T00:08:56Z</time></trkpt><trkpt lat="-24.53359875997148" lon="113.50236230511874"><ele>4.0</ele><time>2026-04-17T00:08:57Z</time></trkpt><trkpt lat="-24.533822666442834" lon="113.50254658575165"><ele>5.0</ele><time>2026-04-17T00:08:58Z</time></trkpt><trkpt lat="-24.534048336240645" lon="113.5027333623932"><ele>5.0</ele><time>2026-04-17T00:08:59Z</time></trkpt><trkpt lat="-24.53427412097273" lon="113.50292197987844"><ele>5.0</ele><time>2026-04-17T00:09:00Z</time></trkpt><trkpt lat="-24.534502595163215" lon="113.50311317749372"><ele>4.0</ele><time>2026-04-17T00:09:01Z</time></trkpt><trkpt lat="-24.53473768685249" lon="113.50330589836828"><ele>3.0</ele><time>2026-04-17T00:09:02Z</time></trkpt><trkpt lat="-24.5349748242686" lon="113.50350053263242"><ele>3.0</ele><time>2026-04-17T00:09:03Z</time></trkpt><trkpt lat="-24.53521492946417" lon="113.50369970679641"><ele>3.0</ele><time>2026-04-17T00:09:04Z</time></trkpt><trkpt lat="-24.535456350963035" lon="113.50389893400582"><ele>4.5</ele><time>2026-04-17T00:09:05Z</time></trkpt><trkpt lat="-24.53570149576479" lon="113.50409738888055"><ele>6.0</ele><time>2026-04-17T00:09:06Z</time></trkpt><trkpt lat="-24.535945988375197" lon="113.50429792681125"><ele>6.0</ele><time>2026-04-17T00:09:07Z</time></trkpt><trkpt lat="-24.536192587486397" lon="113.50450252305531"><ele>6.0</ele><time>2026-04-17T00:09:08Z</time></trkpt><trkpt lat="-24.536437461753156" lon="113.50470551409838"><ele>4.0</ele><time>2026-04-17T00:09:09Z</time></trkpt><trkpt lat="-24.536681880509562" lon="113.50490633821467"><ele>2.0</ele><time>2026-04-17T00:09:10Z</time></trkpt><trkpt lat="-24.536926462184557" lon="113.50510703253727"><ele>3.0</ele><time>2026-04-17T00:09:11Z</time></trkpt><trkpt lat="-24.537168479418025" lon="113.5053055984507"><ele>4.0</ele><time>2026-04-17T00:09:12Z</time></trkpt><trkpt lat="-24.53741087876295" lon="113.50550428932698"><ele>4.0</ele><time>2026-04-17T00:09:13Z</time></trkpt><trkpt lat="-24.537656188943618" lon="113.50570461734729"><ele>4.0</ele><time>2026-04-17T00:09:14Z</time></trkpt><trkpt lat="-24.53790034111991" lon="113.5059062733227"><ele>4.0</ele><time>2026-04-17T00:09:15Z</time></trkpt><trkpt lat="-24.538144948861447" lon="113.50610763264251"><ele>4.0</ele><time>2026-04-17T00:09:16Z</time></trkpt><trkpt lat="-24.538389947964887" lon="113.50631076167255"><ele>4.0</ele><time>2026-04-17T00:09:17Z</time></trkpt><trkpt lat="-24.538636826080655" lon="113.50651432687886"><ele>4.0</ele><time>2026-04-17T00:09:18Z</time></trkpt><trkpt lat="-24.538879721212666" lon="113.50671351250934"><ele>4.0</ele><time>2026-04-17T00:09:19Z</time></trkpt><trkpt lat="-24.539121614758663" lon="113.50691017102834"><ele>4.0</ele><time>2026-04-17T00:09:20Z</time></trkpt><trkpt lat="-24.53936007889952" lon="113.50710953812812"><ele>4.5</ele><time>2026-04-17T00:09:21Z</time></trkpt><trkpt lat="-24.53959156034046" lon="113.50730284924633"><ele>5.0</ele><time>2026-04-17T00:09:22Z</time></trkpt><trkpt lat="-24.539824013958242" lon="113.50749577717924"><ele>5.0</ele><time>2026-04-17T00:09:23Z</time></trkpt><trkpt lat="-24.540053165831193" lon="113.50768249338529"><ele>5.0</ele><time>2026-04-17T00:09:24Z</time></trkpt><trkpt lat="-24.540278081174378" lon="113.50786864097357"><ele>5.0</ele><time>2026-04-17T00:09:25Z</time></trkpt><trkpt lat="-24.54050322165204" lon="113.5080512633989"><ele>5.0</ele><time>2026-04-17T00:09:26Z</time></trkpt><trkpt lat="-24.540722748437837" lon="113.50823663762255"><ele>5.0</ele><time>2026-04-17T00:09:27Z</time></trkpt><trkpt lat="-24.540935862418905" lon="113.50842377042576"><ele>5.0</ele><time>2026-04-17T00:09:28Z</time></trkpt><trkpt lat="-24.54114718008206" lon="113.50861093764905"><ele>2.5</ele><time>2026-04-17T00:09:29Z</time></trkpt><trkpt lat="-24.541355735303007" lon="113.50879832972606"><ele>0.0</ele><time>2026-04-17T00:09:30Z</time></trkpt><trkpt lat="-24.541561632972307" lon="113.50898625422973"><ele>0.0</ele><time>2026-04-17T00:09:31Z</time></trkpt><trkpt lat="-24.541767904605074" lon="113.50917482770059"><ele>0.0</ele><time>2026-04-17T00:09:32Z</time></trkpt><trkpt lat="-24.54197108184751" lon="113.50936193632762"><ele>2.0</ele><time>2026-04-17T00:09:33Z</time></trkpt><trkpt lat="-24.542174697936595" lon="113.50955235866215"><ele>4.0</ele><time>2026-04-17T00:09:34Z</time></trkpt><trkpt lat="-24.542374370377637" lon="113.50974342700252"><ele>4.0</ele><time>2026-04-17T00:09:35Z</time></trkpt><trkpt lat="-24.542578296832296" lon="113.50993698613286"><ele>4.0</ele><time>2026-04-17T00:09:36Z</time></trkpt><trkpt lat="-24.542788355478315" lon="113.51013020844421"><ele>4.0</ele><time>2026-04-17T00:09:37Z</time></trkpt><trkpt lat="-24.543002500279307" lon="113.51032480857168"><ele>4.0</ele><time>2026-04-17T00:09:38Z</time></trkpt><trkpt lat="-24.543214804783727" lon="113.51051941337995"><ele>5.5</ele><time>2026-04-17T00:09:39Z</time></trkpt><trkpt lat="-24.543427941322555" lon="113.5107157366144"><ele>7.0</ele><time>2026-04-17T00:09:40Z</time></trkpt><trkpt lat="-24.543643159630495" lon="113.51091325053847"><ele>6.5</ele><time>2026-04-17T00:09:41Z</time></trkpt><trkpt lat="-24.54385782987737" lon="113.51110978738957"><ele>6.0</ele><time>2026-04-17T00:09:42Z</time></trkpt><trkpt lat="-24.54407479076387" lon="113.51131050662208"><ele>6.0</ele><time>2026-04-17T00:09:43Z</time></trkpt><trkpt lat="-24.544292526002145" lon="113.51151265853353"><ele>6.0</ele><time>2026-04-17T00:09:44Z</time></trkpt><trkpt lat="-24.544513786793853" lon="113.51171863166887"><ele>6.0</ele><time>2026-04-17T00:09:45Z</time></trkpt><trkpt lat="-24.544736153523235" lon="113.51192353013835"><ele>6.0</ele><time>2026-04-17T00:09:46Z</time></trkpt><trkpt lat="-24.54495988342857" lon="113.51212768799454"><ele>4.5</ele><time>2026-04-17T00:09:47Z</time></trkpt><trkpt lat="-24.545185070730998" lon="113.51233392938009"><ele>3.0</ele><time>2026-04-17T00:09:48Z</time></trkpt><trkpt lat="-24.545408330810076" lon="113.51254286758925"><ele>3.0</ele><time>2026-04-17T00:09:49Z</time></trkpt><trkpt lat="-24.545628349612397" lon="113.51275243270074"><ele>3.0</ele><time>2026-04-17T00:09:50Z</time></trkpt><trkpt lat="-24.545851515660924" lon="113.51296092590161"><ele>3.5</ele><time>2026-04-17T00:09:51Z</time></trkpt><trkpt lat="-24.546075279569042" lon="113.51316555080479"><ele>4.0</ele><time>2026-04-17T00:09:52Z</time></trkpt><trkpt lat="-24.546299834473164" lon="113.51336980583672"><ele>4.0</ele><time>2026-04-17T00:09:53Z</time></trkpt><trkpt lat="-24.546524309402784" lon="113.51357568924436"><ele>4.0</ele><time>2026-04-17T00:09:54Z</time></trkpt><trkpt lat="-24.54674470607419" lon="113.51377869712472"><ele>4.0</ele><time>2026-04-17T00:09:55Z</time></trkpt><trkpt lat="-24.54696436736747" lon="113.51398073407394"><ele>4.0</ele><time>2026-04-17T00:09:56Z</time></trkpt><trkpt lat="-24.54718234350112" lon="113.51418333437542"><ele>4.0</ele><time>2026-04-17T00:09:57Z</time></trkpt><trkpt lat="-24.5474017197405" lon="113.51438599337027"><ele>4.0</ele><time>2026-04-17T00:09:58Z</time></trkpt><trkpt lat="-24.547621522838092" lon="113.51458885974317"><ele>3.5</ele><time>2026-04-17T00:09:59Z</time></trkpt><trkpt lat="-24.54784112224258" lon="113.51479022683567"><ele>3.0</ele><time>2026-04-17T00:10:00Z</time></trkpt><trkpt lat="-24.548061016098167" lon="113.51499188766793"><ele>4.0</ele><time>2026-04-17T00:10:01Z</time></trkpt><trkpt lat="-24.548279266741694" lon="113.51519452984283"><ele>5.0</ele><time>2026-04-17T00:10:02Z</time></trkpt><trkpt lat="-24.54849701036504" lon="113.51539716516527"><ele>4.0</ele><time>2026-04-17T00:10:03Z</time></trkpt><trkpt lat="-24.54871545789534" lon="113.51560098503494"><ele>3.0</ele><time>2026-04-17T00:10:04Z</time></trkpt><trkpt lat="-24.54893487520138" lon="113.5158045459155"><ele>3.0</ele><time>2026-04-17T00:10:05Z</time></trkpt><trkpt lat="-24.54915690804843" lon="113.5160093725483"><ele>3.0</ele><time>2026-04-17T00:10:06Z</time></trkpt><trkpt lat="-24.54938153575217" lon="113.51621440401482"><ele>3.0</ele><time>2026-04-17T00:10:07Z</time></trkpt><trkpt lat="-24.549607569426822" lon="113.51642351240764"><ele>3.0</ele><time>2026-04-17T00:10:08Z</time></trkpt><trkpt lat="-24.549832879923226" lon="113.51663133282632"><ele>3.0</ele><time>2026-04-17T00:10:09Z</time></trkpt><trkpt lat="-24.550062410145518" lon="113.51684024166782"><ele>3.0</ele><time>2026-04-17T00:10:10Z</time></trkpt><trkpt lat="-24.550292156429332" lon="113.5170417212162"><ele>3.0</ele><time>2026-04-17T00:10:11Z</time></trkpt><trkpt lat="-24.550528272745705" lon="113.51723587756477"><ele>3.0</ele><time>2026-04-17T00:10:12Z</time></trkpt><trkpt lat="-24.55076980311133" lon="113.51742116223814"><ele>3.0</ele><time>2026-04-17T00:10:13Z</time></trkpt><trkpt lat="-24.551016010907382" lon="113.5176013493779"><ele>3.0</ele><time>2026-04-17T00:10:14Z</time></trkpt><trkpt lat="-24.5512666078205" lon="113.51777296991226"><ele>3.0</ele><time>2026-04-17T00:10:15Z</time></trkpt><trkpt lat="-24.55151707040488" lon="113.51793717635724"><ele>3.0</ele><time>2026-04-17T00:10:16Z</time></trkpt><trkpt lat="-24.551771834365233" lon="113.51809295662298"><ele>3.0</ele><time>2026-04-17T00:10:17Z</time></trkpt><trkpt lat="-24.552026499507736" lon="113.51823746418623"><ele>3.0</ele><time>2026-04-17T00:10:18Z</time></trkpt><trkpt lat="-24.552285024475005" lon="113.51837196841457"><ele>3.5</ele><time>2026-04-17T00:10:19Z</time></trkpt><trkpt lat="-24.552548347006628" lon="113.51850030793875"><ele>4.0</ele><time>2026-04-17T00:10:20Z</time></trkpt><trkpt lat="-24.55281612970047" lon="113.51862309325146"><ele>4.0</ele><time>2026-04-17T00:10:21Z</time></trkpt><trkpt lat="-24.55308540649263" lon="113.5187385719734"><ele>4.0</ele><time>2026-04-17T00:10:22Z</time></trkpt><trkpt lat="-24.553355788137704" lon="113.5188467449709"><ele>4.0</ele><time>2026-04-17T00:10:23Z</time></trkpt><trkpt lat="-24.553627225341565" lon="113.51894713496813"><ele>4.0</ele><time>2026-04-17T00:10:24Z</time></trkpt><trkpt lat="-24.55389887433385" lon="113.51903941618387"><ele>4.0</ele><time>2026-04-17T00:10:25Z</time></trkpt><trkpt lat="-24.554171975041758" lon="113.51912426281326"><ele>4.0</ele><time>2026-04-17T00:10:26Z</time></trkpt><trkpt lat="-24.55444445198677" lon="113.51920339780368"><ele>3.5</ele><time>2026-04-17T00:10:27Z</time></trkpt><trkpt lat="-24.554720988121716" lon="113.51928312111531"><ele>3.0</ele><time>2026-04-17T00:10:28Z</time></trkpt><trkpt lat="-24.554995128360865" lon="113.51936213303185"><ele>3.0</ele><time>2026-04-17T00:10:29Z</time></trkpt><trkpt lat="-24.555268916659728" lon="113.51944161453385"><ele>3.0</ele><time>2026-04-17T00:10:30Z</time></trkpt><trkpt lat="-24.555542793751926" lon="113.51952324949546"><ele>3.5</ele><time>2026-04-17T00:10:31Z</time></trkpt><trkpt lat="-24.555818269995743" lon="113.51960190838983"><ele>4.0</ele><time>2026-04-17T00:10:32Z</time></trkpt><trkpt lat="-24.556094613514755" lon="113.51968184542707"><ele>3.0</ele><time>2026-04-17T00:10:33Z</time></trkpt><trkpt lat="-24.556374512830928" lon="113.51976261330799"><ele>2.0</ele><time>2026-04-17T00:10:34Z</time></trkpt><trkpt lat="-24.55665337756013" lon="113.51984437070914"><ele>2.0</ele><time>2026-04-17T00:10:35Z</time></trkpt><trkpt lat="-24.556930704738704" lon="113.51992511646428"><ele>2.0</ele><time>2026-04-17T00:10:36Z</time></trkpt><trkpt lat="-24.55720853505954" lon="113.52000514640615"><ele>3.0</ele><time>2026-04-17T00:10:37Z</time></trkpt><trkpt lat="-24.557486549292395" lon="113.52008612516293"><ele>4.0</ele><time>2026-04-17T00:10:38Z</time></trkpt><trkpt lat="-24.557762637772132" lon="113.52016784546898"><ele>3.5</ele><time>2026-04-17T00:10:39Z</time></trkpt><trkpt lat="-24.558040484678568" lon="113.52025199473523"><ele>3.0</ele><time>2026-04-17T00:10:40Z</time></trkpt><trkpt lat="-24.558318427960693" lon="113.52033493888764"><ele>2.5</ele><time>2026-04-17T00:10:41Z</time></trkpt><trkpt lat="-24.558599264820952" lon="113.5204167089084"><ele>2.0</ele><time>2026-04-17T00:10:42Z</time></trkpt><trkpt lat="-24.558878726529883" lon="113.52049450695114"><ele>2.0</ele><time>2026-04-17T00:10:43Z</time></trkpt><trkpt lat="-24.559155743190324" lon="113.52057122589896"><ele>2.0</ele><time>2026-04-17T00:10:44Z</time></trkpt><trkpt lat="-24.559432232241406" lon="113.52065025597665"><ele>2.5</ele><time>2026-04-17T00:10:45Z</time></trkpt><trkpt lat="-24.559708278193632" lon="113.52073122049289"><ele>3.0</ele><time>2026-04-17T00:10:46Z</time></trkpt><trkpt lat="-24.559982499617906" lon="113.5208132570092"><ele>3.0</ele><time>2026-04-17T00:10:47Z</time></trkpt><trkpt lat="-24.5602565458441" lon="113.52089409470744"><ele>3.0</ele><time>2026-04-17T00:10:48Z</time></trkpt><trkpt lat="-24.5605232873887" lon="113.52097135688956"><ele>2.5</ele><time>2026-04-17T00:10:49Z</time></trkpt><trkpt lat="-24.560766573210564" lon="113.52104539082866"><ele>2.0</ele><time>2026-04-17T00:10:50Z</time></trkpt><trkpt lat="-24.561011714676155" lon="113.52111893169838"><ele>2.0</ele><time>2026-04-17T00:10:51Z</time></trkpt><trkpt lat="-24.561265247748892" lon="113.52119111956851"><ele>2.0</ele><time>2026-04-17T00:10:52Z</time></trkpt><trkpt lat="-24.56152255810938" lon="113.52126275174106"><ele>2.5</ele><time>2026-04-17T00:10:53Z</time></trkpt><trkpt lat="-24.561782393314655" lon="113.52133605202529"><ele>3.0</ele><time>2026-04-17T00:10:54Z</time></trkpt><trkpt lat="-24.562043760530756" lon="113.52141303608349"><ele>3.0</ele><time>2026-04-17T00:10:55Z</time></trkpt><trkpt lat="-24.56230536661475" lon="113.5214898383373"><ele>3.0</ele><time>2026-04-17T00:10:56Z</time></trkpt><trkpt lat="-24.562570072155985" lon="113.52156721145806"><ele>3.0</ele><time>2026-04-17T00:10:57Z</time></trkpt><trkpt lat="-24.56283514954798" lon="113.52164439670739"><ele>3.0</ele><time>2026-04-17T00:10:58Z</time></trkpt><trkpt lat="-24.563099802098208" lon="113.52172091169334"><ele>3.5</ele><time>2026-04-17T00:10:59Z</time></trkpt><trkpt lat="-24.5633662850839" lon="113.521799417309"><ele>4.0</ele><time>2026-04-17T00:11:00Z</time></trkpt><trkpt lat="-24.56363517485372" lon="113.52187814113135"><ele>3.5</ele><time>2026-04-17T00:11:01Z</time></trkpt><trkpt lat="-24.563905548765575" lon="113.52195637857545"><ele>3.0</ele><time>2026-04-17T00:11:02Z</time></trkpt><trkpt lat="-24.56417852912451" lon="113.5220351159198"><ele>3.5</ele><time>2026-04-17T00:11:03Z</time></trkpt><trkpt lat="-24.564450104815446" lon="113.52211485108357"><ele>4.0</ele><time>2026-04-17T00:11:04Z</time></trkpt><trkpt lat="-24.56472374511899" lon="113.52219539699435"><ele>4.0</ele><time>2026-04-17T00:11:05Z</time></trkpt><trkpt lat="-24.5649969603952" lon="113.5222762179297"><ele>4.0</ele><time>2026-04-17T00:11:06Z</time></trkpt><trkpt lat="-24.56527090704657" lon="113.52235823757584"><ele>2.5</ele><time>2026-04-17T00:11:07Z</time></trkpt><trkpt lat="-24.565544823200828" lon="113.52244028409653"><ele>1.0</ele><time>2026-04-17T00:11:08Z</time></trkpt><trkpt lat="-24.56582027275793" lon="113.52252159777595"><ele>1.0</ele><time>2026-04-17T00:11:09Z</time></trkpt><trkpt lat="-24.566095404002482" lon="113.52260097778588"><ele>1.0</ele><time>2026-04-17T00:11:10Z</time></trkpt><trkpt lat="-24.566367365155372" lon="113.52267970905004"><ele>2.0</ele><time>2026-04-17T00:11:11Z</time></trkpt><trkpt lat="-24.566637688230113" lon="113.522757444423"><ele>3.0</ele><time>2026-04-17T00:11:12Z</time></trkpt><trkpt lat="-24.566906613550103" lon="113.52283653644191"><ele>2.5</ele><time>2026-04-17T00:11:13Z</time></trkpt><trkpt lat="-24.56717166546978" lon="113.52291399444675"><ele>2.0</ele><time>2026-04-17T00:11:14Z</time></trkpt><trkpt lat="-24.567433018214746" lon="113.52299272323549"><ele>2.0</ele><time>2026-04-17T00:11:15Z</time></trkpt><trkpt lat="-24.567698098385694" lon="113.52307160069279"><ele>2.0</ele><time>2026-04-17T00:11:16Z</time></trkpt><trkpt lat="-24.567969043549297" lon="113.52314592055738"><ele>2.5</ele><time>2026-04-17T00:11:17Z</time></trkpt><trkpt lat="-24.568242921871917" lon="113.52321482563578"><ele>3.0</ele><time>2026-04-17T00:11:18Z</time></trkpt><trkpt lat="-24.568514777301136" lon="113.52327655506944"><ele>2.0</ele><time>2026-04-17T00:11:19Z</time></trkpt><trkpt lat="-24.56878463954703" lon="113.52332885171445"><ele>1.0</ele><time>2026-04-17T00:11:20Z</time></trkpt><trkpt lat="-24.569056923321515" lon="113.52337302141358"><ele>1.0</ele><time>2026-04-17T00:11:21Z</time></trkpt><trkpt lat="-24.569328886457132" lon="113.5234070782628"><ele>1.0</ele><time>2026-04-17T00:11:22Z</time></trkpt><trkpt lat="-24.56960107585149" lon="113.52343585688772"><ele>0.5</ele><time>2026-04-17T00:11:23Z</time></trkpt><trkpt lat="-24.569871505953753" lon="113.52345839668628"><ele>0.0</ele><time>2026-04-17T00:11:24Z</time></trkpt><trkpt lat="-24.570141746316533" lon="113.52347553037825"><ele>0.5</ele><time>2026-04-17T00:11:25Z</time></trkpt><trkpt lat="-24.570409910793902" lon="113.52348688069725"><ele>1.0</ele><time>2026-04-17T00:11:26Z</time></trkpt><trkpt lat="-24.570679882546198" lon="113.52349782275203"><ele>1.0</ele><time>2026-04-17T00:11:27Z</time></trkpt><trkpt lat="-24.57094666441353" lon="113.52351109770345"><ele>1.0</ele><time>2026-04-17T00:11:28Z</time></trkpt><trkpt lat="-24.571215858105408" lon="113.52352631715324"><ele>0.5</ele><time>2026-04-17T00:11:29Z</time></trkpt><trkpt lat="-24.571491318010306" lon="113.52354117672334"><ele>0.0</ele><time>2026-04-17T00:11:30Z</time></trkpt><trkpt lat="-24.571769086674532" lon="113.52355138828047"><ele>0.0</ele><time>2026-04-17T00:11:31Z</time></trkpt><trkpt lat="-24.572047236933123" lon="113.523562679373"><ele>0.0</ele><time>2026-04-17T00:11:32Z</time></trkpt><trkpt lat="-24.572322453588555" lon="113.52357431301036"><ele>0.0</ele><time>2026-04-17T00:11:33Z</time></trkpt><trkpt lat="-24.572597405174356" lon="113.52358821655224"><ele>0.0</ele><time>2026-04-17T00:11:34Z</time></trkpt><trkpt lat="-24.57287257509789" lon="113.5236046918402"><ele>0.5</ele><time>2026-04-17T00:11:35Z</time></trkpt><trkpt lat="-24.57314873004542" lon="113.52361930865611"><ele>1.0</ele><time>2026-04-17T00:11:36Z</time></trkpt><trkpt lat="-24.57342508414309" lon="113.52363141591242"><ele>1.0</ele><time>2026-04-17T00:11:37Z</time></trkpt><trkpt lat="-24.573701518922444" lon="113.52364320056279"><ele>1.0</ele><time>2026-04-17T00:11:38Z</time></trkpt><trkpt lat="-24.573974338336907" lon="113.52365860702592"><ele>1.0</ele><time>2026-04-17T00:11:39Z</time></trkpt><trkpt lat="-24.574244123043137" lon="113.52367482690049"><ele>1.0</ele><time>2026-04-17T00:11:40Z</time></trkpt><trkpt lat="-24.57451787492796" lon="113.52368728502752"><ele>1.5</ele><time>2026-04-17T00:11:41Z</time></trkpt><trkpt lat="-24.574789884589343" lon="113.523698226366"><ele>2.0</ele><time>2026-04-17T00:11:42Z</time></trkpt><trkpt lat="-24.575063609702998" lon="113.52371353931954"><ele>2.0</ele><time>2026-04-17T00:11:43Z</time></trkpt><trkpt lat="-24.575335464318808" lon="113.52373013449302"><ele>2.0</ele><time>2026-04-17T00:11:44Z</time></trkpt><trkpt lat="-24.57560727491641" lon="113.52374564466282"><ele>1.0</ele><time>2026-04-17T00:11:45Z</time></trkpt><trkpt lat="-24.57587777553771" lon="113.5237638340799"><ele>0.0</ele><time>2026-04-17T00:11:46Z</time></trkpt><trkpt lat="-24.576146560954683" lon="113.5237909498422"><ele>0.0</ele><time>2026-04-17T00:11:47Z</time></trkpt><trkpt lat="-24.576416492933852" lon="113.52382937372352"><ele>0.0</ele><time>2026-04-17T00:11:48Z</time></trkpt><trkpt lat="-24.57668698148392" lon="113.52388447408416"><ele>0.0</ele><time>2026-04-17T00:11:49Z</time></trkpt><trkpt lat="-24.576955224357143" lon="113.52394637170087"><ele>0.0</ele><time>2026-04-17T00:11:50Z</time></trkpt><trkpt lat="-24.57722036556797" lon="113.52402114954027"><ele>0.5</ele><time>2026-04-17T00:11:51Z</time></trkpt><trkpt lat="-24.577484864036762" lon="113.52410436015421"><ele>1.0</ele><time>2026-04-17T00:11:52Z</time></trkpt><trkpt lat="-24.577745629119317" lon="113.52419809642048"><ele>0.5</ele><time>2026-04-17T00:11:53Z</time></trkpt><trkpt lat="-24.57800435427117" lon="113.52429783639157"><ele>0.0</ele><time>2026-04-17T00:11:54Z</time></trkpt><trkpt lat="-24.578260160206106" lon="113.52440759288305"><ele>0.0</ele><time>2026-04-17T00:11:55Z</time></trkpt><trkpt lat="-24.578510959292625" lon="113.52452905462368"><ele>0.0</ele><time>2026-04-17T00:11:56Z</time></trkpt><trkpt lat="-24.57875811821351" lon="113.5246590221867"><ele>-0.5</ele><time>2026-04-17T00:11:57Z</time></trkpt><trkpt lat="-24.57900418182195" lon="113.52479953190829"><ele>-1.0</ele><time>2026-04-17T00:11:58Z</time></trkpt><trkpt lat="-24.57924522605109" lon="113.52494647113693"><ele>-1.0</ele><time>2026-04-17T00:11:59Z</time></trkpt><trkpt lat="-24.57948142030423" lon="113.52510345829339"><ele>-1.0</ele><time>2026-04-17T00:12:00Z</time></trkpt><trkpt lat="-24.57971007155356" lon="113.5252701765719"><ele>-1.0</ele><time>2026-04-17T00:12:01Z</time></trkpt><trkpt lat="-24.579935076192402" lon="113.52544406001232"><ele>-1.0</ele><time>2026-04-17T00:12:02Z</time></trkpt><trkpt lat="-24.580154362491236" lon="113.525625738604"><ele>-0.5</ele><time>2026-04-17T00:12:03Z</time></trkpt><trkpt lat="-24.58036742137917" lon="113.52581456926323"><ele>0.0</ele><time>2026-04-17T00:12:04Z</time></trkpt><trkpt lat="-24.58057402780144" lon="113.52601098078824"><ele>0.0</ele><time>2026-04-17T00:12:05Z</time></trkpt><trkpt lat="-24.580774620632095" lon="113.52621770484389"><ele>0.0</ele><time>2026-04-17T00:12:06Z</time></trkpt><trkpt lat="-24.580971597964506" lon="113.52643012361588"><ele>-0.5</ele><time>2026-04-17T00:12:07Z</time></trkpt><trkpt lat="-24.581161011113252" lon="113.52665005310458"><ele>-1.0</ele><time>2026-04-17T00:12:08Z</time></trkpt><trkpt lat="-24.581346273569633" lon="113.52687743863109"><ele>-1.0</ele><time>2026-04-17T00:12:09Z</time></trkpt><trkpt lat="-24.581524973291852" lon="113.52710938137423"><ele>-1.0</ele><time>2026-04-17T00:12:10Z</time></trkpt><trkpt lat="-24.581697122293484" lon="113.5273499493199"><ele>-1.0</ele><time>2026-04-17T00:12:11Z</time></trkpt><trkpt lat="-24.581864094425914" lon="113.5275954316293"><ele>-1.0</ele><time>2026-04-17T00:12:12Z</time></trkpt><trkpt lat="-24.582032763591744" lon="113.52784293738394"><ele>-2.0</ele><time>2026-04-17T00:12:13Z</time></trkpt><trkpt lat="-24.582206337443576" lon="113.52809048345995"><ele>-3.0</ele><time>2026-04-17T00:12:14Z</time></trkpt><trkpt lat="-24.58238107470616" lon="113.5283347179749"><ele>-3.0</ele><time>2026-04-17T00:12:15Z</time></trkpt><trkpt lat="-24.58255678388521" lon="113.52857733659691"><ele>-3.0</ele><time>2026-04-17T00:12:16Z</time></trkpt><trkpt lat="-24.582731546775538" lon="113.52881996029642"><ele>-3.0</ele><time>2026-04-17T00:12:17Z</time></trkpt><trkpt lat="-24.582905296005617" lon="113.52906009441614"><ele>-3.0</ele><time>2026-04-17T00:12:18Z</time></trkpt><trkpt lat="-24.583078968878585" lon="113.5293025489058"><ele>-3.0</ele><time>2026-04-17T00:12:19Z</time></trkpt><trkpt lat="-24.58325254163826" lon="113.52954733715727"><ele>-3.0</ele><time>2026-04-17T00:12:20Z</time></trkpt><trkpt lat="-24.583425277756163" lon="113.52978979341523"><ele>-2.0</ele><time>2026-04-17T00:12:21Z</time></trkpt><trkpt lat="-24.58359690639142" lon="113.53002975856852"><ele>-1.0</ele><time>2026-04-17T00:12:22Z</time></trkpt><trkpt lat="-24.583769848520607" lon="113.53027216113156"><ele>-1.0</ele><time>2026-04-17T00:12:23Z</time></trkpt><trkpt lat="-24.583942132571334" lon="113.53051381260111"><ele>-1.0</ele><time>2026-04-17T00:12:24Z</time></trkpt><trkpt lat="-24.584113498263044" lon="113.53075276698443"><ele>-1.0</ele><time>2026-04-17T00:12:25Z</time></trkpt><trkpt lat="-24.584285572400123" lon="113.5309930394289"><ele>-1.0</ele><time>2026-04-17T00:12:26Z</time></trkpt><trkpt lat="-24.584457406940917" lon="113.53123454724933"><ele>-0.5</ele><time>2026-04-17T00:12:27Z</time></trkpt><trkpt lat="-24.58462843784716" lon="113.53147486672154"><ele>0.0</ele><time>2026-04-17T00:12:28Z</time></trkpt><trkpt lat="-24.584800729940515" lon="113.5317180068225"><ele>0.0</ele><time>2026-04-17T00:12:29Z</time></trkpt><trkpt lat="-24.5849743600909" lon="113.53196159738226"><ele>0.0</ele><time>2026-04-17T00:12:30Z</time></trkpt><trkpt lat="-24.58514863720994" lon="113.53220254749507"><ele>0.0</ele><time>2026-04-17T00:12:31Z</time></trkpt><trkpt lat="-24.585322093949586" lon="113.53244575923625"><ele>0.0</ele><time>2026-04-17T00:12:32Z</time></trkpt><trkpt lat="-24.585496838505296" lon="113.53269099829873"><ele>-0.5</ele><time>2026-04-17T00:12:33Z</time></trkpt><trkpt lat="-24.58567231736464" lon="113.53293267169829"><ele>-1.0</ele><time>2026-04-17T00:12:34Z</time></trkpt><trkpt lat="-24.585849753010084" lon="113.53317601967959"><ele>-1.0</ele><time>2026-04-17T00:12:35Z</time></trkpt><trkpt lat="-24.58602724799537" lon="113.53341818240733"><ele>-1.0</ele><time>2026-04-17T00:12:36Z</time></trkpt><trkpt lat="-24.586205879366872" lon="113.53366003698432"><ele>-0.5</ele><time>2026-04-17T00:12:37Z</time></trkpt><trkpt lat="-24.58638785470134" lon="113.53389862611516"><ele>0.0</ele><time>2026-04-17T00:12:38Z</time></trkpt><trkpt lat="-24.58657671187847" lon="113.53412900564265"><ele>0.0</ele><time>2026-04-17T00:12:39Z</time></trkpt><trkpt lat="-24.586774535597872" lon="113.53435392393185"><ele>0.0</ele><time>2026-04-17T00:12:40Z</time></trkpt><trkpt lat="-24.586978706035104" lon="113.53457305701669"><ele>0.5</ele><time>2026-04-17T00:12:41Z</time></trkpt><trkpt lat="-24.587184328325094" lon="113.5347859198373"><ele>1.0</ele><time>2026-04-17T00:12:42Z</time></trkpt><trkpt lat="-24.58739447424473" lon="113.53499296362642"><ele>1.0</ele><time>2026-04-17T00:12:43Z</time></trkpt><trkpt lat="-24.587607485369805" lon="113.53519528664278"><ele>1.0</ele><time>2026-04-17T00:12:44Z</time></trkpt><trkpt lat="-24.587823896316767" lon="113.53538961752218"><ele>1.0</ele><time>2026-04-17T00:12:45Z</time></trkpt><trkpt lat="-24.588045202576644" lon="113.53557700548423"><ele>1.0</ele><time>2026-04-17T00:12:46Z</time></trkpt><trkpt lat="-24.58827513274351" lon="113.53575798632068"><ele>1.0</ele><time>2026-04-17T00:12:47Z</time></trkpt><trkpt lat="-24.588508928779458" lon="113.53593321231537"><ele>1.0</ele><time>2026-04-17T00:12:48Z</time></trkpt><trkpt lat="-24.58874612134255" lon="113.53610262240721"><ele>1.0</ele><time>2026-04-17T00:12:49Z</time></trkpt><trkpt lat="-24.588985169260397" lon="113.53626480964445"><ele>1.0</ele><time>2026-04-17T00:12:50Z</time></trkpt><trkpt lat="-24.589225640967793" lon="113.53641823742109"><ele>1.0</ele><time>2026-04-17T00:12:51Z</time></trkpt><trkpt lat="-24.589471358954523" lon="113.53656516706025"><ele>1.0</ele><time>2026-04-17T00:12:52Z</time></trkpt><trkpt lat="-24.589719431940974" lon="113.53670216350349"><ele>1.5</ele><time>2026-04-17T00:12:53Z</time></trkpt><trkpt lat="-24.589972552729467" lon="113.53683687151033"><ele>2.0</ele><time>2026-04-17T00:12:54Z</time></trkpt><trkpt lat="-24.59022842927034" lon="113.53696410025879"><ele>2.0</ele><time>2026-04-17T00:12:55Z</time></trkpt><trkpt lat="-24.59048613980885" lon="113.53708510321145"><ele>2.0</ele><time>2026-04-17T00:12:56Z</time></trkpt><trkpt lat="-24.590746786029523" lon="113.5372006543437"><ele>2.0</ele><time>2026-04-17T00:12:57Z</time></trkpt><trkpt lat="-24.591009132189704" lon="113.53730730350671"><ele>2.0</ele><time>2026-04-17T00:12:58Z</time></trkpt><trkpt lat="-24.59127968773084" lon="113.53741272399462"><ele>2.5</ele><time>2026-04-17T00:12:59Z</time></trkpt><trkpt lat="-24.591549418410906" lon="113.53751795606436"><ele>3.0</ele><time>2026-04-17T00:13:00Z</time></trkpt><trkpt lat="-24.591811778225345" lon="113.53762440774855"><ele>3.0</ele><time>2026-04-17T00:13:01Z</time></trkpt><trkpt lat="-24.5920738186207" lon="113.53773179252012"><ele>3.0</ele><time>2026-04-17T00:13:02Z</time></trkpt><trkpt lat="-24.592335717704096" lon="113.53783879160646"><ele>3.5</ele><time>2026-04-17T00:13:03Z</time></trkpt><trkpt lat="-24.592600823868903" lon="113.53794543154521"><ele>4.0</ele><time>2026-04-17T00:13:04Z</time></trkpt><trkpt lat="-24.592866995095886" lon="113.53805146965406"><ele>4.5</ele><time>2026-04-17T00:13:05Z</time></trkpt><trkpt lat="-24.593134137373074" lon="113.5381595445958"><ele>5.0</ele><time>2026-04-17T00:13:06Z</time></trkpt><trkpt lat="-24.593397388647812" lon="113.53826900780935"><ele>5.0</ele><time>2026-04-17T00:13:07Z</time></trkpt><trkpt lat="-24.593660427656907" lon="113.53837624217871"><ele>5.0</ele><time>2026-04-17T00:13:08Z</time></trkpt><trkpt lat="-24.593922362461416" lon="113.53848340126153"><ele>5.5</ele><time>2026-04-17T00:13:09Z</time></trkpt><trkpt lat="-24.59418502068991" lon="113.53859232729587"><ele>6.0</ele><time>2026-04-17T00:13:10Z</time></trkpt><trkpt lat="-24.59444523278629" lon="113.5386995362726"><ele>3.0</ele><time>2026-04-17T00:13:11Z</time></trkpt><trkpt lat="-24.594705152573905" lon="113.53880535523871"><ele>0.0</ele><time>2026-04-17T00:13:12Z</time></trkpt><trkpt lat="-24.594965489126608" lon="113.5389094037064"><ele>0.0</ele><time>2026-04-17T00:13:13Z</time></trkpt><trkpt lat="-24.59522569490297" lon="113.53901214074718"><ele>0.0</ele><time>2026-04-17T00:13:14Z</time></trkpt><trkpt lat="-24.595482674149537" lon="113.5391187212495"><ele>2.5</ele><time>2026-04-17T00:13:15Z</time></trkpt><trkpt lat="-24.595739010264687" lon="113.53923048307149"><ele>5.0</ele><time>2026-04-17T00:13:16Z</time></trkpt><trkpt lat="-24.595990285636645" lon="113.53934716532531"><ele>4.5</ele><time>2026-04-17T00:13:17Z</time></trkpt><trkpt lat="-24.596237312247556" lon="113.5394740333216"><ele>4.0</ele><time>2026-04-17T00:13:18Z</time></trkpt><trkpt lat="-24.59648187137981" lon="113.53960742218014"><ele>5.0</ele><time>2026-04-17T00:13:19Z</time></trkpt><trkpt lat="-24.596723123123656" lon="113.5397470293653"><ele>6.0</ele><time>2026-04-17T00:13:20Z</time></trkpt><trkpt lat="-24.59696582990267" lon="113.53989248314278"><ele>4.5</ele><time>2026-04-17T00:13:21Z</time></trkpt><trkpt lat="-24.59720943623871" lon="113.54004662666176"><ele>3.0</ele><time>2026-04-17T00:13:22Z</time></trkpt><trkpt lat="-24.597453727618273" lon="113.5402120712986"><ele>3.5</ele><time>2026-04-17T00:13:23Z</time></trkpt><trkpt lat="-24.5976919620688" lon="113.54038411530705"><ele>4.0</ele><time>2026-04-17T00:13:24Z</time></trkpt><trkpt lat="-24.597925184327696" lon="113.54056371605078"><ele>3.0</ele><time>2026-04-17T00:13:25Z</time></trkpt><trkpt lat="-24.598155125077025" lon="113.54074888478766"><ele>2.0</ele><time>2026-04-17T00:13:26Z</time></trkpt><trkpt lat="-24.598382557341715" lon="113.54094416051657"><ele>2.0</ele><time>2026-04-17T00:13:27Z</time></trkpt><trkpt lat="-24.598602579944476" lon="113.54114496661313"><ele>2.0</ele><time>2026-04-17T00:13:28Z</time></trkpt><trkpt lat="-24.598819676301108" lon="113.54135296135104"><ele>1.5</ele><time>2026-04-17T00:13:29Z</time></trkpt><trkpt lat="-24.599035033093" lon="113.54156560403692"><ele>1.0</ele><time>2026-04-17T00:13:30Z</time></trkpt><trkpt lat="-24.59924642177475" lon="113.54178304854135"><ele>1.0</ele><time>2026-04-17T00:13:31Z</time></trkpt><trkpt lat="-24.59945191944119" lon="113.5420098290068"><ele>1.0</ele><time>2026-04-17T00:13:32Z</time></trkpt><trkpt lat="-24.599643948119216" lon="113.54224055306733"><ele>0.5</ele><time>2026-04-17T00:13:33Z</time></trkpt><trkpt lat="-24.59983125240312" lon="113.54247781627417"><ele>0.0</ele><time>2026-04-17T00:13:34Z</time></trkpt><trkpt lat="-24.600014459835354" lon="113.54271551536765"><ele>0.0</ele><time>2026-04-17T00:13:35Z</time></trkpt><trkpt lat="-24.60019656118951" lon="113.54295440947243"><ele>0.0</ele><time>2026-04-17T00:13:36Z</time></trkpt><trkpt lat="-24.600376645695256" lon="113.54319675144315"><ele>0.0</ele><time>2026-04-17T00:13:37Z</time></trkpt><trkpt lat="-24.600555120540594" lon="113.54343839306613"><ele>0.0</ele><time>2026-04-17T00:13:38Z</time></trkpt><trkpt lat="-24.60073674722004" lon="113.54367983560846"><ele>0.0</ele><time>2026-04-17T00:13:39Z</time></trkpt><trkpt lat="-24.60091896625429" lon="113.54391421787341"><ele>0.0</ele><time>2026-04-17T00:13:40Z</time></trkpt><trkpt lat="-24.601097685482426" lon="113.54414369931357"><ele>0.0</ele><time>2026-04-17T00:13:41Z</time></trkpt><trkpt lat="-24.601276537300507" lon="113.54437513405988"><ele>0.0</ele><time>2026-04-17T00:13:42Z</time></trkpt><trkpt lat="-24.601454276265578" lon="113.54460558917958"><ele>0.0</ele><time>2026-04-17T00:13:43Z</time></trkpt><trkpt lat="-24.60163377559963" lon="113.54483658083497"><ele>0.0</ele><time>2026-04-17T00:13:44Z</time></trkpt><trkpt lat="-24.601811480078617" lon="113.54506790605771"><ele>0.0</ele><time>2026-04-17T00:13:45Z</time></trkpt><trkpt lat="-24.601988633063534" lon="113.5453022167441"><ele>0.0</ele><time>2026-04-17T00:13:46Z</time></trkpt><trkpt lat="-24.602167973064486" lon="113.54553756221114"><ele>0.5</ele><time>2026-04-17T00:13:47Z</time></trkpt><trkpt lat="-24.60234730601303" lon="113.54577091146402"><ele>1.0</ele><time>2026-04-17T00:13:48Z</time></trkpt><trkpt lat="-24.602526602347645" lon="113.54600452200326"><ele>1.0</ele><time>2026-04-17T00:13:49Z</time></trkpt><trkpt lat="-24.602708461182473" lon="113.54623880941571"><ele>1.0</ele><time>2026-04-17T00:13:50Z</time></trkpt><trkpt lat="-24.602893837285652" lon="113.54647340220384"><ele>1.0</ele><time>2026-04-17T00:13:51Z</time></trkpt><trkpt lat="-24.603080291951485" lon="113.54671245201311"><ele>1.0</ele><time>2026-04-17T00:13:52Z</time></trkpt><trkpt lat="-24.603264160613783" lon="113.54695283432245"><ele>1.0</ele><time>2026-04-17T00:13:53Z</time></trkpt><trkpt lat="-24.603449533659308" lon="113.5471964365797"><ele>1.0</ele><time>2026-04-17T00:13:54Z</time></trkpt><trkpt lat="-24.603636307545347" lon="113.54744018576068"><ele>1.5</ele><time>2026-04-17T00:13:55Z</time></trkpt><trkpt lat="-24.603823476260064" lon="113.54768326856902"><ele>2.0</ele><time>2026-04-17T00:13:56Z</time></trkpt><trkpt lat="-24.604009787455265" lon="113.54792753880504"><ele>1.0</ele><time>2026-04-17T00:13:57Z</time></trkpt><trkpt lat="-24.60419886485027" lon="113.54817162628817"><ele>0.0</ele><time>2026-04-17T00:13:58Z</time></trkpt><trkpt lat="-24.60439174979107" lon="113.54841737040792"><ele>0.5</ele><time>2026-04-17T00:13:59Z</time></trkpt><trkpt lat="-24.604583432838496" lon="113.54866213137144"><ele>1.0</ele><time>2026-04-17T00:14:00Z</time></trkpt><trkpt lat="-24.604772891851177" lon="113.54890795221341"><ele>1.0</ele><time>2026-04-17T00:14:01Z</time></trkpt><trkpt lat="-24.60496414683391" lon="113.54915132337443"><ele>1.0</ele><time>2026-04-17T00:14:02Z</time></trkpt><trkpt lat="-24.60515419063236" lon="113.54939504225722"><ele>1.5</ele><time>2026-04-17T00:14:03Z</time></trkpt><trkpt lat="-24.605336940735725" lon="113.5496353215283"><ele>2.0</ele><time>2026-04-17T00:14:04Z</time></trkpt><trkpt lat="-24.605518862100997" lon="113.54987758158798"><ele>2.0</ele><time>2026-04-17T00:14:05Z</time></trkpt><trkpt lat="-24.605701082394003" lon="113.55011782035918"><ele>2.0</ele><time>2026-04-17T00:14:06Z</time></trkpt><trkpt lat="-24.605883562964227" lon="113.55035520966483"><ele>2.0</ele><time>2026-04-17T00:14:07Z</time></trkpt><trkpt lat="-24.606068280515835" lon="113.55059563517867"><ele>2.0</ele><time>2026-04-17T00:14:08Z</time></trkpt><trkpt lat="-24.60624935664801" lon="113.55083344707052"><ele>0.5</ele><time>2026-04-17T00:14:09Z</time></trkpt><trkpt lat="-24.606430943183344" lon="113.55106944591941"><ele>-1.0</ele><time>2026-04-17T00:14:10Z</time></trkpt><trkpt lat="-24.60661316454914" lon="113.55130299985876"><ele>-1.0</ele><time>2026-04-17T00:14:11Z</time></trkpt><trkpt lat="-24.60679589987271" lon="113.55153701743865"><ele>-1.0</ele><time>2026-04-17T00:14:12Z</time></trkpt><trkpt lat="-24.60697777699399" lon="113.55177395299614"><ele>-0.5</ele><time>2026-04-17T00:14:13Z</time></trkpt><trkpt lat="-24.607160426874213" lon="113.55201212511922"><ele>0.0</ele><time>2026-04-17T00:14:14Z</time></trkpt><trkpt lat="-24.60734516949297" lon="113.55225365910464"><ele>0.0</ele><time>2026-04-17T00:14:15Z</time></trkpt><trkpt lat="-24.607531093333893" lon="113.55249753903163"><ele>0.0</ele><time>2026-04-17T00:14:16Z</time></trkpt><trkpt lat="-24.607720482322133" lon="113.55274344853235"><ele>1.0</ele><time>2026-04-17T00:14:17Z</time></trkpt><trkpt lat="-24.607909167614807" lon="113.55298915154727"><ele>2.0</ele><time>2026-04-17T00:14:18Z</time></trkpt><trkpt lat="-24.608094733614497" lon="113.55323376725278"><ele>2.0</ele><time>2026-04-17T00:14:19Z</time></trkpt><trkpt lat="-24.608280514412463" lon="113.55347708221139"><ele>2.0</ele><time>2026-04-17T00:14:20Z</time></trkpt><trkpt lat="-24.608463967435934" lon="113.55371928732247"><ele>1.5</ele><time>2026-04-17T00:14:21Z</time></trkpt><trkpt lat="-24.60864950002384" lon="113.55395942479201"><ele>1.0</ele><time>2026-04-17T00:14:22Z</time></trkpt><trkpt lat="-24.608834394887786" lon="113.55419473670499"><ele>1.0</ele><time>2026-04-17T00:14:23Z</time></trkpt><trkpt lat="-24.6090202861633" lon="113.55442466218425"><ele>1.0</ele><time>2026-04-17T00:14:24Z</time></trkpt><trkpt lat="-24.60920977062609" lon="113.55465051433683"><ele>2.5</ele><time>2026-04-17T00:14:25Z</time></trkpt><trkpt lat="-24.60940612172545" lon="113.5548706026287"><ele>4.0</ele><time>2026-04-17T00:14:26Z</time></trkpt><trkpt lat="-24.609606245174344" lon="113.55508565890234"><ele>4.0</ele><time>2026-04-17T00:14:27Z</time></trkpt><trkpt lat="-24.609811711303283" lon="113.55529383067609"><ele>4.0</ele><time>2026-04-17T00:14:28Z</time></trkpt><trkpt lat="-24.610020630616336" lon="113.55549196755663"><ele>4.0</ele><time>2026-04-17T00:14:29Z</time></trkpt><trkpt lat="-24.61023341396021" lon="113.55568198877"><ele>4.0</ele><time>2026-04-17T00:14:30Z</time></trkpt><trkpt lat="-24.610450429338098" lon="113.55586662314276"><ele>4.0</ele><time>2026-04-17T00:14:31Z</time></trkpt><trkpt lat="-24.610673432963015" lon="113.55604560232779"><ele>4.0</ele><time>2026-04-17T00:14:32Z</time></trkpt><trkpt lat="-24.61090371267781" lon="113.55622201982777"><ele>3.0</ele><time>2026-04-17T00:14:33Z</time></trkpt><trkpt lat="-24.6111360514346" lon="113.55639422433546"><ele>2.0</ele><time>2026-04-17T00:14:34Z</time></trkpt><trkpt lat="-24.611373329367964" lon="113.5565657030403"><ele>1.5</ele><time>2026-04-17T00:14:35Z</time></trkpt><trkpt lat="-24.61161408083717" lon="113.5567368795291"><ele>1.0</ele><time>2026-04-17T00:14:36Z</time></trkpt><trkpt lat="-24.611853639214633" lon="113.55690809771153"><ele>1.5</ele><time>2026-04-17T00:14:37Z</time></trkpt><trkpt lat="-24.61209137620574" lon="113.55708096890012"><ele>2.0</ele><time>2026-04-17T00:14:38Z</time></trkpt><trkpt lat="-24.61232719110227" lon="113.55725026577825"><ele>2.0</ele><time>2026-04-17T00:14:39Z</time></trkpt><trkpt lat="-24.612562910983275" lon="113.55742003272768"><ele>2.0</ele><time>2026-04-17T00:14:40Z</time></trkpt><trkpt lat="-24.612797730705346" lon="113.55758772042292"><ele>2.0</ele><time>2026-04-17T00:14:41Z</time></trkpt><trkpt lat="-24.61303247599938" lon="113.55775447576346"><ele>2.0</ele><time>2026-04-17T00:14:42Z</time></trkpt><trkpt lat="-24.613269048252388" lon="113.55792401989576"><ele>2.0</ele><time>2026-04-17T00:14:43Z</time></trkpt><trkpt lat="-24.61350501372004" lon="113.55809244408822"><ele>2.0</ele><time>2026-04-17T00:14:44Z</time></trkpt><trkpt lat="-24.613738945983258" lon="113.55825985714938"><ele>1.5</ele><time>2026-04-17T00:14:45Z</time></trkpt><trkpt lat="-24.61397048541698" lon="113.55842813271585"><ele>1.0</ele><time>2026-04-17T00:14:46Z</time></trkpt><trkpt lat="-24.614197047180557" lon="113.55859592895906"><ele>1.0</ele><time>2026-04-17T00:14:47Z</time></trkpt><trkpt lat="-24.614424670746384" lon="113.55876091503288"><ele>1.0</ele><time>2026-04-17T00:14:48Z</time></trkpt><trkpt lat="-24.61465003281456" lon="113.55892373875699"><ele>2.0</ele><time>2026-04-17T00:14:49Z</time></trkpt><trkpt lat="-24.61487963441671" lon="113.5590892264773"><ele>3.0</ele><time>2026-04-17T00:14:50Z</time></trkpt><trkpt lat="-24.61511104068604" lon="113.55925500607346"><ele>3.0</ele><time>2026-04-17T00:14:51Z</time></trkpt><trkpt lat="-24.615344146679945" lon="113.55942165982823"><ele>3.0</ele><time>2026-04-17T00:14:52Z</time></trkpt><trkpt lat="-24.615576971391583" lon="113.55958788406109"><ele>3.0</ele><time>2026-04-17T00:14:53Z</time></trkpt><trkpt lat="-24.6158094642471" lon="113.5597549742856"><ele>3.0</ele><time>2026-04-17T00:14:54Z</time></trkpt><trkpt lat="-24.616042415885474" lon="113.55992446269866"><ele>3.5</ele><time>2026-04-17T00:14:55Z</time></trkpt><trkpt lat="-24.616274913548363" lon="113.56009605245569"><ele>4.0</ele><time>2026-04-17T00:14:56Z</time></trkpt><trkpt lat="-24.616507397816633" lon="113.56026667323601"><ele>2.5</ele><time>2026-04-17T00:14:57Z</time></trkpt><trkpt lat="-24.616741290555673" lon="113.56043345539763"><ele>1.0</ele><time>2026-04-17T00:14:58Z</time></trkpt><trkpt lat="-24.616976412685915" lon="113.56060106538997"><ele>1.5</ele><time>2026-04-17T00:14:59Z</time></trkpt><trkpt lat="-24.617209452034665" lon="113.56076648010762"><ele>2.0</ele><time>2026-04-17T00:15:00Z</time></trkpt><trkpt lat="-24.61743937059898" lon="113.5609303208435"><ele>2.0</ele><time>2026-04-17T00:15:01Z</time></trkpt><trkpt lat="-24.617667870668793" lon="113.56109371850523"><ele>2.0</ele><time>2026-04-17T00:15:02Z</time></trkpt><trkpt lat="-24.61789168383785" lon="113.56125194591718"><ele>2.5</ele><time>2026-04-17T00:15:03Z</time></trkpt><trkpt lat="-24.61811435138394" lon="113.5614106178621"><ele>3.0</ele><time>2026-04-17T00:15:04Z</time></trkpt><trkpt lat="-24.61833296878288" lon="113.56157019683856"><ele>3.0</ele><time>2026-04-17T00:15:05Z</time></trkpt><trkpt lat="-24.61854930432287" lon="113.56172927741176"><ele>3.0</ele><time>2026-04-17T00:15:06Z</time></trkpt><trkpt lat="-24.618762535138327" lon="113.5618840291428"><ele>2.5</ele><time>2026-04-17T00:15:07Z</time></trkpt><trkpt lat="-24.61897623894655" lon="113.56204070900209"><ele>2.0</ele><time>2026-04-17T00:15:08Z</time></trkpt><trkpt lat="-24.61918918189117" lon="113.56219084017881"><ele>2.0</ele><time>2026-04-17T00:15:09Z</time></trkpt><trkpt lat="-24.619405427777306" lon="113.56234346623005"><ele>2.0</ele><time>2026-04-17T00:15:10Z</time></trkpt><trkpt lat="-24.619618460024434" lon="113.56249739739752"><ele>2.0</ele><time>2026-04-17T00:15:11Z</time></trkpt><trkpt lat="-24.61983523178456" lon="113.56265468155483"><ele>2.0</ele><time>2026-04-17T00:15:12Z</time></trkpt><trkpt lat="-24.620056312475388" lon="113.56281839135974"><ele>1.5</ele><time>2026-04-17T00:15:13Z</time></trkpt><trkpt lat="-24.620285191393982" lon="113.56298562839665"><ele>1.0</ele><time>2026-04-17T00:15:14Z</time></trkpt><trkpt lat="-24.62051513270738" lon="113.56315226200113"><ele>2.5</ele><time>2026-04-17T00:15:15Z</time></trkpt><trkpt lat="-24.62074621040675" lon="113.56331802737256"><ele>4.0</ele><time>2026-04-17T00:15:16Z</time></trkpt><trkpt lat="-24.62097959262374" lon="113.56348108196562"><ele>4.0</ele><time>2026-04-17T00:15:17Z</time></trkpt><trkpt lat="-24.621214989187937" lon="113.56364610797011"><ele>4.0</ele><time>2026-04-17T00:15:18Z</time></trkpt><trkpt lat="-24.62144838546035" lon="113.56381524874982"><ele>3.5</ele><time>2026-04-17T00:15:19Z</time></trkpt><trkpt lat="-24.62168069224499" lon="113.56398492823953"><ele>3.0</ele><time>2026-04-17T00:15:20Z</time></trkpt><trkpt lat="-24.621915884015884" lon="113.56415358639339"><ele>3.0</ele><time>2026-04-17T00:15:21Z</time></trkpt><trkpt lat="-24.62214998462634" lon="113.56432151714537"><ele>3.0</ele><time>2026-04-17T00:15:22Z</time></trkpt><trkpt lat="-24.622383225619597" lon="113.56449009036199"><ele>3.5</ele><time>2026-04-17T00:15:23Z</time></trkpt><trkpt lat="-24.622616381114685" lon="113.56465972189683"><ele>4.0</ele><time>2026-04-17T00:15:24Z</time></trkpt><trkpt lat="-24.622853677984075" lon="113.56483200198528"><ele>4.0</ele><time>2026-04-17T00:15:25Z</time></trkpt><trkpt lat="-24.62309186878969" lon="113.56500155604273"><ele>4.0</ele><time>2026-04-17T00:15:26Z</time></trkpt><trkpt lat="-24.623331259321013" lon="113.56517319914532"><ele>4.0</ele><time>2026-04-17T00:15:27Z</time></trkpt><trkpt lat="-24.62356750289527" lon="113.56534479257294"><ele>4.0</ele><time>2026-04-17T00:15:28Z</time></trkpt><trkpt lat="-24.62380334508833" lon="113.56551444070176"><ele>4.0</ele><time>2026-04-17T00:15:29Z</time></trkpt><trkpt lat="-24.624038470476112" lon="113.56568331832754"><ele>4.0</ele><time>2026-04-17T00:15:30Z</time></trkpt><trkpt lat="-24.624272137610003" lon="113.56585138262905"><ele>3.5</ele><time>2026-04-17T00:15:31Z</time></trkpt><trkpt lat="-24.624507604477824" lon="113.56602139819485"><ele>3.0</ele><time>2026-04-17T00:15:32Z</time></trkpt><trkpt lat="-24.624742369835257" lon="113.56618940568076"><ele>3.0</ele><time>2026-04-17T00:15:33Z</time></trkpt><trkpt lat="-24.624978296382814" lon="113.56635817496402"><ele>3.0</ele><time>2026-04-17T00:15:34Z</time></trkpt><trkpt lat="-24.625212370398167" lon="113.5665267452466"><ele>3.0</ele><time>2026-04-17T00:15:35Z</time></trkpt><trkpt lat="-24.625445755722417" lon="113.56669553565767"><ele>3.0</ele><time>2026-04-17T00:15:36Z</time></trkpt><trkpt lat="-24.625678892889717" lon="113.56686470863103"><ele>2.0</ele><time>2026-04-17T00:15:37Z</time></trkpt><trkpt lat="-24.625911393828797" lon="113.56703300973955"><ele>1.0</ele><time>2026-04-17T00:15:38Z</time></trkpt><trkpt lat="-24.626144227360367" lon="113.56720002551546"><ele>1.0</ele><time>2026-04-17T00:15:39Z</time></trkpt><trkpt lat="-24.626373777119387" lon="113.56736730586876"><ele>1.0</ele><time>2026-04-17T00:15:40Z</time></trkpt><trkpt lat="-24.62660027167845" lon="113.56753263890985"><ele>1.0</ele><time>2026-04-17T00:15:41Z</time></trkpt><trkpt lat="-24.626827426562542" lon="113.56769685272079"><ele>1.0</ele><time>2026-04-17T00:15:42Z</time></trkpt><trkpt lat="-24.627052171189238" lon="113.56786018797823"><ele>2.5</ele><time>2026-04-17T00:15:43Z</time></trkpt><trkpt lat="-24.627275038700304" lon="113.56802129896417"><ele>4.0</ele><time>2026-04-17T00:15:44Z</time></trkpt><trkpt lat="-24.627497924684857" lon="113.56817898339797"><ele>4.0</ele><time>2026-04-17T00:15:45Z</time></trkpt><trkpt lat="-24.627717537552087" lon="113.56833198036821"><ele>4.0</ele><time>2026-04-17T00:15:46Z</time></trkpt><trkpt lat="-24.627935509897664" lon="113.56848394350166"><ele>4.5</ele><time>2026-04-17T00:15:47Z</time></trkpt><trkpt lat="-24.62815459597132" lon="113.56864127969467"><ele>5.0</ele><time>2026-04-17T00:15:48Z</time></trkpt><trkpt lat="-24.62837216999104" lon="113.56880043141511"><ele>4.5</ele><time>2026-04-17T00:15:49Z</time></trkpt><trkpt lat="-24.628581594547676" lon="113.56895584167606"><ele>4.0</ele><time>2026-04-17T00:15:50Z</time></trkpt><trkpt lat="-24.62877608201278" lon="113.56909941375565"><ele>4.0</ele><time>2026-04-17T00:15:51Z</time></trkpt><trkpt lat="-24.628970054831864" lon="113.56924053020676"><ele>4.0</ele><time>2026-04-17T00:15:52Z</time></trkpt><trkpt lat="-24.62916680822792" lon="113.56937911951115"><ele>4.0</ele><time>2026-04-17T00:15:53Z</time></trkpt><trkpt lat="-24.629367447059856" lon="113.5695219516779"><ele>4.0</ele><time>2026-04-17T00:15:54Z</time></trkpt><trkpt lat="-24.62957157257233" lon="113.56966985726284"><ele>4.0</ele><time>2026-04-17T00:15:55Z</time></trkpt><trkpt lat="-24.629779134268038" lon="113.56982241449879"><ele>4.0</ele><time>2026-04-17T00:15:56Z</time></trkpt><trkpt lat="-24.629992144535994" lon="113.56997926474169"><ele>4.0</ele><time>2026-04-17T00:15:57Z</time></trkpt><trkpt lat="-24.630210931249838" lon="113.57013875463927"><ele>4.0</ele><time>2026-04-17T00:15:58Z</time></trkpt><trkpt lat="-24.630434313323747" lon="113.5703004011969"><ele>3.5</ele><time>2026-04-17T00:15:59Z</time></trkpt><trkpt lat="-24.63066209514299" lon="113.570465841513"><ele>3.0</ele><time>2026-04-17T00:16:00Z</time></trkpt><trkpt lat="-24.630887427709556" lon="113.57063642931686"><ele>3.0</ele><time>2026-04-17T00:16:01Z</time></trkpt><trkpt lat="-24.631106608500517" lon="113.5708165114735"><ele>3.0</ele><time>2026-04-17T00:16:02Z</time></trkpt><trkpt lat="-24.631318583923285" lon="113.57100408935507"><ele>3.5</ele><time>2026-04-17T00:16:03Z</time></trkpt><trkpt lat="-24.631526248971205" lon="113.57119592009538"><ele>4.0</ele><time>2026-04-17T00:16:04Z</time></trkpt><trkpt lat="-24.63172935305007" lon="113.57139269609617"><ele>4.0</ele><time>2026-04-17T00:16:05Z</time></trkpt><trkpt lat="-24.63192513813154" lon="113.57160030161516"><ele>4.0</ele><time>2026-04-17T00:16:06Z</time></trkpt><trkpt lat="-24.632119112677763" lon="113.57181156669682"><ele>2.0</ele><time>2026-04-17T00:16:07Z</time></trkpt><trkpt lat="-24.632307259975022" lon="113.57202543769722"><ele>0.0</ele><time>2026-04-17T00:16:08Z</time></trkpt><trkpt lat="-24.63249306999052" lon="113.57224791377001"><ele>0.0</ele><time>2026-04-17T00:16:09Z</time></trkpt><trkpt lat="-24.632674520599377" lon="113.57247880363454"><ele>0.0</ele><time>2026-04-17T00:16:10Z</time></trkpt><trkpt lat="-24.63285190214703" lon="113.57271543527595"><ele>0.0</ele><time>2026-04-17T00:16:11Z</time></trkpt><trkpt lat="-24.633027874215365" lon="113.57295695078025"><ele>0.0</ele><time>2026-04-17T00:16:12Z</time></trkpt><trkpt lat="-24.633199114076973" lon="113.57320391673953"><ele>0.0</ele><time>2026-04-17T00:16:13Z</time></trkpt><trkpt lat="-24.633365700083257" lon="113.57345686296114"><ele>0.0</ele><time>2026-04-17T00:16:14Z</time></trkpt><trkpt lat="-24.633521165632228" lon="113.57371347633"><ele>0.5</ele><time>2026-04-17T00:16:15Z</time></trkpt><trkpt lat="-24.633673761514714" lon="113.57397508657628"><ele>1.0</ele><time>2026-04-17T00:16:16Z</time></trkpt><trkpt lat="-24.633822721134727" lon="113.5742386485276"><ele>1.0</ele><time>2026-04-17T00:16:17Z</time></trkpt><trkpt lat="-24.6339701922979" lon="113.57450305303378"><ele>1.0</ele><time>2026-04-17T00:16:18Z</time></trkpt><trkpt lat="-24.634118030956387" lon="113.57476796374681"><ele>1.0</ele><time>2026-04-17T00:16:19Z</time></trkpt><trkpt lat="-24.63426810368193" lon="113.57503495716566"><ele>1.0</ele><time>2026-04-17T00:16:20Z</time></trkpt><trkpt lat="-24.634421461410707" lon="113.57530463830486"><ele>2.0</ele><time>2026-04-17T00:16:21Z</time></trkpt><trkpt lat="-24.634576840276825" lon="113.575574348169"><ele>3.0</ele><time>2026-04-17T00:16:22Z</time></trkpt><trkpt lat="-24.634729789669752" lon="113.57584041732486"><ele>3.0</ele><time>2026-04-17T00:16:23Z</time></trkpt><trkpt lat="-24.634882828448024" lon="113.57610854490758"><ele>3.0</ele><time>2026-04-17T00:16:24Z</time></trkpt><trkpt lat="-24.635036659410616" lon="113.57637474253303"><ele>3.0</ele><time>2026-04-17T00:16:25Z</time></trkpt><trkpt lat="-24.635188204623184" lon="113.57664193071462"><ele>3.0</ele><time>2026-04-17T00:16:26Z</time></trkpt><trkpt lat="-24.63533972581446" lon="113.57690848422851"><ele>3.5</ele><time>2026-04-17T00:16:27Z</time></trkpt><trkpt lat="-24.63549355730969" lon="113.57717450575878"><ele>4.0</ele><time>2026-04-17T00:16:28Z</time></trkpt><trkpt lat="-24.635646888919165" lon="113.57743942447682"><ele>4.0</ele><time>2026-04-17T00:16:29Z</time></trkpt><trkpt lat="-24.635799036706114" lon="113.5777071158166"><ele>4.0</ele><time>2026-04-17T00:16:30Z</time></trkpt><trkpt lat="-24.635951432067603" lon="113.57797497187279"><ele>3.5</ele><time>2026-04-17T00:16:31Z</time></trkpt><trkpt lat="-24.636104671722922" lon="113.57824305788613"><ele>3.0</ele><time>2026-04-17T00:16:32Z</time></trkpt><trkpt lat="-24.63626223169672" lon="113.57851553568506"><ele>2.5</ele><time>2026-04-17T00:16:33Z</time></trkpt><trkpt lat="-24.636419301230205" lon="113.57878884106316"><ele>2.0</ele><time>2026-04-17T00:16:34Z</time></trkpt><trkpt lat="-24.636573976274107" lon="113.5790606613704"><ele>2.0</ele><time>2026-04-17T00:16:35Z</time></trkpt><trkpt lat="-24.636727137775665" lon="113.57933266443747"><ele>2.0</ele><time>2026-04-17T00:16:36Z</time></trkpt><trkpt lat="-24.63687929205608" lon="113.57960210413576"><ele>2.5</ele><time>2026-04-17T00:16:37Z</time></trkpt><trkpt lat="-24.637030931539055" lon="113.5798658814169"><ele>3.0</ele><time>2026-04-17T00:16:38Z</time></trkpt><trkpt lat="-24.63718306677288" lon="113.58012749008579"><ele>4.0</ele><time>2026-04-17T00:16:39Z</time></trkpt><trkpt lat="-24.637333491692914" lon="113.58038639705462"><ele>5.0</ele><time>2026-04-17T00:16:40Z</time></trkpt><trkpt lat="-24.63748224937397" lon="113.58064451186357"><ele>5.0</ele><time>2026-04-17T00:16:41Z</time></trkpt><trkpt lat="-24.63763038895941" lon="113.58090400067651"><ele>5.0</ele><time>2026-04-17T00:16:42Z</time></trkpt><trkpt lat="-24.6377766343941" lon="113.58116320709435"><ele>4.5</ele><time>2026-04-17T00:16:43Z</time></trkpt><trkpt lat="-24.637926220712618" lon="113.58142728075208"><ele>4.0</ele><time>2026-04-17T00:16:44Z</time></trkpt><trkpt lat="-24.638077538569267" lon="113.58169002838602"><ele>4.0</ele><time>2026-04-17T00:16:45Z</time></trkpt><trkpt lat="-24.638226968351706" lon="113.5819499874068"><ele>4.0</ele><time>2026-04-17T00:16:46Z</time></trkpt><trkpt lat="-24.638378591201807" lon="113.5822097055406"><ele>4.0</ele><time>2026-04-17T00:16:47Z</time></trkpt><trkpt lat="-24.638529475604205" lon="113.58247095666752"><ele>4.0</ele><time>2026-04-17T00:16:48Z</time></trkpt><trkpt lat="-24.638681046143592" lon="113.5827346388455"><ele>3.5</ele><time>2026-04-17T00:16:49Z</time></trkpt><trkpt lat="-24.63883086233981" lon="113.5829995949126"><ele>3.0</ele><time>2026-04-17T00:16:50Z</time></trkpt><trkpt lat="-24.638981356689985" lon="113.58326392408128"><ele>3.0</ele><time>2026-04-17T00:16:51Z</time></trkpt><trkpt lat="-24.63913112083081" lon="113.5835248650305"><ele>3.0</ele><time>2026-04-17T00:16:52Z</time></trkpt><trkpt lat="-24.63928269130674" lon="113.58378821283311"><ele>2.5</ele><time>2026-04-17T00:16:53Z</time></trkpt><trkpt lat="-24.639433425584073" lon="113.58404826186958"><ele>2.0</ele><time>2026-04-17T00:16:54Z</time></trkpt><trkpt lat="-24.639583470100874" lon="113.5843118458934"><ele>2.0</ele><time>2026-04-17T00:16:55Z</time></trkpt><trkpt lat="-24.639733585833433" lon="113.58457444970637"><ele>2.0</ele><time>2026-04-17T00:16:56Z</time></trkpt><trkpt lat="-24.63988387405438" lon="113.58483476378252"><ele>2.0</ele><time>2026-04-17T00:16:57Z</time></trkpt><trkpt lat="-24.640035470679766" lon="113.58509535773618"><ele>2.0</ele><time>2026-04-17T00:16:58Z</time></trkpt><trkpt lat="-24.640184960563264" lon="113.58535580803971"><ele>2.5</ele><time>2026-04-17T00:16:59Z</time></trkpt><trkpt lat="-24.640333206387286" lon="113.5856192842797"><ele>3.0</ele><time>2026-04-17T00:17:00Z</time></trkpt><trkpt lat="-24.640479584919778" lon="113.58588403732591"><ele>3.0</ele><time>2026-04-17T00:17:01Z</time></trkpt><trkpt lat="-24.6406274629648" lon="113.58614379505664"><ele>3.0</ele><time>2026-04-17T00:17:02Z</time></trkpt><trkpt lat="-24.640775155095064" lon="113.58640131242637"><ele>3.0</ele><time>2026-04-17T00:17:03Z</time></trkpt><trkpt lat="-24.640922261924146" lon="113.58665790063094"><ele>3.0</ele><time>2026-04-17T00:17:04Z</time></trkpt><trkpt lat="-24.641070438453973" lon="113.58691336015436"><ele>3.0</ele><time>2026-04-17T00:17:05Z</time></trkpt><trkpt lat="-24.64121784571939" lon="113.58716943752599"><ele>3.0</ele><time>2026-04-17T00:17:06Z</time></trkpt><trkpt lat="-24.641362283215397" lon="113.58742420160348"><ele>3.0</ele><time>2026-04-17T00:17:07Z</time></trkpt><trkpt lat="-24.641504563558183" lon="113.58767794542469"><ele>3.0</ele><time>2026-04-17T00:17:08Z</time></trkpt><trkpt lat="-24.641646739016014" lon="113.58793037803174"><ele>3.5</ele><time>2026-04-17T00:17:09Z</time></trkpt><trkpt lat="-24.64179192663565" lon="113.58817982321965"><ele>4.0</ele><time>2026-04-17T00:17:10Z</time></trkpt><trkpt lat="-24.64193828878016" lon="113.58842962218672"><ele>3.5</ele><time>2026-04-17T00:17:11Z</time></trkpt><trkpt lat="-24.642084400411818" lon="113.58868543121505"><ele>3.0</ele><time>2026-04-17T00:17:12Z</time></trkpt><trkpt lat="-24.642230177506164" lon="113.58894091868548"><ele>3.0</ele><time>2026-04-17T00:17:13Z</time></trkpt><trkpt lat="-24.642378189265788" lon="113.58919568769822"><ele>3.0</ele><time>2026-04-17T00:17:14Z</time></trkpt><trkpt lat="-24.642525898188598" lon="113.58945125865776"><ele>3.0</ele><time>2026-04-17T00:17:15Z</time></trkpt><trkpt lat="-24.642674859968807" lon="113.58970987647899"><ele>3.0</ele><time>2026-04-17T00:17:16Z</time></trkpt><trkpt lat="-24.64282524376122" lon="113.58997208718608"><ele>3.0</ele><time>2026-04-17T00:17:17Z</time></trkpt><trkpt lat="-24.642974537696468" lon="113.59023201956657"><ele>3.0</ele><time>2026-04-17T00:17:18Z</time></trkpt><trkpt lat="-24.643122859338654" lon="113.59049238949565"><ele>3.5</ele><time>2026-04-17T00:17:19Z</time></trkpt><trkpt lat="-24.64327111754442" lon="113.59075566987848"><ele>4.0</ele><time>2026-04-17T00:17:20Z</time></trkpt><trkpt lat="-24.64342064346362" lon="113.59101514476384"><ele>3.0</ele><time>2026-04-17T00:17:21Z</time></trkpt><trkpt lat="-24.643570612127476" lon="113.5912766171224"><ele>2.0</ele><time>2026-04-17T00:17:22Z</time></trkpt><trkpt lat="-24.643719492674634" lon="113.59153932668434"><ele>2.0</ele><time>2026-04-17T00:17:23Z</time></trkpt><trkpt lat="-24.643866800016845" lon="113.5918033651896"><ele>2.0</ele><time>2026-04-17T00:17:24Z</time></trkpt><trkpt lat="-24.644012289653386" lon="113.59207035159488"><ele>3.0</ele><time>2026-04-17T00:17:25Z</time></trkpt><trkpt lat="-24.644156437855614" lon="113.59234056431855"><ele>4.0</ele><time>2026-04-17T00:17:26Z</time></trkpt><trkpt lat="-24.644296329695056" lon="113.59260705758811"><ele>5.0</ele><time>2026-04-17T00:17:27Z</time></trkpt><trkpt lat="-24.644434233008123" lon="113.5928779158915"><ele>6.0</ele><time>2026-04-17T00:17:28Z</time></trkpt><trkpt lat="-24.64457288266713" lon="113.59314962340643"><ele>6.5</ele><time>2026-04-17T00:17:29Z</time></trkpt><trkpt lat="-24.644708922563467" lon="113.59342291121837"><ele>7.0</ele><time>2026-04-17T00:17:30Z</time></trkpt><trkpt lat="-24.644841320927416" lon="113.5936959229412"><ele>5.5</ele><time>2026-04-17T00:17:31Z</time></trkpt><trkpt lat="-24.644972157417733" lon="113.59397051798652"><ele>4.0</ele><time>2026-04-17T00:17:32Z</time></trkpt><trkpt lat="-24.64510430265747" lon="113.59424527922295"><ele>3.5</ele><time>2026-04-17T00:17:33Z</time></trkpt><trkpt lat="-24.645238734868432" lon="113.59452019287478"><ele>3.0</ele><time>2026-04-17T00:17:34Z</time></trkpt><trkpt lat="-24.645374385870387" lon="113.59479835086182"><ele>3.0</ele><time>2026-04-17T00:17:35Z</time></trkpt><trkpt lat="-24.64550835688096" lon="113.5950785235798"><ele>3.0</ele><time>2026-04-17T00:17:36Z</time></trkpt><trkpt lat="-24.645640572630093" lon="113.59535855658518"><ele>3.5</ele><time>2026-04-17T00:17:37Z</time></trkpt><trkpt lat="-24.645771141172908" lon="113.59563998049002"><ele>4.0</ele><time>2026-04-17T00:17:38Z</time></trkpt><trkpt lat="-24.645905322144927" lon="113.59591977068203"><ele>3.5</ele><time>2026-04-17T00:17:39Z</time></trkpt><trkpt lat="-24.646041612557063" lon="113.59619892440662"><ele>3.0</ele><time>2026-04-17T00:17:40Z</time></trkpt><trkpt lat="-24.64617526382372" lon="113.5964766663111"><ele>3.0</ele><time>2026-04-17T00:17:41Z</time></trkpt><trkpt lat="-24.6463088094219" lon="113.59675597164699"><ele>3.0</ele><time>2026-04-17T00:17:42Z</time></trkpt><trkpt lat="-24.646443293789222" lon="113.59703291213211"><ele>3.0</ele><time>2026-04-17T00:17:43Z</time></trkpt><trkpt lat="-24.646579812449673" lon="113.5973090662808"><ele>3.0</ele><time>2026-04-17T00:17:44Z</time></trkpt><trkpt lat="-24.646715648424443" lon="113.59758556522091"><ele>2.5</ele><time>2026-04-17T00:17:45Z</time></trkpt><trkpt lat="-24.646852628105616" lon="113.59786474682906"><ele>2.0</ele><time>2026-04-17T00:17:46Z</time></trkpt><trkpt lat="-24.646984506473597" lon="113.59814252025787"><ele>2.5</ele><time>2026-04-17T00:17:47Z</time></trkpt><trkpt lat="-24.64711952183698" lon="113.59842198912906"><ele>3.0</ele><time>2026-04-17T00:17:48Z</time></trkpt><trkpt lat="-24.64725664320635" lon="113.59870236979164"><ele>3.0</ele><time>2026-04-17T00:17:49Z</time></trkpt><trkpt lat="-24.647392357808158" lon="113.59898209506376"><ele>3.0</ele><time>2026-04-17T00:17:50Z</time></trkpt><trkpt lat="-24.647528407867934" lon="113.5992624466204"><ele>2.5</ele><time>2026-04-17T00:17:51Z</time></trkpt><trkpt lat="-24.647662074879598" lon="113.59954184380257"><ele>2.0</ele><time>2026-04-17T00:17:52Z</time></trkpt><trkpt lat="-24.647796393705864" lon="113.59981962748027"><ele>2.0</ele><time>2026-04-17T00:17:53Z</time></trkpt><trkpt lat="-24.64793171621403" lon="113.60009766198553"><ele>2.0</ele><time>2026-04-17T00:17:54Z</time></trkpt><trkpt lat="-24.648066126671917" lon="113.6003742316468"><ele>1.0</ele><time>2026-04-17T00:17:55Z</time></trkpt><trkpt lat="-24.64820151688601" lon="113.60065116449248"><ele>0.0</ele><time>2026-04-17T00:17:56Z</time></trkpt><trkpt lat="-24.648335203163672" lon="113.60092876221839"><ele>1.5</ele><time>2026-04-17T00:17:57Z</time></trkpt><trkpt lat="-24.64846771676812" lon="113.6012055945974"><ele>3.0</ele><time>2026-04-17T00:17:58Z</time></trkpt><trkpt lat="-24.648598572683724" lon="113.60148056415493"><ele>3.0</ele><time>2026-04-17T00:17:59Z</time></trkpt><trkpt lat="-24.648731516522208" lon="113.60175652942662"><ele>3.0</ele><time>2026-04-17T00:18:00Z</time></trkpt><trkpt lat="-24.64886417701739" lon="113.60203020521676"><ele>3.0</ele><time>2026-04-17T00:18:01Z</time></trkpt><trkpt lat="-24.648996974692896" lon="113.60230460527949"><ele>3.0</ele><time>2026-04-17T00:18:02Z</time></trkpt><trkpt lat="-24.6491309895371" lon="113.6025781647357"><ele>2.5</ele><time>2026-04-17T00:18:03Z</time></trkpt><trkpt lat="-24.6492658602232" lon="113.60285471404582"><ele>2.0</ele><time>2026-04-17T00:18:04Z</time></trkpt><trkpt lat="-24.649398545712916" lon="113.60313032782199"><ele>2.0</ele><time>2026-04-17T00:18:05Z</time></trkpt><trkpt lat="-24.64953362953113" lon="113.60340857844342"><ele>2.0</ele><time>2026-04-17T00:18:06Z</time></trkpt><trkpt lat="-24.649667612284222" lon="113.60368361493282"><ele>2.0</ele><time>2026-04-17T00:18:07Z</time></trkpt><trkpt lat="-24.649802025032255" lon="113.60396130653054"><ele>2.0</ele><time>2026-04-17T00:18:08Z</time></trkpt><trkpt lat="-24.64993714717798" lon="113.60423843041262"><ele>2.0</ele><time>2026-04-17T00:18:09Z</time></trkpt><trkpt lat="-24.650071645786614" lon="113.60451482968166"><ele>2.0</ele><time>2026-04-17T00:18:10Z</time></trkpt><trkpt lat="-24.650204070053125" lon="113.6047848535024"><ele>1.5</ele><time>2026-04-17T00:18:11Z</time></trkpt><trkpt lat="-24.650336697269104" lon="113.60506091915695"><ele>1.0</ele><time>2026-04-17T00:18:12Z</time></trkpt><trkpt lat="-24.650467057696194" lon="113.60533790344347"><ele>2.5</ele><time>2026-04-17T00:18:13Z</time></trkpt><trkpt lat="-24.65059605500816" lon="113.60561294158256"><ele>4.0</ele><time>2026-04-17T00:18:14Z</time></trkpt><trkpt lat="-24.650724520287323" lon="113.60588545048925"><ele>4.0</ele><time>2026-04-17T00:18:15Z</time></trkpt><trkpt lat="-24.650852385238554" lon="113.60615822368149"><ele>4.0</ele><time>2026-04-17T00:18:16Z</time></trkpt><trkpt lat="-24.65097507905243" lon="113.60643656058437"><ele>4.5</ele><time>2026-04-17T00:18:17Z</time></trkpt><trkpt lat="-24.65108776500426" lon="113.60672150919898"><ele>5.0</ele><time>2026-04-17T00:18:18Z</time></trkpt><trkpt lat="-24.651194101270637" lon="113.60701279882804"><ele>4.0</ele><time>2026-04-17T00:18:19Z</time></trkpt><trkpt lat="-24.651296271509853" lon="113.60730272069956"><ele>3.0</ele><time>2026-04-17T00:18:20Z</time></trkpt><trkpt lat="-24.651389748423306" lon="113.60759503430691"><ele>3.0</ele><time>2026-04-17T00:18:21Z</time></trkpt><trkpt lat="-24.65147528610709" lon="113.60788907642011"><ele>3.0</ele><time>2026-04-17T00:18:22Z</time></trkpt><trkpt lat="-24.65155279517142" lon="113.60818794529223"><ele>3.0</ele><time>2026-04-17T00:18:23Z</time></trkpt><trkpt lat="-24.651622925633117" lon="113.60848707804992"><ele>3.0</ele><time>2026-04-17T00:18:24Z</time></trkpt><trkpt lat="-24.651682878987277" lon="113.60878843009564"><ele>3.0</ele><time>2026-04-17T00:18:25Z</time></trkpt><trkpt lat="-24.651736870966328" lon="113.60909148509118"><ele>3.0</ele><time>2026-04-17T00:18:26Z</time></trkpt><trkpt lat="-24.651785361392232" lon="113.60939881472738"><ele>3.0</ele><time>2026-04-17T00:18:27Z</time></trkpt><trkpt lat="-24.65182790962434" lon="113.60970447755311"><ele>3.0</ele><time>2026-04-17T00:18:28Z</time></trkpt><trkpt lat="-24.65186478374971" lon="113.61001063961932"><ele>3.0</ele><time>2026-04-17T00:18:29Z</time></trkpt><trkpt lat="-24.65189547546984" lon="113.61031892436728"><ele>3.0</ele><time>2026-04-17T00:18:30Z</time></trkpt><trkpt lat="-24.651920208307494" lon="113.61062935642487"><ele>2.5</ele><time>2026-04-17T00:18:31Z</time></trkpt><trkpt lat="-24.651936691063163" lon="113.61094419310525"><ele>2.0</ele><time>2026-04-17T00:18:32Z</time></trkpt><trkpt lat="-24.651951827336557" lon="113.61125811817344"><ele>1.0</ele><time>2026-04-17T00:18:33Z</time></trkpt><trkpt lat="-24.6519676448016" lon="113.61157175687148"><ele>0.0</ele><time>2026-04-17T00:18:34Z</time></trkpt><trkpt lat="-24.651986555006427" lon="113.61188422136216"><ele>1.0</ele><time>2026-04-17T00:18:35Z</time></trkpt><trkpt lat="-24.652004420865733" lon="113.61219257119147"><ele>2.0</ele><time>2026-04-17T00:18:36Z</time></trkpt><trkpt lat="-24.652019505339744" lon="113.61250193644976"><ele>2.0</ele><time>2026-04-17T00:18:37Z</time></trkpt><trkpt lat="-24.65203408677538" lon="113.61280984419585"><ele>2.0</ele><time>2026-04-17T00:18:38Z</time></trkpt><trkpt lat="-24.65205021756727" lon="113.61311996590182"><ele>1.0</ele><time>2026-04-17T00:18:39Z</time></trkpt><trkpt lat="-24.652067267499994" lon="113.61343037744511"><ele>0.0</ele><time>2026-04-17T00:18:40Z</time></trkpt><trkpt lat="-24.652086327761204" lon="113.61374770072388"><ele>0.0</ele><time>2026-04-17T00:18:41Z</time></trkpt><trkpt lat="-24.65210694782275" lon="113.61406918068873"><ele>0.0</ele><time>2026-04-17T00:18:42Z</time></trkpt><trkpt lat="-24.652127768790027" lon="113.61439028434833"><ele>0.5</ele><time>2026-04-17T00:18:43Z</time></trkpt><trkpt lat="-24.65214737624837" lon="113.6147102120472"><ele>1.0</ele><time>2026-04-17T00:18:44Z</time></trkpt><trkpt lat="-24.652166190791483" lon="113.6150337057873"><ele>1.0</ele><time>2026-04-17T00:18:45Z</time></trkpt><trkpt lat="-24.65218379470072" lon="113.61535809148039"><ele>1.0</ele><time>2026-04-17T00:18:46Z</time></trkpt><trkpt lat="-24.652201810471578" lon="113.61568071788366"><ele>1.0</ele><time>2026-04-17T00:18:47Z</time></trkpt><trkpt lat="-24.65222035246168" lon="113.61600624987734"><ele>1.0</ele><time>2026-04-17T00:18:48Z</time></trkpt><trkpt lat="-24.652240058104606" lon="113.61632977171377"><ele>2.0</ele><time>2026-04-17T00:18:49Z</time></trkpt><trkpt lat="-24.652262077440774" lon="113.61665537995265"><ele>3.0</ele><time>2026-04-17T00:18:50Z</time></trkpt><trkpt lat="-24.65229336057063" lon="113.61697792037734"><ele>2.5</ele><time>2026-04-17T00:18:51Z</time></trkpt><trkpt lat="-24.652338826373875" lon="113.61729444892075"><ele>2.0</ele><time>2026-04-17T00:18:52Z</time></trkpt><trkpt lat="-24.652397961545905" lon="113.61761346886804"><ele>1.5</ele><time>2026-04-17T00:18:53Z</time></trkpt><trkpt lat="-24.652463507411948" lon="113.6179351986445"><ele>1.0</ele><time>2026-04-17T00:18:54Z</time></trkpt><trkpt lat="-24.652535350940305" lon="113.61825795768956"><ele>1.0</ele><time>2026-04-17T00:18:55Z</time></trkpt><trkpt lat="-24.652612357277416" lon="113.61857780571648"><ele>1.0</ele><time>2026-04-17T00:18:56Z</time></trkpt><trkpt lat="-24.652696890613868" lon="113.61889418880087"><ele>0.5</ele><time>2026-04-17T00:18:57Z</time></trkpt><trkpt lat="-24.652788210728907" lon="113.61920896908865"><ele>0.0</ele><time>2026-04-17T00:18:58Z</time></trkpt><trkpt lat="-24.6528908677528" lon="113.6195199617932"><ele>1.5</ele><time>2026-04-17T00:18:59Z</time></trkpt><trkpt lat="-24.653001833779367" lon="113.6198250411024"><ele>3.0</ele><time>2026-04-17T00:19:00Z</time></trkpt><trkpt lat="-24.653121638722588" lon="113.62012821244377"><ele>3.0</ele><time>2026-04-17T00:19:01Z</time></trkpt><trkpt lat="-24.65324634410672" lon="113.62042987144113"><ele>3.0</ele><time>2026-04-17T00:19:02Z</time></trkpt><trkpt lat="-24.65337634874994" lon="113.62072597976368"><ele>3.0</ele><time>2026-04-17T00:19:03Z</time></trkpt><trkpt lat="-24.65351290974961" lon="113.62101626349664"><ele>3.0</ele><time>2026-04-17T00:19:04Z</time></trkpt><trkpt lat="-24.653656460840192" lon="113.62129910593146"><ele>2.5</ele><time>2026-04-17T00:19:05Z</time></trkpt><trkpt lat="-24.6538031255721" lon="113.62157753858024"><ele>2.0</ele><time>2026-04-17T00:19:06Z</time></trkpt><trkpt lat="-24.653963810746365" lon="113.62184625991566"><ele>2.5</ele><time>2026-04-17T00:19:07Z</time></trkpt><trkpt lat="-24.654130486759232" lon="113.62211369704832"><ele>3.0</ele><time>2026-04-17T00:19:08Z</time></trkpt><trkpt lat="-24.65430184235591" lon="113.62237386195353"><ele>2.5</ele><time>2026-04-17T00:19:09Z</time></trkpt><trkpt lat="-24.654479286985787" lon="113.62263191653618"><ele>2.0</ele><time>2026-04-17T00:19:10Z</time></trkpt><trkpt lat="-24.654660006676476" lon="113.62288464618483"><ele>1.5</ele><time>2026-04-17T00:19:11Z</time></trkpt><trkpt lat="-24.65484451895681" lon="113.62313137405143"><ele>1.0</ele><time>2026-04-17T00:19:12Z</time></trkpt><trkpt lat="-24.65502997345091" lon="113.62337619874643"><ele>1.0</ele><time>2026-04-17T00:19:13Z</time></trkpt><trkpt lat="-24.655214965289993" lon="113.62361816336717"><ele>1.0</ele><time>2026-04-17T00:19:14Z</time></trkpt><trkpt lat="-24.655401275646813" lon="113.62386090209056"><ele>2.0</ele><time>2026-04-17T00:19:15Z</time></trkpt><trkpt lat="-24.655588117505435" lon="113.62410535974504"><ele>3.0</ele><time>2026-04-17T00:19:16Z</time></trkpt><trkpt lat="-24.655772779608057" lon="113.62435008380963"><ele>2.5</ele><time>2026-04-17T00:19:17Z</time></trkpt><trkpt lat="-24.65595759458857" lon="113.62459839777671"><ele>2.0</ele><time>2026-04-17T00:19:18Z</time></trkpt><trkpt lat="-24.656142883010382" lon="113.62484828132975"><ele>2.0</ele><time>2026-04-17T00:19:19Z</time></trkpt><trkpt lat="-24.65632849203297" lon="113.62509560357555"><ele>2.0</ele><time>2026-04-17T00:19:20Z</time></trkpt><trkpt lat="-24.656515591567587" lon="113.62534283266115"><ele>2.0</ele><time>2026-04-17T00:19:21Z</time></trkpt><trkpt lat="-24.656702856193817" lon="113.62559200352317"><ele>2.0</ele><time>2026-04-17T00:19:22Z</time></trkpt><trkpt lat="-24.656890469989627" lon="113.62584163237413"><ele>2.0</ele><time>2026-04-17T00:19:23Z</time></trkpt><trkpt lat="-24.657078248114683" lon="113.62609248953662"><ele>2.0</ele><time>2026-04-17T00:19:24Z</time></trkpt><trkpt lat="-24.65726323624502" lon="113.62633983753706"><ele>2.0</ele><time>2026-04-17T00:19:25Z</time></trkpt><trkpt lat="-24.657447129457694" lon="113.62658655210242"><ele>2.0</ele><time>2026-04-17T00:19:26Z</time></trkpt><trkpt lat="-24.657629724775216" lon="113.62682507725582"><ele>2.5</ele><time>2026-04-17T00:19:27Z</time></trkpt><trkpt lat="-24.657809879797366" lon="113.62706321801275"><ele>3.0</ele><time>2026-04-17T00:19:28Z</time></trkpt><trkpt lat="-24.657992997867165" lon="113.62730494909214"><ele>3.0</ele><time>2026-04-17T00:19:29Z</time></trkpt><trkpt lat="-24.658176079259693" lon="113.62754644072396"><ele>3.0</ele><time>2026-04-17T00:19:30Z</time></trkpt><trkpt lat="-24.65835674552657" lon="113.6277874007778"><ele>3.5</ele><time>2026-04-17T00:19:31Z</time></trkpt><trkpt lat="-24.658533273389924" lon="113.62802301678872"><ele>4.0</ele><time>2026-04-17T00:19:32Z</time></trkpt><trkpt lat="-24.6587104218634" lon="113.62826015815708"><ele>4.0</ele><time>2026-04-17T00:19:33Z</time></trkpt><trkpt lat="-24.658888739548917" lon="113.62849715242311"><ele>4.0</ele><time>2026-04-17T00:19:34Z</time></trkpt><trkpt lat="-24.659069059060457" lon="113.62873683213846"><ele>3.5</ele><time>2026-04-17T00:19:35Z</time></trkpt><trkpt lat="-24.659250228601092" lon="113.62897808037445"><ele>3.0</ele><time>2026-04-17T00:19:36Z</time></trkpt><trkpt lat="-24.6594358296762" lon="113.62922511346616"><ele>3.0</ele><time>2026-04-17T00:19:37Z</time></trkpt><trkpt lat="-24.659622744137938" lon="113.62947524500433"><ele>3.0</ele><time>2026-04-17T00:19:38Z</time></trkpt><trkpt lat="-24.659814737781918" lon="113.62972887153035"><ele>3.0</ele><time>2026-04-17T00:19:39Z</time></trkpt><trkpt lat="-24.660002397042987" lon="113.6299770395574"><ele>3.0</ele><time>2026-04-17T00:19:40Z</time></trkpt><trkpt lat="-24.66018494590638" lon="113.63022512000431"><ele>2.5</ele><time>2026-04-17T00:19:41Z</time></trkpt><trkpt lat="-24.660367690946337" lon="113.6304704545013"><ele>2.0</ele><time>2026-04-17T00:19:42Z</time></trkpt><trkpt lat="-24.660556141274196" lon="113.63071838700527"><ele>2.0</ele><time>2026-04-17T00:19:43Z</time></trkpt><trkpt lat="-24.660741727749436" lon="113.63096360392025"><ele>2.0</ele><time>2026-04-17T00:19:44Z</time></trkpt><trkpt lat="-24.66092929936684" lon="113.6312112038764"><ele>2.0</ele><time>2026-04-17T00:19:45Z</time></trkpt><trkpt lat="-24.661118424071972" lon="113.63145990591605"><ele>2.0</ele><time>2026-04-17T00:19:46Z</time></trkpt><trkpt lat="-24.661306614956114" lon="113.6317082103397"><ele>2.0</ele><time>2026-04-17T00:19:47Z</time></trkpt><trkpt lat="-24.661494576519427" lon="113.63195799221288"><ele>2.0</ele><time>2026-04-17T00:19:48Z</time></trkpt><trkpt lat="-24.66168159707645" lon="113.63220541683127"><ele>2.0</ele><time>2026-04-17T00:19:49Z</time></trkpt><trkpt lat="-24.661865909298392" lon="113.63245006713272"><ele>2.0</ele><time>2026-04-17T00:19:50Z</time></trkpt><trkpt lat="-24.662048871928747" lon="113.63269649910231"><ele>2.5</ele><time>2026-04-17T00:19:51Z</time></trkpt><trkpt lat="-24.662224002312833" lon="113.63294236795498"><ele>3.0</ele><time>2026-04-17T00:19:52Z</time></trkpt><trkpt lat="-24.662391865527084" lon="113.63319513086972"><ele>3.0</ele><time>2026-04-17T00:19:53Z</time></trkpt><trkpt lat="-24.662551414597157" lon="113.63345190556382"><ele>3.0</ele><time>2026-04-17T00:19:54Z</time></trkpt><trkpt lat="-24.662706407188605" lon="113.633712597085"><ele>3.0</ele><time>2026-04-17T00:19:55Z</time></trkpt><trkpt lat="-24.66285701941607" lon="113.63397827012494"><ele>3.0</ele><time>2026-04-17T00:19:56Z</time></trkpt><trkpt lat="-24.663002646462836" lon="113.63424874175799"><ele>3.5</ele><time>2026-04-17T00:19:57Z</time></trkpt><trkpt lat="-24.663141254039726" lon="113.63452389963454"><ele>4.0</ele><time>2026-04-17T00:19:58Z</time></trkpt><trkpt lat="-24.663270530458686" lon="113.63480158896563"><ele>4.0</ele><time>2026-04-17T00:19:59Z</time></trkpt><trkpt lat="-24.663395348328567" lon="113.63507584270387"><ele>4.0</ele><time>2026-04-17T00:20:00Z</time></trkpt><trkpt lat="-24.663518841972227" lon="113.63534959784364"><ele>3.5</ele><time>2026-04-17T00:20:01Z</time></trkpt><trkpt lat="-24.66363731728198" lon="113.63562050254055"><ele>3.0</ele><time>2026-04-17T00:20:02Z</time></trkpt><trkpt lat="-24.663756128977692" lon="113.63588394400507"><ele>3.0</ele><time>2026-04-17T00:20:03Z</time></trkpt><trkpt lat="-24.663878828390413" lon="113.63614229413241"><ele>3.0</ele><time>2026-04-17T00:20:04Z</time></trkpt><trkpt lat="-24.664002255245627" lon="113.63639813031234"><ele>3.0</ele><time>2026-04-17T00:20:05Z</time></trkpt><trkpt lat="-24.664122018316387" lon="113.63665130102677"><ele>3.0</ele><time>2026-04-17T00:20:06Z</time></trkpt><trkpt lat="-24.66423965138014" lon="113.63690484190909"><ele>3.0</ele><time>2026-04-17T00:20:07Z</time></trkpt><trkpt lat="-24.66435623736386" lon="113.6371576032823"><ele>3.0</ele><time>2026-04-17T00:20:08Z</time></trkpt><trkpt lat="-24.664473696590758" lon="113.63740285678303"><ele>3.0</ele><time>2026-04-17T00:20:09Z</time></trkpt><trkpt lat="-24.664591885181487" lon="113.63765189829768"><ele>3.0</ele><time>2026-04-17T00:20:10Z</time></trkpt><trkpt lat="-24.664707907285337" lon="113.63790276982661"><ele>3.0</ele><time>2026-04-17T00:20:11Z</time></trkpt><trkpt lat="-24.66482534957229" lon="113.63815684237574"><ele>3.0</ele><time>2026-04-17T00:20:12Z</time></trkpt><trkpt lat="-24.66494159584279" lon="113.63841057840496"><ele>3.5</ele><time>2026-04-17T00:20:13Z</time></trkpt><trkpt lat="-24.66505598379136" lon="113.63866800566471"><ele>4.0</ele><time>2026-04-17T00:20:14Z</time></trkpt><trkpt lat="-24.665171330393893" lon="113.63892424297289"><ele>5.5</ele><time>2026-04-17T00:20:15Z</time></trkpt><trkpt lat="-24.6652891165271" lon="113.63918166653752"><ele>7.0</ele><time>2026-04-17T00:20:16Z</time></trkpt><trkpt lat="-24.6654091319877" lon="113.63944173799295"><ele>5.5</ele><time>2026-04-17T00:20:17Z</time></trkpt><trkpt lat="-24.66552641912214" lon="113.63969501575232"><ele>4.0</ele><time>2026-04-17T00:20:18Z</time></trkpt><trkpt lat="-24.665649072326648" lon="113.63995232518518"><ele>4.0</ele><time>2026-04-17T00:20:19Z</time></trkpt><trkpt lat="-24.66577375796707" lon="113.6402127937782"><ele>4.0</ele><time>2026-04-17T00:20:20Z</time></trkpt><trkpt lat="-24.665900962646358" lon="113.6404777886018"><ele>3.5</ele><time>2026-04-17T00:20:21Z</time></trkpt><trkpt lat="-24.66602864686205" lon="113.64075082101982"><ele>3.0</ele><time>2026-04-17T00:20:22Z</time></trkpt><trkpt lat="-24.666154619412648" lon="113.64102616380389"><ele>3.5</ele><time>2026-04-17T00:20:23Z</time></trkpt><trkpt lat="-24.666280408815986" lon="113.6413002813312"><ele>4.0</ele><time>2026-04-17T00:20:24Z</time></trkpt><trkpt lat="-24.666409175849452" lon="113.64157233508422"><ele>4.0</ele><time>2026-04-17T00:20:25Z</time></trkpt><trkpt lat="-24.666538554663852" lon="113.64183978654668"><ele>4.0</ele><time>2026-04-17T00:20:26Z</time></trkpt><trkpt lat="-24.666664381409095" lon="113.64210997550829"><ele>4.0</ele><time>2026-04-17T00:20:27Z</time></trkpt><trkpt lat="-24.66678859310382" lon="113.64237898431709"><ele>4.0</ele><time>2026-04-17T00:20:28Z</time></trkpt><trkpt lat="-24.66691129389557" lon="113.64264965455055"><ele>4.0</ele><time>2026-04-17T00:20:29Z</time></trkpt><trkpt lat="-24.667033901922284" lon="113.64292275708962"><ele>4.0</ele><time>2026-04-17T00:20:30Z</time></trkpt><trkpt lat="-24.66715682842461" lon="113.6431927990258"><ele>4.0</ele><time>2026-04-17T00:20:31Z</time></trkpt><trkpt lat="-24.667285188239646" lon="113.64346463809727"><ele>4.0</ele><time>2026-04-17T00:20:32Z</time></trkpt><trkpt lat="-24.66741418170814" lon="113.64373676146766"><ele>4.0</ele><time>2026-04-17T00:20:33Z</time></trkpt><trkpt lat="-24.667543303051648" lon="113.64400982954966"><ele>4.0</ele><time>2026-04-17T00:20:34Z</time></trkpt><trkpt lat="-24.66767187021322" lon="113.64428112406662"><ele>4.5</ele><time>2026-04-17T00:20:35Z</time></trkpt><trkpt lat="-24.66780005011836" lon="113.64455330201055"><ele>5.0</ele><time>2026-04-17T00:20:36Z</time></trkpt><trkpt lat="-24.667932915170688" lon="113.644819912514"><ele>5.0</ele><time>2026-04-17T00:20:37Z</time></trkpt><trkpt lat="-24.66807355838563" lon="113.64507545584429"><ele>5.0</ele><time>2026-04-17T00:20:38Z</time></trkpt><trkpt lat="-24.668219392386558" lon="113.64532827660915"><ele>5.5</ele><time>2026-04-17T00:20:39Z</time></trkpt><trkpt lat="-24.668368117081624" lon="113.64558005484567"><ele>6.0</ele><time>2026-04-17T00:20:40Z</time></trkpt><trkpt lat="-24.668519425151533" lon="113.64583540954793"><ele>6.0</ele><time>2026-04-17T00:20:41Z</time></trkpt><trkpt lat="-24.668674015644896" lon="113.64608639911903"><ele>6.0</ele><time>2026-04-17T00:20:42Z</time></trkpt><trkpt lat="-24.668831858463296" lon="113.64633515987363"><ele>6.0</ele><time>2026-04-17T00:20:43Z</time></trkpt><trkpt lat="-24.668993178001333" lon="113.64658089486407"><ele>6.0</ele><time>2026-04-17T00:20:44Z</time></trkpt><trkpt lat="-24.66915381516469" lon="113.64682589091109"><ele>6.0</ele><time>2026-04-17T00:20:45Z</time></trkpt><trkpt lat="-24.6693100890606" lon="113.64706989464956"><ele>6.0</ele><time>2026-04-17T00:20:46Z</time></trkpt><trkpt lat="-24.669468392987103" lon="113.64731784773069"><ele>6.0</ele><time>2026-04-17T00:20:47Z</time></trkpt><trkpt lat="-24.669627537775593" lon="113.6475633864173"><ele>6.0</ele><time>2026-04-17T00:20:48Z</time></trkpt><trkpt lat="-24.669785798687965" lon="113.6478083553231"><ele>5.0</ele><time>2026-04-17T00:20:49Z</time></trkpt><trkpt lat="-24.66994589381273" lon="113.6480558492689"><ele>4.0</ele><time>2026-04-17T00:20:50Z</time></trkpt><trkpt lat="-24.670104479166145" lon="113.64830246036894"><ele>4.0</ele><time>2026-04-17T00:20:51Z</time></trkpt><trkpt lat="-24.67026460141403" lon="113.64855068043684"><ele>4.0</ele><time>2026-04-17T00:20:52Z</time></trkpt><trkpt lat="-24.670425042895815" lon="113.64879743803203"><ele>5.0</ele><time>2026-04-17T00:20:53Z</time></trkpt><trkpt lat="-24.670583779680484" lon="113.6490428780416"><ele>6.0</ele><time>2026-04-17T00:20:54Z</time></trkpt><trkpt lat="-24.67074409674543" lon="113.64928989049483"><ele>6.0</ele><time>2026-04-17T00:20:55Z</time></trkpt><trkpt lat="-24.670905798662755" lon="113.64953913188093"><ele>6.0</ele><time>2026-04-17T00:20:56Z</time></trkpt><trkpt lat="-24.671066846455886" lon="113.64978893326226"><ele>6.0</ele><time>2026-04-17T00:20:57Z</time></trkpt><trkpt lat="-24.67122714416223" lon="113.65003947257657"><ele>6.0</ele><time>2026-04-17T00:20:58Z</time></trkpt><trkpt lat="-24.671386051305184" lon="113.65028701013885"><ele>6.0</ele><time>2026-04-17T00:20:59Z</time></trkpt><trkpt lat="-24.67154752520195" lon="113.65053543835484"><ele>6.0</ele><time>2026-04-17T00:21:00Z</time></trkpt><trkpt lat="-24.671708858405804" lon="113.65078295118599"><ele>6.0</ele><time>2026-04-17T00:21:01Z</time></trkpt><trkpt lat="-24.67186943575599" lon="113.65103459230235"><ele>6.0</ele><time>2026-04-17T00:21:02Z</time></trkpt><trkpt lat="-24.672029968998118" lon="113.65128574326012"><ele>5.5</ele><time>2026-04-17T00:21:03Z</time></trkpt><trkpt lat="-24.672190814759528" lon="113.65153677517381"><ele>5.0</ele><time>2026-04-17T00:21:04Z</time></trkpt><trkpt lat="-24.67235344364828" lon="113.6517892604802"><ele>5.5</ele><time>2026-04-17T00:21:05Z</time></trkpt><trkpt lat="-24.672515647509595" lon="113.65203837393044"><ele>6.0</ele><time>2026-04-17T00:21:06Z</time></trkpt><trkpt lat="-24.672675509773505" lon="113.65228360392388"><ele>6.5</ele><time>2026-04-17T00:21:07Z</time></trkpt><trkpt lat="-24.672833519545932" lon="113.65252988537954"><ele>7.0</ele><time>2026-04-17T00:21:08Z</time></trkpt><trkpt lat="-24.67298871578504" lon="113.65277620543165"><ele>7.0</ele><time>2026-04-17T00:21:09Z</time></trkpt><trkpt lat="-24.673145900318136" lon="113.653021783108"><ele>7.0</ele><time>2026-04-17T00:21:10Z</time></trkpt><trkpt lat="-24.67330598898951" lon="113.65327191326777"><ele>7.0</ele><time>2026-04-17T00:21:11Z</time></trkpt><trkpt lat="-24.673469921805268" lon="113.65352441686464"><ele>7.0</ele><time>2026-04-17T00:21:12Z</time></trkpt><trkpt lat="-24.673634192730198" lon="113.65377715204791"><ele>6.0</ele><time>2026-04-17T00:21:13Z</time></trkpt><trkpt lat="-24.673796843546704" lon="113.65402941795783"><ele>5.0</ele><time>2026-04-17T00:21:14Z</time></trkpt><trkpt lat="-24.673958636869372" lon="113.65428442565242"><ele>5.5</ele><time>2026-04-17T00:21:15Z</time></trkpt><trkpt lat="-24.674123679802282" lon="113.65454083062978"><ele>6.0</ele><time>2026-04-17T00:21:16Z</time></trkpt><trkpt lat="-24.674288511918505" lon="113.65479450034881"><ele>6.0</ele><time>2026-04-17T00:21:17Z</time></trkpt><trkpt lat="-24.67445207440518" lon="113.6550472185325"><ele>6.0</ele><time>2026-04-17T00:21:18Z</time></trkpt><trkpt lat="-24.674615943492828" lon="113.65529977241772"><ele>6.0</ele><time>2026-04-17T00:21:19Z</time></trkpt><trkpt lat="-24.674778287888746" lon="113.65555220567067"><ele>6.0</ele><time>2026-04-17T00:21:20Z</time></trkpt><trkpt lat="-24.67494085068258" lon="113.65580373406894"><ele>6.0</ele><time>2026-04-17T00:21:21Z</time></trkpt><trkpt lat="-24.675103768503746" lon="113.65605551056842"><ele>6.0</ele><time>2026-04-17T00:21:22Z</time></trkpt><trkpt lat="-24.675267514661623" lon="113.65630915821474"><ele>5.5</ele><time>2026-04-17T00:21:23Z</time></trkpt><trkpt lat="-24.67542981183783" lon="113.65656322118032"><ele>5.0</ele><time>2026-04-17T00:21:24Z</time></trkpt><trkpt lat="-24.675590404565604" lon="113.65681469243462"><ele>6.5</ele><time>2026-04-17T00:21:25Z</time></trkpt><trkpt lat="-24.67575309480744" lon="113.65706610750159"><ele>8.0</ele><time>2026-04-17T00:21:26Z</time></trkpt><trkpt lat="-24.675914778314187" lon="113.6573164258267"><ele>8.0</ele><time>2026-04-17T00:21:27Z</time></trkpt><trkpt lat="-24.67607820727261" lon="113.65756911157666"><ele>8.0</ele><time>2026-04-17T00:21:28Z</time></trkpt><trkpt lat="-24.67624223453144" lon="113.65782171958229"><ele>7.5</ele><time>2026-04-17T00:21:29Z</time></trkpt><trkpt lat="-24.67640536679828" lon="113.65807682786891"><ele>7.0</ele><time>2026-04-17T00:21:30Z</time></trkpt><trkpt lat="-24.67657014072438" lon="113.65833256062469"><ele>7.0</ele><time>2026-04-17T00:21:31Z</time></trkpt><trkpt lat="-24.67673609354633" lon="113.65858744825957"><ele>7.0</ele><time>2026-04-17T00:21:32Z</time></trkpt><trkpt lat="-24.67690276558182" lon="113.65884237519855"><ele>7.0</ele><time>2026-04-17T00:21:33Z</time></trkpt><trkpt lat="-24.677068006635395" lon="113.65909574454328"><ele>7.0</ele><time>2026-04-17T00:21:34Z</time></trkpt><trkpt lat="-24.677231060244814" lon="113.65935142400983"><ele>7.5</ele><time>2026-04-17T00:21:35Z</time></trkpt><trkpt lat="-24.677393400073214" lon="113.65960526745972"><ele>8.0</ele><time>2026-04-17T00:21:36Z</time></trkpt><trkpt lat="-24.67755625283327" lon="113.65985751168165"><ele>8.0</ele><time>2026-04-17T00:21:37Z</time></trkpt><trkpt lat="-24.67771659095837" lon="113.66010362146186"><ele>8.0</ele><time>2026-04-17T00:21:38Z</time></trkpt><trkpt lat="-24.677876243135454" lon="113.66035446048643"><ele>7.0</ele><time>2026-04-17T00:21:39Z</time></trkpt><trkpt lat="-24.678034407315568" lon="113.66060306343682"><ele>6.0</ele><time>2026-04-17T00:21:40Z</time></trkpt><trkpt lat="-24.67819583373012" lon="113.66085392439221"><ele>6.0</ele><time>2026-04-17T00:21:41Z</time></trkpt><trkpt lat="-24.67835850204624" lon="113.66110385393603"><ele>6.0</ele><time>2026-04-17T00:21:42Z</time></trkpt><trkpt lat="-24.678523038746135" lon="113.66135675836018"><ele>6.0</ele><time>2026-04-17T00:21:43Z</time></trkpt><trkpt lat="-24.67869059244748" lon="113.66161480875601"><ele>6.0</ele><time>2026-04-17T00:21:44Z</time></trkpt><trkpt lat="-24.678857792582694" lon="113.66187286903747"><ele>6.5</ele><time>2026-04-17T00:21:45Z</time></trkpt><trkpt lat="-24.67901613326921" lon="113.66212187114296"><ele>7.0</ele><time>2026-04-17T00:21:46Z</time></trkpt><trkpt lat="-24.679164985152457" lon="113.66235651762781"><ele>7.0</ele><time>2026-04-17T00:21:47Z</time></trkpt><trkpt lat="-24.67931134069801" lon="113.66258318349509"><ele>7.0</ele><time>2026-04-17T00:21:48Z</time></trkpt><trkpt lat="-24.67946273007864" lon="113.6628185578021"><ele>6.5</ele><time>2026-04-17T00:21:49Z</time></trkpt><trkpt lat="-24.679615104446743" lon="113.66305593494135"><ele>6.0</ele><time>2026-04-17T00:21:50Z</time></trkpt><trkpt lat="-24.67976698564228" lon="113.66330239709455"><ele>6.0</ele><time>2026-04-17T00:21:51Z</time></trkpt><trkpt lat="-24.67992131481993" lon="113.66355013991235"><ele>6.0</ele><time>2026-04-17T00:21:52Z</time></trkpt><trkpt lat="-24.680080172085937" lon="113.66379642754545"><ele>5.0</ele><time>2026-04-17T00:21:53Z</time></trkpt><trkpt lat="-24.680242535609082" lon="113.66404422678596"><ele>4.0</ele><time>2026-04-17T00:21:54Z</time></trkpt><trkpt lat="-24.680405715462495" lon="113.66429539184432"><ele>4.0</ele><time>2026-04-17T00:21:55Z</time></trkpt><trkpt lat="-24.68056651414408" lon="113.66454926511516"><ele>4.0</ele><time>2026-04-17T00:21:56Z</time></trkpt><trkpt lat="-24.68072956583169" lon="113.66480802603986"><ele>4.0</ele><time>2026-04-17T00:21:57Z</time></trkpt><trkpt lat="-24.680886982453295" lon="113.66506719710857"><ele>4.0</ele><time>2026-04-17T00:21:58Z</time></trkpt><trkpt lat="-24.681036883822998" lon="113.66533468535687"><ele>4.5</ele><time>2026-04-17T00:21:59Z</time></trkpt><trkpt lat="-24.681179870485877" lon="113.66560763027049"><ele>5.0</ele><time>2026-04-17T00:22:00Z</time></trkpt><trkpt lat="-24.681316079181126" lon="113.66588715909681"><ele>6.0</ele><time>2026-04-17T00:22:01Z</time></trkpt><trkpt lat="-24.681445782167106" lon="113.66616785204049"><ele>7.0</ele><time>2026-04-17T00:22:02Z</time></trkpt><trkpt lat="-24.6815723179646" lon="113.66645088790995"><ele>7.0</ele><time>2026-04-17T00:22:03Z</time></trkpt><trkpt lat="-24.681689535846996" lon="113.66673822199505"><ele>7.0</ele><time>2026-04-17T00:22:04Z</time></trkpt><trkpt lat="-24.681795603514452" lon="113.66703060093192"><ele>6.5</ele><time>2026-04-17T00:22:05Z</time></trkpt><trkpt lat="-24.681894895734406" lon="113.66732561087159"><ele>6.0</ele><time>2026-04-17T00:22:06Z</time></trkpt><trkpt lat="-24.681989990317597" lon="113.66761790828684"><ele>6.0</ele><time>2026-04-17T00:22:07Z</time></trkpt><trkpt lat="-24.682082227902484" lon="113.66790926324245"><ele>6.0</ele><time>2026-04-17T00:22:08Z</time></trkpt><trkpt lat="-24.68217613021775" lon="113.66819884862083"><ele>6.0</ele><time>2026-04-17T00:22:09Z</time></trkpt><trkpt lat="-24.682270480638056" lon="113.66848565788692"><ele>6.0</ele><time>2026-04-17T00:22:10Z</time></trkpt><trkpt lat="-24.682367848879018" lon="113.66877155861852"><ele>6.0</ele><time>2026-04-17T00:22:11Z</time></trkpt><trkpt lat="-24.68246604569758" lon="113.66905676086874"><ele>6.0</ele><time>2026-04-17T00:22:12Z</time></trkpt><trkpt lat="-24.68256380919438" lon="113.6693416529704"><ele>6.5</ele><time>2026-04-17T00:22:13Z</time></trkpt><trkpt lat="-24.682661927744455" lon="113.66962974687993"><ele>7.0</ele><time>2026-04-17T00:22:14Z</time></trkpt><trkpt lat="-24.68275860075782" lon="113.66991896882602"><ele>7.5</ele><time>2026-04-17T00:22:15Z</time></trkpt><trkpt lat="-24.68285790993639" lon="113.67021220216613"><ele>8.0</ele><time>2026-04-17T00:22:16Z</time></trkpt><trkpt lat="-24.682957536085627" lon="113.6705006228173"><ele>7.0</ele><time>2026-04-17T00:22:17Z</time></trkpt><trkpt lat="-24.683058985885534" lon="113.67079498893295"><ele>6.0</ele><time>2026-04-17T00:22:18Z</time></trkpt><trkpt lat="-24.68316089049666" lon="113.67108565921865"><ele>6.5</ele><time>2026-04-17T00:22:19Z</time></trkpt><trkpt lat="-24.683262267709615" lon="113.67138045342988"><ele>7.0</ele><time>2026-04-17T00:22:20Z</time></trkpt><trkpt lat="-24.683362878766587" lon="113.67167659795555"><ele>6.5</ele><time>2026-04-17T00:22:21Z</time></trkpt><trkpt lat="-24.683462036753326" lon="113.67196797134014"><ele>6.0</ele><time>2026-04-17T00:22:22Z</time></trkpt><trkpt lat="-24.68356208190598" lon="113.6722621501334"><ele>6.5</ele><time>2026-04-17T00:22:23Z</time></trkpt><trkpt lat="-24.68365981904173" lon="113.67255412869082"><ele>7.0</ele><time>2026-04-17T00:22:24Z</time></trkpt><trkpt lat="-24.68375880538262" lon="113.67284654555706"><ele>7.0</ele><time>2026-04-17T00:22:25Z</time></trkpt><trkpt lat="-24.683857227894638" lon="113.67314119520096"><ele>7.0</ele><time>2026-04-17T00:22:26Z</time></trkpt><trkpt lat="-24.683956578317844" lon="113.6734341503596"><ele>8.0</ele><time>2026-04-17T00:22:27Z</time></trkpt><trkpt lat="-24.68405726883335" lon="113.67372965188424"><ele>9.0</ele><time>2026-04-17T00:22:28Z</time></trkpt><trkpt lat="-24.684158194271703" lon="113.67402491245986"><ele>9.0</ele><time>2026-04-17T00:22:29Z</time></trkpt><trkpt lat="-24.684260533505263" lon="113.67432086776006"><ele>9.0</ele><time>2026-04-17T00:22:30Z</time></trkpt><trkpt lat="-24.684362385455447" lon="113.67461581082426"><ele>9.5</ele><time>2026-04-17T00:22:31Z</time></trkpt><trkpt lat="-24.684463347214955" lon="113.67491253239979"><ele>10.0</ele><time>2026-04-17T00:22:32Z</time></trkpt><trkpt lat="-24.684565126385557" lon="113.67521212661616"><ele>10.0</ele><time>2026-04-17T00:22:33Z</time></trkpt><trkpt lat="-24.68466685829141" lon="113.6755088196776"><ele>10.0</ele><time>2026-04-17T00:22:34Z</time></trkpt><trkpt lat="-24.684770261495057" lon="113.67580660381388"><ele>8.5</ele><time>2026-04-17T00:22:35Z</time></trkpt><trkpt lat="-24.68487433235972" lon="113.67610536892849"><ele>7.0</ele><time>2026-04-17T00:22:36Z</time></trkpt><trkpt lat="-24.684977772682565" lon="113.67640754073986"><ele>7.0</ele><time>2026-04-17T00:22:37Z</time></trkpt><trkpt lat="-24.685078879799175" lon="113.67670634990084"><ele>7.0</ele><time>2026-04-17T00:22:38Z</time></trkpt><trkpt lat="-24.685181016213384" lon="113.67700817394292"><ele>7.0</ele><time>2026-04-17T00:22:39Z</time></trkpt><trkpt lat="-24.68528447924534" lon="113.67731238677882"><ele>7.0</ele><time>2026-04-17T00:22:40Z</time></trkpt><trkpt lat="-24.6853859431209" lon="113.67761388895346"><ele>7.0</ele><time>2026-04-17T00:22:41Z</time></trkpt><trkpt lat="-24.685488759312484" lon="113.67791935816778"><ele>7.0</ele><time>2026-04-17T00:22:42Z</time></trkpt><trkpt lat="-24.68558968669476" lon="113.67821916002266"><ele>7.0</ele><time>2026-04-17T00:22:43Z</time></trkpt><trkpt lat="-24.68569227154055" lon="113.67852366575278"><ele>7.0</ele><time>2026-04-17T00:22:44Z</time></trkpt><trkpt lat="-24.685794709351203" lon="113.6788238624908"><ele>6.5</ele><time>2026-04-17T00:22:45Z</time></trkpt><trkpt lat="-24.685899083738427" lon="113.67912740097503"><ele>6.0</ele><time>2026-04-17T00:22:46Z</time></trkpt><trkpt lat="-24.686002159550036" lon="113.67943193720743"><ele>6.0</ele><time>2026-04-17T00:22:47Z</time></trkpt><trkpt lat="-24.68610847277081" lon="113.67973677964642"><ele>6.0</ele><time>2026-04-17T00:22:48Z</time></trkpt><trkpt lat="-24.686215014206677" lon="113.6800384716998"><ele>5.5</ele><time>2026-04-17T00:22:49Z</time></trkpt><trkpt lat="-24.686322214781217" lon="113.68034244715139"><ele>5.0</ele><time>2026-04-17T00:22:50Z</time></trkpt><trkpt lat="-24.686425666786906" lon="113.68064715529363"><ele>5.0</ele><time>2026-04-17T00:22:51Z</time></trkpt><trkpt lat="-24.68652875293448" lon="113.68095197260826"><ele>5.0</ele><time>2026-04-17T00:22:52Z</time></trkpt><trkpt lat="-24.68663079113281" lon="113.68125710608304"><ele>5.5</ele><time>2026-04-17T00:22:53Z</time></trkpt><trkpt lat="-24.686732741578016" lon="113.68156162674755"><ele>6.0</ele><time>2026-04-17T00:22:54Z</time></trkpt><trkpt lat="-24.686835987047527" lon="113.68186812948117"><ele>6.0</ele><time>2026-04-17T00:22:55Z</time></trkpt><trkpt lat="-24.686938947871127" lon="113.68217494962133"><ele>6.0</ele><time>2026-04-17T00:22:56Z</time></trkpt><trkpt lat="-24.68704278024307" lon="113.68248058765508"><ele>6.0</ele><time>2026-04-17T00:22:57Z</time></trkpt><trkpt lat="-24.687145990638797" lon="113.68278206492091"><ele>6.0</ele><time>2026-04-17T00:22:58Z</time></trkpt><trkpt lat="-24.687250488829577" lon="113.68308589001663"><ele>6.0</ele><time>2026-04-17T00:22:59Z</time></trkpt><trkpt lat="-24.687354530969625" lon="113.68338666300207"><ele>6.0</ele><time>2026-04-17T00:23:00Z</time></trkpt><trkpt lat="-24.687456280605822" lon="113.68368692524892"><ele>7.5</ele><time>2026-04-17T00:23:01Z</time></trkpt><trkpt lat="-24.68755597850334" lon="113.68398694399401"><ele>9.0</ele><time>2026-04-17T00:23:02Z</time></trkpt><trkpt lat="-24.687656383119748" lon="113.68428516125718"><ele>8.5</ele><time>2026-04-17T00:23:03Z</time></trkpt><trkpt lat="-24.68775843073729" lon="113.68458389534878"><ele>8.0</ele><time>2026-04-17T00:23:04Z</time></trkpt><trkpt lat="-24.68785969610543" lon="113.68488059554338"><ele>8.0</ele><time>2026-04-17T00:23:05Z</time></trkpt><trkpt lat="-24.68795993102642" lon="113.685176723932"><ele>8.0</ele><time>2026-04-17T00:23:06Z</time></trkpt><trkpt lat="-24.688060899150365" lon="113.68547244122593"><ele>7.5</ele><time>2026-04-17T00:23:07Z</time></trkpt><trkpt lat="-24.688163561472667" lon="113.68577244991764"><ele>7.0</ele><time>2026-04-17T00:23:08Z</time></trkpt><trkpt lat="-24.688267625118694" lon="113.68607393009734"><ele>6.5</ele><time>2026-04-17T00:23:09Z</time></trkpt><trkpt lat="-24.68837218057854" lon="113.6863774177356"><ele>6.0</ele><time>2026-04-17T00:23:10Z</time></trkpt><trkpt lat="-24.688477510163665" lon="113.68668250374708"><ele>6.0</ele><time>2026-04-17T00:23:11Z</time></trkpt><trkpt lat="-24.68858504134178" lon="113.68699278089989"><ele>6.0</ele><time>2026-04-17T00:23:12Z</time></trkpt><trkpt lat="-24.688692667760495" lon="113.68730324630553"><ele>5.5</ele><time>2026-04-17T00:23:13Z</time></trkpt><trkpt lat="-24.688795662375934" lon="113.68760972160388"><ele>5.0</ele><time>2026-04-17T00:23:14Z</time></trkpt><trkpt lat="-24.68889776876743" lon="113.68791900972369"><ele>5.0</ele><time>2026-04-17T00:23:15Z</time></trkpt><trkpt lat="-24.688997709382267" lon="113.68822448512572"><ele>5.0</ele><time>2026-04-17T00:23:16Z</time></trkpt><trkpt lat="-24.689099783543657" lon="113.68852971426945"><ele>5.0</ele><time>2026-04-17T00:23:17Z</time></trkpt><trkpt lat="-24.68920429212396" lon="113.6888320592372"><ele>5.0</ele><time>2026-04-17T00:23:18Z</time></trkpt><trkpt lat="-24.689307258295106" lon="113.68913218753407"><ele>5.5</ele><time>2026-04-17T00:23:19Z</time></trkpt><trkpt lat="-24.689409986271627" lon="113.68943389737001"><ele>6.0</ele><time>2026-04-17T00:23:20Z</time></trkpt><trkpt lat="-24.6895100967159" lon="113.68973292060981"><ele>6.0</ele><time>2026-04-17T00:23:21Z</time></trkpt><trkpt lat="-24.68961178439059" lon="113.69003341938256"><ele>6.0</ele><time>2026-04-17T00:23:22Z</time></trkpt><trkpt lat="-24.689715340942342" lon="113.6903347486544"><ele>7.5</ele><time>2026-04-17T00:23:23Z</time></trkpt><trkpt lat="-24.689818495814237" lon="113.69063635532198"><ele>9.0</ele><time>2026-04-17T00:23:24Z</time></trkpt><trkpt lat="-24.689920872264825" lon="113.69093604299695"><ele>9.0</ele><time>2026-04-17T00:23:25Z</time></trkpt><trkpt lat="-24.690026102425634" lon="113.69124059773954"><ele>9.0</ele><time>2026-04-17T00:23:26Z</time></trkpt><trkpt lat="-24.69013193936797" lon="113.69154727024582"><ele>9.0</ele><time>2026-04-17T00:23:26.999Z</time></trkpt><trkpt lat="-24.690237723376406" lon="113.69185398783695"><ele>9.0</ele><time>2026-04-17T00:23:27.999Z</time></trkpt><trkpt lat="-24.690340411249387" lon="113.69215891607384"><ele>8.0</ele><time>2026-04-17T00:23:28.999Z</time></trkpt><trkpt lat="-24.690444542641526" lon="113.69246525285129"><ele>7.0</ele><time>2026-04-17T00:23:29.999Z</time></trkpt><trkpt lat="-24.69054935938302" lon="113.69277046108289"><ele>7.0</ele><time>2026-04-17T00:23:30.999Z</time></trkpt><trkpt lat="-24.69065278468754" lon="113.69307911961829"><ele>7.0</ele><time>2026-04-17T00:23:31.999Z</time></trkpt><trkpt lat="-24.690757050317792" lon="113.69338836208252"><ele>6.0</ele><time>2026-04-17T00:23:32.999Z</time></trkpt><trkpt lat="-24.690860913400922" lon="113.6936963411502"><ele>5.0</ele><time>2026-04-17T00:23:33.999Z</time></trkpt><trkpt lat="-24.690967701636904" lon="113.69400507282809"><ele>5.0</ele><time>2026-04-17T00:23:34.999Z</time></trkpt><trkpt lat="-24.691072725175427" lon="113.69431114195363"><ele>5.0</ele><time>2026-04-17T00:23:35.999Z</time></trkpt><trkpt lat="-24.691176248655477" lon="113.69461968688503"><ele>6.5</ele><time>2026-04-17T00:23:36.999Z</time></trkpt><trkpt lat="-24.69127974417139" lon="113.69492416741089"><ele>8.0</ele><time>2026-04-17T00:23:37.999Z</time></trkpt><trkpt lat="-24.69138378689" lon="113.69523104785961"><ele>9.0</ele><time>2026-04-17T00:23:38.999Z</time></trkpt><trkpt lat="-24.691486801192845" lon="113.69553719331155"><ele>10.0</ele><time>2026-04-17T00:23:39.999Z</time></trkpt><trkpt lat="-24.691590139667397" lon="113.69584116268686"><ele>8.5</ele><time>2026-04-17T00:23:40.999Z</time></trkpt><trkpt lat="-24.691693480419534" lon="113.69614067207273"><ele>7.0</ele><time>2026-04-17T00:23:41.999Z</time></trkpt><trkpt lat="-24.69179942877645" lon="113.69644114570723"><ele>7.0</ele><time>2026-04-17T00:23:42.999Z</time></trkpt><trkpt lat="-24.69190254333729" lon="113.69673989661264"><ele>7.0</ele><time>2026-04-17T00:23:43.999Z</time></trkpt><trkpt lat="-24.692009714382543" lon="113.69703759663611"><ele>6.5</ele><time>2026-04-17T00:23:44.999Z</time></trkpt><trkpt lat="-24.692123978322424" lon="113.69733295913045"><ele>6.0</ele><time>2026-04-17T00:23:45.999Z</time></trkpt><trkpt lat="-24.692249708260945" lon="113.6976239260798"><ele>6.5</ele><time>2026-04-17T00:23:46.999Z</time></trkpt><trkpt lat="-24.692382871314837" lon="113.69791611734763"><ele>7.0</ele><time>2026-04-17T00:23:47.999Z</time></trkpt><trkpt lat="-24.692521430020086" lon="113.69820382033868"><ele>7.0</ele><time>2026-04-17T00:23:48.999Z</time></trkpt><trkpt lat="-24.692667959669613" lon="113.69848590066518"><ele>7.0</ele><time>2026-04-17T00:23:49.999Z</time></trkpt><trkpt lat="-24.69282290184263" lon="113.6987619822249"><ele>7.0</ele><time>2026-04-17T00:23:50.999Z</time></trkpt><trkpt lat="-24.69298514465165" lon="113.69903255607674"><ele>7.0</ele><time>2026-04-17T00:23:51.999Z</time></trkpt><trkpt lat="-24.693157731504968" lon="113.69930039868414"><ele>7.5</ele><time>2026-04-17T00:23:52.999Z</time></trkpt><trkpt lat="-24.693335446295727" lon="113.69956503084777"><ele>8.0</ele><time>2026-04-17T00:23:53.999Z</time></trkpt><trkpt lat="-24.693519594389976" lon="113.6998232108123"><ele>8.0</ele><time>2026-04-17T00:23:54.999Z</time></trkpt><trkpt lat="-24.693710623490613" lon="113.70007947754033"><ele>8.0</ele><time>2026-04-17T00:23:55.999Z</time></trkpt><trkpt lat="-24.6939046701631" lon="113.70032895645365"><ele>8.0</ele><time>2026-04-17T00:23:56.999Z</time></trkpt><trkpt lat="-24.694102610560765" lon="113.70057856480472"><ele>8.0</ele><time>2026-04-17T00:23:57.999Z</time></trkpt><trkpt lat="-24.694300203320555" lon="113.70083105875325"><ele>7.5</ele><time>2026-04-17T00:23:58.999Z</time></trkpt><trkpt lat="-24.69449700989837" lon="113.70108363506831"><ele>7.0</ele><time>2026-04-17T00:24:00Z</time></trkpt><trkpt lat="-24.69469259256164" lon="113.70133651405787"><ele>7.0</ele><time>2026-04-17T00:24:01Z</time></trkpt><trkpt lat="-24.694883326612107" lon="113.70158790579214"><ele>7.0</ele><time>2026-04-17T00:24:02Z</time></trkpt><trkpt lat="-24.695073454929375" lon="113.70183881791631"><ele>7.5</ele><time>2026-04-17T00:24:03Z</time></trkpt><trkpt lat="-24.695263180129135" lon="113.70208850932968"><ele>8.0</ele><time>2026-04-17T00:24:04Z</time></trkpt><trkpt lat="-24.6954525063222" lon="113.70233880145793"><ele>8.0</ele><time>2026-04-17T00:24:05Z</time></trkpt><trkpt lat="-24.695641917771702" lon="113.70259053811047"><ele>8.0</ele><time>2026-04-17T00:24:06Z</time></trkpt><trkpt lat="-24.69583044461034" lon="113.7028399850344"><ele>7.0</ele><time>2026-04-17T00:24:07Z</time></trkpt><trkpt lat="-24.696023579322315" lon="113.70308830107928"><ele>6.0</ele><time>2026-04-17T00:24:08Z</time></trkpt><trkpt lat="-24.696217319154524" lon="113.70333871331503"><ele>6.5</ele><time>2026-04-17T00:24:09Z</time></trkpt><trkpt lat="-24.696408667573643" lon="113.7035877144741"><ele>7.0</ele><time>2026-04-17T00:24:10Z</time></trkpt><trkpt lat="-24.69659840036497" lon="113.70383471611395"><ele>7.0</ele><time>2026-04-17T00:24:11Z</time></trkpt><trkpt lat="-24.696787522176905" lon="113.70408361469008"><ele>7.0</ele><time>2026-04-17T00:24:12Z</time></trkpt><trkpt lat="-24.69697681414374" lon="113.70433259465862"><ele>7.0</ele><time>2026-04-17T00:24:13Z</time></trkpt><trkpt lat="-24.697166126626843" lon="113.70458016092256"><ele>7.0</ele><time>2026-04-17T00:24:14Z</time></trkpt><trkpt lat="-24.697352782695134" lon="113.70482474031225"><ele>7.0</ele><time>2026-04-17T00:24:15Z</time></trkpt><trkpt lat="-24.697541549049948" lon="113.70507165819748"><ele>7.0</ele><time>2026-04-17T00:24:16Z</time></trkpt><trkpt lat="-24.697731451078933" lon="113.70531749716864"><ele>7.0</ele><time>2026-04-17T00:24:17Z</time></trkpt><trkpt lat="-24.697919565693244" lon="113.70556542875028"><ele>7.0</ele><time>2026-04-17T00:24:18Z</time></trkpt><trkpt lat="-24.698107777777814" lon="113.70581366180953"><ele>7.0</ele><time>2026-04-17T00:24:19Z</time></trkpt><trkpt lat="-24.698296689732906" lon="113.7060647051948"><ele>7.0</ele><time>2026-04-17T00:24:20Z</time></trkpt><trkpt lat="-24.698487101489285" lon="113.70631613121067"><ele>7.0</ele><time>2026-04-17T00:24:21Z</time></trkpt><trkpt lat="-24.698680350889095" lon="113.7065641840988"><ele>7.0</ele><time>2026-04-17T00:24:22Z</time></trkpt><trkpt lat="-24.698871514326456" lon="113.7068088875016"><ele>7.5</ele><time>2026-04-17T00:24:23Z</time></trkpt><trkpt lat="-24.699060519796223" lon="113.70705479130858"><ele>8.0</ele><time>2026-04-17T00:24:24Z</time></trkpt><trkpt lat="-24.699247511051976" lon="113.70730215214873"><ele>8.5</ele><time>2026-04-17T00:24:25Z</time></trkpt><trkpt lat="-24.699433136534058" lon="113.7075475528712"><ele>9.0</ele><time>2026-04-17T00:24:26Z</time></trkpt><trkpt lat="-24.69961612491284" lon="113.70778938817493"><ele>9.0</ele><time>2026-04-17T00:24:27Z</time></trkpt><trkpt lat="-24.699799666580034" lon="113.70802790389874"><ele>9.0</ele><time>2026-04-17T00:24:28Z</time></trkpt><trkpt lat="-24.699982816401565" lon="113.70826757925623"><ele>9.0</ele><time>2026-04-17T00:24:29Z</time></trkpt><trkpt lat="-24.700169416297456" lon="113.70850564460842"><ele>9.0</ele><time>2026-04-17T00:24:30Z</time></trkpt><trkpt lat="-24.700361005728272" lon="113.70874283225832"><ele>10.0</ele><time>2026-04-17T00:24:31Z</time></trkpt><trkpt lat="-24.700558710116155" lon="113.70897567596725"><ele>11.0</ele><time>2026-04-17T00:24:32Z</time></trkpt><trkpt lat="-24.700762293818247" lon="113.7092034053888"><ele>11.0</ele><time>2026-04-17T00:24:33Z</time></trkpt><trkpt lat="-24.70097513630206" lon="113.70942555620799"><ele>11.0</ele><time>2026-04-17T00:24:34Z</time></trkpt><trkpt lat="-24.701197029820065" lon="113.70964597813976"><ele>11.0</ele><time>2026-04-17T00:24:35Z</time></trkpt><trkpt lat="-24.701424374211104" lon="113.70985815900782"><ele>11.0</ele><time>2026-04-17T00:24:36Z</time></trkpt><trkpt lat="-24.70165496444074" lon="113.71006688263789"><ele>11.0</ele><time>2026-04-17T00:24:37Z</time></trkpt><trkpt lat="-24.701886306497336" lon="113.71026612924828"><ele>11.0</ele><time>2026-04-17T00:24:38Z</time></trkpt><trkpt lat="-24.702122120282706" lon="113.71045819103523"><ele>11.0</ele><time>2026-04-17T00:24:39Z</time></trkpt><trkpt lat="-24.70236168153372" lon="113.71064088597976"><ele>11.0</ele><time>2026-04-17T00:24:40Z</time></trkpt><trkpt lat="-24.702606421563317" lon="113.71081142012301"><ele>10.5</ele><time>2026-04-17T00:24:41Z</time></trkpt><trkpt lat="-24.702856254539306" lon="113.71097463678132"><ele>10.0</ele><time>2026-04-17T00:24:42Z</time></trkpt><trkpt lat="-24.703113281678334" lon="113.71113108645875"><ele>10.0</ele><time>2026-04-17T00:24:43Z</time></trkpt><trkpt lat="-24.70337224560534" lon="113.7112809966459"><ele>10.0</ele><time>2026-04-17T00:24:44Z</time></trkpt><trkpt lat="-24.703633446498376" lon="113.71142892178216"><ele>9.5</ele><time>2026-04-17T00:24:45Z</time></trkpt><trkpt lat="-24.70389743780014" lon="113.71156831099732"><ele>9.0</ele><time>2026-04-17T00:24:46Z</time></trkpt><trkpt lat="-24.704165409250813" lon="113.71170199539749"><ele>9.5</ele><time>2026-04-17T00:24:47Z</time></trkpt><trkpt lat="-24.704434935528994" lon="113.71182691179021"><ele>10.0</ele><time>2026-04-17T00:24:48Z</time></trkpt><trkpt lat="-24.70471093824192" lon="113.71193988016938"><ele>10.5</ele><time>2026-04-17T00:24:49Z</time></trkpt><trkpt lat="-24.704991223454442" lon="113.71204283842214"><ele>11.0</ele><time>2026-04-17T00:24:50Z</time></trkpt><trkpt lat="-24.70527210653339" lon="113.7121376259193"><ele>9.5</ele><time>2026-04-17T00:24:51Z</time></trkpt><trkpt lat="-24.705555047255217" lon="113.71222806587437"><ele>8.0</ele><time>2026-04-17T00:24:52Z</time></trkpt><trkpt lat="-24.705835011187446" lon="113.71231498404603"><ele>8.0</ele><time>2026-04-17T00:24:53Z</time></trkpt><trkpt lat="-24.706114558601072" lon="113.71239781519908"><ele>8.0</ele><time>2026-04-17T00:24:54Z</time></trkpt><trkpt lat="-24.70639512281557" lon="113.71248265048341"><ele>8.0</ele><time>2026-04-17T00:24:55Z</time></trkpt><trkpt lat="-24.70667239073593" lon="113.71257151488261"><ele>8.0</ele><time>2026-04-17T00:24:56Z</time></trkpt><trkpt lat="-24.7069502242612" lon="113.71266172580252"><ele>8.5</ele><time>2026-04-17T00:24:57Z</time></trkpt><trkpt lat="-24.7072232431424" lon="113.71274945548696"><ele>9.0</ele><time>2026-04-17T00:24:58Z</time></trkpt><trkpt lat="-24.70749730033269" lon="113.71283746097644"><ele>9.5</ele><time>2026-04-17T00:24:59Z</time></trkpt><trkpt lat="-24.707771572317526" lon="113.71292630825855"><ele>10.0</ele><time>2026-04-17T00:25:00Z</time></trkpt><trkpt lat="-24.708043762787415" lon="113.71301278707891"><ele>10.0</ele><time>2026-04-17T00:25:01Z</time></trkpt><trkpt lat="-24.708314475177385" lon="113.71309526467358"><ele>10.0</ele><time>2026-04-17T00:25:02Z</time></trkpt><trkpt lat="-24.70858594997052" lon="113.71317703698456"><ele>8.5</ele><time>2026-04-17T00:25:03Z</time></trkpt><trkpt lat="-24.708859726908567" lon="113.71326048707773"><ele>7.0</ele><time>2026-04-17T00:25:04Z</time></trkpt><trkpt lat="-24.709134847586874" lon="113.71334690267315"><ele>8.0</ele><time>2026-04-17T00:25:05Z</time></trkpt><trkpt lat="-24.709409670070205" lon="113.71343571248569"><ele>9.0</ele><time>2026-04-17T00:25:06Z</time></trkpt><trkpt lat="-24.70968475622488" lon="113.71352233258821"><ele>9.0</ele><time>2026-04-17T00:25:07Z</time></trkpt><trkpt lat="-24.709960671776596" lon="113.71360952278084"><ele>9.0</ele><time>2026-04-17T00:25:08Z</time></trkpt><trkpt lat="-24.710235432120626" lon="113.7136966106088"><ele>9.0</ele><time>2026-04-17T00:25:09Z</time></trkpt><trkpt lat="-24.71050821331574" lon="113.71378446225604"><ele>9.0</ele><time>2026-04-17T00:25:10Z</time></trkpt><trkpt lat="-24.710781399957686" lon="113.71387221733282"><ele>9.0</ele><time>2026-04-17T00:25:11Z</time></trkpt><trkpt lat="-24.711054056263666" lon="113.71395892164261"><ele>9.0</ele><time>2026-04-17T00:25:12Z</time></trkpt><trkpt lat="-24.71132473613519" lon="113.71404420679812"><ele>9.5</ele><time>2026-04-17T00:25:13Z</time></trkpt><trkpt lat="-24.711593354648105" lon="113.71412739374452"><ele>10.0</ele><time>2026-04-17T00:25:14Z</time></trkpt><trkpt lat="-24.711862221315656" lon="113.71421121043554"><ele>10.0</ele><time>2026-04-17T00:25:15Z</time></trkpt><trkpt lat="-24.712131065479003" lon="113.71429429819257"><ele>10.0</ele><time>2026-04-17T00:25:16Z</time></trkpt><trkpt lat="-24.71239874573905" lon="113.71437829973635"><ele>10.0</ele><time>2026-04-17T00:25:17Z</time></trkpt><trkpt lat="-24.712669262577396" lon="113.7144669455353"><ele>10.0</ele><time>2026-04-17T00:25:18Z</time></trkpt><trkpt lat="-24.712938486117338" lon="113.71455442548273"><ele>8.5</ele><time>2026-04-17T00:25:19Z</time></trkpt><trkpt lat="-24.713211156046093" lon="113.71464115169356"><ele>7.0</ele><time>2026-04-17T00:25:20Z</time></trkpt><trkpt lat="-24.71348227041756" lon="113.71472553949931"><ele>7.5</ele><time>2026-04-17T00:25:21Z</time></trkpt><trkpt lat="-24.71375203209008" lon="113.71480993868008"><ele>8.0</ele><time>2026-04-17T00:25:22Z</time></trkpt><trkpt lat="-24.71402308004007" lon="113.71489303767694"><ele>8.0</ele><time>2026-04-17T00:25:23Z</time></trkpt><trkpt lat="-24.714290841386664" lon="113.71497687333266"><ele>8.0</ele><time>2026-04-17T00:25:24Z</time></trkpt><trkpt lat="-24.714558606972272" lon="113.71506211512384"><ele>9.5</ele><time>2026-04-17T00:25:25Z</time></trkpt><trkpt lat="-24.714827472488942" lon="113.71514978054904"><ele>11.0</ele><time>2026-04-17T00:25:26Z</time></trkpt><trkpt lat="-24.715092549070704" lon="113.71523535749505"><ele>10.5</ele><time>2026-04-17T00:25:27Z</time></trkpt><trkpt lat="-24.715362877311502" lon="113.71532044978973"><ele>10.0</ele><time>2026-04-17T00:25:28Z</time></trkpt><trkpt lat="-24.715635542042342" lon="113.71540312527435"><ele>10.0</ele><time>2026-04-17T00:25:28.999Z</time></trkpt><trkpt lat="-24.71590608324156" lon="113.71548811976038"><ele>10.0</ele><time>2026-04-17T00:25:29.999Z</time></trkpt><trkpt lat="-24.716174279275126" lon="113.71557314136814"><ele>9.0</ele><time>2026-04-17T00:25:30.999Z</time></trkpt><trkpt lat="-24.716711944800302" lon="113.71573989467791"><ele>9.5</ele><time>2026-04-17T00:25:32.999Z</time></trkpt><trkpt lat="-24.716982752926874" lon="113.71582565020621"><ele>10.0</ele><time>2026-04-17T00:25:33.999Z</time></trkpt><trkpt lat="-24.717250001057728" lon="113.71591339241058"><ele>10.0</ele><time>2026-04-17T00:25:34.999Z</time></trkpt><trkpt lat="-24.717516101931007" lon="113.71600092894619"><ele>10.0</ele><time>2026-04-17T00:25:35.999Z</time></trkpt><trkpt lat="-24.717781759907965" lon="113.71608534180001"><ele>12.0</ele><time>2026-04-17T00:25:36.999Z</time></trkpt><trkpt lat="-24.71804745275768" lon="113.71616685922193"><ele>14.0</ele><time>2026-04-17T00:25:37.999Z</time></trkpt><trkpt lat="-24.718307328673543" lon="113.71624616625371"><ele>13.5</ele><time>2026-04-17T00:25:38.999Z</time></trkpt><trkpt lat="-24.718569027943758" lon="113.71632699653765"><ele>13.0</ele><time>2026-04-17T00:25:39.999Z</time></trkpt><trkpt lat="-24.718830230498558" lon="113.71641141717114"><ele>13.0</ele><time>2026-04-17T00:25:40.999Z</time></trkpt><trkpt lat="-24.71909156088902" lon="113.71649559803939"><ele>13.0</ele><time>2026-04-17T00:25:41.999Z</time></trkpt><trkpt lat="-24.719357760936067" lon="113.71657901617239"><ele>12.5</ele><time>2026-04-17T00:25:42.999Z</time></trkpt><trkpt lat="-24.719624122624545" lon="113.71666088919112"><ele>12.0</ele><time>2026-04-17T00:25:43.999Z</time></trkpt><trkpt lat="-24.719892708100524" lon="113.71674395467186"><ele>12.0</ele><time>2026-04-17T00:25:44.999Z</time></trkpt><trkpt lat="-24.720161315138775" lon="113.7168280060291"><ele>12.0</ele><time>2026-04-17T00:25:45.999Z</time></trkpt><trkpt lat="-24.720429976920087" lon="113.71691394194794"><ele>10.5</ele><time>2026-04-17T00:25:46.999Z</time></trkpt><trkpt lat="-24.72069942265336" lon="113.71700274999108"><ele>9.0</ele><time>2026-04-17T00:25:47.999Z</time></trkpt><trkpt lat="-24.720967203713027" lon="113.71708939623612"><ele>10.0</ele><time>2026-04-17T00:25:48.999Z</time></trkpt><trkpt lat="-24.721234227213237" lon="113.71717062011354"><ele>11.0</ele><time>2026-04-17T00:25:49.999Z</time></trkpt><trkpt lat="-24.721498825870967" lon="113.71725086595303"><ele>11.0</ele><time>2026-04-17T00:25:50.999Z</time></trkpt><trkpt lat="-24.721759578108337" lon="113.71733146501745"><ele>11.0</ele><time>2026-04-17T00:25:51.999Z</time></trkpt><trkpt lat="-24.722019956134826" lon="113.71741302971287"><ele>11.5</ele><time>2026-04-17T00:25:52.999Z</time></trkpt><trkpt lat="-24.72228313666532" lon="113.7174955394859"><ele>12.0</ele><time>2026-04-17T00:25:53.999Z</time></trkpt><trkpt lat="-24.72254577469351" lon="113.71757830461368"><ele>11.5</ele><time>2026-04-17T00:25:54.999Z</time></trkpt><trkpt lat="-24.722809781870083" lon="113.71766442480177"><ele>11.0</ele><time>2026-04-17T00:25:55.999Z</time></trkpt><trkpt lat="-24.723070214856136" lon="113.7177529614301"><ele>10.5</ele><time>2026-04-17T00:25:56.999Z</time></trkpt><trkpt lat="-24.72332911327504" lon="113.7178465878359"><ele>10.0</ele><time>2026-04-17T00:25:57.999Z</time></trkpt><trkpt lat="-24.723590536622595" lon="113.71794921638718"><ele>9.5</ele><time>2026-04-17T00:25:58.999Z</time></trkpt><trkpt lat="-24.72384694574031" lon="113.7180594424877"><ele>9.0</ele><time>2026-04-17T00:25:59.999Z</time></trkpt><trkpt lat="-24.724101217811754" lon="113.71818005706574"><ele>9.0</ele><time>2026-04-17T00:26:00.999Z</time></trkpt><trkpt lat="-24.724355763413957" lon="113.71831261886372"><ele>9.0</ele><time>2026-04-17T00:26:01.999Z</time></trkpt><trkpt lat="-24.724607311702268" lon="113.71845547292851"><ele>9.0</ele><time>2026-04-17T00:26:02.999Z</time></trkpt><trkpt lat="-24.724855739153153" lon="113.71860041251927"><ele>9.0</ele><time>2026-04-17T00:26:03.999Z</time></trkpt><trkpt lat="-24.72510461779017" lon="113.71874679022321"><ele>11.5</ele><time>2026-04-17T00:26:04.999Z</time></trkpt><trkpt lat="-24.725346751999815" lon="113.71889998855146"><ele>14.0</ele><time>2026-04-17T00:26:06Z</time></trkpt><trkpt lat="-24.72558985488282" lon="113.7190658193582"><ele>14.0</ele><time>2026-04-17T00:26:07Z</time></trkpt><trkpt lat="-24.725830967110152" lon="113.71923864078374"><ele>14.0</ele><time>2026-04-17T00:26:08Z</time></trkpt><trkpt lat="-24.726067345553567" lon="113.71942013747102"><ele>13.0</ele><time>2026-04-17T00:26:09Z</time></trkpt><trkpt lat="-24.72629678662044" lon="113.71960737431222"><ele>12.0</ele><time>2026-04-17T00:26:10Z</time></trkpt><trkpt lat="-24.726522852979713" lon="113.71979852485626"><ele>12.0</ele><time>2026-04-17T00:26:11Z</time></trkpt><trkpt lat="-24.726740180927354" lon="113.71999560691005"><ele>12.0</ele><time>2026-04-17T00:26:12Z</time></trkpt><trkpt lat="-24.726953448576996" lon="113.72019562950526"><ele>13.0</ele><time>2026-04-17T00:26:13Z</time></trkpt><trkpt lat="-24.72716172705568" lon="113.7204004632574"><ele>14.0</ele><time>2026-04-17T00:26:14Z</time></trkpt><trkpt lat="-24.727364501398768" lon="113.7206099015904"><ele>14.0</ele><time>2026-04-17T00:26:15Z</time></trkpt><trkpt lat="-24.727563131977643" lon="113.72082889104387"><ele>14.0</ele><time>2026-04-17T00:26:16Z</time></trkpt><trkpt lat="-24.727756359120225" lon="113.72105218422642"><ele>14.0</ele><time>2026-04-17T00:26:17Z</time></trkpt><trkpt lat="-24.727943432647137" lon="113.72128447114125"><ele>14.0</ele><time>2026-04-17T00:26:18Z</time></trkpt><trkpt lat="-24.728123806495113" lon="113.72152045048398"><ele>14.0</ele><time>2026-04-17T00:26:19Z</time></trkpt><trkpt lat="-24.72829766340024" lon="113.72176492526405"><ele>14.0</ele><time>2026-04-17T00:26:20Z</time></trkpt><trkpt lat="-24.72846532499191" lon="113.72201226253047"><ele>13.0</ele><time>2026-04-17T00:26:21Z</time></trkpt><trkpt lat="-24.728630168936668" lon="113.72226459517144"><ele>12.0</ele><time>2026-04-17T00:26:22Z</time></trkpt><trkpt lat="-24.72879086754969" lon="113.72252039004744"><ele>13.0</ele><time>2026-04-17T00:26:23Z</time></trkpt><trkpt lat="-24.728947678868355" lon="113.72278151517793"><ele>14.0</ele><time>2026-04-17T00:26:24Z</time></trkpt><trkpt lat="-24.729101218241233" lon="113.72305126985023"><ele>14.0</ele><time>2026-04-17T00:26:25Z</time></trkpt><trkpt lat="-24.72924580490655" lon="113.72332481987488"><ele>14.0</ele><time>2026-04-17T00:26:26Z</time></trkpt><trkpt lat="-24.72938347612781" lon="113.72360413883963"><ele>13.0</ele><time>2026-04-17T00:26:27Z</time></trkpt><trkpt lat="-24.729516433018297" lon="113.72388928431309"><ele>12.0</ele><time>2026-04-17T00:26:28Z</time></trkpt><trkpt lat="-24.72964453682245" lon="113.72417857431405"><ele>12.0</ele><time>2026-04-17T00:26:29Z</time></trkpt><trkpt lat="-24.729761670193028" lon="113.72447046913214"><ele>12.0</ele><time>2026-04-17T00:26:30Z</time></trkpt><trkpt lat="-24.729873455779646" lon="113.72476613447242"><ele>12.0</ele><time>2026-04-17T00:26:31Z</time></trkpt><trkpt lat="-24.7299771182696" lon="113.72506319944931"><ele>12.0</ele><time>2026-04-17T00:26:32Z</time></trkpt><trkpt lat="-24.730074911934224" lon="113.72536294668627"><ele>12.0</ele><time>2026-04-17T00:26:33Z</time></trkpt><trkpt lat="-24.730163414458318" lon="113.72565918926239"><ele>12.0</ele><time>2026-04-17T00:26:34Z</time></trkpt><trkpt lat="-24.730240846876427" lon="113.7259629926963"><ele>12.0</ele><time>2026-04-17T00:26:35Z</time></trkpt><trkpt lat="-24.730311697166087" lon="113.72626779939857"><ele>12.0</ele><time>2026-04-17T00:26:36Z</time></trkpt><trkpt lat="-24.730376433899863" lon="113.726573590125"><ele>12.0</ele><time>2026-04-17T00:26:37Z</time></trkpt><trkpt lat="-24.730436879599704" lon="113.7268809517159"><ele>12.0</ele><time>2026-04-17T00:26:38Z</time></trkpt><trkpt lat="-24.730491899816492" lon="113.72718688363499"><ele>11.5</ele><time>2026-04-17T00:26:39Z</time></trkpt><trkpt lat="-24.730545168705333" lon="113.72748938063145"><ele>11.0</ele><time>2026-04-17T00:26:40Z</time></trkpt><trkpt lat="-24.73059957631204" lon="113.72779030728597"><ele>11.0</ele><time>2026-04-17T00:26:41Z</time></trkpt><trkpt lat="-24.730656249024616" lon="113.72809112216534"><ele>11.0</ele><time>2026-04-17T00:26:42Z</time></trkpt><trkpt lat="-24.730715254860105" lon="113.72839057010556"><ele>11.5</ele><time>2026-04-17T00:26:43Z</time></trkpt><trkpt lat="-24.73077512680253" lon="113.72869272383197"><ele>12.0</ele><time>2026-04-17T00:26:44Z</time></trkpt><trkpt lat="-24.730836004880953" lon="113.72899390687246"><ele>12.0</ele><time>2026-04-17T00:26:45Z</time></trkpt><trkpt lat="-24.73089629580871" lon="113.72929349623533"><ele>12.0</ele><time>2026-04-17T00:26:46Z</time></trkpt><trkpt lat="-24.730951971597204" lon="113.72958193394291"><ele>11.5</ele><time>2026-04-17T00:26:47Z</time></trkpt><trkpt lat="-24.73100323262037" lon="113.72984998503327"><ele>11.0</ele><time>2026-04-17T00:26:48Z</time></trkpt><trkpt lat="-24.731054511921077" lon="113.73011218225993"><ele>11.5</ele><time>2026-04-17T00:26:49Z</time></trkpt><trkpt lat="-24.731103865036136" lon="113.73036868504087"><ele>12.0</ele><time>2026-04-17T00:26:50Z</time></trkpt><trkpt lat="-24.73115301599539" lon="113.73061858404164"><ele>12.0</ele><time>2026-04-17T00:26:51Z</time></trkpt><trkpt lat="-24.7312037816426" lon="113.73086603450088"><ele>12.0</ele><time>2026-04-17T00:26:52Z</time></trkpt><trkpt lat="-24.73125304222233" lon="113.73110347428815"><ele>10.666666666666666</ele><time>2026-04-17T00:26:53Z</time></trkpt><trkpt lat="-24.73130030608105" lon="113.73134044134706"><ele>9.333333333333332</ele><time>2026-04-17T00:26:54Z</time></trkpt><trkpt lat="-24.731344131602523" lon="113.73157324109803"><ele>8.0</ele><time>2026-04-17T00:26:55Z</time></trkpt><trkpt lat="-24.731389256290566" lon="113.73180903025872"><ele>8.0</ele><time>2026-04-17T00:26:56Z</time></trkpt><trkpt lat="-24.731485527009017" lon="113.73230260057915"><ele>8.0</ele><time>2026-04-17T00:26:58Z</time></trkpt><trkpt lat="-24.731539568663855" lon="113.73255592726017"><ele>8.0</ele><time>2026-04-17T00:26:59Z</time></trkpt><trkpt lat="-24.73158976315086" lon="113.73281745269645"><ele>8.5</ele><time>2026-04-17T00:27:00Z</time></trkpt><trkpt lat="-24.731635490965235" lon="113.73308502743699"><ele>9.0</ele><time>2026-04-17T00:27:01Z</time></trkpt><trkpt lat="-24.7316809239943" lon="113.73335662421142"><ele>9.0</ele><time>2026-04-17T00:27:02Z</time></trkpt><trkpt lat="-24.73172815496115" lon="113.73362719515026"><ele>9.0</ele><time>2026-04-17T00:27:03Z</time></trkpt><trkpt lat="-24.73177578489896" lon="113.7338968003778"><ele>9.0</ele><time>2026-04-17T00:27:04Z</time></trkpt><trkpt lat="-24.73182740501879" lon="113.73417110017976"><ele>9.0</ele><time>2026-04-17T00:27:05Z</time></trkpt><trkpt lat="-24.731882844269276" lon="113.73444332781642"><ele>8.5</ele><time>2026-04-17T00:27:06Z</time></trkpt><trkpt lat="-24.731940437578167" lon="113.73471800743084"><ele>8.0</ele><time>2026-04-17T00:27:07Z</time></trkpt><trkpt lat="-24.731997368060437" lon="113.73499825002078"><ele>8.0</ele><time>2026-04-17T00:27:08Z</time></trkpt><trkpt lat="-24.732056631175006" lon="113.7352844700707"><ele>8.0</ele><time>2026-04-17T00:27:09Z</time></trkpt><trkpt lat="-24.732114670581545" lon="113.73557434762799"><ele>8.0</ele><time>2026-04-17T00:27:10Z</time></trkpt><trkpt lat="-24.732172165429233" lon="113.73586232033232"><ele>8.0</ele><time>2026-04-17T00:27:11Z</time></trkpt><trkpt lat="-24.732227449102897" lon="113.7361515233322"><ele>7.0</ele><time>2026-04-17T00:27:12Z</time></trkpt><trkpt lat="-24.73228128062517" lon="113.73644619707594"><ele>6.0</ele><time>2026-04-17T00:27:13Z</time></trkpt><trkpt lat="-24.732332799363448" lon="113.73673629044916"><ele>7.0</ele><time>2026-04-17T00:27:14Z</time></trkpt><trkpt lat="-24.732384763925378" lon="113.73702529317558"><ele>8.0</ele><time>2026-04-17T00:27:15Z</time></trkpt><trkpt lat="-24.73243736732522" lon="113.73730413106237"><ele>8.0</ele><time>2026-04-17T00:27:16Z</time></trkpt><trkpt lat="-24.732491463067042" lon="113.73758265461997"><ele>8.0</ele><time>2026-04-17T00:27:17Z</time></trkpt><trkpt lat="-24.732547329000155" lon="113.73785926079404"><ele>8.0</ele><time>2026-04-17T00:27:18Z</time></trkpt><trkpt lat="-24.732602032812558" lon="113.73813674826485"><ele>8.0</ele><time>2026-04-17T00:27:19Z</time></trkpt><trkpt lat="-24.732655572284497" lon="113.73841123495616"><ele>9.5</ele><time>2026-04-17T00:27:20Z</time></trkpt><trkpt lat="-24.732710743222697" lon="113.73869189251111"><ele>11.0</ele><time>2026-04-17T00:27:21Z</time></trkpt><trkpt lat="-24.732764712803352" lon="113.73897380404087"><ele>11.0</ele><time>2026-04-17T00:27:22Z</time></trkpt><trkpt lat="-24.73281866156822" lon="113.73925895762964"><ele>11.0</ele><time>2026-04-17T00:27:23Z</time></trkpt><trkpt lat="-24.73287215685566" lon="113.73954408297682"><ele>10.5</ele><time>2026-04-17T00:27:24Z</time></trkpt><trkpt lat="-24.73292549919269" lon="113.73983422689413"><ele>10.0</ele><time>2026-04-17T00:27:25Z</time></trkpt><trkpt lat="-24.732981804131462" lon="113.74012117240548"><ele>9.5</ele><time>2026-04-17T00:27:26Z</time></trkpt><trkpt lat="-24.733040526611397" lon="113.74040793143102"><ele>9.0</ele><time>2026-04-17T00:27:26.999Z</time></trkpt><trkpt lat="-24.733100914037543" lon="113.74069611200996"><ele>9.0</ele><time>2026-04-17T00:27:27.999Z</time></trkpt><trkpt lat="-24.733165017616322" lon="113.7409878533183"><ele>9.0</ele><time>2026-04-17T00:27:28.999Z</time></trkpt><trkpt lat="-24.733229908359768" lon="113.74127480946277"><ele>9.5</ele><time>2026-04-17T00:27:29.999Z</time></trkpt><trkpt lat="-24.733298807333085" lon="113.74156069013252"><ele>10.0</ele><time>2026-04-17T00:27:30.999Z</time></trkpt><trkpt lat="-24.7333703335393" lon="113.7418531465606"><ele>9.0</ele><time>2026-04-17T00:27:31.999Z</time></trkpt><trkpt lat="-24.7334389674498" lon="113.74214804574378"><ele>8.0</ele><time>2026-04-17T00:27:32.999Z</time></trkpt><trkpt lat="-24.733504746938085" lon="113.74244027423727"><ele>9.5</ele><time>2026-04-17T00:27:33.999Z</time></trkpt><trkpt lat="-24.73357345249776" lon="113.74273365891534"><ele>11.0</ele><time>2026-04-17T00:27:34.999Z</time></trkpt><trkpt lat="-24.733645117360908" lon="113.74302669901597"><ele>11.0</ele><time>2026-04-17T00:27:35.999Z</time></trkpt><trkpt lat="-24.733715626875775" lon="113.74331643653457"><ele>11.0</ele><time>2026-04-17T00:27:36.999Z</time></trkpt><trkpt lat="-24.73378374452308" lon="113.7436024238326"><ele>11.5</ele><time>2026-04-17T00:27:37.999Z</time></trkpt><trkpt lat="-24.733856984438965" lon="113.74389209697365"><ele>12.0</ele><time>2026-04-17T00:27:38.999Z</time></trkpt><trkpt lat="-24.73392926211943" lon="113.74417082895376"><ele>10.0</ele><time>2026-04-17T00:27:39.999Z</time></trkpt><trkpt lat="-24.734001440228813" lon="113.74445341324167"><ele>8.0</ele><time>2026-04-17T00:27:40.999Z</time></trkpt><trkpt lat="-24.734075405338295" lon="113.74473431857867"><ele>8.0</ele><time>2026-04-17T00:27:41.999Z</time></trkpt><trkpt lat="-24.734149143742197" lon="113.74501472111554"><ele>8.0</ele><time>2026-04-17T00:27:42.999Z</time></trkpt><trkpt lat="-24.734221855321373" lon="113.74529848756256"><ele>8.5</ele><time>2026-04-17T00:27:43.999Z</time></trkpt><trkpt lat="-24.734293119939057" lon="113.74558106963448"><ele>9.0</ele><time>2026-04-17T00:27:44.999Z</time></trkpt><trkpt lat="-24.734366679678953" lon="113.74586705542863"><ele>7.5</ele><time>2026-04-17T00:27:45.999Z</time></trkpt><trkpt lat="-24.734440084329467" lon="113.74615526793386"><ele>6.0</ele><time>2026-04-17T00:27:46.999Z</time></trkpt><trkpt lat="-24.73451334183972" lon="113.74644461788026"><ele>6.0</ele><time>2026-04-17T00:27:47.999Z</time></trkpt><trkpt lat="-24.73458624233302" lon="113.7467379235553"><ele>6.0</ele><time>2026-04-17T00:27:48.999Z</time></trkpt><trkpt lat="-24.734659833817513" lon="113.74703112242625"><ele>7.5</ele><time>2026-04-17T00:27:49.999Z</time></trkpt><trkpt lat="-24.734733820255045" lon="113.74732155083407"><ele>9.0</ele><time>2026-04-17T00:27:50.999Z</time></trkpt><trkpt lat="-24.73480754690759" lon="113.74761385702196"><ele>8.5</ele><time>2026-04-17T00:27:51.999Z</time></trkpt><trkpt lat="-24.734879962272583" lon="113.74790425294238"><ele>8.0</ele><time>2026-04-17T00:27:52.999Z</time></trkpt><trkpt lat="-24.73495210280487" lon="113.74819553926282"><ele>8.0</ele><time>2026-04-17T00:27:53.999Z</time></trkpt><trkpt lat="-24.73502422868738" lon="113.74848430106935"><ele>8.0</ele><time>2026-04-17T00:27:54.999Z</time></trkpt><trkpt lat="-24.735097609920597" lon="113.74877601683195"><ele>7.5</ele><time>2026-04-17T00:27:55.999Z</time></trkpt><trkpt lat="-24.735170549881538" lon="113.74906646790714"><ele>7.0</ele><time>2026-04-17T00:27:56.999Z</time></trkpt><trkpt lat="-24.7352444748486" lon="113.74935700786712"><ele>6.0</ele><time>2026-04-17T00:27:57.999Z</time></trkpt><trkpt lat="-24.735316837482014" lon="113.74964487787227"><ele>5.0</ele><time>2026-04-17T00:27:58.999Z</time></trkpt><trkpt lat="-24.735389928449575" lon="113.74993348580348"><ele>7.0</ele><time>2026-04-17T00:27:59.999Z</time></trkpt><trkpt lat="-24.735462190892335" lon="113.75022170334132"><ele>9.0</ele><time>2026-04-17T00:28:00.999Z</time></trkpt><trkpt lat="-24.735534012407367" lon="113.75050778046"><ele>9.0</ele><time>2026-04-17T00:28:01.999Z</time></trkpt><trkpt lat="-24.735606424876575" lon="113.75079546772405"><ele>9.0</ele><time>2026-04-17T00:28:02.999Z</time></trkpt><trkpt lat="-24.735680129351334" lon="113.75108143396832"><ele>9.5</ele><time>2026-04-17T00:28:03.999Z</time></trkpt><trkpt lat="-24.73575236248435" lon="113.75136505457765"><ele>10.0</ele><time>2026-04-17T00:28:04.999Z</time></trkpt><trkpt lat="-24.735822820566046" lon="113.7516488365402"><ele>9.5</ele><time>2026-04-17T00:28:05.999Z</time></trkpt><trkpt lat="-24.735893681294115" lon="113.7519348956128"><ele>9.0</ele><time>2026-04-17T00:28:06.999Z</time></trkpt><trkpt lat="-24.735965728453387" lon="113.75222272541019"><ele>9.0</ele><time>2026-04-17T00:28:07.999Z</time></trkpt><trkpt lat="-24.736040153748874" lon="113.75251309562012"><ele>9.0</ele><time>2026-04-17T00:28:08.999Z</time></trkpt><trkpt lat="-24.736114611185496" lon="113.75280297914271"><ele>9.0</ele><time>2026-04-17T00:28:09.999Z</time></trkpt><trkpt lat="-24.736190600490712" lon="113.75309356838535"><ele>9.0</ele><time>2026-04-17T00:28:10.999Z</time></trkpt><trkpt lat="-24.736266408929044" lon="113.75338569314707"><ele>8.0</ele><time>2026-04-17T00:28:12Z</time></trkpt><trkpt lat="-24.736339491916787" lon="113.75367646618818"><ele>7.0</ele><time>2026-04-17T00:28:13Z</time></trkpt><trkpt lat="-24.73640899986055" lon="113.75396243685996"><ele>7.0</ele><time>2026-04-17T00:28:14Z</time></trkpt><trkpt lat="-24.736477816084598" lon="113.7542462327826"><ele>7.0</ele><time>2026-04-17T00:28:15Z</time></trkpt><trkpt lat="-24.736545428349764" lon="113.75452931511394"><ele>8.5</ele><time>2026-04-17T00:28:16Z</time></trkpt><trkpt lat="-24.736614508921043" lon="113.75480248719172"><ele>10.0</ele><time>2026-04-17T00:28:17Z</time></trkpt><trkpt lat="-24.736683546497428" lon="113.75507244919307"><ele>10.5</ele><time>2026-04-17T00:28:18Z</time></trkpt><trkpt lat="-24.736749464811172" lon="113.7553310829819"><ele>11.0</ele><time>2026-04-17T00:28:19Z</time></trkpt><trkpt lat="-24.73681199491102" lon="113.75558175762968"><ele>11.0</ele><time>2026-04-17T00:28:20Z</time></trkpt><trkpt lat="-24.736871109482564" lon="113.75582160420778"><ele>11.0</ele><time>2026-04-17T00:28:21Z</time></trkpt><trkpt lat="-24.736927382550952" lon="113.75604378651282"><ele>11.0</ele><time>2026-04-17T00:28:22Z</time></trkpt><trkpt lat="-24.736982785220253" lon="113.75625733663267"><ele>10.333333333333332</ele><time>2026-04-17T00:28:23Z</time></trkpt><trkpt lat="-24.737033686426724" lon="113.75644838216897"><ele>9.666666666666666</ele><time>2026-04-17T00:28:24Z</time></trkpt><trkpt lat="-24.737079979050502" lon="113.75662584413953"><ele>9.0</ele><time>2026-04-17T00:28:25Z</time></trkpt><trkpt lat="-24.737112928285157" lon="113.75677079018149"><ele>9.0</ele><time>2026-04-17T00:28:26Z</time></trkpt><trkpt lat="-24.73712946474712" lon="113.75687972232507"><ele>9.0</ele><time>2026-04-17T00:28:27Z</time></trkpt><trkpt lat="-24.737133817628784" lon="113.75696031240793"><ele>9.0</ele><time>2026-04-17T00:28:28Z</time></trkpt><trkpt lat="-24.737159050780047" lon="113.75707764712348"><ele>9.0</ele><time>2026-04-17T00:28:30Z</time></trkpt><trkpt lat="-24.73730411461956" lon="113.75716255719894"><ele>9.0</ele><time>2026-04-17T00:28:32Z</time></trkpt><trkpt lat="-24.73742025116144" lon="113.75716681843582"><ele>9.0</ele><time>2026-04-17T00:28:33Z</time></trkpt><trkpt lat="-24.73754998187476" lon="113.75717068439124"><ele>9.0</ele><time>2026-04-17T00:28:34Z</time></trkpt><trkpt lat="-24.737687263359792" lon="113.75718334283994"><ele>9.0</ele><time>2026-04-17T00:28:35Z</time></trkpt><trkpt lat="-24.73783775157632" lon="113.75719858079287"><ele>9.0</ele><time>2026-04-17T00:28:36Z</time></trkpt><trkpt lat="-24.73798935676554" lon="113.7572162255494"><ele>9.666666666666666</ele><time>2026-04-17T00:28:37Z</time></trkpt><trkpt lat="-24.738156645813355" lon="113.75723430019463"><ele>10.333333333333332</ele><time>2026-04-17T00:28:38Z</time></trkpt><trkpt lat="-24.738341726105354" lon="113.75725347140147"><ele>11.0</ele><time>2026-04-17T00:28:39Z</time></trkpt><trkpt lat="-24.738539447099036" lon="113.75727514752684"><ele>11.666666666666666</ele><time>2026-04-17T00:28:40Z</time></trkpt><trkpt lat="-24.738739740311733" lon="113.75729629354602"><ele>12.333333333333332</ele><time>2026-04-17T00:28:41Z</time></trkpt><trkpt lat="-24.73894349543824" lon="113.75732087473149"><ele>13.0</ele><time>2026-04-17T00:28:42Z</time></trkpt><trkpt lat="-24.739156198568264" lon="113.7573487820723"><ele>13.0</ele><time>2026-04-17T00:28:43Z</time></trkpt><trkpt lat="-24.739377690544803" lon="113.75737744542451"><ele>13.0</ele><time>2026-04-17T00:28:44Z</time></trkpt><trkpt lat="-24.73960776707314" lon="113.75740705971505"><ele>10.5</ele><time>2026-04-17T00:28:45Z</time></trkpt><trkpt lat="-24.7398492144427" lon="113.75743351318847"><ele>8.0</ele><time>2026-04-17T00:28:46Z</time></trkpt><trkpt lat="-24.7401013778147" lon="113.7574615682311"><ele>8.5</ele><time>2026-04-17T00:28:47Z</time></trkpt><trkpt lat="-24.740362815482683" lon="113.75749161146368"><ele>9.0</ele><time>2026-04-17T00:28:48Z</time></trkpt><trkpt lat="-24.740634163604515" lon="113.75752314533234"><ele>9.0</ele><time>2026-04-17T00:28:49Z</time></trkpt><trkpt lat="-24.740915484296952" lon="113.75755688152191"><ele>9.0</ele><time>2026-04-17T00:28:50Z</time></trkpt><trkpt lat="-24.74119847082834" lon="113.75759228050694"><ele>9.0</ele><time>2026-04-17T00:28:51Z</time></trkpt><trkpt lat="-24.741495733255093" lon="113.75763003216784"><ele>9.0</ele><time>2026-04-17T00:28:52Z</time></trkpt><trkpt lat="-24.741781926034662" lon="113.757664675838"><ele>9.5</ele><time>2026-04-17T00:28:53Z</time></trkpt><trkpt lat="-24.74206837751916" lon="113.75769766328442"><ele>10.0</ele><time>2026-04-17T00:28:54Z</time></trkpt><trkpt lat="-24.74235496525379" lon="113.75773096034656"><ele>10.0</ele><time>2026-04-17T00:28:55Z</time></trkpt><trkpt lat="-24.742641868138694" lon="113.75776594974141"><ele>10.0</ele><time>2026-04-17T00:28:56Z</time></trkpt><trkpt lat="-24.742923673447116" lon="113.75779953321593"><ele>8.5</ele><time>2026-04-17T00:28:57Z</time></trkpt><trkpt lat="-24.743204667955162" lon="113.75783244449622"><ele>7.0</ele><time>2026-04-17T00:28:58Z</time></trkpt><trkpt lat="-24.743485994399887" lon="113.75786592712306"><ele>8.0</ele><time>2026-04-17T00:28:59Z</time></trkpt><trkpt lat="-24.7437669016177" lon="113.7578977977528"><ele>9.0</ele><time>2026-04-17T00:29:00Z</time></trkpt><trkpt lat="-24.744053607762247" lon="113.75792949040128"><ele>9.0</ele><time>2026-04-17T00:29:01Z</time></trkpt><trkpt lat="-24.744340622342023" lon="113.75796307161505"><ele>9.0</ele><time>2026-04-17T00:29:02Z</time></trkpt><trkpt lat="-24.744625399240928" lon="113.75799500172508"><ele>10.0</ele><time>2026-04-17T00:29:02.999Z</time></trkpt><trkpt lat="-24.744906494207303" lon="113.75802956771496"><ele>11.0</ele><time>2026-04-17T00:29:03.999Z</time></trkpt><trkpt lat="-24.74518807953386" lon="113.75806461511651"><ele>10.0</ele><time>2026-04-17T00:29:04.999Z</time></trkpt><trkpt lat="-24.74546382906305" lon="113.7580976396229"><ele>9.0</ele><time>2026-04-17T00:29:05.999Z</time></trkpt><trkpt lat="-24.745737214205224" lon="113.75812818068687"><ele>9.0</ele><time>2026-04-17T00:29:06.999Z</time></trkpt><trkpt lat="-24.74601400518813" lon="113.75815844071941"><ele>9.0</ele><time>2026-04-17T00:29:07.999Z</time></trkpt><trkpt lat="-24.746292627945397" lon="113.75818929342216"><ele>9.5</ele><time>2026-04-17T00:29:08.999Z</time></trkpt><trkpt lat="-24.746571928534678" lon="113.75822179787379"><ele>10.0</ele><time>2026-04-17T00:29:09.999Z</time></trkpt><trkpt lat="-24.746852380936808" lon="113.75825445578468"><ele>10.0</ele><time>2026-04-17T00:29:10.999Z</time></trkpt><trkpt lat="-24.747131925216006" lon="113.7582861573985"><ele>10.0</ele><time>2026-04-17T00:29:11.999Z</time></trkpt><trkpt lat="-24.747410018273907" lon="113.75831905172176"><ele>10.0</ele><time>2026-04-17T00:29:12.999Z</time></trkpt><trkpt lat="-24.74768872264129" lon="113.75835111731362"><ele>10.0</ele><time>2026-04-17T00:29:13.999Z</time></trkpt><trkpt lat="-24.7479682239359" lon="113.7583831064644"><ele>9.5</ele><time>2026-04-17T00:29:14.999Z</time></trkpt><trkpt lat="-24.748249498412832" lon="113.7584168224748"><ele>9.0</ele><time>2026-04-17T00:29:15.999Z</time></trkpt><trkpt lat="-24.748529862600975" lon="113.75845063004309"><ele>9.5</ele><time>2026-04-17T00:29:16.999Z</time></trkpt><trkpt lat="-24.748808568660134" lon="113.7584846688915"><ele>10.0</ele><time>2026-04-17T00:29:17.999Z</time></trkpt><trkpt lat="-24.7490866831535" lon="113.75851693740103"><ele>10.0</ele><time>2026-04-17T00:29:18.999Z</time></trkpt><trkpt lat="-24.749365356710573" lon="113.75854908755507"><ele>10.0</ele><time>2026-04-17T00:29:19.999Z</time></trkpt><trkpt lat="-24.74964726582211" lon="113.7585828549938"><ele>10.0</ele><time>2026-04-17T00:29:20.999Z</time></trkpt><trkpt lat="-24.74992769199049" lon="113.75861715888588"><ele>10.0</ele><time>2026-04-17T00:29:21.999Z</time></trkpt><trkpt lat="-24.75020634059726" lon="113.75864961797419"><ele>11.0</ele><time>2026-04-17T00:29:22.999Z</time></trkpt><trkpt lat="-24.750483628449242" lon="113.75868158096392"><ele>12.0</ele><time>2026-04-17T00:29:23.999Z</time></trkpt><trkpt lat="-24.750758203370506" lon="113.75871406919647"><ele>12.0</ele><time>2026-04-17T00:29:24.999Z</time></trkpt><trkpt lat="-24.751032533531074" lon="113.7587470544224"><ele>12.0</ele><time>2026-04-17T00:29:25.999Z</time></trkpt><trkpt lat="-24.751307543098356" lon="113.7587823830151"><ele>11.0</ele><time>2026-04-17T00:29:26.999Z</time></trkpt><trkpt lat="-24.751581604053435" lon="113.7588175179619"><ele>10.0</ele><time>2026-04-17T00:29:27.999Z</time></trkpt><trkpt lat="-24.75185570129831" lon="113.75885141160006"><ele>11.0</ele><time>2026-04-17T00:29:28.999Z</time></trkpt><trkpt lat="-24.75212742959965" lon="113.75888640180926"><ele>12.0</ele><time>2026-04-17T00:29:29.999Z</time></trkpt><trkpt lat="-24.752395523741075" lon="113.75892178818849"><ele>12.0</ele><time>2026-04-17T00:29:30.999Z</time></trkpt><trkpt lat="-24.752665578912247" lon="113.75895306569379"><ele>12.0</ele><time>2026-04-17T00:29:31.999Z</time></trkpt><trkpt lat="-24.752931694176244" lon="113.75898455632152"><ele>11.0</ele><time>2026-04-17T00:29:32.999Z</time></trkpt><trkpt lat="-24.753192788929184" lon="113.75901489645103"><ele>10.0</ele><time>2026-04-17T00:29:33.999Z</time></trkpt><trkpt lat="-24.753454926465643" lon="113.75904451825568"><ele>10.0</ele><time>2026-04-17T00:29:34.999Z</time></trkpt><trkpt lat="-24.753719998954573" lon="113.75907384677281"><ele>10.0</ele><time>2026-04-17T00:29:35.999Z</time></trkpt><trkpt lat="-24.75398669118318" lon="113.75910433708452"><ele>10.0</ele><time>2026-04-17T00:29:36.999Z</time></trkpt><trkpt lat="-24.754261792778244" lon="113.75913748139882"><ele>10.0</ele><time>2026-04-17T00:29:37.999Z</time></trkpt><trkpt lat="-24.75453915184381" lon="113.75917229306113"><ele>10.0</ele><time>2026-04-17T00:29:38.999Z</time></trkpt><trkpt lat="-24.754820678340966" lon="113.75920638330906"><ele>10.0</ele><time>2026-04-17T00:29:39.999Z</time></trkpt><trkpt lat="-24.755106586280068" lon="113.75924055512479"><ele>11.0</ele><time>2026-04-17T00:29:40.999Z</time></trkpt><trkpt lat="-24.755394064054684" lon="113.75927422535398"><ele>12.0</ele><time>2026-04-17T00:29:41.999Z</time></trkpt><trkpt lat="-24.755680722446066" lon="113.75930783530318"><ele>12.0</ele><time>2026-04-17T00:29:42.999Z</time></trkpt><trkpt lat="-24.755970973637773" lon="113.75934108037549"><ele>12.0</ele><time>2026-04-17T00:29:43.999Z</time></trkpt><trkpt lat="-24.756263805649247" lon="113.75937534956984"><ele>12.0</ele><time>2026-04-17T00:29:44.999Z</time></trkpt><trkpt lat="-24.756558122769647" lon="113.75940880738675"><ele>12.0</ele><time>2026-04-17T00:29:45.999Z</time></trkpt><trkpt lat="-24.756851975791523" lon="113.75944114782831"><ele>13.0</ele><time>2026-04-17T00:29:46.999Z</time></trkpt><trkpt lat="-24.75714348890524" lon="113.75947400039662"><ele>14.0</ele><time>2026-04-17T00:29:47.999Z</time></trkpt><trkpt lat="-24.757433027505968" lon="113.75950935895742"><ele>13.0</ele><time>2026-04-17T00:29:48.999Z</time></trkpt><trkpt lat="-24.75772524620626" lon="113.75954464950762"><ele>12.0</ele><time>2026-04-17T00:29:49.999Z</time></trkpt><trkpt lat="-24.758015343399343" lon="113.7595797016065"><ele>12.0</ele><time>2026-04-17T00:29:50.999Z</time></trkpt><trkpt lat="-24.758306707865252" lon="113.75961511339776"><ele>12.0</ele><time>2026-04-17T00:29:51.999Z</time></trkpt><trkpt lat="-24.75859854225414" lon="113.75965063806963"><ele>12.0</ele><time>2026-04-17T00:29:52.999Z</time></trkpt><trkpt lat="-24.758890123774258" lon="113.75968542641348"><ele>12.0</ele><time>2026-04-17T00:29:53.999Z</time></trkpt><trkpt lat="-24.7591802779593" lon="113.75972007578929"><ele>11.5</ele><time>2026-04-17T00:29:54.999Z</time></trkpt><trkpt lat="-24.75947054465985" lon="113.7597562098496"><ele>11.0</ele><time>2026-04-17T00:29:55.999Z</time></trkpt><trkpt lat="-24.759759337968593" lon="113.75979305599472"><ele>11.0</ele><time>2026-04-17T00:29:56.999Z</time></trkpt><trkpt lat="-24.76004860147762" lon="113.75983031161728"><ele>11.0</ele><time>2026-04-17T00:29:57.999Z</time></trkpt><trkpt lat="-24.76033713395061" lon="113.75986789964666"><ele>11.0</ele><time>2026-04-17T00:29:58.999Z</time></trkpt><trkpt lat="-24.760624611806925" lon="113.75990382455745"><ele>11.0</ele><time>2026-04-17T00:29:59.999Z</time></trkpt><trkpt lat="-24.76090983611952" lon="113.75993869793074"><ele>10.5</ele><time>2026-04-17T00:30:00.999Z</time></trkpt><trkpt lat="-24.76119374268144" lon="113.75997586090469"><ele>10.0</ele><time>2026-04-17T00:30:01.999Z</time></trkpt><trkpt lat="-24.76147899977609" lon="113.76001437255952"><ele>10.0</ele><time>2026-04-17T00:30:02.999Z</time></trkpt><trkpt lat="-24.761762158855728" lon="113.7600534375832"><ele>10.0</ele><time>2026-04-17T00:30:03.999Z</time></trkpt><trkpt lat="-24.7620478356415" lon="113.76009109688135"><ele>9.5</ele><time>2026-04-17T00:30:04.999Z</time></trkpt><trkpt lat="-24.762333970467605" lon="113.76012884916645"><ele>9.0</ele><time>2026-04-17T00:30:05.999Z</time></trkpt><trkpt lat="-24.762619220706217" lon="113.76016653937889"><ele>9.5</ele><time>2026-04-17T00:30:06.999Z</time></trkpt><trkpt lat="-24.76290757620779" lon="113.76020392489617"><ele>10.0</ele><time>2026-04-17T00:30:07.999Z</time></trkpt><trkpt lat="-24.763189412457937" lon="113.7602396020306"><ele>10.0</ele><time>2026-04-17T00:30:08.999Z</time></trkpt><trkpt lat="-24.763473977114113" lon="113.76027634149722"><ele>10.0</ele><time>2026-04-17T00:30:09.999Z</time></trkpt><trkpt lat="-24.763757875379873" lon="113.76031404316616"><ele>10.0</ele><time>2026-04-17T00:30:10.999Z</time></trkpt><trkpt lat="-24.764041480034326" lon="113.76035087443181"><ele>10.0</ele><time>2026-04-17T00:30:11.999Z</time></trkpt><trkpt lat="-24.764329150707574" lon="113.7603883197142"><ele>11.0</ele><time>2026-04-17T00:30:12.999Z</time></trkpt><trkpt lat="-24.76461626600303" lon="113.76042609070892"><ele>12.0</ele><time>2026-04-17T00:30:13.999Z</time></trkpt><trkpt lat="-24.76490218294501" lon="113.76046390488176"><ele>12.0</ele><time>2026-04-17T00:30:14.999Z</time></trkpt><trkpt lat="-24.76518573347984" lon="113.76050154625916"><ele>12.0</ele><time>2026-04-17T00:30:15.999Z</time></trkpt><trkpt lat="-24.76547074266315" lon="113.7605402089932"><ele>12.0</ele><time>2026-04-17T00:30:16.999Z</time></trkpt><trkpt lat="-24.765753724386546" lon="113.76057759579705"><ele>12.0</ele><time>2026-04-17T00:30:18Z</time></trkpt><trkpt lat="-24.76603397823927" lon="113.76061297712678"><ele>11.5</ele><time>2026-04-17T00:30:19Z</time></trkpt><trkpt lat="-24.766311250087192" lon="113.7606456310768"><ele>11.0</ele><time>2026-04-17T00:30:20Z</time></trkpt><trkpt lat="-24.766584293889252" lon="113.76067773622636"><ele>11.0</ele><time>2026-04-17T00:30:21Z</time></trkpt><trkpt lat="-24.766853701821443" lon="113.76070727403767"><ele>11.0</ele><time>2026-04-17T00:30:22Z</time></trkpt><trkpt lat="-24.767119121047013" lon="113.76073657216462"><ele>12.0</ele><time>2026-04-17T00:30:23Z</time></trkpt><trkpt lat="-24.767384288278517" lon="113.76076806422414"><ele>13.0</ele><time>2026-04-17T00:30:24Z</time></trkpt><trkpt lat="-24.767654491793685" lon="113.76080383320364"><ele>12.0</ele><time>2026-04-17T00:30:25Z</time></trkpt><trkpt lat="-24.767928524846564" lon="113.76084221288025"><ele>11.0</ele><time>2026-04-17T00:30:26Z</time></trkpt><trkpt lat="-24.768203546705823" lon="113.7608791583264"><ele>11.0</ele><time>2026-04-17T00:30:27Z</time></trkpt><trkpt lat="-24.768478638205348" lon="113.76091652091556"><ele>11.0</ele><time>2026-04-17T00:30:28Z</time></trkpt><trkpt lat="-24.76875597933302" lon="113.76095512513307"><ele>11.0</ele><time>2026-04-17T00:30:29Z</time></trkpt><trkpt lat="-24.769032164524567" lon="113.7609914176658"><ele>11.0</ele><time>2026-04-17T00:30:30Z</time></trkpt><trkpt lat="-24.769314623733724" lon="113.76102920053596"><ele>10.5</ele><time>2026-04-17T00:30:31Z</time></trkpt><trkpt lat="-24.769595084840887" lon="113.76106403723688"><ele>10.0</ele><time>2026-04-17T00:30:32Z</time></trkpt><trkpt lat="-24.76987685624106" lon="113.76109993733493"><ele>10.0</ele><time>2026-04-17T00:30:33Z</time></trkpt><trkpt lat="-24.770159321590633" lon="113.76113685263674"><ele>10.0</ele><time>2026-04-17T00:30:34Z</time></trkpt><trkpt lat="-24.770441011541728" lon="113.76117405518272"><ele>11.0</ele><time>2026-04-17T00:30:35Z</time></trkpt><trkpt lat="-24.770720283158955" lon="113.76121068800137"><ele>12.0</ele><time>2026-04-17T00:30:36Z</time></trkpt><trkpt lat="-24.770999860808384" lon="113.76124528641986"><ele>12.5</ele><time>2026-04-17T00:30:37Z</time></trkpt><trkpt lat="-24.771278177710094" lon="113.76128184496821"><ele>13.0</ele><time>2026-04-17T00:30:38Z</time></trkpt><trkpt lat="-24.77155874272064" lon="113.76131812711105"><ele>13.0</ele><time>2026-04-17T00:30:39Z</time></trkpt><trkpt lat="-24.771841494966075" lon="113.76135405006919"><ele>13.0</ele><time>2026-04-17T00:30:40Z</time></trkpt><trkpt lat="-24.772124452087986" lon="113.7613895069325"><ele>12.5</ele><time>2026-04-17T00:30:41Z</time></trkpt><trkpt lat="-24.772405893502295" lon="113.76142418812778"><ele>12.0</ele><time>2026-04-17T00:30:42Z</time></trkpt><trkpt lat="-24.772687631208036" lon="113.76146088666557"><ele>11.0</ele><time>2026-04-17T00:30:43Z</time></trkpt><trkpt lat="-24.77297044927428" lon="113.76149623194398"><ele>10.0</ele><time>2026-04-17T00:30:44Z</time></trkpt><trkpt lat="-24.77325343594042" lon="113.76153398566471"><ele>11.0</ele><time>2026-04-17T00:30:45Z</time></trkpt><trkpt lat="-24.773533276068704" lon="113.76157293597664"><ele>12.0</ele><time>2026-04-17T00:30:46Z</time></trkpt><trkpt lat="-24.773814828198713" lon="113.76161251027952"><ele>12.0</ele><time>2026-04-17T00:30:47Z</time></trkpt><trkpt lat="-24.77410060230015" lon="113.76165297047889"><ele>12.0</ele><time>2026-04-17T00:30:48Z</time></trkpt><trkpt lat="-24.774385966785815" lon="113.76169166196266"><ele>12.0</ele><time>2026-04-17T00:30:49Z</time></trkpt><trkpt lat="-24.77467063714713" lon="113.7617281302979"><ele>12.0</ele><time>2026-04-17T00:30:50Z</time></trkpt><trkpt lat="-24.77495295272952" lon="113.76176316133649"><ele>13.0</ele><time>2026-04-17T00:30:51Z</time></trkpt><trkpt lat="-24.77523475296332" lon="113.7618003146169"><ele>14.0</ele><time>2026-04-17T00:30:52Z</time></trkpt><trkpt lat="-24.775513813454484" lon="113.76183675475338"><ele>14.5</ele><time>2026-04-17T00:30:53Z</time></trkpt><trkpt lat="-24.775794468614308" lon="113.76187381645795"><ele>15.0</ele><time>2026-04-17T00:30:54Z</time></trkpt><trkpt lat="-24.776074850381427" lon="113.76191049197517"><ele>14.0</ele><time>2026-04-17T00:30:55Z</time></trkpt><trkpt lat="-24.77635276483123" lon="113.76194460610533"><ele>13.0</ele><time>2026-04-17T00:30:56Z</time></trkpt><trkpt lat="-24.776632061268707" lon="113.76197829273715"><ele>13.0</ele><time>2026-04-17T00:30:57Z</time></trkpt><trkpt lat="-24.77691107777247" lon="113.76201230256186"><ele>13.0</ele><time>2026-04-17T00:30:58Z</time></trkpt><trkpt lat="-24.77719158281145" lon="113.7620489244603"><ele>13.0</ele><time>2026-04-17T00:30:59Z</time></trkpt><trkpt lat="-24.777469073184733" lon="113.76208489347262"><ele>13.0</ele><time>2026-04-17T00:31:00Z</time></trkpt><trkpt lat="-24.77775083617118" lon="113.76212163766925"><ele>14.5</ele><time>2026-04-17T00:31:01Z</time></trkpt><trkpt lat="-24.77803333012757" lon="113.76215546722081"><ele>16.0</ele><time>2026-04-17T00:31:02Z</time></trkpt><trkpt lat="-24.77831480491396" lon="113.76219140236029"><ele>16.0</ele><time>2026-04-17T00:31:03Z</time></trkpt><trkpt lat="-24.77859272657314" lon="113.76222895228035"><ele>16.0</ele><time>2026-04-17T00:31:04Z</time></trkpt><trkpt lat="-24.778864812199387" lon="113.76226719181018"><ele>16.0</ele><time>2026-04-17T00:31:05Z</time></trkpt><trkpt lat="-24.779136988345364" lon="113.76230434941867"><ele>16.0</ele><time>2026-04-17T00:31:06Z</time></trkpt><trkpt lat="-24.779407172079686" lon="113.76233943086822"><ele>14.5</ele><time>2026-04-17T00:31:07Z</time></trkpt><trkpt lat="-24.779678197602532" lon="113.76237369216273"><ele>13.0</ele><time>2026-04-17T00:31:08Z</time></trkpt><trkpt lat="-24.77994895877617" lon="113.76240573416108"><ele>13.0</ele><time>2026-04-17T00:31:09Z</time></trkpt><trkpt lat="-24.780220213247862" lon="113.76243894171373"><ele>13.0</ele><time>2026-04-17T00:31:10Z</time></trkpt><trkpt lat="-24.780492005593477" lon="113.76247277207717"><ele>13.0</ele><time>2026-04-17T00:31:11Z</time></trkpt><trkpt lat="-24.78076551582284" lon="113.76250769735796"><ele>13.0</ele><time>2026-04-17T00:31:12Z</time></trkpt><trkpt lat="-24.781041304707617" lon="113.76254401824659"><ele>14.0</ele><time>2026-04-17T00:31:13Z</time></trkpt><trkpt lat="-24.781315338095833" lon="113.7625804404416"><ele>15.0</ele><time>2026-04-17T00:31:14Z</time></trkpt><trkpt lat="-24.78158761855284" lon="113.76261781294338"><ele>15.0</ele><time>2026-04-17T00:31:15Z</time></trkpt><trkpt lat="-24.781860584636686" lon="113.76265567218135"><ele>15.0</ele><time>2026-04-17T00:31:16Z</time></trkpt><trkpt lat="-24.782137261780736" lon="113.76269436027675"><ele>15.0</ele><time>2026-04-17T00:31:17Z</time></trkpt><trkpt lat="-24.782418411804056" lon="113.76273251300411"><ele>15.0</ele><time>2026-04-17T00:31:18Z</time></trkpt><trkpt lat="-24.782704466214902" lon="113.76277013959"><ele>15.0</ele><time>2026-04-17T00:31:18.999Z</time></trkpt><trkpt lat="-24.782989230069074" lon="113.7628060683217"><ele>15.0</ele><time>2026-04-17T00:31:19.999Z</time></trkpt><trkpt lat="-24.783273958327477" lon="113.76284262568664"><ele>14.0</ele><time>2026-04-17T00:31:20.999Z</time></trkpt><trkpt lat="-24.783558755788697" lon="113.7628792004907"><ele>13.0</ele><time>2026-04-17T00:31:21.999Z</time></trkpt><trkpt lat="-24.783843937639887" lon="113.76291704042721"><ele>13.0</ele><time>2026-04-17T00:31:22.999Z</time></trkpt><trkpt lat="-24.78412968573596" lon="113.76295602242261"><ele>13.0</ele><time>2026-04-17T00:31:23.999Z</time></trkpt><trkpt lat="-24.7844137235891" lon="113.7629956056552"><ele>14.0</ele><time>2026-04-17T00:31:24.999Z</time></trkpt><trkpt lat="-24.78469490816349" lon="113.76303427434672"><ele>15.0</ele><time>2026-04-17T00:31:25.999Z</time></trkpt><trkpt lat="-24.78497797825707" lon="113.76307185329226"><ele>15.0</ele><time>2026-04-17T00:31:26.999Z</time></trkpt><trkpt lat="-24.78525862057254" lon="113.76310865025779"><ele>15.0</ele><time>2026-04-17T00:31:27.999Z</time></trkpt><trkpt lat="-24.78553855086082" lon="113.76314475662963"><ele>15.0</ele><time>2026-04-17T00:31:28.999Z</time></trkpt><trkpt lat="-24.78581471652424" lon="113.7631808877642"><ele>15.0</ele><time>2026-04-17T00:31:29.999Z</time></trkpt><trkpt lat="-24.78608911602209" lon="113.76321689581145"><ele>14.5</ele><time>2026-04-17T00:31:30.999Z</time></trkpt><trkpt lat="-24.786359202609525" lon="113.76325254118528"><ele>14.0</ele><time>2026-04-17T00:31:31.999Z</time></trkpt><trkpt lat="-24.786630937607388" lon="113.76328912539763"><ele>13.5</ele><time>2026-04-17T00:31:32.999Z</time></trkpt><trkpt lat="-24.786901136204502" lon="113.76332381184471"><ele>13.0</ele><time>2026-04-17T00:31:33.999Z</time></trkpt><trkpt lat="-24.787170036773965" lon="113.7633597964275"><ele>13.0</ele><time>2026-04-17T00:31:34.999Z</time></trkpt><trkpt lat="-24.787445196004683" lon="113.76339543489789"><ele>13.0</ele><time>2026-04-17T00:31:35.999Z</time></trkpt><trkpt lat="-24.787724259480317" lon="113.76343366538063"><ele>14.5</ele><time>2026-04-17T00:31:36.999Z</time></trkpt><trkpt lat="-24.788003154331367" lon="113.76347301142137"><ele>16.0</ele><time>2026-04-17T00:31:37.999Z</time></trkpt><trkpt lat="-24.788282985089758" lon="113.76351059737122"><ele>13.5</ele><time>2026-04-17T00:31:38.999Z</time></trkpt><trkpt lat="-24.788563543824896" lon="113.7635468700457"><ele>11.0</ele><time>2026-04-17T00:31:39.999Z</time></trkpt><trkpt lat="-24.78884485932427" lon="113.763582070578"><ele>11.0</ele><time>2026-04-17T00:31:40.999Z</time></trkpt><trkpt lat="-24.789126208011908" lon="113.76361713955662"><ele>11.0</ele><time>2026-04-17T00:31:41.999Z</time></trkpt><trkpt lat="-24.78940867834741" lon="113.7636526802657"><ele>12.5</ele><time>2026-04-17T00:31:42.999Z</time></trkpt><trkpt lat="-24.789692886331075" lon="113.76368999819249"><ele>14.0</ele><time>2026-04-17T00:31:43.999Z</time></trkpt><trkpt lat="-24.78997445002922" lon="113.76372781638516"><ele>13.0</ele><time>2026-04-17T00:31:44.999Z</time></trkpt><trkpt lat="-24.790257899584976" lon="113.76376335755938"><ele>12.0</ele><time>2026-04-17T00:31:45.999Z</time></trkpt><trkpt lat="-24.79053826229202" lon="113.76379994211987"><ele>12.0</ele><time>2026-04-17T00:31:46.999Z</time></trkpt><trkpt lat="-24.790816363843316" lon="113.76384125827585"><ele>12.0</ele><time>2026-04-17T00:31:47.999Z</time></trkpt><trkpt lat="-24.79109365268913" lon="113.76388056142143"><ele>12.5</ele><time>2026-04-17T00:31:48.999Z</time></trkpt><trkpt lat="-24.791369020928677" lon="113.7639177808599"><ele>13.0</ele><time>2026-04-17T00:31:49.999Z</time></trkpt><trkpt lat="-24.7916472460035" lon="113.76395482028683"><ele>12.5</ele><time>2026-04-17T00:31:50.999Z</time></trkpt><trkpt lat="-24.791917922391477" lon="113.7639916600945"><ele>12.0</ele><time>2026-04-17T00:31:51.999Z</time></trkpt><trkpt lat="-24.792192304278277" lon="113.76402920882724"><ele>12.0</ele><time>2026-04-17T00:31:52.999Z</time></trkpt><trkpt lat="-24.79246979698747" lon="113.7640650859317"><ele>12.0</ele><time>2026-04-17T00:31:53.999Z</time></trkpt><trkpt lat="-24.792747884204946" lon="113.76410172455451"><ele>12.5</ele><time>2026-04-17T00:31:54.999Z</time></trkpt><trkpt lat="-24.793026269576565" lon="113.76413893413753"><ele>13.0</ele><time>2026-04-17T00:31:55.999Z</time></trkpt><trkpt lat="-24.793304355346994" lon="113.76417633032435"><ele>13.5</ele><time>2026-04-17T00:31:56.999Z</time></trkpt><trkpt lat="-24.793583656817937" lon="113.76421266147095"><ele>14.0</ele><time>2026-04-17T00:31:57.999Z</time></trkpt><trkpt lat="-24.7938618524378" lon="113.76424910715453"><ele>14.0</ele><time>2026-04-17T00:31:58.999Z</time></trkpt><trkpt lat="-24.794138078852207" lon="113.76428532480863"><ele>14.0</ele><time>2026-04-17T00:31:59.999Z</time></trkpt><trkpt lat="-24.794414544028605" lon="113.76432239313922"><ele>14.0</ele><time>2026-04-17T00:32:00.999Z</time></trkpt><trkpt lat="-24.79469182579839" lon="113.76435994460074"><ele>14.0</ele><time>2026-04-17T00:32:01.999Z</time></trkpt><trkpt lat="-24.79496886691767" lon="113.76439755292887"><ele>15.0</ele><time>2026-04-17T00:32:02.999Z</time></trkpt><trkpt lat="-24.79524518057498" lon="113.76443404960023"><ele>16.0</ele><time>2026-04-17T00:32:03.999Z</time></trkpt><trkpt lat="-24.795519735904396" lon="113.76446875360568"><ele>16.0</ele><time>2026-04-17T00:32:04.999Z</time></trkpt><trkpt lat="-24.79579096880709" lon="113.76450330675873"><ele>16.0</ele><time>2026-04-17T00:32:05.999Z</time></trkpt><trkpt lat="-24.796057121496844" lon="113.76453578751656"><ele>14.5</ele><time>2026-04-17T00:32:06.999Z</time></trkpt><trkpt lat="-24.79632086286556" lon="113.76456854142567"><ele>13.0</ele><time>2026-04-17T00:32:07.999Z</time></trkpt><trkpt lat="-24.796583971353087" lon="113.7646048094443"><ele>12.5</ele><time>2026-04-17T00:32:08.999Z</time></trkpt><trkpt lat="-24.796844910462795" lon="113.7646399917653"><ele>12.0</ele><time>2026-04-17T00:32:09.999Z</time></trkpt><trkpt lat="-24.79710782857949" lon="113.76467554547372"><ele>12.0</ele><time>2026-04-17T00:32:10.999Z</time></trkpt><trkpt lat="-24.79737292617169" lon="113.76471066596484"><ele>12.0</ele><time>2026-04-17T00:32:11.999Z</time></trkpt><trkpt lat="-24.79764258096343" lon="113.76474498964377"><ele>13.0</ele><time>2026-04-17T00:32:12.999Z</time></trkpt><trkpt lat="-24.79791367445017" lon="113.76477761773874"><ele>14.0</ele><time>2026-04-17T00:32:13.999Z</time></trkpt><trkpt lat="-24.798185278610557" lon="113.76481108099425"><ele>14.0</ele><time>2026-04-17T00:32:14.999Z</time></trkpt><trkpt lat="-24.798458533999963" lon="113.76484700461994"><ele>14.0</ele><time>2026-04-17T00:32:15.999Z</time></trkpt><trkpt lat="-24.79873325373032" lon="113.7648840888828"><ele>14.0</ele><time>2026-04-17T00:32:16.999Z</time></trkpt><trkpt lat="-24.799006773273046" lon="113.76492133640858"><ele>14.0</ele><time>2026-04-17T00:32:17.999Z</time></trkpt><trkpt lat="-24.799279402337373" lon="113.76495852257005"><ele>15.5</ele><time>2026-04-17T00:32:18.999Z</time></trkpt><trkpt lat="-24.799549081664022" lon="113.76499443945691"><ele>17.0</ele><time>2026-04-17T00:32:19.999Z</time></trkpt><trkpt lat="-24.79981937773175" lon="113.76503191037935"><ele>17.0</ele><time>2026-04-17T00:32:20.999Z</time></trkpt><trkpt lat="-24.800088862333716" lon="113.76506773810674"><ele>17.0</ele><time>2026-04-17T00:32:21.999Z</time></trkpt><trkpt lat="-24.800356686178258" lon="113.76510238821518"><ele>16.0</ele><time>2026-04-17T00:32:22.999Z</time></trkpt><trkpt lat="-24.80062377913086" lon="113.76513837306508"><ele>15.0</ele><time>2026-04-17T00:32:24Z</time></trkpt><trkpt lat="-24.800886753218006" lon="113.76517475091492"><ele>14.5</ele><time>2026-04-17T00:32:25Z</time></trkpt><trkpt lat="-24.801153781272877" lon="113.76521255831949"><ele>14.0</ele><time>2026-04-17T00:32:26Z</time></trkpt><trkpt lat="-24.801427581060203" lon="113.7652485576299"><ele>14.0</ele><time>2026-04-17T00:32:27Z</time></trkpt><trkpt lat="-24.801706376125033" lon="113.76528406119334"><ele>14.0</ele><time>2026-04-17T00:32:28Z</time></trkpt><trkpt lat="-24.801982142402085" lon="113.76531876935856"><ele>14.5</ele><time>2026-04-17T00:32:29Z</time></trkpt><trkpt lat="-24.802256646513364" lon="113.76535284839353"><ele>15.0</ele><time>2026-04-17T00:32:30Z</time></trkpt><trkpt lat="-24.802531290854695" lon="113.7653867768699"><ele>15.0</ele><time>2026-04-17T00:32:31Z</time></trkpt><trkpt lat="-24.802806011944845" lon="113.76542212105264"><ele>15.0</ele><time>2026-04-17T00:32:32Z</time></trkpt><trkpt lat="-24.80308575419309" lon="113.76545855220192"><ele>15.0</ele><time>2026-04-17T00:32:33Z</time></trkpt><trkpt lat="-24.80337028439451" lon="113.76549554639035"><ele>15.0</ele><time>2026-04-17T00:32:34Z</time></trkpt><trkpt lat="-24.803656536846997" lon="113.76553147308077"><ele>14.5</ele><time>2026-04-17T00:32:35Z</time></trkpt><trkpt lat="-24.803945007647936" lon="113.76557034239897"><ele>14.0</ele><time>2026-04-17T00:32:36Z</time></trkpt><trkpt lat="-24.80423500193725" lon="113.76561065389556"><ele>13.5</ele><time>2026-04-17T00:32:37Z</time></trkpt><trkpt lat="-24.804520746191248" lon="113.76565307169025"><ele>13.0</ele><time>2026-04-17T00:32:38Z</time></trkpt><trkpt lat="-24.804811526376504" lon="113.76569371095016"><ele>13.0</ele><time>2026-04-17T00:32:39Z</time></trkpt><trkpt lat="-24.805099895193223" lon="113.76573299023289"><ele>13.0</ele><time>2026-04-17T00:32:40Z</time></trkpt><trkpt lat="-24.805386606131037" lon="113.76577144811563"><ele>13.5</ele><time>2026-04-17T00:32:41Z</time></trkpt><trkpt lat="-24.805675880680685" lon="113.7658076823092"><ele>14.0</ele><time>2026-04-17T00:32:42Z</time></trkpt><trkpt lat="-24.805963474827042" lon="113.76584150126774"><ele>14.5</ele><time>2026-04-17T00:32:43Z</time></trkpt><trkpt lat="-24.806252010857694" lon="113.76587675349106"><ele>15.0</ele><time>2026-04-17T00:32:44Z</time></trkpt><trkpt lat="-24.806539237291496" lon="113.76591333535717"><ele>15.0</ele><time>2026-04-17T00:32:45Z</time></trkpt><trkpt lat="-24.806826841382456" lon="113.76594498715582"><ele>15.0</ele><time>2026-04-17T00:32:46Z</time></trkpt><trkpt lat="-24.807114116373317" lon="113.76597361910424"><ele>15.5</ele><time>2026-04-17T00:32:47Z</time></trkpt><trkpt lat="-24.807404125707926" lon="113.76600256503384"><ele>16.0</ele><time>2026-04-17T00:32:48Z</time></trkpt><trkpt lat="-24.807694331339565" lon="113.7660293316978"><ele>15.0</ele><time>2026-04-17T00:32:49Z</time></trkpt><trkpt lat="-24.807987171886907" lon="113.76604892020336"><ele>14.0</ele><time>2026-04-17T00:32:50Z</time></trkpt><trkpt lat="-24.80828035156525" lon="113.76606230576817"><ele>16.5</ele><time>2026-04-17T00:32:51Z</time></trkpt><trkpt lat="-24.808571898092563" lon="113.76607591274666"><ele>19.0</ele><time>2026-04-17T00:32:52Z</time></trkpt><trkpt lat="-24.808860556469064" lon="113.76609042768456"><ele>19.0</ele><time>2026-04-17T00:32:53Z</time></trkpt><trkpt lat="-24.809149713159076" lon="113.76610482183817"><ele>19.0</ele><time>2026-04-17T00:32:54Z</time></trkpt><trkpt lat="-24.809436907606845" lon="113.76611831775311"><ele>17.0</ele><time>2026-04-17T00:32:55Z</time></trkpt><trkpt lat="-24.80972351190855" lon="113.7661322951572"><ele>15.0</ele><time>2026-04-17T00:32:56Z</time></trkpt><trkpt lat="-24.810007283596747" lon="113.76614443672149"><ele>15.5</ele><time>2026-04-17T00:32:57Z</time></trkpt><trkpt lat="-24.81028834058059" lon="113.76615615795578"><ele>16.0</ele><time>2026-04-17T00:32:58Z</time></trkpt><trkpt lat="-24.81056978244988" lon="113.76616872234594"><ele>16.0</ele><time>2026-04-17T00:32:59Z</time></trkpt><trkpt lat="-24.81085307590081" lon="113.76618261610405"><ele>16.0</ele><time>2026-04-17T00:33:00Z</time></trkpt><trkpt lat="-24.81113848166865" lon="113.76619754013288"><ele>16.0</ele><time>2026-04-17T00:33:01Z</time></trkpt><trkpt lat="-24.811427601612923" lon="113.76621202916897"><ele>16.0</ele><time>2026-04-17T00:33:02Z</time></trkpt><trkpt lat="-24.811718154269382" lon="113.76622555875053"><ele>16.0</ele><time>2026-04-17T00:33:03Z</time></trkpt><trkpt lat="-24.812009012446516" lon="113.76623871039264"><ele>16.0</ele><time>2026-04-17T00:33:04Z</time></trkpt><trkpt lat="-24.812300376159072" lon="113.76625253813212"><ele>16.0</ele><time>2026-04-17T00:33:05Z</time></trkpt><trkpt lat="-24.812591540513253" lon="113.76626855308265"><ele>16.0</ele><time>2026-04-17T00:33:06Z</time></trkpt><trkpt lat="-24.81288382646886" lon="113.76628599577296"><ele>16.5</ele><time>2026-04-17T00:33:07Z</time></trkpt><trkpt lat="-24.813172370247123" lon="113.76630451240575"><ele>17.0</ele><time>2026-04-17T00:33:08Z</time></trkpt><trkpt lat="-24.813462369893838" lon="113.76632292010154"><ele>16.5</ele><time>2026-04-17T00:33:09Z</time></trkpt><trkpt lat="-24.813750272109367" lon="113.76634313964084"><ele>16.0</ele><time>2026-04-17T00:33:10Z</time></trkpt><trkpt lat="-24.81403832814588" lon="113.76636540188471"><ele>17.5</ele><time>2026-04-17T00:33:11Z</time></trkpt><trkpt lat="-24.81432586990051" lon="113.76638768265288"><ele>19.0</ele><time>2026-04-17T00:33:12Z</time></trkpt><trkpt lat="-24.814612896108272" lon="113.76641164526283"><ele>19.0</ele><time>2026-04-17T00:33:13Z</time></trkpt><trkpt lat="-24.814898768868094" lon="113.76643640360558"><ele>19.0</ele><time>2026-04-17T00:33:14Z</time></trkpt><trkpt lat="-24.81518510078007" lon="113.7664657037399"><ele>18.5</ele><time>2026-04-17T00:33:15Z</time></trkpt><trkpt lat="-24.815469390603276" lon="113.76649797131722"><ele>18.0</ele><time>2026-04-17T00:33:16Z</time></trkpt><trkpt lat="-24.815754542120576" lon="113.76652832034955"><ele>18.5</ele><time>2026-04-17T00:33:17Z</time></trkpt><trkpt lat="-24.816044919660726" lon="113.76656095122951"><ele>19.0</ele><time>2026-04-17T00:33:18Z</time></trkpt><trkpt lat="-24.81633425653965" lon="113.7665936701818"><ele>19.0</ele><time>2026-04-17T00:33:19Z</time></trkpt><trkpt lat="-24.816623832854418" lon="113.76662607573195"><ele>19.0</ele><time>2026-04-17T00:33:20Z</time></trkpt><trkpt lat="-24.81690963001927" lon="113.76665313708571"><ele>18.5</ele><time>2026-04-17T00:33:21Z</time></trkpt><trkpt lat="-24.817192616861448" lon="113.76668127520735"><ele>18.0</ele><time>2026-04-17T00:33:22Z</time></trkpt><trkpt lat="-24.817469795590842" lon="113.76671127449424"><ele>17.5</ele><time>2026-04-17T00:33:23Z</time></trkpt><trkpt lat="-24.817744251023715" lon="113.766739508465"><ele>17.0</ele><time>2026-04-17T00:33:24Z</time></trkpt><trkpt lat="-24.818019036803303" lon="113.76676512725464"><ele>17.0</ele><time>2026-04-17T00:33:25Z</time></trkpt><trkpt lat="-24.81829195874312" lon="113.76679111438666"><ele>17.0</ele><time>2026-04-17T00:33:25.999Z</time></trkpt><trkpt lat="-24.81856864146751" lon="113.76682091901611"><ele>17.0</ele><time>2026-04-17T00:33:26.999Z</time></trkpt><trkpt lat="-24.81884528707733" lon="113.76685476871154"><ele>17.0</ele><time>2026-04-17T00:33:27.999Z</time></trkpt><trkpt lat="-24.819119174716537" lon="113.76688663491812"><ele>16.5</ele><time>2026-04-17T00:33:28.999Z</time></trkpt><trkpt lat="-24.81939785149656" lon="113.76691395702002"><ele>16.0</ele><time>2026-04-17T00:33:29.999Z</time></trkpt><trkpt lat="-24.81967721165578" lon="113.76693634846393"><ele>16.0</ele><time>2026-04-17T00:33:30.999Z</time></trkpt><trkpt lat="-24.819956561076314" lon="113.76695084465499"><ele>16.0</ele><time>2026-04-17T00:33:31.999Z</time></trkpt><trkpt lat="-24.820237821395015" lon="113.76695684633452"><ele>16.0</ele><time>2026-04-17T00:33:32.999Z</time></trkpt><trkpt lat="-24.820518843750147" lon="113.76695675220041"><ele>16.0</ele><time>2026-04-17T00:33:33.999Z</time></trkpt><trkpt lat="-24.820797826201016" lon="113.76695541384827"><ele>16.0</ele><time>2026-04-17T00:33:34.999Z</time></trkpt><trkpt lat="-24.82107481110506" lon="113.76695109970409"><ele>16.0</ele><time>2026-04-17T00:33:35.999Z</time></trkpt><trkpt lat="-24.82135330369171" lon="113.76694387390954"><ele>16.0</ele><time>2026-04-17T00:33:36.999Z</time></trkpt><trkpt lat="-24.821630358156323" lon="113.76693379515544"><ele>16.0</ele><time>2026-04-17T00:33:37.999Z</time></trkpt><trkpt lat="-24.821904890083434" lon="113.76692248982296"><ele>16.5</ele><time>2026-04-17T00:33:38.999Z</time></trkpt><trkpt lat="-24.822176649265877" lon="113.76691227694715"><ele>17.0</ele><time>2026-04-17T00:33:39.999Z</time></trkpt><trkpt lat="-24.822448819832722" lon="113.7669094538947"><ele>18.0</ele><time>2026-04-17T00:33:40.999Z</time></trkpt><trkpt lat="-24.822720939437144" lon="113.76691634553517"><ele>19.0</ele><time>2026-04-17T00:33:41.999Z</time></trkpt><trkpt lat="-24.822991114058684" lon="113.76693629168184"><ele>19.0</ele><time>2026-04-17T00:33:42.999Z</time></trkpt><trkpt lat="-24.82325965090471" lon="113.76696916428493"><ele>19.0</ele><time>2026-04-17T00:33:43.999Z</time></trkpt><trkpt lat="-24.823528052892247" lon="113.76701707104851"><ele>19.0</ele><time>2026-04-17T00:33:44.999Z</time></trkpt><trkpt lat="-24.823802034721552" lon="113.76708101418657"><ele>19.0</ele><time>2026-04-17T00:33:45.999Z</time></trkpt><trkpt lat="-24.824077895042805" lon="113.76715598209417"><ele>19.5</ele><time>2026-04-17T00:33:46.999Z</time></trkpt><trkpt lat="-24.824348614746448" lon="113.76724006368077"><ele>20.0</ele><time>2026-04-17T00:33:47.999Z</time></trkpt><trkpt lat="-24.824607302768985" lon="113.76733943930856"><ele>20.0</ele><time>2026-04-17T00:33:48.999Z</time></trkpt><trkpt lat="-24.824861108587474" lon="113.76745794283951"><ele>20.0</ele><time>2026-04-17T00:33:49.999Z</time></trkpt><trkpt lat="-24.825112285673775" lon="113.7675886483999"><ele>20.0</ele><time>2026-04-17T00:33:50.999Z</time></trkpt><trkpt lat="-24.82536015612656" lon="113.76773139494608"><ele>20.0</ele><time>2026-04-17T00:33:51.999Z</time></trkpt><trkpt lat="-24.825604535225125" lon="113.767878646093"><ele>20.0</ele><time>2026-04-17T00:33:52.999Z</time></trkpt><trkpt lat="-24.82584320549846" lon="113.76802902192816"><ele>20.0</ele><time>2026-04-17T00:33:53.999Z</time></trkpt><trkpt lat="-24.826077421422678" lon="113.7681868452836"><ele>18.0</ele><time>2026-04-17T00:33:54.999Z</time></trkpt><trkpt lat="-24.82630534980667" lon="113.76835321422247"><ele>16.0</ele><time>2026-04-17T00:33:55.999Z</time></trkpt><trkpt lat="-24.826529275248774" lon="113.7685236583325"><ele>15.5</ele><time>2026-04-17T00:33:56.999Z</time></trkpt><trkpt lat="-24.826743307876608" lon="113.76869172897472"><ele>15.0</ele><time>2026-04-17T00:33:57.999Z</time></trkpt><trkpt lat="-24.826956268521425" lon="113.76886107610274"><ele>12.5</ele><time>2026-04-17T00:33:58.999Z</time></trkpt><trkpt lat="-24.827174611779082" lon="113.76903210575068"><ele>10.0</ele><time>2026-04-17T00:33:59.999Z</time></trkpt><trkpt lat="-24.827388506812433" lon="113.7692032224762"><ele>10.0</ele><time>2026-04-17T00:34:00.999Z</time></trkpt><trkpt lat="-24.82760408123083" lon="113.76938039375094"><ele>10.0</ele><time>2026-04-17T00:34:01.999Z</time></trkpt><trkpt lat="-24.827820323325938" lon="113.76955688534946"><ele>14.5</ele><time>2026-04-17T00:34:02.999Z</time></trkpt><trkpt lat="-24.82803832561753" lon="113.76973252353213"><ele>19.0</ele><time>2026-04-17T00:34:03.999Z</time></trkpt><trkpt lat="-24.828255285909346" lon="113.7699030186351"><ele>19.0</ele><time>2026-04-17T00:34:04.999Z</time></trkpt><trkpt lat="-24.828473516231508" lon="113.77007573201688"><ele>19.0</ele><time>2026-04-17T00:34:05.999Z</time></trkpt><trkpt lat="-24.8286958889372" lon="113.77025286084348"><ele>19.0</ele><time>2026-04-17T00:34:06.999Z</time></trkpt><trkpt lat="-24.828919015885518" lon="113.77043327852607"><ele>19.0</ele><time>2026-04-17T00:34:07.999Z</time></trkpt><trkpt lat="-24.82914173625324" lon="113.77061338416964"><ele>19.0</ele><time>2026-04-17T00:34:08.999Z</time></trkpt><trkpt lat="-24.829365753203152" lon="113.77079087222234"><ele>19.0</ele><time>2026-04-17T00:34:09.999Z</time></trkpt><trkpt lat="-24.829589862957132" lon="113.77096140231468"><ele>19.0</ele><time>2026-04-17T00:34:10.999Z</time></trkpt><trkpt lat="-24.829815898920312" lon="113.77112032839128"><ele>19.0</ele><time>2026-04-17T00:34:11.999Z</time></trkpt><trkpt lat="-24.830052399558287" lon="113.77126106963885"><ele>18.5</ele><time>2026-04-17T00:34:12.999Z</time></trkpt><trkpt lat="-24.830296273621393" lon="113.77139206377737"><ele>18.0</ele><time>2026-04-17T00:34:13.999Z</time></trkpt><trkpt lat="-24.83054161038369" lon="113.77151736040656"><ele>18.0</ele><time>2026-04-17T00:34:14.999Z</time></trkpt><trkpt lat="-24.83078646507538" lon="113.77163495170655"><ele>18.0</ele><time>2026-04-17T00:34:15.999Z</time></trkpt><trkpt lat="-24.831035387521823" lon="113.7717421002561"><ele>18.0</ele><time>2026-04-17T00:34:16.999Z</time></trkpt><trkpt lat="-24.831289593679095" lon="113.77184068605264"><ele>18.0</ele><time>2026-04-17T00:34:17.999Z</time></trkpt><trkpt lat="-24.831551900332332" lon="113.77192830125499"><ele>17.5</ele><time>2026-04-17T00:34:18.999Z</time></trkpt><trkpt lat="-24.831816269841184" lon="113.77200264999139"><ele>17.0</ele><time>2026-04-17T00:34:19.999Z</time></trkpt><trkpt lat="-24.832084224575514" lon="113.77206770808121"><ele>17.0</ele><time>2026-04-17T00:34:20.999Z</time></trkpt><trkpt lat="-24.832355356628465" lon="113.77212110388253"><ele>17.0</ele><time>2026-04-17T00:34:21.999Z</time></trkpt><trkpt lat="-24.83262559524705" lon="113.77216840681422"><ele>17.0</ele><time>2026-04-17T00:34:22.999Z</time></trkpt><trkpt lat="-24.832894612853643" lon="113.77219654218376"><ele>17.0</ele><time>2026-04-17T00:34:23.999Z</time></trkpt><trkpt lat="-24.833165112869526" lon="113.77220971582827"><ele>17.0</ele><time>2026-04-17T00:34:24.999Z</time></trkpt><trkpt lat="-24.833439914191096" lon="113.77220793679396"><ele>17.0</ele><time>2026-04-17T00:34:25.999Z</time></trkpt><trkpt lat="-24.833714771471126" lon="113.77219511459187"><ele>16.5</ele><time>2026-04-17T00:34:26.999Z</time></trkpt><trkpt lat="-24.833987101833802" lon="113.7721690380491"><ele>16.0</ele><time>2026-04-17T00:34:27.999Z</time></trkpt><trkpt lat="-24.834253039079027" lon="113.772130653405"><ele>15.5</ele><time>2026-04-17T00:34:29Z</time></trkpt><trkpt lat="-24.83451521370016" lon="113.77208093855403"><ele>15.0</ele><time>2026-04-17T00:34:30Z</time></trkpt><trkpt lat="-24.834768937472628" lon="113.77201849990685"><ele>15.0</ele><time>2026-04-17T00:34:31Z</time></trkpt><trkpt lat="-24.835018228316923" lon="113.7719488396719"><ele>15.0</ele><time>2026-04-17T00:34:32Z</time></trkpt><trkpt lat="-24.835264616213923" lon="113.77187315623773"><ele>17.0</ele><time>2026-04-17T00:34:33Z</time></trkpt><trkpt lat="-24.835505783403022" lon="113.77178756497939"><ele>19.0</ele><time>2026-04-17T00:34:34Z</time></trkpt><trkpt lat="-24.83574499837134" lon="113.7716878765813"><ele>18.0</ele><time>2026-04-17T00:34:35Z</time></trkpt><trkpt lat="-24.835984706365977" lon="113.77157351334887"><ele>17.0</ele><time>2026-04-17T00:34:36Z</time></trkpt><trkpt lat="-24.836220964324763" lon="113.77145139068394"><ele>17.0</ele><time>2026-04-17T00:34:37Z</time></trkpt><trkpt lat="-24.836450291989348" lon="113.77131193139051"><ele>17.0</ele><time>2026-04-17T00:34:38Z</time></trkpt><trkpt lat="-24.836673845028606" lon="113.771161442476"><ele>16.5</ele><time>2026-04-17T00:34:39Z</time></trkpt><trkpt lat="-24.83689409422748" lon="113.77100465796576"><ele>16.0</ele><time>2026-04-17T00:34:40Z</time></trkpt><trkpt lat="-24.83710796283389" lon="113.77084136525022"><ele>16.0</ele><time>2026-04-17T00:34:41Z</time></trkpt><trkpt lat="-24.837316731200627" lon="113.7706732954989"><ele>16.0</ele><time>2026-04-17T00:34:42Z</time></trkpt><trkpt lat="-24.837518895323807" lon="113.77049107970998"><ele>16.0</ele><time>2026-04-17T00:34:43Z</time></trkpt><trkpt lat="-24.837714485298182" lon="113.77029669884706"><ele>16.0</ele><time>2026-04-17T00:34:44Z</time></trkpt><trkpt lat="-24.83790440526843" lon="113.77009315399499"><ele>16.0</ele><time>2026-04-17T00:34:45Z</time></trkpt><trkpt lat="-24.838091158692134" lon="113.76988246715587"><ele>16.0</ele><time>2026-04-17T00:34:46Z</time></trkpt><trkpt lat="-24.83827140719364" lon="113.7696676014042"><ele>16.0</ele><time>2026-04-17T00:34:47Z</time></trkpt><trkpt lat="-24.83844344498671" lon="113.76944955703082"><ele>16.0</ele><time>2026-04-17T00:34:48Z</time></trkpt><trkpt lat="-24.838613744592347" lon="113.76923320074489"><ele>16.0</ele><time>2026-04-17T00:34:49Z</time></trkpt><trkpt lat="-24.838785193481023" lon="113.76901748708785"><ele>16.0</ele><time>2026-04-17T00:34:50Z</time></trkpt><trkpt lat="-24.83895578362407" lon="113.76881158595646"><ele>16.0</ele><time>2026-04-17T00:34:51Z</time></trkpt><trkpt lat="-24.83912649488924" lon="113.768606000163"><ele>16.0</ele><time>2026-04-17T00:34:52Z</time></trkpt><trkpt lat="-24.839296926167037" lon="113.76840333594443"><ele>17.5</ele><time>2026-04-17T00:34:53Z</time></trkpt><trkpt lat="-24.839468255194745" lon="113.76820247069523"><ele>19.0</ele><time>2026-04-17T00:34:54Z</time></trkpt><trkpt lat="-24.83963936094298" lon="113.76799725325347"><ele>19.0</ele><time>2026-04-17T00:34:55Z</time></trkpt><trkpt lat="-24.83980529874904" lon="113.76779289419427"><ele>19.0</ele><time>2026-04-17T00:34:56Z</time></trkpt><trkpt lat="-24.839976786419182" lon="113.7675858499939"><ele>18.0</ele><time>2026-04-17T00:34:57Z</time></trkpt><trkpt lat="-24.840147646040947" lon="113.76738531299306"><ele>17.0</ele><time>2026-04-17T00:34:58Z</time></trkpt><trkpt lat="-24.840317044403946" lon="113.76718073091833"><ele>17.0</ele><time>2026-04-17T00:34:59Z</time></trkpt><trkpt lat="-24.8404875492464" lon="113.76697272102011"><ele>17.0</ele><time>2026-04-17T00:35:00Z</time></trkpt><trkpt lat="-24.840655836034855" lon="113.76676987782307"><ele>16.5</ele><time>2026-04-17T00:35:01Z</time></trkpt><trkpt lat="-24.840830057101403" lon="113.76656566719252"><ele>16.0</ele><time>2026-04-17T00:35:02Z</time></trkpt><trkpt lat="-24.841004352504232" lon="113.76635962006804"><ele>15.5</ele><time>2026-04-17T00:35:03Z</time></trkpt><trkpt lat="-24.841177700872958" lon="113.76614862711132"><ele>15.0</ele><time>2026-04-17T00:35:04Z</time></trkpt><trkpt lat="-24.841346944422206" lon="113.7659394765817"><ele>15.0</ele><time>2026-04-17T00:35:05Z</time></trkpt><trkpt lat="-24.84151591714822" lon="113.76573314046666"><ele>15.0</ele><time>2026-04-17T00:35:06Z</time></trkpt><trkpt lat="-24.841689664330705" lon="113.76552350893286"><ele>15.0</ele><time>2026-04-17T00:35:07Z</time></trkpt><trkpt lat="-24.841864543958867" lon="113.76531320462462"><ele>15.0</ele><time>2026-04-17T00:35:08Z</time></trkpt><trkpt lat="-24.842037292458848" lon="113.7651015744534"><ele>14.5</ele><time>2026-04-17T00:35:09Z</time></trkpt><trkpt lat="-24.842208679974743" lon="113.7648906136333"><ele>14.0</ele><time>2026-04-17T00:35:10Z</time></trkpt><trkpt lat="-24.842381865437545" lon="113.76468024787995"><ele>14.0</ele><time>2026-04-17T00:35:11Z</time></trkpt><trkpt lat="-24.84255812502868" lon="113.76446726398044"><ele>14.0</ele><time>2026-04-17T00:35:12Z</time></trkpt><trkpt lat="-24.84273600127116" lon="113.76425462059164"><ele>14.0</ele><time>2026-04-17T00:35:13Z</time></trkpt><trkpt lat="-24.8429111209149" lon="113.76404254946017"><ele>14.0</ele><time>2026-04-17T00:35:14Z</time></trkpt><trkpt lat="-24.84308860448188" lon="113.76382745382669"><ele>14.0</ele><time>2026-04-17T00:35:15Z</time></trkpt><trkpt lat="-24.843264165137892" lon="113.7636143476307"><ele>14.0</ele><time>2026-04-17T00:35:16Z</time></trkpt><trkpt lat="-24.843440021022396" lon="113.76340062515781"><ele>14.5</ele><time>2026-04-17T00:35:17Z</time></trkpt><trkpt lat="-24.843616772502447" lon="113.76318812952334"><ele>15.0</ele><time>2026-04-17T00:35:18Z</time></trkpt><trkpt lat="-24.843795208815397" lon="113.76297412035801"><ele>15.0</ele><time>2026-04-17T00:35:18.999Z</time></trkpt><trkpt lat="-24.843971292872983" lon="113.76276185094979"><ele>15.0</ele><time>2026-04-17T00:35:19.999Z</time></trkpt><trkpt lat="-24.844148289858463" lon="113.76254871286113"><ele>15.0</ele><time>2026-04-17T00:35:20.999Z</time></trkpt><trkpt lat="-24.844324194538586" lon="113.76233461579007"><ele>15.0</ele><time>2026-04-17T00:35:21.999Z</time></trkpt><trkpt lat="-24.844500254153083" lon="113.76212387625039"><ele>15.0</ele><time>2026-04-17T00:35:22.999Z</time></trkpt><trkpt lat="-24.84467669081431" lon="113.76191427014457"><ele>15.0</ele><time>2026-04-17T00:35:23.999Z</time></trkpt><trkpt lat="-24.84485194296201" lon="113.76170294324635"><ele>14.5</ele><time>2026-04-17T00:35:24.999Z</time></trkpt><trkpt lat="-24.845024281814283" lon="113.7614922714459"><ele>14.0</ele><time>2026-04-17T00:35:25.999Z</time></trkpt><trkpt lat="-24.845195717292352" lon="113.76128170645374"><ele>13.5</ele><time>2026-04-17T00:35:26.999Z</time></trkpt><trkpt lat="-24.845368159805982" lon="113.7610730089317"><ele>13.0</ele><time>2026-04-17T00:35:27.999Z</time></trkpt><trkpt lat="-24.845540815355356" lon="113.76086488825682"><ele>12.0</ele><time>2026-04-17T00:35:28.999Z</time></trkpt><trkpt lat="-24.84571559088387" lon="113.7606557101304"><ele>11.0</ele><time>2026-04-17T00:35:29.999Z</time></trkpt><trkpt lat="-24.84588927501358" lon="113.7604497934651"><ele>12.5</ele><time>2026-04-17T00:35:30.999Z</time></trkpt><trkpt lat="-24.84605986132831" lon="113.7602411531334"><ele>14.0</ele><time>2026-04-17T00:35:31.999Z</time></trkpt><trkpt lat="-24.846232304320164" lon="113.7600286240284"><ele>14.0</ele><time>2026-04-17T00:35:32.999Z</time></trkpt><trkpt lat="-24.846405477863005" lon="113.75981691444088"><ele>14.0</ele><time>2026-04-17T00:35:33.999Z</time></trkpt><trkpt lat="-24.846580362212034" lon="113.75960776415685"><ele>14.0</ele><time>2026-04-17T00:35:34.999Z</time></trkpt><trkpt lat="-24.84675490447454" lon="113.75939649726583"><ele>14.0</ele><time>2026-04-17T00:35:35.999Z</time></trkpt><trkpt lat="-24.846929935212533" lon="113.75918476127424"><ele>14.0</ele><time>2026-04-17T00:35:36.999Z</time></trkpt><trkpt lat="-24.847109509487655" lon="113.75896829735295"><ele>14.0</ele><time>2026-04-17T00:35:37.999Z</time></trkpt><trkpt lat="-24.847291298524535" lon="113.75875188623836"><ele>15.0</ele><time>2026-04-17T00:35:38.999Z</time></trkpt><trkpt lat="-24.847472317728613" lon="113.75853454301071"><ele>16.0</ele><time>2026-04-17T00:35:39.999Z</time></trkpt><trkpt lat="-24.84765177763887" lon="113.75831430640093"><ele>14.0</ele><time>2026-04-17T00:35:40.999Z</time></trkpt><trkpt lat="-24.8478314894345" lon="113.75809284639783"><ele>12.0</ele><time>2026-04-17T00:35:41.999Z</time></trkpt><trkpt lat="-24.848012161294257" lon="113.75787315704157"><ele>12.0</ele><time>2026-04-17T00:35:42.999Z</time></trkpt><trkpt lat="-24.848194211332856" lon="113.7576567641858"><ele>12.0</ele><time>2026-04-17T00:35:43.999Z</time></trkpt><trkpt lat="-24.848375673785867" lon="113.75744342112972"><ele>12.5</ele><time>2026-04-17T00:35:44.999Z</time></trkpt><trkpt lat="-24.848555061829583" lon="113.75722921947816"><ele>13.0</ele><time>2026-04-17T00:35:45.999Z</time></trkpt><trkpt lat="-24.848733395934268" lon="113.7570127072026"><ele>11.5</ele><time>2026-04-17T00:35:46.999Z</time></trkpt><trkpt lat="-24.848911761372428" lon="113.7567946259952"><ele>10.0</ele><time>2026-04-17T00:35:47.999Z</time></trkpt><trkpt lat="-24.84909036521973" lon="113.75657723109676"><ele>10.0</ele><time>2026-04-17T00:35:48.999Z</time></trkpt><trkpt lat="-24.84926840139546" lon="113.75636082252987"><ele>10.0</ele><time>2026-04-17T00:35:49.999Z</time></trkpt><trkpt lat="-24.8494461309704" lon="113.75614296778286"><ele>11.5</ele><time>2026-04-17T00:35:50.999Z</time></trkpt><trkpt lat="-24.84962382980119" lon="113.75592673036056"><ele>13.0</ele><time>2026-04-17T00:35:51.999Z</time></trkpt><trkpt lat="-24.849802628793203" lon="113.75571112996944"><ele>13.0</ele><time>2026-04-17T00:35:52.999Z</time></trkpt><trkpt lat="-24.849984330115994" lon="113.75549473569303"><ele>13.0</ele><time>2026-04-17T00:35:53.999Z</time></trkpt><trkpt lat="-24.850163387877387" lon="113.75528027108209"><ele>12.5</ele><time>2026-04-17T00:35:54.999Z</time></trkpt><trkpt lat="-24.85034348345872" lon="113.7550643444514"><ele>12.0</ele><time>2026-04-17T00:35:55.999Z</time></trkpt><trkpt lat="-24.85052335181744" lon="113.7548461553803"><ele>12.0</ele><time>2026-04-17T00:35:56.999Z</time></trkpt><trkpt lat="-24.850703134395186" lon="113.75462560692316"><ele>12.0</ele><time>2026-04-17T00:35:57.999Z</time></trkpt><trkpt lat="-24.85088219939154" lon="113.75440434357908"><ele>10.5</ele><time>2026-04-17T00:35:58.999Z</time></trkpt><trkpt lat="-24.851060837679885" lon="113.75418309115375"><ele>9.0</ele><time>2026-04-17T00:35:59.999Z</time></trkpt><trkpt lat="-24.851244205010055" lon="113.7539667151628"><ele>9.0</ele><time>2026-04-17T00:36:00.999Z</time></trkpt><trkpt lat="-24.851427738266924" lon="113.75375087072204"><ele>9.0</ele><time>2026-04-17T00:36:01.999Z</time></trkpt><trkpt lat="-24.851607930938716" lon="113.75353699610632"><ele>10.5</ele><time>2026-04-17T00:36:02.999Z</time></trkpt><trkpt lat="-24.851792149060838" lon="113.75331955948279"><ele>12.0</ele><time>2026-04-17T00:36:03.999Z</time></trkpt><trkpt lat="-24.85197189724081" lon="113.7531045705489"><ele>12.0</ele><time>2026-04-17T00:36:04.999Z</time></trkpt><trkpt lat="-24.852150859158318" lon="113.7528862089347"><ele>12.0</ele><time>2026-04-17T00:36:05.999Z</time></trkpt><trkpt lat="-24.852330872089404" lon="113.7526691130461"><ele>12.5</ele><time>2026-04-17T00:36:06.999Z</time></trkpt><trkpt lat="-24.85251062687011" lon="113.7524522238152"><ele>13.0</ele><time>2026-04-17T00:36:07.999Z</time></trkpt><trkpt lat="-24.852688148632073" lon="113.75223404637673"><ele>14.0</ele><time>2026-04-17T00:36:08.999Z</time></trkpt><trkpt lat="-24.852866977351663" lon="113.75201495054999"><ele>15.0</ele><time>2026-04-17T00:36:09.999Z</time></trkpt><trkpt lat="-24.853047089905534" lon="113.75179695695903"><ele>15.0</ele><time>2026-04-17T00:36:10.999Z</time></trkpt><trkpt lat="-24.853226650945825" lon="113.75158006905102"><ele>15.0</ele><time>2026-04-17T00:36:11.999Z</time></trkpt><trkpt lat="-24.853407372251844" lon="113.75136559257692"><ele>14.0</ele><time>2026-04-17T00:36:12.999Z</time></trkpt><trkpt lat="-24.85358565013137" lon="113.75115348035723"><ele>13.0</ele><time>2026-04-17T00:36:13.999Z</time></trkpt><trkpt lat="-24.853762315061378" lon="113.75094166150315"><ele>13.0</ele><time>2026-04-17T00:36:14.999Z</time></trkpt><trkpt lat="-24.853936527251783" lon="113.75073103547025"><ele>13.0</ele><time>2026-04-17T00:36:15.999Z</time></trkpt><trkpt lat="-24.85411248224791" lon="113.75051694218472"><ele>13.0</ele><time>2026-04-17T00:36:16.999Z</time></trkpt><trkpt lat="-24.85428522641209" lon="113.75030539795726"><ele>13.0</ele><time>2026-04-17T00:36:17.999Z</time></trkpt><trkpt lat="-24.85445669710144" lon="113.75009120425631"><ele>13.0</ele><time>2026-04-17T00:36:18.999Z</time></trkpt><trkpt lat="-24.854625335777538" lon="113.74987643518787"><ele>13.0</ele><time>2026-04-17T00:36:19.999Z</time></trkpt><trkpt lat="-24.85479061389059" lon="113.74965527241154"><ele>13.0</ele><time>2026-04-17T00:36:20.999Z</time></trkpt><trkpt lat="-24.85495075396235" lon="113.74942528835686"><ele>13.0</ele><time>2026-04-17T00:36:21.999Z</time></trkpt><trkpt lat="-24.85510234733925" lon="113.74918688410222"><ele>12.5</ele><time>2026-04-17T00:36:22.999Z</time></trkpt><trkpt lat="-24.85525450663231" lon="113.74893721327265"><ele>12.0</ele><time>2026-04-17T00:36:23.999Z</time></trkpt><trkpt lat="-24.855396647730352" lon="113.74868403952996"><ele>10.5</ele><time>2026-04-17T00:36:24.999Z</time></trkpt><trkpt lat="-24.855530426377737" lon="113.74843136540684"><ele>9.0</ele><time>2026-04-17T00:36:25.999Z</time></trkpt><trkpt lat="-24.855658271890405" lon="113.74817423351159"><ele>9.0</ele><time>2026-04-17T00:36:26.999Z</time></trkpt><trkpt lat="-24.855777611550174" lon="113.74791405218505"><ele>9.0</ele><time>2026-04-17T00:36:27.999Z</time></trkpt><trkpt lat="-24.8558855534507" lon="113.74765106590793"><ele>10.5</ele><time>2026-04-17T00:36:28.999Z</time></trkpt><trkpt lat="-24.85598506613148" lon="113.74738460563042"><ele>12.0</ele><time>2026-04-17T00:36:29.999Z</time></trkpt><trkpt lat="-24.856077592089708" lon="113.74711658743475"><ele>12.0</ele><time>2026-04-17T00:36:30.999Z</time></trkpt><trkpt lat="-24.856164959921397" lon="113.74684614321065"><ele>12.0</ele><time>2026-04-17T00:36:31.999Z</time></trkpt><trkpt lat="-24.85624080819064" lon="113.74657219175143"><ele>12.0</ele><time>2026-04-17T00:36:32.999Z</time></trkpt><trkpt lat="-24.85630859874102" lon="113.74629637828313"><ele>12.0</ele><time>2026-04-17T00:36:33.999Z</time></trkpt><trkpt lat="-24.856371811448078" lon="113.74601371631584"><ele>12.0</ele><time>2026-04-17T00:36:35Z</time></trkpt><trkpt lat="-24.856434399690393" lon="113.74573354897747"><ele>12.0</ele><time>2026-04-17T00:36:36Z</time></trkpt><trkpt lat="-24.85649812086057" lon="113.74545153935145"><ele>12.0</ele><time>2026-04-17T00:36:37Z</time></trkpt><trkpt lat="-24.856563192813887" lon="113.74517625105194"><ele>12.0</ele><time>2026-04-17T00:36:38Z</time></trkpt><trkpt lat="-24.856626939728336" lon="113.7449172577605"><ele>12.0</ele><time>2026-04-17T00:36:39Z</time></trkpt><trkpt lat="-24.856689375782103" lon="113.74467156508707"><ele>12.0</ele><time>2026-04-17T00:36:40Z</time></trkpt><trkpt lat="-24.856752734115265" lon="113.74441888651079"><ele>12.0</ele><time>2026-04-17T00:36:41Z</time></trkpt><trkpt lat="-24.85681598021941" lon="113.74415212488913"><ele>12.0</ele><time>2026-04-17T00:36:42Z</time></trkpt><trkpt lat="-24.856879174596724" lon="113.74387614647647"><ele>12.0</ele><time>2026-04-17T00:36:43Z</time></trkpt><trkpt lat="-24.85694329236323" lon="113.74359871599576"><ele>12.0</ele><time>2026-04-17T00:36:44Z</time></trkpt><trkpt lat="-24.857007748973448" lon="113.74331426923786"><ele>12.0</ele><time>2026-04-17T00:36:45Z</time></trkpt><trkpt lat="-24.857073752140195" lon="113.74302572767586"><ele>12.0</ele><time>2026-04-17T00:36:46Z</time></trkpt><trkpt lat="-24.85714214857461" lon="113.7427403895302"><ele>12.5</ele><time>2026-04-17T00:36:47Z</time></trkpt><trkpt lat="-24.85721217345519" lon="113.7424528594185"><ele>13.0</ele><time>2026-04-17T00:36:48Z</time></trkpt><trkpt lat="-24.857280123835007" lon="113.74216627406608"><ele>14.0</ele><time>2026-04-17T00:36:49Z</time></trkpt><trkpt lat="-24.85734837771309" lon="113.74188113858095"><ele>15.0</ele><time>2026-04-17T00:36:50Z</time></trkpt><trkpt lat="-24.857414319273204" lon="113.74159770137985"><ele>15.0</ele><time>2026-04-17T00:36:51Z</time></trkpt><trkpt lat="-24.857481562093923" lon="113.74131577076379"><ele>15.0</ele><time>2026-04-17T00:36:52Z</time></trkpt><trkpt lat="-24.857548904073557" lon="113.74103521982354"><ele>14.0</ele><time>2026-04-17T00:36:53Z</time></trkpt><trkpt lat="-24.85761323132469" lon="113.740751906514"><ele>13.0</ele><time>2026-04-17T00:36:54Z</time></trkpt><trkpt lat="-24.85767591472282" lon="113.74046969606165"><ele>12.5</ele><time>2026-04-17T00:36:55Z</time></trkpt><trkpt lat="-24.857741487820107" lon="113.7401892790985"><ele>12.0</ele><time>2026-04-17T00:36:56Z</time></trkpt><trkpt lat="-24.857807740601263" lon="113.73990903700027"><ele>12.0</ele><time>2026-04-17T00:36:57Z</time></trkpt><trkpt lat="-24.857871977078965" lon="113.73963073946435"><ele>12.0</ele><time>2026-04-17T00:36:58Z</time></trkpt><trkpt lat="-24.857938447959796" lon="113.73935522605873"><ele>12.5</ele><time>2026-04-17T00:36:58.999Z</time></trkpt><trkpt lat="-24.858004331817778" lon="113.73908026788224"><ele>13.0</ele><time>2026-04-17T00:36:59.999Z</time></trkpt><trkpt lat="-24.858071197405568" lon="113.73880670740877"><ele>12.0</ele><time>2026-04-17T00:37:00.999Z</time></trkpt><trkpt lat="-24.85813952098034" lon="113.7385273764803"><ele>11.0</ele><time>2026-04-17T00:37:01.999Z</time></trkpt><trkpt lat="-24.858204037981096" lon="113.73824967786702"><ele>11.0</ele><time>2026-04-17T00:37:02.999Z</time></trkpt><trkpt lat="-24.85827016776272" lon="113.73796927349498"><ele>11.0</ele><time>2026-04-17T00:37:03.999Z</time></trkpt><trkpt lat="-24.85833616577359" lon="113.73769255943593"><ele>11.5</ele><time>2026-04-17T00:37:04.999Z</time></trkpt><trkpt lat="-24.858400486754906" lon="113.73741894332998"><ele>12.0</ele><time>2026-04-17T00:37:05.999Z</time></trkpt><trkpt lat="-24.858463753214362" lon="113.73714505322947"><ele>11.5</ele><time>2026-04-17T00:37:06.999Z</time></trkpt><trkpt lat="-24.858526978175508" lon="113.73687479223842"><ele>11.0</ele><time>2026-04-17T00:37:07.999Z</time></trkpt><trkpt lat="-24.85859466566269" lon="113.73659997948745"><ele>11.0</ele><time>2026-04-17T00:37:08.999Z</time></trkpt><trkpt lat="-24.85865976343293" lon="113.73632864615891"><ele>11.0</ele><time>2026-04-17T00:37:09.999Z</time></trkpt><trkpt lat="-24.858727739922706" lon="113.73605415937705"><ele>12.5</ele><time>2026-04-17T00:37:10.999Z</time></trkpt><trkpt lat="-24.85879577629392" lon="113.73578079150602"><ele>14.0</ele><time>2026-04-17T00:37:11.999Z</time></trkpt><trkpt lat="-24.85886305237863" lon="113.7355056609601"><ele>14.0</ele><time>2026-04-17T00:37:12.999Z</time></trkpt><trkpt lat="-24.858929011762203" lon="113.7352310075655"><ele>14.0</ele><time>2026-04-17T00:37:13.999Z</time></trkpt><trkpt lat="-24.85899463892393" lon="113.73495666603658"><ele>14.5</ele><time>2026-04-17T00:37:14.999Z</time></trkpt><trkpt lat="-24.85905994426186" lon="113.7346796785898"><ele>15.0</ele><time>2026-04-17T00:37:15.999Z</time></trkpt><trkpt lat="-24.859124539862336" lon="113.7344055616688"><ele>13.0</ele><time>2026-04-17T00:37:16.999Z</time></trkpt><trkpt lat="-24.859191615192255" lon="113.73413023653458"><ele>11.0</ele><time>2026-04-17T00:37:17.999Z</time></trkpt><trkpt lat="-24.85925648114148" lon="113.73385745188001"><ele>11.5</ele><time>2026-04-17T00:37:18.999Z</time></trkpt><trkpt lat="-24.859319861151295" lon="113.7335810541848"><ele>12.0</ele><time>2026-04-17T00:37:19.999Z</time></trkpt><trkpt lat="-24.8593821011166" lon="113.73330443878703"><ele>12.0</ele><time>2026-04-17T00:37:20.999Z</time></trkpt><trkpt lat="-24.85944377400415" lon="113.73302308073127"><ele>12.0</ele><time>2026-04-17T00:37:21.999Z</time></trkpt><trkpt lat="-24.859504093618966" lon="113.73274216580137"><ele>11.5</ele><time>2026-04-17T00:37:22.999Z</time></trkpt><trkpt lat="-24.859565900045546" lon="113.73246044027519"><ele>11.0</ele><time>2026-04-17T00:37:23.999Z</time></trkpt><trkpt lat="-24.85962735925996" lon="113.73218468207713"><ele>11.0</ele><time>2026-04-17T00:37:24.999Z</time></trkpt><trkpt lat="-24.8596883043686" lon="113.73190862668628"><ele>11.0</ele><time>2026-04-17T00:37:25.999Z</time></trkpt><trkpt lat="-24.859744221810907" lon="113.73163454048137"><ele>11.5</ele><time>2026-04-17T00:37:26.999Z</time></trkpt><trkpt lat="-24.859798237669963" lon="113.73135877670322"><ele>12.0</ele><time>2026-04-17T00:37:27.999Z</time></trkpt><trkpt lat="-24.859848595795263" lon="113.73107953981277"><ele>11.5</ele><time>2026-04-17T00:37:28.999Z</time></trkpt><trkpt lat="-24.85989909904547" lon="113.73079802888273"><ele>11.0</ele><time>2026-04-17T00:37:29.999Z</time></trkpt><trkpt lat="-24.85995089253427" lon="113.73052006617934"><ele>11.0</ele><time>2026-04-17T00:37:30.999Z</time></trkpt><trkpt lat="-24.860008398970702" lon="113.73023886957982"><ele>11.0</ele><time>2026-04-17T00:37:31.999Z</time></trkpt><trkpt lat="-24.860067431054357" lon="113.72995880055298"><ele>11.5</ele><time>2026-04-17T00:37:32.999Z</time></trkpt><trkpt lat="-24.86012528175031" lon="113.72968198544602"><ele>12.0</ele><time>2026-04-17T00:37:33.999Z</time></trkpt><trkpt lat="-24.86018324713467" lon="113.7294055100856"><ele>12.0</ele><time>2026-04-17T00:37:34.999Z</time></trkpt><trkpt lat="-24.860240326167308" lon="113.72913035585374"><ele>12.0</ele><time>2026-04-17T00:37:35.999Z</time></trkpt><trkpt lat="-24.86029416618356" lon="113.72885535499739"><ele>12.0</ele><time>2026-04-17T00:37:36.999Z</time></trkpt><trkpt lat="-24.860346516042977" lon="113.72857613872243"><ele>12.0</ele><time>2026-04-17T00:37:37.999Z</time></trkpt><trkpt lat="-24.86039833492911" lon="113.72829831421214"><ele>13.0</ele><time>2026-04-17T00:37:38.999Z</time></trkpt><trkpt lat="-24.86045299573094" lon="113.7280218954187"><ele>14.0</ele><time>2026-04-17T00:37:39.999Z</time></trkpt><trkpt lat="-24.860507745710613" lon="113.72774837208213"><ele>13.5</ele><time>2026-04-17T00:37:40.999Z</time></trkpt><trkpt lat="-24.860562053647598" lon="113.72747316947562"><ele>13.0</ele><time>2026-04-17T00:37:41.999Z</time></trkpt><trkpt lat="-24.860615315158086" lon="113.72719771724259"><ele>13.0</ele><time>2026-04-17T00:37:42.999Z</time></trkpt><trkpt lat="-24.860670502442588" lon="113.72692194800712"><ele>13.0</ele><time>2026-04-17T00:37:43.999Z</time></trkpt><trkpt lat="-24.86072753662717" lon="113.7266429976419"><ele>12.5</ele><time>2026-04-17T00:37:44.999Z</time></trkpt><trkpt lat="-24.860783102616676" lon="113.72636646332242"><ele>12.0</ele><time>2026-04-17T00:37:45.999Z</time></trkpt><trkpt lat="-24.860839542472874" lon="113.7260879322587"><ele>11.0</ele><time>2026-04-17T00:37:46.999Z</time></trkpt><trkpt lat="-24.860898061324335" lon="113.7258052242212"><ele>10.0</ele><time>2026-04-17T00:37:47.999Z</time></trkpt><trkpt lat="-24.860956065633076" lon="113.72552633057872"><ele>10.0</ele><time>2026-04-17T00:37:48.999Z</time></trkpt><trkpt lat="-24.861012263135546" lon="113.72524606584217"><ele>10.0</ele><time>2026-04-17T00:37:49.999Z</time></trkpt><trkpt lat="-24.86106711820561" lon="113.72496689709973"><ele>10.0</ele><time>2026-04-17T00:37:50.999Z</time></trkpt><trkpt lat="-24.861120775528335" lon="113.72468776587301"><ele>10.0</ele><time>2026-04-17T00:37:51.999Z</time></trkpt><trkpt lat="-24.861176421659817" lon="113.7244078543269"><ele>10.5</ele><time>2026-04-17T00:37:52.999Z</time></trkpt><trkpt lat="-24.86123367725695" lon="113.72412654158457"><ele>11.0</ele><time>2026-04-17T00:37:53.999Z</time></trkpt><trkpt lat="-24.861291362010526" lon="113.7238468024724"><ele>10.5</ele><time>2026-04-17T00:37:54.999Z</time></trkpt><trkpt lat="-24.86134923478839" lon="113.72356197277881"><ele>10.0</ele><time>2026-04-17T00:37:55.999Z</time></trkpt><trkpt lat="-24.861408624034045" lon="113.7232765281067"><ele>10.0</ele><time>2026-04-17T00:37:56.999Z</time></trkpt><trkpt lat="-24.861469348793012" lon="113.72298719276499"><ele>10.0</ele><time>2026-04-17T00:37:57.999Z</time></trkpt><trkpt lat="-24.86153170490022" lon="113.72269217124841"><ele>10.0</ele><time>2026-04-17T00:37:58.999Z</time></trkpt><trkpt lat="-24.861595130295562" lon="113.72239553380928"><ele>10.0</ele><time>2026-04-17T00:37:59.999Z</time></trkpt><trkpt lat="-24.861655684944733" lon="113.72209821635289"><ele>10.0</ele><time>2026-04-17T00:38:00.999Z</time></trkpt><trkpt lat="-24.861714728262914" lon="113.72179927592217"><ele>10.0</ele><time>2026-04-17T00:38:01.999Z</time></trkpt><trkpt lat="-24.86177449830239" lon="113.72150342195208"><ele>10.0</ele><time>2026-04-17T00:38:02.999Z</time></trkpt><trkpt lat="-24.861833188281683" lon="113.72120679418131"><ele>10.0</ele><time>2026-04-17T00:38:03.999Z</time></trkpt><trkpt lat="-24.861889169357255" lon="113.72091337256701"><ele>9.5</ele><time>2026-04-17T00:38:04.999Z</time></trkpt><trkpt lat="-24.861943455781013" lon="113.72062102585046"><ele>9.0</ele><time>2026-04-17T00:38:05.999Z</time></trkpt><trkpt lat="-24.86199577232976" lon="113.72032443541768"><ele>10.0</ele><time>2026-04-17T00:38:06.999Z</time></trkpt><trkpt lat="-24.862043981577308" lon="113.72002738488544"><ele>11.0</ele><time>2026-04-17T00:38:07.999Z</time></trkpt><trkpt lat="-24.862088096431098" lon="113.71973507987263"><ele>11.0</ele><time>2026-04-17T00:38:08.999Z</time></trkpt><trkpt lat="-24.86212633769486" lon="113.71944436273792"><ele>11.0</ele><time>2026-04-17T00:38:09.999Z</time></trkpt><trkpt lat="-24.862177767913543" lon="113.71915237930298"><ele>10.5</ele><time>2026-04-17T00:38:10.999Z</time></trkpt><trkpt lat="-24.86221482596061" lon="113.71885984343237"><ele>10.0</ele><time>2026-04-17T00:38:11.999Z</time></trkpt><trkpt lat="-24.862214065649667" lon="113.718561516359"><ele>9.0</ele><time>2026-04-17T00:38:12.999Z</time></trkpt><trkpt lat="-24.862229627614628" lon="113.7182655381546"><ele>8.0</ele><time>2026-04-17T00:38:13.999Z</time></trkpt><trkpt lat="-24.862241000058713" lon="113.71797153295876"><ele>8.5</ele><time>2026-04-17T00:38:14.999Z</time></trkpt><trkpt lat="-24.862247260117318" lon="113.71768070870773"><ele>9.0</ele><time>2026-04-17T00:38:15.999Z</time></trkpt><trkpt lat="-24.86224765214606" lon="113.71739416736771"><ele>9.0</ele><time>2026-04-17T00:38:16.999Z</time></trkpt><trkpt lat="-24.862243210011343" lon="113.71710840677821"><ele>9.0</ele><time>2026-04-17T00:38:17.999Z</time></trkpt><trkpt lat="-24.862233647955364" lon="113.71682662824938"><ele>11.0</ele><time>2026-04-17T00:38:18.999Z</time></trkpt><trkpt lat="-24.86221752068713" lon="113.7165486504003"><ele>13.0</ele><time>2026-04-17T00:38:19.999Z</time></trkpt><trkpt lat="-24.86219819547821" lon="113.71627393623871"><ele>12.0</ele><time>2026-04-17T00:38:20.999Z</time></trkpt><trkpt lat="-24.86217637125928" lon="113.71600813723259"><ele>11.0</ele><time>2026-04-17T00:38:21.999Z</time></trkpt><trkpt lat="-24.86215341787918" lon="113.71574469856809"><ele>11.0</ele><time>2026-04-17T00:38:22.999Z</time></trkpt><trkpt lat="-24.862129912645017" lon="113.71548992679404"><ele>11.0</ele><time>2026-04-17T00:38:23.999Z</time></trkpt><trkpt lat="-24.86210575207833" lon="113.71524359576479"><ele>11.0</ele><time>2026-04-17T00:38:24.999Z</time></trkpt><trkpt lat="-24.86208432844192" lon="113.71500090471123"><ele>11.0</ele><time>2026-04-17T00:38:25.999Z</time></trkpt><trkpt lat="-24.86206650174162" lon="113.71476463569003"><ele>11.0</ele><time>2026-04-17T00:38:26.999Z</time></trkpt><trkpt lat="-24.862052264711146" lon="113.71454152271286"><ele>11.333333333333332</ele><time>2026-04-17T00:38:27.999Z</time></trkpt><trkpt lat="-24.86204260539676" lon="113.7143294500833"><ele>11.666666666666666</ele><time>2026-04-17T00:38:28.999Z</time></trkpt><trkpt lat="-24.862036990202018" lon="113.71413928778765"><ele>12.0</ele><time>2026-04-17T00:38:29.999Z</time></trkpt><trkpt lat="-24.862034707607897" lon="113.71398429029743"><ele>12.0</ele><time>2026-04-17T00:38:30.999Z</time></trkpt><trkpt lat="-24.862039591671078" lon="113.71387098950942"><ele>12.0</ele><time>2026-04-17T00:38:31.999Z</time></trkpt><trkpt lat="-24.8620601912976" lon="113.71379413115658"><ele>12.0</ele><time>2026-04-17T00:38:32.999Z</time></trkpt><trkpt lat="-24.86209762212221" lon="113.7137367326785"><ele>12.0</ele><time>2026-04-17T00:38:33.999Z</time></trkpt><trkpt lat="-24.862152096779106" lon="113.71368841634234"><ele>12.0</ele><time>2026-04-17T00:38:34.999Z</time></trkpt><trkpt lat="-24.862225619706745" lon="113.71365699914028"><ele>12.0</ele><time>2026-04-17T00:38:35.999Z</time></trkpt><trkpt lat="-24.86230662231787" lon="113.71363858825666"><ele>12.0</ele><time>2026-04-17T00:38:36.999Z</time></trkpt><trkpt lat="-24.862397993170077" lon="113.71363364617267"><ele>12.0</ele><time>2026-04-17T00:38:37.999Z</time></trkpt><trkpt lat="-24.862481102318547" lon="113.71363094257028"><ele>12.0</ele><time>2026-04-17T00:38:38.999Z</time></trkpt><trkpt lat="-24.862553953635867" lon="113.7136226669041"><ele>12.0</ele><time>2026-04-17T00:38:39.999Z</time></trkpt><trkpt lat="-24.862658701269805" lon="113.71358177201132"><ele>12.0</ele><time>2026-04-17T00:38:41.999Z</time></trkpt><trkpt lat="-24.862707587529155" lon="113.71348210300891"><ele>12.0</ele><time>2026-04-17T00:38:43.999Z</time></trkpt><trkpt lat="-24.86268895441045" lon="113.71337044507511"><ele>12.0</ele><time>2026-04-17T00:38:45.999Z</time></trkpt><trkpt lat="-24.862651368444315" lon="113.7133096435333"><ele>12.0</ele><time>2026-04-17T00:38:46.999Z</time></trkpt><trkpt lat="-24.86260685023847" lon="113.71324961708855"><ele>12.0</ele><time>2026-04-17T00:38:47.999Z</time></trkpt><trkpt lat="-24.86256200152713" lon="113.7131928890316"><ele>12.0</ele><time>2026-04-17T00:38:48.999Z</time></trkpt><trkpt lat="-24.86251765005454" lon="113.71314165362183"><ele>12.0</ele><time>2026-04-17T00:38:49.999Z</time></trkpt><trkpt lat="-24.862460948538764" lon="113.71306647999246"><ele>11.857142857142856</ele><time>2026-04-17T00:38:51.999Z</time></trkpt><trkpt lat="-24.862402907337444" lon="113.71302875324469"><ele>11.714285714285714</ele><time>2026-04-17T00:38:53.999Z</time></trkpt><trkpt lat="-24.862338818478577" lon="113.71303686506303"><ele>11.571428571428571</ele><time>2026-04-17T00:38:55.999Z</time></trkpt><trkpt lat="-24.862254658206627" lon="113.71303457946735"><ele>11.428571428571427</ele><time>2026-04-17T00:38:58.999Z</time></trkpt><trkpt lat="-24.862176139652668" lon="113.71300079174134"><ele>11.285714285714285</ele><time>2026-04-17T00:39:01.999Z</time></trkpt><trkpt lat="-24.862109623955522" lon="113.7129866827209"><ele>11.142857142857142</ele><time>2026-04-17T00:39:03.999Z</time></trkpt><trkpt lat="-24.86210736700544" lon="113.71290953423679"><ele>11.0</ele><time>2026-04-17T00:39:06.999Z</time></trkpt><trkpt lat="-24.862161094323987" lon="113.71281628519361"><ele>11.166666666666666</ele><time>2026-04-17T00:39:08.999Z</time></trkpt><trkpt lat="-24.862172715801847" lon="113.71268988661372"><ele>11.333333333333332</ele><time>2026-04-17T00:39:10.999Z</time></trkpt><trkpt lat="-24.862172656949458" lon="113.7126164411829"><ele>11.5</ele><time>2026-04-17T00:39:11.999Z</time></trkpt><trkpt lat="-24.862173758478658" lon="113.712541246512"><ele>11.666666666666666</ele><time>2026-04-17T00:39:12.999Z</time></trkpt><trkpt lat="-24.86216882252229" lon="113.71247010604125"><ele>11.833333333333334</ele><time>2026-04-17T00:39:13.999Z</time></trkpt><trkpt lat="-24.86215685338458" lon="113.71235051124326"><ele>12.0</ele><time>2026-04-17T00:39:15.999Z</time></trkpt><trkpt lat="-24.862148845842096" lon="113.7122401270934"><ele>12.0</ele><time>2026-04-17T00:39:17.999Z</time></trkpt><trkpt lat="-24.862103177287644" lon="113.71215432983337"><ele>12.0</ele><time>2026-04-17T00:39:19.999Z</time></trkpt><trkpt lat="-24.861993778071238" lon="113.71214661481774"><ele>12.0</ele><time>2026-04-17T00:39:21.999Z</time></trkpt><trkpt lat="-24.861907219710627" lon="113.71214281528721"><ele>12.0</ele><time>2026-04-17T00:39:23.999Z</time></trkpt><trkpt lat="-24.86182650922631" lon="113.71212673931885"><ele>12.0</ele><time>2026-04-17T00:39:26.999Z</time></trkpt><trkpt lat="-24.86177091046953" lon="113.71197566464791"><ele>12.0</ele><time>2026-04-17T00:39:28.999Z</time></trkpt><trkpt lat="-24.86175782500722" lon="113.71187463952266"><ele>12.0</ele><time>2026-04-17T00:39:29.999Z</time></trkpt><trkpt lat="-24.86174273258041" lon="113.71175605403691"><ele>12.0</ele><time>2026-04-17T00:39:30.999Z</time></trkpt><trkpt lat="-24.861724348141838" lon="113.71160605709431"><ele>12.0</ele><time>2026-04-17T00:39:31.999Z</time></trkpt><trkpt lat="-24.861704125040173" lon="113.7114348665549"><ele>12.0</ele><time>2026-04-17T00:39:32.999Z</time></trkpt><trkpt lat="-24.861683562652065" lon="113.71124880545902"><ele>12.0</ele><time>2026-04-17T00:39:33.999Z</time></trkpt><trkpt lat="-24.861664311532664" lon="113.71106237220066"><ele>12.0</ele><time>2026-04-17T00:39:34.999Z</time></trkpt><trkpt lat="-24.86164493580802" lon="113.71085568913857"><ele>12.333333333333332</ele><time>2026-04-17T00:39:35.999Z</time></trkpt><trkpt lat="-24.861624876349893" lon="113.71063515770139"><ele>12.666666666666666</ele><time>2026-04-17T00:39:36.999Z</time></trkpt><trkpt lat="-24.861595731901804" lon="113.71039904096115"><ele>13.0</ele><time>2026-04-17T00:39:37.999Z</time></trkpt><trkpt lat="-24.861589543239724" lon="113.71015932067546"><ele>13.333333333333332</ele><time>2026-04-17T00:39:38.999Z</time></trkpt><trkpt lat="-24.86157140793356" lon="113.70992307080768"><ele>13.666666666666668</ele><time>2026-04-17T00:39:39.999Z</time></trkpt><trkpt lat="-24.861551510953525" lon="113.7096760363008"><ele>14.0</ele><time>2026-04-17T00:39:40.999Z</time></trkpt><trkpt lat="-24.8615364888373" lon="113.70941990054183"><ele>13.5</ele><time>2026-04-17T00:39:41.999Z</time></trkpt><trkpt lat="-24.861525176477564" lon="113.70917483772558"><ele>13.0</ele><time>2026-04-17T00:39:42.999Z</time></trkpt><trkpt lat="-24.861511803214682" lon="113.70892192566247"><ele>13.0</ele><time>2026-04-17T00:39:43.999Z</time></trkpt><trkpt lat="-24.861500545943276" lon="113.70867154741845"><ele>13.0</ele><time>2026-04-17T00:39:44.999Z</time></trkpt><trkpt lat="-24.86148838410255" lon="113.70841702383683"><ele>13.5</ele><time>2026-04-17T00:39:45.999Z</time></trkpt><trkpt lat="-24.861474637959976" lon="113.70815840075177"><ele>14.0</ele><time>2026-04-17T00:39:46.999Z</time></trkpt><trkpt lat="-24.861460758455802" lon="113.70789687562606"><ele>14.0</ele><time>2026-04-17T00:39:47.999Z</time></trkpt><trkpt lat="-24.861446013683487" lon="113.70763229992069"><ele>14.0</ele><time>2026-04-17T00:39:48.999Z</time></trkpt><trkpt lat="-24.861430029757187" lon="113.70735750675092"><ele>14.0</ele><time>2026-04-17T00:39:49.999Z</time></trkpt><trkpt lat="-24.86141569195373" lon="113.70708229425688"><ele>14.0</ele><time>2026-04-17T00:39:50.999Z</time></trkpt><trkpt lat="-24.861403443340738" lon="113.70681820492455"><ele>13.5</ele><time>2026-04-17T00:39:51.999Z</time></trkpt><trkpt lat="-24.86139302414604" lon="113.70654777137119"><ele>13.0</ele><time>2026-04-17T00:39:52.999Z</time></trkpt><trkpt lat="-24.861385128836613" lon="113.70627396418395"><ele>12.5</ele><time>2026-04-17T00:39:53.999Z</time></trkpt><trkpt lat="-24.861383643803833" lon="113.70600097423686"><ele>12.0</ele><time>2026-04-17T00:39:54.999Z</time></trkpt><trkpt lat="-24.86139015621598" lon="113.70573013676399"><ele>12.0</ele><time>2026-04-17T00:39:55.999Z</time></trkpt><trkpt lat="-24.861405395029426" lon="113.70546788976397"><ele>12.0</ele><time>2026-04-17T00:39:56.999Z</time></trkpt><trkpt lat="-24.86143066742947" lon="113.70521702499634"><ele>11.666666666666666</ele><time>2026-04-17T00:39:57.999Z</time></trkpt><trkpt lat="-24.861468827743106" lon="113.70497851551906"><ele>11.333333333333332</ele><time>2026-04-17T00:39:58.999Z</time></trkpt><trkpt lat="-24.86151348188884" lon="113.70473663643594"><ele>11.0</ele><time>2026-04-17T00:39:59.999Z</time></trkpt><trkpt lat="-24.86156786694721" lon="113.70449473048123"><ele>10.666666666666666</ele><time>2026-04-17T00:40:00.999Z</time></trkpt><trkpt lat="-24.86162380341696" lon="113.7042576888089"><ele>10.333333333333334</ele><time>2026-04-17T00:40:01.999Z</time></trkpt><trkpt lat="-24.861682586372222" lon="113.70403705899734"><ele>10.0</ele><time>2026-04-17T00:40:02.999Z</time></trkpt><trkpt lat="-24.86173897659907" lon="113.7038274783489"><ele>10.333333333333334</ele><time>2026-04-17T00:40:03.999Z</time></trkpt><trkpt lat="-24.861792925925823" lon="113.70363320435763"><ele>10.666666666666666</ele><time>2026-04-17T00:40:04.999Z</time></trkpt><trkpt lat="-24.86184619681294" lon="113.70344490565766"><ele>11.0</ele><time>2026-04-17T00:40:05.999Z</time></trkpt><trkpt lat="-24.861900529506705" lon="113.70325761026561"><ele>11.0</ele><time>2026-04-17T00:40:06.999Z</time></trkpt><trkpt lat="-24.861954207344073" lon="113.7030729664851"><ele>11.0</ele><time>2026-04-17T00:40:07.999Z</time></trkpt><trkpt lat="-24.86200473291687" lon="113.70289969229815"><ele>11.0</ele><time>2026-04-17T00:40:08.999Z</time></trkpt><trkpt lat="-24.862052186046448" lon="113.70273247833755"><ele>11.0</ele><time>2026-04-17T00:40:09.999Z</time></trkpt><trkpt lat="-24.862094464444315" lon="113.70257402841723"><ele>11.0</ele><time>2026-04-17T00:40:10.999Z</time></trkpt><trkpt lat="-24.862135337135385" lon="113.70242269795645"><ele>11.0</ele><time>2026-04-17T00:40:11.999Z</time></trkpt><trkpt lat="-24.86217581335895" lon="113.70227208549636"><ele>11.0</ele><time>2026-04-17T00:40:12.999Z</time></trkpt><trkpt lat="-24.86221852749103" lon="113.70212355709089"><ele>11.0</ele><time>2026-04-17T00:40:13.999Z</time></trkpt><trkpt lat="-24.862261054268483" lon="113.70198220198499"><ele>11.0</ele><time>2026-04-17T00:40:14.999Z</time></trkpt><trkpt lat="-24.86229874759805" lon="113.70184949038327"><ele>11.0</ele><time>2026-04-17T00:40:15.999Z</time></trkpt><trkpt lat="-24.862334227922453" lon="113.7017214017976"><ele>11.0</ele><time>2026-04-17T00:40:16.999Z</time></trkpt><trkpt lat="-24.862370339942903" lon="113.70159177822872"><ele>10.8</ele><time>2026-04-17T00:40:17.999Z</time></trkpt><trkpt lat="-24.86240378427316" lon="113.70146787877033"><ele>10.600000000000001</ele><time>2026-04-17T00:40:18.999Z</time></trkpt><trkpt lat="-24.862435733758716" lon="113.70135585892757"><ele>10.4</ele><time>2026-04-17T00:40:19.999Z</time></trkpt><trkpt lat="-24.862469598690986" lon="113.70125321113959"><ele>10.2</ele><time>2026-04-17T00:40:20.999Z</time></trkpt><trkpt lat="-24.862500121739014" lon="113.7011565338795"><ele>10.0</ele><time>2026-04-17T00:40:21.999Z</time></trkpt><trkpt lat="-24.862524894783956" lon="113.7010679962058"><ele>10.4</ele><time>2026-04-17T00:40:22.999Z</time></trkpt><trkpt lat="-24.862544697306223" lon="113.70099386152633"><ele>10.8</ele><time>2026-04-17T00:40:23.999Z</time></trkpt><trkpt lat="-24.862560410068458" lon="113.70091137821495"><ele>11.2</ele><time>2026-04-17T00:40:25.999Z</time></trkpt><trkpt lat="-24.862459960718414" lon="113.70083504469096"><ele>11.6</ele><time>2026-04-17T00:40:27.999Z</time></trkpt><trkpt lat="-24.86239764828747" lon="113.70101454569408"><ele>12.0</ele><time>2026-04-17T00:40:30.999Z</time></trkpt><trkpt lat="-24.862299333645744" lon="113.70105666971045"><ele>11.666666666666666</ele><time>2026-04-17T00:40:32.999Z</time></trkpt><trkpt lat="-24.862275831390278" lon="113.70112154012517"><ele>11.333333333333334</ele><time>2026-04-17T00:40:34.999Z</time></trkpt><trkpt lat="-24.862339612363677" lon="113.70111803547128"><ele>11.0</ele><time>2026-04-17T00:47:18.001Z</time></trkpt><trkpt lat="-24.8622251054601" lon="113.70116620701928"><ele>10.666666666666668</ele><time>2026-04-17T00:56:08Z</time></trkpt><trkpt lat="-24.862216649144337" lon="113.70124211012777"><ele>10.333333333333334</ele><time>2026-04-17T00:56:09Z</time></trkpt><trkpt lat="-24.862227667580637" lon="113.7013635822235"><ele>10.0</ele><time>2026-04-17T00:56:11Z</time></trkpt><trkpt lat="-24.862230944226123" lon="113.70144150876179"><ele>10.0</ele><time>2026-04-17T00:56:13Z</time></trkpt><trkpt lat="-24.86225000665094" lon="113.70153789456714"><ele>10.0</ele><time>2026-04-17T00:56:15Z</time></trkpt><trkpt lat="-24.862268698441497" lon="113.70162400866901"><ele>10.0</ele><time>2026-04-17T00:56:19Z</time></trkpt><trkpt lat="-24.86241702347648" lon="113.70160768364828"><ele>10.0</ele><time>2026-04-17T00:56:21Z</time></trkpt><trkpt lat="-24.862485968980398" lon="113.70167363034457"><ele>10.0</ele><time>2026-04-17T00:56:22Z</time></trkpt><trkpt lat="-24.86257019767567" lon="113.7016872808933"><ele>10.4</ele><time>2026-04-17T00:56:23Z</time></trkpt><trkpt lat="-24.862669034091535" lon="113.70168785335672"><ele>10.8</ele><time>2026-04-17T00:56:24Z</time></trkpt><trkpt lat="-24.862775206373755" lon="113.70168772635692"><ele>11.2</ele><time>2026-04-17T00:56:25Z</time></trkpt><trkpt lat="-24.862881268203736" lon="113.70168753056082"><ele>11.6</ele><time>2026-04-17T00:56:26Z</time></trkpt><trkpt lat="-24.863005311298892" lon="113.70168779250051"><ele>12.0</ele><time>2026-04-17T00:56:27Z</time></trkpt><trkpt lat="-24.863141172989664" lon="113.70169019554871"><ele>12.0</ele><time>2026-04-17T00:56:28Z</time></trkpt><trkpt lat="-24.863275180081708" lon="113.70169373937817"><ele>12.0</ele><time>2026-04-17T00:56:29Z</time></trkpt><trkpt lat="-24.86340247439711" lon="113.70169536975615"><ele>12.0</ele><time>2026-04-17T00:56:30Z</time></trkpt><trkpt lat="-24.863524536438774" lon="113.70169508188441"><ele>12.0</ele><time>2026-04-17T00:56:31Z</time></trkpt><trkpt lat="-24.863650045660894" lon="113.70169050489346"><ele>12.333333333333334</ele><time>2026-04-17T00:56:32Z</time></trkpt><trkpt lat="-24.863762747826424" lon="113.70169131078998"><ele>12.666666666666668</ele><time>2026-04-17T00:56:33Z</time></trkpt><trkpt lat="-24.863862308060995" lon="113.70169106331711"><ele>13.0</ele><time>2026-04-17T00:56:34Z</time></trkpt><trkpt lat="-24.86395147532415" lon="113.70168918649604"><ele>13.333333333333334</ele><time>2026-04-17T00:56:35Z</time></trkpt><trkpt lat="-24.864013584550275" lon="113.70166460201467"><ele>13.666666666666668</ele><time>2026-04-17T00:56:36Z</time></trkpt><trkpt lat="-24.864078422154048" lon="113.70165691751997"><ele>14.0</ele><time>2026-04-17T00:56:37Z</time></trkpt><trkpt lat="-24.864140069468622" lon="113.70159082627785"><ele>14.000000000000002</ele><time>2026-04-17T00:56:38Z</time></trkpt><trkpt lat="-24.864196056005916" lon="113.70154966190341"><ele>14.0</ele><time>2026-04-17T00:56:39Z</time></trkpt><trkpt lat="-24.86425337927955" lon="113.7015166026392"><ele>14.0</ele><time>2026-04-17T00:56:40Z</time></trkpt><trkpt lat="-24.864369349689895" lon="113.70149529534102"><ele>14.0</ele><time>2026-04-17T00:56:42Z</time></trkpt><trkpt lat="-24.864468255910314" lon="113.70150771263124"><ele>14.000000000000002</ele><time>2026-04-17T00:56:44Z</time></trkpt><trkpt lat="-24.864546059966937" lon="113.7015008622347"><ele>14.0</ele><time>2026-04-17T00:56:46Z</time></trkpt><trkpt lat="-24.86462166164237" lon="113.70149379371401"><ele>14.000000000000002</ele><time>2026-04-17T00:56:48Z</time></trkpt><trkpt lat="-24.864691141474474" lon="113.70149133715715"><ele>14.0</ele><time>2026-04-17T00:56:50Z</time></trkpt><trkpt lat="-24.864756966330916" lon="113.70148838647198"><ele>14.0</ele><time>2026-04-17T00:56:52Z</time></trkpt><trkpt lat="-24.864837179099286" lon="113.70147957962656"><ele>14.0</ele><time>2026-04-17T00:56:54Z</time></trkpt><trkpt lat="-24.864941382611462" lon="113.70148393363678"><ele>14.000000000000002</ele><time>2026-04-17T00:56:56Z</time></trkpt><trkpt lat="-24.865027667515516" lon="113.7015204034191"><ele>14.0</ele><time>2026-04-17T00:56:58Z</time></trkpt><trkpt lat="-24.8650653280099" lon="113.70158468290884"><ele>14.0</ele><time>2026-04-17T00:57:01Z</time></trkpt><trkpt lat="-24.864997949494466" lon="113.70161989439546"><ele>13.999999999999998</ele><time>2026-04-17T00:57:05Z</time></trkpt><trkpt lat="-24.86484920801518" lon="113.70163175424392"><ele>13.999999999999998</ele><time>2026-04-17T00:57:07Z</time></trkpt><trkpt lat="-24.864754399808067" lon="113.70162701487662"><ele>14.0</ele><time>2026-04-17T00:57:08Z</time></trkpt><trkpt lat="-24.864652073234236" lon="113.7016344542293"><ele>14.0</ele><time>2026-04-17T00:57:09Z</time></trkpt><trkpt lat="-24.864550779649992" lon="113.70163573871712"><ele>14.0</ele><time>2026-04-17T00:57:10Z</time></trkpt><trkpt lat="-24.86443447522508" lon="113.70163654150916"><ele>14.0</ele><time>2026-04-17T00:57:11Z</time></trkpt><trkpt lat="-24.86430295030388" lon="113.70163800036234"><ele>14.0</ele><time>2026-04-17T00:57:12Z</time></trkpt><trkpt lat="-24.86416536637546" lon="113.70163484998905"><ele>14.0</ele><time>2026-04-17T00:57:13Z</time></trkpt><trkpt lat="-24.864026692315846" lon="113.70163383763597"><ele>14.0</ele><time>2026-04-17T00:57:14Z</time></trkpt><trkpt lat="-24.863877572392884" lon="113.70163319734131"><ele>14.0</ele><time>2026-04-17T00:57:15Z</time></trkpt></trkseg><trkseg><trkpt lat="-24.862265139954435" lon="113.70100332703095"><ele>12.0</ele><time>2026-04-17T01:28:51Z</time></trkpt><trkpt lat="-24.862259055178942" lon="113.70107669254378"><ele>12.0</ele><time>2026-04-17T01:28:53Z</time></trkpt><trkpt lat="-24.86225726715888" lon="113.70117465143525"><ele>12.0</ele><time>2026-04-17T01:28:55Z</time></trkpt><trkpt lat="-24.862223605158608" lon="113.70123988542605"><ele>12.0</ele><time>2026-04-17T01:28:56Z</time></trkpt><trkpt lat="-24.862213258274025" lon="113.70133476738272"><ele>12.0</ele><time>2026-04-17T01:28:58Z</time></trkpt><trkpt lat="-24.86224770564862" lon="113.70141960145926"><ele>12.0</ele><time>2026-04-17T01:29:00Z</time></trkpt><trkpt lat="-24.862281116179332" lon="113.70149237358815"><ele>11.8</ele><time>2026-04-17T01:29:02Z</time></trkpt><trkpt lat="-24.86228747590311" lon="113.70156455394536"><ele>11.6</ele><time>2026-04-17T01:29:04Z</time></trkpt><trkpt lat="-24.862300713026805" lon="113.70168932486516"><ele>11.4</ele><time>2026-04-17T01:29:06Z</time></trkpt><trkpt lat="-24.862285861787438" lon="113.70176888022499"><ele>11.200000000000001</ele><time>2026-04-17T01:29:07Z</time></trkpt><trkpt lat="-24.862252367378787" lon="113.70186828151337"><ele>11.0</ele><time>2026-04-17T01:29:08Z</time></trkpt><trkpt lat="-24.862213982303874" lon="113.70198294352411"><ele>11.0</ele><time>2026-04-17T01:29:09Z</time></trkpt><trkpt lat="-24.86218148896506" lon="113.70208785613394"><ele>11.0</ele><time>2026-04-17T01:29:10Z</time></trkpt><trkpt lat="-24.862143155926628" lon="113.70220760767398"><ele>11.0</ele><time>2026-04-17T01:29:11Z</time></trkpt><trkpt lat="-24.862102484073535" lon="113.7023396115564"><ele>11.0</ele><time>2026-04-17T01:29:12Z</time></trkpt><trkpt lat="-24.862064147629486" lon="113.70248558148768"><ele>11.0</ele><time>2026-04-17T01:29:13Z</time></trkpt><trkpt lat="-24.862021856590836" lon="113.70263808390538"><ele>11.0</ele><time>2026-04-17T01:29:14Z</time></trkpt><trkpt lat="-24.861982067985423" lon="113.70278854775316"><ele>11.0</ele><time>2026-04-17T01:29:15Z</time></trkpt><trkpt lat="-24.861939314832508" lon="113.70294902631309"><ele>11.0</ele><time>2026-04-17T01:29:16Z</time></trkpt><trkpt lat="-24.861886085277217" lon="113.7031169071064"><ele>11.25</ele><time>2026-04-17T01:29:17Z</time></trkpt><trkpt lat="-24.861838242425545" lon="113.70328782100408"><ele>11.5</ele><time>2026-04-17T01:29:18Z</time></trkpt><trkpt lat="-24.861791453969715" lon="113.70344466221415"><ele>11.75</ele><time>2026-04-17T01:29:19Z</time></trkpt><trkpt lat="-24.861749381840365" lon="113.70358823437645"><ele>12.0</ele><time>2026-04-17T01:29:20Z</time></trkpt><trkpt lat="-24.861712465985004" lon="113.7037255382444"><ele>11.5</ele><time>2026-04-17T01:29:21Z</time></trkpt><trkpt lat="-24.861680594046007" lon="113.70385447847082"><ele>11.0</ele><time>2026-04-17T01:29:22Z</time></trkpt><trkpt lat="-24.861648946112485" lon="113.70397882604544"><ele>10.5</ele><time>2026-04-17T01:29:23Z</time></trkpt><trkpt lat="-24.861612256734496" lon="113.70410738868782"><ele>10.0</ele><time>2026-04-17T01:29:24Z</time></trkpt><trkpt lat="-24.861570935886682" lon="113.70424915791645"><ele>10.0</ele><time>2026-04-17T01:29:25Z</time></trkpt><trkpt lat="-24.861531287764407" lon="113.70439671896729"><ele>10.0</ele><time>2026-04-17T01:29:26Z</time></trkpt><trkpt lat="-24.861498571093577" lon="113.70454812471597"><ele>10.0</ele><time>2026-04-17T01:29:27Z</time></trkpt><trkpt lat="-24.86147483024437" lon="113.70470602262368"><ele>10.0</ele><time>2026-04-17T01:29:28Z</time></trkpt><trkpt lat="-24.861451988456466" lon="113.70484350612973"><ele>10.2</ele><time>2026-04-17T01:29:29Z</time></trkpt><trkpt lat="-24.861433452854598" lon="113.70496874255346"><ele>10.4</ele><time>2026-04-17T01:29:30Z</time></trkpt><trkpt lat="-24.861407306219206" lon="113.70506765709881"><ele>10.600000000000001</ele><time>2026-04-17T01:29:31Z</time></trkpt><trkpt lat="-24.86137540581798" lon="113.70513465229597"><ele>10.8</ele><time>2026-04-17T01:29:32Z</time></trkpt><trkpt lat="-24.86133445683238" lon="113.70518831655812"><ele>11.0</ele><time>2026-04-17T01:29:33Z</time></trkpt><trkpt lat="-24.86118598791753" lon="113.70521564187959"><ele>11.0</ele><time>2026-04-17T01:29:35Z</time></trkpt><trkpt lat="-24.861083987510387" lon="113.70521580530033"><ele>11.0</ele><time>2026-04-17T01:29:36Z</time></trkpt><trkpt lat="-24.860962694018223" lon="113.70521481855293"><ele>11.0</ele><time>2026-04-17T01:29:37Z</time></trkpt><trkpt lat="-24.86082708220171" lon="113.7052096216398"><ele>11.0</ele><time>2026-04-17T01:29:38Z</time></trkpt><trkpt lat="-24.860679393464896" lon="113.70520613920955"><ele>10.666666666666666</ele><time>2026-04-17T01:29:39Z</time></trkpt><trkpt lat="-24.860531268470304" lon="113.70520922235012"><ele>10.333333333333334</ele><time>2026-04-17T01:29:40Z</time></trkpt><trkpt lat="-24.860373237885742" lon="113.7052100205839"><ele>10.0</ele><time>2026-04-17T01:29:41Z</time></trkpt><trkpt lat="-24.86020272802755" lon="113.70521058625899"><ele>10.75</ele><time>2026-04-17T01:29:42Z</time></trkpt><trkpt lat="-24.8600406124663" lon="113.70521042835661"><ele>11.5</ele><time>2026-04-17T01:29:43Z</time></trkpt><trkpt lat="-24.859895055632713" lon="113.70521225311698"><ele>12.25</ele><time>2026-04-17T01:29:44Z</time></trkpt><trkpt lat="-24.859759569711592" lon="113.70521241721183"><ele>13.0</ele><time>2026-04-17T01:29:45Z</time></trkpt><trkpt lat="-24.859631496452483" lon="113.70520797510365"><ele>13.0</ele><time>2026-04-17T01:29:46Z</time></trkpt><trkpt lat="-24.85951292198179" lon="113.70520204901467"><ele>13.0</ele><time>2026-04-17T01:29:47Z</time></trkpt><trkpt lat="-24.85940443416984" lon="113.70519841693675"><ele>13.0</ele><time>2026-04-17T01:29:48Z</time></trkpt><trkpt lat="-24.859309528336603" lon="113.7052003751607"><ele>13.0</ele><time>2026-04-17T01:29:49Z</time></trkpt><trkpt lat="-24.859227376673527" lon="113.70520360509504"><ele>13.0</ele><time>2026-04-17T01:29:50Z</time></trkpt><trkpt lat="-24.859153264896616" lon="113.70520945203918"><ele>12.8</ele><time>2026-04-17T01:29:51Z</time></trkpt><trkpt lat="-24.859089883160394" lon="113.70522443130882"><ele>12.600000000000001</ele><time>2026-04-17T01:29:52Z</time></trkpt><trkpt lat="-24.858994039552854" lon="113.70524536830985"><ele>12.399999999999999</ele><time>2026-04-17T01:29:54Z</time></trkpt><trkpt lat="-24.85898306061535" lon="113.70544269537724"><ele>12.2</ele><time>2026-04-17T01:29:55.999Z</time></trkpt><trkpt lat="-24.85897869912966" lon="113.70551572794845"><ele>12.0</ele><time>2026-04-17T01:29:56.999Z</time></trkpt><trkpt lat="-24.858971733828053" lon="113.70563045090671"><ele>12.0</ele><time>2026-04-17T01:29:59Z</time></trkpt><trkpt lat="-24.858978118566156" lon="113.7057258126858"><ele>12.0</ele><time>2026-04-17T01:30:11Z</time></trkpt><trkpt lat="-24.85898336843082" lon="113.70580070029705"><ele>12.0</ele><time>2026-04-17T01:30:12Z</time></trkpt><trkpt lat="-24.85898443194124" lon="113.70589483434972"><ele>12.0</ele><time>2026-04-17T01:30:13Z</time></trkpt><trkpt lat="-24.85898813011152" lon="113.70600580565122"><ele>12.0</ele><time>2026-04-17T01:30:14Z</time></trkpt><trkpt lat="-24.85899031123387" lon="113.70613544096736"><ele>12.0</ele><time>2026-04-17T01:30:15Z</time></trkpt><trkpt lat="-24.858992294404846" lon="113.70629056215489"><ele>12.0</ele><time>2026-04-17T01:30:16Z</time></trkpt><trkpt lat="-24.858995579532817" lon="113.7064684147372"><ele>12.0</ele><time>2026-04-17T01:30:17Z</time></trkpt><trkpt lat="-24.85899820418432" lon="113.7066547480766"><ele>12.0</ele><time>2026-04-17T01:30:18Z</time></trkpt><trkpt lat="-24.859000029226895" lon="113.70686502023413"><ele>12.0</ele><time>2026-04-17T01:30:19Z</time></trkpt><trkpt lat="-24.859002993991528" lon="113.70708219475083"><ele>12.0</ele><time>2026-04-17T01:30:20Z</time></trkpt><trkpt lat="-24.859004453993318" lon="113.70730210957987"><ele>12.0</ele><time>2026-04-17T01:30:21Z</time></trkpt><trkpt lat="-24.859009762203566" lon="113.70754009815967"><ele>12.0</ele><time>2026-04-17T01:30:22Z</time></trkpt><trkpt lat="-24.859015939274602" lon="113.70779332418235"><ele>12.0</ele><time>2026-04-17T01:30:23Z</time></trkpt><trkpt lat="-24.859018877408765" lon="113.70804164653703"><ele>12.333333333333332</ele><time>2026-04-17T01:30:24Z</time></trkpt><trkpt lat="-24.85901328871118" lon="113.70828500810501"><ele>12.666666666666666</ele><time>2026-04-17T01:30:25Z</time></trkpt><trkpt lat="-24.858993936211554" lon="113.70852155823238"><ele>13.0</ele><time>2026-04-17T01:30:26Z</time></trkpt><trkpt lat="-24.858957533703624" lon="113.70875817919753"><ele>13.333333333333332</ele><time>2026-04-17T01:30:27Z</time></trkpt><trkpt lat="-24.85890770303694" lon="113.70899707802292"><ele>13.666666666666668</ele><time>2026-04-17T01:30:28Z</time></trkpt><trkpt lat="-24.85884753415769" lon="113.70923706137498"><ele>14.0</ele><time>2026-04-17T01:30:29Z</time></trkpt><trkpt lat="-24.85878031549116" lon="113.70948012745787"><ele>14.0</ele><time>2026-04-17T01:30:30Z</time></trkpt><trkpt lat="-24.858707115820852" lon="113.70972821450074"><ele>14.0</ele><time>2026-04-17T01:30:31Z</time></trkpt><trkpt lat="-24.858633103616114" lon="113.70997033336783"><ele>14.0</ele><time>2026-04-17T01:30:32Z</time></trkpt><trkpt lat="-24.858557196411155" lon="113.71021082838111"><ele>14.0</ele><time>2026-04-17T01:30:33Z</time></trkpt><trkpt lat="-24.858484046831453" lon="113.71045317479057"><ele>13.0</ele><time>2026-04-17T01:30:34Z</time></trkpt><trkpt lat="-24.858409905946175" lon="113.7107032605207"><ele>12.0</ele><time>2026-04-17T01:30:35Z</time></trkpt><trkpt lat="-24.85833514787105" lon="113.71095250997207"><ele>13.0</ele><time>2026-04-17T01:30:36Z</time></trkpt><trkpt lat="-24.858257188019063" lon="113.71120443292298"><ele>14.0</ele><time>2026-04-17T01:30:37Z</time></trkpt><trkpt lat="-24.85817917789424" lon="113.71145796765309"><ele>14.0</ele><time>2026-04-17T01:30:38Z</time></trkpt><trkpt lat="-24.858102026385858" lon="113.71171796072493"><ele>14.0</ele><time>2026-04-17T01:30:39Z</time></trkpt><trkpt lat="-24.858026800521493" lon="113.71197793738234"><ele>14.0</ele><time>2026-04-17T01:30:40Z</time></trkpt><trkpt lat="-24.857952368243964" lon="113.71223797930324"><ele>14.0</ele><time>2026-04-17T01:30:41Z</time></trkpt><trkpt lat="-24.857875647910248" lon="113.71250146284613"><ele>13.0</ele><time>2026-04-17T01:30:42Z</time></trkpt><trkpt lat="-24.857796840092995" lon="113.71276471058633"><ele>12.0</ele><time>2026-04-17T01:30:43Z</time></trkpt><trkpt lat="-24.857717383427254" lon="113.713028091753"><ele>12.0</ele><time>2026-04-17T01:30:44Z</time></trkpt><trkpt lat="-24.85763533841147" lon="113.71330136844436"><ele>12.0</ele><time>2026-04-17T01:30:45Z</time></trkpt><trkpt lat="-24.857553362909332" lon="113.71358221991012"><ele>12.5</ele><time>2026-04-17T01:30:46Z</time></trkpt><trkpt lat="-24.857469422018372" lon="113.71386987891023"><ele>13.0</ele><time>2026-04-17T01:30:47Z</time></trkpt><trkpt lat="-24.857383877790227" lon="113.71416264501923"><ele>13.5</ele><time>2026-04-17T01:30:48Z</time></trkpt><trkpt lat="-24.857297697082537" lon="113.71445590929977"><ele>14.0</ele><time>2026-04-17T01:30:49Z</time></trkpt><trkpt lat="-24.85721328404462" lon="113.714740216575"><ele>14.0</ele><time>2026-04-17T01:30:50Z</time></trkpt><trkpt lat="-24.857131507624434" lon="113.71501900024808"><ele>14.0</ele><time>2026-04-17T01:30:51Z</time></trkpt><trkpt lat="-24.85705443748165" lon="113.71528782612076"><ele>13.5</ele><time>2026-04-17T01:30:52Z</time></trkpt><trkpt lat="-24.856978541500638" lon="113.71555011892119"><ele>13.0</ele><time>2026-04-17T01:30:53Z</time></trkpt><trkpt lat="-24.856900646797964" lon="113.71580661640526"><ele>13.0</ele><time>2026-04-17T01:30:54Z</time></trkpt><trkpt lat="-24.85682403530795" lon="113.71605998008641"><ele>13.0</ele><time>2026-04-17T01:30:55Z</time></trkpt><trkpt lat="-24.85674853775286" lon="113.71630895205838"><ele>13.0</ele><time>2026-04-17T01:30:56Z</time></trkpt><trkpt lat="-24.856673153701152" lon="113.71656438058638"><ele>13.0</ele><time>2026-04-17T01:30:57Z</time></trkpt><trkpt lat="-24.856596535110114" lon="113.71681935416812"><ele>13.5</ele><time>2026-04-17T01:30:58Z</time></trkpt><trkpt lat="-24.856518307264963" lon="113.71707536949717"><ele>14.0</ele><time>2026-04-17T01:30:59Z</time></trkpt><trkpt lat="-24.856439139706218" lon="113.71732646599384"><ele>14.0</ele><time>2026-04-17T01:31:00Z</time></trkpt><trkpt lat="-24.856352649260526" lon="113.71757301576025"><ele>14.0</ele><time>2026-04-17T01:31:01Z</time></trkpt><trkpt lat="-24.856254540650347" lon="113.71780105574518"><ele>13.5</ele><time>2026-04-17T01:31:02Z</time></trkpt><trkpt lat="-24.85614614167126" lon="113.71801797807565"><ele>13.0</ele><time>2026-04-17T01:31:03Z</time></trkpt><trkpt lat="-24.856036303577465" lon="113.71823807051948"><ele>12.0</ele><time>2026-04-17T01:31:04Z</time></trkpt><trkpt lat="-24.85593812581583" lon="113.71847125832731"><ele>11.0</ele><time>2026-04-17T01:31:05Z</time></trkpt><trkpt lat="-24.85585678928801" lon="113.7187118110379"><ele>13.0</ele><time>2026-04-17T01:31:06Z</time></trkpt><trkpt lat="-24.85578986071747" lon="113.71895807917555"><ele>15.0</ele><time>2026-04-17T01:31:07Z</time></trkpt><trkpt lat="-24.855735922747012" lon="113.7192143469295"><ele>15.5</ele><time>2026-04-17T01:31:08Z</time></trkpt><trkpt lat="-24.855692491566007" lon="113.71947779341122"><ele>16.0</ele><time>2026-04-17T01:31:09Z</time></trkpt><trkpt lat="-24.855652166863397" lon="113.71974400490127"><ele>16.0</ele><time>2026-04-17T01:31:10Z</time></trkpt><trkpt lat="-24.855608031101074" lon="113.72001280297675"><ele>16.0</ele><time>2026-04-17T01:31:11Z</time></trkpt><trkpt lat="-24.85555690251968" lon="113.72027943967483"><ele>16.0</ele><time>2026-04-17T01:31:12Z</time></trkpt><trkpt lat="-24.855499256816067" lon="113.72054907457543"><ele>16.0</ele><time>2026-04-17T01:31:13Z</time></trkpt><trkpt lat="-24.8554341745554" lon="113.7208136235221"><ele>16.5</ele><time>2026-04-17T01:31:14Z</time></trkpt><trkpt lat="-24.855357734149738" lon="113.72107463467178"><ele>17.0</ele><time>2026-04-17T01:31:15Z</time></trkpt><trkpt lat="-24.85526891569093" lon="113.72133363407961"><ele>17.0</ele><time>2026-04-17T01:31:16Z</time></trkpt><trkpt lat="-24.85517809012304" lon="113.72159500587584"><ele>17.0</ele><time>2026-04-17T01:31:17Z</time></trkpt><trkpt lat="-24.85508893356191" lon="113.72186064180636"><ele>17.0</ele><time>2026-04-17T01:31:18Z</time></trkpt><trkpt lat="-24.85500019211763" lon="113.72212765051248"><ele>17.0</ele><time>2026-04-17T01:31:19Z</time></trkpt><trkpt lat="-24.854912681427532" lon="113.72239835317576"><ele>17.0</ele><time>2026-04-17T01:31:20Z</time></trkpt><trkpt lat="-24.854833505336053" lon="113.7226735858005"><ele>17.0</ele><time>2026-04-17T01:31:21Z</time></trkpt><trkpt lat="-24.85476621357383" lon="113.72295025602818"><ele>16.0</ele><time>2026-04-17T01:31:22Z</time></trkpt><trkpt lat="-24.854715216854878" lon="113.72322366133515"><ele>15.0</ele><time>2026-04-17T01:31:23Z</time></trkpt><trkpt lat="-24.854675376336864" lon="113.72349430774887"><ele>15.0</ele><time>2026-04-17T01:31:24Z</time></trkpt><trkpt lat="-24.85464401732361" lon="113.7237658578679"><ele>15.0</ele><time>2026-04-17T01:31:24.999Z</time></trkpt><trkpt lat="-24.854610103957242" lon="113.72403702219295"><ele>15.0</ele><time>2026-04-17T01:31:25.999Z</time></trkpt><trkpt lat="-24.85456871489522" lon="113.72430032359162"><ele>15.0</ele><time>2026-04-17T01:31:26.999Z</time></trkpt><trkpt lat="-24.854515584366645" lon="113.7245643202598"><ele>15.5</ele><time>2026-04-17T01:31:27.999Z</time></trkpt><trkpt lat="-24.854446511484124" lon="113.72482072451503"><ele>16.0</ele><time>2026-04-17T01:31:28.999Z</time></trkpt><trkpt lat="-24.85435476710313" lon="113.72507274375738"><ele>14.5</ele><time>2026-04-17T01:31:29.999Z</time></trkpt><trkpt lat="-24.85422346673415" lon="113.7253005173871"><ele>13.0</ele><time>2026-04-17T01:31:30.999Z</time></trkpt><trkpt lat="-24.85410869882736" lon="113.72555077178185"><ele>13.0</ele><time>2026-04-17T01:31:31.999Z</time></trkpt><trkpt lat="-24.85397968455141" lon="113.72579521622716"><ele>13.0</ele><time>2026-04-17T01:31:32.999Z</time></trkpt><trkpt lat="-24.85385641552831" lon="113.72603967135129"><ele>14.0</ele><time>2026-04-17T01:31:33.999Z</time></trkpt><trkpt lat="-24.853732542470613" lon="113.72629059191497"><ele>15.0</ele><time>2026-04-17T01:31:34.999Z</time></trkpt><trkpt lat="-24.853608133666" lon="113.72654180303678"><ele>15.0</ele><time>2026-04-17T01:31:35.999Z</time></trkpt><trkpt lat="-24.853482416790456" lon="113.72679287832254"><ele>15.0</ele><time>2026-04-17T01:31:36.999Z</time></trkpt><trkpt lat="-24.853354830514345" lon="113.72704371926986"><ele>15.5</ele><time>2026-04-17T01:31:37.999Z</time></trkpt><trkpt lat="-24.853229047465682" lon="113.72729708668463"><ele>16.0</ele><time>2026-04-17T01:31:38.999Z</time></trkpt><trkpt lat="-24.853104143780868" lon="113.72755404981791"><ele>15.5</ele><time>2026-04-17T01:31:39.999Z</time></trkpt><trkpt lat="-24.852972442186882" lon="113.72781850349138"><ele>15.0</ele><time>2026-04-17T01:31:40.999Z</time></trkpt><trkpt lat="-24.852841132461027" lon="113.72808356069653"><ele>15.0</ele><time>2026-04-17T01:31:41.999Z</time></trkpt><trkpt lat="-24.85271191152252" lon="113.72834627092743"><ele>15.0</ele><time>2026-04-17T01:31:42.999Z</time></trkpt><trkpt lat="-24.852584868974997" lon="113.72860743699447"><ele>16.5</ele><time>2026-04-17T01:31:43.999Z</time></trkpt><trkpt lat="-24.85245480587995" lon="113.7288697335951"><ele>18.0</ele><time>2026-04-17T01:31:44.999Z</time></trkpt><trkpt lat="-24.85232679854579" lon="113.72913183738955"><ele>18.0</ele><time>2026-04-17T01:31:45.999Z</time></trkpt><trkpt lat="-24.852202119581932" lon="113.72939247839318"><ele>18.0</ele><time>2026-04-17T01:31:46.999Z</time></trkpt><trkpt lat="-24.852076848961815" lon="113.7296546266581"><ele>18.0</ele><time>2026-04-17T01:31:47.999Z</time></trkpt><trkpt lat="-24.851947958105466" lon="113.7299150693146"><ele>18.0</ele><time>2026-04-17T01:31:48.999Z</time></trkpt><trkpt lat="-24.8518179339869" lon="113.73017303064768"><ele>17.0</ele><time>2026-04-17T01:31:49.999Z</time></trkpt><trkpt lat="-24.851688346239683" lon="113.73043247475971"><ele>16.0</ele><time>2026-04-17T01:31:50.999Z</time></trkpt><trkpt lat="-24.85156108269066" lon="113.73069280369316"><ele>16.0</ele><time>2026-04-17T01:31:51.999Z</time></trkpt><trkpt lat="-24.851432967819132" lon="113.73095220937105"><ele>16.0</ele><time>2026-04-17T01:31:52.999Z</time></trkpt><trkpt lat="-24.851299525577193" lon="113.73120618566996"><ele>15.0</ele><time>2026-04-17T01:31:53.999Z</time></trkpt><trkpt lat="-24.851168580146684" lon="113.73145745826513"><ele>14.0</ele><time>2026-04-17T01:31:54.999Z</time></trkpt><trkpt lat="-24.85104168465888" lon="113.73171141919937"><ele>14.5</ele><time>2026-04-17T01:31:55.999Z</time></trkpt><trkpt lat="-24.850916607396744" lon="113.73196710866725"><ele>15.0</ele><time>2026-04-17T01:31:56.999Z</time></trkpt><trkpt lat="-24.850790300522426" lon="113.73222088283991"><ele>15.0</ele><time>2026-04-17T01:31:57.999Z</time></trkpt><trkpt lat="-24.850667130070846" lon="113.73247485505301"><ele>15.0</ele><time>2026-04-17T01:31:58.999Z</time></trkpt><trkpt lat="-24.850546783785575" lon="113.73273305504654"><ele>15.0</ele><time>2026-04-17T01:31:59.999Z</time></trkpt><trkpt lat="-24.850433254298785" lon="113.73299172291978"><ele>15.0</ele><time>2026-04-17T01:32:00.999Z</time></trkpt><trkpt lat="-24.850327654002808" lon="113.73325344430208"><ele>15.0</ele><time>2026-04-17T01:32:01.999Z</time></trkpt><trkpt lat="-24.850224167035126" lon="113.73351945294253"><ele>15.0</ele><time>2026-04-17T01:32:02.999Z</time></trkpt><trkpt lat="-24.85011954562152" lon="113.73378999858652"><ele>13.5</ele><time>2026-04-17T01:32:03.999Z</time></trkpt><trkpt lat="-24.85000840576213" lon="113.73406617852496"><ele>12.0</ele><time>2026-04-17T01:32:04.999Z</time></trkpt><trkpt lat="-24.849893851070316" lon="113.73434743103273"><ele>13.5</ele><time>2026-04-17T01:32:05.999Z</time></trkpt><trkpt lat="-24.84978018581158" lon="113.73463084884601"><ele>15.0</ele><time>2026-04-17T01:32:06.999Z</time></trkpt><trkpt lat="-24.84966539957019" lon="113.73491914592499"><ele>15.0</ele><time>2026-04-17T01:32:07.999Z</time></trkpt><trkpt lat="-24.84955321157565" lon="113.7352050012515"><ele>15.0</ele><time>2026-04-17T01:32:08.999Z</time></trkpt><trkpt lat="-24.849440629254758" lon="113.73548962480116"><ele>15.5</ele><time>2026-04-17T01:32:09.999Z</time></trkpt><trkpt lat="-24.84932756171947" lon="113.73577396575145"><ele>16.0</ele><time>2026-04-17T01:32:10.999Z</time></trkpt><trkpt lat="-24.849214721698" lon="113.73605914668133"><ele>16.0</ele><time>2026-04-17T01:32:11.999Z</time></trkpt><trkpt lat="-24.849104231887633" lon="113.73634280846387"><ele>16.0</ele><time>2026-04-17T01:32:12.999Z</time></trkpt><trkpt lat="-24.848993203016413" lon="113.73662636832178"><ele>16.0</ele><time>2026-04-17T01:32:13.999Z</time></trkpt><trkpt lat="-24.848885528144653" lon="113.73690941303032"><ele>16.0</ele><time>2026-04-17T01:32:14.999Z</time></trkpt><trkpt lat="-24.8487902528617" lon="113.73719598047691"><ele>16.0</ele><time>2026-04-17T01:32:15.999Z</time></trkpt><trkpt lat="-24.848710623816515" lon="113.73749078964138"><ele>16.0</ele><time>2026-04-17T01:32:16.999Z</time></trkpt><trkpt lat="-24.848643597892597" lon="113.73779378525883"><ele>16.0</ele><time>2026-04-17T01:32:17.999Z</time></trkpt><trkpt lat="-24.848586111882906" lon="113.73810128632785"><ele>16.0</ele><time>2026-04-17T01:32:18.999Z</time></trkpt><trkpt lat="-24.84853108977638" lon="113.73841408659291"><ele>16.0</ele><time>2026-04-17T01:32:19.999Z</time></trkpt><trkpt lat="-24.848473226856008" lon="113.73872336793708"><ele>16.0</ele><time>2026-04-17T01:32:20.999Z</time></trkpt><trkpt lat="-24.84840934435608" lon="113.7390355175529"><ele>16.0</ele><time>2026-04-17T01:32:21.999Z</time></trkpt><trkpt lat="-24.84834715901315" lon="113.73934517422337"><ele>16.0</ele><time>2026-04-17T01:32:22.999Z</time></trkpt><trkpt lat="-24.848286475585194" lon="113.73965280949001"><ele>16.0</ele><time>2026-04-17T01:32:23.999Z</time></trkpt><trkpt lat="-24.84822551588604" lon="113.73995969733743"><ele>16.0</ele><time>2026-04-17T01:32:24.999Z</time></trkpt><trkpt lat="-24.848166731650032" lon="113.74026517717459"><ele>16.0</ele><time>2026-04-17T01:32:25.999Z</time></trkpt><trkpt lat="-24.848107067435066" lon="113.74056734252248"><ele>16.0</ele><time>2026-04-17T01:32:26.999Z</time></trkpt><trkpt lat="-24.848044986010354" lon="113.74087375215476"><ele>16.5</ele><time>2026-04-17T01:32:27.999Z</time></trkpt><trkpt lat="-24.84798551915727" lon="113.74117400902077"><ele>17.0</ele><time>2026-04-17T01:32:28.999Z</time></trkpt><trkpt lat="-24.84792712116311" lon="113.7414786851065"><ele>17.0</ele><time>2026-04-17T01:32:29.999Z</time></trkpt><trkpt lat="-24.84786925015562" lon="113.74177978444864"><ele>17.0</ele><time>2026-04-17T01:32:30.999Z</time></trkpt><trkpt lat="-24.84781078167193" lon="113.74208211285126"><ele>17.0</ele><time>2026-04-17T01:32:31.999Z</time></trkpt><trkpt lat="-24.84774728026423" lon="113.74238789213881"><ele>17.0</ele><time>2026-04-17T01:32:32.999Z</time></trkpt><trkpt lat="-24.847682620294417" lon="113.74270041652619"><ele>17.0</ele><time>2026-04-17T01:32:33.999Z</time></trkpt><trkpt lat="-24.847618110477004" lon="113.74301306066829"><ele>17.0</ele><time>2026-04-17T01:32:35Z</time></trkpt><trkpt lat="-24.84755402957808" lon="113.7433253306793"><ele>17.5</ele><time>2026-04-17T01:32:36Z</time></trkpt><trkpt lat="-24.847488993025177" lon="113.74364055043809"><ele>18.0</ele><time>2026-04-17T01:32:37Z</time></trkpt><trkpt lat="-24.84742536050799" lon="113.74395806362159"><ele>18.0</ele><time>2026-04-17T01:32:38Z</time></trkpt><trkpt lat="-24.847361400071822" lon="113.74427448584076"><ele>18.0</ele><time>2026-04-17T01:32:39Z</time></trkpt><trkpt lat="-24.847300190705973" lon="113.74459077352554"><ele>17.5</ele><time>2026-04-17T01:32:40Z</time></trkpt><trkpt lat="-24.847238239167627" lon="113.74490256620112"><ele>17.0</ele><time>2026-04-17T01:32:41Z</time></trkpt><trkpt lat="-24.847175057090556" lon="113.74521380410656"><ele>17.0</ele><time>2026-04-17T01:32:42Z</time></trkpt><trkpt lat="-24.84711219645372" lon="113.745524982828"><ele>17.0</ele><time>2026-04-17T01:32:43Z</time></trkpt><trkpt lat="-24.847051184103425" lon="113.74583930858475"><ele>16.5</ele><time>2026-04-17T01:32:44Z</time></trkpt><trkpt lat="-24.84699261886785" lon="113.74615297479272"><ele>16.0</ele><time>2026-04-17T01:32:45Z</time></trkpt><trkpt lat="-24.8469345804544" lon="113.74646668248714"><ele>16.0</ele><time>2026-04-17T01:32:46Z</time></trkpt><trkpt lat="-24.846879823239853" lon="113.74678161824737"><ele>16.0</ele><time>2026-04-17T01:32:47Z</time></trkpt><trkpt lat="-24.846830281963616" lon="113.74710188447546"><ele>16.0</ele><time>2026-04-17T01:32:48Z</time></trkpt><trkpt lat="-24.846783122823265" lon="113.7474248739866"><ele>16.0</ele><time>2026-04-17T01:32:49Z</time></trkpt><trkpt lat="-24.84673680920092" lon="113.74774700290244"><ele>15.5</ele><time>2026-04-17T01:32:50Z</time></trkpt><trkpt lat="-24.846685129706575" lon="113.74805918173972"><ele>15.0</ele><time>2026-04-17T01:32:51Z</time></trkpt><trkpt lat="-24.84662557468073" lon="113.7483429828106"><ele>15.5</ele><time>2026-04-17T01:32:52Z</time></trkpt><trkpt lat="-24.846547250030465" lon="113.7486050613837"><ele>16.0</ele><time>2026-04-17T01:32:53Z</time></trkpt><trkpt lat="-24.846441884272433" lon="113.7488532020906"><ele>16.0</ele><time>2026-04-17T01:32:54Z</time></trkpt><trkpt lat="-24.846308658827123" lon="113.74909388531825"><ele>16.0</ele><time>2026-04-17T01:32:55Z</time></trkpt><trkpt lat="-24.846149087509353" lon="113.74932641905535"><ele>17.0</ele><time>2026-04-17T01:32:56Z</time></trkpt><trkpt lat="-24.84597099912303" lon="113.74955039998149"><ele>18.0</ele><time>2026-04-17T01:32:57Z</time></trkpt><trkpt lat="-24.845778749223292" lon="113.74976691206649"><ele>19.0</ele><time>2026-04-17T01:32:58Z</time></trkpt><trkpt lat="-24.84558300048625" lon="113.749969167677"><ele>20.0</ele><time>2026-04-17T01:32:59Z</time></trkpt><trkpt lat="-24.84537900865975" lon="113.75015439603332"><ele>19.5</ele><time>2026-04-17T01:33:00Z</time></trkpt><trkpt lat="-24.84516314535494" lon="113.75032359017612"><ele>19.0</ele><time>2026-04-17T01:33:01Z</time></trkpt><trkpt lat="-24.844942057241283" lon="113.75048859909725"><ele>19.0</ele><time>2026-04-17T01:33:02Z</time></trkpt><trkpt lat="-24.844716996072187" lon="113.75065102511581"><ele>19.0</ele><time>2026-04-17T01:33:03Z</time></trkpt><trkpt lat="-24.84449020529052" lon="113.75081685307136"><ele>19.0</ele><time>2026-04-17T01:33:04Z</time></trkpt><trkpt lat="-24.844258049176915" lon="113.75098240352641"><ele>19.0</ele><time>2026-04-17T01:33:05Z</time></trkpt><trkpt lat="-24.844026981725996" lon="113.7511435820385"><ele>18.5</ele><time>2026-04-17T01:33:06Z</time></trkpt><trkpt lat="-24.843798451997593" lon="113.75130468085543"><ele>18.0</ele><time>2026-04-17T01:33:07Z</time></trkpt><trkpt lat="-24.843571784221716" lon="113.7514674437363"><ele>18.5</ele><time>2026-04-17T01:33:08Z</time></trkpt><trkpt lat="-24.84334801425152" lon="113.7516365831069"><ele>19.0</ele><time>2026-04-17T01:33:09Z</time></trkpt><trkpt lat="-24.84312903701619" lon="113.75181620603479"><ele>18.5</ele><time>2026-04-17T01:33:10Z</time></trkpt><trkpt lat="-24.842916601141567" lon="113.75200546971814"><ele>18.0</ele><time>2026-04-17T01:33:11Z</time></trkpt><trkpt lat="-24.84270627457792" lon="113.75220452167993"><ele>18.0</ele><time>2026-04-17T01:33:12Z</time></trkpt><trkpt lat="-24.842501202693153" lon="113.75240854678196"><ele>18.0</ele><time>2026-04-17T01:33:13Z</time></trkpt><trkpt lat="-24.842300242671513" lon="113.75261888795957"><ele>17.0</ele><time>2026-04-17T01:33:14Z</time></trkpt><trkpt lat="-24.84209534674867" lon="113.75283073829488"><ele>16.0</ele><time>2026-04-17T01:33:15Z</time></trkpt><trkpt lat="-24.841886493321486" lon="113.75304106145235"><ele>17.0</ele><time>2026-04-17T01:33:15.999Z</time></trkpt><trkpt lat="-24.84167589026381" lon="113.75325221198173"><ele>18.0</ele><time>2026-04-17T01:33:16.999Z</time></trkpt><trkpt lat="-24.84146737800383" lon="113.75346392137214"><ele>17.5</ele><time>2026-04-17T01:33:17.999Z</time></trkpt><trkpt lat="-24.84126117929126" lon="113.75367470812351"><ele>17.0</ele><time>2026-04-17T01:33:18.999Z</time></trkpt><trkpt lat="-24.84105648180594" lon="113.75388448310366"><ele>17.0</ele><time>2026-04-17T01:33:19.999Z</time></trkpt><trkpt lat="-24.840851409481868" lon="113.75409575777859"><ele>17.0</ele><time>2026-04-17T01:33:20.999Z</time></trkpt><trkpt lat="-24.84064599624895" lon="113.7543057160731"><ele>17.0</ele><time>2026-04-17T01:33:21.999Z</time></trkpt><trkpt lat="-24.840439507540093" lon="113.754512601286"><ele>17.0</ele><time>2026-04-17T01:33:22.999Z</time></trkpt><trkpt lat="-24.840235001966605" lon="113.7547193036539"><ele>16.5</ele><time>2026-04-17T01:33:23.999Z</time></trkpt><trkpt lat="-24.84003288105863" lon="113.75492598520354"><ele>16.0</ele><time>2026-04-17T01:33:24.999Z</time></trkpt><trkpt lat="-24.839831112143358" lon="113.75513211857498"><ele>16.5</ele><time>2026-04-17T01:33:25.999Z</time></trkpt><trkpt lat="-24.839631758589157" lon="113.75533890617233"><ele>17.0</ele><time>2026-04-17T01:33:26.999Z</time></trkpt><trkpt lat="-24.839431368804565" lon="113.7555458869586"><ele>17.0</ele><time>2026-04-17T01:33:27.999Z</time></trkpt><trkpt lat="-24.839232704113726" lon="113.75575331022526"><ele>17.0</ele><time>2026-04-17T01:33:28.999Z</time></trkpt><trkpt lat="-24.839033760731038" lon="113.75596160152413"><ele>17.5</ele><time>2026-04-17T01:33:29.999Z</time></trkpt><trkpt lat="-24.83883543217802" lon="113.75617000888934"><ele>18.0</ele><time>2026-04-17T01:33:30.999Z</time></trkpt><trkpt lat="-24.838636130181158" lon="113.75637934918824"><ele>18.0</ele><time>2026-04-17T01:33:31.999Z</time></trkpt><trkpt lat="-24.83843522871466" lon="113.75659008779395"><ele>18.0</ele><time>2026-04-17T01:33:32.999Z</time></trkpt><trkpt lat="-24.83823329145183" lon="113.75680129471604"><ele>19.0</ele><time>2026-04-17T01:33:33.999Z</time></trkpt><trkpt lat="-24.838031357652817" lon="113.7570156002371"><ele>20.0</ele><time>2026-04-17T01:33:34.999Z</time></trkpt><trkpt lat="-24.837831218997984" lon="113.75722937776368"><ele>19.5</ele><time>2026-04-17T01:33:35.999Z</time></trkpt><trkpt lat="-24.837632406766453" lon="113.75744619153733"><ele>19.0</ele><time>2026-04-17T01:33:36.999Z</time></trkpt><trkpt lat="-24.837433064156908" lon="113.75765501401305"><ele>19.5</ele><time>2026-04-17T01:33:37.999Z</time></trkpt><trkpt lat="-24.837232018197813" lon="113.75785883223695"><ele>20.0</ele><time>2026-04-17T01:33:38.999Z</time></trkpt><trkpt lat="-24.837034173211812" lon="113.7580605438929"><ele>20.0</ele><time>2026-04-17T01:33:39.999Z</time></trkpt><trkpt lat="-24.836841149077284" lon="113.7582630977924"><ele>20.0</ele><time>2026-04-17T01:33:40.999Z</time></trkpt><trkpt lat="-24.83665076407477" lon="113.7584640588943"><ele>19.0</ele><time>2026-04-17T01:33:41.999Z</time></trkpt><trkpt lat="-24.836461817266887" lon="113.75866298358237"><ele>18.0</ele><time>2026-04-17T01:33:42.999Z</time></trkpt><trkpt lat="-24.83627252954341" lon="113.7588555659498"><ele>18.0</ele><time>2026-04-17T01:33:43.999Z</time></trkpt><trkpt lat="-24.83608137554584" lon="113.7590461182734"><ele>18.0</ele><time>2026-04-17T01:33:44.999Z</time></trkpt><trkpt lat="-24.83589469450318" lon="113.7592356004168"><ele>18.0</ele><time>2026-04-17T01:33:45.999Z</time></trkpt><trkpt lat="-24.835717805118296" lon="113.75942274319318"><ele>18.0</ele><time>2026-04-17T01:33:46.999Z</time></trkpt><trkpt lat="-24.83555516011354" lon="113.75962016748002"><ele>18.0</ele><time>2026-04-17T01:33:47.999Z</time></trkpt><trkpt lat="-24.83540469344918" lon="113.7598379693661"><ele>18.0</ele><time>2026-04-17T01:33:48.999Z</time></trkpt><trkpt lat="-24.835262410952524" lon="113.7600802922306"><ele>18.0</ele><time>2026-04-17T01:33:49.999Z</time></trkpt><trkpt lat="-24.835129864347703" lon="113.76033089618458"><ele>18.0</ele><time>2026-04-17T01:33:50.999Z</time></trkpt><trkpt lat="-24.835005621283216" lon="113.76058390869824"><ele>18.0</ele><time>2026-04-17T01:33:51.999Z</time></trkpt><trkpt lat="-24.83487764890219" lon="113.76083242838934"><ele>18.0</ele><time>2026-04-17T01:33:52.999Z</time></trkpt><trkpt lat="-24.834746738518927" lon="113.76107726196669"><ele>18.5</ele><time>2026-04-17T01:33:53.999Z</time></trkpt><trkpt lat="-24.834612180749442" lon="113.76132114880502"><ele>19.0</ele><time>2026-04-17T01:33:54.999Z</time></trkpt><trkpt lat="-24.83447470780931" lon="113.76156274182452"><ele>19.0</ele><time>2026-04-17T01:33:55.999Z</time></trkpt><trkpt lat="-24.834340557634217" lon="113.76180020553146"><ele>19.0</ele><time>2026-04-17T01:33:56.999Z</time></trkpt><trkpt lat="-24.834204173162206" lon="113.76204111406635"><ele>20.0</ele><time>2026-04-17T01:33:57.999Z</time></trkpt><trkpt lat="-24.834064854694194" lon="113.76229060491387"><ele>21.0</ele><time>2026-04-17T01:33:58.999Z</time></trkpt><trkpt lat="-24.833924192185567" lon="113.76254509572478"><ele>19.5</ele><time>2026-04-17T01:33:59.999Z</time></trkpt><trkpt lat="-24.83378030595627" lon="113.76280837230986"><ele>18.0</ele><time>2026-04-17T01:34:00.999Z</time></trkpt><trkpt lat="-24.833636130178018" lon="113.76307418511723"><ele>18.0</ele><time>2026-04-17T01:34:01.999Z</time></trkpt><trkpt lat="-24.833493516991247" lon="113.76333938961592"><ele>18.0</ele><time>2026-04-17T01:34:02.999Z</time></trkpt><trkpt lat="-24.833357807035604" lon="113.76360111751302"><ele>18.0</ele><time>2026-04-17T01:34:03.999Z</time></trkpt><trkpt lat="-24.83322293025329" lon="113.76386756380121"><ele>18.0</ele><time>2026-04-17T01:34:04.999Z</time></trkpt><trkpt lat="-24.833090634246044" lon="113.76412930042729"><ele>18.5</ele><time>2026-04-17T01:34:05.999Z</time></trkpt><trkpt lat="-24.83295954141999" lon="113.7643855099027"><ele>19.0</ele><time>2026-04-17T01:34:06.999Z</time></trkpt><trkpt lat="-24.832828995328057" lon="113.76464220634728"><ele>19.0</ele><time>2026-04-17T01:34:07.999Z</time></trkpt><trkpt lat="-24.83269913373859" lon="113.76489673320278"><ele>19.0</ele><time>2026-04-17T01:34:08.999Z</time></trkpt><trkpt lat="-24.832570891312216" lon="113.7651447453333"><ele>18.5</ele><time>2026-04-17T01:34:09.999Z</time></trkpt><trkpt lat="-24.832439947541033" lon="113.76539012073084"><ele>18.0</ele><time>2026-04-17T01:34:10.999Z</time></trkpt><trkpt lat="-24.832300348313357" lon="113.76563922100335"><ele>18.0</ele><time>2026-04-17T01:34:11.999Z</time></trkpt><trkpt lat="-24.83215110623474" lon="113.76588538563627"><ele>18.0</ele><time>2026-04-17T01:34:12.999Z</time></trkpt><trkpt lat="-24.83198981686726" lon="113.7661293861181"><ele>18.5</ele><time>2026-04-17T01:34:13.999Z</time></trkpt><trkpt lat="-24.831801132488348" lon="113.76635563008223"><ele>19.0</ele><time>2026-04-17T01:34:14.999Z</time></trkpt><trkpt lat="-24.831632425679217" lon="113.76660770055443"><ele>19.0</ele><time>2026-04-17T01:34:15.999Z</time></trkpt><trkpt lat="-24.83144786028786" lon="113.76684509535478"><ele>19.0</ele><time>2026-04-17T01:34:16.999Z</time></trkpt><trkpt lat="-24.831270495259634" lon="113.76708103914596"><ele>19.5</ele><time>2026-04-17T01:34:17.999Z</time></trkpt><trkpt lat="-24.83109487564669" lon="113.76731605096698"><ele>20.0</ele><time>2026-04-17T01:34:18.999Z</time></trkpt><trkpt lat="-24.830922721093135" lon="113.7675486229661"><ele>19.0</ele><time>2026-04-17T01:34:19.999Z</time></trkpt><trkpt lat="-24.830752064033607" lon="113.76778518780417"><ele>18.0</ele><time>2026-04-17T01:34:20.999Z</time></trkpt><trkpt lat="-24.830581218217844" lon="113.7680198702797"><ele>18.0</ele><time>2026-04-17T01:34:21.999Z</time></trkpt><trkpt lat="-24.830408860859475" lon="113.7682531286255"><ele>18.0</ele><time>2026-04-17T01:34:22.999Z</time></trkpt><trkpt lat="-24.830235551858298" lon="113.76848508266023"><ele>18.0</ele><time>2026-04-17T01:34:23.999Z</time></trkpt><trkpt lat="-24.83006353376664" lon="113.76871469544987"><ele>18.0</ele><time>2026-04-17T01:34:24.999Z</time></trkpt><trkpt lat="-24.82989984845512" lon="113.76893484503256"><ele>18.0</ele><time>2026-04-17T01:34:25.999Z</time></trkpt><trkpt lat="-24.829750942229623" lon="113.76913883199153"><ele>18.0</ele><time>2026-04-17T01:34:26.999Z</time></trkpt><trkpt lat="-24.829610472769787" lon="113.76932969849008"><ele>18.666666666666668</ele><time>2026-04-17T01:34:27.999Z</time></trkpt><trkpt lat="-24.829479405824806" lon="113.76950476083056"><ele>19.333333333333336</ele><time>2026-04-17T01:34:28.999Z</time></trkpt><trkpt lat="-24.829354661285063" lon="113.7696619103935"><ele>20.0</ele><time>2026-04-17T01:34:29.999Z</time></trkpt><trkpt lat="-24.829232595677336" lon="113.76980229871461"><ele>20.0</ele><time>2026-04-17T01:34:30.999Z</time></trkpt><trkpt lat="-24.829119156471194" lon="113.76992021563302"><ele>20.0</ele><time>2026-04-17T01:34:31.999Z</time></trkpt><trkpt lat="-24.829022002869404" lon="113.77002417202173"><ele>20.0</ele><time>2026-04-17T01:34:33Z</time></trkpt><trkpt lat="-24.82893341939757" lon="113.77010319791701"><ele>20.0</ele><time>2026-04-17T01:34:34Z</time></trkpt><trkpt lat="-24.828868797387827" lon="113.77016631350276"><ele>19.833333333333336</ele><time>2026-04-17T01:34:35Z</time></trkpt><trkpt lat="-24.82881029391881" lon="113.77022816422439"><ele>19.666666666666668</ele><time>2026-04-17T01:34:37Z</time></trkpt><trkpt lat="-24.828779834532867" lon="113.77029911515571"><ele>19.5</ele><time>2026-04-17T01:34:40Z</time></trkpt><trkpt lat="-24.828823135595947" lon="113.77038830631058"><ele>19.333333333333332</ele><time>2026-04-17T01:34:42Z</time></trkpt><trkpt lat="-24.828883061734764" lon="113.77042210778485"><ele>19.166666666666664</ele><time>2026-04-17T01:34:43Z</time></trkpt><trkpt lat="-24.828956915176672" lon="113.77046446579699"><ele>19.0</ele><time>2026-04-17T01:34:44Z</time></trkpt><trkpt lat="-24.829031222410652" lon="113.77052227651667"><ele>19.0</ele><time>2026-04-17T01:34:45Z</time></trkpt><trkpt lat="-24.829110931204408" lon="113.77058790622048"><ele>19.0</ele><time>2026-04-17T01:34:46Z</time></trkpt><trkpt lat="-24.82918293942655" lon="113.77064841951992"><ele>19.0</ele><time>2026-04-17T01:34:47Z</time></trkpt><trkpt lat="-24.82923974390752" lon="113.77071973199656"><ele>19.0</ele><time>2026-04-17T01:34:48Z</time></trkpt><trkpt lat="-24.8292592089744" lon="113.77080608670525"><ele>19.0</ele><time>2026-04-17T01:34:49Z</time></trkpt><trkpt lat="-24.829240749272376" lon="113.77089453423729"><ele>19.0</ele><time>2026-04-17T01:34:50Z</time></trkpt><trkpt lat="-24.829193824564722" lon="113.77098460357155"><ele>19.0</ele><time>2026-04-17T01:34:51Z</time></trkpt><trkpt lat="-24.82912373384047" lon="113.7710728843732"><ele>19.0</ele><time>2026-04-17T01:34:52Z</time></trkpt><trkpt lat="-24.829044357885138" lon="113.77116457493179"><ele>19.0</ele><time>2026-04-17T01:34:53Z</time></trkpt><trkpt lat="-24.828957895451783" lon="113.77126565204765"><ele>19.0</ele><time>2026-04-17T01:34:54Z</time></trkpt><trkpt lat="-24.828856411291298" lon="113.77138471397636"><ele>19.0</ele><time>2026-04-17T01:34:55Z</time></trkpt><trkpt lat="-24.828746081583812" lon="113.77149840507502"><ele>19.0</ele><time>2026-04-17T01:34:56Z</time></trkpt><trkpt lat="-24.828612579517337" lon="113.77160684035267"><ele>19.0</ele><time>2026-04-17T01:34:57Z</time></trkpt><trkpt lat="-24.828462251826046" lon="113.7717076810712"><ele>19.0</ele><time>2026-04-17T01:34:58Z</time></trkpt><trkpt lat="-24.828297582639596" lon="113.77181027025973"><ele>19.0</ele><time>2026-04-17T01:34:59Z</time></trkpt><trkpt lat="-24.828139090913524" lon="113.7719100704943"><ele>19.0</ele><time>2026-04-17T01:35:00Z</time></trkpt><trkpt lat="-24.827986769702996" lon="113.77200985306706"><ele>19.0</ele><time>2026-04-17T01:35:01Z</time></trkpt><trkpt lat="-24.82783317881967" lon="113.77212046164308"><ele>19.0</ele><time>2026-04-17T01:35:02Z</time></trkpt><trkpt lat="-24.827679149410603" lon="113.7722430715802"><ele>19.0</ele><time>2026-04-17T01:35:03Z</time></trkpt><trkpt lat="-24.827530335413158" lon="113.7723748222017"><ele>19.0</ele><time>2026-04-17T01:35:04Z</time></trkpt><trkpt lat="-24.827398388749017" lon="113.77251768299365"><ele>19.0</ele><time>2026-04-17T01:35:05Z</time></trkpt><trkpt lat="-24.827281613418155" lon="113.77267053225654"><ele>19.0</ele><time>2026-04-17T01:35:06Z</time></trkpt><trkpt lat="-24.82717365783472" lon="113.7728361107768"><ele>19.0</ele><time>2026-04-17T01:35:07Z</time></trkpt><trkpt lat="-24.8270590624153" lon="113.77300460249704"><ele>19.0</ele><time>2026-04-17T01:35:08Z</time></trkpt><trkpt lat="-24.826932849057215" lon="113.77318067173933"><ele>19.0</ele><time>2026-04-17T01:35:09Z</time></trkpt><trkpt lat="-24.826799829446244" lon="113.77336388927306"><ele>19.0</ele><time>2026-04-17T01:35:10Z</time></trkpt><trkpt lat="-24.826666179169685" lon="113.77354776386785"><ele>19.0</ele><time>2026-04-17T01:35:11Z</time></trkpt><trkpt lat="-24.82652433768904" lon="113.77374298426774"><ele>19.0</ele><time>2026-04-17T01:35:12Z</time></trkpt><trkpt lat="-24.826380067327147" lon="113.77393383987621"><ele>19.0</ele><time>2026-04-17T01:35:13Z</time></trkpt><trkpt lat="-24.826238633283847" lon="113.77411595803737"><ele>19.0</ele><time>2026-04-17T01:35:14Z</time></trkpt><trkpt lat="-24.826093176137213" lon="113.77430304525788"><ele>19.0</ele><time>2026-04-17T01:35:15Z</time></trkpt><trkpt lat="-24.825953614129975" lon="113.774496386299"><ele>19.333333333333332</ele><time>2026-04-17T01:35:16Z</time></trkpt><trkpt lat="-24.82582361086603" lon="113.7746902087935"><ele>19.666666666666668</ele><time>2026-04-17T01:35:17Z</time></trkpt><trkpt lat="-24.825696449148595" lon="113.77489343447999"><ele>20.0</ele><time>2026-04-17T01:35:18Z</time></trkpt><trkpt lat="-24.825579038222713" lon="113.77509789949782"><ele>19.666666666666668</ele><time>2026-04-17T01:35:19Z</time></trkpt><trkpt lat="-24.82547156841055" lon="113.7753101777751"><ele>19.333333333333332</ele><time>2026-04-17T01:35:20Z</time></trkpt><trkpt lat="-24.82537016471052" lon="113.77553217745782"><ele>19.0</ele><time>2026-04-17T01:35:21Z</time></trkpt><trkpt lat="-24.825271678651724" lon="113.77576172403974"><ele>19.0</ele><time>2026-04-17T01:35:22Z</time></trkpt><trkpt lat="-24.82517422903174" lon="113.7759955965546"><ele>19.0</ele><time>2026-04-17T01:35:23Z</time></trkpt><trkpt lat="-24.82507469363734" lon="113.77622294965632"><ele>19.5</ele><time>2026-04-17T01:35:24Z</time></trkpt><trkpt lat="-24.824969744322456" lon="113.77644917976919"><ele>20.0</ele><time>2026-04-17T01:35:25Z</time></trkpt><trkpt lat="-24.824860245449713" lon="113.77667270921431"><ele>20.0</ele><time>2026-04-17T01:35:26Z</time></trkpt><trkpt lat="-24.824746092476857" lon="113.77688830088361"><ele>20.0</ele><time>2026-04-17T01:35:27Z</time></trkpt><trkpt lat="-24.824632601165018" lon="113.77708944344728"><ele>20.0</ele><time>2026-04-17T01:35:28Z</time></trkpt><trkpt lat="-24.824521701456103" lon="113.77727220775196"><ele>20.0</ele><time>2026-04-17T01:35:29Z</time></trkpt><trkpt lat="-24.8244183006189" lon="113.77744379665144"><ele>20.0</ele><time>2026-04-17T01:35:30Z</time></trkpt><trkpt lat="-24.824319756294994" lon="113.77761480372344"><ele>20.0</ele><time>2026-04-17T01:35:31Z</time></trkpt><trkpt lat="-24.824231740059282" lon="113.77778330230895"><ele>19.666666666666668</ele><time>2026-04-17T01:35:32Z</time></trkpt><trkpt lat="-24.82415494548176" lon="113.777950272796"><ele>19.333333333333332</ele><time>2026-04-17T01:35:33Z</time></trkpt><trkpt lat="-24.824090771879835" lon="113.77811569324764"><ele>19.0</ele><time>2026-04-17T01:35:34Z</time></trkpt><trkpt lat="-24.824041699760095" lon="113.77828277657014"><ele>19.0</ele><time>2026-04-17T01:35:35Z</time></trkpt><trkpt lat="-24.82400119497165" lon="113.77845811957008"><ele>19.0</ele><time>2026-04-17T01:35:36Z</time></trkpt><trkpt lat="-24.823954420532825" lon="113.77864572543821"><ele>19.0</ele><time>2026-04-17T01:35:37Z</time></trkpt><trkpt lat="-24.823906799181277" lon="113.77883957141877"><ele>18.666666666666664</ele><time>2026-04-17T01:35:38Z</time></trkpt><trkpt lat="-24.823862767997817" lon="113.77902765364465"><ele>18.333333333333332</ele><time>2026-04-17T01:35:39Z</time></trkpt><trkpt lat="-24.823824137443825" lon="113.77921547175852"><ele>18.0</ele><time>2026-04-17T01:35:40Z</time></trkpt><trkpt lat="-24.823790534146678" lon="113.77939899645926"><ele>18.5</ele><time>2026-04-17T01:35:41Z</time></trkpt><trkpt lat="-24.823763861875875" lon="113.7795665552303"><ele>19.0</ele><time>2026-04-17T01:35:42Z</time></trkpt><trkpt lat="-24.82374723475731" lon="113.7797001370461"><ele>19.5</ele><time>2026-04-17T01:35:43Z</time></trkpt><trkpt lat="-24.823734335011327" lon="113.77979717985023"><ele>20.0</ele><time>2026-04-17T01:35:44Z</time></trkpt><trkpt lat="-24.823721760433656" lon="113.7798990874207"><ele>20.0</ele><time>2026-04-17T01:35:46Z</time></trkpt><trkpt lat="-24.82377441081955" lon="113.77975447986465"><ele>20.0</ele><time>2026-04-17T01:36:52Z</time></trkpt><trkpt lat="-24.8237791602201" lon="113.77966821949234"><ele>20.0</ele><time>2026-04-17T01:36:53Z</time></trkpt><trkpt lat="-24.82378841022823" lon="113.77959802789833"><ele>20.0</ele><time>2026-04-17T01:36:54Z</time></trkpt><trkpt lat="-24.8238002135232" lon="113.77951939200307"><ele>20.0</ele><time>2026-04-17T01:36:55Z</time></trkpt><trkpt lat="-24.823812687625775" lon="113.7794301691744"><ele>20.0</ele><time>2026-04-17T01:36:56Z</time></trkpt><trkpt lat="-24.82382725219877" lon="113.77933205544632"><ele>19.6</ele><time>2026-04-17T01:36:57Z</time></trkpt><trkpt lat="-24.82384402237132" lon="113.77922636120103"><ele>19.2</ele><time>2026-04-17T01:36:58Z</time></trkpt><trkpt lat="-24.82386190209141" lon="113.77912856997418"><ele>18.8</ele><time>2026-04-17T01:36:59Z</time></trkpt><trkpt lat="-24.82388582012441" lon="113.77903186491683"><ele>18.4</ele><time>2026-04-17T01:37:00Z</time></trkpt><trkpt lat="-24.823912057834196" lon="113.77892574069988"><ele>18.0</ele><time>2026-04-17T01:37:01Z</time></trkpt><trkpt lat="-24.823941191536907" lon="113.7788151693009"><ele>18.0</ele><time>2026-04-17T01:37:02Z</time></trkpt><trkpt lat="-24.82397038065147" lon="113.77870546468621"><ele>18.0</ele><time>2026-04-17T01:37:03Z</time></trkpt><trkpt lat="-24.823997643600414" lon="113.7786031306112"><ele>18.0</ele><time>2026-04-17T01:37:04Z</time></trkpt><trkpt lat="-24.824018431076276" lon="113.77850964302803"><ele>18.0</ele><time>2026-04-17T01:37:05Z</time></trkpt><trkpt lat="-24.824033690199773" lon="113.77842420912124"><ele>18.0</ele><time>2026-04-17T01:37:06Z</time></trkpt><trkpt lat="-24.82404818533326" lon="113.77834479067847"><ele>18.0</ele><time>2026-04-17T01:37:07Z</time></trkpt><trkpt lat="-24.824068117162987" lon="113.77826289414725"><ele>18.25</ele><time>2026-04-17T01:37:08Z</time></trkpt><trkpt lat="-24.82409457320904" lon="113.77817127911354"><ele>18.5</ele><time>2026-04-17T01:37:09Z</time></trkpt><trkpt lat="-24.824128091683804" lon="113.77807719440078"><ele>18.75</ele><time>2026-04-17T01:37:10Z</time></trkpt><trkpt lat="-24.824151892183107" lon="113.7779661206982"><ele>19.0</ele><time>2026-04-17T01:37:11Z</time></trkpt><trkpt lat="-24.824282044955005" lon="113.77775373281604"><ele>19.25</ele><time>2026-04-17T01:37:13Z</time></trkpt><trkpt lat="-24.824357549242904" lon="113.77762721340451"><ele>19.5</ele><time>2026-04-17T01:37:14Z</time></trkpt><trkpt lat="-24.824430244545848" lon="113.77750321242137"><ele>19.75</ele><time>2026-04-17T01:37:15Z</time></trkpt><trkpt lat="-24.824497089436925" lon="113.7773710739384"><ele>20.0</ele><time>2026-04-17T01:37:16Z</time></trkpt><trkpt lat="-24.824574598460707" lon="113.77724006676291"><ele>20.0</ele><time>2026-04-17T01:37:17Z</time></trkpt><trkpt lat="-24.82465378568904" lon="113.77709832331263"><ele>20.0</ele><time>2026-04-17T01:37:18Z</time></trkpt><trkpt lat="-24.824744091702765" lon="113.7769476081925"><ele>20.0</ele><time>2026-04-17T01:37:19Z</time></trkpt><trkpt lat="-24.824844514949127" lon="113.77678194384579"><ele>20.0</ele><time>2026-04-17T01:37:20Z</time></trkpt><trkpt lat="-24.82494013801129" lon="113.77660495674262"><ele>20.0</ele><time>2026-04-17T01:37:21Z</time></trkpt><trkpt lat="-24.825022277321548" lon="113.77641293556101"><ele>20.0</ele><time>2026-04-17T01:37:22Z</time></trkpt><trkpt lat="-24.825120097696228" lon="113.77622045924348"><ele>19.666666666666668</ele><time>2026-04-17T01:37:23Z</time></trkpt><trkpt lat="-24.825196245361596" lon="113.77601054430541"><ele>19.333333333333332</ele><time>2026-04-17T01:37:24Z</time></trkpt><trkpt lat="-24.82528325610125" lon="113.77580084868598"><ele>19.0</ele><time>2026-04-17T01:37:25Z</time></trkpt><trkpt lat="-24.825368348821574" lon="113.7755952659257"><ele>19.0</ele><time>2026-04-17T01:37:26Z</time></trkpt><trkpt lat="-24.825457055056777" lon="113.77539107144803"><ele>19.0</ele><time>2026-04-17T01:37:27Z</time></trkpt><trkpt lat="-24.825550504841143" lon="113.77519267580142"><ele>19.0</ele><time>2026-04-17T01:37:28Z</time></trkpt><trkpt lat="-24.825656313360906" lon="113.77499542424621"><ele>19.333333333333332</ele><time>2026-04-17T01:37:29Z</time></trkpt><trkpt lat="-24.82576786556565" lon="113.77480997702956"><ele>19.666666666666668</ele><time>2026-04-17T01:37:30Z</time></trkpt><trkpt lat="-24.82588849805769" lon="113.77462521469984"><ele>20.0</ele><time>2026-04-17T01:37:31Z</time></trkpt><trkpt lat="-24.826021395697328" lon="113.77444019519905"><ele>19.666666666666668</ele><time>2026-04-17T01:37:32Z</time></trkpt><trkpt lat="-24.826165170782197" lon="113.77425368446916"><ele>19.333333333333332</ele><time>2026-04-17T01:37:33Z</time></trkpt><trkpt lat="-24.826307582956986" lon="113.77407017291812"><ele>19.0</ele><time>2026-04-17T01:37:34Z</time></trkpt><trkpt lat="-24.82644000710115" lon="113.77389793728892"><ele>19.0</ele><time>2026-04-17T01:37:35Z</time></trkpt><trkpt lat="-24.82655926842805" lon="113.77373733004553"><ele>19.0</ele><time>2026-04-17T01:37:36Z</time></trkpt><trkpt lat="-24.826672019103814" lon="113.77358740141096"><ele>19.0</ele><time>2026-04-17T01:37:37Z</time></trkpt><trkpt lat="-24.82677711579786" lon="113.77344453516643"><ele>19.0</ele><time>2026-04-17T01:37:38Z</time></trkpt><trkpt lat="-24.826869338002655" lon="113.77330126514468"><ele>19.0</ele><time>2026-04-17T01:37:39Z</time></trkpt><trkpt lat="-24.826964164000263" lon="113.77317184523974"><ele>19.0</ele><time>2026-04-17T01:37:40Z</time></trkpt><trkpt lat="-24.827064609203713" lon="113.77303247404689"><ele>19.0</ele><time>2026-04-17T01:37:41Z</time></trkpt><trkpt lat="-24.827174455879632" lon="113.77288712654037"><ele>19.0</ele><time>2026-04-17T01:37:42Z</time></trkpt><trkpt lat="-24.827284218221152" lon="113.77273341661696"><ele>19.0</ele><time>2026-04-17T01:37:43Z</time></trkpt><trkpt lat="-24.82740236920779" lon="113.77257753131549"><ele>19.0</ele><time>2026-04-17T01:37:44Z</time></trkpt><trkpt lat="-24.827527490035656" lon="113.77242188333892"><ele>19.0</ele><time>2026-04-17T01:37:45Z</time></trkpt><trkpt lat="-24.82766364835844" lon="113.7722732133627"><ele>19.0</ele><time>2026-04-17T01:37:46Z</time></trkpt><trkpt lat="-24.82782703600268" lon="113.77213794478214"><ele>19.0</ele><time>2026-04-17T01:37:47Z</time></trkpt><trkpt lat="-24.828009781901716" lon="113.77203688441087"><ele>19.0</ele><time>2026-04-17T01:37:48Z</time></trkpt><trkpt lat="-24.828190171204028" lon="113.77190616212697"><ele>19.0</ele><time>2026-04-17T01:37:49Z</time></trkpt><trkpt lat="-24.828366262015695" lon="113.77180201492139"><ele>19.0</ele><time>2026-04-17T01:37:50Z</time></trkpt><trkpt lat="-24.82852835161293" lon="113.77169662513619"><ele>19.0</ele><time>2026-04-17T01:37:51Z</time></trkpt><trkpt lat="-24.82868558868958" lon="113.77157933699979"><ele>19.0</ele><time>2026-04-17T01:37:52Z</time></trkpt><trkpt lat="-24.82883696112421" lon="113.77144505684105"><ele>19.0</ele><time>2026-04-17T01:37:53Z</time></trkpt><trkpt lat="-24.82896725601163" lon="113.77130792577907"><ele>19.0</ele><time>2026-04-17T01:37:54Z</time></trkpt><trkpt lat="-24.829075158367672" lon="113.7711743496676"><ele>19.0</ele><time>2026-04-17T01:37:55Z</time></trkpt><trkpt lat="-24.829165285731886" lon="113.7710560022156"><ele>19.0</ele><time>2026-04-17T01:37:56Z</time></trkpt><trkpt lat="-24.82923722047226" lon="113.77096502068778"><ele>19.0</ele><time>2026-04-17T01:37:57Z</time></trkpt><trkpt lat="-24.82928513990478" lon="113.77090856992425"><ele>19.0</ele><time>2026-04-17T01:37:58Z</time></trkpt><trkpt lat="-24.829345644828916" lon="113.77085668365177"><ele>19.0</ele><time>2026-04-17T01:38:00Z</time></trkpt><trkpt lat="-24.829529455515445" lon="113.77089170083356"><ele>19.0</ele><time>2026-04-17T01:38:03Z</time></trkpt><trkpt lat="-24.82962029185498" lon="113.77095070748148"><ele>19.0</ele><time>2026-04-17T01:38:04Z</time></trkpt><trkpt lat="-24.829720685149987" lon="113.77103214793979"><ele>19.0</ele><time>2026-04-17T01:38:05Z</time></trkpt><trkpt lat="-24.829836487086315" lon="113.77111647153994"><ele>19.0</ele><time>2026-04-17T01:38:06Z</time></trkpt><trkpt lat="-24.829960338641417" lon="113.77119808482048"><ele>19.0</ele><time>2026-04-17T01:38:07Z</time></trkpt><trkpt lat="-24.83010219299705" lon="113.77128479476511"><ele>18.5</ele><time>2026-04-17T01:38:08Z</time></trkpt><trkpt lat="-24.830259112720476" lon="113.77137625671422"><ele>18.0</ele><time>2026-04-17T01:38:09Z</time></trkpt><trkpt lat="-24.83060792985817" lon="113.77155254084059"><ele>18.0</ele><time>2026-04-17T01:38:11Z</time></trkpt><trkpt lat="-24.830795246261456" lon="113.77163714890006"><ele>18.0</ele><time>2026-04-17T01:38:12Z</time></trkpt><trkpt lat="-24.83098260538454" lon="113.77171733914837"><ele>18.0</ele><time>2026-04-17T01:38:13Z</time></trkpt><trkpt lat="-24.831175187446625" lon="113.7717984998667"><ele>18.0</ele><time>2026-04-17T01:38:14Z</time></trkpt><trkpt lat="-24.831378800300826" lon="113.7718753600623"><ele>18.0</ele><time>2026-04-17T01:38:15Z</time></trkpt><trkpt lat="-24.83159650991706" lon="113.77194721658705"><ele>18.0</ele><time>2026-04-17T01:38:16Z</time></trkpt><trkpt lat="-24.831830158063042" lon="113.77201230537216"><ele>17.5</ele><time>2026-04-17T01:38:17Z</time></trkpt><trkpt lat="-24.832072520846772" lon="113.7720704686177"><ele>17.0</ele><time>2026-04-17T01:38:18Z</time></trkpt><trkpt lat="-24.83230417658013" lon="113.77211587867589"><ele>17.0</ele><time>2026-04-17T01:38:19Z</time></trkpt><trkpt lat="-24.832542358381396" lon="113.772150069347"><ele>17.0</ele><time>2026-04-17T01:38:20Z</time></trkpt><trkpt lat="-24.832785864752292" lon="113.77217590017037"><ele>17.0</ele><time>2026-04-17T01:38:21Z</time></trkpt><trkpt lat="-24.83303245320573" lon="113.77219095960695"><ele>17.0</ele><time>2026-04-17T01:38:22Z</time></trkpt><trkpt lat="-24.83328364357535" lon="113.77219827172536"><ele>16.5</ele><time>2026-04-17T01:38:23Z</time></trkpt><trkpt lat="-24.83353108272379" lon="113.7721956309819"><ele>16.0</ele><time>2026-04-17T01:38:24Z</time></trkpt><trkpt lat="-24.833776635405616" lon="113.77218384726096"><ele>16.0</ele><time>2026-04-17T01:38:25Z</time></trkpt><trkpt lat="-24.834022356346765" lon="113.77216415531637"><ele>16.0</ele><time>2026-04-17T01:38:26Z</time></trkpt><trkpt lat="-24.834269140189495" lon="113.77213024824596"><ele>15.5</ele><time>2026-04-17T01:38:27Z</time></trkpt><trkpt lat="-24.834515014183097" lon="113.77208149182864"><ele>15.0</ele><time>2026-04-17T01:38:28Z</time></trkpt><trkpt lat="-24.834756435817003" lon="113.77202246529995"><ele>15.0</ele><time>2026-04-17T01:38:29Z</time></trkpt><trkpt lat="-24.83499905057371" lon="113.77195255450034"><ele>15.0</ele><time>2026-04-17T01:38:30Z</time></trkpt><trkpt lat="-24.835236673603013" lon="113.77187860082888"><ele>17.0</ele><time>2026-04-17T01:38:31Z</time></trkpt><trkpt lat="-24.835477229560468" lon="113.77179216432654"><ele>19.0</ele><time>2026-04-17T01:38:32Z</time></trkpt><trkpt lat="-24.835711059348235" lon="113.77169665585782"><ele>19.0</ele><time>2026-04-17T01:38:33Z</time></trkpt><trkpt lat="-24.8359410497579" lon="113.77159319114467"><ele>19.0</ele><time>2026-04-17T01:38:34Z</time></trkpt><trkpt lat="-24.836164456777254" lon="113.77147988968784"><ele>18.0</ele><time>2026-04-17T01:38:35Z</time></trkpt><trkpt lat="-24.83638396954955" lon="113.77135637050654"><ele>17.0</ele><time>2026-04-17T01:38:36Z</time></trkpt><trkpt lat="-24.836597717163155" lon="113.77121955463619"><ele>16.5</ele><time>2026-04-17T01:38:37Z</time></trkpt><trkpt lat="-24.83680625905955" lon="113.77107337610823"><ele>16.0</ele><time>2026-04-17T01:38:38Z</time></trkpt><trkpt lat="-24.83701145227859" lon="113.77092042734196"><ele>16.0</ele><time>2026-04-17T01:38:39Z</time></trkpt><trkpt lat="-24.83721137343644" lon="113.77076167141135"><ele>16.0</ele><time>2026-04-17T01:38:40Z</time></trkpt><trkpt lat="-24.83740151890739" lon="113.77059822777805"><ele>16.0</ele><time>2026-04-17T01:38:41Z</time></trkpt><trkpt lat="-24.83758390085476" lon="113.7704267441513"><ele>16.0</ele><time>2026-04-17T01:38:42Z</time></trkpt><trkpt lat="-24.837768583380257" lon="113.77024292214442"><ele>16.0</ele><time>2026-04-17T01:38:43Z</time></trkpt><trkpt lat="-24.837950195075752" lon="113.77004587122937"><ele>16.0</ele><time>2026-04-17T01:38:44Z</time></trkpt><trkpt lat="-24.838129303426523" lon="113.76983967264208"><ele>16.0</ele><time>2026-04-17T01:38:45Z</time></trkpt><trkpt lat="-24.83830135034178" lon="113.76963185986634"><ele>16.0</ele><time>2026-04-17T01:38:46Z</time></trkpt><trkpt lat="-24.838471227020595" lon="113.76942092549324"><ele>16.0</ele><time>2026-04-17T01:38:47Z</time></trkpt><trkpt lat="-24.838638675249847" lon="113.76921147359995"><ele>16.0</ele><time>2026-04-17T01:38:48Z</time></trkpt><trkpt lat="-24.838806839003126" lon="113.76900722269599"><ele>16.0</ele><time>2026-04-17T01:38:49Z</time></trkpt><trkpt lat="-24.83897015420827" lon="113.76880908766529"><ele>16.0</ele><time>2026-04-17T01:38:50Z</time></trkpt><trkpt lat="-24.839123985752163" lon="113.76862198708127"><ele>16.333333333333332</ele><time>2026-04-17T01:38:51Z</time></trkpt><trkpt lat="-24.839269545935753" lon="113.76844439606297"><ele>16.666666666666668</ele><time>2026-04-17T01:38:52Z</time></trkpt><trkpt lat="-24.839404850650606" lon="113.76828075266903"><ele>17.0</ele><time>2026-04-17T01:38:53Z</time></trkpt><trkpt lat="-24.839529676663403" lon="113.7681269632024"><ele>17.666666666666668</ele><time>2026-04-17T01:38:54Z</time></trkpt><trkpt lat="-24.83964541001516" lon="113.76798744577798"><ele>18.333333333333332</ele><time>2026-04-17T01:38:55Z</time></trkpt><trkpt lat="-24.839749255511155" lon="113.76786094600524"><ele>19.0</ele><time>2026-04-17T01:38:56Z</time></trkpt><trkpt lat="-24.839838941092435" lon="113.76775014464789"><ele>18.599999999999998</ele><time>2026-04-17T01:38:57Z</time></trkpt><trkpt lat="-24.839919583310923" lon="113.76765328930995"><ele>18.2</ele><time>2026-04-17T01:38:58Z</time></trkpt><trkpt lat="-24.839991285624464" lon="113.76756967361851"><ele>17.799999999999997</ele><time>2026-04-17T01:38:59Z</time></trkpt><trkpt lat="-24.840059066333" lon="113.76750664158445"><ele>17.4</ele><time>2026-04-17T01:39:00Z</time></trkpt><trkpt lat="-24.84013963870661" lon="113.76746651726032"><ele>17.0</ele><time>2026-04-17T01:39:01Z</time></trkpt><trkpt lat="-24.8402267553979" lon="113.76745699910842"><ele>17.0</ele><time>2026-04-17T01:39:02Z</time></trkpt><trkpt lat="-24.84038868507065" lon="113.76753124224005"><ele>17.0</ele><time>2026-04-17T01:39:04Z</time></trkpt><trkpt lat="-24.8404492187116" lon="113.76761007279984"><ele>17.0</ele><time>2026-04-17T01:39:05Z</time></trkpt><trkpt lat="-24.84051242097067" lon="113.76771616944875"><ele>17.0</ele><time>2026-04-17T01:39:06Z</time></trkpt><trkpt lat="-24.840577785639148" lon="113.76784579402515"><ele>17.0</ele><time>2026-04-17T01:39:07Z</time></trkpt><trkpt lat="-24.840655281836185" lon="113.7679863730894"><ele>17.0</ele><time>2026-04-17T01:39:08Z</time></trkpt><trkpt lat="-24.840738906814018" lon="113.76813694492111"><ele>17.0</ele><time>2026-04-17T01:39:09Z</time></trkpt><trkpt lat="-24.840822014447536" lon="113.76829730076982"><ele>17.0</ele><time>2026-04-17T01:39:10Z</time></trkpt><trkpt lat="-24.840906334444984" lon="113.76847085798786"><ele>17.0</ele><time>2026-04-17T01:39:11Z</time></trkpt><trkpt lat="-24.841000114594912" lon="113.76866122739384"><ele>17.0</ele><time>2026-04-17T01:39:12Z</time></trkpt><trkpt lat="-24.841090611999277" lon="113.7688735206139"><ele>16.333333333333336</ele><time>2026-04-17T01:39:13Z</time></trkpt><trkpt lat="-24.841182633280145" lon="113.76908759722373"><ele>15.666666666666668</ele><time>2026-04-17T01:39:14Z</time></trkpt><trkpt lat="-24.841270173663116" lon="113.76930933835773"><ele>15.0</ele><time>2026-04-17T01:39:15Z</time></trkpt><trkpt lat="-24.84135745768104" lon="113.76955434088448"><ele>14.5</ele><time>2026-04-17T01:39:16Z</time></trkpt><trkpt lat="-24.84144166669629" lon="113.76981307893486"><ele>14.0</ele><time>2026-04-17T01:39:17Z</time></trkpt><trkpt lat="-24.841515795519356" lon="113.77007184688037"><ele>14.5</ele><time>2026-04-17T01:39:18Z</time></trkpt><trkpt lat="-24.841579481223963" lon="113.7703408445768"><ele>15.0</ele><time>2026-04-17T01:39:19Z</time></trkpt><trkpt lat="-24.841632917829806" lon="113.7706205768018"><ele>15.0</ele><time>2026-04-17T01:39:20Z</time></trkpt><trkpt lat="-24.84167876556058" lon="113.77090844497131"><ele>15.0</ele><time>2026-04-17T01:39:21Z</time></trkpt><trkpt lat="-24.84171941176277" lon="113.77119528982072"><ele>15.5</ele><time>2026-04-17T01:39:22Z</time></trkpt><trkpt lat="-24.84174997126276" lon="113.77147526882166"><ele>16.0</ele><time>2026-04-17T01:39:23Z</time></trkpt><trkpt lat="-24.84176747371084" lon="113.77175544425789"><ele>15.5</ele><time>2026-04-17T01:39:24Z</time></trkpt><trkpt lat="-24.841776001092992" lon="113.77204187094209"><ele>15.0</ele><time>2026-04-17T01:39:25Z</time></trkpt><trkpt lat="-24.841777478950604" lon="113.77233050305745"><ele>15.0</ele><time>2026-04-17T01:39:26Z</time></trkpt><trkpt lat="-24.841771370419995" lon="113.77262020537813"><ele>15.0</ele><time>2026-04-17T01:39:27Z</time></trkpt><trkpt lat="-24.841753645159553" lon="113.77291730678884"><ele>15.5</ele><time>2026-04-17T01:39:28Z</time></trkpt><trkpt lat="-24.841724435887112" lon="113.77321963533217"><ele>16.0</ele><time>2026-04-17T01:39:29Z</time></trkpt><trkpt lat="-24.84168651459788" lon="113.773523769996"><ele>15.0</ele><time>2026-04-17T01:39:30Z</time></trkpt><trkpt lat="-24.841635344922906" lon="113.77382355709331"><ele>14.0</ele><time>2026-04-17T01:39:31Z</time></trkpt><trkpt lat="-24.841573313044748" lon="113.77411990635707"><ele>13.5</ele><time>2026-04-17T01:39:32Z</time></trkpt><trkpt lat="-24.841502322165272" lon="113.77441299635049"><ele>13.0</ele><time>2026-04-17T01:39:33Z</time></trkpt><trkpt lat="-24.841422710082977" lon="113.77469799167832"><ele>13.0</ele><time>2026-04-17T01:39:34Z</time></trkpt><trkpt lat="-24.841332464377235" lon="113.7749804586748"><ele>13.0</ele><time>2026-04-17T01:39:35Z</time></trkpt><trkpt lat="-24.841234537433543" lon="113.77525653384146"><ele>13.5</ele><time>2026-04-17T01:39:36Z</time></trkpt><trkpt lat="-24.841127026264335" lon="113.77552891499339"><ele>14.0</ele><time>2026-04-17T01:39:37Z</time></trkpt><trkpt lat="-24.841005676517916" lon="113.77579465748539"><ele>15.0</ele><time>2026-04-17T01:39:38Z</time></trkpt><trkpt lat="-24.840871425088025" lon="113.77606097407262"><ele>16.0</ele><time>2026-04-17T01:39:39Z</time></trkpt><trkpt lat="-24.840731738311383" lon="113.77632286583501"><ele>16.0</ele><time>2026-04-17T01:39:40Z</time></trkpt><trkpt lat="-24.840583654835584" lon="113.77658264919265"><ele>16.0</ele><time>2026-04-17T01:39:41Z</time></trkpt><trkpt lat="-24.840424374486723" lon="113.77683477321393"><ele>16.0</ele><time>2026-04-17T01:39:42Z</time></trkpt><trkpt lat="-24.840256617968578" lon="113.77708112877514"><ele>16.0</ele><time>2026-04-17T01:39:43Z</time></trkpt><trkpt lat="-24.840087190888816" lon="113.77732480129929"><ele>16.0</ele><time>2026-04-17T01:39:44Z</time></trkpt><trkpt lat="-24.839917156907973" lon="113.77756522874522"><ele>16.0</ele><time>2026-04-17T01:39:45Z</time></trkpt><trkpt lat="-24.839744347672706" lon="113.77780712375043"><ele>15.5</ele><time>2026-04-17T01:39:46Z</time></trkpt><trkpt lat="-24.839575431625015" lon="113.77805061630129"><ele>15.0</ele><time>2026-04-17T01:39:47Z</time></trkpt><trkpt lat="-24.839407212145865" lon="113.77829321985368"><ele>15.0</ele><time>2026-04-17T01:39:48Z</time></trkpt><trkpt lat="-24.839236246731666" lon="113.77853737115275"><ele>15.0</ele><time>2026-04-17T01:39:49Z</time></trkpt><trkpt lat="-24.839070206714187" lon="113.77878176012338"><ele>15.0</ele><time>2026-04-17T01:39:50Z</time></trkpt><trkpt lat="-24.838905333818506" lon="113.77902619419568"><ele>15.0</ele><time>2026-04-17T01:39:51Z</time></trkpt><trkpt lat="-24.83873987948201" lon="113.779269070225"><ele>15.0</ele><time>2026-04-17T01:39:52Z</time></trkpt><trkpt lat="-24.838571530465583" lon="113.77951165840362"><ele>15.0</ele><time>2026-04-17T01:39:53Z</time></trkpt><trkpt lat="-24.8384018556054" lon="113.77975250466598"><ele>14.5</ele><time>2026-04-17T01:39:54Z</time></trkpt><trkpt lat="-24.83823346420983" lon="113.77999095471728"><ele>14.0</ele><time>2026-04-17T01:39:55Z</time></trkpt><trkpt lat="-24.838063639393287" lon="113.78023639639603"><ele>15.0</ele><time>2026-04-17T01:39:56Z</time></trkpt><trkpt lat="-24.83789507667786" lon="113.7804840034313"><ele>16.0</ele><time>2026-04-17T01:39:57Z</time></trkpt><trkpt lat="-24.83772443893697" lon="113.78073409771662"><ele>16.0</ele><time>2026-04-17T01:39:58Z</time></trkpt><trkpt lat="-24.837553673317544" lon="113.78098335124031"><ele>16.0</ele><time>2026-04-17T01:39:59Z</time></trkpt><trkpt lat="-24.837381860860276" lon="113.78123192373859"><ele>16.0</ele><time>2026-04-17T01:40:00Z</time></trkpt><trkpt lat="-24.837208460134477" lon="113.78148049255798"><ele>16.0</ele><time>2026-04-17T01:40:01Z</time></trkpt><trkpt lat="-24.837035341245794" lon="113.78173218273857"><ele>15.5</ele><time>2026-04-17T01:40:02Z</time></trkpt><trkpt lat="-24.83686245899728" lon="113.7819861876793"><ele>15.0</ele><time>2026-04-17T01:40:03Z</time></trkpt><trkpt lat="-24.836686256113854" lon="113.78224428976952"><ele>16.0</ele><time>2026-04-17T01:40:04Z</time></trkpt><trkpt lat="-24.836510909242882" lon="113.78250046977465"><ele>17.0</ele><time>2026-04-17T01:40:05Z</time></trkpt><trkpt lat="-24.836335249391958" lon="113.78276203540871"><ele>17.0</ele><time>2026-04-17T01:40:06Z</time></trkpt><trkpt lat="-24.836160417951962" lon="113.78302147128595"><ele>17.0</ele><time>2026-04-17T01:40:07Z</time></trkpt><trkpt lat="-24.83598541187991" lon="113.78328017132544"><ele>17.5</ele><time>2026-04-17T01:40:08Z</time></trkpt><trkpt lat="-24.83581124624751" lon="113.78353777956713"><ele>18.0</ele><time>2026-04-17T01:40:09Z</time></trkpt><trkpt lat="-24.83564082357401" lon="113.78380336610304"><ele>18.0</ele><time>2026-04-17T01:40:10Z</time></trkpt><trkpt lat="-24.835475965366268" lon="113.7840750879168"><ele>18.0</ele><time>2026-04-17T01:40:11Z</time></trkpt><trkpt lat="-24.835314951099125" lon="113.78435207318489"><ele>18.0</ele><time>2026-04-17T01:40:12Z</time></trkpt><trkpt lat="-24.835163595430192" lon="113.7846322760046"><ele>18.0</ele><time>2026-04-17T01:40:13Z</time></trkpt><trkpt lat="-24.835020018809022" lon="113.78491849990678"><ele>17.5</ele><time>2026-04-17T01:40:14Z</time></trkpt><trkpt lat="-24.834881106012546" lon="113.78520841949087"><ele>17.0</ele><time>2026-04-17T01:40:15Z</time></trkpt><trkpt lat="-24.834749262707618" lon="113.7855008937869"><ele>17.0</ele><time>2026-04-17T01:40:16Z</time></trkpt><trkpt lat="-24.834608563763602" lon="113.78578292707928"><ele>17.0</ele><time>2026-04-17T01:40:17Z</time></trkpt><trkpt lat="-24.834477458835273" lon="113.78606597285031"><ele>17.0</ele><time>2026-04-17T01:40:18Z</time></trkpt><trkpt lat="-24.834397086736285" lon="113.78638757971748"><ele>17.0</ele><time>2026-04-17T01:40:19Z</time></trkpt><trkpt lat="-24.834289193201577" lon="113.78668811402405"><ele>17.5</ele><time>2026-04-17T01:40:20Z</time></trkpt><trkpt lat="-24.834187588969353" lon="113.78699321989562"><ele>18.0</ele><time>2026-04-17T01:40:21Z</time></trkpt><trkpt lat="-24.834093678255833" lon="113.7872972439839"><ele>18.0</ele><time>2026-04-17T01:40:22Z</time></trkpt><trkpt lat="-24.834006462659218" lon="113.78760622286832"><ele>18.0</ele><time>2026-04-17T01:40:23Z</time></trkpt><trkpt lat="-24.83392360469948" lon="113.78791454146408"><ele>17.5</ele><time>2026-04-17T01:40:24Z</time></trkpt><trkpt lat="-24.833847200643252" lon="113.78822588521622"><ele>17.0</ele><time>2026-04-17T01:40:25Z</time></trkpt><trkpt lat="-24.83378171607939" lon="113.78853643843182"><ele>18.0</ele><time>2026-04-17T01:40:26Z</time></trkpt><trkpt lat="-24.83372242253349" lon="113.78884847607907"><ele>19.0</ele><time>2026-04-17T01:40:27Z</time></trkpt><trkpt lat="-24.833665976647943" lon="113.78915889781436"><ele>19.0</ele><time>2026-04-17T01:40:28Z</time></trkpt><trkpt lat="-24.833615054818715" lon="113.78946916653429"><ele>19.0</ele><time>2026-04-17T01:40:29Z</time></trkpt><trkpt lat="-24.83357305984819" lon="113.78978009723821"><ele>19.0</ele><time>2026-04-17T01:40:30Z</time></trkpt><trkpt lat="-24.8335404962778" lon="113.79008972865282"><ele>19.0</ele><time>2026-04-17T01:40:31Z</time></trkpt><trkpt lat="-24.833513188348864" lon="113.7903987737654"><ele>19.0</ele><time>2026-04-17T01:40:32Z</time></trkpt><trkpt lat="-24.83349004983278" lon="113.79070393956805"><ele>19.0</ele><time>2026-04-17T01:40:33Z</time></trkpt><trkpt lat="-24.833474453071656" lon="113.7910061421853"><ele>19.5</ele><time>2026-04-17T01:40:34Z</time></trkpt><trkpt lat="-24.83346360732771" lon="113.79131289155234"><ele>20.0</ele><time>2026-04-17T01:40:35Z</time></trkpt><trkpt lat="-24.833451344574232" lon="113.79162035722632"><ele>20.0</ele><time>2026-04-17T01:40:36Z</time></trkpt><trkpt lat="-24.833436492436597" lon="113.79192917234762"><ele>20.0</ele><time>2026-04-17T01:40:37Z</time></trkpt><trkpt lat="-24.833424285868606" lon="113.79223778210682"><ele>20.0</ele><time>2026-04-17T01:40:38Z</time></trkpt><trkpt lat="-24.8334115474867" lon="113.79254759146562"><ele>20.0</ele><time>2026-04-17T01:40:39Z</time></trkpt><trkpt lat="-24.83339525498177" lon="113.79286103051919"><ele>20.5</ele><time>2026-04-17T01:40:40Z</time></trkpt><trkpt lat="-24.83337710986117" lon="113.79317658396158"><ele>21.0</ele><time>2026-04-17T01:40:41Z</time></trkpt><trkpt lat="-24.83335997161142" lon="113.79349190124283"><ele>20.5</ele><time>2026-04-17T01:40:42Z</time></trkpt><trkpt lat="-24.833343974099552" lon="113.79380790501457"><ele>20.0</ele><time>2026-04-17T01:40:43Z</time></trkpt><trkpt lat="-24.833328330744354" lon="113.79412655967708"><ele>19.0</ele><time>2026-04-17T01:40:44Z</time></trkpt><trkpt lat="-24.83331036378846" lon="113.79444511446063"><ele>18.0</ele><time>2026-04-17T01:40:45Z</time></trkpt><trkpt lat="-24.833293231194997" lon="113.79476451553035"><ele>18.0</ele><time>2026-04-17T01:40:46Z</time></trkpt><trkpt lat="-24.833274102107715" lon="113.79508020852775"><ele>18.0</ele><time>2026-04-17T01:40:47Z</time></trkpt><trkpt lat="-24.833257072498352" lon="113.79539930882426"><ele>18.5</ele><time>2026-04-17T01:40:48Z</time></trkpt><trkpt lat="-24.833242401297525" lon="113.79571428528521"><ele>19.0</ele><time>2026-04-17T01:40:49Z</time></trkpt><trkpt lat="-24.833226818864595" lon="113.79602950730651"><ele>19.0</ele><time>2026-04-17T01:40:50Z</time></trkpt><trkpt lat="-24.833211400284263" lon="113.79634732040486"><ele>19.0</ele><time>2026-04-17T01:40:51Z</time></trkpt><trkpt lat="-24.833197801887007" lon="113.79666187384056"><ele>18.0</ele><time>2026-04-17T01:40:52Z</time></trkpt><trkpt lat="-24.833180430931446" lon="113.79697623077656"><ele>17.0</ele><time>2026-04-17T01:40:53Z</time></trkpt><trkpt lat="-24.833163233540432" lon="113.7972886446028"><ele>17.0</ele><time>2026-04-17T01:40:54Z</time></trkpt><trkpt lat="-24.833147436245312" lon="113.7976011727077"><ele>17.0</ele><time>2026-04-17T01:40:55Z</time></trkpt><trkpt lat="-24.83313257051472" lon="113.79791275965792"><ele>17.0</ele><time>2026-04-17T01:40:56Z</time></trkpt><trkpt lat="-24.83311665172791" lon="113.79822662757215"><ele>17.0</ele><time>2026-04-17T01:40:57Z</time></trkpt><trkpt lat="-24.833101628501826" lon="113.7985430527236"><ele>17.0</ele><time>2026-04-17T01:40:58Z</time></trkpt><trkpt lat="-24.833088751140718" lon="113.79886254396813"><ele>17.0</ele><time>2026-04-17T01:40:59Z</time></trkpt><trkpt lat="-24.83307435662912" lon="113.79918359040023"><ele>17.5</ele><time>2026-04-17T01:41:00Z</time></trkpt><trkpt lat="-24.833055552470803" lon="113.7995054050106"><ele>18.0</ele><time>2026-04-17T01:41:01Z</time></trkpt><trkpt lat="-24.833032531920196" lon="113.79982781875957"><ele>18.0</ele><time>2026-04-17T01:41:02Z</time></trkpt><trkpt lat="-24.833011504097918" lon="113.80015085145195"><ele>18.0</ele><time>2026-04-17T01:41:03Z</time></trkpt><trkpt lat="-24.832994731186123" lon="113.80047617252087"><ele>18.0</ele><time>2026-04-17T01:41:04Z</time></trkpt><trkpt lat="-24.832980414941005" lon="113.80080527213771"><ele>18.0</ele><time>2026-04-17T01:41:05Z</time></trkpt><trkpt lat="-24.832966934148143" lon="113.8011367623776"><ele>17.5</ele><time>2026-04-17T01:41:06Z</time></trkpt><trkpt lat="-24.832950435853938" lon="113.80146878763968"><ele>17.0</ele><time>2026-04-17T01:41:07Z</time></trkpt><trkpt lat="-24.832933649126307" lon="113.80180295596763"><ele>16.5</ele><time>2026-04-17T01:41:08Z</time></trkpt><trkpt lat="-24.83291690209883" lon="113.80213676015597"><ele>16.0</ele><time>2026-04-17T01:41:09Z</time></trkpt><trkpt lat="-24.832898944992834" lon="113.8024714114555"><ele>16.5</ele><time>2026-04-17T01:41:10Z</time></trkpt><trkpt lat="-24.832879633349936" lon="113.80280695637728"><ele>17.0</ele><time>2026-04-17T01:41:11Z</time></trkpt><trkpt lat="-24.83286131175123" lon="113.8031419688563"><ele>17.0</ele><time>2026-04-17T01:41:12Z</time></trkpt><trkpt lat="-24.832843893386347" lon="113.8034785049049"><ele>17.0</ele><time>2026-04-17T01:41:13Z</time></trkpt><trkpt lat="-24.83282805650745" lon="113.80381231159946"><ele>17.0</ele><time>2026-04-17T01:41:14Z</time></trkpt><trkpt lat="-24.832812666391394" lon="113.80414296061413"><ele>17.0</ele><time>2026-04-17T01:41:15Z</time></trkpt><trkpt lat="-24.832802012977087" lon="113.8044695450096"><ele>17.5</ele><time>2026-04-17T01:41:16Z</time></trkpt><trkpt lat="-24.832788206433868" lon="113.80479711241907"><ele>18.0</ele><time>2026-04-17T01:41:17Z</time></trkpt><trkpt lat="-24.832770127844913" lon="113.80512740689656"><ele>19.0</ele><time>2026-04-17T01:41:18Z</time></trkpt><trkpt lat="-24.832749323621137" lon="113.80545743881416"><ele>20.0</ele><time>2026-04-17T01:41:19Z</time></trkpt><trkpt lat="-24.8327279564293" lon="113.80578556183413"><ele>19.5</ele><time>2026-04-17T01:41:20Z</time></trkpt><trkpt lat="-24.83270665905157" lon="113.80611360911648"><ele>19.0</ele><time>2026-04-17T01:41:21Z</time></trkpt><trkpt lat="-24.83268776145816" lon="113.80644257924325"><ele>19.0</ele><time>2026-04-17T01:41:22Z</time></trkpt><trkpt lat="-24.83267346802791" lon="113.80676833724313"><ele>19.0</ele><time>2026-04-17T01:41:23Z</time></trkpt><trkpt lat="-24.832659244170838" lon="113.80709216482006"><ele>19.0</ele><time>2026-04-17T01:41:24Z</time></trkpt><trkpt lat="-24.83264459969089" lon="113.80741404880956"><ele>19.0</ele><time>2026-04-17T01:41:25Z</time></trkpt><trkpt lat="-24.832628604350152" lon="113.80773322771024"><ele>17.5</ele><time>2026-04-17T01:41:26Z</time></trkpt><trkpt lat="-24.832618621080393" lon="113.80805239428184"><ele>16.0</ele><time>2026-04-17T01:41:27Z</time></trkpt><trkpt lat="-24.83261372559175" lon="113.80837828802488"><ele>17.0</ele><time>2026-04-17T01:41:28Z</time></trkpt><trkpt lat="-24.832620348171762" lon="113.80870102498206"><ele>18.0</ele><time>2026-04-17T01:41:29Z</time></trkpt><trkpt lat="-24.83263698350985" lon="113.80902403585937"><ele>18.5</ele><time>2026-04-17T01:41:30Z</time></trkpt><trkpt lat="-24.832665891439575" lon="113.80934761144358"><ele>19.0</ele><time>2026-04-17T01:41:31Z</time></trkpt><trkpt lat="-24.832701013951183" lon="113.8096682969715"><ele>19.0</ele><time>2026-04-17T01:41:32Z</time></trkpt><trkpt lat="-24.832733868948477" lon="113.80999144844029"><ele>19.0</ele><time>2026-04-17T01:41:33Z</time></trkpt><trkpt lat="-24.832768042766666" lon="113.81031602690666"><ele>19.0</ele><time>2026-04-17T01:41:34Z</time></trkpt><trkpt lat="-24.832802479037813" lon="113.81064290637977"><ele>19.0</ele><time>2026-04-17T01:41:35Z</time></trkpt><trkpt lat="-24.832835830529614" lon="113.81096840656741"><ele>19.0</ele><time>2026-04-17T01:41:36Z</time></trkpt><trkpt lat="-24.8328673894895" lon="113.8112941387943"><ele>19.0</ele><time>2026-04-17T01:41:37Z</time></trkpt><trkpt lat="-24.832899143346737" lon="113.81161947815826"><ele>19.0</ele><time>2026-04-17T01:41:38Z</time></trkpt><trkpt lat="-24.832930402391153" lon="113.8119487746115"><ele>19.0</ele><time>2026-04-17T01:41:39Z</time></trkpt><trkpt lat="-24.83296233996143" lon="113.8122787689681"><ele>19.0</ele><time>2026-04-17T01:41:40Z</time></trkpt><trkpt lat="-24.832994035460754" lon="113.81261003856224"><ele>19.0</ele><time>2026-04-17T01:41:41Z</time></trkpt><trkpt lat="-24.833023444081498" lon="113.81294021594509"><ele>19.0</ele><time>2026-04-17T01:41:42Z</time></trkpt><trkpt lat="-24.833054786292493" lon="113.813268786082"><ele>19.0</ele><time>2026-04-17T01:41:43Z</time></trkpt><trkpt lat="-24.833087050571347" lon="113.81359407649025"><ele>19.0</ele><time>2026-04-17T01:41:44Z</time></trkpt><trkpt lat="-24.833120633209827" lon="113.81391765637565"><ele>19.0</ele><time>2026-04-17T01:41:45Z</time></trkpt><trkpt lat="-24.833153891236716" lon="113.81423823572409"><ele>19.0</ele><time>2026-04-17T01:41:46Z</time></trkpt><trkpt lat="-24.83318674947319" lon="113.81455895773807"><ele>19.0</ele><time>2026-04-17T01:41:47Z</time></trkpt><trkpt lat="-24.833217241111708" lon="113.81488077516228"><ele>18.0</ele><time>2026-04-17T01:41:48Z</time></trkpt><trkpt lat="-24.833246101152014" lon="113.81520039076639"><ele>17.0</ele><time>2026-04-17T01:41:49Z</time></trkpt><trkpt lat="-24.833277200690063" lon="113.815520109613"><ele>17.0</ele><time>2026-04-17T01:41:50Z</time></trkpt><trkpt lat="-24.83330946670153" lon="113.81584101504484"><ele>17.0</ele><time>2026-04-17T01:41:51Z</time></trkpt><trkpt lat="-24.833343396705715" lon="113.8161645469356"><ele>18.0</ele><time>2026-04-17T01:41:52Z</time></trkpt><trkpt lat="-24.833377427073387" lon="113.81649041156561"><ele>19.0</ele><time>2026-04-17T01:41:53Z</time></trkpt><trkpt lat="-24.83340966566559" lon="113.8168170091746"><ele>18.0</ele><time>2026-04-17T01:41:54Z</time></trkpt><trkpt lat="-24.833440739545672" lon="113.81714534189074"><ele>17.0</ele><time>2026-04-17T01:41:55Z</time></trkpt><trkpt lat="-24.833472142866594" lon="113.81747629371905"><ele>18.0</ele><time>2026-04-17T01:41:56Z</time></trkpt><trkpt lat="-24.83350173760952" lon="113.81780615723743"><ele>19.0</ele><time>2026-04-17T01:41:57Z</time></trkpt><trkpt lat="-24.833530558234663" lon="113.81812802377685"><ele>19.0</ele><time>2026-04-17T01:41:58Z</time></trkpt><trkpt lat="-24.833553063608292" lon="113.81844818711313"><ele>19.0</ele><time>2026-04-17T01:41:59Z</time></trkpt><trkpt lat="-24.833565426603148" lon="113.81876796244202"><ele>19.5</ele><time>2026-04-17T01:42:00Z</time></trkpt><trkpt lat="-24.83356769015227" lon="113.81909486719633"><ele>20.0</ele><time>2026-04-17T01:42:01Z</time></trkpt><trkpt lat="-24.83355702976471" lon="113.81941917991394"><ele>19.0</ele><time>2026-04-17T01:42:02Z</time></trkpt><trkpt lat="-24.833536379872346" lon="113.81974730802902"><ele>18.0</ele><time>2026-04-17T01:42:03Z</time></trkpt><trkpt lat="-24.833505793749666" lon="113.82007840612063"><ele>18.0</ele><time>2026-04-17T01:42:04Z</time></trkpt><trkpt lat="-24.83347306756885" lon="113.8204116795988"><ele>18.0</ele><time>2026-04-17T01:42:05Z</time></trkpt><trkpt lat="-24.83344269431276" lon="113.82074846313544"><ele>20.0</ele><time>2026-04-17T01:42:06Z</time></trkpt><trkpt lat="-24.833415100113857" lon="113.82108846537535"><ele>22.0</ele><time>2026-04-17T01:42:07Z</time></trkpt><trkpt lat="-24.833390319580367" lon="113.82143034485442"><ele>22.0</ele><time>2026-04-17T01:42:08Z</time></trkpt><trkpt lat="-24.83336669280207" lon="113.82176942815197"><ele>22.0</ele><time>2026-04-17T01:42:09Z</time></trkpt><trkpt lat="-24.83334271154618" lon="113.82210810514594"><ele>21.5</ele><time>2026-04-17T01:42:10Z</time></trkpt><trkpt lat="-24.83331978352535" lon="113.82244810543939"><ele>21.0</ele><time>2026-04-17T01:42:11Z</time></trkpt><trkpt lat="-24.833296295766797" lon="113.8227876173311"><ele>20.0</ele><time>2026-04-17T01:42:12Z</time></trkpt><trkpt lat="-24.833272570373495" lon="113.82312544145685"><ele>19.0</ele><time>2026-04-17T01:42:13Z</time></trkpt><trkpt lat="-24.833246433048117" lon="113.82346318606491"><ele>20.0</ele><time>2026-04-17T01:42:14Z</time></trkpt><trkpt lat="-24.83322073783595" lon="113.82380291190006"><ele>21.0</ele><time>2026-04-17T01:42:15Z</time></trkpt><trkpt lat="-24.833193946763167" lon="113.82414169863651"><ele>21.5</ele><time>2026-04-17T01:42:16Z</time></trkpt><trkpt lat="-24.83316395103553" lon="113.82448061814458"><ele>22.0</ele><time>2026-04-17T01:42:17Z</time></trkpt><trkpt lat="-24.833134557505577" lon="113.82481700719872"><ele>20.0</ele><time>2026-04-17T01:42:18Z</time></trkpt><trkpt lat="-24.833108768304847" lon="113.82515566129892"><ele>18.0</ele><time>2026-04-17T01:42:19Z</time></trkpt><trkpt lat="-24.833085671386442" lon="113.82549235801265"><ele>18.0</ele><time>2026-04-17T01:42:20Z</time></trkpt><trkpt lat="-24.83306274509203" lon="113.82583053155442"><ele>18.0</ele><time>2026-04-17T01:42:21Z</time></trkpt><trkpt lat="-24.833038994723395" lon="113.82616935622681"><ele>18.5</ele><time>2026-04-17T01:42:22Z</time></trkpt><trkpt lat="-24.833015105720435" lon="113.82650786164092"><ele>19.0</ele><time>2026-04-17T01:42:23Z</time></trkpt><trkpt lat="-24.83299004943277" lon="113.82684837226792"><ele>19.0</ele><time>2026-04-17T01:42:24Z</time></trkpt><trkpt lat="-24.832963411231457" lon="113.82718678550367"><ele>19.0</ele><time>2026-04-17T01:42:25Z</time></trkpt><trkpt lat="-24.832937004762183" lon="113.82752900986718"><ele>18.0</ele><time>2026-04-17T01:42:26Z</time></trkpt><trkpt lat="-24.832909649772546" lon="113.82787074231784"><ele>17.0</ele><time>2026-04-17T01:42:27Z</time></trkpt><trkpt lat="-24.832882808455143" lon="113.8282121383773"><ele>18.0</ele><time>2026-04-17T01:42:28Z</time></trkpt><trkpt lat="-24.83285519787819" lon="113.82854720668469"><ele>19.0</ele><time>2026-04-17T01:42:29Z</time></trkpt><trkpt lat="-24.832828478042916" lon="113.82888087578449"><ele>19.0</ele><time>2026-04-17T01:42:30Z</time></trkpt><trkpt lat="-24.83280340977517" lon="113.82921274808949"><ele>19.0</ele><time>2026-04-17T01:42:31Z</time></trkpt><trkpt lat="-24.83278031089183" lon="113.82954436063893"><ele>19.5</ele><time>2026-04-17T01:42:32Z</time></trkpt><trkpt lat="-24.832758154234725" lon="113.82987412759924"><ele>20.0</ele><time>2026-04-17T01:42:33Z</time></trkpt><trkpt lat="-24.832735360003507" lon="113.83020175698553"><ele>20.0</ele><time>2026-04-17T01:42:34Z</time></trkpt><trkpt lat="-24.83271143276247" lon="113.83052798063977"><ele>20.0</ele><time>2026-04-17T01:42:35Z</time></trkpt><trkpt lat="-24.832686227468344" lon="113.83085436557846"><ele>20.0</ele><time>2026-04-17T01:42:36Z</time></trkpt><trkpt lat="-24.832660383003073" lon="113.83118122245777"><ele>20.0</ele><time>2026-04-17T01:42:37Z</time></trkpt><trkpt lat="-24.832634033241845" lon="113.83150880037003"><ele>18.5</ele><time>2026-04-17T01:42:38Z</time></trkpt><trkpt lat="-24.83260738616156" lon="113.83183942134407"><ele>17.0</ele><time>2026-04-17T01:42:39Z</time></trkpt><trkpt lat="-24.832581066227316" lon="113.83216894342561"><ele>17.0</ele><time>2026-04-17T01:42:40Z</time></trkpt><trkpt lat="-24.83255500016228" lon="113.83249914864659"><ele>17.0</ele><time>2026-04-17T01:42:41Z</time></trkpt><trkpt lat="-24.832531123463866" lon="113.83282875359373"><ele>17.5</ele><time>2026-04-17T01:42:42Z</time></trkpt><trkpt lat="-24.83250769581737" lon="113.83315699333197"><ele>18.0</ele><time>2026-04-17T01:42:43Z</time></trkpt><trkpt lat="-24.83248289863237" lon="113.83348945287233"><ele>19.5</ele><time>2026-04-17T01:42:44Z</time></trkpt><trkpt lat="-24.83245763986834" lon="113.83382447859131"><ele>21.0</ele><time>2026-04-17T01:42:45Z</time></trkpt><trkpt lat="-24.83243309620967" lon="113.83416359779966"><ele>20.5</ele><time>2026-04-17T01:42:46Z</time></trkpt><trkpt lat="-24.832409100739735" lon="113.83450471789133"><ele>20.0</ele><time>2026-04-17T01:42:47Z</time></trkpt><trkpt lat="-24.83238463401669" lon="113.83484554872648"><ele>20.5</ele><time>2026-04-17T01:42:48Z</time></trkpt><trkpt lat="-24.832358383707586" lon="113.83518457856204"><ele>21.0</ele><time>2026-04-17T01:42:49Z</time></trkpt><trkpt lat="-24.832332711322866" lon="113.83552734855157"><ele>21.0</ele><time>2026-04-17T01:42:50Z</time></trkpt><trkpt lat="-24.83230831876313" lon="113.8358674651758"><ele>21.0</ele><time>2026-04-17T01:42:51Z</time></trkpt><trkpt lat="-24.83228353912646" lon="113.83620786820573"><ele>21.0</ele><time>2026-04-17T01:42:52Z</time></trkpt><trkpt lat="-24.832258850522756" lon="113.83655116222101"><ele>21.0</ele><time>2026-04-17T01:42:53Z</time></trkpt><trkpt lat="-24.83223335551934" lon="113.83689237010778"><ele>21.0</ele><time>2026-04-17T01:42:54Z</time></trkpt><trkpt lat="-24.83220730511936" lon="113.83723276839076"><ele>21.0</ele><time>2026-04-17T01:42:55Z</time></trkpt><trkpt lat="-24.832183206364885" lon="113.8375719075063"><ele>22.5</ele><time>2026-04-17T01:42:56Z</time></trkpt><trkpt lat="-24.832159625750602" lon="113.83790953002651"><ele>24.0</ele><time>2026-04-17T01:42:57Z</time></trkpt><trkpt lat="-24.83213451932762" lon="113.83824678516179"><ele>23.0</ele><time>2026-04-17T01:42:58Z</time></trkpt><trkpt lat="-24.832108452319574" lon="113.8385832607568"><ele>22.0</ele><time>2026-04-17T01:42:59Z</time></trkpt><trkpt lat="-24.832081555529477" lon="113.83892032877813"><ele>22.0</ele><time>2026-04-17T01:43:00Z</time></trkpt><trkpt lat="-24.83205525866254" lon="113.83926279559077"><ele>22.0</ele><time>2026-04-17T01:43:01Z</time></trkpt><trkpt lat="-24.83203022835078" lon="113.83961061683338"><ele>22.0</ele><time>2026-04-17T01:43:02Z</time></trkpt><trkpt lat="-24.832005938490557" lon="113.83995492517832"><ele>22.0</ele><time>2026-04-17T01:43:03Z</time></trkpt><trkpt lat="-24.831981543480104" lon="113.84029070419844"><ele>22.0</ele><time>2026-04-17T01:43:04Z</time></trkpt><trkpt lat="-24.83195612362898" lon="113.84063032216662"><ele>22.0</ele><time>2026-04-17T01:43:05Z</time></trkpt><trkpt lat="-24.831931135562805" lon="113.84096433106069"><ele>21.0</ele><time>2026-04-17T01:43:06Z</time></trkpt><trkpt lat="-24.831905651068112" lon="113.84129979169876"><ele>20.0</ele><time>2026-04-17T01:43:07Z</time></trkpt><trkpt lat="-24.831880445176267" lon="113.84163505375759"><ele>20.5</ele><time>2026-04-17T01:43:08Z</time></trkpt><trkpt lat="-24.831854180850556" lon="113.84196818627167"><ele>21.0</ele><time>2026-04-17T01:43:09Z</time></trkpt><trkpt lat="-24.83182927873346" lon="113.84230422597483"><ele>20.0</ele><time>2026-04-17T01:43:10Z</time></trkpt><trkpt lat="-24.8318052772639" lon="113.84263904639187"><ele>19.0</ele><time>2026-04-17T01:43:11Z</time></trkpt><trkpt lat="-24.831779867258856" lon="113.84297186352237"><ele>19.0</ele><time>2026-04-17T01:43:12Z</time></trkpt><trkpt lat="-24.83175366364694" lon="113.84330341694489"><ele>19.0</ele><time>2026-04-17T01:43:13Z</time></trkpt><trkpt lat="-24.83172597318174" lon="113.84363399871629"><ele>20.0</ele><time>2026-04-17T01:43:14Z</time></trkpt><trkpt lat="-24.831699789060767" lon="113.84396610542352"><ele>21.0</ele><time>2026-04-17T01:43:15Z</time></trkpt><trkpt lat="-24.83167443590607" lon="113.8442964747332"><ele>21.5</ele><time>2026-04-17T01:43:16Z</time></trkpt><trkpt lat="-24.831650869952686" lon="113.84462572961401"><ele>22.0</ele><time>2026-04-17T01:43:17Z</time></trkpt><trkpt lat="-24.83162566994843" lon="113.84495732986849"><ele>21.5</ele><time>2026-04-17T01:43:18Z</time></trkpt><trkpt lat="-24.831601385322983" lon="113.84528852029192"><ele>21.0</ele><time>2026-04-17T01:43:19Z</time></trkpt><trkpt lat="-24.831579144375517" lon="113.8456222890664"><ele>21.0</ele><time>2026-04-17T01:43:20Z</time></trkpt><trkpt lat="-24.83155542883031" lon="113.84595586105972"><ele>21.0</ele><time>2026-04-17T01:43:21Z</time></trkpt><trkpt lat="-24.83153138132821" lon="113.8462908535867"><ele>20.5</ele><time>2026-04-17T01:43:22Z</time></trkpt><trkpt lat="-24.83150713992395" lon="113.84662630590522"><ele>20.0</ele><time>2026-04-17T01:43:23Z</time></trkpt><trkpt lat="-24.831482415781345" lon="113.8469624024238"><ele>21.0</ele><time>2026-04-17T01:43:24Z</time></trkpt><trkpt lat="-24.831457533402865" lon="113.84730030935162"><ele>22.0</ele><time>2026-04-17T01:43:25Z</time></trkpt><trkpt lat="-24.831432052270564" lon="113.84763726164685"><ele>22.0</ele><time>2026-04-17T01:43:26Z</time></trkpt><trkpt lat="-24.831405234692067" lon="113.84797334556825"><ele>22.0</ele><time>2026-04-17T01:43:27Z</time></trkpt><trkpt lat="-24.831380077275423" lon="113.84831189140618"><ele>23.5</ele><time>2026-04-17T01:43:28Z</time></trkpt><trkpt lat="-24.83135578407248" lon="113.84865067526368"><ele>25.0</ele><time>2026-04-17T01:43:29Z</time></trkpt><trkpt lat="-24.83132977212699" lon="113.84898945529149"><ele>23.5</ele><time>2026-04-17T01:43:30Z</time></trkpt><trkpt lat="-24.831303551409896" lon="113.84932697908137"><ele>22.0</ele><time>2026-04-17T01:43:31Z</time></trkpt><trkpt lat="-24.831277055091682" lon="113.84966388783525"><ele>22.0</ele><time>2026-04-17T01:43:32Z</time></trkpt><trkpt lat="-24.831253900901967" lon="113.84999910036622"><ele>22.0</ele><time>2026-04-17T01:43:33Z</time></trkpt><trkpt lat="-24.83123214298583" lon="113.85033274022032"><ele>23.0</ele><time>2026-04-17T01:43:34Z</time></trkpt><trkpt lat="-24.83120760033749" lon="113.85066517274731"><ele>24.0</ele><time>2026-04-17T01:43:35Z</time></trkpt><trkpt lat="-24.831184424310326" lon="113.85099457968731"><ele>24.0</ele><time>2026-04-17T01:43:36Z</time></trkpt><trkpt lat="-24.831161694945852" lon="113.85132733318711"><ele>24.0</ele><time>2026-04-17T01:43:37Z</time></trkpt><trkpt lat="-24.831137574341465" lon="113.85166200613556"><ele>23.0</ele><time>2026-04-17T01:43:38Z</time></trkpt><trkpt lat="-24.831111758730568" lon="113.8519966374064"><ele>22.0</ele><time>2026-04-17T01:43:39Z</time></trkpt><trkpt lat="-24.83108497900075" lon="113.85233441790814"><ele>22.0</ele><time>2026-04-17T01:43:40Z</time></trkpt><trkpt lat="-24.831058656943956" lon="113.85266827519317"><ele>22.0</ele><time>2026-04-17T01:43:41Z</time></trkpt><trkpt lat="-24.831030330773736" lon="113.85300380963156"><ele>22.0</ele><time>2026-04-17T01:43:42Z</time></trkpt><trkpt lat="-24.831001840706115" lon="113.85334130437896"><ele>22.0</ele><time>2026-04-17T01:43:43Z</time></trkpt><trkpt lat="-24.830975856032616" lon="113.85367890565165"><ele>21.5</ele><time>2026-04-17T01:43:44Z</time></trkpt><trkpt lat="-24.830951483222716" lon="113.8540186848268"><ele>21.0</ele><time>2026-04-17T01:43:45Z</time></trkpt><trkpt lat="-24.83092532186163" lon="113.85436274538486"><ele>22.0</ele><time>2026-04-17T01:43:46Z</time></trkpt><trkpt lat="-24.830896529932655" lon="113.85470854992624"><ele>23.0</ele><time>2026-04-17T01:43:47Z</time></trkpt><trkpt lat="-24.83086869117233" lon="113.85505050804085"><ele>22.5</ele><time>2026-04-17T01:43:48Z</time></trkpt><trkpt lat="-24.830841951663974" lon="113.85539261986034"><ele>22.0</ele><time>2026-04-17T01:43:49Z</time></trkpt><trkpt lat="-24.830816350036685" lon="113.85572988492294"><ele>21.5</ele><time>2026-04-17T01:43:50Z</time></trkpt><trkpt lat="-24.830790672175755" lon="113.85606481508773"><ele>21.0</ele><time>2026-04-17T01:43:51Z</time></trkpt><trkpt lat="-24.83076493192136" lon="113.85639620054809"><ele>21.0</ele><time>2026-04-17T01:43:52Z</time></trkpt><trkpt lat="-24.830741535561657" lon="113.85673048848948"><ele>21.0</ele><time>2026-04-17T01:43:53Z</time></trkpt><trkpt lat="-24.830718414582364" lon="113.85706511502585"><ele>22.0</ele><time>2026-04-17T01:43:54Z</time></trkpt><trkpt lat="-24.830695191342663" lon="113.85739850551647"><ele>23.0</ele><time>2026-04-17T01:43:55Z</time></trkpt><trkpt lat="-24.830670256619733" lon="113.85773520247814"><ele>24.0</ele><time>2026-04-17T01:43:56Z</time></trkpt><trkpt lat="-24.830645703378433" lon="113.85807029873436"><ele>25.0</ele><time>2026-04-17T01:43:57Z</time></trkpt><trkpt lat="-24.8306214404355" lon="113.85840533040329"><ele>25.0</ele><time>2026-04-17T01:43:58Z</time></trkpt><trkpt lat="-24.830597122258112" lon="113.85874199145672"><ele>25.0</ele><time>2026-04-17T01:43:59Z</time></trkpt><trkpt lat="-24.83057303374187" lon="113.85907888383223"><ele>26.0</ele><time>2026-04-17T01:44:00Z</time></trkpt><trkpt lat="-24.830546094708364" lon="113.8594161945504"><ele>27.0</ele><time>2026-04-17T01:44:01Z</time></trkpt><trkpt lat="-24.830519255868193" lon="113.85975552263287"><ele>27.0</ele><time>2026-04-17T01:44:02Z</time></trkpt><trkpt lat="-24.830491884821136" lon="113.8600936553853"><ele>27.0</ele><time>2026-04-17T01:44:03Z</time></trkpt><trkpt lat="-24.830465044053902" lon="113.86043236889851"><ele>25.0</ele><time>2026-04-17T01:44:04Z</time></trkpt><trkpt lat="-24.83044074453617" lon="113.86077034560364"><ele>23.0</ele><time>2026-04-17T01:44:05Z</time></trkpt><trkpt lat="-24.830417557710188" lon="113.86110720516433"><ele>23.0</ele><time>2026-04-17T01:44:06Z</time></trkpt><trkpt lat="-24.830395323624085" lon="113.86144345236286"><ele>23.0</ele><time>2026-04-17T01:44:07Z</time></trkpt><trkpt lat="-24.830373753137152" lon="113.8617835896257"><ele>24.0</ele><time>2026-04-17T01:44:08Z</time></trkpt><trkpt lat="-24.83035055138436" lon="113.86212282256443"><ele>25.0</ele><time>2026-04-17T01:44:09Z</time></trkpt><trkpt lat="-24.8303233366947" lon="113.8624591171115"><ele>24.0</ele><time>2026-04-17T01:44:10Z</time></trkpt><trkpt lat="-24.830295591202148" lon="113.86279365145712"><ele>23.0</ele><time>2026-04-17T01:44:11Z</time></trkpt><trkpt lat="-24.83026992438054" lon="113.8631238342558"><ele>23.0</ele><time>2026-04-17T01:44:12Z</time></trkpt><trkpt lat="-24.830244147587003" lon="113.86345093363805"><ele>23.0</ele><time>2026-04-17T01:44:13Z</time></trkpt><trkpt lat="-24.830218063379252" lon="113.86377375297614"><ele>23.0</ele><time>2026-04-17T01:44:14Z</time></trkpt><trkpt lat="-24.83019335878503" lon="113.8640973965175"><ele>23.0</ele><time>2026-04-17T01:44:15Z</time></trkpt><trkpt lat="-24.830169072135423" lon="113.86441947167154"><ele>24.0</ele><time>2026-04-17T01:44:16Z</time></trkpt><trkpt lat="-24.83014505635058" lon="113.86474154239636"><ele>25.0</ele><time>2026-04-17T01:44:17Z</time></trkpt><trkpt lat="-24.830120336459327" lon="113.86506390453809"><ele>25.5</ele><time>2026-04-17T01:44:18Z</time></trkpt><trkpt lat="-24.830097055371038" lon="113.86538613499403"><ele>26.0</ele><time>2026-04-17T01:44:19Z</time></trkpt><trkpt lat="-24.830074148667137" lon="113.86571065307442"><ele>25.5</ele><time>2026-04-17T01:44:20Z</time></trkpt><trkpt lat="-24.830050283183866" lon="113.86603698026347"><ele>25.0</ele><time>2026-04-17T01:44:21Z</time></trkpt><trkpt lat="-24.83002678736782" lon="113.86636643038193"><ele>25.0</ele><time>2026-04-17T01:44:22Z</time></trkpt><trkpt lat="-24.830003971458623" lon="113.86669724971846"><ele>25.0</ele><time>2026-04-17T01:44:23Z</time></trkpt><trkpt lat="-24.829980774169243" lon="113.8670317436349"><ele>25.5</ele><time>2026-04-17T01:44:24Z</time></trkpt><trkpt lat="-24.829957253136506" lon="113.86736680102156"><ele>26.0</ele><time>2026-04-17T01:44:25Z</time></trkpt><trkpt lat="-24.829931545115354" lon="113.86770186526005"><ele>26.0</ele><time>2026-04-17T01:44:26Z</time></trkpt><trkpt lat="-24.82990400036681" lon="113.8680365805256"><ele>26.0</ele><time>2026-04-17T01:44:27Z</time></trkpt><trkpt lat="-24.829876000235856" lon="113.86837359892034"><ele>26.0</ele><time>2026-04-17T01:44:28Z</time></trkpt><trkpt lat="-24.82984826464865" lon="113.86870854133883"><ele>26.0</ele><time>2026-04-17T01:44:29Z</time></trkpt><trkpt lat="-24.82982159173683" lon="113.86904453814073"><ele>26.0</ele><time>2026-04-17T01:44:30Z</time></trkpt><trkpt lat="-24.829796834943973" lon="113.86938134802944"><ele>26.0</ele><time>2026-04-17T01:44:31Z</time></trkpt><trkpt lat="-24.82977376604442" lon="113.86971561312465"><ele>26.0</ele><time>2026-04-17T01:44:32Z</time></trkpt><trkpt lat="-24.829749079028083" lon="113.87005000194448"><ele>26.0</ele><time>2026-04-17T01:44:33Z</time></trkpt><trkpt lat="-24.829723659446955" lon="113.87038048561345"><ele>26.0</ele><time>2026-04-17T01:44:34Z</time></trkpt><trkpt lat="-24.82970095512207" lon="113.87071268056114"><ele>26.0</ele><time>2026-04-17T01:44:35Z</time></trkpt><trkpt lat="-24.8296760769424" lon="113.87104338438007"><ele>26.5</ele><time>2026-04-17T01:44:36Z</time></trkpt><trkpt lat="-24.829650968701223" lon="113.87137512454251"><ele>27.0</ele><time>2026-04-17T01:44:37Z</time></trkpt><trkpt lat="-24.829628956240594" lon="113.87170558394055"><ele>26.0</ele><time>2026-04-17T01:44:38Z</time></trkpt><trkpt lat="-24.829610997813813" lon="113.8720366302266"><ele>25.0</ele><time>2026-04-17T01:44:39Z</time></trkpt><trkpt lat="-24.82959983588016" lon="113.87236647723388"><ele>25.5</ele><time>2026-04-17T01:44:40Z</time></trkpt><trkpt lat="-24.829595598967707" lon="113.87269590725037"><ele>26.0</ele><time>2026-04-17T01:44:41Z</time></trkpt><trkpt lat="-24.829596927051618" lon="113.87302414489638"><ele>26.0</ele><time>2026-04-17T01:44:42Z</time></trkpt><trkpt lat="-24.829607366236598" lon="113.87335359719145"><ele>26.0</ele><time>2026-04-17T01:44:43Z</time></trkpt><trkpt lat="-24.8296269766591" lon="113.87368101995717"><ele>25.5</ele><time>2026-04-17T01:44:44Z</time></trkpt><trkpt lat="-24.82965362635442" lon="113.87400890600985"><ele>25.0</ele><time>2026-04-17T01:44:45Z</time></trkpt><trkpt lat="-24.8296816475609" lon="113.87433904894195"><ele>24.5</ele><time>2026-04-17T01:44:46Z</time></trkpt><trkpt lat="-24.82970957017459" lon="113.87466805528872"><ele>24.0</ele><time>2026-04-17T01:44:47Z</time></trkpt><trkpt lat="-24.829739029412234" lon="113.8749981790612"><ele>25.5</ele><time>2026-04-17T01:44:48Z</time></trkpt><trkpt lat="-24.829769735995693" lon="113.87532761080824"><ele>27.0</ele><time>2026-04-17T01:44:49Z</time></trkpt><trkpt lat="-24.82980075115022" lon="113.87565784108664"><ele>27.0</ele><time>2026-04-17T01:44:50Z</time></trkpt><trkpt lat="-24.82983332859125" lon="113.87598803559753"><ele>27.0</ele><time>2026-04-17T01:44:51Z</time></trkpt><trkpt lat="-24.829866334108658" lon="113.87631983862387"><ele>27.0</ele><time>2026-04-17T01:44:52Z</time></trkpt><trkpt lat="-24.829897848380128" lon="113.87664941117286"><ele>27.0</ele><time>2026-04-17T01:44:53Z</time></trkpt><trkpt lat="-24.8299284004994" lon="113.87697835552574"><ele>27.0</ele><time>2026-04-17T01:44:54Z</time></trkpt><trkpt lat="-24.829959243878182" lon="113.87730586379597"><ele>27.0</ele><time>2026-04-17T01:44:55Z</time></trkpt><trkpt lat="-24.829991621670782" lon="113.8776328038429"><ele>27.0</ele><time>2026-04-17T01:44:56Z</time></trkpt><trkpt lat="-24.830024445651482" lon="113.8779584449145"><ele>27.0</ele><time>2026-04-17T01:44:57Z</time></trkpt><trkpt lat="-24.830057935340708" lon="113.87828321310198"><ele>27.5</ele><time>2026-04-17T01:44:58Z</time></trkpt><trkpt lat="-24.830089533182168" lon="113.87860491693874"><ele>28.0</ele><time>2026-04-17T01:44:59Z</time></trkpt><trkpt lat="-24.83012063712308" lon="113.87892709724098"><ele>27.0</ele><time>2026-04-17T01:45:00Z</time></trkpt><trkpt lat="-24.830151853780126" lon="113.8792516556751"><ele>26.0</ele><time>2026-04-17T01:45:01Z</time></trkpt><trkpt lat="-24.83018341515162" lon="113.87957697233357"><ele>26.0</ele><time>2026-04-17T01:45:02Z</time></trkpt><trkpt lat="-24.8302154473235" lon="113.879902702249"><ele>26.0</ele><time>2026-04-17T01:45:03Z</time></trkpt><trkpt lat="-24.83024690898783" lon="113.88022776121818"><ele>26.0</ele><time>2026-04-17T01:45:04Z</time></trkpt><trkpt lat="-24.830278181477578" lon="113.88055048404594"><ele>26.0</ele><time>2026-04-17T01:45:05Z</time></trkpt><trkpt lat="-24.830308308606345" lon="113.8808734873496"><ele>26.5</ele><time>2026-04-17T01:45:06Z</time></trkpt><trkpt lat="-24.830336723514467" lon="113.88119571461817"><ele>27.0</ele><time>2026-04-17T01:45:07Z</time></trkpt><trkpt lat="-24.830365310565284" lon="113.88151827186385"><ele>27.0</ele><time>2026-04-17T01:45:08Z</time></trkpt><trkpt lat="-24.830395961539363" lon="113.88184209142443"><ele>27.0</ele><time>2026-04-17T01:45:09Z</time></trkpt><trkpt lat="-24.830427756805648" lon="113.8821654573911"><ele>27.0</ele><time>2026-04-17T01:45:10Z</time></trkpt><trkpt lat="-24.830461650778577" lon="113.88249351121"><ele>27.0</ele><time>2026-04-17T01:45:11Z</time></trkpt><trkpt lat="-24.830496260122647" lon="113.88282419775409"><ele>27.0</ele><time>2026-04-17T01:45:12Z</time></trkpt><trkpt lat="-24.830528282387686" lon="113.88315589330041"><ele>27.0</ele><time>2026-04-17T01:45:13Z</time></trkpt><trkpt lat="-24.83055964580374" lon="113.88348919462754"><ele>27.0</ele><time>2026-04-17T01:45:14Z</time></trkpt><trkpt lat="-24.830591636814383" lon="113.8838174733398"><ele>27.0</ele><time>2026-04-17T01:45:15Z</time></trkpt><trkpt lat="-24.830623928959447" lon="113.88414433876049"><ele>28.0</ele><time>2026-04-17T01:45:16Z</time></trkpt><trkpt lat="-24.830656278124444" lon="113.88447202855106"><ele>29.0</ele><time>2026-04-17T01:45:17Z</time></trkpt><trkpt lat="-24.830688240646477" lon="113.88479843427285"><ele>28.5</ele><time>2026-04-17T01:45:18Z</time></trkpt><trkpt lat="-24.830720417988175" lon="113.88512505984193"><ele>28.0</ele><time>2026-04-17T01:45:19Z</time></trkpt><trkpt lat="-24.83075322390602" lon="113.88545146029745"><ele>28.0</ele><time>2026-04-17T01:45:20Z</time></trkpt><trkpt lat="-24.83078422082217" lon="113.88577209261571"><ele>28.0</ele><time>2026-04-17T01:45:21Z</time></trkpt><trkpt lat="-24.83081449813123" lon="113.88609297968347"><ele>27.5</ele><time>2026-04-17T01:45:22Z</time></trkpt><trkpt lat="-24.830842986379874" lon="113.88640753849609"><ele>27.0</ele><time>2026-04-17T01:45:23Z</time></trkpt><trkpt lat="-24.83087225225527" lon="113.88672123532174"><ele>26.5</ele><time>2026-04-17T01:45:24Z</time></trkpt><trkpt lat="-24.830902455915673" lon="113.88703268558446"><ele>26.0</ele><time>2026-04-17T01:45:25Z</time></trkpt><trkpt lat="-24.830933193246715" lon="113.8873402089123"><ele>26.0</ele><time>2026-04-17T01:45:26Z</time></trkpt><trkpt lat="-24.83096468131545" lon="113.8876482792878"><ele>26.0</ele><time>2026-04-17T01:45:27Z</time></trkpt><trkpt lat="-24.83099730138148" lon="113.88795436805184"><ele>26.0</ele><time>2026-04-17T01:45:28Z</time></trkpt><trkpt lat="-24.83103189770406" lon="113.88826147997844"><ele>26.0</ele><time>2026-04-17T01:45:29Z</time></trkpt><trkpt lat="-24.831063834298394" lon="113.8885663718429"><ele>25.0</ele><time>2026-04-17T01:45:30Z</time></trkpt><trkpt lat="-24.83109207153148" lon="113.88887977892774"><ele>24.0</ele><time>2026-04-17T01:45:31Z</time></trkpt><trkpt lat="-24.83112008698611" lon="113.88919689937909"><ele>23.5</ele><time>2026-04-17T01:45:32Z</time></trkpt><trkpt lat="-24.831147259227844" lon="113.88951884281607"><ele>23.0</ele><time>2026-04-17T01:45:33Z</time></trkpt><trkpt lat="-24.831173340397225" lon="113.8898382755536"><ele>24.5</ele><time>2026-04-17T01:45:34Z</time></trkpt><trkpt lat="-24.83120140943444" lon="113.89015979526454"><ele>26.0</ele><time>2026-04-17T01:45:35Z</time></trkpt><trkpt lat="-24.831233940952455" lon="113.89048173602605"><ele>26.0</ele><time>2026-04-17T01:45:36Z</time></trkpt><trkpt lat="-24.831267715153786" lon="113.8908061265372"><ele>26.0</ele><time>2026-04-17T01:45:37Z</time></trkpt><trkpt lat="-24.831302493422694" lon="113.89113210731712"><ele>26.0</ele><time>2026-04-17T01:45:38Z</time></trkpt><trkpt lat="-24.831335224102155" lon="113.89145947572165"><ele>26.0</ele><time>2026-04-17T01:45:39Z</time></trkpt><trkpt lat="-24.831366755099676" lon="113.89178945513814"><ele>25.5</ele><time>2026-04-17T01:45:40Z</time></trkpt><trkpt lat="-24.83139813626294" lon="113.89211882610161"><ele>25.0</ele><time>2026-04-17T01:45:41Z</time></trkpt><trkpt lat="-24.8314285192771" lon="113.8924486266847"><ele>25.0</ele><time>2026-04-17T01:45:42Z</time></trkpt><trkpt lat="-24.83145875689254" lon="113.89277717054834"><ele>25.0</ele><time>2026-04-17T01:45:43Z</time></trkpt><trkpt lat="-24.831489886928054" lon="113.89310301174353"><ele>26.0</ele><time>2026-04-17T01:45:44Z</time></trkpt><trkpt lat="-24.831523171785044" lon="113.8934352589084"><ele>27.0</ele><time>2026-04-17T01:45:45Z</time></trkpt><trkpt lat="-24.831554475644737" lon="113.89375835326109"><ele>27.0</ele><time>2026-04-17T01:45:46Z</time></trkpt><trkpt lat="-24.83158777338815" lon="113.89408498708248"><ele>27.0</ele><time>2026-04-17T01:45:47Z</time></trkpt><trkpt lat="-24.831620365732675" lon="113.89440720175911"><ele>26.0</ele><time>2026-04-17T01:45:48Z</time></trkpt><trkpt lat="-24.831652099571365" lon="113.89472947669422"><ele>25.0</ele><time>2026-04-17T01:45:49Z</time></trkpt><trkpt lat="-24.83168421260677" lon="113.89505312377361"><ele>26.0</ele><time>2026-04-17T01:45:50Z</time></trkpt><trkpt lat="-24.831716449357607" lon="113.89537648603694"><ele>27.0</ele><time>2026-04-17T01:45:51Z</time></trkpt><trkpt lat="-24.8317477502876" lon="113.89569940159205"><ele>27.0</ele><time>2026-04-17T01:45:52Z</time></trkpt><trkpt lat="-24.831778818427498" lon="113.8960243466988"><ele>27.0</ele><time>2026-04-17T01:45:53Z</time></trkpt><trkpt lat="-24.83181137537847" lon="113.89634661349113"><ele>27.0</ele><time>2026-04-17T01:45:54Z</time></trkpt><trkpt lat="-24.831841519040807" lon="113.89667032383782"><ele>27.0</ele><time>2026-04-17T01:45:55Z</time></trkpt><trkpt lat="-24.83187065325971" lon="113.89699014033798"><ele>27.0</ele><time>2026-04-17T01:45:56Z</time></trkpt><trkpt lat="-24.831897174349365" lon="113.89730948681222"><ele>27.0</ele><time>2026-04-17T01:45:57Z</time></trkpt><trkpt lat="-24.831919004718447" lon="113.89762968876012"><ele>27.0</ele><time>2026-04-17T01:45:58Z</time></trkpt><trkpt lat="-24.831928618223003" lon="113.89794726730044"><ele>27.0</ele><time>2026-04-17T01:45:59Z</time></trkpt><trkpt lat="-24.83192386944727" lon="113.89826620139807"><ele>26.0</ele><time>2026-04-17T01:46:00Z</time></trkpt><trkpt lat="-24.831910831452817" lon="113.89858960065739"><ele>25.0</ele><time>2026-04-17T01:46:01Z</time></trkpt><trkpt lat="-24.831888239304615" lon="113.89891801675267"><ele>25.0</ele><time>2026-04-17T01:46:02Z</time></trkpt><trkpt lat="-24.8318573541162" lon="113.89924314939604"><ele>25.0</ele><time>2026-04-17T01:46:03Z</time></trkpt><trkpt lat="-24.831817172002616" lon="113.89956694063854"><ele>26.0</ele><time>2026-04-17T01:46:04Z</time></trkpt><trkpt lat="-24.83176775826235" lon="113.89989404039139"><ele>27.0</ele><time>2026-04-17T01:46:05Z</time></trkpt><trkpt lat="-24.831712254135365" lon="113.9002196600594"><ele>27.0</ele><time>2026-04-17T01:46:06Z</time></trkpt><trkpt lat="-24.831659178802273" lon="113.9005421606823"><ele>27.0</ele><time>2026-04-17T01:46:07Z</time></trkpt><trkpt lat="-24.831607649627088" lon="113.90086685762128"><ele>26.5</ele><time>2026-04-17T01:46:08Z</time></trkpt><trkpt lat="-24.831560452770233" lon="113.90119007985078"><ele>26.0</ele><time>2026-04-17T01:46:09Z</time></trkpt><trkpt lat="-24.831517389904427" lon="113.90151124679366"><ele>26.0</ele><time>2026-04-17T01:46:10Z</time></trkpt><trkpt lat="-24.83147420876177" lon="113.90183911897452"><ele>26.0</ele><time>2026-04-17T01:46:11Z</time></trkpt><trkpt lat="-24.831434569049545" lon="113.90216037347648"><ele>26.0</ele><time>2026-04-17T01:46:12Z</time></trkpt><trkpt lat="-24.831393109673773" lon="113.90248445762371"><ele>26.0</ele><time>2026-04-17T01:46:13Z</time></trkpt><trkpt lat="-24.8313442928302" lon="113.90280834334503"><ele>26.5</ele><time>2026-04-17T01:46:14Z</time></trkpt><trkpt lat="-24.831295061653815" lon="113.90313085039737"><ele>27.0</ele><time>2026-04-17T01:46:15Z</time></trkpt><trkpt lat="-24.831248901502878" lon="113.90345044765732"><ele>27.0</ele><time>2026-04-17T01:46:16Z</time></trkpt><trkpt lat="-24.831204141470177" lon="113.90376938283991"><ele>27.0</ele><time>2026-04-17T01:46:17Z</time></trkpt><trkpt lat="-24.831159531799337" lon="113.90408588845477"><ele>28.0</ele><time>2026-04-17T01:46:18Z</time></trkpt><trkpt lat="-24.83111035411805" lon="113.90440380107978"><ele>29.0</ele><time>2026-04-17T01:46:19Z</time></trkpt><trkpt lat="-24.831062803424935" lon="113.90472332579336"><ele>29.0</ele><time>2026-04-17T01:46:20Z</time></trkpt><trkpt lat="-24.831016319332072" lon="113.90503875228075"><ele>29.0</ele><time>2026-04-17T01:46:21Z</time></trkpt><trkpt lat="-24.830970368813755" lon="113.9053544065707"><ele>28.5</ele><time>2026-04-17T01:46:22Z</time></trkpt><trkpt lat="-24.83092506438646" lon="113.90567208483577"><ele>28.0</ele><time>2026-04-17T01:46:23Z</time></trkpt><trkpt lat="-24.830880427432533" lon="113.90599100642254"><ele>27.5</ele><time>2026-04-17T01:46:24Z</time></trkpt><trkpt lat="-24.830834746678047" lon="113.90631587872402"><ele>27.0</ele><time>2026-04-17T01:46:25Z</time></trkpt><trkpt lat="-24.830786885849992" lon="113.90664015884938"><ele>26.0</ele><time>2026-04-17T01:46:26Z</time></trkpt><trkpt lat="-24.83074057904931" lon="113.90696291367466"><ele>25.0</ele><time>2026-04-17T01:46:27Z</time></trkpt><trkpt lat="-24.830693105145727" lon="113.9072875934049"><ele>25.5</ele><time>2026-04-17T01:46:28Z</time></trkpt><trkpt lat="-24.830645895311758" lon="113.90761279656257"><ele>26.0</ele><time>2026-04-17T01:46:29Z</time></trkpt><trkpt lat="-24.83059951664169" lon="113.90793729548707"><ele>26.0</ele><time>2026-04-17T01:46:30Z</time></trkpt><trkpt lat="-24.830553126660455" lon="113.90826440100228"><ele>26.0</ele><time>2026-04-17T01:46:31Z</time></trkpt><trkpt lat="-24.83050516588107" lon="113.90858658169884"><ele>28.0</ele><time>2026-04-17T01:46:32Z</time></trkpt><trkpt lat="-24.83045839223549" lon="113.90891089974936"><ele>30.0</ele><time>2026-04-17T01:46:33Z</time></trkpt><trkpt lat="-24.830413346698883" lon="113.90923446309579"><ele>30.5</ele><time>2026-04-17T01:46:34Z</time></trkpt><trkpt lat="-24.83036833590487" lon="113.90955769652682"><ele>31.0</ele><time>2026-04-17T01:46:35Z</time></trkpt><trkpt lat="-24.830322070327302" lon="113.90988057067"><ele>31.0</ele><time>2026-04-17T01:46:36Z</time></trkpt><trkpt lat="-24.83027510212787" lon="113.91020355873438"><ele>31.0</ele><time>2026-04-17T01:46:37Z</time></trkpt><trkpt lat="-24.830227427033165" lon="113.91052254836053"><ele>31.0</ele><time>2026-04-17T01:46:38Z</time></trkpt><trkpt lat="-24.83017765366368" lon="113.91084388673981"><ele>31.0</ele><time>2026-04-17T01:46:39Z</time></trkpt><trkpt lat="-24.830130280822043" lon="113.91116416438399"><ele>30.0</ele><time>2026-04-17T01:46:40Z</time></trkpt><trkpt lat="-24.83008257419646" lon="113.9114904586074"><ele>29.0</ele><time>2026-04-17T01:46:41Z</time></trkpt><trkpt lat="-24.830034173384128" lon="113.91182012091028"><ele>29.0</ele><time>2026-04-17T01:46:42Z</time></trkpt><trkpt lat="-24.829985560865655" lon="113.91214757352074"><ele>29.0</ele><time>2026-04-17T01:46:43Z</time></trkpt><trkpt lat="-24.829940714773468" lon="113.91247026255341"><ele>29.5</ele><time>2026-04-17T01:46:44Z</time></trkpt><trkpt lat="-24.829894408211384" lon="113.91279216012856"><ele>30.0</ele><time>2026-04-17T01:46:45Z</time></trkpt><trkpt lat="-24.8298477357088" lon="113.91311410092636"><ele>30.0</ele><time>2026-04-17T01:46:46Z</time></trkpt><trkpt lat="-24.82980152313962" lon="113.91343460262495"><ele>30.0</ele><time>2026-04-17T01:46:47Z</time></trkpt><trkpt lat="-24.829756748031656" lon="113.91375268626742"><ele>30.0</ele><time>2026-04-17T01:46:48Z</time></trkpt><trkpt lat="-24.82971215528599" lon="113.91407256406563"><ele>30.0</ele><time>2026-04-17T01:46:49Z</time></trkpt><trkpt lat="-24.829667289815724" lon="113.9143961785896"><ele>30.5</ele><time>2026-04-17T01:46:50Z</time></trkpt><trkpt lat="-24.829621786333078" lon="113.91472219179123"><ele>31.0</ele><time>2026-04-17T01:46:51Z</time></trkpt><trkpt lat="-24.82957240907756" lon="113.91504778429898"><ele>31.0</ele><time>2026-04-17T01:46:52Z</time></trkpt><trkpt lat="-24.82952305824881" lon="113.91537512499342"><ele>31.0</ele><time>2026-04-17T01:46:53Z</time></trkpt><trkpt lat="-24.829475344757117" lon="113.91570126574636"><ele>30.5</ele><time>2026-04-17T01:46:54Z</time></trkpt><trkpt lat="-24.82942976994624" lon="113.91602766763562"><ele>30.0</ele><time>2026-04-17T01:46:55Z</time></trkpt><trkpt lat="-24.8293841362999" lon="113.91635230141534"><ele>30.0</ele><time>2026-04-17T01:46:56Z</time></trkpt><trkpt lat="-24.829338624071532" lon="113.91667815754214"><ele>30.0</ele><time>2026-04-17T01:46:57Z</time></trkpt><trkpt lat="-24.829291274931" lon="113.9170042584669"><ele>30.5</ele><time>2026-04-17T01:46:58Z</time></trkpt><trkpt lat="-24.829242177653697" lon="113.91732558075577"><ele>31.0</ele><time>2026-04-17T01:46:59Z</time></trkpt><trkpt lat="-24.829194566212635" lon="113.91765029281842"><ele>31.0</ele><time>2026-04-17T01:47:00Z</time></trkpt><trkpt lat="-24.829147698840575" lon="113.91797521529094"><ele>31.0</ele><time>2026-04-17T01:47:01Z</time></trkpt><trkpt lat="-24.82910067658342" lon="113.91830181282559"><ele>30.0</ele><time>2026-04-17T01:47:02Z</time></trkpt><trkpt lat="-24.82905529495928" lon="113.91862119574029"><ele>29.0</ele><time>2026-04-17T01:47:03Z</time></trkpt><trkpt lat="-24.829008641390892" lon="113.91894171599805"><ele>29.0</ele><time>2026-04-17T01:47:04Z</time></trkpt><trkpt lat="-24.82895576187475" lon="113.91926234565473"><ele>29.0</ele><time>2026-04-17T01:47:05Z</time></trkpt><trkpt lat="-24.828895918042864" lon="113.91958179994747"><ele>29.0</ele><time>2026-04-17T01:47:06Z</time></trkpt><trkpt lat="-24.82883006389073" lon="113.91989657687495"><ele>29.0</ele><time>2026-04-17T01:47:07Z</time></trkpt><trkpt lat="-24.82875902064401" lon="113.92021386557434"><ele>29.0</ele><time>2026-04-17T01:47:08Z</time></trkpt><trkpt lat="-24.828677463055133" lon="113.9205336044599"><ele>29.0</ele><time>2026-04-17T01:47:09Z</time></trkpt><trkpt lat="-24.82858235633246" lon="113.92085000627478"><ele>29.0</ele><time>2026-04-17T01:47:10Z</time></trkpt><trkpt lat="-24.82847774154013" lon="113.92116649945176"><ele>29.0</ele><time>2026-04-17T01:47:11Z</time></trkpt><trkpt lat="-24.82836543754594" lon="113.92147619008269"><ele>29.0</ele><time>2026-04-17T01:47:12Z</time></trkpt><trkpt lat="-24.82824928591975" lon="113.92178256494873"><ele>29.0</ele><time>2026-04-17T01:47:13Z</time></trkpt><trkpt lat="-24.828132378110766" lon="113.92208622463781"><ele>29.0</ele><time>2026-04-17T01:47:14Z</time></trkpt><trkpt lat="-24.828017228553005" lon="113.92238994651692"><ele>29.0</ele><time>2026-04-17T01:47:15Z</time></trkpt><trkpt lat="-24.827902757296627" lon="113.92269810618498"><ele>29.0</ele><time>2026-04-17T01:47:16Z</time></trkpt><trkpt lat="-24.82779090240881" lon="113.92300504412334"><ele>29.0</ele><time>2026-04-17T01:47:17Z</time></trkpt><trkpt lat="-24.827682157683416" lon="113.9233098762984"><ele>28.0</ele><time>2026-04-17T01:47:18Z</time></trkpt><trkpt lat="-24.82757145772945" lon="113.9236147520433"><ele>27.0</ele><time>2026-04-17T01:47:19Z</time></trkpt><trkpt lat="-24.82746069690054" lon="113.92391759106127"><ele>27.0</ele><time>2026-04-17T01:47:20Z</time></trkpt><trkpt lat="-24.827350055701892" lon="113.92422247849791"><ele>27.0</ele><time>2026-04-17T01:47:21Z</time></trkpt><trkpt lat="-24.82723816188487" lon="113.92452539087935"><ele>28.5</ele><time>2026-04-17T01:47:22Z</time></trkpt><trkpt lat="-24.827126656211078" lon="113.92482804944434"><ele>30.0</ele><time>2026-04-17T01:47:23Z</time></trkpt><trkpt lat="-24.827017325945345" lon="113.9251312100797"><ele>30.0</ele><time>2026-04-17T01:47:24Z</time></trkpt><trkpt lat="-24.826907429423947" lon="113.9254333955163"><ele>30.0</ele><time>2026-04-17T01:47:25Z</time></trkpt><trkpt lat="-24.826796336282126" lon="113.92573702011062"><ele>31.0</ele><time>2026-04-17T01:47:26Z</time></trkpt><trkpt lat="-24.8266865325905" lon="113.92603903311263"><ele>32.0</ele><time>2026-04-17T01:47:27Z</time></trkpt><trkpt lat="-24.826578093115405" lon="113.92634201019273"><ele>32.0</ele><time>2026-04-17T01:47:28Z</time></trkpt><trkpt lat="-24.826469711238197" lon="113.92664458668685"><ele>32.0</ele><time>2026-04-17T01:47:29Z</time></trkpt><trkpt lat="-24.8263612315132" lon="113.926947188965"><ele>32.0</ele><time>2026-04-17T01:47:30Z</time></trkpt><trkpt lat="-24.826252903443944" lon="113.92724654134393"><ele>32.0</ele><time>2026-04-17T01:47:31Z</time></trkpt><trkpt lat="-24.82614522318508" lon="113.92754603089124"><ele>32.0</ele><time>2026-04-17T01:47:32Z</time></trkpt><trkpt lat="-24.826034209620023" lon="113.92784682790949"><ele>32.0</ele><time>2026-04-17T01:47:33Z</time></trkpt><trkpt lat="-24.825922648729666" lon="113.92814729405356"><ele>32.5</ele><time>2026-04-17T01:47:34Z</time></trkpt><trkpt lat="-24.825815034792587" lon="113.92844630229017"><ele>33.0</ele><time>2026-04-17T01:47:35Z</time></trkpt><trkpt lat="-24.825710312032218" lon="113.92874796900699"><ele>33.0</ele><time>2026-04-17T01:47:36Z</time></trkpt><trkpt lat="-24.825603595267424" lon="113.92905064661966"><ele>33.0</ele><time>2026-04-17T01:47:37Z</time></trkpt><trkpt lat="-24.825494854495684" lon="113.92935445987888"><ele>32.5</ele><time>2026-04-17T01:47:38Z</time></trkpt><trkpt lat="-24.825386174880407" lon="113.92965591896544"><ele>32.0</ele><time>2026-04-17T01:47:39Z</time></trkpt><trkpt lat="-24.825277860627406" lon="113.92995505749047"><ele>32.0</ele><time>2026-04-17T01:47:40Z</time></trkpt><trkpt lat="-24.825166031790413" lon="113.93025721950163"><ele>32.0</ele><time>2026-04-17T01:47:41Z</time></trkpt><trkpt lat="-24.825051086344985" lon="113.93055923087618"><ele>32.0</ele><time>2026-04-17T01:47:42Z</time></trkpt><trkpt lat="-24.824936951759927" lon="113.93085906476976"><ele>32.0</ele><time>2026-04-17T01:47:43Z</time></trkpt><trkpt lat="-24.824825632717136" lon="113.93115651534457"><ele>32.0</ele><time>2026-04-17T01:47:44Z</time></trkpt><trkpt lat="-24.824715808085365" lon="113.93145068228728"><ele>32.0</ele><time>2026-04-17T01:47:45Z</time></trkpt><trkpt lat="-24.824605865594982" lon="113.93174761962636"><ele>31.5</ele><time>2026-04-17T01:47:46Z</time></trkpt><trkpt lat="-24.824497746863482" lon="113.93204618271226"><ele>31.0</ele><time>2026-04-17T01:47:47Z</time></trkpt><trkpt lat="-24.824391165077607" lon="113.93234347796825"><ele>31.5</ele><time>2026-04-17T01:47:48Z</time></trkpt><trkpt lat="-24.824285986838742" lon="113.93263498759586"><ele>32.0</ele><time>2026-04-17T01:47:49Z</time></trkpt><trkpt lat="-24.824181829909005" lon="113.93292762235113"><ele>32.0</ele><time>2026-04-17T01:47:50Z</time></trkpt><trkpt lat="-24.824076965443965" lon="113.93322193664095"><ele>32.0</ele><time>2026-04-17T01:47:51Z</time></trkpt><trkpt lat="-24.823971624346232" lon="113.9335121824199"><ele>33.0</ele><time>2026-04-17T01:47:52Z</time></trkpt><trkpt lat="-24.82386393245828" lon="113.93380204845539"><ele>34.0</ele><time>2026-04-17T01:47:53Z</time></trkpt><trkpt lat="-24.8237557379478" lon="113.9340934106542"><ele>34.0</ele><time>2026-04-17T01:47:54Z</time></trkpt><trkpt lat="-24.823646459943514" lon="113.93438641552338"><ele>34.0</ele><time>2026-04-17T01:47:55Z</time></trkpt><trkpt lat="-24.823535544505383" lon="113.93468507479537"><ele>33.0</ele><time>2026-04-17T01:47:56Z</time></trkpt><trkpt lat="-24.823425751437455" lon="113.9349842490163"><ele>32.0</ele><time>2026-04-17T01:47:57Z</time></trkpt><trkpt lat="-24.823317412869574" lon="113.93528296907236"><ele>31.0</ele><time>2026-04-17T01:47:58Z</time></trkpt><trkpt lat="-24.82321108803743" lon="113.93557909625137"><ele>30.0</ele><time>2026-04-17T01:47:59Z</time></trkpt><trkpt lat="-24.82310521623444" lon="113.935874335099"><ele>30.5</ele><time>2026-04-17T01:48:00Z</time></trkpt><trkpt lat="-24.82299815141427" lon="113.93616821661912"><ele>31.0</ele><time>2026-04-17T01:48:01Z</time></trkpt><trkpt lat="-24.822891289768872" lon="113.93646259451107"><ele>32.0</ele><time>2026-04-17T01:48:02Z</time></trkpt><trkpt lat="-24.82278462195523" lon="113.93675677393158"><ele>33.0</ele><time>2026-04-17T01:48:03Z</time></trkpt><trkpt lat="-24.822677565502495" lon="113.93705292425814"><ele>33.0</ele><time>2026-04-17T01:48:04Z</time></trkpt><trkpt lat="-24.822569547153947" lon="113.9373508512033"><ele>33.0</ele><time>2026-04-17T01:48:05Z</time></trkpt><trkpt lat="-24.822461811669978" lon="113.93764472263831"><ele>33.0</ele><time>2026-04-17T01:48:06Z</time></trkpt><trkpt lat="-24.8223544376141" lon="113.9379372309298"><ele>33.0</ele><time>2026-04-17T01:48:07Z</time></trkpt><trkpt lat="-24.82224834887025" lon="113.93823327132814"><ele>32.5</ele><time>2026-04-17T01:48:08Z</time></trkpt><trkpt lat="-24.82214425593761" lon="113.93852630557986"><ele>32.0</ele><time>2026-04-17T01:48:09Z</time></trkpt><trkpt lat="-24.82204235428744" lon="113.93881880024784"><ele>32.0</ele><time>2026-04-17T01:48:10Z</time></trkpt><trkpt lat="-24.821938827386894" lon="113.93911002983324"><ele>32.0</ele><time>2026-04-17T01:48:11Z</time></trkpt><trkpt lat="-24.821834702877776" lon="113.93939439911205"><ele>31.5</ele><time>2026-04-17T01:48:12Z</time></trkpt><trkpt lat="-24.821729993032406" lon="113.93968085345814"><ele>31.0</ele><time>2026-04-17T01:48:13Z</time></trkpt><trkpt lat="-24.82162277818531" lon="113.93996256607092"><ele>31.0</ele><time>2026-04-17T01:48:14Z</time></trkpt><trkpt lat="-24.821510966806752" lon="113.94025058301504"><ele>31.0</ele><time>2026-04-17T01:48:15Z</time></trkpt><trkpt lat="-24.82139900444094" lon="113.94053934797375"><ele>31.0</ele><time>2026-04-17T01:48:16Z</time></trkpt><trkpt lat="-24.821290605343773" lon="113.94082805374765"><ele>31.0</ele><time>2026-04-17T01:48:17Z</time></trkpt><trkpt lat="-24.821183030913623" lon="113.94111799163237"><ele>31.5</ele><time>2026-04-17T01:48:18Z</time></trkpt><trkpt lat="-24.82107587256331" lon="113.94140986449389"><ele>32.0</ele><time>2026-04-17T01:48:19Z</time></trkpt><trkpt lat="-24.82097170812538" lon="113.94170155663824"><ele>31.5</ele><time>2026-04-17T01:48:20Z</time></trkpt><trkpt lat="-24.820866883329664" lon="113.94199858612039"><ele>31.0</ele><time>2026-04-17T01:48:21Z</time></trkpt><trkpt lat="-24.820758313775833" lon="113.94229441111527"><ele>31.0</ele><time>2026-04-17T01:48:22Z</time></trkpt><trkpt lat="-24.82064845990376" lon="113.94259069305663"><ele>31.0</ele><time>2026-04-17T01:48:23Z</time></trkpt><trkpt lat="-24.820538177324494" lon="113.94288882331945"><ele>31.0</ele><time>2026-04-17T01:48:24Z</time></trkpt><trkpt lat="-24.82042833916295" lon="113.94318459352296"><ele>31.0</ele><time>2026-04-17T01:48:25Z</time></trkpt><trkpt lat="-24.820320327618255" lon="113.94348351064126"><ele>31.0</ele><time>2026-04-17T01:48:26Z</time></trkpt><trkpt lat="-24.82021376752231" lon="113.94378281606201"><ele>31.0</ele><time>2026-04-17T01:48:27Z</time></trkpt><trkpt lat="-24.820109022783353" lon="113.94408342126096"><ele>30.5</ele><time>2026-04-17T01:48:28Z</time></trkpt><trkpt lat="-24.820003518330733" lon="113.94438140218024"><ele>30.0</ele><time>2026-04-17T01:48:29Z</time></trkpt><trkpt lat="-24.819896662699644" lon="113.94467808296574"><ele>30.0</ele><time>2026-04-17T01:48:30Z</time></trkpt><trkpt lat="-24.819787091504132" lon="113.94497430783689"><ele>30.0</ele><time>2026-04-17T01:48:31Z</time></trkpt><trkpt lat="-24.819676551836636" lon="113.9452719889151"><ele>30.5</ele><time>2026-04-17T01:48:32Z</time></trkpt><trkpt lat="-24.819564291581766" lon="113.9455715099037"><ele>31.0</ele><time>2026-04-17T01:48:33Z</time></trkpt><trkpt lat="-24.81945313851341" lon="113.94587052990852"><ele>31.5</ele><time>2026-04-17T01:48:34Z</time></trkpt><trkpt lat="-24.819343461350947" lon="113.94616891024855"><ele>32.0</ele><time>2026-04-17T01:48:35Z</time></trkpt><trkpt lat="-24.81923380376439" lon="113.94646625736625"><ele>31.5</ele><time>2026-04-17T01:48:36Z</time></trkpt><trkpt lat="-24.819124363687436" lon="113.94676680003947"><ele>31.0</ele><time>2026-04-17T01:48:37Z</time></trkpt><trkpt lat="-24.81901657056774" lon="113.94706824891362"><ele>31.0</ele><time>2026-04-17T01:48:38Z</time></trkpt><trkpt lat="-24.81890814326802" lon="113.94737007231842"><ele>31.0</ele><time>2026-04-17T01:48:39Z</time></trkpt><trkpt lat="-24.818798860127977" lon="113.94767069351188"><ele>30.5</ele><time>2026-04-17T01:48:40Z</time></trkpt><trkpt lat="-24.818690308436242" lon="113.94797150909328"><ele>30.0</ele><time>2026-04-17T01:48:41Z</time></trkpt><trkpt lat="-24.81858252643048" lon="113.94827043809588"><ele>30.5</ele><time>2026-04-17T01:48:42Z</time></trkpt><trkpt lat="-24.818472118892227" lon="113.94857276090049"><ele>31.0</ele><time>2026-04-17T01:48:43Z</time></trkpt><trkpt lat="-24.818361008325393" lon="113.94887360919482"><ele>31.0</ele><time>2026-04-17T01:48:44Z</time></trkpt><trkpt lat="-24.818249564947145" lon="113.94917366488289"><ele>31.0</ele><time>2026-04-17T01:48:45Z</time></trkpt><trkpt lat="-24.81813908746311" lon="113.94947167544906"><ele>31.0</ele><time>2026-04-17T01:48:46Z</time></trkpt><trkpt lat="-24.81803062476435" lon="113.94977192950532"><ele>31.0</ele><time>2026-04-17T01:48:47Z</time></trkpt><trkpt lat="-24.817923049565763" lon="113.95007027336885"><ele>31.0</ele><time>2026-04-17T01:48:48Z</time></trkpt><trkpt lat="-24.81781465115783" lon="113.95036993196094"><ele>31.0</ele><time>2026-04-17T01:48:49Z</time></trkpt><trkpt lat="-24.81770359217378" lon="113.95067283813168"><ele>31.5</ele><time>2026-04-17T01:48:50Z</time></trkpt><trkpt lat="-24.817591076370743" lon="113.950975914408"><ele>32.0</ele><time>2026-04-17T01:48:51Z</time></trkpt><trkpt lat="-24.81747906648845" lon="113.95127945739182"><ele>32.0</ele><time>2026-04-17T01:48:52Z</time></trkpt><trkpt lat="-24.817369171571453" lon="113.9515825457678"><ele>32.0</ele><time>2026-04-17T01:48:53Z</time></trkpt><trkpt lat="-24.81726129953729" lon="113.95188387371206"><ele>31.0</ele><time>2026-04-17T01:48:54Z</time></trkpt><trkpt lat="-24.817153184119746" lon="113.95218321724062"><ele>30.0</ele><time>2026-04-17T01:48:55Z</time></trkpt><trkpt lat="-24.817045505411407" lon="113.95247937165931"><ele>30.5</ele><time>2026-04-17T01:48:56Z</time></trkpt><trkpt lat="-24.816935792300278" lon="113.95277749390551"><ele>31.0</ele><time>2026-04-17T01:48:57Z</time></trkpt><trkpt lat="-24.816826563736576" lon="113.9530743294225"><ele>30.5</ele><time>2026-04-17T01:48:58Z</time></trkpt><trkpt lat="-24.816715919234042" lon="113.95337521452426"><ele>30.0</ele><time>2026-04-17T01:48:59Z</time></trkpt><trkpt lat="-24.816606268559784" lon="113.95367515278028"><ele>30.0</ele><time>2026-04-17T01:49:00Z</time></trkpt><trkpt lat="-24.816497781242177" lon="113.95397700507112"><ele>30.0</ele><time>2026-04-17T01:49:01Z</time></trkpt><trkpt lat="-24.81638827856281" lon="113.95428245463924"><ele>31.5</ele><time>2026-04-17T01:49:02Z</time></trkpt><trkpt lat="-24.816278432070707" lon="113.95458426475471"><ele>33.0</ele><time>2026-04-17T01:49:03Z</time></trkpt><trkpt lat="-24.816168416555634" lon="113.95488509530095"><ele>33.0</ele><time>2026-04-17T01:49:04Z</time></trkpt><trkpt lat="-24.816059416431095" lon="113.9551832203837"><ele>33.0</ele><time>2026-04-17T01:49:05Z</time></trkpt><trkpt lat="-24.815952459562293" lon="113.95547735104459"><ele>32.0</ele><time>2026-04-17T01:49:06Z</time></trkpt><trkpt lat="-24.815845348971212" lon="113.95576914949787"><ele>31.0</ele><time>2026-04-17T01:49:07Z</time></trkpt><trkpt lat="-24.815740247337455" lon="113.9560593505742"><ele>31.0</ele><time>2026-04-17T01:49:08Z</time></trkpt><trkpt lat="-24.815633005969477" lon="113.95635261834829"><ele>31.0</ele><time>2026-04-17T01:49:09Z</time></trkpt><trkpt lat="-24.815525230235153" lon="113.95664424223656"><ele>31.0</ele><time>2026-04-17T01:49:10Z</time></trkpt><trkpt lat="-24.815418667698186" lon="113.95693410764214"><ele>31.0</ele><time>2026-04-17T01:49:11Z</time></trkpt><trkpt lat="-24.815310432782645" lon="113.9572272359072"><ele>31.0</ele><time>2026-04-17T01:49:12Z</time></trkpt><trkpt lat="-24.81520155331866" lon="113.95752085631058"><ele>31.0</ele><time>2026-04-17T01:49:13Z</time></trkpt><trkpt lat="-24.815093718139256" lon="113.95781683265366"><ele>31.5</ele><time>2026-04-17T01:49:14Z</time></trkpt><trkpt lat="-24.814986415656247" lon="113.9581111384473"><ele>32.0</ele><time>2026-04-17T01:49:15Z</time></trkpt><trkpt lat="-24.81488005188407" lon="113.95840716293186"><ele>32.0</ele><time>2026-04-17T01:49:16Z</time></trkpt><trkpt lat="-24.81477580685731" lon="113.95870308515794"><ele>32.0</ele><time>2026-04-17T01:49:17Z</time></trkpt><trkpt lat="-24.81466964917337" lon="113.95900007304981"><ele>32.0</ele><time>2026-04-17T01:49:18Z</time></trkpt><trkpt lat="-24.814564041255363" lon="113.95929402158467"><ele>32.0</ele><time>2026-04-17T01:49:19Z</time></trkpt><trkpt lat="-24.81445633435346" lon="113.95958712385237"><ele>32.0</ele><time>2026-04-17T01:49:20Z</time></trkpt><trkpt lat="-24.81434915561618" lon="113.95987929008488"><ele>32.0</ele><time>2026-04-17T01:49:21Z</time></trkpt><trkpt lat="-24.814243208706685" lon="113.96017125777905"><ele>31.5</ele><time>2026-04-17T01:49:22Z</time></trkpt><trkpt lat="-24.814136259811605" lon="113.96046517554313"><ele>31.0</ele><time>2026-04-17T01:49:23Z</time></trkpt><trkpt lat="-24.81402831806047" lon="113.9607632264146"><ele>31.5</ele><time>2026-04-17T01:49:24Z</time></trkpt><trkpt lat="-24.813920177691955" lon="113.96106370419758"><ele>32.0</ele><time>2026-04-17T01:49:25Z</time></trkpt><trkpt lat="-24.813810182808137" lon="113.9613652955681"><ele>32.0</ele><time>2026-04-17T01:49:26Z</time></trkpt><trkpt lat="-24.81370033953688" lon="113.96166674113478"><ele>32.0</ele><time>2026-04-17T01:49:27Z</time></trkpt><trkpt lat="-24.81359043487719" lon="113.96196772373521"><ele>33.0</ele><time>2026-04-17T01:49:28Z</time></trkpt><trkpt lat="-24.813479267836698" lon="113.9622667891561"><ele>34.0</ele><time>2026-04-17T01:49:29Z</time></trkpt><trkpt lat="-24.813369351521292" lon="113.96256549983373"><ele>34.0</ele><time>2026-04-17T01:49:30Z</time></trkpt><trkpt lat="-24.813260374652742" lon="113.96286581543676"><ele>34.0</ele><time>2026-04-17T01:49:31Z</time></trkpt><trkpt lat="-24.813151353582068" lon="113.96316681715817"><ele>33.5</ele><time>2026-04-17T01:49:32Z</time></trkpt><trkpt lat="-24.8130424234695" lon="113.96346611514895"><ele>33.0</ele><time>2026-04-17T01:49:33Z</time></trkpt><trkpt lat="-24.812933618580953" lon="113.9637711889012"><ele>33.0</ele><time>2026-04-17T01:49:34Z</time></trkpt><trkpt lat="-24.81282384660909" lon="113.9640752936811"><ele>33.0</ele><time>2026-04-17T01:49:35Z</time></trkpt><trkpt lat="-24.812714220436032" lon="113.96437976689444"><ele>33.0</ele><time>2026-04-17T01:49:36Z</time></trkpt><trkpt lat="-24.81260162909787" lon="113.96468274053066"><ele>33.0</ele><time>2026-04-17T01:49:37Z</time></trkpt><trkpt lat="-24.81248931949239" lon="113.96498683416996"><ele>33.5</ele><time>2026-04-17T01:49:38Z</time></trkpt><trkpt lat="-24.81237880256776" lon="113.9652901617216"><ele>34.0</ele><time>2026-04-17T01:49:39Z</time></trkpt><trkpt lat="-24.812267764388178" lon="113.96559181852058"><ele>33.0</ele><time>2026-04-17T01:49:40Z</time></trkpt><trkpt lat="-24.81215627155574" lon="113.96589444633155"><ele>32.0</ele><time>2026-04-17T01:49:41Z</time></trkpt><trkpt lat="-24.812045367088693" lon="113.9661961767398"><ele>32.0</ele><time>2026-04-17T01:49:42Z</time></trkpt><trkpt lat="-24.8119361468803" lon="113.9664992249754"><ele>32.0</ele><time>2026-04-17T01:49:43Z</time></trkpt><trkpt lat="-24.81182609148865" lon="113.96680022720184"><ele>33.0</ele><time>2026-04-17T01:49:44Z</time></trkpt><trkpt lat="-24.81171642967516" lon="113.96709933496162"><ele>34.0</ele><time>2026-04-17T01:49:45Z</time></trkpt><trkpt lat="-24.811606695849143" lon="113.96739834907497"><ele>33.5</ele><time>2026-04-17T01:49:46Z</time></trkpt><trkpt lat="-24.811497741460634" lon="113.96769500045929"><ele>33.0</ele><time>2026-04-17T01:49:47Z</time></trkpt><trkpt lat="-24.811391070136903" lon="113.967988752335"><ele>33.0</ele><time>2026-04-17T01:49:48Z</time></trkpt><trkpt lat="-24.811282708434998" lon="113.96828409576877"><ele>33.0</ele><time>2026-04-17T01:49:49Z</time></trkpt><trkpt lat="-24.811174767940273" lon="113.96858007028439"><ele>32.0</ele><time>2026-04-17T01:49:50Z</time></trkpt><trkpt lat="-24.81106761073866" lon="113.96887751251244"><ele>31.0</ele><time>2026-04-17T01:49:51Z</time></trkpt><trkpt lat="-24.810960315255393" lon="113.96917042651855"><ele>32.5</ele><time>2026-04-17T01:49:52Z</time></trkpt><trkpt lat="-24.81085290261939" lon="113.96946302248486"><ele>34.0</ele><time>2026-04-17T01:49:53Z</time></trkpt><trkpt lat="-24.81074702106527" lon="113.96975632047192"><ele>33.5</ele><time>2026-04-17T01:49:54Z</time></trkpt><trkpt lat="-24.81064104839087" lon="113.97005111668615"><ele>33.0</ele><time>2026-04-17T01:49:55Z</time></trkpt><trkpt lat="-24.810534528399575" lon="113.97034372856835"><ele>33.0</ele><time>2026-04-17T01:49:56Z</time></trkpt><trkpt lat="-24.810427446024764" lon="113.97063754454379"><ele>33.0</ele><time>2026-04-17T01:49:57Z</time></trkpt><trkpt lat="-24.810319013184394" lon="113.97093490262442"><ele>33.0</ele><time>2026-04-17T01:49:58Z</time></trkpt><trkpt lat="-24.81021197848544" lon="113.97123169945247"><ele>33.0</ele><time>2026-04-17T01:49:59Z</time></trkpt><trkpt lat="-24.81010450851992" lon="113.9715307372339"><ele>31.5</ele><time>2026-04-17T01:50:00Z</time></trkpt><trkpt lat="-24.80999854788424" lon="113.97182887499382"><ele>30.0</ele><time>2026-04-17T01:50:01Z</time></trkpt><trkpt lat="-24.80988874631362" lon="113.97212887396677"><ele>30.0</ele><time>2026-04-17T01:50:02Z</time></trkpt><trkpt lat="-24.809779010921034" lon="113.97243118878296"><ele>30.0</ele><time>2026-04-17T01:50:03Z</time></trkpt><trkpt lat="-24.80966937827344" lon="113.9727292562488"><ele>32.0</ele><time>2026-04-17T01:50:04Z</time></trkpt><trkpt lat="-24.809567285324658" lon="113.97300447133094"><ele>34.0</ele><time>2026-04-17T01:50:05Z</time></trkpt><trkpt lat="-24.80946993401048" lon="113.97326700374526"><ele>34.5</ele><time>2026-04-17T01:50:06Z</time></trkpt><trkpt lat="-24.809373552543097" lon="113.97353485031337"><ele>35.0</ele><time>2026-04-17T01:50:07Z</time></trkpt><trkpt lat="-24.809275085795004" lon="113.97381108637141"><ele>34.5</ele><time>2026-04-17T01:50:08Z</time></trkpt><trkpt lat="-24.809173615201964" lon="113.97409266043483"><ele>34.0</ele><time>2026-04-17T01:50:09Z</time></trkpt><trkpt lat="-24.809070530401232" lon="113.97437798135194"><ele>34.0</ele><time>2026-04-17T01:50:10Z</time></trkpt><trkpt lat="-24.80896564542246" lon="113.97466677520225"><ele>34.0</ele><time>2026-04-17T01:50:11Z</time></trkpt><trkpt lat="-24.80886233775709" lon="113.97495900527744"><ele>33.0</ele><time>2026-04-17T01:50:12Z</time></trkpt><trkpt lat="-24.808756471259155" lon="113.97524922270702"><ele>32.0</ele><time>2026-04-17T01:50:13Z</time></trkpt><trkpt lat="-24.808649276328214" lon="113.97554318187679"><ele>32.0</ele><time>2026-04-17T01:50:14Z</time></trkpt><trkpt lat="-24.808540011868036" lon="113.97583745886338"><ele>32.0</ele><time>2026-04-17T01:50:15Z</time></trkpt><trkpt lat="-24.808431187055273" lon="113.97612970225796"><ele>32.5</ele><time>2026-04-17T01:50:16Z</time></trkpt><trkpt lat="-24.80832264479088" lon="113.97642012230075"><ele>33.0</ele><time>2026-04-17T01:50:17Z</time></trkpt><trkpt lat="-24.80821281727781" lon="113.9767122629197"><ele>33.0</ele><time>2026-04-17T01:50:18Z</time></trkpt><trkpt lat="-24.808104072799335" lon="113.97700449664552"><ele>33.0</ele><time>2026-04-17T01:50:19Z</time></trkpt><trkpt lat="-24.80799603506376" lon="113.97729739774553"><ele>33.0</ele><time>2026-04-17T01:50:20Z</time></trkpt><trkpt lat="-24.807890208543757" lon="113.97758969573677"><ele>33.0</ele><time>2026-04-17T01:50:21Z</time></trkpt><trkpt lat="-24.807785113246407" lon="113.97788011465927"><ele>33.0</ele><time>2026-04-17T01:50:22Z</time></trkpt><trkpt lat="-24.80767998600808" lon="113.97816980942918"><ele>33.0</ele><time>2026-04-17T01:50:23Z</time></trkpt><trkpt lat="-24.807574407699704" lon="113.97845962535573"><ele>33.5</ele><time>2026-04-17T01:50:24Z</time></trkpt><trkpt lat="-24.807469959034588" lon="113.97874932971841"><ele>34.0</ele><time>2026-04-17T01:50:25Z</time></trkpt><trkpt lat="-24.807364425390894" lon="113.97903950035403"><ele>34.0</ele><time>2026-04-17T01:50:26Z</time></trkpt><trkpt lat="-24.807256489153463" lon="113.97933340970786"><ele>34.0</ele><time>2026-04-17T01:50:27Z</time></trkpt><trkpt lat="-24.807147687720466" lon="113.97962972862538"><ele>34.0</ele><time>2026-04-17T01:50:28Z</time></trkpt><trkpt lat="-24.80703887425107" lon="113.97992450909548"><ele>34.0</ele><time>2026-04-17T01:50:29Z</time></trkpt><trkpt lat="-24.80693024868727" lon="113.98022160166792"><ele>34.0</ele><time>2026-04-17T01:50:30Z</time></trkpt><trkpt lat="-24.806821163669163" lon="113.98052155196245"><ele>34.0</ele><time>2026-04-17T01:50:31Z</time></trkpt><trkpt lat="-24.806713229903256" lon="113.98082156511477"><ele>34.0</ele><time>2026-04-17T01:50:32Z</time></trkpt><trkpt lat="-24.806605457347942" lon="113.98112275006704"><ele>34.0</ele><time>2026-04-17T01:50:33Z</time></trkpt><trkpt lat="-24.80649528103002" lon="113.98142499862581"><ele>34.0</ele><time>2026-04-17T01:50:34Z</time></trkpt><trkpt lat="-24.806384065839165" lon="113.98172456952136"><ele>34.0</ele><time>2026-04-17T01:50:35Z</time></trkpt><trkpt lat="-24.806271916063896" lon="113.98202577921458"><ele>34.0</ele><time>2026-04-17T01:50:36Z</time></trkpt><trkpt lat="-24.80616159307017" lon="113.98232524868902"><ele>34.0</ele><time>2026-04-17T01:50:37Z</time></trkpt><trkpt lat="-24.806053406347647" lon="113.98262486934513"><ele>35.0</ele><time>2026-04-17T01:50:38Z</time></trkpt><trkpt lat="-24.805946221481722" lon="113.98292557317426"><ele>36.0</ele><time>2026-04-17T01:50:39Z</time></trkpt><trkpt lat="-24.80583918568921" lon="113.98322597267172"><ele>36.0</ele><time>2026-04-17T01:50:40Z</time></trkpt><trkpt lat="-24.805731205781267" lon="113.98352440807713"><ele>36.0</ele><time>2026-04-17T01:50:41Z</time></trkpt><trkpt lat="-24.80562162357687" lon="113.98382320418635"><ele>36.0</ele><time>2026-04-17T01:50:42Z</time></trkpt><trkpt lat="-24.80551087638134" lon="113.98412171418222"><ele>36.0</ele><time>2026-04-17T01:50:43Z</time></trkpt><trkpt lat="-24.805400888359717" lon="113.98441978632017"><ele>36.0</ele><time>2026-04-17T01:50:44Z</time></trkpt><trkpt lat="-24.805291029362756" lon="113.98471511928088"><ele>36.0</ele><time>2026-04-17T01:50:45Z</time></trkpt><trkpt lat="-24.80518185933381" lon="113.98501594180604"><ele>35.0</ele><time>2026-04-17T01:50:46Z</time></trkpt><trkpt lat="-24.80507050507195" lon="113.9853182529882"><ele>34.0</ele><time>2026-04-17T01:50:47Z</time></trkpt><trkpt lat="-24.80496229148279" lon="113.98561851910344"><ele>34.0</ele><time>2026-04-17T01:50:48Z</time></trkpt><trkpt lat="-24.80485536097973" lon="113.98591893556603"><ele>34.0</ele><time>2026-04-17T01:50:49Z</time></trkpt><trkpt lat="-24.80474714183376" lon="113.98622005341588"><ele>34.0</ele><time>2026-04-17T01:50:50Z</time></trkpt><trkpt lat="-24.80463830196717" lon="113.98652025650652"><ele>34.0</ele><time>2026-04-17T01:50:51Z</time></trkpt><trkpt lat="-24.804530180118203" lon="113.98681786546435"><ele>34.0</ele><time>2026-04-17T01:50:52Z</time></trkpt><trkpt lat="-24.80442197082726" lon="113.98711603144726"><ele>34.0</ele><time>2026-04-17T01:50:53Z</time></trkpt><trkpt lat="-24.80431480810642" lon="113.98741241288721"><ele>34.0</ele><time>2026-04-17T01:50:54Z</time></trkpt><trkpt lat="-24.804205148029315" lon="113.98771589908183"><ele>34.0</ele><time>2026-04-17T01:50:55Z</time></trkpt><trkpt lat="-24.804096384272974" lon="113.9880189881666"><ele>34.0</ele><time>2026-04-17T01:50:56Z</time></trkpt><trkpt lat="-24.803987072501492" lon="113.98832035406758"><ele>34.0</ele><time>2026-04-17T01:50:57Z</time></trkpt><trkpt lat="-24.803877430356568" lon="113.98862068996895"><ele>34.5</ele><time>2026-04-17T01:50:58Z</time></trkpt><trkpt lat="-24.803767520834803" lon="113.98891946648449"><ele>35.0</ele><time>2026-04-17T01:50:59Z</time></trkpt><trkpt lat="-24.803657196659664" lon="113.98922031904925"><ele>34.0</ele><time>2026-04-17T01:51:00Z</time></trkpt><trkpt lat="-24.803548384957317" lon="113.98952249595506"><ele>33.0</ele><time>2026-04-17T01:51:01Z</time></trkpt><trkpt lat="-24.803439423198387" lon="113.98982369214042"><ele>33.5</ele><time>2026-04-17T01:51:02Z</time></trkpt><trkpt lat="-24.80333113353095" lon="113.99012310866536"><ele>34.0</ele><time>2026-04-17T01:51:03Z</time></trkpt><trkpt lat="-24.803222391936576" lon="113.99042186140454"><ele>34.0</ele><time>2026-04-17T01:51:04Z</time></trkpt><trkpt lat="-24.80311447389087" lon="113.99072113711742"><ele>34.0</ele><time>2026-04-17T01:51:05Z</time></trkpt><trkpt lat="-24.80300711070106" lon="113.99102032887178"><ele>35.5</ele><time>2026-04-17T01:51:06Z</time></trkpt><trkpt lat="-24.802899385306375" lon="113.9913191917647"><ele>37.0</ele><time>2026-04-17T01:51:07Z</time></trkpt><trkpt lat="-24.802790365944666" lon="113.99161793534267"><ele>37.0</ele><time>2026-04-17T01:51:08Z</time></trkpt><trkpt lat="-24.80268189787595" lon="113.9919154135876"><ele>37.0</ele><time>2026-04-17T01:51:09Z</time></trkpt><trkpt lat="-24.80257371849704" lon="113.99221410011891"><ele>36.5</ele><time>2026-04-17T01:51:10Z</time></trkpt><trkpt lat="-24.80246812810279" lon="113.99251170567467"><ele>36.0</ele><time>2026-04-17T01:51:11Z</time></trkpt><trkpt lat="-24.802362409912654" lon="113.99280886555732"><ele>36.0</ele><time>2026-04-17T01:51:12Z</time></trkpt><trkpt lat="-24.802256202862505" lon="113.99310428037018"><ele>36.0</ele><time>2026-04-17T01:51:13Z</time></trkpt><trkpt lat="-24.802148350068666" lon="113.99339933640016"><ele>36.5</ele><time>2026-04-17T01:51:14Z</time></trkpt><trkpt lat="-24.802038845464505" lon="113.9936974055357"><ele>37.0</ele><time>2026-04-17T01:51:15Z</time></trkpt><trkpt lat="-24.80192890839551" lon="113.99399857936979"><ele>36.5</ele><time>2026-04-17T01:51:16Z</time></trkpt><trkpt lat="-24.801817977605953" lon="113.99430197009073"><ele>36.0</ele><time>2026-04-17T01:51:17Z</time></trkpt><trkpt lat="-24.80170573067834" lon="113.99460750745939"><ele>36.0</ele><time>2026-04-17T01:51:18Z</time></trkpt><trkpt lat="-24.80159538268947" lon="113.99491522633946"><ele>36.0</ele><time>2026-04-17T01:51:19Z</time></trkpt><trkpt lat="-24.801483502064144" lon="113.99522282726622"><ele>35.5</ele><time>2026-04-17T01:51:20Z</time></trkpt><trkpt lat="-24.801369845495984" lon="113.9955344545468"><ele>35.0</ele><time>2026-04-17T01:51:21Z</time></trkpt><trkpt lat="-24.801255529975172" lon="113.99584388920897"><ele>34.5</ele><time>2026-04-17T01:51:22Z</time></trkpt><trkpt lat="-24.801139515886078" lon="113.99615296187471"><ele>34.0</ele><time>2026-04-17T01:51:23Z</time></trkpt><trkpt lat="-24.801025749982927" lon="113.99646169977024"><ele>36.0</ele><time>2026-04-17T01:51:24Z</time></trkpt><trkpt lat="-24.80091460288117" lon="113.99676718997983"><ele>38.0</ele><time>2026-04-17T01:51:25Z</time></trkpt><trkpt lat="-24.800803178187284" lon="113.9970744218333"><ele>38.0</ele><time>2026-04-17T01:51:26Z</time></trkpt><trkpt lat="-24.800692125032736" lon="113.9973817254404"><ele>38.0</ele><time>2026-04-17T01:51:27Z</time></trkpt><trkpt lat="-24.80058188823823" lon="113.9976832207876"><ele>36.5</ele><time>2026-04-17T01:51:28Z</time></trkpt><trkpt lat="-24.800473638991235" lon="113.99798238261928"><ele>35.0</ele><time>2026-04-17T01:51:29Z</time></trkpt><trkpt lat="-24.80036524124444" lon="113.9982823094477"><ele>35.0</ele><time>2026-04-17T01:51:30Z</time></trkpt><trkpt lat="-24.800258127472514" lon="113.99858184545728"><ele>35.0</ele><time>2026-04-17T01:51:31Z</time></trkpt><trkpt lat="-24.80015187185294" lon="113.99888223690749"><ele>34.5</ele><time>2026-04-17T01:51:32Z</time></trkpt><trkpt lat="-24.800042198758096" lon="113.99918448180783"><ele>34.0</ele><time>2026-04-17T01:51:33Z</time></trkpt><trkpt lat="-24.79993123359574" lon="113.9994866002033"><ele>34.0</ele><time>2026-04-17T01:51:34Z</time></trkpt><trkpt lat="-24.79981926232398" lon="113.99979039292822"><ele>34.0</ele><time>2026-04-17T01:51:35Z</time></trkpt><trkpt lat="-24.799706771158743" lon="114.00009611488953"><ele>34.0</ele><time>2026-04-17T01:51:36Z</time></trkpt><trkpt lat="-24.799595280202006" lon="114.00040095404903"><ele>34.0</ele><time>2026-04-17T01:51:37Z</time></trkpt><trkpt lat="-24.799484309567397" lon="114.00070612070225"><ele>35.0</ele><time>2026-04-17T01:51:38Z</time></trkpt><trkpt lat="-24.799372137910122" lon="114.00101596081831"><ele>36.0</ele><time>2026-04-17T01:51:39Z</time></trkpt><trkpt lat="-24.799257676172296" lon="114.0013228438281"><ele>36.0</ele><time>2026-04-17T01:51:40Z</time></trkpt><trkpt lat="-24.799140831641235" lon="114.00162632720813"><ele>36.0</ele><time>2026-04-17T01:51:41Z</time></trkpt><trkpt lat="-24.799021965972123" lon="114.00193036258082"><ele>35.5</ele><time>2026-04-17T01:51:42Z</time></trkpt><trkpt lat="-24.798901041385" lon="114.00223473666827"><ele>35.0</ele><time>2026-04-17T01:51:43Z</time></trkpt><trkpt lat="-24.798779123427863" lon="114.00253837301241"><ele>35.0</ele><time>2026-04-17T01:51:44Z</time></trkpt><trkpt lat="-24.798657416862223" lon="114.0028406251496"><ele>35.0</ele><time>2026-04-17T01:51:45Z</time></trkpt><trkpt lat="-24.79853607729812" lon="114.00314389567829"><ele>35.5</ele><time>2026-04-17T01:51:46Z</time></trkpt><trkpt lat="-24.79841558290811" lon="114.0034457738174"><ele>36.0</ele><time>2026-04-17T01:51:47Z</time></trkpt><trkpt lat="-24.79829575065019" lon="114.00375180278256"><ele>36.0</ele><time>2026-04-17T01:51:48Z</time></trkpt><trkpt lat="-24.798176240883926" lon="114.00405922901976"><ele>36.0</ele><time>2026-04-17T01:51:49Z</time></trkpt><trkpt lat="-24.798056576128854" lon="114.00436801376802"><ele>36.0</ele><time>2026-04-17T01:51:50Z</time></trkpt><trkpt lat="-24.797935631254003" lon="114.0046721172688"><ele>36.0</ele><time>2026-04-17T01:51:51Z</time></trkpt><trkpt lat="-24.797813765108934" lon="114.00497461257781"><ele>36.0</ele><time>2026-04-17T01:51:52Z</time></trkpt><trkpt lat="-24.79769211228063" lon="114.00527710669908"><ele>36.0</ele><time>2026-04-17T01:51:53Z</time></trkpt><trkpt lat="-24.797573205639228" lon="114.00557473682191"><ele>36.5</ele><time>2026-04-17T01:51:54Z</time></trkpt><trkpt lat="-24.79745623189386" lon="114.00587208447018"><ele>37.0</ele><time>2026-04-17T01:51:55Z</time></trkpt><trkpt lat="-24.797338686529802" lon="114.00616792733406"><ele>37.0</ele><time>2026-04-17T01:51:56Z</time></trkpt><trkpt lat="-24.797220906104748" lon="114.00646397529769"><ele>37.0</ele><time>2026-04-17T01:51:57Z</time></trkpt><trkpt lat="-24.797103669477224" lon="114.00675549211662"><ele>37.0</ele><time>2026-04-17T01:51:58Z</time></trkpt><trkpt lat="-24.796987300722975" lon="114.00705001394732"><ele>37.0</ele><time>2026-04-17T01:51:59Z</time></trkpt><trkpt lat="-24.796874864968608" lon="114.00734416176341"><ele>37.0</ele><time>2026-04-17T01:52:00Z</time></trkpt><trkpt lat="-24.796762881321957" lon="114.00764154888607"><ele>37.0</ele><time>2026-04-17T01:52:01Z</time></trkpt><trkpt lat="-24.7966601053487" lon="114.00793611535195"><ele>37.0</ele><time>2026-04-17T01:52:02Z</time></trkpt><trkpt lat="-24.796563173908368" lon="114.00823565559914"><ele>37.0</ele><time>2026-04-17T01:52:03Z</time></trkpt><trkpt lat="-24.79647210924634" lon="114.00854020769866"><ele>36.5</ele><time>2026-04-17T01:52:04Z</time></trkpt><trkpt lat="-24.79638770883029" lon="114.00885104697579"><ele>36.0</ele><time>2026-04-17T01:52:05Z</time></trkpt><trkpt lat="-24.796314622008957" lon="114.00916557573329"><ele>36.0</ele><time>2026-04-17T01:52:06Z</time></trkpt><trkpt lat="-24.79625461896553" lon="114.00948390716671"><ele>36.0</ele><time>2026-04-17T01:52:07Z</time></trkpt><trkpt lat="-24.79620723972916" lon="114.00980948333597"><ele>37.5</ele><time>2026-04-17T01:52:08Z</time></trkpt><trkpt lat="-24.796169120745713" lon="114.0101396155498"><ele>39.0</ele><time>2026-04-17T01:52:09Z</time></trkpt><trkpt lat="-24.79614000223973" lon="114.01046949041124"><ele>39.0</ele><time>2026-04-17T01:52:10Z</time></trkpt><trkpt lat="-24.796118244785433" lon="114.01079712574523"><ele>39.0</ele><time>2026-04-17T01:52:11Z</time></trkpt><trkpt lat="-24.796102480650845" lon="114.01112621033079"><ele>39.5</ele><time>2026-04-17T01:52:12Z</time></trkpt><trkpt lat="-24.796094045950365" lon="114.01145713080403"><ele>40.0</ele><time>2026-04-17T01:52:13Z</time></trkpt><trkpt lat="-24.796093397052918" lon="114.01178223104289"><ele>39.0</ele><time>2026-04-17T01:52:14Z</time></trkpt><trkpt lat="-24.79609377797723" lon="114.01210878563069"><ele>38.0</ele><time>2026-04-17T01:52:15Z</time></trkpt><trkpt lat="-24.79609236536957" lon="114.01243335575062"><ele>38.0</ele><time>2026-04-17T01:52:16Z</time></trkpt><trkpt lat="-24.796089121383783" lon="114.0127560260724"><ele>38.0</ele><time>2026-04-17T01:52:17Z</time></trkpt><trkpt lat="-24.796085266647047" lon="114.01308117151218"><ele>38.5</ele><time>2026-04-17T01:52:18Z</time></trkpt><trkpt lat="-24.79608342188658" lon="114.01340733642732"><ele>39.0</ele><time>2026-04-17T01:52:19Z</time></trkpt><trkpt lat="-24.796082999766835" lon="114.01373312286347"><ele>39.0</ele><time>2026-04-17T01:52:20Z</time></trkpt><trkpt lat="-24.796082439073256" lon="114.01405796867233"><ele>39.0</ele><time>2026-04-17T01:52:21Z</time></trkpt><trkpt lat="-24.796080991548997" lon="114.01438308924553"><ele>39.0</ele><time>2026-04-17T01:52:22Z</time></trkpt><trkpt lat="-24.796078526755533" lon="114.01470527804199"><ele>39.0</ele><time>2026-04-17T01:52:23Z</time></trkpt><trkpt lat="-24.79607623161422" lon="114.0150296230322"><ele>39.0</ele><time>2026-04-17T01:52:24Z</time></trkpt><trkpt lat="-24.796074543180342" lon="114.01535922705988"><ele>39.0</ele><time>2026-04-17T01:52:25Z</time></trkpt><trkpt lat="-24.796074025629324" lon="114.01568879080648"><ele>38.5</ele><time>2026-04-17T01:52:26Z</time></trkpt><trkpt lat="-24.796072078329797" lon="114.0160209731403"><ele>38.0</ele><time>2026-04-17T01:52:27Z</time></trkpt><trkpt lat="-24.796069130224165" lon="114.01635121557348"><ele>39.0</ele><time>2026-04-17T01:52:28Z</time></trkpt><trkpt lat="-24.796067977406103" lon="114.01668124416416"><ele>40.0</ele><time>2026-04-17T01:52:29Z</time></trkpt><trkpt lat="-24.796066733394003" lon="114.01701087557342"><ele>40.0</ele><time>2026-04-17T01:52:30Z</time></trkpt><trkpt lat="-24.796064483074872" lon="114.01733624263521"><ele>40.0</ele><time>2026-04-17T01:52:31Z</time></trkpt><trkpt lat="-24.796063414617414" lon="114.01765981348042"><ele>39.0</ele><time>2026-04-17T01:52:32Z</time></trkpt><trkpt lat="-24.796062599772913" lon="114.01797959390734"><ele>38.0</ele><time>2026-04-17T01:52:33Z</time></trkpt><trkpt lat="-24.796062004443222" lon="114.01830017849625"><ele>38.5</ele><time>2026-04-17T01:52:34Z</time></trkpt><trkpt lat="-24.796062534291345" lon="114.01861721006742"><ele>39.0</ele><time>2026-04-17T01:52:35Z</time></trkpt><trkpt lat="-24.79606092716021" lon="114.01893286899497"><ele>39.5</ele><time>2026-04-17T01:52:36Z</time></trkpt><trkpt lat="-24.79605793929283" lon="114.01924611624602"><ele>40.0</ele><time>2026-04-17T01:52:37Z</time></trkpt><trkpt lat="-24.79605565336078" lon="114.01955617389429"><ele>40.0</ele><time>2026-04-17T01:52:38Z</time></trkpt><trkpt lat="-24.796054756798444" lon="114.01986620944022"><ele>40.0</ele><time>2026-04-17T01:52:39Z</time></trkpt><trkpt lat="-24.79605489162291" lon="114.02017463492453"><ele>39.5</ele><time>2026-04-17T01:52:40Z</time></trkpt><trkpt lat="-24.79605620645116" lon="114.0204838877796"><ele>39.0</ele><time>2026-04-17T01:52:41Z</time></trkpt><trkpt lat="-24.79605550487597" lon="114.0207890407329"><ele>39.5</ele><time>2026-04-17T01:52:42Z</time></trkpt><trkpt lat="-24.796051767737815" lon="114.02109849802983"><ele>40.0</ele><time>2026-04-17T01:52:43Z</time></trkpt><trkpt lat="-24.796048422012923" lon="114.02140713180371"><ele>40.5</ele><time>2026-04-17T01:52:44Z</time></trkpt><trkpt lat="-24.796048079041963" lon="114.02171789352802"><ele>41.0</ele><time>2026-04-17T01:52:45Z</time></trkpt><trkpt lat="-24.796044386274197" lon="114.02203322810848"><ele>41.0</ele><time>2026-04-17T01:52:46Z</time></trkpt><trkpt lat="-24.796040629458705" lon="114.02234810894309"><ele>41.0</ele><time>2026-04-17T01:52:47Z</time></trkpt><trkpt lat="-24.796036167935775" lon="114.0226619231666"><ele>40.5</ele><time>2026-04-17T01:52:48Z</time></trkpt><trkpt lat="-24.796035127165307" lon="114.02297873047253"><ele>40.0</ele><time>2026-04-17T01:52:49Z</time></trkpt><trkpt lat="-24.796034942015353" lon="114.02329670874649"><ele>41.5</ele><time>2026-04-17T01:52:50Z</time></trkpt><trkpt lat="-24.796033844036113" lon="114.02361304674017"><ele>43.0</ele><time>2026-04-17T01:52:51Z</time></trkpt><trkpt lat="-24.796030997793203" lon="114.02393054797955"><ele>42.5</ele><time>2026-04-17T01:52:52Z</time></trkpt><trkpt lat="-24.796028020015402" lon="114.02424943627258"><ele>42.0</ele><time>2026-04-17T01:52:53Z</time></trkpt><trkpt lat="-24.79602502102045" lon="114.0245684985597"><ele>42.0</ele><time>2026-04-17T01:52:54Z</time></trkpt><trkpt lat="-24.796023246367657" lon="114.02488833894522"><ele>42.0</ele><time>2026-04-17T01:52:55Z</time></trkpt><trkpt lat="-24.796022119955122" lon="114.02520450594434"><ele>41.5</ele><time>2026-04-17T01:52:56Z</time></trkpt><trkpt lat="-24.79602090193754" lon="114.02552169378713"><ele>41.0</ele><time>2026-04-17T01:52:57Z</time></trkpt><trkpt lat="-24.796018966009036" lon="114.02584143762788"><ele>40.5</ele><time>2026-04-17T01:52:58Z</time></trkpt><trkpt lat="-24.79601849963704" lon="114.02616449820076"><ele>40.0</ele><time>2026-04-17T01:52:59Z</time></trkpt><trkpt lat="-24.79601988096229" lon="114.02648686114348"><ele>40.5</ele><time>2026-04-17T01:53:00Z</time></trkpt><trkpt lat="-24.79601984813637" lon="114.02680764254237"><ele>41.0</ele><time>2026-04-17T01:53:01Z</time></trkpt><trkpt lat="-24.79601918307169" lon="114.0271244601537"><ele>41.0</ele><time>2026-04-17T01:53:02Z</time></trkpt><trkpt lat="-24.796016376129558" lon="114.0274449376588"><ele>41.0</ele><time>2026-04-17T01:53:03Z</time></trkpt><trkpt lat="-24.796013529874376" lon="114.02776435112526"><ele>41.0</ele><time>2026-04-17T01:53:04Z</time></trkpt><trkpt lat="-24.796011894345977" lon="114.02808619395724"><ele>41.0</ele><time>2026-04-17T01:53:05Z</time></trkpt><trkpt lat="-24.796009825349667" lon="114.02840491787083"><ele>40.5</ele><time>2026-04-17T01:53:06Z</time></trkpt><trkpt lat="-24.796007466804827" lon="114.02872484378976"><ele>40.0</ele><time>2026-04-17T01:53:07Z</time></trkpt><trkpt lat="-24.7960057054875" lon="114.02904352541923"><ele>39.5</ele><time>2026-04-17T01:53:08Z</time></trkpt><trkpt lat="-24.796003581503438" lon="114.02936509852618"><ele>39.0</ele><time>2026-04-17T01:53:09Z</time></trkpt><trkpt lat="-24.796001851240728" lon="114.02969077819512"><ele>39.5</ele><time>2026-04-17T01:53:10Z</time></trkpt><trkpt lat="-24.796002534468403" lon="114.0300164186818"><ele>40.0</ele><time>2026-04-17T01:53:11Z</time></trkpt><trkpt lat="-24.796004720385636" lon="114.03034225910912"><ele>40.0</ele><time>2026-04-17T01:53:12Z</time></trkpt><trkpt lat="-24.79600407013347" lon="114.03066913514043"><ele>40.0</ele><time>2026-04-17T01:53:13Z</time></trkpt><trkpt lat="-24.79600127750247" lon="114.03099972766121"><ele>40.0</ele><time>2026-04-17T01:53:14Z</time></trkpt><trkpt lat="-24.795997721038308" lon="114.03132711949333"><ele>40.0</ele><time>2026-04-17T01:53:15Z</time></trkpt><trkpt lat="-24.795995385332322" lon="114.03165765563773"><ele>40.0</ele><time>2026-04-17T01:53:16Z</time></trkpt><trkpt lat="-24.795994063249612" lon="114.03198756500325"><ele>40.0</ele><time>2026-04-17T01:53:17Z</time></trkpt><trkpt lat="-24.795992663020673" lon="114.0323140105623"><ele>40.5</ele><time>2026-04-17T01:53:18Z</time></trkpt><trkpt lat="-24.795992309002404" lon="114.03264044737188"><ele>41.0</ele><time>2026-04-17T01:53:19Z</time></trkpt><trkpt lat="-24.795990376195075" lon="114.03296669616972"><ele>41.0</ele><time>2026-04-17T01:53:20Z</time></trkpt><trkpt lat="-24.795988816503193" lon="114.03329121725231"><ele>41.0</ele><time>2026-04-17T01:53:21Z</time></trkpt><trkpt lat="-24.79598713909326" lon="114.03361539494236"><ele>41.0</ele><time>2026-04-17T01:53:22Z</time></trkpt><trkpt lat="-24.795986619166747" lon="114.0339404763413"><ele>41.0</ele><time>2026-04-17T01:53:23Z</time></trkpt><trkpt lat="-24.79598636627841" lon="114.03426221933772"><ele>41.0</ele><time>2026-04-17T01:53:24Z</time></trkpt><trkpt lat="-24.79598754301221" lon="114.03458382484969"><ele>41.0</ele><time>2026-04-17T01:53:25Z</time></trkpt><trkpt lat="-24.79598865932248" lon="114.03490324604901"><ele>41.5</ele><time>2026-04-17T01:53:26Z</time></trkpt><trkpt lat="-24.795987273129054" lon="114.03521877813482"><ele>42.0</ele><time>2026-04-17T01:53:27Z</time></trkpt><trkpt lat="-24.795985159186177" lon="114.03552983533868"><ele>42.0</ele><time>2026-04-17T01:53:28Z</time></trkpt><trkpt lat="-24.79598410797265" lon="114.03584003332197"><ele>42.0</ele><time>2026-04-17T01:53:29Z</time></trkpt><trkpt lat="-24.795984209199364" lon="114.03615001990795"><ele>42.0</ele><time>2026-04-17T01:53:30Z</time></trkpt><trkpt lat="-24.795983764955256" lon="114.03646372325849"><ele>42.0</ele><time>2026-04-17T01:53:31Z</time></trkpt><trkpt lat="-24.79598176401051" lon="114.03677941998687"><ele>42.0</ele><time>2026-04-17T01:53:32Z</time></trkpt><trkpt lat="-24.795979154232874" lon="114.03709746097373"><ele>42.0</ele><time>2026-04-17T01:53:33Z</time></trkpt><trkpt lat="-24.795977313742277" lon="114.03741666631345"><ele>42.0</ele><time>2026-04-17T01:53:34Z</time></trkpt><trkpt lat="-24.795976111012465" lon="114.0377377008783"><ele>42.0</ele><time>2026-04-17T01:53:35Z</time></trkpt><trkpt lat="-24.79597315397447" lon="114.0380638477911"><ele>41.5</ele><time>2026-04-17T01:53:36Z</time></trkpt><trkpt lat="-24.795971282727788" lon="114.03839195655084"><ele>41.0</ele><time>2026-04-17T01:53:37Z</time></trkpt><trkpt lat="-24.795968940339602" lon="114.03871768564724"><ele>41.0</ele><time>2026-04-17T01:53:38Z</time></trkpt><trkpt lat="-24.79596639411876" lon="114.03904440183646"><ele>41.0</ele><time>2026-04-17T01:53:39Z</time></trkpt><trkpt lat="-24.795963167209422" lon="114.03937151048079"><ele>41.5</ele><time>2026-04-17T01:53:40Z</time></trkpt><trkpt lat="-24.795961642680663" lon="114.03970000414304"><ele>42.0</ele><time>2026-04-17T01:53:41Z</time></trkpt><trkpt lat="-24.79596209916344" lon="114.04002786444985"><ele>42.5</ele><time>2026-04-17T01:53:42Z</time></trkpt><trkpt lat="-24.79596344704674" lon="114.04035268976322"><ele>43.0</ele><time>2026-04-17T01:53:43Z</time></trkpt><trkpt lat="-24.79596265663682" lon="114.04067540892956"><ele>42.0</ele><time>2026-04-17T01:53:44Z</time></trkpt><trkpt lat="-24.795962583431763" lon="114.04099457607269"><ele>41.0</ele><time>2026-04-17T01:53:45Z</time></trkpt><trkpt lat="-24.795961598297552" lon="114.04131292996863"><ele>41.0</ele><time>2026-04-17T01:53:46Z</time></trkpt><trkpt lat="-24.79595980745998" lon="114.04162820611538"><ele>41.0</ele><time>2026-04-17T01:53:47Z</time></trkpt><trkpt lat="-24.795957300638793" lon="114.04194520962349"><ele>41.0</ele><time>2026-04-17T01:53:48Z</time></trkpt><trkpt lat="-24.795952694719826" lon="114.04226193651643"><ele>41.0</ele><time>2026-04-17T01:53:49Z</time></trkpt><trkpt lat="-24.79594784163444" lon="114.04257780558048"><ele>41.5</ele><time>2026-04-17T01:53:50Z</time></trkpt><trkpt lat="-24.795945320238328" lon="114.04289868150838"><ele>42.0</ele><time>2026-04-17T01:53:51Z</time></trkpt><trkpt lat="-24.79594437081834" lon="114.04321750637176"><ele>42.0</ele><time>2026-04-17T01:53:52Z</time></trkpt><trkpt lat="-24.795944300558308" lon="114.04354024725907"><ele>42.0</ele><time>2026-04-17T01:53:53Z</time></trkpt><trkpt lat="-24.795944702158714" lon="114.0438581077335"><ele>41.5</ele><time>2026-04-17T01:53:54Z</time></trkpt><trkpt lat="-24.795945572961422" lon="114.04417654780474"><ele>41.0</ele><time>2026-04-17T01:53:55Z</time></trkpt><trkpt lat="-24.795944618636906" lon="114.04449512361893"><ele>41.0</ele><time>2026-04-17T01:53:56Z</time></trkpt><trkpt lat="-24.795945221295604" lon="114.04481441935292"><ele>41.0</ele><time>2026-04-17T01:53:57Z</time></trkpt><trkpt lat="-24.79594428180509" lon="114.04513304196973"><ele>41.0</ele><time>2026-04-17T01:53:58Z</time></trkpt><trkpt lat="-24.795941595791497" lon="114.04544839459051"><ele>41.0</ele><time>2026-04-17T01:53:59Z</time></trkpt><trkpt lat="-24.795937410454844" lon="114.04576445638592"><ele>43.0</ele><time>2026-04-17T01:54:00Z</time></trkpt><trkpt lat="-24.795932233195064" lon="114.04608233658975"><ele>45.0</ele><time>2026-04-17T01:54:01Z</time></trkpt><trkpt lat="-24.79592700222654" lon="114.04640195726174"><ele>44.0</ele><time>2026-04-17T01:54:02Z</time></trkpt><trkpt lat="-24.795925661876314" lon="114.04671668711212"><ele>43.0</ele><time>2026-04-17T01:54:03Z</time></trkpt><trkpt lat="-24.795927044021454" lon="114.0470344870992"><ele>43.0</ele><time>2026-04-17T01:54:04Z</time></trkpt><trkpt lat="-24.79592983375715" lon="114.04734819577564"><ele>43.0</ele><time>2026-04-17T01:54:05Z</time></trkpt><trkpt lat="-24.795930627111122" lon="114.04766636684452"><ele>43.5</ele><time>2026-04-17T01:54:06Z</time></trkpt><trkpt lat="-24.79592969445897" lon="114.04798094277652"><ele>44.0</ele><time>2026-04-17T01:54:07Z</time></trkpt><trkpt lat="-24.795930100145426" lon="114.04829348182899"><ele>44.5</ele><time>2026-04-17T01:54:08Z</time></trkpt><trkpt lat="-24.795928631343838" lon="114.04860373951693"><ele>45.0</ele><time>2026-04-17T01:54:09Z</time></trkpt><trkpt lat="-24.795924753213562" lon="114.04891241370915"><ele>45.0</ele><time>2026-04-17T01:54:10Z</time></trkpt><trkpt lat="-24.795920335972397" lon="114.04921904338207"><ele>45.0</ele><time>2026-04-17T01:54:11Z</time></trkpt><trkpt lat="-24.79591821047983" lon="114.04952087924214"><ele>45.0</ele><time>2026-04-17T01:54:12Z</time></trkpt><trkpt lat="-24.795917206532216" lon="114.04982830476983"><ele>45.0</ele><time>2026-04-17T01:54:13Z</time></trkpt><trkpt lat="-24.79591661197798" lon="114.05013651964504"><ele>45.5</ele><time>2026-04-17T01:54:14Z</time></trkpt><trkpt lat="-24.795916344550935" lon="114.05044333548648"><ele>46.0</ele><time>2026-04-17T01:54:15Z</time></trkpt><trkpt lat="-24.795917322339697" lon="114.05074827098068"><ele>46.5</ele><time>2026-04-17T01:54:16Z</time></trkpt><trkpt lat="-24.795918670514308" lon="114.05105258975968"><ele>47.0</ele><time>2026-04-17T01:54:17Z</time></trkpt><trkpt lat="-24.795919239595477" lon="114.05135618379633"><ele>46.0</ele><time>2026-04-17T01:54:18Z</time></trkpt><trkpt lat="-24.795920437965453" lon="114.05166484860779"><ele>45.0</ele><time>2026-04-17T01:54:19Z</time></trkpt><trkpt lat="-24.795917214716525" lon="114.05198162251136"><ele>45.0</ele><time>2026-04-17T01:54:20Z</time></trkpt><trkpt lat="-24.795912846207532" lon="114.0523028132582"><ele>45.0</ele><time>2026-04-17T01:54:21Z</time></trkpt><trkpt lat="-24.795909708000195" lon="114.05262582291344"><ele>44.5</ele><time>2026-04-17T01:54:22Z</time></trkpt><trkpt lat="-24.795909471725057" lon="114.05294909803905"><ele>44.0</ele><time>2026-04-17T01:54:23Z</time></trkpt><trkpt lat="-24.795908826477103" lon="114.05327501320053"><ele>43.0</ele><time>2026-04-17T01:54:24Z</time></trkpt><trkpt lat="-24.79590877952966" lon="114.05359822833968"><ele>42.0</ele><time>2026-04-17T01:54:25Z</time></trkpt><trkpt lat="-24.795908083548092" lon="114.05391765715542"><ele>43.5</ele><time>2026-04-17T01:54:26Z</time></trkpt><trkpt lat="-24.79590740222915" lon="114.05423675505885"><ele>45.0</ele><time>2026-04-17T01:54:27Z</time></trkpt><trkpt lat="-24.795906602364827" lon="114.05455343683599"><ele>45.0</ele><time>2026-04-17T01:54:28Z</time></trkpt><trkpt lat="-24.7959042010035" lon="114.05487213111233"><ele>45.0</ele><time>2026-04-17T01:54:29Z</time></trkpt><trkpt lat="-24.79590110850854" lon="114.05518854359194"><ele>44.5</ele><time>2026-04-17T01:54:30Z</time></trkpt><trkpt lat="-24.79589878344832" lon="114.05550156402657"><ele>44.0</ele><time>2026-04-17T01:54:31Z</time></trkpt><trkpt lat="-24.79589629247896" lon="114.05581408261885"><ele>43.5</ele><time>2026-04-17T01:54:32Z</time></trkpt><trkpt lat="-24.795895740686394" lon="114.05612938559028"><ele>43.0</ele><time>2026-04-17T01:54:33Z</time></trkpt><trkpt lat="-24.79589536886047" lon="114.05644159048683"><ele>44.0</ele><time>2026-04-17T01:54:34Z</time></trkpt><trkpt lat="-24.795893292434336" lon="114.05675758549268"><ele>45.0</ele><time>2026-04-17T01:54:35Z</time></trkpt><trkpt lat="-24.79589193654689" lon="114.05707512873815"><ele>45.0</ele><time>2026-04-17T01:54:36Z</time></trkpt><trkpt lat="-24.7958921177338" lon="114.05739197768568"><ele>45.0</ele><time>2026-04-17T01:54:37Z</time></trkpt><trkpt lat="-24.79589367231867" lon="114.0577087481502"><ele>44.0</ele><time>2026-04-17T01:54:38Z</time></trkpt><trkpt lat="-24.795894516743097" lon="114.0580254451759"><ele>43.0</ele><time>2026-04-17T01:54:39Z</time></trkpt><trkpt lat="-24.795893749134624" lon="114.05834333887107"><ele>43.0</ele><time>2026-04-17T01:54:40Z</time></trkpt><trkpt lat="-24.795892249251686" lon="114.05866371475993"><ele>43.0</ele><time>2026-04-17T01:54:41Z</time></trkpt><trkpt lat="-24.795890441591222" lon="114.05898635064577"><ele>42.5</ele><time>2026-04-17T01:54:42Z</time></trkpt><trkpt lat="-24.795888363336633" lon="114.05930761352218"><ele>42.0</ele><time>2026-04-17T01:54:43Z</time></trkpt><trkpt lat="-24.795887737082168" lon="114.05963047908062"><ele>42.5</ele><time>2026-04-17T01:54:44Z</time></trkpt><trkpt lat="-24.79588646529487" lon="114.05995368047395"><ele>43.0</ele><time>2026-04-17T01:54:45Z</time></trkpt><trkpt lat="-24.79588543684869" lon="114.06027732438015"><ele>43.0</ele><time>2026-04-17T01:54:46Z</time></trkpt><trkpt lat="-24.79588433020393" lon="114.06059890302681"><ele>43.0</ele><time>2026-04-17T01:54:47Z</time></trkpt><trkpt lat="-24.795883359482076" lon="114.0609180678358"><ele>44.0</ele><time>2026-04-17T01:54:48Z</time></trkpt><trkpt lat="-24.79587923343491" lon="114.06123479942366"><ele>45.0</ele><time>2026-04-17T01:54:49Z</time></trkpt><trkpt lat="-24.795877294195545" lon="114.06154952062626"><ele>45.0</ele><time>2026-04-17T01:54:50Z</time></trkpt><trkpt lat="-24.79587576352753" lon="114.06186282991453"><ele>45.0</ele><time>2026-04-17T01:54:51Z</time></trkpt><trkpt lat="-24.795875291519934" lon="114.0621772024605"><ele>44.5</ele><time>2026-04-17T01:54:52Z</time></trkpt><trkpt lat="-24.795874451509185" lon="114.06248991391932"><ele>44.0</ele><time>2026-04-17T01:54:53Z</time></trkpt><trkpt lat="-24.795872549887637" lon="114.0628012027448"><ele>44.0</ele><time>2026-04-17T01:54:54Z</time></trkpt><trkpt lat="-24.79586946197078" lon="114.06311276850884"><ele>44.0</ele><time>2026-04-17T01:54:55Z</time></trkpt><trkpt lat="-24.795867587009987" lon="114.06342551459308"><ele>43.5</ele><time>2026-04-17T01:54:56Z</time></trkpt><trkpt lat="-24.795866922639497" lon="114.06373942349082"><ele>43.0</ele><time>2026-04-17T01:54:57Z</time></trkpt><trkpt lat="-24.7958679008107" lon="114.06405585261128"><ele>43.0</ele><time>2026-04-17T01:54:58Z</time></trkpt><trkpt lat="-24.795868810519003" lon="114.0643716665609"><ele>43.0</ele><time>2026-04-17T01:54:59Z</time></trkpt><trkpt lat="-24.79586971367451" lon="114.06468758878627"><ele>43.5</ele><time>2026-04-17T01:55:00Z</time></trkpt><trkpt lat="-24.795869951717087" lon="114.06500481687851"><ele>44.0</ele><time>2026-04-17T01:55:01Z</time></trkpt><trkpt lat="-24.795869077502694" lon="114.06531661201369"><ele>44.0</ele><time>2026-04-17T01:55:02Z</time></trkpt><trkpt lat="-24.795868523031306" lon="114.06563261012646"><ele>44.0</ele><time>2026-04-17T01:55:03Z</time></trkpt><trkpt lat="-24.79586865049303" lon="114.06594490379308"><ele>43.0</ele><time>2026-04-17T01:55:04Z</time></trkpt><trkpt lat="-24.795866737455306" lon="114.06626027760335"><ele>42.0</ele><time>2026-04-17T01:55:05Z</time></trkpt><trkpt lat="-24.795866003308603" lon="114.06657898184433"><ele>42.5</ele><time>2026-04-17T01:55:06Z</time></trkpt><trkpt lat="-24.79586533975417" lon="114.06689782769224"><ele>43.0</ele><time>2026-04-17T01:55:07Z</time></trkpt><trkpt lat="-24.79586362418023" lon="114.06721858067075"><ele>42.0</ele><time>2026-04-17T01:55:08Z</time></trkpt><trkpt lat="-24.795860790193736" lon="114.06754409642976"><ele>41.0</ele><time>2026-04-17T01:55:09Z</time></trkpt><trkpt lat="-24.79585817676755" lon="114.06787064491972"><ele>41.0</ele><time>2026-04-17T01:55:10Z</time></trkpt><trkpt lat="-24.795855968181932" lon="114.0681940705456"><ele>41.0</ele><time>2026-04-17T01:55:11Z</time></trkpt><trkpt lat="-24.795855641180918" lon="114.06852020161027"><ele>42.0</ele><time>2026-04-17T01:55:12Z</time></trkpt><trkpt lat="-24.795855900936445" lon="114.06884175433527"><ele>43.0</ele><time>2026-04-17T01:55:13Z</time></trkpt><trkpt lat="-24.79585584903036" lon="114.06916781199983"><ele>43.5</ele><time>2026-04-17T01:55:14Z</time></trkpt><trkpt lat="-24.795855845881015" lon="114.06949042937497"><ele>44.0</ele><time>2026-04-17T01:55:15Z</time></trkpt><trkpt lat="-24.795853677852055" lon="114.06981561990646"><ele>44.0</ele><time>2026-04-17T01:55:16Z</time></trkpt><trkpt lat="-24.795851211219098" lon="114.07014021361391"><ele>44.0</ele><time>2026-04-17T01:55:17Z</time></trkpt><trkpt lat="-24.795848445107342" lon="114.07046385889517"><ele>44.5</ele><time>2026-04-17T01:55:18Z</time></trkpt><trkpt lat="-24.79584631735196" lon="114.07079017704679"><ele>45.0</ele><time>2026-04-17T01:55:19Z</time></trkpt><trkpt lat="-24.7958440468311" lon="114.07111499502597"><ele>45.0</ele><time>2026-04-17T01:55:20Z</time></trkpt><trkpt lat="-24.795842764687198" lon="114.0714437756696"><ele>45.0</ele><time>2026-04-17T01:55:21Z</time></trkpt><trkpt lat="-24.79584181833656" lon="114.07177421952687"><ele>45.0</ele><time>2026-04-17T01:55:22Z</time></trkpt><trkpt lat="-24.7958414385031" lon="114.07210648528688"><ele>45.0</ele><time>2026-04-17T01:55:23Z</time></trkpt><trkpt lat="-24.79584324973811" lon="114.07243838580128"><ele>45.0</ele><time>2026-04-17T01:55:24Z</time></trkpt><trkpt lat="-24.795844815078674" lon="114.07276747397053"><ele>45.0</ele><time>2026-04-17T01:55:25Z</time></trkpt><trkpt lat="-24.795845924986022" lon="114.07309551108997"><ele>45.5</ele><time>2026-04-17T01:55:26Z</time></trkpt><trkpt lat="-24.79584661103618" lon="114.07342269947517"><ele>46.0</ele><time>2026-04-17T01:55:27Z</time></trkpt><trkpt lat="-24.79584698328905" lon="114.07374808148535"><ele>46.0</ele><time>2026-04-17T01:55:28Z</time></trkpt><trkpt lat="-24.795846306303726" lon="114.07407121280835"><ele>46.0</ele><time>2026-04-17T01:55:29Z</time></trkpt><trkpt lat="-24.795844602468566" lon="114.07439394756715"><ele>45.5</ele><time>2026-04-17T01:55:30Z</time></trkpt><trkpt lat="-24.795839410565403" lon="114.07472165976264"><ele>45.0</ele><time>2026-04-17T01:55:31Z</time></trkpt><trkpt lat="-24.79583634104213" lon="114.07504922804104"><ele>45.0</ele><time>2026-04-17T01:55:32Z</time></trkpt><trkpt lat="-24.795834439667217" lon="114.07537385205053"><ele>45.0</ele><time>2026-04-17T01:55:33Z</time></trkpt><trkpt lat="-24.795833602542466" lon="114.07569910934545"><ele>44.0</ele><time>2026-04-17T01:55:34Z</time></trkpt><trkpt lat="-24.79583231810672" lon="114.07602546216889"><ele>43.0</ele><time>2026-04-17T01:55:35Z</time></trkpt><trkpt lat="-24.79583066894116" lon="114.07635011756189"><ele>43.5</ele><time>2026-04-17T01:55:36Z</time></trkpt><trkpt lat="-24.795829369964487" lon="114.07667716670608"><ele>44.0</ele><time>2026-04-17T01:55:37Z</time></trkpt><trkpt lat="-24.7958280846755" lon="114.07700404880335"><ele>44.0</ele><time>2026-04-17T01:55:38Z</time></trkpt><trkpt lat="-24.795825723532868" lon="114.07733142322492"><ele>44.0</ele><time>2026-04-17T01:55:39Z</time></trkpt><trkpt lat="-24.79582452918125" lon="114.07766246014441"><ele>44.0</ele><time>2026-04-17T01:55:40Z</time></trkpt><trkpt lat="-24.79582368719863" lon="114.07799122655919"><ele>44.0</ele><time>2026-04-17T01:55:41Z</time></trkpt><trkpt lat="-24.795821087893433" lon="114.07831991879165"><ele>44.0</ele><time>2026-04-17T01:55:42Z</time></trkpt><trkpt lat="-24.795819147462282" lon="114.07864790685524"><ele>44.0</ele><time>2026-04-17T01:55:43Z</time></trkpt><trkpt lat="-24.79581750802376" lon="114.0789751886046"><ele>45.0</ele><time>2026-04-17T01:55:44Z</time></trkpt><trkpt lat="-24.795817204011716" lon="114.07930157842351"><ele>46.0</ele><time>2026-04-17T01:55:45Z</time></trkpt><trkpt lat="-24.79581979238322" lon="114.07962745373361"><ele>45.0</ele><time>2026-04-17T01:55:46Z</time></trkpt><trkpt lat="-24.795820327866743" lon="114.07995241632308"><ele>44.0</ele><time>2026-04-17T01:55:47Z</time></trkpt><trkpt lat="-24.79582064013015" lon="114.08027361143813"><ele>44.0</ele><time>2026-04-17T01:55:48Z</time></trkpt><trkpt lat="-24.795819816215268" lon="114.08059673006056"><ele>44.0</ele><time>2026-04-17T01:55:49Z</time></trkpt><trkpt lat="-24.79581787486296" lon="114.08091618179839"><ele>44.5</ele><time>2026-04-17T01:55:50Z</time></trkpt><trkpt lat="-24.795815196802916" lon="114.08123706573078"><ele>45.0</ele><time>2026-04-17T01:55:51Z</time></trkpt><trkpt lat="-24.79581404238837" lon="114.08155960622672"><ele>44.5</ele><time>2026-04-17T01:55:52Z</time></trkpt><trkpt lat="-24.795813249895247" lon="114.08188612826078"><ele>44.0</ele><time>2026-04-17T01:55:53Z</time></trkpt><trkpt lat="-24.79581225093969" lon="114.0822089108447"><ele>43.5</ele><time>2026-04-17T01:55:54Z</time></trkpt><trkpt lat="-24.795811418147736" lon="114.08253646820968"><ele>43.0</ele><time>2026-04-17T01:55:55Z</time></trkpt><trkpt lat="-24.79580904437515" lon="114.08286374470342"><ele>43.0</ele><time>2026-04-17T01:55:56Z</time></trkpt><trkpt lat="-24.795804562144014" lon="114.08319176622511"><ele>43.0</ele><time>2026-04-17T01:55:57Z</time></trkpt><trkpt lat="-24.7958045024353" lon="114.08351668856797"><ele>43.0</ele><time>2026-04-17T01:55:58Z</time></trkpt><trkpt lat="-24.795803783565173" lon="114.0838397467831"><ele>43.0</ele><time>2026-04-17T01:55:59Z</time></trkpt><trkpt lat="-24.795802523958173" lon="114.08416176404818"><ele>42.5</ele><time>2026-04-17T01:56:00Z</time></trkpt><trkpt lat="-24.795799047856473" lon="114.08448077852306"><ele>42.0</ele><time>2026-04-17T01:56:01Z</time></trkpt><trkpt lat="-24.79579496670255" lon="114.0847980029077"><ele>42.5</ele><time>2026-04-17T01:56:02Z</time></trkpt><trkpt lat="-24.79579366718299" lon="114.08511490450108"><ele>43.0</ele><time>2026-04-17T01:56:03Z</time></trkpt><trkpt lat="-24.795795529116635" lon="114.08542774740732"><ele>43.0</ele><time>2026-04-17T01:56:04Z</time></trkpt><trkpt lat="-24.795797876810735" lon="114.08573880699501"><ele>43.0</ele><time>2026-04-17T01:56:05Z</time></trkpt><trkpt lat="-24.79579826587674" lon="114.08605193490254"><ele>43.0</ele><time>2026-04-17T01:56:06Z</time></trkpt><trkpt lat="-24.795798215883096" lon="114.08636535500776"><ele>43.0</ele><time>2026-04-17T01:56:07Z</time></trkpt><trkpt lat="-24.795796493197123" lon="114.08668045373345"><ele>43.0</ele><time>2026-04-17T01:56:08Z</time></trkpt><trkpt lat="-24.795793781159343" lon="114.08699863847498"><ele>43.0</ele><time>2026-04-17T01:56:09Z</time></trkpt><trkpt lat="-24.795792850669134" lon="114.08731843308858"><ele>42.5</ele><time>2026-04-17T01:56:10Z</time></trkpt><trkpt lat="-24.79579147609386" lon="114.08762374001601"><ele>42.0</ele><time>2026-04-17T01:56:11Z</time></trkpt><trkpt lat="-24.795788492803915" lon="114.08790567126853"><ele>42.0</ele><time>2026-04-17T01:56:12Z</time></trkpt><trkpt lat="-24.795786392892516" lon="114.0881908114492"><ele>42.0</ele><time>2026-04-17T01:56:13Z</time></trkpt><trkpt lat="-24.79578415072983" lon="114.08848665296024"><ele>42.0</ele><time>2026-04-17T01:56:14Z</time></trkpt><trkpt lat="-24.795783777883006" lon="114.08879119335974"><ele>42.0</ele><time>2026-04-17T01:56:15Z</time></trkpt><trkpt lat="-24.795786998805475" lon="114.08909754072432"><ele>42.0</ele><time>2026-04-17T01:56:16Z</time></trkpt><trkpt lat="-24.795789374219904" lon="114.08940260799965"><ele>42.0</ele><time>2026-04-17T01:56:17Z</time></trkpt><trkpt lat="-24.795790672474343" lon="114.08970786873653"><ele>44.0</ele><time>2026-04-17T01:56:18Z</time></trkpt><trkpt lat="-24.795792472543393" lon="114.0900121443023"><ele>46.0</ele><time>2026-04-17T01:56:19Z</time></trkpt><trkpt lat="-24.79579204893789" lon="114.09031846331459"><ele>46.0</ele><time>2026-04-17T01:56:20Z</time></trkpt><trkpt lat="-24.795789323643774" lon="114.0906174855493"><ele>46.0</ele><time>2026-04-17T01:56:21Z</time></trkpt><trkpt lat="-24.79578672717061" lon="114.09090461536023"><ele>45.0</ele><time>2026-04-17T01:56:22Z</time></trkpt><trkpt lat="-24.795782343372483" lon="114.09120055210812"><ele>44.0</ele><time>2026-04-17T01:56:23Z</time></trkpt><trkpt lat="-24.795779540385723" lon="114.09150124223858"><ele>43.5</ele><time>2026-04-17T01:56:24Z</time></trkpt><trkpt lat="-24.795778977868437" lon="114.0918036117122"><ele>43.0</ele><time>2026-04-17T01:56:25Z</time></trkpt><trkpt lat="-24.795778740434816" lon="114.09210498102529"><ele>43.0</ele><time>2026-04-17T01:56:26Z</time></trkpt><trkpt lat="-24.79577871722326" lon="114.09240910462034"><ele>43.0</ele><time>2026-04-17T01:56:27Z</time></trkpt><trkpt lat="-24.795778928619956" lon="114.09271625796282"><ele>42.5</ele><time>2026-04-17T01:56:28Z</time></trkpt><trkpt lat="-24.795779581120648" lon="114.09302601638299"><ele>42.0</ele><time>2026-04-17T01:56:29Z</time></trkpt><trkpt lat="-24.79577987856862" lon="114.09333534061663"><ele>42.0</ele><time>2026-04-17T01:56:30Z</time></trkpt><trkpt lat="-24.795777024800632" lon="114.09364760690451"><ele>42.0</ele><time>2026-04-17T01:56:31Z</time></trkpt><trkpt lat="-24.795775275742503" lon="114.09395983257625"><ele>43.0</ele><time>2026-04-17T01:56:32Z</time></trkpt><trkpt lat="-24.79577315153622" lon="114.09427232500771"><ele>44.0</ele><time>2026-04-17T01:56:33Z</time></trkpt><trkpt lat="-24.795769949404534" lon="114.09458519525417"><ele>44.0</ele><time>2026-04-17T01:56:34Z</time></trkpt><trkpt lat="-24.795766307680445" lon="114.09489846317801"><ele>44.0</ele><time>2026-04-17T01:56:35Z</time></trkpt><trkpt lat="-24.795764979990032" lon="114.09521069442906"><ele>44.0</ele><time>2026-04-17T01:56:36Z</time></trkpt><trkpt lat="-24.795764457032615" lon="114.09551636435948"><ele>44.0</ele><time>2026-04-17T01:56:37Z</time></trkpt><trkpt lat="-24.79576353431544" lon="114.09582365762678"><ele>44.0</ele><time>2026-04-17T01:56:38Z</time></trkpt><trkpt lat="-24.795763694970933" lon="114.09612637271101"><ele>44.0</ele><time>2026-04-17T01:56:39Z</time></trkpt><trkpt lat="-24.795764031317546" lon="114.09642964185707"><ele>44.5</ele><time>2026-04-17T01:56:40Z</time></trkpt><trkpt lat="-24.795764118665012" lon="114.09673647826395"><ele>45.0</ele><time>2026-04-17T01:56:41Z</time></trkpt><trkpt lat="-24.795763200741746" lon="114.09704792202807"><ele>45.0</ele><time>2026-04-17T01:56:42Z</time></trkpt><trkpt lat="-24.795762553507913" lon="114.09736018910394"><ele>45.0</ele><time>2026-04-17T01:56:43Z</time></trkpt><trkpt lat="-24.79576161758268" lon="114.09767383490534"><ele>45.0</ele><time>2026-04-17T01:56:44Z</time></trkpt><trkpt lat="-24.79575914742548" lon="114.09799334836318"><ele>45.0</ele><time>2026-04-17T01:56:45Z</time></trkpt><trkpt lat="-24.795755685312585" lon="114.09831315572679"><ele>45.0</ele><time>2026-04-17T01:56:46Z</time></trkpt><trkpt lat="-24.79575246399921" lon="114.09863369436127"><ele>45.0</ele><time>2026-04-17T01:56:47Z</time></trkpt><trkpt lat="-24.795748939298743" lon="114.09895680910822"><ele>45.0</ele><time>2026-04-17T01:56:48Z</time></trkpt><trkpt lat="-24.795745807266975" lon="114.09928262159367"><ele>45.0</ele><time>2026-04-17T01:56:49Z</time></trkpt><trkpt lat="-24.795745303197975" lon="114.09960426531613"><ele>45.0</ele><time>2026-04-17T01:56:50Z</time></trkpt><trkpt lat="-24.795743941966933" lon="114.0999275655238"><ele>45.0</ele><time>2026-04-17T01:56:51Z</time></trkpt><trkpt lat="-24.795742801653525" lon="114.1002495781909"><ele>45.0</ele><time>2026-04-17T01:56:52Z</time></trkpt><trkpt lat="-24.79574007656581" lon="114.10056987100917"><ele>45.0</ele><time>2026-04-17T01:56:53Z</time></trkpt><trkpt lat="-24.795737996275516" lon="114.10089264121089"><ele>45.5</ele><time>2026-04-17T01:56:54Z</time></trkpt><trkpt lat="-24.795737791288435" lon="114.10121296573308"><ele>46.0</ele><time>2026-04-17T01:56:55Z</time></trkpt><trkpt lat="-24.79573765611617" lon="114.10153147625394"><ele>46.0</ele><time>2026-04-17T01:56:56Z</time></trkpt><trkpt lat="-24.795736178020896" lon="114.10185133804951"><ele>46.0</ele><time>2026-04-17T01:56:57Z</time></trkpt><trkpt lat="-24.795734733619096" lon="114.10217215486384"><ele>45.5</ele><time>2026-04-17T01:56:58Z</time></trkpt><trkpt lat="-24.795732770078413" lon="114.10249287457573"><ele>45.0</ele><time>2026-04-17T01:56:59Z</time></trkpt><trkpt lat="-24.7957314559919" lon="114.10281364187354"><ele>45.0</ele><time>2026-04-17T01:57:00Z</time></trkpt><trkpt lat="-24.795731054286264" lon="114.10312827037596"><ele>45.0</ele><time>2026-04-17T01:57:01Z</time></trkpt><trkpt lat="-24.795730271487894" lon="114.1034437733575"><ele>44.5</ele><time>2026-04-17T01:57:02Z</time></trkpt><trkpt lat="-24.795728321182263" lon="114.10375641924736"><ele>44.0</ele><time>2026-04-17T01:57:03Z</time></trkpt><trkpt lat="-24.795726976293924" lon="114.10407537943836"><ele>44.5</ele><time>2026-04-17T01:57:04Z</time></trkpt><trkpt lat="-24.795713297970718" lon="114.10438801891688"><ele>45.0</ele><time>2026-04-17T01:57:05Z</time></trkpt><trkpt lat="-24.795689822841855" lon="114.10470704781291"><ele>45.0</ele><time>2026-04-17T01:57:06Z</time></trkpt><trkpt lat="-24.795657182228933" lon="114.10502267318995"><ele>45.0</ele><time>2026-04-17T01:57:07Z</time></trkpt><trkpt lat="-24.795618735196996" lon="114.105337932404"><ele>45.0</ele><time>2026-04-17T01:57:08Z</time></trkpt><trkpt lat="-24.795572999354942" lon="114.10565556524541"><ele>45.0</ele><time>2026-04-17T01:57:08.999Z</time></trkpt><trkpt lat="-24.79552218549349" lon="114.10597229942941"><ele>45.0</ele><time>2026-04-17T01:57:09.999Z</time></trkpt><trkpt lat="-24.795466337084854" lon="114.10629082280006"><ele>45.0</ele><time>2026-04-17T01:57:10.999Z</time></trkpt><trkpt lat="-24.79540974028255" lon="114.10660802249652"><ele>45.0</ele><time>2026-04-17T01:57:11.999Z</time></trkpt><trkpt lat="-24.795354392361617" lon="114.10692447307162"><ele>45.0</ele><time>2026-04-17T01:57:12.999Z</time></trkpt><trkpt lat="-24.795301089811762" lon="114.10724006778274"><ele>45.0</ele><time>2026-04-17T01:57:13.999Z</time></trkpt><trkpt lat="-24.795249322791282" lon="114.10755528466524"><ele>45.0</ele><time>2026-04-17T01:57:14.999Z</time></trkpt><trkpt lat="-24.795199311706117" lon="114.10786657893364"><ele>45.5</ele><time>2026-04-17T01:57:16Z</time></trkpt><trkpt lat="-24.795149052974754" lon="114.10817612830841"><ele>46.0</ele><time>2026-04-17T01:57:17Z</time></trkpt><trkpt lat="-24.795095239336558" lon="114.10848895472495"><ele>46.0</ele><time>2026-04-17T01:57:18Z</time></trkpt><trkpt lat="-24.795041546304255" lon="114.1088024899729"><ele>46.0</ele><time>2026-04-17T01:57:19Z</time></trkpt><trkpt lat="-24.794989174974983" lon="114.10911629651035"><ele>47.0</ele><time>2026-04-17T01:57:20Z</time></trkpt><trkpt lat="-24.794936197176494" lon="114.10943321629287"><ele>48.0</ele><time>2026-04-17T01:57:21Z</time></trkpt><trkpt lat="-24.79488200991947" lon="114.10974612319974"><ele>46.5</ele><time>2026-04-17T01:57:22Z</time></trkpt><trkpt lat="-24.79482735839914" lon="114.11006191677768"><ele>45.0</ele><time>2026-04-17T01:57:23Z</time></trkpt><trkpt lat="-24.794775770316484" lon="114.11037629178855"><ele>45.0</ele><time>2026-04-17T01:57:24Z</time></trkpt><trkpt lat="-24.794723620454757" lon="114.11068976184046"><ele>45.0</ele><time>2026-04-17T01:57:25Z</time></trkpt><trkpt lat="-24.794671177830555" lon="114.11100114716075"><ele>45.0</ele><time>2026-04-17T01:57:26Z</time></trkpt><trkpt lat="-24.79461806471138" lon="114.11131591849836"><ele>45.0</ele><time>2026-04-17T01:57:27Z</time></trkpt><trkpt lat="-24.79456433326783" lon="114.11162901462895"><ele>46.5</ele><time>2026-04-17T01:57:28Z</time></trkpt><trkpt lat="-24.7945119800595" lon="114.11194365581231"><ele>48.0</ele><time>2026-04-17T01:57:29Z</time></trkpt><trkpt lat="-24.794458600715025" lon="114.11225363038739"><ele>48.0</ele><time>2026-04-17T01:57:30Z</time></trkpt><trkpt lat="-24.794407461018583" lon="114.11256208539322"><ele>48.0</ele><time>2026-04-17T01:57:31Z</time></trkpt><trkpt lat="-24.79435859456482" lon="114.1128674993756"><ele>47.5</ele><time>2026-04-17T01:57:32Z</time></trkpt><trkpt lat="-24.79430973190702" lon="114.11317377387566"><ele>47.0</ele><time>2026-04-17T01:57:33Z</time></trkpt><trkpt lat="-24.794258885964737" lon="114.11348211137718"><ele>47.0</ele><time>2026-04-17T01:57:34Z</time></trkpt><trkpt lat="-24.794205029459434" lon="114.11379155130665"><ele>47.0</ele><time>2026-04-17T01:57:35Z</time></trkpt><trkpt lat="-24.794150908991835" lon="114.11410031071644"><ele>47.0</ele><time>2026-04-17T01:57:36Z</time></trkpt><trkpt lat="-24.79409699380959" lon="114.11441005194423"><ele>47.0</ele><time>2026-04-17T01:57:37Z</time></trkpt><trkpt lat="-24.79404543096377" lon="114.11471826058376"><ele>46.5</ele><time>2026-04-17T01:57:38Z</time></trkpt><trkpt lat="-24.79399274553352" lon="114.11502929010177"><ele>46.0</ele><time>2026-04-17T01:57:39Z</time></trkpt><trkpt lat="-24.793939271083346" lon="114.11534034553964"><ele>46.0</ele><time>2026-04-17T01:57:40Z</time></trkpt><trkpt lat="-24.793887272320298" lon="114.11565568276963"><ele>46.0</ele><time>2026-04-17T01:57:41Z</time></trkpt><trkpt lat="-24.793833419708868" lon="114.1159740020702"><ele>46.5</ele><time>2026-04-17T01:57:42Z</time></trkpt><trkpt lat="-24.793781186641795" lon="114.11629199246721"><ele>47.0</ele><time>2026-04-17T01:57:43Z</time></trkpt><trkpt lat="-24.793728670851415" lon="114.11661311620607"><ele>47.0</ele><time>2026-04-17T01:57:44Z</time></trkpt><trkpt lat="-24.793674193714576" lon="114.11693577367615"><ele>47.0</ele><time>2026-04-17T01:57:45Z</time></trkpt><trkpt lat="-24.793616837007725" lon="114.11725945151626"><ele>46.5</ele><time>2026-04-17T01:57:46Z</time></trkpt><trkpt lat="-24.7935614099938" lon="114.11757678415758"><ele>46.0</ele><time>2026-04-17T01:57:47Z</time></trkpt><trkpt lat="-24.793510406016303" lon="114.11789819648659"><ele>47.5</ele><time>2026-04-17T01:57:48Z</time></trkpt><trkpt lat="-24.793461216270394" lon="114.11821534797635"><ele>49.0</ele><time>2026-04-17T01:57:49Z</time></trkpt><trkpt lat="-24.79340843642526" lon="114.11853337713086"><ele>49.0</ele><time>2026-04-17T01:57:50Z</time></trkpt><trkpt lat="-24.7933548525925" lon="114.11885051718352"><ele>49.0</ele><time>2026-04-17T01:57:51Z</time></trkpt><trkpt lat="-24.793302089457605" lon="114.11916930225739"><ele>49.0</ele><time>2026-04-17T01:57:52Z</time></trkpt><trkpt lat="-24.79324977691313" lon="114.11948687547415"><ele>49.0</ele><time>2026-04-17T01:57:53Z</time></trkpt><trkpt lat="-24.79319694054727" lon="114.11980203082568"><ele>48.0</ele><time>2026-04-17T01:57:54Z</time></trkpt><trkpt lat="-24.79314294756767" lon="114.12012004855973"><ele>47.0</ele><time>2026-04-17T01:57:55Z</time></trkpt><trkpt lat="-24.793090532054695" lon="114.12043401975296"><ele>46.5</ele><time>2026-04-17T01:57:56Z</time></trkpt><trkpt lat="-24.79303812624424" lon="114.12075171038204"><ele>46.0</ele><time>2026-04-17T01:57:57Z</time></trkpt><trkpt lat="-24.792984111784758" lon="114.12107217784767"><ele>46.0</ele><time>2026-04-17T01:57:58Z</time></trkpt><trkpt lat="-24.792928056650762" lon="114.12139707751977"><ele>46.0</ele><time>2026-04-17T01:57:59Z</time></trkpt><trkpt lat="-24.792873909232906" lon="114.1217199256587"><ele>46.5</ele><time>2026-04-17T01:58:00Z</time></trkpt><trkpt lat="-24.792820861549057" lon="114.12203950249078"><ele>47.0</ele><time>2026-04-17T01:58:01Z</time></trkpt><trkpt lat="-24.792772227945644" lon="114.12235812027465"><ele>47.0</ele><time>2026-04-17T01:58:02Z</time></trkpt><trkpt lat="-24.792729821057904" lon="114.12268025781147"><ele>47.0</ele><time>2026-04-17T01:58:03Z</time></trkpt><trkpt lat="-24.792695739036677" lon="114.12300611526643"><ele>47.0</ele><time>2026-04-17T01:58:04Z</time></trkpt><trkpt lat="-24.79267293347583" lon="114.12333621165375"><ele>47.0</ele><time>2026-04-17T01:58:05Z</time></trkpt><trkpt lat="-24.792657860131122" lon="114.12366668097984"><ele>47.0</ele><time>2026-04-17T01:58:06Z</time></trkpt><trkpt lat="-24.792648707414163" lon="114.12400045358835"><ele>47.0</ele><time>2026-04-17T01:58:07Z</time></trkpt><trkpt lat="-24.792646602176806" lon="114.12433443427895"><ele>47.5</ele><time>2026-04-17T01:58:08Z</time></trkpt><trkpt lat="-24.792652508787718" lon="114.12466935219834"><ele>48.0</ele><time>2026-04-17T01:58:09Z</time></trkpt><trkpt lat="-24.792663802820066" lon="114.12500262902907"><ele>47.5</ele><time>2026-04-17T01:58:10Z</time></trkpt><trkpt lat="-24.792678980007334" lon="114.12533625398481"><ele>47.0</ele><time>2026-04-17T01:58:11Z</time></trkpt><trkpt lat="-24.792693284520364" lon="114.12566628580733"><ele>46.5</ele><time>2026-04-17T01:58:12Z</time></trkpt><trkpt lat="-24.792705316423177" lon="114.12599636808237"><ele>46.0</ele><time>2026-04-17T01:58:13Z</time></trkpt><trkpt lat="-24.79271555461325" lon="114.12632004806868"><ele>46.5</ele><time>2026-04-17T01:58:14Z</time></trkpt><trkpt lat="-24.792725111607247" lon="114.1266438662867"><ele>47.0</ele><time>2026-04-17T01:58:15Z</time></trkpt><trkpt lat="-24.792732923171283" lon="114.12696850094609"><ele>47.0</ele><time>2026-04-17T01:58:16Z</time></trkpt><trkpt lat="-24.792740928770865" lon="114.1272897971449"><ele>47.0</ele><time>2026-04-17T01:58:17Z</time></trkpt><trkpt lat="-24.792748523329646" lon="114.12761235570744"><ele>46.5</ele><time>2026-04-17T01:58:18Z</time></trkpt><trkpt lat="-24.792758101789644" lon="114.12793471341489"><ele>46.0</ele><time>2026-04-17T01:58:19Z</time></trkpt><trkpt lat="-24.792768171804447" lon="114.1282575343357"><ele>46.0</ele><time>2026-04-17T01:58:20Z</time></trkpt><trkpt lat="-24.792778568804085" lon="114.12857896360461"><ele>46.0</ele><time>2026-04-17T01:58:21Z</time></trkpt><trkpt lat="-24.792787534160652" lon="114.12890045601242"><ele>46.5</ele><time>2026-04-17T01:58:22Z</time></trkpt><trkpt lat="-24.792796309078753" lon="114.12921962877003"><ele>47.0</ele><time>2026-04-17T01:58:23Z</time></trkpt><trkpt lat="-24.79280399645024" lon="114.12953612898833"><ele>47.0</ele><time>2026-04-17T01:58:24Z</time></trkpt><trkpt lat="-24.792813015812783" lon="114.12985281373899"><ele>47.0</ele><time>2026-04-17T01:58:25Z</time></trkpt><trkpt lat="-24.792823297116" lon="114.1301700416788"><ele>47.5</ele><time>2026-04-17T01:58:26Z</time></trkpt><trkpt lat="-24.792833622815568" lon="114.13048719563635"><ele>48.0</ele><time>2026-04-17T01:58:27Z</time></trkpt><trkpt lat="-24.79284390414022" lon="114.13080334863137"><ele>46.5</ele><time>2026-04-17T01:58:28Z</time></trkpt><trkpt lat="-24.792852551614278" lon="114.1311190781753"><ele>45.0</ele><time>2026-04-17T01:58:29Z</time></trkpt><trkpt lat="-24.79286091605133" lon="114.13143614491943"><ele>46.0</ele><time>2026-04-17T01:58:30Z</time></trkpt><trkpt lat="-24.792870439608933" lon="114.1317524173321"><ele>47.0</ele><time>2026-04-17T01:58:31Z</time></trkpt><trkpt lat="-24.792881541947946" lon="114.13206861312749"><ele>47.0</ele><time>2026-04-17T01:58:32Z</time></trkpt><trkpt lat="-24.79289219039642" lon="114.1323843922736"><ele>47.0</ele><time>2026-04-17T01:58:33Z</time></trkpt><trkpt lat="-24.792903259444664" lon="114.1326999296222"><ele>47.0</ele><time>2026-04-17T01:58:34Z</time></trkpt><trkpt lat="-24.792911340758284" lon="114.13301035732465"><ele>47.0</ele><time>2026-04-17T01:58:35Z</time></trkpt><trkpt lat="-24.792920079690404" lon="114.13331857484695"><ele>47.0</ele><time>2026-04-17T01:58:36Z</time></trkpt><trkpt lat="-24.792930396156976" lon="114.13363009102832"><ele>47.0</ele><time>2026-04-17T01:58:37Z</time></trkpt><trkpt lat="-24.79293951135443" lon="114.13394247241723"><ele>48.0</ele><time>2026-04-17T01:58:38Z</time></trkpt><trkpt lat="-24.792948215622978" lon="114.13425159987753"><ele>49.0</ele><time>2026-04-17T01:58:39Z</time></trkpt><trkpt lat="-24.792958699229757" lon="114.13456027825299"><ele>49.0</ele><time>2026-04-17T01:58:40Z</time></trkpt><trkpt lat="-24.792969726476812" lon="114.13486540645546"><ele>49.0</ele><time>2026-04-17T01:58:41Z</time></trkpt><trkpt lat="-24.792980831797752" lon="114.13517528920758"><ele>49.0</ele><time>2026-04-17T01:58:42Z</time></trkpt><trkpt lat="-24.792990108671944" lon="114.13548349625276"><ele>49.0</ele><time>2026-04-17T01:58:43Z</time></trkpt><trkpt lat="-24.792996362700467" lon="114.13579144439443"><ele>49.0</ele><time>2026-04-17T01:58:44Z</time></trkpt><trkpt lat="-24.793002726512395" lon="114.13610035210245"><ele>49.0</ele><time>2026-04-17T01:58:45Z</time></trkpt><trkpt lat="-24.793009119008456" lon="114.13640890928771"><ele>49.5</ele><time>2026-04-17T01:58:46Z</time></trkpt><trkpt lat="-24.79301689320392" lon="114.13671511360127"><ele>50.0</ele><time>2026-04-17T01:58:47Z</time></trkpt><trkpt lat="-24.793025469914568" lon="114.13702137825278"><ele>50.0</ele><time>2026-04-17T01:58:48Z</time></trkpt><trkpt lat="-24.7930315582743" lon="114.13733021614951"><ele>50.0</ele><time>2026-04-17T01:58:49Z</time></trkpt><trkpt lat="-24.79303911091736" lon="114.13763653936412"><ele>48.5</ele><time>2026-04-17T01:58:50Z</time></trkpt><trkpt lat="-24.793050621624303" lon="114.13794445256853"><ele>47.0</ele><time>2026-04-17T01:58:51Z</time></trkpt><trkpt lat="-24.793061644673767" lon="114.13824971382422"><ele>47.0</ele><time>2026-04-17T01:58:51.999Z</time></trkpt><trkpt lat="-24.793071013646127" lon="114.13856212845494"><ele>47.0</ele><time>2026-04-17T01:58:52.999Z</time></trkpt><trkpt lat="-24.79307999736443" lon="114.13887769810428"><ele>47.0</ele><time>2026-04-17T01:58:53.999Z</time></trkpt><trkpt lat="-24.793087224440693" lon="114.1391898167444"><ele>47.0</ele><time>2026-04-17T01:58:54.999Z</time></trkpt><trkpt lat="-24.79309328846277" lon="114.13950289835016"><ele>47.0</ele><time>2026-04-17T01:58:55.999Z</time></trkpt><trkpt lat="-24.79309882053577" lon="114.1398165084998"><ele>47.0</ele><time>2026-04-17T01:58:56.999Z</time></trkpt><trkpt lat="-24.793107354868802" lon="114.14013010807182"><ele>47.0</ele><time>2026-04-17T01:58:57.999Z</time></trkpt><trkpt lat="-24.793115922409676" lon="114.14044426434445"><ele>47.0</ele><time>2026-04-17T01:58:58.999Z</time></trkpt><trkpt lat="-24.79312424300855" lon="114.14076250460542"><ele>47.0</ele><time>2026-04-17T01:58:59.999Z</time></trkpt><trkpt lat="-24.793132321482652" lon="114.14107848009077"><ele>47.0</ele><time>2026-04-17T01:59:00.999Z</time></trkpt><trkpt lat="-24.79314041187723" lon="114.1413920832502"><ele>47.5</ele><time>2026-04-17T01:59:01.999Z</time></trkpt><trkpt lat="-24.793148273071036" lon="114.14170768437982"><ele>48.0</ele><time>2026-04-17T01:59:02.999Z</time></trkpt><trkpt lat="-24.793155654491507" lon="114.14202102354761"><ele>48.0</ele><time>2026-04-17T01:59:03.999Z</time></trkpt><trkpt lat="-24.793161988780906" lon="114.14233258921271"><ele>48.0</ele><time>2026-04-17T01:59:04.999Z</time></trkpt><trkpt lat="-24.793169934131377" lon="114.14264704369852"><ele>48.5</ele><time>2026-04-17T01:59:05.999Z</time></trkpt><trkpt lat="-24.793181597460737" lon="114.14296014157028"><ele>49.0</ele><time>2026-04-17T01:59:06.999Z</time></trkpt><trkpt lat="-24.793192207265133" lon="114.14327284673467"><ele>49.5</ele><time>2026-04-17T01:59:07.999Z</time></trkpt><trkpt lat="-24.793201950530666" lon="114.14358365980469"><ele>50.0</ele><time>2026-04-17T01:59:08.999Z</time></trkpt><trkpt lat="-24.793210424364116" lon="114.14389419444151"><ele>49.5</ele><time>2026-04-17T01:59:09.999Z</time></trkpt><trkpt lat="-24.793217149385065" lon="114.14420724342234"><ele>49.0</ele><time>2026-04-17T01:59:10.999Z</time></trkpt><trkpt lat="-24.79322413024004" lon="114.1445194674152"><ele>49.0</ele><time>2026-04-17T01:59:11.999Z</time></trkpt><trkpt lat="-24.79323032499484" lon="114.14483098171827"><ele>49.0</ele><time>2026-04-17T01:59:12.999Z</time></trkpt><trkpt lat="-24.793238805549567" lon="114.14514238257419"><ele>48.5</ele><time>2026-04-17T01:59:13.999Z</time></trkpt><trkpt lat="-24.79324788340479" lon="114.14545434572219"><ele>48.0</ele><time>2026-04-17T01:59:14.999Z</time></trkpt><trkpt lat="-24.793257571971477" lon="114.14576536211732"><ele>47.5</ele><time>2026-04-17T01:59:15.999Z</time></trkpt><trkpt lat="-24.793267733171305" lon="114.14607632004521"><ele>47.0</ele><time>2026-04-17T01:59:16.999Z</time></trkpt><trkpt lat="-24.793276854538604" lon="114.14638800937311"><ele>48.0</ele><time>2026-04-17T01:59:17.999Z</time></trkpt><trkpt lat="-24.79328560511813" lon="114.1466976923927"><ele>49.0</ele><time>2026-04-17T01:59:18.999Z</time></trkpt><trkpt lat="-24.79329279167828" lon="114.14700813935796"><ele>49.0</ele><time>2026-04-17T01:59:19.999Z</time></trkpt><trkpt lat="-24.79329985689053" lon="114.14731816067977"><ele>49.0</ele><time>2026-04-17T01:59:20.999Z</time></trkpt><trkpt lat="-24.793309126534872" lon="114.14762600088324"><ele>49.0</ele><time>2026-04-17T01:59:22Z</time></trkpt><trkpt lat="-24.79332166555807" lon="114.14793036560393"><ele>49.0</ele><time>2026-04-17T01:59:23Z</time></trkpt><trkpt lat="-24.79333578119588" lon="114.14823039949277"><ele>48.5</ele><time>2026-04-17T01:59:24Z</time></trkpt><trkpt lat="-24.793348066414367" lon="114.14852912901551"><ele>48.0</ele><time>2026-04-17T01:59:25Z</time></trkpt><trkpt lat="-24.793356930006336" lon="114.14882329265137"><ele>48.0</ele><time>2026-04-17T01:59:26Z</time></trkpt><trkpt lat="-24.793363542743364" lon="114.149115725601"><ele>48.0</ele><time>2026-04-17T01:59:27Z</time></trkpt><trkpt lat="-24.793372415339185" lon="114.14940592743392"><ele>48.0</ele><time>2026-04-17T01:59:28Z</time></trkpt><trkpt lat="-24.793382042505858" lon="114.14969791550209"><ele>48.0</ele><time>2026-04-17T01:59:29Z</time></trkpt><trkpt lat="-24.793389620666982" lon="114.14999007989724"><ele>48.5</ele><time>2026-04-17T01:59:30Z</time></trkpt><trkpt lat="-24.793394946177287" lon="114.15028068358134"><ele>49.0</ele><time>2026-04-17T01:59:31Z</time></trkpt><trkpt lat="-24.793402294970694" lon="114.15057556478222"><ele>49.0</ele><time>2026-04-17T01:59:32Z</time></trkpt><trkpt lat="-24.793408794676203" lon="114.15086586575678"><ele>49.0</ele><time>2026-04-17T01:59:33Z</time></trkpt><trkpt lat="-24.793415173988947" lon="114.15115839847803"><ele>49.0</ele><time>2026-04-17T01:59:34Z</time></trkpt><trkpt lat="-24.793422773119914" lon="114.15145034526607"><ele>49.0</ele><time>2026-04-17T01:59:35Z</time></trkpt><trkpt lat="-24.793431827325808" lon="114.15173893692449"><ele>49.0</ele><time>2026-04-17T01:59:36Z</time></trkpt><trkpt lat="-24.793439850677082" lon="114.15203142243448"><ele>49.0</ele><time>2026-04-17T01:59:37Z</time></trkpt><trkpt lat="-24.793446675812664" lon="114.15232859916874"><ele>49.0</ele><time>2026-04-17T01:59:38Z</time></trkpt><trkpt lat="-24.793450950566353" lon="114.15262720292982"><ele>49.0</ele><time>2026-04-17T01:59:39Z</time></trkpt><trkpt lat="-24.793456706184198" lon="114.15293356187615"><ele>49.0</ele><time>2026-04-17T01:59:40Z</time></trkpt><trkpt lat="-24.793461575527875" lon="114.15324324268896"><ele>49.0</ele><time>2026-04-17T01:59:41Z</time></trkpt><trkpt lat="-24.79346934536491" lon="114.15355165796504"><ele>49.0</ele><time>2026-04-17T01:59:42Z</time></trkpt><trkpt lat="-24.793477567390163" lon="114.15385598384778"><ele>49.0</ele><time>2026-04-17T01:59:43Z</time></trkpt><trkpt lat="-24.7934875437719" lon="114.15415785614105"><ele>49.0</ele><time>2026-04-17T01:59:44Z</time></trkpt><trkpt lat="-24.793498562648594" lon="114.15445220489855"><ele>49.0</ele><time>2026-04-17T01:59:45Z</time></trkpt><trkpt lat="-24.79350650938888" lon="114.15475324081551"><ele>49.5</ele><time>2026-04-17T01:59:46Z</time></trkpt><trkpt lat="-24.793511921814048" lon="114.15505542207684"><ele>50.0</ele><time>2026-04-17T01:59:47Z</time></trkpt><trkpt lat="-24.793517873740743" lon="114.15535539130242"><ele>50.0</ele><time>2026-04-17T01:59:48Z</time></trkpt><trkpt lat="-24.79352541061589" lon="114.15565293176746"><ele>50.0</ele><time>2026-04-17T01:59:49Z</time></trkpt><trkpt lat="-24.793533076173134" lon="114.15595207722275"><ele>50.0</ele><time>2026-04-17T01:59:50Z</time></trkpt><trkpt lat="-24.793547388986518" lon="114.15625137832124"><ele>50.0</ele><time>2026-04-17T01:59:51Z</time></trkpt><trkpt lat="-24.7935704798004" lon="114.1565531939809"><ele>50.5</ele><time>2026-04-17T01:59:52Z</time></trkpt><trkpt lat="-24.79360204135728" lon="114.15685881325737"><ele>51.0</ele><time>2026-04-17T01:59:53Z</time></trkpt><trkpt lat="-24.793642212762563" lon="114.15716585535394"><ele>50.0</ele><time>2026-04-17T01:59:54Z</time></trkpt><trkpt lat="-24.793690038023243" lon="114.15747422130787"><ele>49.0</ele><time>2026-04-17T01:59:55Z</time></trkpt><trkpt lat="-24.79374532485393" lon="114.15778340208792"><ele>49.0</ele><time>2026-04-17T01:59:56Z</time></trkpt><trkpt lat="-24.793808341137993" lon="114.15809499015798"><ele>49.0</ele><time>2026-04-17T01:59:57Z</time></trkpt><trkpt lat="-24.79387970734017" lon="114.15840628555047"><ele>49.0</ele><time>2026-04-17T01:59:58Z</time></trkpt><trkpt lat="-24.79395641855148" lon="114.15871830238626"><ele>49.0</ele><time>2026-04-17T01:59:59Z</time></trkpt><trkpt lat="-24.79403826202063" lon="114.15903074254369"><ele>49.5</ele><time>2026-04-17T02:00:00Z</time></trkpt><trkpt lat="-24.794123283048293" lon="114.15934183377973"><ele>50.0</ele><time>2026-04-17T02:00:01Z</time></trkpt><trkpt lat="-24.79420774647187" lon="114.15965001922548"><ele>50.0</ele><time>2026-04-17T02:00:02Z</time></trkpt><trkpt lat="-24.794289575047674" lon="114.1599568038995"><ele>50.0</ele><time>2026-04-17T02:00:03Z</time></trkpt><trkpt lat="-24.79437063375192" lon="114.1602650563042"><ele>49.5</ele><time>2026-04-17T02:00:04Z</time></trkpt><trkpt lat="-24.794451305100633" lon="114.16057469430216"><ele>49.0</ele><time>2026-04-17T02:00:05Z</time></trkpt><trkpt lat="-24.794529794231188" lon="114.16088268057742"><ele>48.5</ele><time>2026-04-17T02:00:06Z</time></trkpt><trkpt lat="-24.79460950882698" lon="114.1611924101332"><ele>48.0</ele><time>2026-04-17T02:00:07Z</time></trkpt><trkpt lat="-24.794688051379758" lon="114.16149697227581"><ele>49.0</ele><time>2026-04-17T02:00:08Z</time></trkpt><trkpt lat="-24.794770810781834" lon="114.16180313042132"><ele>50.0</ele><time>2026-04-17T02:00:09Z</time></trkpt><trkpt lat="-24.79485166300354" lon="114.16210525958219"><ele>50.0</ele><time>2026-04-17T02:00:10Z</time></trkpt><trkpt lat="-24.79492678305162" lon="114.162408371292"><ele>50.0</ele><time>2026-04-17T02:00:11Z</time></trkpt><trkpt lat="-24.794996040274484" lon="114.16271228338688"><ele>50.0</ele><time>2026-04-17T02:00:12Z</time></trkpt><trkpt lat="-24.795055598278033" lon="114.16301912440406"><ele>50.0</ele><time>2026-04-17T02:00:13Z</time></trkpt><trkpt lat="-24.795096404158325" lon="114.16332784583224"><ele>50.5</ele><time>2026-04-17T02:00:14Z</time></trkpt><trkpt lat="-24.79512510009036" lon="114.16364449293098"><ele>51.0</ele><time>2026-04-17T02:00:15Z</time></trkpt><trkpt lat="-24.795139333771864" lon="114.16396253429313"><ele>50.0</ele><time>2026-04-17T02:00:16Z</time></trkpt><trkpt lat="-24.795143926618483" lon="114.16428341339665"><ele>49.0</ele><time>2026-04-17T02:00:17Z</time></trkpt><trkpt lat="-24.79513306626644" lon="114.16460072079296"><ele>48.5</ele><time>2026-04-17T02:00:18Z</time></trkpt><trkpt lat="-24.795110754310574" lon="114.16492160769819"><ele>48.0</ele><time>2026-04-17T02:00:19Z</time></trkpt><trkpt lat="-24.795075503511125" lon="114.16524036529522"><ele>48.0</ele><time>2026-04-17T02:00:20Z</time></trkpt><trkpt lat="-24.795033755461848" lon="114.16555786665914"><ele>48.0</ele><time>2026-04-17T02:00:21Z</time></trkpt><trkpt lat="-24.794980476080827" lon="114.16586763596891"><ele>48.0</ele><time>2026-04-17T02:00:22Z</time></trkpt><trkpt lat="-24.794917162841102" lon="114.16617523186818"><ele>48.0</ele><time>2026-04-17T02:00:22.999Z</time></trkpt><trkpt lat="-24.79484935555049" lon="114.1664831365637"><ele>48.0</ele><time>2026-04-17T02:00:23.999Z</time></trkpt><trkpt lat="-24.794784005624233" lon="114.16679331556789"><ele>48.0</ele><time>2026-04-17T02:00:24.999Z</time></trkpt><trkpt lat="-24.79472601494232" lon="114.1671040962263"><ele>48.5</ele><time>2026-04-17T02:00:25.999Z</time></trkpt><trkpt lat="-24.794668610479327" lon="114.16741152032134"><ele>49.0</ele><time>2026-04-17T02:00:26.999Z</time></trkpt><trkpt lat="-24.79461428855254" lon="114.16771873528879"><ele>49.0</ele><time>2026-04-17T02:00:27.999Z</time></trkpt><trkpt lat="-24.794558251192313" lon="114.16802420150849"><ele>49.0</ele><time>2026-04-17T02:00:28.999Z</time></trkpt><trkpt lat="-24.794499983025766" lon="114.1683210395927"><ele>48.5</ele><time>2026-04-17T02:00:29.999Z</time></trkpt><trkpt lat="-24.794443385016308" lon="114.16861573359495"><ele>48.0</ele><time>2026-04-17T02:00:30.999Z</time></trkpt><trkpt lat="-24.794389433568497" lon="114.16891167150901"><ele>48.5</ele><time>2026-04-17T02:00:31.999Z</time></trkpt><trkpt lat="-24.79433821276571" lon="114.16920923630184"><ele>49.0</ele><time>2026-04-17T02:00:32.999Z</time></trkpt><trkpt lat="-24.794289737272656" lon="114.16951503073643"><ele>49.5</ele><time>2026-04-17T02:00:33.999Z</time></trkpt><trkpt lat="-24.794245732291643" lon="114.16982307907348"><ele>50.0</ele><time>2026-04-17T02:00:34.999Z</time></trkpt><trkpt lat="-24.79421009006649" lon="114.17012751767675"><ele>50.0</ele><time>2026-04-17T02:00:35.999Z</time></trkpt><trkpt lat="-24.794182379378064" lon="114.17043240953379"><ele>50.0</ele><time>2026-04-17T02:00:36.999Z</time></trkpt><trkpt lat="-24.79416169250822" lon="114.1707425414988"><ele>50.0</ele><time>2026-04-17T02:00:37.999Z</time></trkpt><trkpt lat="-24.794145240698526" lon="114.17104959484351"><ele>50.0</ele><time>2026-04-17T02:00:38.999Z</time></trkpt><trkpt lat="-24.79413449107011" lon="114.17135785334814"><ele>50.0</ele><time>2026-04-17T02:00:39.999Z</time></trkpt><trkpt lat="-24.79412771546083" lon="114.17166188481646"><ele>50.0</ele><time>2026-04-17T02:00:40.999Z</time></trkpt><trkpt lat="-24.79412543228963" lon="114.17195942554916"><ele>50.0</ele><time>2026-04-17T02:00:41.999Z</time></trkpt><trkpt lat="-24.794124599054427" lon="114.17226083617638"><ele>50.0</ele><time>2026-04-17T02:00:42.999Z</time></trkpt><trkpt lat="-24.79412438221899" lon="114.1725633229155"><ele>50.5</ele><time>2026-04-17T02:00:43.999Z</time></trkpt><trkpt lat="-24.79412047019868" lon="114.17287085893703"><ele>51.0</ele><time>2026-04-17T02:00:44.999Z</time></trkpt><trkpt lat="-24.794113030047974" lon="114.17317711799048"><ele>52.0</ele><time>2026-04-17T02:00:45.999Z</time></trkpt><trkpt lat="-24.79410631519026" lon="114.17348523046958"><ele>53.0</ele><time>2026-04-17T02:00:46.999Z</time></trkpt><trkpt lat="-24.794100164580403" lon="114.17379149997764"><ele>52.5</ele><time>2026-04-17T02:00:47.999Z</time></trkpt><trkpt lat="-24.794093927551266" lon="114.17409822850648"><ele>52.0</ele><time>2026-04-17T02:00:48.999Z</time></trkpt><trkpt lat="-24.794087479775083" lon="114.17440099778105"><ele>52.0</ele><time>2026-04-17T02:00:49.999Z</time></trkpt><trkpt lat="-24.794080926074333" lon="114.17470183308507"><ele>52.0</ele><time>2026-04-17T02:00:50.999Z</time></trkpt><trkpt lat="-24.794074931816365" lon="114.17500430870082"><ele>51.5</ele><time>2026-04-17T02:00:51.999Z</time></trkpt><trkpt lat="-24.79406863347092" lon="114.17530620366941"><ele>51.0</ele><time>2026-04-17T02:00:52.999Z</time></trkpt><trkpt lat="-24.79406385757099" lon="114.175601865211"><ele>51.5</ele><time>2026-04-17T02:00:53.999Z</time></trkpt><trkpt lat="-24.79405869725635" lon="114.17589699320487"><ele>52.0</ele><time>2026-04-17T02:00:54.999Z</time></trkpt><trkpt lat="-24.79405562406999" lon="114.17619044235772"><ele>52.0</ele><time>2026-04-17T02:00:55.999Z</time></trkpt><trkpt lat="-24.794051681463614" lon="114.17648255373312"><ele>52.0</ele><time>2026-04-17T02:00:56.999Z</time></trkpt><trkpt lat="-24.79404741045022" lon="114.17677109751583"><ele>52.0</ele><time>2026-04-17T02:00:57.999Z</time></trkpt><trkpt lat="-24.794043405994678" lon="114.17705272603804"><ele>52.0</ele><time>2026-04-17T02:00:58.999Z</time></trkpt><trkpt lat="-24.7940371768736" lon="114.17733115691126"><ele>52.0</ele><time>2026-04-17T02:00:59.999Z</time></trkpt><trkpt lat="-24.79403116272362" lon="114.17760292227467"><ele>52.0</ele><time>2026-04-17T02:01:00.999Z</time></trkpt><trkpt lat="-24.794027367794193" lon="114.17787709855297"><ele>52.0</ele><time>2026-04-17T02:01:01.999Z</time></trkpt><trkpt lat="-24.794023650989793" lon="114.1781614369566"><ele>52.0</ele><time>2026-04-17T02:01:02.999Z</time></trkpt><trkpt lat="-24.794019583255228" lon="114.1784313302926"><ele>52.0</ele><time>2026-04-17T02:01:03.999Z</time></trkpt><trkpt lat="-24.794017848263515" lon="114.17868006037139"><ele>52.0</ele><time>2026-04-17T02:01:04.999Z</time></trkpt><trkpt lat="-24.794019623414655" lon="114.17891453058427"><ele>52.0</ele><time>2026-04-17T02:01:05.999Z</time></trkpt><trkpt lat="-24.794018010241" lon="114.17913878517025"><ele>52.0</ele><time>2026-04-17T02:01:06.999Z</time></trkpt><trkpt lat="-24.794014167133327" lon="114.17935201288344"><ele>52.0</ele><time>2026-04-17T02:01:07.999Z</time></trkpt><trkpt lat="-24.794011166165596" lon="114.1795549556783"><ele>52.0</ele><time>2026-04-17T02:01:08.999Z</time></trkpt><trkpt lat="-24.79400870759219" lon="114.17974296577397"><ele>52.666666666666664</ele><time>2026-04-17T02:01:09.999Z</time></trkpt><trkpt lat="-24.79400517268938" lon="114.1799223136156"><ele>53.33333333333333</ele><time>2026-04-17T02:01:10.999Z</time></trkpt><trkpt lat="-24.794003691683287" lon="114.18009863252323"><ele>54.0</ele><time>2026-04-17T02:01:11.999Z</time></trkpt><trkpt lat="-24.794000893294548" lon="114.18027959443745"><ele>54.0</ele><time>2026-04-17T02:01:12.999Z</time></trkpt><trkpt lat="-24.79400018848189" lon="114.18046920800082"><ele>54.0</ele><time>2026-04-17T02:01:13.999Z</time></trkpt><trkpt lat="-24.793995702718018" lon="114.18067223380494"><ele>54.0</ele><time>2026-04-17T02:01:14.999Z</time></trkpt><trkpt lat="-24.79398772727562" lon="114.18088829288708"><ele>54.0</ele><time>2026-04-17T02:01:15.999Z</time></trkpt><trkpt lat="-24.793977579691024" lon="114.18111393626349"><ele>54.0</ele><time>2026-04-17T02:01:16.999Z</time></trkpt><trkpt lat="-24.793963185444213" lon="114.18134973197508"><ele>54.0</ele><time>2026-04-17T02:01:17.999Z</time></trkpt><trkpt lat="-24.793941774393122" lon="114.18159192914575"><ele>54.0</ele><time>2026-04-17T02:01:18.999Z</time></trkpt><trkpt lat="-24.7939151716119" lon="114.18183802974303"><ele>54.0</ele><time>2026-04-17T02:01:19.999Z</time></trkpt><trkpt lat="-24.793885161412643" lon="114.18208608367134"><ele>54.0</ele><time>2026-04-17T02:01:20.999Z</time></trkpt><trkpt lat="-24.793853773336487" lon="114.18233836221107"><ele>54.0</ele><time>2026-04-17T02:01:21.999Z</time></trkpt><trkpt lat="-24.793817739734624" lon="114.18259875866329"><ele>56.0</ele><time>2026-04-17T02:01:22.999Z</time></trkpt><trkpt lat="-24.793778122079257" lon="114.18286757389421"><ele>58.0</ele><time>2026-04-17T02:01:23.999Z</time></trkpt><trkpt lat="-24.793740428838046" lon="114.18314254842903"><ele>56.0</ele><time>2026-04-17T02:01:24.999Z</time></trkpt><trkpt lat="-24.793708004547426" lon="114.18341984908085"><ele>54.0</ele><time>2026-04-17T02:01:25.999Z</time></trkpt><trkpt lat="-24.793681738284768" lon="114.18369296877631"><ele>54.0</ele><time>2026-04-17T02:01:26.999Z</time></trkpt><trkpt lat="-24.79366088645104" lon="114.18396253083655"><ele>54.0</ele><time>2026-04-17T02:01:27.999Z</time></trkpt><trkpt lat="-24.79364634271765" lon="114.18422400836516"><ele>54.0</ele><time>2026-04-17T02:01:28.999Z</time></trkpt><trkpt lat="-24.79363691764298" lon="114.18447406341487"><ele>54.0</ele><time>2026-04-17T02:01:29.999Z</time></trkpt><trkpt lat="-24.793628785777877" lon="114.18470907296987"><ele>54.0</ele><time>2026-04-17T02:01:30.999Z</time></trkpt><trkpt lat="-24.793621127673543" lon="114.18492735783528"><ele>54.0</ele><time>2026-04-17T02:01:31.999Z</time></trkpt><trkpt lat="-24.793614202031208" lon="114.18512241193453"><ele>54.0</ele><time>2026-04-17T02:01:32.999Z</time></trkpt><trkpt lat="-24.793610359734785" lon="114.1852979062549"><ele>54.0</ele><time>2026-04-17T02:01:33.999Z</time></trkpt><trkpt lat="-24.793608009165283" lon="114.18544957370241"><ele>54.0</ele><time>2026-04-17T02:01:34.999Z</time></trkpt><trkpt lat="-24.793605888721135" lon="114.1855808285623"><ele>54.00000000000001</ele><time>2026-04-17T02:01:35.999Z</time></trkpt><trkpt lat="-24.793610014863944" lon="114.18569322305287"><ele>54.00000000000001</ele><time>2026-04-17T02:01:36.999Z</time></trkpt><trkpt lat="-24.793631578110904" lon="114.18577089418088"><ele>54.0</ele><time>2026-04-17T02:01:37.999Z</time></trkpt><trkpt lat="-24.79373626434368" lon="114.18585392687386"><ele>54.0</ele><time>2026-04-17T02:01:39.999Z</time></trkpt><trkpt lat="-24.79381506218725" lon="114.1858629083342"><ele>54.0</ele><time>2026-04-17T02:01:40.999Z</time></trkpt><trkpt lat="-24.793912653907352" lon="114.18586052490046"><ele>54.0</ele><time>2026-04-17T02:01:41.999Z</time></trkpt><trkpt lat="-24.794027751258714" lon="114.1858607186354"><ele>54.0</ele><time>2026-04-17T02:01:42.999Z</time></trkpt><trkpt lat="-24.794163764796743" lon="114.18586307023782"><ele>54.0</ele><time>2026-04-17T02:01:43.999Z</time></trkpt><trkpt lat="-24.794316696497" lon="114.18586512164417"><ele>54.33333333333333</ele><time>2026-04-17T02:01:44.999Z</time></trkpt><trkpt lat="-24.7944842165152" lon="114.18586753574431"><ele>54.666666666666664</ele><time>2026-04-17T02:01:45.999Z</time></trkpt><trkpt lat="-24.794658509032185" lon="114.18586834778226"><ele>55.0</ele><time>2026-04-17T02:01:46.999Z</time></trkpt><trkpt lat="-24.794841983600016" lon="114.18587017767038"><ele>55.0</ele><time>2026-04-17T02:01:47.999Z</time></trkpt><trkpt lat="-24.795028147754703" lon="114.18587200060207"><ele>55.0</ele><time>2026-04-17T02:01:48.999Z</time></trkpt><trkpt lat="-24.795215780431185" lon="114.18587284387064"><ele>55.0</ele><time>2026-04-17T02:01:49.999Z</time></trkpt><trkpt lat="-24.795400786852333" lon="114.18587294158745"><ele>54.666666666666664</ele><time>2026-04-17T02:01:50.999Z</time></trkpt><trkpt lat="-24.795587889786262" lon="114.18587163824401"><ele>54.33333333333333</ele><time>2026-04-17T02:01:51.999Z</time></trkpt><trkpt lat="-24.795772967219015" lon="114.18586806112118"><ele>54.0</ele><time>2026-04-17T02:01:52.999Z</time></trkpt><trkpt lat="-24.795958205479188" lon="114.18586447203855"><ele>54.33333333333333</ele><time>2026-04-17T02:01:54Z</time></trkpt><trkpt lat="-24.796144179473604" lon="114.1858613311333"><ele>54.666666666666664</ele><time>2026-04-17T02:01:54.999Z</time></trkpt><trkpt lat="-24.796330963347575" lon="114.18585936110456"><ele>55.0</ele><time>2026-04-17T02:01:55.999Z</time></trkpt><trkpt lat="-24.796517609007022" lon="114.18585404841821"><ele>55.0</ele><time>2026-04-17T02:01:56.999Z</time></trkpt><trkpt lat="-24.796706617673987" lon="114.1858455570419"><ele>55.0</ele><time>2026-04-17T02:01:57.999Z</time></trkpt><trkpt lat="-24.796895141636508" lon="114.1858331100664"><ele>55.0</ele><time>2026-04-17T02:01:58.999Z</time></trkpt><trkpt lat="-24.797262999617935" lon="114.18579144634718"><ele>55.0</ele><time>2026-04-17T02:02:00.999Z</time></trkpt><trkpt lat="-24.79744978940662" lon="114.18576280448413"><ele>55.0</ele><time>2026-04-17T02:02:01.999Z</time></trkpt><trkpt lat="-24.797639473189864" lon="114.18573097352346"><ele>55.0</ele><time>2026-04-17T02:02:02.999Z</time></trkpt><trkpt lat="-24.79784617937947" lon="114.18569465350224"><ele>55.33333333333333</ele><time>2026-04-17T02:02:03.999Z</time></trkpt><trkpt lat="-24.798060703110433" lon="114.18565686780993"><ele>55.66666666666667</ele><time>2026-04-17T02:02:04.999Z</time></trkpt><trkpt lat="-24.798282346270632" lon="114.18561659263325"><ele>56.0</ele><time>2026-04-17T02:02:05.999Z</time></trkpt><trkpt lat="-24.798501187272755" lon="114.18557576788943"><ele>56.0</ele><time>2026-04-17T02:02:06.999Z</time></trkpt><trkpt lat="-24.798725136056667" lon="114.18552922517418"><ele>56.0</ele><time>2026-04-17T02:02:07.999Z</time></trkpt><trkpt lat="-24.79895794000611" lon="114.1854797427074"><ele>56.0</ele><time>2026-04-17T02:02:08.999Z</time></trkpt><trkpt lat="-24.799191027988215" lon="114.18543206714362"><ele>56.0</ele><time>2026-04-17T02:02:09.999Z</time></trkpt><trkpt lat="-24.79942829860194" lon="114.18538529586098"><ele>56.0</ele><time>2026-04-17T02:02:10.999Z</time></trkpt><trkpt lat="-24.79967617469686" lon="114.18533604781553"><ele>56.0</ele><time>2026-04-17T02:02:11.999Z</time></trkpt><trkpt lat="-24.799923413760798" lon="114.18528724976203"><ele>55.5</ele><time>2026-04-17T02:02:12.999Z</time></trkpt><trkpt lat="-24.80016745809482" lon="114.18523618408564"><ele>55.0</ele><time>2026-04-17T02:02:13.999Z</time></trkpt><trkpt lat="-24.800414117459603" lon="114.1851833913902"><ele>55.0</ele><time>2026-04-17T02:02:14.999Z</time></trkpt><trkpt lat="-24.800668589014343" lon="114.18513132138277"><ele>55.0</ele><time>2026-04-17T02:02:15.999Z</time></trkpt><trkpt lat="-24.800928466972536" lon="114.1850816652732"><ele>55.0</ele><time>2026-04-17T02:02:16.999Z</time></trkpt><trkpt lat="-24.801192661277987" lon="114.18503053608354"><ele>55.0</ele><time>2026-04-17T02:02:17.999Z</time></trkpt><trkpt lat="-24.801463446834497" lon="114.18497697127202"><ele>55.0</ele><time>2026-04-17T02:02:18.999Z</time></trkpt><trkpt lat="-24.8017322228974" lon="114.18492340989192"><ele>55.0</ele><time>2026-04-17T02:02:19.999Z</time></trkpt><trkpt lat="-24.802001344309716" lon="114.18486855035752"><ele>55.0</ele><time>2026-04-17T02:02:20.999Z</time></trkpt><trkpt lat="-24.802262773746502" lon="114.18481406235502"><ele>55.0</ele><time>2026-04-17T02:02:21.999Z</time></trkpt><trkpt lat="-24.80251856725612" lon="114.18476410073085"><ele>54.5</ele><time>2026-04-17T02:02:22.999Z</time></trkpt><trkpt lat="-24.802765302226376" lon="114.18471775552592"><ele>54.0</ele><time>2026-04-17T02:02:23.999Z</time></trkpt><trkpt lat="-24.803013858755655" lon="114.18466979552166"><ele>54.0</ele><time>2026-04-17T02:02:24.999Z</time></trkpt><trkpt lat="-24.803266286264822" lon="114.18462213218142"><ele>54.0</ele><time>2026-04-17T02:02:25.999Z</time></trkpt><trkpt lat="-24.803523518748523" lon="114.18457496216854"><ele>53.5</ele><time>2026-04-17T02:02:26.999Z</time></trkpt><trkpt lat="-24.80378010325666" lon="114.18452365717567"><ele>53.0</ele><time>2026-04-17T02:02:27.999Z</time></trkpt><trkpt lat="-24.804033914304444" lon="114.18447145827301"><ele>53.0</ele><time>2026-04-17T02:02:28.999Z</time></trkpt><trkpt lat="-24.80428586410046" lon="114.18441994105555"><ele>53.0</ele><time>2026-04-17T02:02:29.999Z</time></trkpt><trkpt lat="-24.804536921126836" lon="114.18437129015683"><ele>52.5</ele><time>2026-04-17T02:02:30.999Z</time></trkpt><trkpt lat="-24.80478811441067" lon="114.18432137283105"><ele>52.0</ele><time>2026-04-17T02:02:31.999Z</time></trkpt><trkpt lat="-24.805038991674813" lon="114.18427110176972"><ele>53.0</ele><time>2026-04-17T02:02:32.999Z</time></trkpt><trkpt lat="-24.805290196839415" lon="114.18421914432582"><ele>54.0</ele><time>2026-04-17T02:02:33.999Z</time></trkpt><trkpt lat="-24.805539865543903" lon="114.18417335722063"><ele>54.0</ele><time>2026-04-17T02:02:34.999Z</time></trkpt><trkpt lat="-24.805796518285565" lon="114.18412767931329"><ele>54.0</ele><time>2026-04-17T02:02:35.999Z</time></trkpt><trkpt lat="-24.806054808280273" lon="114.18408077428225"><ele>53.5</ele><time>2026-04-17T02:02:36.999Z</time></trkpt><trkpt lat="-24.80631205494224" lon="114.18403283235862"><ele>53.0</ele><time>2026-04-17T02:02:37.999Z</time></trkpt><trkpt lat="-24.806563397682048" lon="114.18398741481948"><ele>52.5</ele><time>2026-04-17T02:02:38.999Z</time></trkpt><trkpt lat="-24.80681369509141" lon="114.18394263797921"><ele>52.0</ele><time>2026-04-17T02:02:39.999Z</time></trkpt><trkpt lat="-24.807066644533304" lon="114.18389844682117"><ele>52.0</ele><time>2026-04-17T02:02:40.999Z</time></trkpt><trkpt lat="-24.807317836799584" lon="114.18385073480836"><ele>52.0</ele><time>2026-04-17T02:02:41.999Z</time></trkpt><trkpt lat="-24.80756209333749" lon="114.18380269949557"><ele>53.0</ele><time>2026-04-17T02:02:42.999Z</time></trkpt><trkpt lat="-24.807802100219615" lon="114.18375680138112"><ele>54.0</ele><time>2026-04-17T02:02:43.999Z</time></trkpt><trkpt lat="-24.808045422403644" lon="114.18370938928243"><ele>54.0</ele><time>2026-04-17T02:02:44.999Z</time></trkpt><trkpt lat="-24.80829092997911" lon="114.18366098400308"><ele>54.0</ele><time>2026-04-17T02:02:45.999Z</time></trkpt><trkpt lat="-24.808539074458185" lon="114.18361377078524"><ele>53.5</ele><time>2026-04-17T02:02:46.999Z</time></trkpt><trkpt lat="-24.808787754632043" lon="114.18356741958712"><ele>53.0</ele><time>2026-04-17T02:02:47.999Z</time></trkpt><trkpt lat="-24.80903802116621" lon="114.18351897841708"><ele>53.0</ele><time>2026-04-17T02:02:48.999Z</time></trkpt><trkpt lat="-24.809294816010265" lon="114.18346843468464"><ele>53.0</ele><time>2026-04-17T02:02:49.999Z</time></trkpt><trkpt lat="-24.809550950766802" lon="114.18341918417742"><ele>53.0</ele><time>2026-04-17T02:02:50.999Z</time></trkpt><trkpt lat="-24.809808352619584" lon="114.1833671139259"><ele>53.0</ele><time>2026-04-17T02:02:51.999Z</time></trkpt><trkpt lat="-24.810070798305283" lon="114.18331702907685"><ele>53.5</ele><time>2026-04-17T02:02:52.999Z</time></trkpt><trkpt lat="-24.81033688041801" lon="114.18326662786039"><ele>54.0</ele><time>2026-04-17T02:02:53.999Z</time></trkpt><trkpt lat="-24.810605940629838" lon="114.18321387693577"><ele>53.5</ele><time>2026-04-17T02:02:54.999Z</time></trkpt><trkpt lat="-24.810869947839894" lon="114.18315997569668"><ele>53.0</ele><time>2026-04-17T02:02:55.999Z</time></trkpt><trkpt lat="-24.811134749104816" lon="114.18310597302847"><ele>52.5</ele><time>2026-04-17T02:02:56.999Z</time></trkpt><trkpt lat="-24.811400442940784" lon="114.18305382991072"><ele>52.0</ele><time>2026-04-17T02:02:57.999Z</time></trkpt><trkpt lat="-24.811665343401103" lon="114.18300117666233"><ele>52.0</ele><time>2026-04-17T02:02:58.999Z</time></trkpt><trkpt lat="-24.811932944850767" lon="114.18294681786067"><ele>52.0</ele><time>2026-04-17T02:02:59.999Z</time></trkpt><trkpt lat="-24.812204671415834" lon="114.18289266585884"><ele>52.0</ele><time>2026-04-17T02:03:00.999Z</time></trkpt><trkpt lat="-24.81247711844347" lon="114.1828423335229"><ele>52.0</ele><time>2026-04-17T02:03:01.999Z</time></trkpt><trkpt lat="-24.812747514231113" lon="114.1827936293426"><ele>52.5</ele><time>2026-04-17T02:03:02.999Z</time></trkpt><trkpt lat="-24.81302053016596" lon="114.18274436941775"><ele>53.0</ele><time>2026-04-17T02:03:03.999Z</time></trkpt><trkpt lat="-24.81329151516113" lon="114.18269310619434"><ele>53.5</ele><time>2026-04-17T02:03:04.999Z</time></trkpt><trkpt lat="-24.81356482050807" lon="114.18263869029163"><ele>54.0</ele><time>2026-04-17T02:03:05.999Z</time></trkpt><trkpt lat="-24.81384558526567" lon="114.18258018123721"><ele>54.0</ele><time>2026-04-17T02:03:06.999Z</time></trkpt><trkpt lat="-24.814132048529384" lon="114.18252169760714"><ele>54.0</ele><time>2026-04-17T02:03:07.999Z</time></trkpt><trkpt lat="-24.8144163633497" lon="114.18246802894933"><ele>53.5</ele><time>2026-04-17T02:03:08.999Z</time></trkpt><trkpt lat="-24.814700936716804" lon="114.1824164458914"><ele>53.0</ele><time>2026-04-17T02:03:09.999Z</time></trkpt><trkpt lat="-24.814990980953063" lon="114.18236843215269"><ele>53.0</ele><time>2026-04-17T02:03:10.999Z</time></trkpt><trkpt lat="-24.81527977397361" lon="114.18232146068877"><ele>53.0</ele><time>2026-04-17T02:03:11.999Z</time></trkpt><trkpt lat="-24.815565175025036" lon="114.18227168390061"><ele>53.0</ele><time>2026-04-17T02:03:12.999Z</time></trkpt><trkpt lat="-24.81584695593926" lon="114.18221617922009"><ele>53.0</ele><time>2026-04-17T02:03:13.999Z</time></trkpt><trkpt lat="-24.816126788563388" lon="114.18215718434531"><ele>53.5</ele><time>2026-04-17T02:03:14.999Z</time></trkpt><trkpt lat="-24.816410307554467" lon="114.18209461462465"><ele>54.0</ele><time>2026-04-17T02:03:15.999Z</time></trkpt><trkpt lat="-24.81668357937856" lon="114.18203427353286"><ele>54.5</ele><time>2026-04-17T02:03:16.999Z</time></trkpt><trkpt lat="-24.816946896586572" lon="114.18197818289728"><ele>55.0</ele><time>2026-04-17T02:03:17.999Z</time></trkpt><trkpt lat="-24.817209778563353" lon="114.18192397958762"><ele>55.0</ele><time>2026-04-17T02:03:18.999Z</time></trkpt><trkpt lat="-24.81747052550972" lon="114.18187004044515"><ele>55.0</ele><time>2026-04-17T02:03:19.999Z</time></trkpt><trkpt lat="-24.817733593650924" lon="114.18182344470154"><ele>54.5</ele><time>2026-04-17T02:03:20.999Z</time></trkpt><trkpt lat="-24.818006644806484" lon="114.18178382342064"><ele>54.0</ele><time>2026-04-17T02:03:21.999Z</time></trkpt><trkpt lat="-24.818284636169587" lon="114.18175387682552"><ele>53.0</ele><time>2026-04-17T02:03:22.999Z</time></trkpt><trkpt lat="-24.81856976416414" lon="114.18173454202615"><ele>52.0</ele><time>2026-04-17T02:03:23.999Z</time></trkpt><trkpt lat="-24.818859362590644" lon="114.18172065858616"><ele>52.0</ele><time>2026-04-17T02:03:24.999Z</time></trkpt><trkpt lat="-24.81914579592321" lon="114.18170413373056"><ele>52.0</ele><time>2026-04-17T02:03:25.999Z</time></trkpt><trkpt lat="-24.819433253800277" lon="114.18168738028199"><ele>52.0</ele><time>2026-04-17T02:03:26.999Z</time></trkpt><trkpt lat="-24.819714419038004" lon="114.18167207291692"><ele>52.0</ele><time>2026-04-17T02:03:27.999Z</time></trkpt><trkpt lat="-24.819979759513302" lon="114.18165750771863"><ele>51.5</ele><time>2026-04-17T02:03:28.999Z</time></trkpt><trkpt lat="-24.82023137671676" lon="114.18164608498326"><ele>51.0</ele><time>2026-04-17T02:03:29.999Z</time></trkpt><trkpt lat="-24.82047846420334" lon="114.18163686338501"><ele>51.0</ele><time>2026-04-17T02:03:30.999Z</time></trkpt><trkpt lat="-24.82072696283505" lon="114.18162849767077"><ele>51.0</ele><time>2026-04-17T02:03:31.999Z</time></trkpt><trkpt lat="-24.82098051453216" lon="114.18161528710311"><ele>51.5</ele><time>2026-04-17T02:03:32.999Z</time></trkpt><trkpt lat="-24.821228089731047" lon="114.18159534469298"><ele>52.0</ele><time>2026-04-17T02:03:33.999Z</time></trkpt><trkpt lat="-24.821477154702553" lon="114.18156241251157"><ele>52.0</ele><time>2026-04-17T02:03:34.999Z</time></trkpt><trkpt lat="-24.821734442753474" lon="114.18153239897464"><ele>52.0</ele><time>2026-04-17T02:03:35.999Z</time></trkpt><trkpt lat="-24.822003915166057" lon="114.18150824416108"><ele>52.0</ele><time>2026-04-17T02:03:36.999Z</time></trkpt><trkpt lat="-24.82227880735629" lon="114.18148445938003"><ele>52.0</ele><time>2026-04-17T02:03:37.999Z</time></trkpt><trkpt lat="-24.822561196606408" lon="114.18146135487996"><ele>53.0</ele><time>2026-04-17T02:03:38.999Z</time></trkpt><trkpt lat="-24.822844215390287" lon="114.18144100023076"><ele>54.0</ele><time>2026-04-17T02:03:39.999Z</time></trkpt><trkpt lat="-24.823127621528236" lon="114.18142191851955"><ele>54.0</ele><time>2026-04-17T02:03:40.999Z</time></trkpt><trkpt lat="-24.82341306902523" lon="114.18140304199979"><ele>54.0</ele><time>2026-04-17T02:03:41.999Z</time></trkpt><trkpt lat="-24.823696988658387" lon="114.181383290852"><ele>55.0</ele><time>2026-04-17T02:03:42.999Z</time></trkpt><trkpt lat="-24.82397770314093" lon="114.18136105599153"><ele>56.0</ele><time>2026-04-17T02:03:43.999Z</time></trkpt><trkpt lat="-24.824262731355233" lon="114.18133883429789"><ele>56.0</ele><time>2026-04-17T02:03:44.999Z</time></trkpt><trkpt lat="-24.82454779192791" lon="114.1813175111662"><ele>56.0</ele><time>2026-04-17T02:03:45.999Z</time></trkpt><trkpt lat="-24.824829836992052" lon="114.18129792026967"><ele>56.0</ele><time>2026-04-17T02:03:46.999Z</time></trkpt><trkpt lat="-24.82511440574629" lon="114.18127956705463"><ele>56.0</ele><time>2026-04-17T02:03:47.999Z</time></trkpt><trkpt lat="-24.82539776047587" lon="114.18126196141492"><ele>54.5</ele><time>2026-04-17T02:03:48.999Z</time></trkpt><trkpt lat="-24.825677268687883" lon="114.1812413037857"><ele>53.0</ele><time>2026-04-17T02:03:49.999Z</time></trkpt><trkpt lat="-24.825957400383697" lon="114.18121958430201"><ele>52.5</ele><time>2026-04-17T02:03:50.999Z</time></trkpt><trkpt lat="-24.826244088236944" lon="114.18119855439977"><ele>52.0</ele><time>2026-04-17T02:03:51.999Z</time></trkpt><trkpt lat="-24.82652615225304" lon="114.18118257874862"><ele>52.0</ele><time>2026-04-17T02:03:52.999Z</time></trkpt><trkpt lat="-24.82679879636693" lon="114.1811694232745"><ele>52.0</ele><time>2026-04-17T02:03:53.999Z</time></trkpt><trkpt lat="-24.827063229419846" lon="114.18116080817985"><ele>52.0</ele><time>2026-04-17T02:03:54.999Z</time></trkpt><trkpt lat="-24.82732308273347" lon="114.18115163295664"><ele>52.0</ele><time>2026-04-17T02:03:55.999Z</time></trkpt><trkpt lat="-24.827590727736354" lon="114.18113136165553"><ele>52.0</ele><time>2026-04-17T02:03:56.999Z</time></trkpt><trkpt lat="-24.827867625233125" lon="114.18109893948146"><ele>52.0</ele><time>2026-04-17T02:03:57.999Z</time></trkpt><trkpt lat="-24.828148262749544" lon="114.18106728849722"><ele>52.0</ele><time>2026-04-17T02:03:58.999Z</time></trkpt><trkpt lat="-24.82843019715517" lon="114.18104074212417"><ele>52.0</ele><time>2026-04-17T02:03:59.999Z</time></trkpt><trkpt lat="-24.828718806340852" lon="114.18102132105537"><ele>51.5</ele><time>2026-04-17T02:04:00.999Z</time></trkpt><trkpt lat="-24.82900934729479" lon="114.18100442294505"><ele>51.0</ele><time>2026-04-17T02:04:01.999Z</time></trkpt><trkpt lat="-24.82929979284042" lon="114.18098466710016"><ele>51.5</ele><time>2026-04-17T02:04:02.999Z</time></trkpt><trkpt lat="-24.829587734152767" lon="114.18096537614241"><ele>52.0</ele><time>2026-04-17T02:04:03.999Z</time></trkpt><trkpt lat="-24.82987419053191" lon="114.18094856745671"><ele>52.0</ele><time>2026-04-17T02:04:04.999Z</time></trkpt><trkpt lat="-24.830155448705092" lon="114.18092889890687"><ele>52.0</ele><time>2026-04-17T02:04:05.999Z</time></trkpt><trkpt lat="-24.83041982774242" lon="114.18090430647246"><ele>52.0</ele><time>2026-04-17T02:04:06.999Z</time></trkpt><trkpt lat="-24.83066703706426" lon="114.18087797482646"><ele>52.0</ele><time>2026-04-17T02:04:07.999Z</time></trkpt><trkpt lat="-24.83090361183938" lon="114.1808586996576"><ele>51.5</ele><time>2026-04-17T02:04:08.999Z</time></trkpt><trkpt lat="-24.831154142849453" lon="114.18084507636402"><ele>51.0</ele><time>2026-04-17T02:04:09.999Z</time></trkpt><trkpt lat="-24.831413520452468" lon="114.18082994847443"><ele>51.0</ele><time>2026-04-17T02:04:10.999Z</time></trkpt><trkpt lat="-24.83167873702217" lon="114.18081251543869"><ele>51.0</ele><time>2026-04-17T02:04:11.999Z</time></trkpt><trkpt lat="-24.83194528056522" lon="114.18079232395046"><ele>51.5</ele><time>2026-04-17T02:04:12.999Z</time></trkpt><trkpt lat="-24.832207596516806" lon="114.18077269559046"><ele>52.0</ele><time>2026-04-17T02:04:13.999Z</time></trkpt><trkpt lat="-24.832473300238906" lon="114.1807575510173"><ele>52.5</ele><time>2026-04-17T02:04:14.999Z</time></trkpt><trkpt lat="-24.832741945820867" lon="114.18075582820703"><ele>53.0</ele><time>2026-04-17T02:04:15.999Z</time></trkpt><trkpt lat="-24.833015169656598" lon="114.18076218359884"><ele>53.0</ele><time>2026-04-17T02:04:16.999Z</time></trkpt><trkpt lat="-24.833299452115053" lon="114.18077236465476"><ele>53.0</ele><time>2026-04-17T02:04:17.999Z</time></trkpt><trkpt lat="-24.833589536103595" lon="114.18078357519762"><ele>53.0</ele><time>2026-04-17T02:04:18.999Z</time></trkpt><trkpt lat="-24.833888864138718" lon="114.18079512831758"><ele>53.0</ele><time>2026-04-17T02:04:19.999Z</time></trkpt><trkpt lat="-24.834177250617014" lon="114.18080341247004"><ele>53.0</ele><time>2026-04-17T02:04:20.999Z</time></trkpt><trkpt lat="-24.83445911488108" lon="114.18080762224854"><ele>53.0</ele><time>2026-04-17T02:04:21.999Z</time></trkpt><trkpt lat="-24.83474408354645" lon="114.18081006992759"><ele>53.0</ele><time>2026-04-17T02:04:22.999Z</time></trkpt><trkpt lat="-24.835030075986186" lon="114.18081342769408"><ele>53.0</ele><time>2026-04-17T02:04:23.999Z</time></trkpt><trkpt lat="-24.835315493801087" lon="114.18082039019276"><ele>54.0</ele><time>2026-04-17T02:04:24.999Z</time></trkpt><trkpt lat="-24.835601579850792" lon="114.1808308141566"><ele>55.0</ele><time>2026-04-17T02:04:25.999Z</time></trkpt><trkpt lat="-24.835884688239044" lon="114.18084283761537"><ele>54.5</ele><time>2026-04-17T02:04:26.999Z</time></trkpt><trkpt lat="-24.836161987666372" lon="114.18085464368922"><ele>54.0</ele><time>2026-04-17T02:04:27.999Z</time></trkpt><trkpt lat="-24.836442178302793" lon="114.18086207933173"><ele>54.0</ele><time>2026-04-17T02:04:28.999Z</time></trkpt><trkpt lat="-24.836718692978014" lon="114.18086583577843"><ele>54.0</ele><time>2026-04-17T02:04:29.999Z</time></trkpt><trkpt lat="-24.83699078633961" lon="114.18086124487607"><ele>53.0</ele><time>2026-04-17T02:04:30.999Z</time></trkpt><trkpt lat="-24.8372692878198" lon="114.18085062893475"><ele>52.0</ele><time>2026-04-17T02:04:31.999Z</time></trkpt><trkpt lat="-24.83754394686246" lon="114.18084715237092"><ele>52.0</ele><time>2026-04-17T02:04:32.999Z</time></trkpt><trkpt lat="-24.83781721761637" lon="114.18085695210215"><ele>52.0</ele><time>2026-04-17T02:04:33.999Z</time></trkpt><trkpt lat="-24.838088532330314" lon="114.18088120201995"><ele>52.0</ele><time>2026-04-17T02:04:34.999Z</time></trkpt><trkpt lat="-24.838358217107796" lon="114.18090374762662"><ele>52.0</ele><time>2026-04-17T02:04:35.999Z</time></trkpt><trkpt lat="-24.83862897557467" lon="114.18091686650943"><ele>52.5</ele><time>2026-04-17T02:04:36.999Z</time></trkpt><trkpt lat="-24.838903181612668" lon="114.18092615194848"><ele>53.0</ele><time>2026-04-17T02:04:37.999Z</time></trkpt><trkpt lat="-24.83917829178383" lon="114.18093477090997"><ele>53.0</ele><time>2026-04-17T02:04:38.999Z</time></trkpt><trkpt lat="-24.839453496437503" lon="114.18094415256859"><ele>53.0</ele><time>2026-04-17T02:04:39.999Z</time></trkpt><trkpt lat="-24.839728242714802" lon="114.180950631965"><ele>53.0</ele><time>2026-04-17T02:04:40.999Z</time></trkpt><trkpt lat="-24.839992887940756" lon="114.18095267604568"><ele>53.0</ele><time>2026-04-17T02:04:41.999Z</time></trkpt><trkpt lat="-24.84024966500572" lon="114.18095584778153"><ele>53.0</ele><time>2026-04-17T02:04:42.999Z</time></trkpt><trkpt lat="-24.840505469761" lon="114.18096521467763"><ele>53.0</ele><time>2026-04-17T02:04:43.999Z</time></trkpt><trkpt lat="-24.840764459732497" lon="114.18097701668947"><ele>53.0</ele><time>2026-04-17T02:04:44.999Z</time></trkpt><trkpt lat="-24.841031798460662" lon="114.1809883047956"><ele>53.0</ele><time>2026-04-17T02:04:45.999Z</time></trkpt><trkpt lat="-24.84130084930734" lon="114.18099529847011"><ele>53.0</ele><time>2026-04-17T02:04:46.999Z</time></trkpt><trkpt lat="-24.841564565551852" lon="114.18100298347613"><ele>53.0</ele><time>2026-04-17T02:04:47.999Z</time></trkpt><trkpt lat="-24.841834039371893" lon="114.18101151517342"><ele>52.0</ele><time>2026-04-17T02:04:48.999Z</time></trkpt><trkpt lat="-24.842098196945944" lon="114.18102094856874"><ele>51.0</ele><time>2026-04-17T02:04:49.999Z</time></trkpt><trkpt lat="-24.842359531788905" lon="114.18103013073353"><ele>51.0</ele><time>2026-04-17T02:04:50.999Z</time></trkpt><trkpt lat="-24.842613247372068" lon="114.18103376176597"><ele>51.0</ele><time>2026-04-17T02:04:51.999Z</time></trkpt><trkpt lat="-24.84285712933735" lon="114.18103787518302"><ele>51.0</ele><time>2026-04-17T02:04:52.999Z</time></trkpt><trkpt lat="-24.84309124233658" lon="114.18104049791144"><ele>51.0</ele><time>2026-04-17T02:04:53.999Z</time></trkpt><trkpt lat="-24.843317484367606" lon="114.18104252482307"><ele>50.33333333333333</ele><time>2026-04-17T02:04:54.999Z</time></trkpt><trkpt lat="-24.843526166827544" lon="114.18103730201058"><ele>49.666666666666664</ele><time>2026-04-17T02:04:55.999Z</time></trkpt><trkpt lat="-24.843727788557608" lon="114.18102557522776"><ele>49.0</ele><time>2026-04-17T02:04:56.999Z</time></trkpt><trkpt lat="-24.84393763658099" lon="114.18102276555774"><ele>49.0</ele><time>2026-04-17T02:04:57.999Z</time></trkpt><trkpt lat="-24.844147319688442" lon="114.18103069956483"><ele>49.0</ele><time>2026-04-17T02:04:58.999Z</time></trkpt><trkpt lat="-24.844365907726434" lon="114.18104971002873"><ele>49.0</ele><time>2026-04-17T02:04:59.999Z</time></trkpt><trkpt lat="-24.844590278380444" lon="114.18107865001411"><ele>49.0</ele><time>2026-04-17T02:05:00.999Z</time></trkpt><trkpt lat="-24.844808252481943" lon="114.18110734621513"><ele>49.0</ele><time>2026-04-17T02:05:01.999Z</time></trkpt><trkpt lat="-24.845021784191108" lon="114.18113478304531"><ele>49.0</ele><time>2026-04-17T02:05:02.999Z</time></trkpt><trkpt lat="-24.84523920618254" lon="114.18116132010424"><ele>49.5</ele><time>2026-04-17T02:05:03.999Z</time></trkpt><trkpt lat="-24.845467433196557" lon="114.18117687429876"><ele>50.0</ele><time>2026-04-17T02:05:04.999Z</time></trkpt><trkpt lat="-24.845689067117142" lon="114.18118101198473"><ele>50.0</ele><time>2026-04-17T02:05:05.999Z</time></trkpt><trkpt lat="-24.84594427234605" lon="114.18118175803528"><ele>50.0</ele><time>2026-04-17T02:05:06.999Z</time></trkpt><trkpt lat="-24.84618443973951" lon="114.18118161648844"><ele>51.0</ele><time>2026-04-17T02:05:07.999Z</time></trkpt><trkpt lat="-24.846445947407197" lon="114.18118432419537"><ele>52.0</ele><time>2026-04-17T02:05:08.999Z</time></trkpt><trkpt lat="-24.846711835146053" lon="114.1811848373692"><ele>52.0</ele><time>2026-04-17T02:05:09.999Z</time></trkpt><trkpt lat="-24.846987952207222" lon="114.18118428835864"><ele>52.0</ele><time>2026-04-17T02:05:10.999Z</time></trkpt><trkpt lat="-24.847256341440684" lon="114.18118760689403"><ele>52.0</ele><time>2026-04-17T02:05:11.999Z</time></trkpt><trkpt lat="-24.84752086060654" lon="114.18119483786673"><ele>52.0</ele><time>2026-04-17T02:05:12.999Z</time></trkpt><trkpt lat="-24.847782614743092" lon="114.18120376287199"><ele>52.5</ele><time>2026-04-17T02:05:13.999Z</time></trkpt><trkpt lat="-24.84804572030092" lon="114.18121221498276"><ele>53.0</ele><time>2026-04-17T02:05:14.999Z</time></trkpt><trkpt lat="-24.848299552600484" lon="114.18121772691795"><ele>53.0</ele><time>2026-04-17T02:05:15.999Z</time></trkpt><trkpt lat="-24.848552227994013" lon="114.18122360465678"><ele>53.0</ele><time>2026-04-17T02:05:16.999Z</time></trkpt><trkpt lat="-24.84880472602371" lon="114.18122927761837"><ele>53.0</ele><time>2026-04-17T02:05:17.999Z</time></trkpt><trkpt lat="-24.849056536801196" lon="114.18123112601347"><ele>53.0</ele><time>2026-04-17T02:05:18.999Z</time></trkpt><trkpt lat="-24.84931461550515" lon="114.18123136569702"><ele>52.0</ele><time>2026-04-17T02:05:19.999Z</time></trkpt><trkpt lat="-24.84958195777847" lon="114.1812365324317"><ele>51.0</ele><time>2026-04-17T02:05:20.999Z</time></trkpt><trkpt lat="-24.849847115116095" lon="114.18124475935659"><ele>51.0</ele><time>2026-04-17T02:05:21.999Z</time></trkpt><trkpt lat="-24.850112004272166" lon="114.18125537190161"><ele>51.0</ele><time>2026-04-17T02:05:22.999Z</time></trkpt><trkpt lat="-24.850375178421785" lon="114.18126814675782"><ele>52.0</ele><time>2026-04-17T02:05:23.999Z</time></trkpt><trkpt lat="-24.85063736618584" lon="114.18128256707556"><ele>53.0</ele><time>2026-04-17T02:05:24.999Z</time></trkpt><trkpt lat="-24.850899959728242" lon="114.18129911542187"><ele>52.5</ele><time>2026-04-17T02:05:25.999Z</time></trkpt><trkpt lat="-24.851163135836803" lon="114.18131237892598"><ele>52.0</ele><time>2026-04-17T02:05:26.999Z</time></trkpt><trkpt lat="-24.85143334793708" lon="114.18132444391826"><ele>52.0</ele><time>2026-04-17T02:05:27.999Z</time></trkpt><trkpt lat="-24.851700307031724" lon="114.18132926322136"><ele>52.0</ele><time>2026-04-17T02:05:28.999Z</time></trkpt><trkpt lat="-24.851972135787488" lon="114.18133669368815"><ele>52.0</ele><time>2026-04-17T02:05:29.999Z</time></trkpt><trkpt lat="-24.852237811722325" lon="114.1813430648107"><ele>52.0</ele><time>2026-04-17T02:05:30.999Z</time></trkpt><trkpt lat="-24.852504617819065" lon="114.18134787589314"><ele>52.0</ele><time>2026-04-17T02:05:31.999Z</time></trkpt><trkpt lat="-24.85277331073401" lon="114.1813557596861"><ele>52.0</ele><time>2026-04-17T02:05:32.999Z</time></trkpt><trkpt lat="-24.853037287476774" lon="114.18136269451152"><ele>52.0</ele><time>2026-04-17T02:05:33.999Z</time></trkpt><trkpt lat="-24.853302982130664" lon="114.18137132671215"><ele>52.0</ele><time>2026-04-17T02:05:34.999Z</time></trkpt><trkpt lat="-24.853568706069606" lon="114.18138059990866"><ele>52.0</ele><time>2026-04-17T02:05:35.999Z</time></trkpt><trkpt lat="-24.85383089850484" lon="114.18138888285677"><ele>52.0</ele><time>2026-04-17T02:05:36.999Z</time></trkpt><trkpt lat="-24.85409643523526" lon="114.18139592311887"><ele>51.5</ele><time>2026-04-17T02:05:37.999Z</time></trkpt><trkpt lat="-24.85436115822039" lon="114.18140243980666"><ele>51.0</ele><time>2026-04-17T02:05:38.999Z</time></trkpt><trkpt lat="-24.854625840542745" lon="114.18140906436597"><ele>51.0</ele><time>2026-04-17T02:05:39.999Z</time></trkpt><trkpt lat="-24.85489090495198" lon="114.18141777366156"><ele>51.0</ele><time>2026-04-17T02:05:40.999Z</time></trkpt><trkpt lat="-24.855157109929618" lon="114.18142633057272"><ele>51.0</ele><time>2026-04-17T02:05:41.999Z</time></trkpt><trkpt lat="-24.855421031305987" lon="114.18143434555601"><ele>51.0</ele><time>2026-04-17T02:05:42.999Z</time></trkpt><trkpt lat="-24.855687566368122" lon="114.18144025455467"><ele>50.5</ele><time>2026-04-17T02:05:43.999Z</time></trkpt><trkpt lat="-24.855959980749343" lon="114.1814430281992"><ele>50.0</ele><time>2026-04-17T02:05:44.999Z</time></trkpt><trkpt lat="-24.856227679460467" lon="114.1814415773196"><ele>50.0</ele><time>2026-04-17T02:05:45.999Z</time></trkpt><trkpt lat="-24.85648891025254" lon="114.18144102584401"><ele>50.0</ele><time>2026-04-17T02:05:46.999Z</time></trkpt><trkpt lat="-24.856759958765203" lon="114.1814460328432"><ele>51.0</ele><time>2026-04-17T02:05:47.999Z</time></trkpt><trkpt lat="-24.857029292144354" lon="114.18145425063432"><ele>52.0</ele><time>2026-04-17T02:05:48.999Z</time></trkpt><trkpt lat="-24.857304086955796" lon="114.18146953374169"><ele>52.0</ele><time>2026-04-17T02:05:49.999Z</time></trkpt><trkpt lat="-24.8575772921526" lon="114.18148501647428"><ele>52.0</ele><time>2026-04-17T02:05:50.999Z</time></trkpt><trkpt lat="-24.85784675690079" lon="114.18149867121537"><ele>52.5</ele><time>2026-04-17T02:05:52Z</time></trkpt><trkpt lat="-24.858113593108225" lon="114.18151339908394"><ele>53.0</ele><time>2026-04-17T02:05:53Z</time></trkpt><trkpt lat="-24.858380223389954" lon="114.18152805654351"><ele>51.5</ele><time>2026-04-17T02:05:54Z</time></trkpt><trkpt lat="-24.858644149812584" lon="114.18154299730135"><ele>50.0</ele><time>2026-04-17T02:05:55Z</time></trkpt><trkpt lat="-24.858907656611034" lon="114.18155397253237"><ele>50.0</ele><time>2026-04-17T02:05:55.999Z</time></trkpt><trkpt lat="-24.859174256261355" lon="114.1815647896866"><ele>50.0</ele><time>2026-04-17T02:05:56.999Z</time></trkpt><trkpt lat="-24.859441698284467" lon="114.18157262104108"><ele>50.0</ele><time>2026-04-17T02:05:57.999Z</time></trkpt><trkpt lat="-24.859711173811036" lon="114.18158199844146"><ele>50.0</ele><time>2026-04-17T02:05:58.999Z</time></trkpt><trkpt lat="-24.85998712757848" lon="114.18159014117585"><ele>51.0</ele><time>2026-04-17T02:05:59.999Z</time></trkpt><trkpt lat="-24.860257617254575" lon="114.18159660371813"><ele>52.0</ele><time>2026-04-17T02:06:00.999Z</time></trkpt><trkpt lat="-24.86052383779265" lon="114.18160119259869"><ele>52.0</ele><time>2026-04-17T02:06:01.999Z</time></trkpt><trkpt lat="-24.860774024244403" lon="114.18160716709285"><ele>52.0</ele><time>2026-04-17T02:06:02.999Z</time></trkpt><trkpt lat="-24.86101855487909" lon="114.18161233426068"><ele>53.5</ele><time>2026-04-17T02:06:03.999Z</time></trkpt><trkpt lat="-24.861252067101002" lon="114.18161957060292"><ele>55.0</ele><time>2026-04-17T02:06:04.999Z</time></trkpt><trkpt lat="-24.861479905974452" lon="114.18163033282124"><ele>55.0</ele><time>2026-04-17T02:06:05.999Z</time></trkpt><trkpt lat="-24.8617123245155" lon="114.18164840722669"><ele>55.0</ele><time>2026-04-17T02:06:06.999Z</time></trkpt><trkpt lat="-24.861953589591728" lon="114.181671343871"><ele>54.0</ele><time>2026-04-17T02:06:07.999Z</time></trkpt><trkpt lat="-24.862200780210202" lon="114.18170453888504"><ele>53.0</ele><time>2026-04-17T02:06:08.999Z</time></trkpt><trkpt lat="-24.862455900756796" lon="114.18174705536086"><ele>53.0</ele><time>2026-04-17T02:06:09.999Z</time></trkpt><trkpt lat="-24.86270908207463" lon="114.18179774229836"><ele>53.0</ele><time>2026-04-17T02:06:10.999Z</time></trkpt><trkpt lat="-24.862949234372678" lon="114.18185847807557"><ele>53.0</ele><time>2026-04-17T02:06:11.999Z</time></trkpt><trkpt lat="-24.86319210611906" lon="114.18193352020546"><ele>53.0</ele><time>2026-04-17T02:06:12.999Z</time></trkpt><trkpt lat="-24.863431321306038" lon="114.1820211845802"><ele>52.5</ele><time>2026-04-17T02:06:13.999Z</time></trkpt><trkpt lat="-24.863675454304328" lon="114.18212359042357"><ele>52.0</ele><time>2026-04-17T02:06:14.999Z</time></trkpt><trkpt lat="-24.86392813004607" lon="114.1822375882204"><ele>51.5</ele><time>2026-04-17T02:06:15.999Z</time></trkpt><trkpt lat="-24.86418287145258" lon="114.18235678589993"><ele>51.0</ele><time>2026-04-17T02:06:16.999Z</time></trkpt><trkpt lat="-24.864434487675666" lon="114.18248051417902"><ele>50.5</ele><time>2026-04-17T02:06:17.999Z</time></trkpt><trkpt lat="-24.864684575843757" lon="114.18260783105264"><ele>50.0</ele><time>2026-04-17T02:06:18.999Z</time></trkpt><trkpt lat="-24.864940725437037" lon="114.18273681947954"><ele>50.0</ele><time>2026-04-17T02:06:19.999Z</time></trkpt><trkpt lat="-24.86519659153141" lon="114.18286286440964"><ele>50.0</ele><time>2026-04-17T02:06:20.999Z</time></trkpt><trkpt lat="-24.865454492986725" lon="114.18299225513945"><ele>50.0</ele><time>2026-04-17T02:06:21.999Z</time></trkpt><trkpt lat="-24.865710732573145" lon="114.1831241681025"><ele>50.0</ele><time>2026-04-17T02:06:22.999Z</time></trkpt><trkpt lat="-24.865965662727206" lon="114.18326000321746"><ele>50.0</ele><time>2026-04-17T02:06:23.999Z</time></trkpt><trkpt lat="-24.866218660163735" lon="114.18339547673108"><ele>50.0</ele><time>2026-04-17T02:06:24.999Z</time></trkpt><trkpt lat="-24.866477885913636" lon="114.1835307053945"><ele>50.0</ele><time>2026-04-17T02:06:25.999Z</time></trkpt><trkpt lat="-24.86674073370559" lon="114.18366366848038"><ele>50.0</ele><time>2026-04-17T02:06:26.999Z</time></trkpt><trkpt lat="-24.867009062708167" lon="114.18379703592161"><ele>50.5</ele><time>2026-04-17T02:06:27.999Z</time></trkpt><trkpt lat="-24.867268123434222" lon="114.18392108343538"><ele>51.0</ele><time>2026-04-17T02:06:28.999Z</time></trkpt><trkpt lat="-24.86753093283153" lon="114.18403808443004"><ele>50.5</ele><time>2026-04-17T02:06:29.999Z</time></trkpt><trkpt lat="-24.867790934062135" lon="114.18416977020519"><ele>50.0</ele><time>2026-04-17T02:06:30.999Z</time></trkpt><trkpt lat="-24.868050480497843" lon="114.1843167462061"><ele>50.0</ele><time>2026-04-17T02:06:31.999Z</time></trkpt><trkpt lat="-24.86830703001636" lon="114.18445854027222"><ele>50.0</ele><time>2026-04-17T02:06:32.999Z</time></trkpt><trkpt lat="-24.86856452967654" lon="114.18459399815826"><ele>49.5</ele><time>2026-04-17T02:06:33.999Z</time></trkpt><trkpt lat="-24.86882406563445" lon="114.18473024392041"><ele>49.0</ele><time>2026-04-17T02:06:34.999Z</time></trkpt><trkpt lat="-24.869085161916306" lon="114.18486861889657"><ele>49.5</ele><time>2026-04-17T02:06:35.999Z</time></trkpt><trkpt lat="-24.869344706271217" lon="114.1850061715238"><ele>50.0</ele><time>2026-04-17T02:06:36.999Z</time></trkpt><trkpt lat="-24.869612045625562" lon="114.18514393597829"><ele>50.0</ele><time>2026-04-17T02:06:37.999Z</time></trkpt><trkpt lat="-24.869881476054022" lon="114.18527751419514"><ele>50.0</ele><time>2026-04-17T02:06:38.999Z</time></trkpt><trkpt lat="-24.870151159351582" lon="114.18540977104553"><ele>50.0</ele><time>2026-04-17T02:06:39.999Z</time></trkpt><trkpt lat="-24.870412054067366" lon="114.18553972743629"><ele>50.0</ele><time>2026-04-17T02:06:40.999Z</time></trkpt><trkpt lat="-24.870673791506555" lon="114.18566948613888"><ele>50.5</ele><time>2026-04-17T02:06:41.999Z</time></trkpt><trkpt lat="-24.870933865452393" lon="114.18580033451742"><ele>51.0</ele><time>2026-04-17T02:06:42.999Z</time></trkpt><trkpt lat="-24.87119167011661" lon="114.18592936671335"><ele>50.0</ele><time>2026-04-17T02:06:43.999Z</time></trkpt><trkpt lat="-24.871445740108697" lon="114.18606238251576"><ele>49.0</ele><time>2026-04-17T02:06:44.999Z</time></trkpt><trkpt lat="-24.871699887079735" lon="114.18619728690278"><ele>48.5</ele><time>2026-04-17T02:06:45.999Z</time></trkpt><trkpt lat="-24.871952263000342" lon="114.18632913878722"><ele>48.0</ele><time>2026-04-17T02:06:46.999Z</time></trkpt><trkpt lat="-24.872208601702198" lon="114.18646059334755"><ele>48.5</ele><time>2026-04-17T02:06:47.999Z</time></trkpt><trkpt lat="-24.87246603302957" lon="114.18659199426938"><ele>49.0</ele><time>2026-04-17T02:06:48.999Z</time></trkpt><trkpt lat="-24.87272056021921" lon="114.18672243373699"><ele>49.0</ele><time>2026-04-17T02:06:49.999Z</time></trkpt><trkpt lat="-24.872975853442263" lon="114.18685461447805"><ele>49.0</ele><time>2026-04-17T02:06:50.999Z</time></trkpt><trkpt lat="-24.873230279327093" lon="114.18698929600933"><ele>50.0</ele><time>2026-04-17T02:06:51.999Z</time></trkpt><trkpt lat="-24.873484291022834" lon="114.18712712068987"><ele>51.0</ele><time>2026-04-17T02:06:52.999Z</time></trkpt><trkpt lat="-24.8737373499373" lon="114.18726285311591"><ele>51.0</ele><time>2026-04-17T02:06:53.999Z</time></trkpt><trkpt lat="-24.87399346165488" lon="114.18739311965423"><ele>51.0</ele><time>2026-04-17T02:06:54.999Z</time></trkpt><trkpt lat="-24.874248295731423" lon="114.18751851627349"><ele>51.5</ele><time>2026-04-17T02:06:55.999Z</time></trkpt><trkpt lat="-24.87450167405737" lon="114.18764460668724"><ele>52.0</ele><time>2026-04-17T02:06:56.999Z</time></trkpt><trkpt lat="-24.874753886457164" lon="114.18777321700207"><ele>52.0</ele><time>2026-04-17T02:06:57.999Z</time></trkpt><trkpt lat="-24.87500473681327" lon="114.1879017223116"><ele>52.0</ele><time>2026-04-17T02:06:58.999Z</time></trkpt><trkpt lat="-24.875252895323094" lon="114.18803039580217"><ele>51.5</ele><time>2026-04-17T02:06:59.999Z</time></trkpt><trkpt lat="-24.875500298136913" lon="114.18815619234452"><ele>51.0</ele><time>2026-04-17T02:07:00.999Z</time></trkpt><trkpt lat="-24.87574917636939" lon="114.18828036968036"><ele>51.0</ele><time>2026-04-17T02:07:01.999Z</time></trkpt><trkpt lat="-24.875998213750837" lon="114.18840201295139"><ele>51.0</ele><time>2026-04-17T02:07:02.999Z</time></trkpt><trkpt lat="-24.876244353257725" lon="114.18852378457447"><ele>51.0</ele><time>2026-04-17T02:07:03.999Z</time></trkpt><trkpt lat="-24.87648940500342" lon="114.18864750659539"><ele>51.0</ele><time>2026-04-17T02:07:04.999Z</time></trkpt><trkpt lat="-24.876719753086327" lon="114.18876776657342"><ele>52.0</ele><time>2026-04-17T02:07:05.999Z</time></trkpt><trkpt lat="-24.876935753028427" lon="114.18888722369263"><ele>53.0</ele><time>2026-04-17T02:07:06.999Z</time></trkpt><trkpt lat="-24.877136829228927" lon="114.18899843357583"><ele>51.0</ele><time>2026-04-17T02:07:07.999Z</time></trkpt><trkpt lat="-24.877337574298938" lon="114.1890998618496"><ele>49.0</ele><time>2026-04-17T02:07:08.999Z</time></trkpt><trkpt lat="-24.87755760383695" lon="114.18920987094288"><ele>50.0</ele><time>2026-04-17T02:07:09.999Z</time></trkpt><trkpt lat="-24.877767268508645" lon="114.1893236393164"><ele>51.0</ele><time>2026-04-17T02:07:10.999Z</time></trkpt><trkpt lat="-24.87797286597939" lon="114.18943267911699"><ele>51.0</ele><time>2026-04-17T02:07:11.999Z</time></trkpt><trkpt lat="-24.878202669432678" lon="114.18955007574549"><ele>51.0</ele><time>2026-04-17T02:07:12.999Z</time></trkpt><trkpt lat="-24.878428199983748" lon="114.18966453738177"><ele>52.0</ele><time>2026-04-17T02:07:13.999Z</time></trkpt><trkpt lat="-24.87865571236134" lon="114.18978136030579"><ele>53.0</ele><time>2026-04-17T02:07:14.999Z</time></trkpt><trkpt lat="-24.878887493050968" lon="114.18990053638322"><ele>51.0</ele><time>2026-04-17T02:07:15.999Z</time></trkpt><trkpt lat="-24.87912323591046" lon="114.19002153869587"><ele>49.0</ele><time>2026-04-17T02:07:16.999Z</time></trkpt><trkpt lat="-24.879361191032753" lon="114.19014309344232"><ele>49.0</ele><time>2026-04-17T02:07:17.999Z</time></trkpt><trkpt lat="-24.87959915436817" lon="114.19026401073653"><ele>49.0</ele><time>2026-04-17T02:07:18.999Z</time></trkpt><trkpt lat="-24.879845280657022" lon="114.19038945427612"><ele>49.0</ele><time>2026-04-17T02:07:19.999Z</time></trkpt><trkpt lat="-24.880088149734245" lon="114.19051058492329"><ele>49.0</ele><time>2026-04-17T02:07:20.999Z</time></trkpt><trkpt lat="-24.880329484404353" lon="114.19063185407505"><ele>50.5</ele><time>2026-04-17T02:07:21.999Z</time></trkpt><trkpt lat="-24.880571532403785" lon="114.19075526543872"><ele>52.0</ele><time>2026-04-17T02:07:22.999Z</time></trkpt><trkpt lat="-24.880814252143033" lon="114.19087634090461"><ele>53.0</ele><time>2026-04-17T02:07:23.999Z</time></trkpt><trkpt lat="-24.881056127804452" lon="114.19099476300129"><ele>54.0</ele><time>2026-04-17T02:07:24.999Z</time></trkpt><trkpt lat="-24.88130143398491" lon="114.19111515783759"><ele>54.0</ele><time>2026-04-17T02:07:25.999Z</time></trkpt><trkpt lat="-24.881546605966943" lon="114.19123882327277"><ele>54.0</ele><time>2026-04-17T02:07:26.999Z</time></trkpt><trkpt lat="-24.88178925268341" lon="114.19136466044945"><ele>53.0</ele><time>2026-04-17T02:07:27.999Z</time></trkpt><trkpt lat="-24.88203343800718" lon="114.19149399781548"><ele>52.0</ele><time>2026-04-17T02:07:28.999Z</time></trkpt><trkpt lat="-24.882276483324066" lon="114.191617298272"><ele>52.0</ele><time>2026-04-17T02:07:29.999Z</time></trkpt><trkpt lat="-24.88251973710407" lon="114.19173830776808"><ele>52.0</ele><time>2026-04-17T02:07:30.999Z</time></trkpt><trkpt lat="-24.88276026468057" lon="114.1918611567081"><ele>52.0</ele><time>2026-04-17T02:07:31.999Z</time></trkpt><trkpt lat="-24.883000056652268" lon="114.19198858855924"><ele>52.0</ele><time>2026-04-17T02:07:32.999Z</time></trkpt><trkpt lat="-24.883240083244154" lon="114.19212124670355"><ele>52.0</ele><time>2026-04-17T02:07:33.999Z</time></trkpt><trkpt lat="-24.883478435973778" lon="114.19225712656167"><ele>52.0</ele><time>2026-04-17T02:07:34.999Z</time></trkpt><trkpt lat="-24.88371766528509" lon="114.19239814810405"><ele>52.0</ele><time>2026-04-17T02:07:35.999Z</time></trkpt><trkpt lat="-24.88395177435578" lon="114.19253941633912"><ele>52.0</ele><time>2026-04-17T02:07:36.999Z</time></trkpt><trkpt lat="-24.884185496900514" lon="114.19268579223305"><ele>51.0</ele><time>2026-04-17T02:07:37.999Z</time></trkpt><trkpt lat="-24.88441517502458" lon="114.19283876634559"><ele>50.0</ele><time>2026-04-17T02:07:38.999Z</time></trkpt><trkpt lat="-24.884640684273165" lon="114.19299631411953"><ele>50.0</ele><time>2026-04-17T02:07:39.999Z</time></trkpt><trkpt lat="-24.88486161417392" lon="114.19315358806564"><ele>50.0</ele><time>2026-04-17T02:07:40.999Z</time></trkpt><trkpt lat="-24.88508491954229" lon="114.1933158512492"><ele>50.5</ele><time>2026-04-17T02:07:41.999Z</time></trkpt><trkpt lat="-24.88529917295647" lon="114.19347729799871"><ele>51.0</ele><time>2026-04-17T02:07:42.999Z</time></trkpt><trkpt lat="-24.88551148822039" lon="114.19365026843596"><ele>51.0</ele><time>2026-04-17T02:07:43.999Z</time></trkpt><trkpt lat="-24.885715457410278" lon="114.1938293470643"><ele>51.0</ele><time>2026-04-17T02:07:44.999Z</time></trkpt><trkpt lat="-24.885924816756237" lon="114.19401852724178"><ele>50.5</ele><time>2026-04-17T02:07:45.999Z</time></trkpt><trkpt lat="-24.886133140040638" lon="114.19420951582327"><ele>50.0</ele><time>2026-04-17T02:07:46.999Z</time></trkpt><trkpt lat="-24.8863380772808" lon="114.19439749367268"><ele>50.0</ele><time>2026-04-17T02:07:47.999Z</time></trkpt><trkpt lat="-24.88654523429719" lon="114.19458962579206"><ele>50.0</ele><time>2026-04-17T02:07:48.999Z</time></trkpt><trkpt lat="-24.886757000678525" lon="114.19478432314443"><ele>50.0</ele><time>2026-04-17T02:07:49.999Z</time></trkpt><trkpt lat="-24.886972256258765" lon="114.19497803389514"><ele>50.0</ele><time>2026-04-17T02:07:50.999Z</time></trkpt><trkpt lat="-24.8871927279676" lon="114.19518126463132"><ele>50.0</ele><time>2026-04-17T02:07:51.999Z</time></trkpt><trkpt lat="-24.88741389543006" lon="114.19538376531749"><ele>50.0</ele><time>2026-04-17T02:07:52.999Z</time></trkpt><trkpt lat="-24.88763759873528" lon="114.19558645288006"><ele>50.5</ele><time>2026-04-17T02:07:53.999Z</time></trkpt><trkpt lat="-24.887861643142458" lon="114.1957886931278"><ele>51.0</ele><time>2026-04-17T02:07:54.999Z</time></trkpt><trkpt lat="-24.888085940254175" lon="114.19598780781654"><ele>51.0</ele><time>2026-04-17T02:07:55.999Z</time></trkpt><trkpt lat="-24.888307540208256" lon="114.19618716988387"><ele>51.0</ele><time>2026-04-17T02:07:56.999Z</time></trkpt><trkpt lat="-24.88853149038559" lon="114.19638851568804"><ele>50.5</ele><time>2026-04-17T02:07:57.999Z</time></trkpt><trkpt lat="-24.888758318728442" lon="114.19659059483583"><ele>50.0</ele><time>2026-04-17T02:07:58.999Z</time></trkpt><trkpt lat="-24.888983949648356" lon="114.19679820597817"><ele>50.0</ele><time>2026-04-17T02:07:59.999Z</time></trkpt><trkpt lat="-24.889209494977223" lon="114.19700148280434"><ele>50.0</ele><time>2026-04-17T02:08:00.999Z</time></trkpt><trkpt lat="-24.88943138860029" lon="114.19720403211933"><ele>51.0</ele><time>2026-04-17T02:08:01.999Z</time></trkpt><trkpt lat="-24.88965854913695" lon="114.19740688699129"><ele>52.0</ele><time>2026-04-17T02:08:02.999Z</time></trkpt><trkpt lat="-24.88988432267671" lon="114.19761131413935"><ele>53.0</ele><time>2026-04-17T02:08:03.999Z</time></trkpt><trkpt lat="-24.89011769731248" lon="114.19782017987896"><ele>54.0</ele><time>2026-04-17T02:08:04.999Z</time></trkpt><trkpt lat="-24.89035179391549" lon="114.19802951097627"><ele>53.5</ele><time>2026-04-17T02:08:05.999Z</time></trkpt><trkpt lat="-24.89058192589792" lon="114.19823897597486"><ele>53.0</ele><time>2026-04-17T02:08:06.999Z</time></trkpt><trkpt lat="-24.890811596392233" lon="114.19844519784913"><ele>53.5</ele><time>2026-04-17T02:08:07.999Z</time></trkpt><trkpt lat="-24.891040420091777" lon="114.19865116131851"><ele>54.0</ele><time>2026-04-17T02:08:08.999Z</time></trkpt><trkpt lat="-24.891271087922075" lon="114.19886020872356"><ele>53.5</ele><time>2026-04-17T02:08:09.999Z</time></trkpt><trkpt lat="-24.89149619048868" lon="114.19906791310709"><ele>53.0</ele><time>2026-04-17T02:08:10.999Z</time></trkpt><trkpt lat="-24.891722292687046" lon="114.1992724501883"><ele>53.0</ele><time>2026-04-17T02:08:11.999Z</time></trkpt><trkpt lat="-24.891945744973256" lon="114.19947583282868"><ele>53.0</ele><time>2026-04-17T02:08:12.999Z</time></trkpt><trkpt lat="-24.892170299424386" lon="114.19967942223954"><ele>52.5</ele><time>2026-04-17T02:08:13.999Z</time></trkpt><trkpt lat="-24.89239021804614" lon="114.19988034145317"><ele>52.0</ele><time>2026-04-17T02:08:14.999Z</time></trkpt><trkpt lat="-24.892613048696795" lon="114.20007796804526"><ele>53.0</ele><time>2026-04-17T02:08:15.999Z</time></trkpt><trkpt lat="-24.892834448999363" lon="114.20027271401752"><ele>54.0</ele><time>2026-04-17T02:08:16.999Z</time></trkpt><trkpt lat="-24.89305513161748" lon="114.20046825745177"><ele>54.0</ele><time>2026-04-17T02:08:17.999Z</time></trkpt><trkpt lat="-24.893269418167552" lon="114.2006616859073"><ele>54.0</ele><time>2026-04-17T02:08:18.999Z</time></trkpt><trkpt lat="-24.893484728565614" lon="114.20085363531503"><ele>53.5</ele><time>2026-04-17T02:08:19.999Z</time></trkpt><trkpt lat="-24.893692649569754" lon="114.20104082320864"><ele>53.0</ele><time>2026-04-17T02:08:20.999Z</time></trkpt><trkpt lat="-24.89389602642838" lon="114.20123078379437"><ele>53.0</ele><time>2026-04-17T02:08:21.999Z</time></trkpt><trkpt lat="-24.894087893293438" lon="114.20141397858492"><ele>53.0</ele><time>2026-04-17T02:08:22.999Z</time></trkpt><trkpt lat="-24.8942711698401" lon="114.20159725434266"><ele>53.0</ele><time>2026-04-17T02:08:23.999Z</time></trkpt><trkpt lat="-24.894442356087787" lon="114.2017861258564"><ele>53.0</ele><time>2026-04-17T02:08:24.999Z</time></trkpt><trkpt lat="-24.894603412086717" lon="114.20198367633878"><ele>53.0</ele><time>2026-04-17T02:08:25.999Z</time></trkpt><trkpt lat="-24.89475674317524" lon="114.20219010374954"><ele>53.0</ele><time>2026-04-17T02:08:26.999Z</time></trkpt><trkpt lat="-24.894905274701316" lon="114.20241150029553"><ele>52.5</ele><time>2026-04-17T02:08:27.999Z</time></trkpt><trkpt lat="-24.89505249296243" lon="114.20264676977679"><ele>52.0</ele><time>2026-04-17T02:08:28.999Z</time></trkpt><trkpt lat="-24.895199085807256" lon="114.2028933954907"><ele>52.0</ele><time>2026-04-17T02:08:29.999Z</time></trkpt><trkpt lat="-24.895348144738847" lon="114.20314834605557"><ele>52.0</ele><time>2026-04-17T02:08:30.999Z</time></trkpt><trkpt lat="-24.895491019963064" lon="114.20340456712348"><ele>51.0</ele><time>2026-04-17T02:08:31.999Z</time></trkpt><trkpt lat="-24.895628727554758" lon="114.20366527807268"><ele>50.0</ele><time>2026-04-17T02:08:32.999Z</time></trkpt><trkpt lat="-24.895771161719225" lon="114.20393108057928"><ele>50.5</ele><time>2026-04-17T02:08:33.999Z</time></trkpt><trkpt lat="-24.895915255743088" lon="114.20419176406823"><ele>51.0</ele><time>2026-04-17T02:08:34.999Z</time></trkpt><trkpt lat="-24.896059473821694" lon="114.20445202285335"><ele>51.5</ele><time>2026-04-17T02:08:35.999Z</time></trkpt><trkpt lat="-24.89620021641212" lon="114.20470840687686"><ele>52.0</ele><time>2026-04-17T02:08:36.999Z</time></trkpt><trkpt lat="-24.896334602895724" lon="114.20496019585484"><ele>52.0</ele><time>2026-04-17T02:08:37.999Z</time></trkpt><trkpt lat="-24.89646392025483" lon="114.2052005527879"><ele>52.0</ele><time>2026-04-17T02:08:38.999Z</time></trkpt><trkpt lat="-24.89659447150964" lon="114.20543345625593"><ele>52.0</ele><time>2026-04-17T02:08:39.999Z</time></trkpt><trkpt lat="-24.896726692233276" lon="114.20566938955383"><ele>52.0</ele><time>2026-04-17T02:08:40.999Z</time></trkpt><trkpt lat="-24.896863571334745" lon="114.20590685037544"><ele>52.0</ele><time>2026-04-17T02:08:41.999Z</time></trkpt><trkpt lat="-24.89700395601945" lon="114.20614826704603"><ele>52.0</ele><time>2026-04-17T02:08:42.999Z</time></trkpt><trkpt lat="-24.89713791647328" lon="114.20639087231605"><ele>52.0</ele><time>2026-04-17T02:08:43.999Z</time></trkpt><trkpt lat="-24.89727193258806" lon="114.2066403397509"><ele>52.0</ele><time>2026-04-17T02:08:44.999Z</time></trkpt><trkpt lat="-24.89740582108305" lon="114.20688892512041"><ele>52.0</ele><time>2026-04-17T02:08:45.999Z</time></trkpt><trkpt lat="-24.897535684595628" lon="114.20712855735715"><ele>52.0</ele><time>2026-04-17T02:08:46.999Z</time></trkpt><trkpt lat="-24.897669221957905" lon="114.20736922874234"><ele>52.0</ele><time>2026-04-17T02:08:47.999Z</time></trkpt><trkpt lat="-24.897803933228" lon="114.2076125626389"><ele>52.0</ele><time>2026-04-17T02:08:48.999Z</time></trkpt><trkpt lat="-24.89793410988925" lon="114.20784922403338"><ele>52.0</ele><time>2026-04-17T02:08:49.999Z</time></trkpt><trkpt lat="-24.898064956223443" lon="114.20808738989699"><ele>52.0</ele><time>2026-04-17T02:08:50.999Z</time></trkpt><trkpt lat="-24.898200090769617" lon="114.20833444992638"><ele>52.0</ele><time>2026-04-17T02:08:51.999Z</time></trkpt><trkpt lat="-24.898336773618908" lon="114.20858583674669"><ele>52.0</ele><time>2026-04-17T02:08:52.999Z</time></trkpt><trkpt lat="-24.89847352055668" lon="114.20883680292434"><ele>51.5</ele><time>2026-04-17T02:08:53.999Z</time></trkpt><trkpt lat="-24.89861098050246" lon="114.20909110302507"><ele>51.0</ele><time>2026-04-17T02:08:54.999Z</time></trkpt><trkpt lat="-24.898749104557705" lon="114.20934633881896"><ele>51.0</ele><time>2026-04-17T02:08:55.999Z</time></trkpt><trkpt lat="-24.898886218777587" lon="114.20960082594299"><ele>51.0</ele><time>2026-04-17T02:08:56.999Z</time></trkpt><trkpt lat="-24.89901609473124" lon="114.2098367592512"><ele>51.0</ele><time>2026-04-17T02:08:57.999Z</time></trkpt><trkpt lat="-24.899138603866042" lon="114.21005995214753"><ele>51.0</ele><time>2026-04-17T02:08:58.999Z</time></trkpt><trkpt lat="-24.89925438448565" lon="114.21027773132282"><ele>51.66666666666667</ele><time>2026-04-17T02:08:59.999Z</time></trkpt><trkpt lat="-24.899366609505574" lon="114.2104901295864"><ele>52.333333333333336</ele><time>2026-04-17T02:09:00.999Z</time></trkpt><trkpt lat="-24.899474345349883" lon="114.21068980551969"><ele>53.0</ele><time>2026-04-17T02:09:01.999Z</time></trkpt><trkpt lat="-24.89958155385272" lon="114.2108837871373"><ele>53.0</ele><time>2026-04-17T02:09:02.999Z</time></trkpt><trkpt lat="-24.899695787495315" lon="114.21108716955231"><ele>53.0</ele><time>2026-04-17T02:09:03.999Z</time></trkpt><trkpt lat="-24.899808651041283" lon="114.21129924886739"><ele>53.0</ele><time>2026-04-17T02:09:04.999Z</time></trkpt><trkpt lat="-24.89993087526521" lon="114.2115171401975"><ele>53.0</ele><time>2026-04-17T02:09:05.999Z</time></trkpt><trkpt lat="-24.90005848101067" lon="114.21174026300984"><ele>53.0</ele><time>2026-04-17T02:09:06.999Z</time></trkpt><trkpt lat="-24.900184947499962" lon="114.21197093388525"><ele>53.0</ele><time>2026-04-17T02:09:07.999Z</time></trkpt><trkpt lat="-24.900310182682702" lon="114.21220669298437"><ele>53.0</ele><time>2026-04-17T02:09:08.999Z</time></trkpt><trkpt lat="-24.900430926635956" lon="114.21243255355077"><ele>53.0</ele><time>2026-04-17T02:09:09.999Z</time></trkpt><trkpt lat="-24.900546011932736" lon="114.21264991180676"><ele>53.0</ele><time>2026-04-17T02:09:10.999Z</time></trkpt><trkpt lat="-24.900661728301614" lon="114.2128698897458"><ele>53.0</ele><time>2026-04-17T02:09:11.999Z</time></trkpt><trkpt lat="-24.90078204853655" lon="114.21308748573975"><ele>53.0</ele><time>2026-04-17T02:09:12.999Z</time></trkpt><trkpt lat="-24.900910093357506" lon="114.21331067971198"><ele>53.5</ele><time>2026-04-17T02:09:13.999Z</time></trkpt><trkpt lat="-24.901045755853204" lon="114.21354030620951"><ele>54.0</ele><time>2026-04-17T02:09:14.999Z</time></trkpt><trkpt lat="-24.90118861611071" lon="114.21377444814006"><ele>54.5</ele><time>2026-04-17T02:09:15.999Z</time></trkpt><trkpt lat="-24.901338873882896" lon="114.21401163731866"><ele>55.0</ele><time>2026-04-17T02:09:16.999Z</time></trkpt><trkpt lat="-24.901491524907204" lon="114.21424922988915"><ele>55.0</ele><time>2026-04-17T02:09:17.999Z</time></trkpt><trkpt lat="-24.90164681470256" lon="114.21447960624376"><ele>55.0</ele><time>2026-04-17T02:09:18.999Z</time></trkpt><trkpt lat="-24.90180411684598" lon="114.21469414544104"><ele>53.5</ele><time>2026-04-17T02:09:19.999Z</time></trkpt><trkpt lat="-24.901964986019717" lon="114.21489139595543"><ele>52.0</ele><time>2026-04-17T02:09:20.999Z</time></trkpt><trkpt lat="-24.90212798230398" lon="114.2150756725404"><ele>52.0</ele><time>2026-04-17T02:09:21.999Z</time></trkpt><trkpt lat="-24.90231400563217" lon="114.21527285490808"><ele>52.0</ele><time>2026-04-17T02:09:22.999Z</time></trkpt><trkpt lat="-24.902502047807534" lon="114.21545633851613"><ele>52.0</ele><time>2026-04-17T02:09:23.999Z</time></trkpt><trkpt lat="-24.90270083587227" lon="114.21564593981128"><ele>52.0</ele><time>2026-04-17T02:09:24.999Z</time></trkpt><trkpt lat="-24.902909916140917" lon="114.21583706670228"><ele>52.0</ele><time>2026-04-17T02:09:25.999Z</time></trkpt><trkpt lat="-24.90312017360887" lon="114.21602658473368"><ele>52.0</ele><time>2026-04-17T02:09:26.999Z</time></trkpt><trkpt lat="-24.903327331677158" lon="114.2162084123929"><ele>52.0</ele><time>2026-04-17T02:09:27.999Z</time></trkpt><trkpt lat="-24.903529016560995" lon="114.21638545936308"><ele>52.0</ele><time>2026-04-17T02:09:28.999Z</time></trkpt><trkpt lat="-24.90373024665567" lon="114.2165676898857"><ele>52.0</ele><time>2026-04-17T02:09:29.999Z</time></trkpt><trkpt lat="-24.903927094873985" lon="114.2167470604756"><ele>52.0</ele><time>2026-04-17T02:09:30.999Z</time></trkpt><trkpt lat="-24.904118515385065" lon="114.21692106252863"><ele>53.0</ele><time>2026-04-17T02:09:31.999Z</time></trkpt><trkpt lat="-24.904293086452046" lon="114.21708544480468"><ele>54.0</ele><time>2026-04-17T02:09:32.999Z</time></trkpt><trkpt lat="-24.904465420344692" lon="114.21724562966155"><ele>54.0</ele><time>2026-04-17T02:09:33.999Z</time></trkpt><trkpt lat="-24.90463218559546" lon="114.21738995096341"><ele>54.0</ele><time>2026-04-17T02:09:34.999Z</time></trkpt><trkpt lat="-24.90480637471636" lon="114.21752199590722"><ele>54.0</ele><time>2026-04-17T02:09:35.999Z</time></trkpt><trkpt lat="-24.90499127847579" lon="114.21764016022206"><ele>54.33333333333333</ele><time>2026-04-17T02:09:36.999Z</time></trkpt><trkpt lat="-24.905184392662004" lon="114.21773906517359"><ele>54.666666666666664</ele><time>2026-04-17T02:09:37.999Z</time></trkpt><trkpt lat="-24.9053851613365" lon="114.21782181705929"><ele>55.0</ele><time>2026-04-17T02:09:38.999Z</time></trkpt><trkpt lat="-24.905607902748812" lon="114.2178922876205"><ele>55.0</ele><time>2026-04-17T02:09:39.999Z</time></trkpt><trkpt lat="-24.90584313895736" lon="114.21795231463007"><ele>55.0</ele><time>2026-04-17T02:09:40.999Z</time></trkpt><trkpt lat="-24.906079204474562" lon="114.21800747702393"><ele>54.5</ele><time>2026-04-17T02:09:41.999Z</time></trkpt><trkpt lat="-24.90630845471584" lon="114.21805493678745"><ele>54.0</ele><time>2026-04-17T02:09:42.999Z</time></trkpt><trkpt lat="-24.906540551620534" lon="114.2181045749869"><ele>54.5</ele><time>2026-04-17T02:09:43.999Z</time></trkpt><trkpt lat="-24.9067712544914" lon="114.21815962627558"><ele>55.0</ele><time>2026-04-17T02:09:44.999Z</time></trkpt><trkpt lat="-24.90699856685035" lon="114.21821611274329"><ele>55.0</ele><time>2026-04-17T02:09:45.999Z</time></trkpt><trkpt lat="-24.90721350390086" lon="114.21826479559812"><ele>55.0</ele><time>2026-04-17T02:09:46.999Z</time></trkpt><trkpt lat="-24.907417980745112" lon="114.21830346667693"><ele>55.0</ele><time>2026-04-17T02:09:47.999Z</time></trkpt><trkpt lat="-24.90762483631681" lon="114.21833528940056"><ele>54.666666666666664</ele><time>2026-04-17T02:09:48.999Z</time></trkpt><trkpt lat="-24.907825469619578" lon="114.21836040706457"><ele>54.33333333333333</ele><time>2026-04-17T02:09:49.999Z</time></trkpt><trkpt lat="-24.908023477812552" lon="114.2183806755837"><ele>54.0</ele><time>2026-04-17T02:09:50.999Z</time></trkpt><trkpt lat="-24.908229628266554" lon="114.21839684114771"><ele>53.66666666666667</ele><time>2026-04-17T02:09:51.999Z</time></trkpt><trkpt lat="-24.90842792247456" lon="114.21841250212229"><ele>53.333333333333336</ele><time>2026-04-17T02:09:52.999Z</time></trkpt><trkpt lat="-24.908621068021112" lon="114.21843238532678"><ele>53.0</ele><time>2026-04-17T02:09:53.999Z</time></trkpt><trkpt lat="-24.9087998137378" lon="114.21845271610981"><ele>53.0</ele><time>2026-04-17T02:09:54.999Z</time></trkpt><trkpt lat="-24.90897898321546" lon="114.21848206229099"><ele>53.0</ele><time>2026-04-17T02:09:55.999Z</time></trkpt><trkpt lat="-24.909158056557157" lon="114.21852015656587"><ele>53.0</ele><time>2026-04-17T02:09:56.999Z</time></trkpt><trkpt lat="-24.90933798440617" lon="114.21856662365"><ele>53.333333333333336</ele><time>2026-04-17T02:09:57.999Z</time></trkpt><trkpt lat="-24.90952103971136" lon="114.21862465687836"><ele>53.66666666666667</ele><time>2026-04-17T02:09:58.999Z</time></trkpt><trkpt lat="-24.90968818689421" lon="114.21869390522752"><ele>54.0</ele><time>2026-04-17T02:09:59.999Z</time></trkpt><trkpt lat="-24.9098486834829" lon="114.21878013226296"><ele>54.0</ele><time>2026-04-17T02:10:00.999Z</time></trkpt><trkpt lat="-24.91000459150787" lon="114.21888739672221"><ele>54.0</ele><time>2026-04-17T02:10:01.999Z</time></trkpt><trkpt lat="-24.910157873428602" lon="114.2190062032891"><ele>54.0</ele><time>2026-04-17T02:10:02.999Z</time></trkpt><trkpt lat="-24.91031149089437" lon="114.21914047098845"><ele>53.66666666666667</ele><time>2026-04-17T02:10:03.999Z</time></trkpt><trkpt lat="-24.91045390902379" lon="114.2192938452079"><ele>53.333333333333336</ele><time>2026-04-17T02:10:04.999Z</time></trkpt><trkpt lat="-24.9105850450275" lon="114.2194722722117"><ele>53.0</ele><time>2026-04-17T02:10:05.999Z</time></trkpt><trkpt lat="-24.910714209881387" lon="114.21966810320443"><ele>53.0</ele><time>2026-04-17T02:10:07Z</time></trkpt><trkpt lat="-24.91084733307191" lon="114.21987821229526"><ele>53.0</ele><time>2026-04-17T02:10:08Z</time></trkpt><trkpt lat="-24.91099056843201" lon="114.2200962068337"><ele>52.0</ele><time>2026-04-17T02:10:09Z</time></trkpt><trkpt lat="-24.911142577615877" lon="114.22032128604295"><ele>51.0</ele><time>2026-04-17T02:10:10Z</time></trkpt><trkpt lat="-24.91129200671633" lon="114.22053680836032"><ele>52.0</ele><time>2026-04-17T02:10:11Z</time></trkpt><trkpt lat="-24.911444506413737" lon="114.22075340220745"><ele>53.0</ele><time>2026-04-17T02:10:12Z</time></trkpt><trkpt lat="-24.91160404341707" lon="114.22097389358629"><ele>53.0</ele><time>2026-04-17T02:10:13Z</time></trkpt><trkpt lat="-24.911762404748664" lon="114.22118821057359"><ele>53.0</ele><time>2026-04-17T02:10:14Z</time></trkpt><trkpt lat="-24.911920585784426" lon="114.22140218915631"><ele>53.0</ele><time>2026-04-17T02:10:15Z</time></trkpt><trkpt lat="-24.91208260731638" lon="114.22161851897579"><ele>53.0</ele><time>2026-04-17T02:10:16Z</time></trkpt><trkpt lat="-24.912247648552142" lon="114.22184206977005"><ele>53.0</ele><time>2026-04-17T02:10:17Z</time></trkpt><trkpt lat="-24.912411091035445" lon="114.22206575229875"><ele>53.0</ele><time>2026-04-17T02:10:18Z</time></trkpt><trkpt lat="-24.912575136380905" lon="114.22228968314364"><ele>53.0</ele><time>2026-04-17T02:10:19Z</time></trkpt><trkpt lat="-24.912735757683123" lon="114.2225122009184"><ele>53.0</ele><time>2026-04-17T02:10:20Z</time></trkpt><trkpt lat="-24.91289700018884" lon="114.22273556320796"><ele>53.0</ele><time>2026-04-17T02:10:21Z</time></trkpt><trkpt lat="-24.913056933794206" lon="114.22295820153141"><ele>53.0</ele><time>2026-04-17T02:10:22Z</time></trkpt><trkpt lat="-24.913217350566082" lon="114.22317833083876"><ele>53.0</ele><time>2026-04-17T02:10:23Z</time></trkpt><trkpt lat="-24.9133781243317" lon="114.22339974578338"><ele>53.0</ele><time>2026-04-17T02:10:24Z</time></trkpt><trkpt lat="-24.91353819244855" lon="114.22362219859178"><ele>53.0</ele><time>2026-04-17T02:10:25Z</time></trkpt><trkpt lat="-24.91369601670147" lon="114.22384198147502"><ele>53.0</ele><time>2026-04-17T02:10:26Z</time></trkpt><trkpt lat="-24.913856869729006" lon="114.22406425438523"><ele>53.0</ele><time>2026-04-17T02:10:27Z</time></trkpt><trkpt lat="-24.914017868487417" lon="114.2242835969065"><ele>53.0</ele><time>2026-04-17T02:10:28Z</time></trkpt><trkpt lat="-24.91417772565351" lon="114.2245046512417"><ele>53.0</ele><time>2026-04-17T02:10:29Z</time></trkpt><trkpt lat="-24.91433396518922" lon="114.22472146735204"><ele>53.0</ele><time>2026-04-17T02:10:30Z</time></trkpt><trkpt lat="-24.914490152274197" lon="114.22493712465317"><ele>53.0</ele><time>2026-04-17T02:10:31Z</time></trkpt><trkpt lat="-24.914642518926822" lon="114.225150457398"><ele>53.0</ele><time>2026-04-17T02:10:32Z</time></trkpt><trkpt lat="-24.91480038363455" lon="114.22536776136317"><ele>53.0</ele><time>2026-04-17T02:10:33Z</time></trkpt><trkpt lat="-24.91495720210516" lon="114.22558703521545"><ele>53.0</ele><time>2026-04-17T02:10:34Z</time></trkpt><trkpt lat="-24.91511731757127" lon="114.22581240079928"><ele>53.0</ele><time>2026-04-17T02:10:35Z</time></trkpt><trkpt lat="-24.915282620255404" lon="114.22603989097038"><ele>53.0</ele><time>2026-04-17T02:10:36Z</time></trkpt><trkpt lat="-24.915448111509825" lon="114.2262668622392"><ele>53.5</ele><time>2026-04-17T02:10:37Z</time></trkpt><trkpt lat="-24.915613369052725" lon="114.22649438903883"><ele>54.0</ele><time>2026-04-17T02:10:38Z</time></trkpt><trkpt lat="-24.9157786244496" lon="114.22671945328955"><ele>53.5</ele><time>2026-04-17T02:10:39Z</time></trkpt><trkpt lat="-24.915941256871694" lon="114.22694384384201"><ele>53.0</ele><time>2026-04-17T02:10:40Z</time></trkpt><trkpt lat="-24.916104958034733" lon="114.2271688100832"><ele>53.0</ele><time>2026-04-17T02:10:41Z</time></trkpt><trkpt lat="-24.916273041557357" lon="114.22740017894175"><ele>53.0</ele><time>2026-04-17T02:10:42Z</time></trkpt><trkpt lat="-24.916437958283254" lon="114.2276297815595"><ele>53.0</ele><time>2026-04-17T02:10:43Z</time></trkpt><trkpt lat="-24.916604519813962" lon="114.22786387760989"><ele>53.0</ele><time>2026-04-17T02:10:44Z</time></trkpt><trkpt lat="-24.916770241586555" lon="114.22809620244969"><ele>53.5</ele><time>2026-04-17T02:10:45Z</time></trkpt><trkpt lat="-24.91693806490928" lon="114.22832943727447"><ele>54.0</ele><time>2026-04-17T02:10:46Z</time></trkpt><trkpt lat="-24.917102453198588" lon="114.22855264246805"><ele>54.0</ele><time>2026-04-17T02:10:47Z</time></trkpt><trkpt lat="-24.91725887942244" lon="114.22876545747249"><ele>54.0</ele><time>2026-04-17T02:10:48Z</time></trkpt><trkpt lat="-24.917413863267665" lon="114.22897697120192"><ele>53.5</ele><time>2026-04-17T02:10:49Z</time></trkpt><trkpt lat="-24.9175645117207" lon="114.22918491506438"><ele>53.0</ele><time>2026-04-17T02:10:50Z</time></trkpt><trkpt lat="-24.917707161649304" lon="114.22938201736828"><ele>53.0</ele><time>2026-04-17T02:10:51Z</time></trkpt><trkpt lat="-24.917852132435453" lon="114.2295873019767"><ele>53.0</ele><time>2026-04-17T02:10:52Z</time></trkpt><trkpt lat="-24.917998999097332" lon="114.22979890440469"><ele>53.5</ele><time>2026-04-17T02:10:53Z</time></trkpt><trkpt lat="-24.918151574163105" lon="114.23001883483192"><ele>54.0</ele><time>2026-04-17T02:10:54Z</time></trkpt><trkpt lat="-24.91831324383777" lon="114.23023583848557"><ele>54.0</ele><time>2026-04-17T02:10:55Z</time></trkpt><trkpt lat="-24.918475913284716" lon="114.23045142069054"><ele>54.0</ele><time>2026-04-17T02:10:56Z</time></trkpt><trkpt lat="-24.918635817137655" lon="114.23066883077777"><ele>54.0</ele><time>2026-04-17T02:10:57Z</time></trkpt><trkpt lat="-24.918797025642696" lon="114.23088502618165"><ele>54.0</ele><time>2026-04-17T02:10:58Z</time></trkpt><trkpt lat="-24.91895930400526" lon="114.2311018975016"><ele>54.0</ele><time>2026-04-17T02:10:59Z</time></trkpt><trkpt lat="-24.919127492840566" lon="114.23132560848504"><ele>54.0</ele><time>2026-04-17T02:11:00Z</time></trkpt><trkpt lat="-24.919286726147085" lon="114.23154301524083"><ele>54.5</ele><time>2026-04-17T02:11:01Z</time></trkpt><trkpt lat="-24.91944620198904" lon="114.23176709444363"><ele>55.0</ele><time>2026-04-17T02:11:02Z</time></trkpt><trkpt lat="-24.91960129417756" lon="114.23199397114243"><ele>55.0</ele><time>2026-04-17T02:11:03Z</time></trkpt><trkpt lat="-24.91975877893791" lon="114.23222335723469"><ele>55.0</ele><time>2026-04-17T02:11:04Z</time></trkpt><trkpt lat="-24.91992100005586" lon="114.23245353874476"><ele>55.5</ele><time>2026-04-17T02:11:05Z</time></trkpt><trkpt lat="-24.92008314564129" lon="114.23267948321397"><ele>56.0</ele><time>2026-04-17T02:11:06Z</time></trkpt><trkpt lat="-24.920247485151968" lon="114.23290405625492"><ele>56.0</ele><time>2026-04-17T02:11:07Z</time></trkpt><trkpt lat="-24.920414002394356" lon="114.23312932955879"><ele>56.0</ele><time>2026-04-17T02:11:08Z</time></trkpt><trkpt lat="-24.920579965488713" lon="114.23335565776512"><ele>55.5</ele><time>2026-04-17T02:11:09Z</time></trkpt><trkpt lat="-24.920745199844507" lon="114.23358337613392"><ele>55.0</ele><time>2026-04-17T02:11:10Z</time></trkpt><trkpt lat="-24.920913844191936" lon="114.23381042498448"><ele>55.0</ele><time>2026-04-17T02:11:11Z</time></trkpt><trkpt lat="-24.921088183585027" lon="114.2340459477194"><ele>55.0</ele><time>2026-04-17T02:11:12Z</time></trkpt><trkpt lat="-24.92126175809665" lon="114.23428748862618"><ele>55.0</ele><time>2026-04-17T02:11:13Z</time></trkpt><trkpt lat="-24.921435088977415" lon="114.23452643782345"><ele>55.0</ele><time>2026-04-17T02:11:14Z</time></trkpt><trkpt lat="-24.92160860002132" lon="114.23476346129804"><ele>54.0</ele><time>2026-04-17T02:11:15Z</time></trkpt><trkpt lat="-24.921778931436922" lon="114.2350006749621"><ele>53.0</ele><time>2026-04-17T02:11:16Z</time></trkpt><trkpt lat="-24.921949061239378" lon="114.23523902595845"><ele>53.0</ele><time>2026-04-17T02:11:17Z</time></trkpt><trkpt lat="-24.922116349055884" lon="114.23547345870361"><ele>53.0</ele><time>2026-04-17T02:11:18Z</time></trkpt><trkpt lat="-24.92228760843288" lon="114.23571196235122"><ele>53.5</ele><time>2026-04-17T02:11:19Z</time></trkpt><trkpt lat="-24.922456970949092" lon="114.2359418205675"><ele>54.0</ele><time>2026-04-17T02:11:20Z</time></trkpt><trkpt lat="-24.922627760128954" lon="114.23617159831987"><ele>54.0</ele><time>2026-04-17T02:11:21Z</time></trkpt><trkpt lat="-24.922788547004807" lon="114.23638761310403"><ele>54.0</ele><time>2026-04-17T02:11:22Z</time></trkpt><trkpt lat="-24.922937047575637" lon="114.23659431877518"><ele>54.5</ele><time>2026-04-17T02:11:23Z</time></trkpt><trkpt lat="-24.923079017492633" lon="114.23679874968893"><ele>55.0</ele><time>2026-04-17T02:11:24Z</time></trkpt><trkpt lat="-24.923217130324662" lon="114.23699564544413"><ele>55.0</ele><time>2026-04-17T02:11:25Z</time></trkpt><trkpt lat="-24.923352738344104" lon="114.23718277359525"><ele>55.0</ele><time>2026-04-17T02:11:26Z</time></trkpt><trkpt lat="-24.923502331949287" lon="114.23737860461276"><ele>55.0</ele><time>2026-04-17T02:11:27Z</time></trkpt><trkpt lat="-24.92365456479268" lon="114.23756022004719"><ele>55.0</ele><time>2026-04-17T02:11:28Z</time></trkpt><trkpt lat="-24.923813443005038" lon="114.2377374421041"><ele>55.0</ele><time>2026-04-17T02:11:29Z</time></trkpt><trkpt lat="-24.923972423038926" lon="114.23790476651321"><ele>55.0</ele><time>2026-04-17T02:11:30Z</time></trkpt><trkpt lat="-24.924129696321227" lon="114.2380536788138"><ele>55.0</ele><time>2026-04-17T02:11:31Z</time></trkpt><trkpt lat="-24.92427854172031" lon="114.2381726046778"><ele>55.0</ele><time>2026-04-17T02:11:32Z</time></trkpt><trkpt lat="-24.924425235328815" lon="114.23827327657675"><ele>55.0</ele><time>2026-04-17T02:11:33Z</time></trkpt><trkpt lat="-24.924585565486666" lon="114.23835995066172"><ele>55.0</ele><time>2026-04-17T02:11:34Z</time></trkpt><trkpt lat="-24.9247508259816" lon="114.23842390057344"><ele>55.0</ele><time>2026-04-17T02:11:35Z</time></trkpt><trkpt lat="-24.92492914914909" lon="114.23846853894854"><ele>55.0</ele><time>2026-04-17T02:11:36Z</time></trkpt><trkpt lat="-24.925119602386424" lon="114.23849555080011"><ele>54.666666666666664</ele><time>2026-04-17T02:11:37Z</time></trkpt><trkpt lat="-24.925323093951082" lon="114.23850465105718"><ele>54.33333333333333</ele><time>2026-04-17T02:11:38Z</time></trkpt><trkpt lat="-24.92554334631499" lon="114.23850090385154"><ele>54.0</ele><time>2026-04-17T02:11:39Z</time></trkpt><trkpt lat="-24.92577170161323" lon="114.23849276976786"><ele>54.0</ele><time>2026-04-17T02:11:40Z</time></trkpt><trkpt lat="-24.92601549151349" lon="114.23848961178662"><ele>54.0</ele><time>2026-04-17T02:11:41Z</time></trkpt><trkpt lat="-24.926269481874264" lon="114.23849226192569"><ele>54.0</ele><time>2026-04-17T02:11:42Z</time></trkpt><trkpt lat="-24.926511819188203" lon="114.2384888625457"><ele>54.0</ele><time>2026-04-17T02:11:43Z</time></trkpt><trkpt lat="-24.926761828306763" lon="114.2384889393327"><ele>53.5</ele><time>2026-04-17T02:11:44Z</time></trkpt><trkpt lat="-24.927016748863014" lon="114.23849061925768"><ele>53.0</ele><time>2026-04-17T02:11:45Z</time></trkpt><trkpt lat="-24.927273663171075" lon="114.23849195043762"><ele>53.0</ele><time>2026-04-17T02:11:46Z</time></trkpt><trkpt lat="-24.92752908165933" lon="114.23849077730638"><ele>53.0</ele><time>2026-04-17T02:11:47Z</time></trkpt><trkpt lat="-24.927788322743563" lon="114.23849121257008"><ele>54.0</ele><time>2026-04-17T02:11:48Z</time></trkpt><trkpt lat="-24.928046825732565" lon="114.23849006194249"><ele>55.0</ele><time>2026-04-17T02:11:49Z</time></trkpt><trkpt lat="-24.928310356731963" lon="114.23848874851765"><ele>55.0</ele><time>2026-04-17T02:11:50Z</time></trkpt><trkpt lat="-24.928575912289944" lon="114.23848749377714"><ele>55.0</ele><time>2026-04-17T02:11:51Z</time></trkpt><trkpt lat="-24.928841022173764" lon="114.23848618494128"><ele>55.0</ele><time>2026-04-17T02:11:52Z</time></trkpt><trkpt lat="-24.929105279216458" lon="114.23848353345826"><ele>55.0</ele><time>2026-04-17T02:11:53Z</time></trkpt><trkpt lat="-24.92936844210038" lon="114.23848429908915"><ele>55.0</ele><time>2026-04-17T02:11:54Z</time></trkpt><trkpt lat="-24.9296268826806" lon="114.2384822703297"><ele>55.0</ele><time>2026-04-17T02:11:55Z</time></trkpt><trkpt lat="-24.929882946996962" lon="114.23847528820718"><ele>55.0</ele><time>2026-04-17T02:11:56Z</time></trkpt><trkpt lat="-24.93014231812035" lon="114.23847111515907"><ele>55.0</ele><time>2026-04-17T02:11:57Z</time></trkpt><trkpt lat="-24.930406157439005" lon="114.23847154680854"><ele>55.0</ele><time>2026-04-17T02:11:58Z</time></trkpt><trkpt lat="-24.93066768848855" lon="114.23847165538832"><ele>55.0</ele><time>2026-04-17T02:11:59Z</time></trkpt><trkpt lat="-24.930927370947227" lon="114.23847249781356"><ele>55.0</ele><time>2026-04-17T02:12:00Z</time></trkpt><trkpt lat="-24.931183609627066" lon="114.2384757901999"><ele>55.0</ele><time>2026-04-17T02:12:01Z</time></trkpt><trkpt lat="-24.93144244534827" lon="114.23847857068442"><ele>55.0</ele><time>2026-04-17T02:12:02Z</time></trkpt><trkpt lat="-24.931699069380237" lon="114.2384789123206"><ele>55.0</ele><time>2026-04-17T02:12:03Z</time></trkpt><trkpt lat="-24.931954995908956" lon="114.23847819815667"><ele>54.5</ele><time>2026-04-17T02:12:04Z</time></trkpt><trkpt lat="-24.93221564797718" lon="114.23847664872999"><ele>54.0</ele><time>2026-04-17T02:12:05Z</time></trkpt><trkpt lat="-24.932477386376526" lon="114.23847712479466"><ele>54.0</ele><time>2026-04-17T02:12:06Z</time></trkpt><trkpt lat="-24.932740569268674" lon="114.23848116676906"><ele>54.0</ele><time>2026-04-17T02:12:07Z</time></trkpt><trkpt lat="-24.93300553325273" lon="114.23848490699359"><ele>54.0</ele><time>2026-04-17T02:12:08Z</time></trkpt><trkpt lat="-24.93326824256035" lon="114.23848804509876"><ele>54.0</ele><time>2026-04-17T02:12:09Z</time></trkpt><trkpt lat="-24.933532115880144" lon="114.23848941445829"><ele>55.0</ele><time>2026-04-17T02:12:10Z</time></trkpt><trkpt lat="-24.933788530448304" lon="114.23849325656849"><ele>56.0</ele><time>2026-04-17T02:12:11Z</time></trkpt><trkpt lat="-24.934043720345368" lon="114.23849799856035"><ele>56.0</ele><time>2026-04-17T02:12:12Z</time></trkpt><trkpt lat="-24.934284089892696" lon="114.23850066594497"><ele>56.0</ele><time>2026-04-17T02:12:13Z</time></trkpt><trkpt lat="-24.934512112221455" lon="114.23850146716026"><ele>56.0</ele><time>2026-04-17T02:12:14Z</time></trkpt><trkpt lat="-24.93472443159261" lon="114.23850013098934"><ele>56.0</ele><time>2026-04-17T02:12:15Z</time></trkpt><trkpt lat="-24.934939882651328" lon="114.23850014036039"><ele>56.0</ele><time>2026-04-17T02:12:16Z</time></trkpt><trkpt lat="-24.93516109977042" lon="114.23850084495794"><ele>56.0</ele><time>2026-04-17T02:12:17Z</time></trkpt><trkpt lat="-24.935388258915854" lon="114.23850138090991"><ele>56.0</ele><time>2026-04-17T02:12:18Z</time></trkpt><trkpt lat="-24.935603477860482" lon="114.23850021041933"><ele>56.0</ele><time>2026-04-17T02:12:19Z</time></trkpt><trkpt lat="-24.935789250355402" lon="114.23850373196107"><ele>55.75</ele><time>2026-04-17T02:12:20Z</time></trkpt><trkpt lat="-24.935944738890854" lon="114.23850535204772"><ele>55.5</ele><time>2026-04-17T02:12:21Z</time></trkpt><trkpt lat="-24.936074122398324" lon="114.23850115710529"><ele>55.25</ele><time>2026-04-17T02:12:22Z</time></trkpt><trkpt lat="-24.936192194883457" lon="114.23849046665904"><ele>55.0</ele><time>2026-04-17T02:12:23Z</time></trkpt><trkpt lat="-24.936306626806097" lon="114.23846479708348"><ele>55.0</ele><time>2026-04-17T02:12:24Z</time></trkpt><trkpt lat="-24.93642101428943" lon="114.2384181738097"><ele>55.0</ele><time>2026-04-17T02:12:25Z</time></trkpt><trkpt lat="-24.936526606780834" lon="114.23835632313178"><ele>55.0</ele><time>2026-04-17T02:12:26Z</time></trkpt><trkpt lat="-24.936618871788408" lon="114.23829170976593"><ele>55.0</ele><time>2026-04-17T02:12:27Z</time></trkpt><trkpt lat="-24.936700148126018" lon="114.23823608108724"><ele>55.0</ele><time>2026-04-17T02:12:28Z</time></trkpt><trkpt lat="-24.936777019204534" lon="114.23819985190109"><ele>55.0</ele><time>2026-04-17T02:12:29Z</time></trkpt><trkpt lat="-24.936863622967685" lon="114.2381818408499"><ele>55.0</ele><time>2026-04-17T02:12:30Z</time></trkpt><trkpt lat="-24.93695638346007" lon="114.23818434139599"><ele>55.0</ele><time>2026-04-17T02:12:31Z</time></trkpt><trkpt lat="-24.937059024183412" lon="114.23820272186964"><ele>55.0</ele><time>2026-04-17T02:12:32Z</time></trkpt><trkpt lat="-24.93717254825865" lon="114.23822620989324"><ele>55.0</ele><time>2026-04-17T02:12:33Z</time></trkpt><trkpt lat="-24.937288995488448" lon="114.23824960222767"><ele>55.0</ele><time>2026-04-17T02:12:34Z</time></trkpt><trkpt lat="-24.937415606291736" lon="114.2382855303494"><ele>55.0</ele><time>2026-04-17T02:12:35Z</time></trkpt><trkpt lat="-24.93754243526554" lon="114.23833612607288"><ele>55.0</ele><time>2026-04-17T02:12:36Z</time></trkpt><trkpt lat="-24.93766486330025" lon="114.23839509801401"><ele>55.0</ele><time>2026-04-17T02:12:37Z</time></trkpt><trkpt lat="-24.937777859203056" lon="114.23844351415983"><ele>55.25</ele><time>2026-04-17T02:12:38Z</time></trkpt><trkpt lat="-24.937894210148432" lon="114.23848809657004"><ele>55.5</ele><time>2026-04-17T02:12:39Z</time></trkpt><trkpt lat="-24.93802203621649" lon="114.23851997296978"><ele>55.75</ele><time>2026-04-17T02:12:40Z</time></trkpt><trkpt lat="-24.93816684988325" lon="114.23853872919604"><ele>56.0</ele><time>2026-04-17T02:12:41Z</time></trkpt><trkpt lat="-24.938325806267525" lon="114.23854717539663"><ele>56.0</ele><time>2026-04-17T02:12:42Z</time></trkpt><trkpt lat="-24.938491154147464" lon="114.23854626910286"><ele>56.0</ele><time>2026-04-17T02:12:43Z</time></trkpt><trkpt lat="-24.938672088892602" lon="114.23853842199787"><ele>56.0</ele><time>2026-04-17T02:12:44Z</time></trkpt><trkpt lat="-24.938872821570378" lon="114.23853097887839"><ele>56.0</ele><time>2026-04-17T02:12:45Z</time></trkpt><trkpt lat="-24.939083829180515" lon="114.23852756474591"><ele>56.0</ele><time>2026-04-17T02:12:46Z</time></trkpt><trkpt lat="-24.939304419326785" lon="114.23852691769612"><ele>56.0</ele><time>2026-04-17T02:12:47Z</time></trkpt><trkpt lat="-24.939536372232613" lon="114.2385248632473"><ele>56.0</ele><time>2026-04-17T02:12:48Z</time></trkpt><trkpt lat="-24.93976210220638" lon="114.23851991344871"><ele>56.0</ele><time>2026-04-17T02:12:49Z</time></trkpt><trkpt lat="-24.939998880845987" lon="114.2385159908021"><ele>56.5</ele><time>2026-04-17T02:12:50Z</time></trkpt><trkpt lat="-24.94024756902168" lon="114.23851508221261"><ele>57.0</ele><time>2026-04-17T02:12:51Z</time></trkpt><trkpt lat="-24.940507151975098" lon="114.23851663947049"><ele>57.0</ele><time>2026-04-17T02:12:52Z</time></trkpt><trkpt lat="-24.940768177470765" lon="114.23851817660996"><ele>57.0</ele><time>2026-04-17T02:12:53Z</time></trkpt><trkpt lat="-24.94102479374086" lon="114.23851605927533"><ele>57.5</ele><time>2026-04-17T02:12:54Z</time></trkpt><trkpt lat="-24.941277164916094" lon="114.23851507231335"><ele>58.0</ele><time>2026-04-17T02:12:55Z</time></trkpt><trkpt lat="-24.94152865610189" lon="114.23851602032414"><ele>58.0</ele><time>2026-04-17T02:12:56Z</time></trkpt><trkpt lat="-24.941767200995542" lon="114.23851403791268"><ele>58.0</ele><time>2026-04-17T02:12:57Z</time></trkpt><trkpt lat="-24.942000417551277" lon="114.23850940539293"><ele>58.0</ele><time>2026-04-17T02:12:58Z</time></trkpt><trkpt lat="-24.94223368520583" lon="114.23850593213024"><ele>58.0</ele><time>2026-04-17T02:12:59Z</time></trkpt><trkpt lat="-24.942460395716115" lon="114.23850925568716"><ele>57.5</ele><time>2026-04-17T02:13:00Z</time></trkpt><trkpt lat="-24.94269378086263" lon="114.23851766665365"><ele>57.0</ele><time>2026-04-17T02:13:01Z</time></trkpt><trkpt lat="-24.942929857056622" lon="114.23852383690448"><ele>57.0</ele><time>2026-04-17T02:13:02Z</time></trkpt><trkpt lat="-24.94317022225345" lon="114.23852368764717"><ele>57.0</ele><time>2026-04-17T02:13:03Z</time></trkpt><trkpt lat="-24.943409603104715" lon="114.2385214196709"><ele>56.0</ele><time>2026-04-17T02:13:04Z</time></trkpt><trkpt lat="-24.943648423246625" lon="114.2385207905942"><ele>55.0</ele><time>2026-04-17T02:13:05Z</time></trkpt><trkpt lat="-24.943889271811745" lon="114.23852228291132"><ele>55.0</ele><time>2026-04-17T02:13:06Z</time></trkpt><trkpt lat="-24.94412947199574" lon="114.23852601513067"><ele>55.0</ele><time>2026-04-17T02:13:07Z</time></trkpt><trkpt lat="-24.944367821500478" lon="114.23852990882827"><ele>56.0</ele><time>2026-04-17T02:13:08Z</time></trkpt><trkpt lat="-24.944609522166537" lon="114.23853235986175"><ele>57.0</ele><time>2026-04-17T02:13:09Z</time></trkpt><trkpt lat="-24.94484881711889" lon="114.2385322126927"><ele>56.5</ele><time>2026-04-17T02:13:10Z</time></trkpt><trkpt lat="-24.945094336533476" lon="114.23853048773746"><ele>56.0</ele><time>2026-04-17T02:13:11Z</time></trkpt><trkpt lat="-24.945339309482193" lon="114.23852822527662"><ele>56.0</ele><time>2026-04-17T02:13:12Z</time></trkpt><trkpt lat="-24.945588243608153" lon="114.23852419472853"><ele>56.0</ele><time>2026-04-17T02:13:13Z</time></trkpt><trkpt lat="-24.94583779490232" lon="114.23852105713331"><ele>56.0</ele><time>2026-04-17T02:13:14Z</time></trkpt><trkpt lat="-24.94608741393397" lon="114.23852217629738"><ele>56.0</ele><time>2026-04-17T02:13:15Z</time></trkpt><trkpt lat="-24.9463393352574" lon="114.23852430407159"><ele>56.0</ele><time>2026-04-17T02:13:16Z</time></trkpt><trkpt lat="-24.946594628240835" lon="114.23852612689899"><ele>56.0</ele><time>2026-04-17T02:13:17Z</time></trkpt><trkpt lat="-24.946847029891806" lon="114.23852418799294"><ele>56.0</ele><time>2026-04-17T02:13:18Z</time></trkpt><trkpt lat="-24.94709717741226" lon="114.23852043895734"><ele>56.0</ele><time>2026-04-17T02:13:19Z</time></trkpt><trkpt lat="-24.94734765119854" lon="114.23851886610124"><ele>56.0</ele><time>2026-04-17T02:13:20Z</time></trkpt><trkpt lat="-24.94759668389635" lon="114.23851981563517"><ele>56.0</ele><time>2026-04-17T02:13:21Z</time></trkpt><trkpt lat="-24.94784486959256" lon="114.23852148487445"><ele>56.0</ele><time>2026-04-17T02:13:22Z</time></trkpt><trkpt lat="-24.948088638766347" lon="114.23852154371946"><ele>56.0</ele><time>2026-04-17T02:13:23Z</time></trkpt><trkpt lat="-24.94833936772499" lon="114.2385195082663"><ele>56.0</ele><time>2026-04-17T02:13:24Z</time></trkpt><trkpt lat="-24.948584715607154" lon="114.2385191410181"><ele>56.0</ele><time>2026-04-17T02:13:25Z</time></trkpt><trkpt lat="-24.948834382191894" lon="114.23852091400404"><ele>56.0</ele><time>2026-04-17T02:13:26Z</time></trkpt><trkpt lat="-24.949079536147753" lon="114.23852202144661"><ele>56.0</ele><time>2026-04-17T02:13:27Z</time></trkpt><trkpt lat="-24.94932752648307" lon="114.23852212463429"><ele>56.5</ele><time>2026-04-17T02:13:28Z</time></trkpt><trkpt lat="-24.94957268693817" lon="114.23852204692888"><ele>57.0</ele><time>2026-04-17T02:13:29Z</time></trkpt><trkpt lat="-24.949819780808493" lon="114.23852309537915"><ele>56.5</ele><time>2026-04-17T02:13:30Z</time></trkpt><trkpt lat="-24.95005998002752" lon="114.2385238901162"><ele>56.0</ele><time>2026-04-17T02:13:31Z</time></trkpt><trkpt lat="-24.95030010576016" lon="114.23852251448434"><ele>56.0</ele><time>2026-04-17T02:13:32Z</time></trkpt><trkpt lat="-24.95054547547111" lon="114.23852388555835"><ele>56.0</ele><time>2026-04-17T02:13:33Z</time></trkpt><trkpt lat="-24.950790954552364" lon="114.23852894139952"><ele>56.5</ele><time>2026-04-17T02:13:34Z</time></trkpt><trkpt lat="-24.95104003582352" lon="114.23853233875623"><ele>57.0</ele><time>2026-04-17T02:13:35Z</time></trkpt><trkpt lat="-24.951286156955927" lon="114.2385359546452"><ele>57.0</ele><time>2026-04-17T02:13:36Z</time></trkpt><trkpt lat="-24.951527084056668" lon="114.2385399385169"><ele>57.0</ele><time>2026-04-17T02:13:37Z</time></trkpt><trkpt lat="-24.951766844949567" lon="114.23854276095138"><ele>56.5</ele><time>2026-04-17T02:13:38Z</time></trkpt><trkpt lat="-24.95200161619742" lon="114.23854550656637"><ele>56.0</ele><time>2026-04-17T02:13:39Z</time></trkpt><trkpt lat="-24.952232502900348" lon="114.2385457149713"><ele>56.0</ele><time>2026-04-17T02:13:40Z</time></trkpt><trkpt lat="-24.952470074162218" lon="114.23854505510452"><ele>56.0</ele><time>2026-04-17T02:13:41Z</time></trkpt><trkpt lat="-24.9527042671367" lon="114.23854082873305"><ele>55.5</ele><time>2026-04-17T02:13:42Z</time></trkpt><trkpt lat="-24.95293654311298" lon="114.23853685797745"><ele>55.0</ele><time>2026-04-17T02:13:43Z</time></trkpt><trkpt lat="-24.953166734150035" lon="114.23853277181759"><ele>55.5</ele><time>2026-04-17T02:13:44Z</time></trkpt><trkpt lat="-24.953399645532162" lon="114.23853174525976"><ele>56.0</ele><time>2026-04-17T02:13:45Z</time></trkpt><trkpt lat="-24.95363082558505" lon="114.23853055710777"><ele>56.0</ele><time>2026-04-17T02:13:46Z</time></trkpt><trkpt lat="-24.95385542299301" lon="114.23852958990324"><ele>56.0</ele><time>2026-04-17T02:13:47Z</time></trkpt><trkpt lat="-24.954079352872657" lon="114.23853060729493"><ele>56.0</ele><time>2026-04-17T02:13:48Z</time></trkpt><trkpt lat="-24.954298899769217" lon="114.23852988196377"><ele>55.66666666666667</ele><time>2026-04-17T02:13:49Z</time></trkpt><trkpt lat="-24.9545165465099" lon="114.2385303725046"><ele>55.33333333333333</ele><time>2026-04-17T02:13:50Z</time></trkpt><trkpt lat="-24.954742476012136" lon="114.23853120972706"><ele>55.0</ele><time>2026-04-17T02:13:51Z</time></trkpt><trkpt lat="-24.9549752489969" lon="114.23853355500054"><ele>54.0</ele><time>2026-04-17T02:13:52Z</time></trkpt><trkpt lat="-24.95520987554614" lon="114.23853053053597"><ele>53.0</ele><time>2026-04-17T02:13:53Z</time></trkpt><trkpt lat="-24.955448508280615" lon="114.23853361890653"><ele>53.0</ele><time>2026-04-17T02:13:54Z</time></trkpt><trkpt lat="-24.955682291983283" lon="114.23853458913"><ele>53.0</ele><time>2026-04-17T02:13:55Z</time></trkpt><trkpt lat="-24.955926037462056" lon="114.23853694339748"><ele>52.5</ele><time>2026-04-17T02:13:56Z</time></trkpt><trkpt lat="-24.95617047339934" lon="114.2385382270061"><ele>52.0</ele><time>2026-04-17T02:13:57Z</time></trkpt><trkpt lat="-24.95641214281751" lon="114.2385381591062"><ele>52.0</ele><time>2026-04-17T02:13:58Z</time></trkpt><trkpt lat="-24.95664972917152" lon="114.23854288617116"><ele>52.0</ele><time>2026-04-17T02:13:59Z</time></trkpt><trkpt lat="-24.956889801069174" lon="114.23854892655343"><ele>52.0</ele><time>2026-04-17T02:14:00Z</time></trkpt><trkpt lat="-24.957125807680267" lon="114.23855026215872"><ele>52.0</ele><time>2026-04-17T02:14:01Z</time></trkpt><trkpt lat="-24.95736942127775" lon="114.23854809334667"><ele>52.5</ele><time>2026-04-17T02:14:02Z</time></trkpt><trkpt lat="-24.95760621591816" lon="114.23854045634215"><ele>53.0</ele><time>2026-04-17T02:14:03Z</time></trkpt><trkpt lat="-24.957846151163928" lon="114.23853238172033"><ele>53.0</ele><time>2026-04-17T02:14:04Z</time></trkpt><trkpt lat="-24.95809165700288" lon="114.23852944925076"><ele>53.0</ele><time>2026-04-17T02:14:05Z</time></trkpt><trkpt lat="-24.95833590500095" lon="114.23853126924743"><ele>53.0</ele><time>2026-04-17T02:14:06Z</time></trkpt><trkpt lat="-24.95857027172871" lon="114.23853040989695"><ele>53.0</ele><time>2026-04-17T02:14:07Z</time></trkpt><trkpt lat="-24.958816685905308" lon="114.23852552672247"><ele>53.0</ele><time>2026-04-17T02:14:08Z</time></trkpt><trkpt lat="-24.959060543792095" lon="114.23851681667713"><ele>53.0</ele><time>2026-04-17T02:14:09Z</time></trkpt><trkpt lat="-24.95930901460162" lon="114.23851220858025"><ele>53.5</ele><time>2026-04-17T02:14:10Z</time></trkpt><trkpt lat="-24.959555342127533" lon="114.23850764839194"><ele>54.0</ele><time>2026-04-17T02:14:11Z</time></trkpt><trkpt lat="-24.95980315435024" lon="114.23850594566137"><ele>53.5</ele><time>2026-04-17T02:14:12Z</time></trkpt><trkpt lat="-24.960049700197768" lon="114.23850392819031"><ele>53.0</ele><time>2026-04-17T02:14:13Z</time></trkpt><trkpt lat="-24.96030061685016" lon="114.23850259683617"><ele>53.0</ele><time>2026-04-17T02:14:14Z</time></trkpt><trkpt lat="-24.960556280675988" lon="114.2385037788166"><ele>53.0</ele><time>2026-04-17T02:14:15Z</time></trkpt><trkpt lat="-24.960807927318363" lon="114.23850507783423"><ele>54.0</ele><time>2026-04-17T02:14:16Z</time></trkpt><trkpt lat="-24.961065435545912" lon="114.23850681822009"><ele>55.0</ele><time>2026-04-17T02:14:17Z</time></trkpt><trkpt lat="-24.961327542044785" lon="114.23850603697134"><ele>55.0</ele><time>2026-04-17T02:14:18Z</time></trkpt><trkpt lat="-24.96158303453225" lon="114.23850482969549"><ele>55.0</ele><time>2026-04-17T02:14:19Z</time></trkpt><trkpt lat="-24.961840906696" lon="114.23850219787073"><ele>53.5</ele><time>2026-04-17T02:14:20Z</time></trkpt><trkpt lat="-24.962093892504452" lon="114.23850173616535"><ele>52.0</ele><time>2026-04-17T02:14:21Z</time></trkpt><trkpt lat="-24.962349106173118" lon="114.23850367610743"><ele>52.5</ele><time>2026-04-17T02:14:22Z</time></trkpt><trkpt lat="-24.962603563889527" lon="114.23850490560224"><ele>53.0</ele><time>2026-04-17T02:14:23Z</time></trkpt><trkpt lat="-24.962851867424558" lon="114.23850423891683"><ele>53.0</ele><time>2026-04-17T02:14:24Z</time></trkpt><trkpt lat="-24.96310333131562" lon="114.23850199595016"><ele>53.0</ele><time>2026-04-17T02:14:25Z</time></trkpt><trkpt lat="-24.96335664379612" lon="114.23849933782107"><ele>53.5</ele><time>2026-04-17T02:14:26Z</time></trkpt><trkpt lat="-24.963604514581373" lon="114.23849385820425"><ele>54.0</ele><time>2026-04-17T02:14:27Z</time></trkpt><trkpt lat="-24.963849375421223" lon="114.23849169592535"><ele>54.0</ele><time>2026-04-17T02:14:28Z</time></trkpt><trkpt lat="-24.964094321677393" lon="114.23849627342405"><ele>54.0</ele><time>2026-04-17T02:14:29Z</time></trkpt><trkpt lat="-24.96434321310825" lon="114.23850366070423"><ele>53.0</ele><time>2026-04-17T02:14:30Z</time></trkpt><trkpt lat="-24.96458832550866" lon="114.23850956393999"><ele>52.0</ele><time>2026-04-17T02:14:31Z</time></trkpt><trkpt lat="-24.96484018942662" lon="114.23850827431706"><ele>52.0</ele><time>2026-04-17T02:14:32Z</time></trkpt><trkpt lat="-24.965091255963966" lon="114.23850756741129"><ele>52.0</ele><time>2026-04-17T02:14:33Z</time></trkpt><trkpt lat="-24.965334611122902" lon="114.23851190075726"><ele>52.0</ele><time>2026-04-17T02:14:34Z</time></trkpt><trkpt lat="-24.965572211114377" lon="114.2385166809267"><ele>52.0</ele><time>2026-04-17T02:14:35Z</time></trkpt><trkpt lat="-24.965799440625076" lon="114.23851642200295"><ele>52.0</ele><time>2026-04-17T02:14:36Z</time></trkpt><trkpt lat="-24.966021717889415" lon="114.23851123527946"><ele>52.0</ele><time>2026-04-17T02:14:37Z</time></trkpt><trkpt lat="-24.966249593181765" lon="114.23850955518098"><ele>52.0</ele><time>2026-04-17T02:14:38Z</time></trkpt><trkpt lat="-24.96649409061133" lon="114.23851285167034"><ele>52.0</ele><time>2026-04-17T02:14:39Z</time></trkpt><trkpt lat="-24.96673870676372" lon="114.23851604448869"><ele>53.0</ele><time>2026-04-17T02:14:40Z</time></trkpt><trkpt lat="-24.966988608501254" lon="114.23852015536569"><ele>54.0</ele><time>2026-04-17T02:14:41Z</time></trkpt><trkpt lat="-24.96723977064997" lon="114.23852306338466"><ele>54.0</ele><time>2026-04-17T02:14:42Z</time></trkpt><trkpt lat="-24.967490027415735" lon="114.23852314770976"><ele>54.0</ele><time>2026-04-17T02:14:43Z</time></trkpt><trkpt lat="-24.967741009189723" lon="114.23852421569669"><ele>53.5</ele><time>2026-04-17T02:14:44Z</time></trkpt><trkpt lat="-24.96799206616833" lon="114.23852473413973"><ele>53.0</ele><time>2026-04-17T02:14:45Z</time></trkpt><trkpt lat="-24.9682465154907" lon="114.23852430311747"><ele>53.0</ele><time>2026-04-17T02:14:46Z</time></trkpt><trkpt lat="-24.968501661569075" lon="114.23851776289659"><ele>53.0</ele><time>2026-04-17T02:14:47Z</time></trkpt><trkpt lat="-24.968752910656146" lon="114.23851128531383"><ele>53.0</ele><time>2026-04-17T02:14:48Z</time></trkpt><trkpt lat="-24.969010239373972" lon="114.23850351739155"><ele>53.0</ele><time>2026-04-17T02:14:49Z</time></trkpt><trkpt lat="-24.96927126657676" lon="114.23849612646057"><ele>53.0</ele><time>2026-04-17T02:14:50Z</time></trkpt><trkpt lat="-24.969533312720557" lon="114.23849820421806"><ele>53.0</ele><time>2026-04-17T02:14:51Z</time></trkpt><trkpt lat="-24.969797557788116" lon="114.23850276318845"><ele>53.0</ele><time>2026-04-17T02:14:52Z</time></trkpt><trkpt lat="-24.970062153816954" lon="114.23850782852213"><ele>53.0</ele><time>2026-04-17T02:14:53Z</time></trkpt><trkpt lat="-24.970321480925517" lon="114.23851414391059"><ele>53.0</ele><time>2026-04-17T02:14:54Z</time></trkpt><trkpt lat="-24.970584118357756" lon="114.2385168881664"><ele>53.0</ele><time>2026-04-17T02:14:55Z</time></trkpt><trkpt lat="-24.97084427825176" lon="114.23851918979595"><ele>52.5</ele><time>2026-04-17T02:14:56Z</time></trkpt><trkpt lat="-24.97110370928317" lon="114.23852274227525"><ele>52.0</ele><time>2026-04-17T02:14:57Z</time></trkpt><trkpt lat="-24.97136263706406" lon="114.23852710801062"><ele>52.0</ele><time>2026-04-17T02:14:58Z</time></trkpt><trkpt lat="-24.971621652622858" lon="114.23852948019307"><ele>52.0</ele><time>2026-04-17T02:14:59Z</time></trkpt><trkpt lat="-24.971885007833063" lon="114.23852601590296"><ele>52.0</ele><time>2026-04-17T02:15:00Z</time></trkpt><trkpt lat="-24.972136936784636" lon="114.23851866322849"><ele>52.0</ele><time>2026-04-17T02:15:01Z</time></trkpt><trkpt lat="-24.97239963709927" lon="114.23850530944998"><ele>52.0</ele><time>2026-04-17T02:15:02Z</time></trkpt><trkpt lat="-24.97264248217891" lon="114.23850069988944"><ele>52.0</ele><time>2026-04-17T02:15:03Z</time></trkpt><trkpt lat="-24.972864353187163" lon="114.23850371824682"><ele>52.0</ele><time>2026-04-17T02:15:04Z</time></trkpt><trkpt lat="-24.97307605990062" lon="114.2385216856478"><ele>52.0</ele><time>2026-04-17T02:15:05Z</time></trkpt><trkpt lat="-24.973294430957594" lon="114.23854592984081"><ele>52.0</ele><time>2026-04-17T02:15:06Z</time></trkpt><trkpt lat="-24.973498504501816" lon="114.23855361702863"><ele>52.0</ele><time>2026-04-17T02:15:07Z</time></trkpt><trkpt lat="-24.973727451907262" lon="114.2385391583842"><ele>52.0</ele><time>2026-04-17T02:15:08Z</time></trkpt><trkpt lat="-24.97396086480178" lon="114.23851602277736"><ele>52.0</ele><time>2026-04-17T02:15:09Z</time></trkpt><trkpt lat="-24.974194002789556" lon="114.23849426248213"><ele>52.0</ele><time>2026-04-17T02:15:10Z</time></trkpt><trkpt lat="-24.974447703684945" lon="114.23848074565286"><ele>52.0</ele><time>2026-04-17T02:15:11Z</time></trkpt><trkpt lat="-24.974697382542832" lon="114.23848532405576"><ele>52.0</ele><time>2026-04-17T02:15:12Z</time></trkpt><trkpt lat="-24.97495156279809" lon="114.23849473800875"><ele>51.5</ele><time>2026-04-17T02:15:13Z</time></trkpt><trkpt lat="-24.97520679132977" lon="114.23849963112008"><ele>51.0</ele><time>2026-04-17T02:15:14Z</time></trkpt><trkpt lat="-24.975466390463627" lon="114.23850336085786"><ele>51.0</ele><time>2026-04-17T02:15:15Z</time></trkpt><trkpt lat="-24.975723459974763" lon="114.23850302686883"><ele>51.0</ele><time>2026-04-17T02:15:16Z</time></trkpt><trkpt lat="-24.975985544444146" lon="114.23849909049774"><ele>51.5</ele><time>2026-04-17T02:15:17Z</time></trkpt><trkpt lat="-24.976245308008192" lon="114.23849262628625"><ele>52.0</ele><time>2026-04-17T02:15:18Z</time></trkpt><trkpt lat="-24.976509566811828" lon="114.23848739948127"><ele>52.0</ele><time>2026-04-17T02:15:19Z</time></trkpt><trkpt lat="-24.97677054782526" lon="114.23848758101347"><ele>52.0</ele><time>2026-04-17T02:15:20Z</time></trkpt><trkpt lat="-24.97703283054665" lon="114.23848899388604"><ele>52.0</ele><time>2026-04-17T02:15:21Z</time></trkpt><trkpt lat="-24.97729700183015" lon="114.2384906861849"><ele>52.0</ele><time>2026-04-17T02:15:22Z</time></trkpt><trkpt lat="-24.977560704662388" lon="114.2384919994324"><ele>52.0</ele><time>2026-04-17T02:15:23Z</time></trkpt><trkpt lat="-24.977818185688378" lon="114.23849258342457"><ele>52.0</ele><time>2026-04-17T02:15:24Z</time></trkpt><trkpt lat="-24.978069934222745" lon="114.23848975736239"><ele>52.0</ele><time>2026-04-17T02:15:25Z</time></trkpt><trkpt lat="-24.978316566121443" lon="114.23848695370798"><ele>52.0</ele><time>2026-04-17T02:15:26Z</time></trkpt><trkpt lat="-24.978566383516497" lon="114.23848475529958"><ele>52.5</ele><time>2026-04-17T02:15:27Z</time></trkpt><trkpt lat="-24.97881828691218" lon="114.23848380521603"><ele>53.0</ele><time>2026-04-17T02:15:28Z</time></trkpt><trkpt lat="-24.979068312409225" lon="114.23848135839798"><ele>53.0</ele><time>2026-04-17T02:15:29Z</time></trkpt><trkpt lat="-24.979317001525036" lon="114.23847722160035"><ele>53.0</ele><time>2026-04-17T02:15:30Z</time></trkpt><trkpt lat="-24.97956603080655" lon="114.23847226800063"><ele>53.0</ele><time>2026-04-17T02:15:31Z</time></trkpt><trkpt lat="-24.97981722453465" lon="114.2384694160941"><ele>53.0</ele><time>2026-04-17T02:15:32Z</time></trkpt><trkpt lat="-24.98006985062431" lon="114.23847213574518"><ele>52.5</ele><time>2026-04-17T02:15:33Z</time></trkpt><trkpt lat="-24.980325163318792" lon="114.2384776681089"><ele>52.0</ele><time>2026-04-17T02:15:34Z</time></trkpt><trkpt lat="-24.980579858212778" lon="114.23848192813819"><ele>52.0</ele><time>2026-04-17T02:15:35Z</time></trkpt><trkpt lat="-24.9808355190914" lon="114.23848426525107"><ele>52.0</ele><time>2026-04-17T02:15:36Z</time></trkpt><trkpt lat="-24.981098372203025" lon="114.23848506298981"><ele>52.0</ele><time>2026-04-17T02:15:37Z</time></trkpt><trkpt lat="-24.981357396978204" lon="114.23848492567056"><ele>52.0</ele><time>2026-04-17T02:15:38Z</time></trkpt><trkpt lat="-24.981619378231116" lon="114.23848309958257"><ele>52.0</ele><time>2026-04-17T02:15:39Z</time></trkpt><trkpt lat="-24.98187768544502" lon="114.2384812723145"><ele>52.0</ele><time>2026-04-17T02:15:40Z</time></trkpt><trkpt lat="-24.982142133953747" lon="114.2384759210919"><ele>52.0</ele><time>2026-04-17T02:15:41Z</time></trkpt><trkpt lat="-24.98240807946922" lon="114.23847109587324"><ele>52.0</ele><time>2026-04-17T02:15:42Z</time></trkpt><trkpt lat="-24.98267397754916" lon="114.23846856810897"><ele>52.0</ele><time>2026-04-17T02:15:43Z</time></trkpt><trkpt lat="-24.982944497863883" lon="114.23846718013347"><ele>52.0</ele><time>2026-04-17T02:15:44Z</time></trkpt><trkpt lat="-24.98319926238709" lon="114.23846809912074"><ele>52.0</ele><time>2026-04-17T02:15:45Z</time></trkpt><trkpt lat="-24.98345706037732" lon="114.23846991306978"><ele>52.0</ele><time>2026-04-17T02:15:46Z</time></trkpt><trkpt lat="-24.983711202321086" lon="114.23846771944567"><ele>52.0</ele><time>2026-04-17T02:15:47Z</time></trkpt><trkpt lat="-24.983962715636356" lon="114.23846253185944"><ele>52.0</ele><time>2026-04-17T02:15:48Z</time></trkpt><trkpt lat="-24.984217552415068" lon="114.23845888519844"><ele>51.5</ele><time>2026-04-17T02:15:49Z</time></trkpt><trkpt lat="-24.984467704052783" lon="114.23846074104355"><ele>51.0</ele><time>2026-04-17T02:15:50Z</time></trkpt><trkpt lat="-24.98472343114295" lon="114.23846218571889"><ele>51.0</ele><time>2026-04-17T02:15:51Z</time></trkpt><trkpt lat="-24.98497533632425" lon="114.2384636814251"><ele>51.0</ele><time>2026-04-17T02:15:52Z</time></trkpt><trkpt lat="-24.985222170396653" lon="114.23846590077244"><ele>52.0</ele><time>2026-04-17T02:15:53Z</time></trkpt><trkpt lat="-24.985472874288337" lon="114.23846380014749"><ele>53.0</ele><time>2026-04-17T02:15:54Z</time></trkpt><trkpt lat="-24.985729910483112" lon="114.23846112408731"><ele>53.0</ele><time>2026-04-17T02:15:55Z</time></trkpt><trkpt lat="-24.985981135565105" lon="114.23846219223432"><ele>53.0</ele><time>2026-04-17T02:15:56Z</time></trkpt><trkpt lat="-24.98623476222638" lon="114.23846401212214"><ele>53.0</ele><time>2026-04-17T02:15:57Z</time></trkpt><trkpt lat="-24.986488957118393" lon="114.23846070606804"><ele>53.0</ele><time>2026-04-17T02:15:58Z</time></trkpt><trkpt lat="-24.986747962305127" lon="114.23845581408513"><ele>52.5</ele><time>2026-04-17T02:15:59Z</time></trkpt><trkpt lat="-24.98700166344858" lon="114.23845209331684"><ele>52.0</ele><time>2026-04-17T02:16:00Z</time></trkpt><trkpt lat="-24.987257838918485" lon="114.23845057742251"><ele>53.0</ele><time>2026-04-17T02:16:01Z</time></trkpt><trkpt lat="-24.987512550189667" lon="114.23845010763215"><ele>54.0</ele><time>2026-04-17T02:16:02Z</time></trkpt><trkpt lat="-24.98777344111841" lon="114.2384506874036"><ele>54.0</ele><time>2026-04-17T02:16:03Z</time></trkpt><trkpt lat="-24.988029644792555" lon="114.23844895814166"><ele>54.0</ele><time>2026-04-17T02:16:04Z</time></trkpt><trkpt lat="-24.98828657574108" lon="114.2384464502645"><ele>54.0</ele><time>2026-04-17T02:16:05Z</time></trkpt><trkpt lat="-24.988545207473678" lon="114.23844463544998"><ele>54.0</ele><time>2026-04-17T02:16:06Z</time></trkpt><trkpt lat="-24.988803027799523" lon="114.23844228135188"><ele>54.0</ele><time>2026-04-17T02:16:07Z</time></trkpt><trkpt lat="-24.989061111953195" lon="114.2384430525972"><ele>54.0</ele><time>2026-04-17T02:16:08Z</time></trkpt><trkpt lat="-24.989326203743367" lon="114.23844450871358"><ele>53.5</ele><time>2026-04-17T02:16:09Z</time></trkpt><trkpt lat="-24.989592740210437" lon="114.23844641121052"><ele>53.0</ele><time>2026-04-17T02:16:10Z</time></trkpt><trkpt lat="-24.989854508600146" lon="114.23844718383312"><ele>53.0</ele><time>2026-04-17T02:16:11Z</time></trkpt><trkpt lat="-24.990117061389117" lon="114.2384480372265"><ele>53.0</ele><time>2026-04-17T02:16:12Z</time></trkpt><trkpt lat="-24.990377082448738" lon="114.23845142600807"><ele>53.0</ele><time>2026-04-17T02:16:13Z</time></trkpt><trkpt lat="-24.99063905516967" lon="114.23845361838048"><ele>53.0</ele><time>2026-04-17T02:16:14Z</time></trkpt><trkpt lat="-24.99090150689954" lon="114.23845361550423"><ele>54.0</ele><time>2026-04-17T02:16:15Z</time></trkpt><trkpt lat="-24.991158218445705" lon="114.2384514444834"><ele>55.0</ele><time>2026-04-17T02:16:16Z</time></trkpt><trkpt lat="-24.99140909802698" lon="114.23844722723305"><ele>55.0</ele><time>2026-04-17T02:16:17Z</time></trkpt><trkpt lat="-24.99164618295255" lon="114.23843833119822"><ele>55.0</ele><time>2026-04-17T02:16:18Z</time></trkpt><trkpt lat="-24.991871385804593" lon="114.23842055132927"><ele>54.33333333333333</ele><time>2026-04-17T02:16:19Z</time></trkpt><trkpt lat="-24.992081400378563" lon="114.23838675231846"><ele>53.66666666666667</ele><time>2026-04-17T02:16:20Z</time></trkpt><trkpt lat="-24.99229376706359" lon="114.23833430193353"><ele>53.0</ele><time>2026-04-17T02:16:21Z</time></trkpt><trkpt lat="-24.992505941141083" lon="114.23825897321667"><ele>53.0</ele><time>2026-04-17T02:16:22Z</time></trkpt><trkpt lat="-24.992718988940087" lon="114.23816277148323"><ele>53.0</ele><time>2026-04-17T02:16:23Z</time></trkpt><trkpt lat="-24.99292165435573" lon="114.23806312326236"><ele>52.333333333333336</ele><time>2026-04-17T02:16:24Z</time></trkpt><trkpt lat="-24.993115708451683" lon="114.23797504161561"><ele>51.66666666666667</ele><time>2026-04-17T02:16:25Z</time></trkpt><trkpt lat="-24.993305577085074" lon="114.23789500081968"><ele>51.0</ele><time>2026-04-17T02:16:26Z</time></trkpt><trkpt lat="-24.993485328970618" lon="114.23781981476608"><ele>51.0</ele><time>2026-04-17T02:16:27Z</time></trkpt><trkpt lat="-24.99364408072546" lon="114.23775307043769"><ele>51.0</ele><time>2026-04-17T02:16:28Z</time></trkpt><trkpt lat="-24.993778736773393" lon="114.23769013122038"><ele>51.0</ele><time>2026-04-17T02:16:29Z</time></trkpt><trkpt lat="-24.993906284288503" lon="114.23761619988798"><ele>51.0</ele><time>2026-04-17T02:16:30Z</time></trkpt><trkpt lat="-24.994030171158435" lon="114.23751899023621"><ele>51.0</ele><time>2026-04-17T02:16:31Z</time></trkpt><trkpt lat="-24.994149162934182" lon="114.2373981494786"><ele>51.0</ele><time>2026-04-17T02:16:32Z</time></trkpt><trkpt lat="-24.994264490966277" lon="114.23728086489899"><ele>51.5</ele><time>2026-04-17T02:16:33Z</time></trkpt><trkpt lat="-24.994377526776653" lon="114.23718052250818"><ele>52.0</ele><time>2026-04-17T02:16:34Z</time></trkpt><trkpt lat="-24.994496790728373" lon="114.23709778782087"><ele>52.5</ele><time>2026-04-17T02:16:35Z</time></trkpt><trkpt lat="-24.994611095743817" lon="114.23704329808986"><ele>53.0</ele><time>2026-04-17T02:16:36Z</time></trkpt><trkpt lat="-24.994731134756634" lon="114.2370108683089"><ele>53.0</ele><time>2026-04-17T02:16:37Z</time></trkpt><trkpt lat="-24.994853393153804" lon="114.23700295709193"><ele>53.0</ele><time>2026-04-17T02:16:38Z</time></trkpt><trkpt lat="-24.99497098133605" lon="114.23701674232748"><ele>53.0</ele><time>2026-04-17T02:16:39Z</time></trkpt><trkpt lat="-24.99507551802638" lon="114.2370498441237"><ele>53.0</ele><time>2026-04-17T02:16:40Z</time></trkpt><trkpt lat="-24.99517162551235" lon="114.23709068050542"><ele>52.833333333333336</ele><time>2026-04-17T02:16:41Z</time></trkpt><trkpt lat="-24.995262092736876" lon="114.23712387921015"><ele>52.66666666666667</ele><time>2026-04-17T02:16:42Z</time></trkpt><trkpt lat="-24.995343253488382" lon="114.23715106455899"><ele>52.5</ele><time>2026-04-17T02:16:43Z</time></trkpt><trkpt lat="-24.995424874789673" lon="114.23717188711582"><ele>52.33333333333333</ele><time>2026-04-17T02:16:44Z</time></trkpt><trkpt lat="-24.995496587938824" lon="114.237186377447"><ele>52.166666666666664</ele><time>2026-04-17T02:16:45Z</time></trkpt><trkpt lat="-24.99558362048612" lon="114.23719495973276"><ele>52.0</ele><time>2026-04-17T02:16:47Z</time></trkpt><trkpt lat="-24.99565713333458" lon="114.23721869337837"><ele>51.99999999999999</ele><time>2026-04-17T02:17:53Z</time></trkpt><trkpt lat="-24.99577429372748" lon="114.23721557364817"><ele>52.0</ele><time>2026-04-17T02:18:28.001Z</time></trkpt><trkpt lat="-24.995846099823527" lon="114.2372116261719"><ele>52.0</ele><time>2026-04-17T02:18:29.001Z</time></trkpt><trkpt lat="-24.995916485175663" lon="114.23721357237407"><ele>52.0</ele><time>2026-04-17T02:18:30.001Z</time></trkpt><trkpt lat="-24.995993128078155" lon="114.23722528704158"><ele>51.99999999999999</ele><time>2026-04-17T02:18:31.001Z</time></trkpt><trkpt lat="-24.996094728491556" lon="114.2372413788952"><ele>52.0</ele><time>2026-04-17T02:18:32.001Z</time></trkpt><trkpt lat="-24.996208451058635" lon="114.2372728250801"><ele>52.0</ele><time>2026-04-17T02:18:33.001Z</time></trkpt><trkpt lat="-24.996326134153147" lon="114.23731343274908"><ele>52.0</ele><time>2026-04-17T02:18:34.001Z</time></trkpt><trkpt lat="-24.99645365564816" lon="114.23736772785179"><ele>52.0</ele><time>2026-04-17T02:18:35.001Z</time></trkpt><trkpt lat="-24.99658486573809" lon="114.23744235576049"><ele>52.0</ele><time>2026-04-17T02:18:36.001Z</time></trkpt><trkpt lat="-24.996731553446978" lon="114.23753758038961"><ele>52.0</ele><time>2026-04-17T02:18:37.001Z</time></trkpt><trkpt lat="-24.996896971559" lon="114.23764460095353"><ele>52.0</ele><time>2026-04-17T02:18:38.001Z</time></trkpt><trkpt lat="-24.99706863018801" lon="114.23774665829629"><ele>52.0</ele><time>2026-04-17T02:18:39.001Z</time></trkpt><trkpt lat="-24.99724693539358" lon="114.23784381446738"><ele>52.0</ele><time>2026-04-17T02:18:40.001Z</time></trkpt><trkpt lat="-24.997431031982135" lon="114.23793809489254"><ele>52.0</ele><time>2026-04-17T02:18:41.001Z</time></trkpt><trkpt lat="-24.99762067430811" lon="114.23802245258987"><ele>52.0</ele><time>2026-04-17T02:18:42.001Z</time></trkpt><trkpt lat="-24.997818726175886" lon="114.23809471061435"><ele>51.5</ele><time>2026-04-17T02:18:43.001Z</time></trkpt><trkpt lat="-24.998032139206014" lon="114.23815874142909"><ele>51.0</ele><time>2026-04-17T02:18:44.001Z</time></trkpt><trkpt lat="-24.998264803315745" lon="114.23822218198424"><ele>51.5</ele><time>2026-04-17T02:18:45.001Z</time></trkpt><trkpt lat="-24.998498756727162" lon="114.23829063496567"><ele>52.0</ele><time>2026-04-17T02:18:46.001Z</time></trkpt><trkpt lat="-24.99873736243782" lon="114.23836155164675"><ele>52.0</ele><time>2026-04-17T02:18:47.001Z</time></trkpt><trkpt lat="-24.998986510458288" lon="114.23844005298305"><ele>52.0</ele><time>2026-04-17T02:18:48.001Z</time></trkpt><trkpt lat="-24.99923037723138" lon="114.23851796344817"><ele>52.5</ele><time>2026-04-17T02:18:49.001Z</time></trkpt><trkpt lat="-24.999471766654114" lon="114.23859314005703"><ele>53.0</ele><time>2026-04-17T02:18:50Z</time></trkpt><trkpt lat="-24.999715896170166" lon="114.23867046258539"><ele>53.0</ele><time>2026-04-17T02:18:51Z</time></trkpt><trkpt lat="-24.999962512528136" lon="114.23874957921585"><ele>53.0</ele><time>2026-04-17T02:18:52Z</time></trkpt><trkpt lat="-25.00021209270423" lon="114.2388289657357"><ele>53.0</ele><time>2026-04-17T02:18:53Z</time></trkpt><trkpt lat="-25.000463116179905" lon="114.23890794240563"><ele>53.0</ele><time>2026-04-17T02:18:54Z</time></trkpt><trkpt lat="-25.000716111664076" lon="114.23898893026812"><ele>52.5</ele><time>2026-04-17T02:18:55Z</time></trkpt><trkpt lat="-25.000969722971284" lon="114.23906972222693"><ele>52.0</ele><time>2026-04-17T02:18:56Z</time></trkpt><trkpt lat="-25.001221343144184" lon="114.23915145682628"><ele>52.0</ele><time>2026-04-17T02:18:57Z</time></trkpt><trkpt lat="-25.001475025931498" lon="114.23923172056274"><ele>52.0</ele><time>2026-04-17T02:18:58Z</time></trkpt><trkpt lat="-25.001730945958048" lon="114.2393138023342"><ele>51.5</ele><time>2026-04-17T02:18:59Z</time></trkpt><trkpt lat="-25.00198854448446" lon="114.23939711641152"><ele>51.0</ele><time>2026-04-17T02:19:00Z</time></trkpt><trkpt lat="-25.00224352563037" lon="114.23947942402492"><ele>51.0</ele><time>2026-04-17T02:19:01Z</time></trkpt><trkpt lat="-25.00250304507007" lon="114.23956068456339"><ele>51.0</ele><time>2026-04-17T02:19:02Z</time></trkpt><trkpt lat="-25.00276126497" lon="114.23964379314455"><ele>51.0</ele><time>2026-04-17T02:19:03Z</time></trkpt><trkpt lat="-25.003015761362608" lon="114.23972547814459"><ele>51.0</ele><time>2026-04-17T02:19:04Z</time></trkpt><trkpt lat="-25.003265625044257" lon="114.23981043711353"><ele>51.0</ele><time>2026-04-17T02:19:05Z</time></trkpt><trkpt lat="-25.00352203519797" lon="114.23989915754875"><ele>51.0</ele><time>2026-04-17T02:19:06Z</time></trkpt><trkpt lat="-25.003787724607506" lon="114.23999112115544"><ele>51.0</ele><time>2026-04-17T02:19:07Z</time></trkpt><trkpt lat="-25.004049823275995" lon="114.24007613687037"><ele>51.0</ele><time>2026-04-17T02:19:08Z</time></trkpt><trkpt lat="-25.00431284223872" lon="114.24015848592438"><ele>51.5</ele><time>2026-04-17T02:19:09Z</time></trkpt><trkpt lat="-25.00457293853776" lon="114.24023651942233"><ele>52.0</ele><time>2026-04-17T02:19:10Z</time></trkpt><trkpt lat="-25.00483062360465" lon="114.24030696586718"><ele>51.5</ele><time>2026-04-17T02:19:11Z</time></trkpt><trkpt lat="-25.005093228693088" lon="114.24037882289933"><ele>51.0</ele><time>2026-04-17T02:19:12Z</time></trkpt><trkpt lat="-25.00535467539029" lon="114.2404543574043"><ele>51.0</ele><time>2026-04-17T02:19:13Z</time></trkpt><trkpt lat="-25.005617569187333" lon="114.24053600991735"><ele>51.0</ele><time>2026-04-17T02:19:14Z</time></trkpt><trkpt lat="-25.00588065185637" lon="114.24061705939921"><ele>51.0</ele><time>2026-04-17T02:19:15Z</time></trkpt><trkpt lat="-25.006140171396975" lon="114.24069432707712"><ele>51.0</ele><time>2026-04-17T02:19:16Z</time></trkpt><trkpt lat="-25.006392332753418" lon="114.24076656847801"><ele>51.0</ele><time>2026-04-17T02:19:17Z</time></trkpt><trkpt lat="-25.00664352719233" lon="114.24083731087404"><ele>51.0</ele><time>2026-04-17T02:19:18Z</time></trkpt><trkpt lat="-25.00690176495763" lon="114.24091596408583"><ele>51.5</ele><time>2026-04-17T02:19:19Z</time></trkpt><trkpt lat="-25.007153164383137" lon="114.24099521825218"><ele>52.0</ele><time>2026-04-17T02:19:20Z</time></trkpt><trkpt lat="-25.007403670032375" lon="114.2410769757748"><ele>51.5</ele><time>2026-04-17T02:19:21Z</time></trkpt><trkpt lat="-25.007658183050715" lon="114.24116202686633"><ele>51.0</ele><time>2026-04-17T02:19:22Z</time></trkpt><trkpt lat="-25.007906437811663" lon="114.24124517552744"><ele>51.0</ele><time>2026-04-17T02:19:23Z</time></trkpt><trkpt lat="-25.00815154246732" lon="114.24132999210931"><ele>51.0</ele><time>2026-04-17T02:19:24Z</time></trkpt><trkpt lat="-25.0083977481044" lon="114.24141451632354"><ele>51.5</ele><time>2026-04-17T02:19:25Z</time></trkpt><trkpt lat="-25.008654959689707" lon="114.2415003650541"><ele>52.0</ele><time>2026-04-17T02:19:26Z</time></trkpt><trkpt lat="-25.00890862863231" lon="114.24158411816816"><ele>51.5</ele><time>2026-04-17T02:19:27Z</time></trkpt><trkpt lat="-25.009160762189804" lon="114.24167074239539"><ele>51.0</ele><time>2026-04-17T02:19:28Z</time></trkpt><trkpt lat="-25.00941718560995" lon="114.2417564502377"><ele>51.0</ele><time>2026-04-17T02:19:29Z</time></trkpt><trkpt lat="-25.009668668801982" lon="114.24183939490128"><ele>51.0</ele><time>2026-04-17T02:19:30Z</time></trkpt><trkpt lat="-25.00992137955932" lon="114.24192131784007"><ele>51.5</ele><time>2026-04-17T02:19:31Z</time></trkpt><trkpt lat="-25.0101717798514" lon="114.24199681015978"><ele>52.0</ele><time>2026-04-17T02:19:32Z</time></trkpt><trkpt lat="-25.010421215254954" lon="114.24207148408246"><ele>52.0</ele><time>2026-04-17T02:19:33Z</time></trkpt><trkpt lat="-25.01066825668356" lon="114.24213954378402"><ele>52.0</ele><time>2026-04-17T02:19:34Z</time></trkpt><trkpt lat="-25.010910623293096" lon="114.24220182792712"><ele>52.0</ele><time>2026-04-17T02:19:35Z</time></trkpt><trkpt lat="-25.011144863653993" lon="114.24225873453042"><ele>52.0</ele><time>2026-04-17T02:19:36Z</time></trkpt><trkpt lat="-25.011367409073614" lon="114.24232365655693"><ele>52.0</ele><time>2026-04-17T02:19:37Z</time></trkpt><trkpt lat="-25.011607849045987" lon="114.24241301992373"><ele>52.0</ele><time>2026-04-17T02:19:38Z</time></trkpt><trkpt lat="-25.011848498891705" lon="114.24249658169978"><ele>51.5</ele><time>2026-04-17T02:19:39Z</time></trkpt><trkpt lat="-25.01209717290925" lon="114.24257734806628"><ele>51.0</ele><time>2026-04-17T02:19:40Z</time></trkpt><trkpt lat="-25.01234299969833" lon="114.24265744395913"><ele>51.5</ele><time>2026-04-17T02:19:41Z</time></trkpt><trkpt lat="-25.01259202313823" lon="114.24273572552814"><ele>52.0</ele><time>2026-04-17T02:19:42Z</time></trkpt><trkpt lat="-25.012845106280672" lon="114.24281351042794"><ele>52.0</ele><time>2026-04-17T02:19:43Z</time></trkpt><trkpt lat="-25.013098027648937" lon="114.24288978080587"><ele>52.0</ele><time>2026-04-17T02:19:44Z</time></trkpt><trkpt lat="-25.01335406791471" lon="114.24296985024388"><ele>52.5</ele><time>2026-04-17T02:19:45Z</time></trkpt><trkpt lat="-25.013607070571286" lon="114.24304799610002"><ele>53.0</ele><time>2026-04-17T02:19:46Z</time></trkpt><trkpt lat="-25.01386012756321" lon="114.2431286759515"><ele>53.0</ele><time>2026-04-17T02:19:47Z</time></trkpt><trkpt lat="-25.014117051732313" lon="114.24321146906102"><ele>53.0</ele><time>2026-04-17T02:19:48Z</time></trkpt><trkpt lat="-25.014379044116602" lon="114.24329424275035"><ele>53.5</ele><time>2026-04-17T02:19:49Z</time></trkpt><trkpt lat="-25.014640323546768" lon="114.24337783379889"><ele>54.0</ele><time>2026-04-17T02:19:50Z</time></trkpt><trkpt lat="-25.014900742755543" lon="114.24346128949227"><ele>53.5</ele><time>2026-04-17T02:19:51Z</time></trkpt><trkpt lat="-25.015162621326702" lon="114.24354444776974"><ele>53.0</ele><time>2026-04-17T02:19:52Z</time></trkpt><trkpt lat="-25.01542571137902" lon="114.24362953626981"><ele>53.0</ele><time>2026-04-17T02:19:53Z</time></trkpt><trkpt lat="-25.01568725797185" lon="114.24371305212944"><ele>53.0</ele><time>2026-04-17T02:19:54Z</time></trkpt><trkpt lat="-25.015947780681664" lon="114.24379520864919"><ele>53.0</ele><time>2026-04-17T02:19:55Z</time></trkpt><trkpt lat="-25.01620839760531" lon="114.24387600561624"><ele>53.0</ele><time>2026-04-17T02:19:56Z</time></trkpt><trkpt lat="-25.016466214210986" lon="114.24395689704086"><ele>52.5</ele><time>2026-04-17T02:19:57Z</time></trkpt><trkpt lat="-25.016721138542472" lon="114.24403813197456"><ele>52.0</ele><time>2026-04-17T02:19:58Z</time></trkpt><trkpt lat="-25.016979161904104" lon="114.24411787926034"><ele>52.0</ele><time>2026-04-17T02:19:59Z</time></trkpt><trkpt lat="-25.017233934809063" lon="114.24419236420317"><ele>52.0</ele><time>2026-04-17T02:20:00Z</time></trkpt><trkpt lat="-25.017492783588775" lon="114.24426353599985"><ele>52.0</ele><time>2026-04-17T02:20:01Z</time></trkpt><trkpt lat="-25.017745421419264" lon="114.24433786335229"><ele>52.0</ele><time>2026-04-17T02:20:02Z</time></trkpt><trkpt lat="-25.017999116163065" lon="114.24442129759224"><ele>52.0</ele><time>2026-04-17T02:20:03Z</time></trkpt><trkpt lat="-25.01825057957303" lon="114.24450760574882"><ele>52.0</ele><time>2026-04-17T02:20:04Z</time></trkpt><trkpt lat="-25.018501843268258" lon="114.24459381347069"><ele>52.0</ele><time>2026-04-17T02:20:05Z</time></trkpt><trkpt lat="-25.018749609843237" lon="114.24467696594289"><ele>52.0</ele><time>2026-04-17T02:20:06Z</time></trkpt><trkpt lat="-25.018994387220857" lon="114.24476145570063"><ele>53.0</ele><time>2026-04-17T02:20:07Z</time></trkpt><trkpt lat="-25.019232366922182" lon="114.2448497237599"><ele>54.0</ele><time>2026-04-17T02:20:08Z</time></trkpt><trkpt lat="-25.019455585020715" lon="114.24493730115871"><ele>54.0</ele><time>2026-04-17T02:20:09Z</time></trkpt><trkpt lat="-25.019683191440716" lon="114.2450253808943"><ele>54.0</ele><time>2026-04-17T02:20:10Z</time></trkpt><trkpt lat="-25.01992006596551" lon="114.24511234501544"><ele>53.5</ele><time>2026-04-17T02:20:11Z</time></trkpt><trkpt lat="-25.02015258131813" lon="114.24519720181091"><ele>53.0</ele><time>2026-04-17T02:20:12Z</time></trkpt><trkpt lat="-25.0203644783081" lon="114.24527887917246"><ele>53.0</ele><time>2026-04-17T02:20:13Z</time></trkpt><trkpt lat="-25.020540637971898" lon="114.2453414678845"><ele>53.0</ele><time>2026-04-17T02:20:14Z</time></trkpt><trkpt lat="-25.020719801605694" lon="114.24538864226925"><ele>53.0</ele><time>2026-04-17T02:20:15Z</time></trkpt><trkpt lat="-25.020911277963464" lon="114.24542979840695"><ele>53.0</ele><time>2026-04-17T02:20:16Z</time></trkpt><trkpt lat="-25.021115939555987" lon="114.24549160456212"><ele>53.0</ele><time>2026-04-17T02:20:17Z</time></trkpt><trkpt lat="-25.02132880579454" lon="114.24557899431065"><ele>53.0</ele><time>2026-04-17T02:20:18Z</time></trkpt><trkpt lat="-25.021551879535423" lon="114.2456767071243"><ele>52.5</ele><time>2026-04-17T02:20:19Z</time></trkpt><trkpt lat="-25.02178539244471" lon="114.24577276175124"><ele>52.0</ele><time>2026-04-17T02:20:20.001Z</time></trkpt><trkpt lat="-25.022018643579624" lon="114.24585779602455"><ele>52.0</ele><time>2026-04-17T02:20:21.001Z</time></trkpt><trkpt lat="-25.022238805191705" lon="114.2459259789217"><ele>52.0</ele><time>2026-04-17T02:20:22.001Z</time></trkpt><trkpt lat="-25.022453412207984" lon="114.24598781900853"><ele>52.5</ele><time>2026-04-17T02:20:23.001Z</time></trkpt><trkpt lat="-25.022669151786914" lon="114.24606178545869"><ele>53.0</ele><time>2026-04-17T02:20:24.001Z</time></trkpt><trkpt lat="-25.02288951861912" lon="114.24615358987263"><ele>53.0</ele><time>2026-04-17T02:20:25.001Z</time></trkpt><trkpt lat="-25.02311819234099" lon="114.24625522159226"><ele>53.0</ele><time>2026-04-17T02:20:26.001Z</time></trkpt><trkpt lat="-25.02334345544121" lon="114.24634671358136"><ele>53.5</ele><time>2026-04-17T02:20:27.001Z</time></trkpt><trkpt lat="-25.02357382042072" lon="114.24644358452055"><ele>54.0</ele><time>2026-04-17T02:20:28.001Z</time></trkpt><trkpt lat="-25.02379883359686" lon="114.24653686289261"><ele>54.0</ele><time>2026-04-17T02:20:29.001Z</time></trkpt><trkpt lat="-25.02403132769153" lon="114.24663048435907"><ele>54.0</ele><time>2026-04-17T02:20:30.001Z</time></trkpt><trkpt lat="-25.024262093706106" lon="114.24671920831949"><ele>53.0</ele><time>2026-04-17T02:20:31.001Z</time></trkpt><trkpt lat="-25.024491170664252" lon="114.24680034214089"><ele>52.0</ele><time>2026-04-17T02:20:32.001Z</time></trkpt><trkpt lat="-25.024727257294096" lon="114.2468804279723"><ele>52.0</ele><time>2026-04-17T02:20:33.001Z</time></trkpt><trkpt lat="-25.024966489580454" lon="114.24695874726046"><ele>52.0</ele><time>2026-04-17T02:20:34.001Z</time></trkpt><trkpt lat="-25.025209269837536" lon="114.24704682117573"><ele>51.5</ele><time>2026-04-17T02:20:35.001Z</time></trkpt><trkpt lat="-25.02544670851066" lon="114.24713350014436"><ele>51.0</ele><time>2026-04-17T02:20:36.001Z</time></trkpt><trkpt lat="-25.02569677977958" lon="114.24721670921616"><ele>52.0</ele><time>2026-04-17T02:20:37.001Z</time></trkpt><trkpt lat="-25.02594912328043" lon="114.24729943198673"><ele>53.0</ele><time>2026-04-17T02:20:38.001Z</time></trkpt><trkpt lat="-25.026202073819487" lon="114.24738544808426"><ele>53.0</ele><time>2026-04-17T02:20:39Z</time></trkpt><trkpt lat="-25.026463259080522" lon="114.24746846361246"><ele>53.0</ele><time>2026-04-17T02:20:40Z</time></trkpt><trkpt lat="-25.026725377501783" lon="114.24755036054107"><ele>53.5</ele><time>2026-04-17T02:20:41Z</time></trkpt><trkpt lat="-25.026981689044543" lon="114.24763189551204"><ele>54.0</ele><time>2026-04-17T02:20:42Z</time></trkpt><trkpt lat="-25.0272407457737" lon="114.24771569663682"><ele>54.5</ele><time>2026-04-17T02:20:43Z</time></trkpt><trkpt lat="-25.02750189367422" lon="114.24779767103664"><ele>55.0</ele><time>2026-04-17T02:20:44Z</time></trkpt><trkpt lat="-25.02777007725522" lon="114.24788581678735"><ele>55.0</ele><time>2026-04-17T02:20:45Z</time></trkpt><trkpt lat="-25.028030992126393" lon="114.24797085274143"><ele>55.0</ele><time>2026-04-17T02:20:46Z</time></trkpt><trkpt lat="-25.02828459881684" lon="114.24805436199806"><ele>54.0</ele><time>2026-04-17T02:20:47Z</time></trkpt><trkpt lat="-25.028543862565108" lon="114.2481388151606"><ele>53.0</ele><time>2026-04-17T02:20:48Z</time></trkpt><trkpt lat="-25.028797994944867" lon="114.24822004085289"><ele>53.0</ele><time>2026-04-17T02:20:49Z</time></trkpt><trkpt lat="-25.029055050441578" lon="114.24830074903188"><ele>53.0</ele><time>2026-04-17T02:20:50Z</time></trkpt><trkpt lat="-25.029317054150578" lon="114.24837920695562"><ele>53.5</ele><time>2026-04-17T02:20:51Z</time></trkpt><trkpt lat="-25.029568777595852" lon="114.24845811314943"><ele>54.0</ele><time>2026-04-17T02:20:52Z</time></trkpt><trkpt lat="-25.02982617507334" lon="114.24854600317647"><ele>54.0</ele><time>2026-04-17T02:20:53Z</time></trkpt><trkpt lat="-25.030084292039973" lon="114.24863404419787"><ele>54.0</ele><time>2026-04-17T02:20:54Z</time></trkpt><trkpt lat="-25.030346206226017" lon="114.24872086538954"><ele>54.0</ele><time>2026-04-17T02:20:55Z</time></trkpt><trkpt lat="-25.030607465890437" lon="114.24880020273041"><ele>54.0</ele><time>2026-04-17T02:20:56Z</time></trkpt><trkpt lat="-25.030863570622675" lon="114.24887272492597"><ele>54.0</ele><time>2026-04-17T02:20:57Z</time></trkpt><trkpt lat="-25.031120333153975" lon="114.24895533382649"><ele>54.0</ele><time>2026-04-17T02:20:58Z</time></trkpt><trkpt lat="-25.0313754616914" lon="114.24905178737616"><ele>54.0</ele><time>2026-04-17T02:20:59Z</time></trkpt><trkpt lat="-25.031633497760993" lon="114.24914772803473"><ele>54.0</ele><time>2026-04-17T02:21:00Z</time></trkpt><trkpt lat="-25.031890619023095" lon="114.24923498614523"><ele>53.5</ele><time>2026-04-17T02:21:01Z</time></trkpt><trkpt lat="-25.032146262969718" lon="114.24931649129265"><ele>53.0</ele><time>2026-04-17T02:21:02Z</time></trkpt><trkpt lat="-25.03239769530429" lon="114.24939578353397"><ele>53.0</ele><time>2026-04-17T02:21:03Z</time></trkpt><trkpt lat="-25.03265145349745" lon="114.24947615071552"><ele>53.0</ele><time>2026-04-17T02:21:04Z</time></trkpt><trkpt lat="-25.03290442013722" lon="114.2495589078409"><ele>53.0</ele><time>2026-04-17T02:21:05Z</time></trkpt><trkpt lat="-25.033159209107506" lon="114.2496412899051"><ele>53.0</ele><time>2026-04-17T02:21:06Z</time></trkpt><trkpt lat="-25.033406598792197" lon="114.24971560828503"><ele>53.5</ele><time>2026-04-17T02:21:07Z</time></trkpt><trkpt lat="-25.03364924797182" lon="114.24979437790552"><ele>54.0</ele><time>2026-04-17T02:21:08Z</time></trkpt><trkpt lat="-25.033886745346127" lon="114.24987399061393"><ele>54.0</ele><time>2026-04-17T02:21:09Z</time></trkpt><trkpt lat="-25.03412892745691" lon="114.24994471739949"><ele>54.0</ele><time>2026-04-17T02:21:10Z</time></trkpt><trkpt lat="-25.03437176523907" lon="114.2500028823416"><ele>54.0</ele><time>2026-04-17T02:21:11Z</time></trkpt><trkpt lat="-25.034625183148492" lon="114.25004434767698"><ele>54.0</ele><time>2026-04-17T02:21:12Z</time></trkpt><trkpt lat="-25.034876560881756" lon="114.2500689721309"><ele>54.5</ele><time>2026-04-17T02:21:13Z</time></trkpt><trkpt lat="-25.035126230061962" lon="114.25008081492295"><ele>55.0</ele><time>2026-04-17T02:21:14Z</time></trkpt><trkpt lat="-25.03537503228114" lon="114.25008705809861"><ele>55.0</ele><time>2026-04-17T02:21:15Z</time></trkpt><trkpt lat="-25.035609582557722" lon="114.25008460315404"><ele>55.0</ele><time>2026-04-17T02:21:16Z</time></trkpt><trkpt lat="-25.035826071146296" lon="114.25007251297134"><ele>55.0</ele><time>2026-04-17T02:21:17Z</time></trkpt><trkpt lat="-25.036042736517313" lon="114.25004718421624"><ele>55.0</ele><time>2026-04-17T02:21:18Z</time></trkpt><trkpt lat="-25.036263362802025" lon="114.25001758188284"><ele>55.0</ele><time>2026-04-17T02:21:19Z</time></trkpt><trkpt lat="-25.036483667692735" lon="114.24998534626889"><ele>55.0</ele><time>2026-04-17T02:21:20Z</time></trkpt><trkpt lat="-25.03672339783554" lon="114.24994594175232"><ele>55.0</ele><time>2026-04-17T02:21:21Z</time></trkpt><trkpt lat="-25.036962591860092" lon="114.2498984933585"><ele>55.0</ele><time>2026-04-17T02:21:22Z</time></trkpt><trkpt lat="-25.037204593652888" lon="114.24984629822198"><ele>55.0</ele><time>2026-04-17T02:21:23Z</time></trkpt><trkpt lat="-25.03745747654364" lon="114.24979597755923"><ele>55.0</ele><time>2026-04-17T02:21:24Z</time></trkpt><trkpt lat="-25.037717228535712" lon="114.24974696825865"><ele>55.0</ele><time>2026-04-17T02:21:25Z</time></trkpt><trkpt lat="-25.0379808121318" lon="114.2496966234234"><ele>55.0</ele><time>2026-04-17T02:21:26Z</time></trkpt><trkpt lat="-25.038246845742197" lon="114.2496461615432"><ele>55.0</ele><time>2026-04-17T02:21:27Z</time></trkpt><trkpt lat="-25.038507772330007" lon="114.24959785941357"><ele>55.5</ele><time>2026-04-17T02:21:28Z</time></trkpt><trkpt lat="-25.038775728143154" lon="114.2495522288308"><ele>56.0</ele><time>2026-04-17T02:21:29Z</time></trkpt><trkpt lat="-25.03904520608587" lon="114.24950591461743"><ele>55.0</ele><time>2026-04-17T02:21:30Z</time></trkpt><trkpt lat="-25.039314144769506" lon="114.24945715097776"><ele>54.0</ele><time>2026-04-17T02:21:31Z</time></trkpt><trkpt lat="-25.03957922494667" lon="114.24940922743666"><ele>54.0</ele><time>2026-04-17T02:21:32Z</time></trkpt><trkpt lat="-25.039846384466248" lon="114.2493628243524"><ele>54.0</ele><time>2026-04-17T02:21:33Z</time></trkpt><trkpt lat="-25.040115433260745" lon="114.24931590207646"><ele>54.0</ele><time>2026-04-17T02:21:34Z</time></trkpt><trkpt lat="-25.040384822317122" lon="114.24926693395824"><ele>54.0</ele><time>2026-04-17T02:21:35Z</time></trkpt><trkpt lat="-25.040657339906442" lon="114.24921683421532"><ele>54.5</ele><time>2026-04-17T02:21:36Z</time></trkpt><trkpt lat="-25.04093093512144" lon="114.24916893250723"><ele>55.0</ele><time>2026-04-17T02:21:37Z</time></trkpt><trkpt lat="-25.04120487377019" lon="114.2491204346768"><ele>55.0</ele><time>2026-04-17T02:21:38Z</time></trkpt><trkpt lat="-25.041477105752836" lon="114.24907226016403"><ele>55.0</ele><time>2026-04-17T02:21:39Z</time></trkpt><trkpt lat="-25.041747320065717" lon="114.2490252006035"><ele>55.0</ele><time>2026-04-17T02:21:40Z</time></trkpt><trkpt lat="-25.04201790702316" lon="114.24897331926459"><ele>55.0</ele><time>2026-04-17T02:21:41Z</time></trkpt><trkpt lat="-25.042287212060064" lon="114.24891827993517"><ele>55.0</ele><time>2026-04-17T02:21:42Z</time></trkpt><trkpt lat="-25.042538584438052" lon="114.24887144804134"><ele>55.0</ele><time>2026-04-17T02:21:43Z</time></trkpt><trkpt lat="-25.042785298321302" lon="114.24883105819721"><ele>55.0</ele><time>2026-04-17T02:21:44Z</time></trkpt><trkpt lat="-25.043031764229276" lon="114.24879729153152"><ele>55.0</ele><time>2026-04-17T02:21:45Z</time></trkpt><trkpt lat="-25.043277944834134" lon="114.24876062614628"><ele>55.0</ele><time>2026-04-17T02:21:46Z</time></trkpt><trkpt lat="-25.043512000693184" lon="114.24872923090246"><ele>55.0</ele><time>2026-04-17T02:21:47Z</time></trkpt><trkpt lat="-25.04374384208643" lon="114.24870252404908"><ele>55.0</ele><time>2026-04-17T02:21:48Z</time></trkpt><trkpt lat="-25.04397209186125" lon="114.24869219690765"><ele>55.0</ele><time>2026-04-17T02:21:49Z</time></trkpt><trkpt lat="-25.04419864770477" lon="114.24869094798393"><ele>55.0</ele><time>2026-04-17T02:21:50Z</time></trkpt><trkpt lat="-25.044412554225243" lon="114.24869808260887"><ele>55.0</ele><time>2026-04-17T02:21:51Z</time></trkpt><trkpt lat="-25.04461358536853" lon="114.24871054972854"><ele>55.0</ele><time>2026-04-17T02:21:52Z</time></trkpt><trkpt lat="-25.044802122648843" lon="114.24872226418096"><ele>54.75</ele><time>2026-04-17T02:21:53Z</time></trkpt><trkpt lat="-25.044972517284904" lon="114.24873411548752"><ele>54.5</ele><time>2026-04-17T02:21:54Z</time></trkpt><trkpt lat="-25.045123035713754" lon="114.2487448934672"><ele>54.25</ele><time>2026-04-17T02:21:55Z</time></trkpt><trkpt lat="-25.045243566010384" lon="114.24875539591714"><ele>54.0</ele><time>2026-04-17T02:21:56Z</time></trkpt><trkpt lat="-25.04533015071234" lon="114.24876919111314"><ele>54.0</ele><time>2026-04-17T02:21:57Z</time></trkpt><trkpt lat="-25.04538993420559" lon="114.24879498413569"><ele>54.00000000000001</ele><time>2026-04-17T02:21:58Z</time></trkpt><trkpt lat="-25.045454656653327" lon="114.24887789890558"><ele>54.00000000000001</ele><time>2026-04-17T02:22:00Z</time></trkpt><trkpt lat="-25.045490875101788" lon="114.2489941374393"><ele>54.0</ele><time>2026-04-17T02:22:02Z</time></trkpt><trkpt lat="-25.045495903973453" lon="114.24908401075172"><ele>54.0</ele><time>2026-04-17T02:22:03Z</time></trkpt><trkpt lat="-25.04549054203676" lon="114.24919375011848"><ele>54.0</ele><time>2026-04-17T02:22:04Z</time></trkpt><trkpt lat="-25.045475239262174" lon="114.24932936255183"><ele>54.0</ele><time>2026-04-17T02:22:05Z</time></trkpt><trkpt lat="-25.04545396496141" lon="114.24949229553671"><ele>54.0</ele><time>2026-04-17T02:22:06Z</time></trkpt><trkpt lat="-25.045432374421413" lon="114.24967938291284"><ele>54.0</ele><time>2026-04-17T02:22:07Z</time></trkpt><trkpt lat="-25.045415989589483" lon="114.24987840478016"><ele>54.0</ele><time>2026-04-17T02:22:08Z</time></trkpt><trkpt lat="-25.04540062109477" lon="114.25010363274716"><ele>54.0</ele><time>2026-04-17T02:22:09Z</time></trkpt><trkpt lat="-25.04538633425068" lon="114.25034937575232"><ele>54.0</ele><time>2026-04-17T02:22:10Z</time></trkpt><trkpt lat="-25.045371523726793" lon="114.25059845989105"><ele>54.5</ele><time>2026-04-17T02:22:11Z</time></trkpt><trkpt lat="-25.045353975312064" lon="114.25085981196709"><ele>55.0</ele><time>2026-04-17T02:22:12Z</time></trkpt><trkpt lat="-25.045334874078673" lon="114.25113368179458"><ele>55.0</ele><time>2026-04-17T02:22:13Z</time></trkpt><trkpt lat="-25.04531761345188" lon="114.25141180892123"><ele>55.0</ele><time>2026-04-17T02:22:14Z</time></trkpt><trkpt lat="-25.045303046461864" lon="114.25168027710042"><ele>55.0</ele><time>2026-04-17T02:22:15Z</time></trkpt><trkpt lat="-25.045287289938166" lon="114.25195430314055"><ele>55.0</ele><time>2026-04-17T02:22:16Z</time></trkpt><trkpt lat="-25.04527330763234" lon="114.25223559579788"><ele>55.0</ele><time>2026-04-17T02:22:17Z</time></trkpt><trkpt lat="-25.045260357211294" lon="114.25251943421944"><ele>55.0</ele><time>2026-04-17T02:22:18Z</time></trkpt><trkpt lat="-25.04524753488427" lon="114.25280941858463"><ele>55.0</ele><time>2026-04-17T02:22:19Z</time></trkpt><trkpt lat="-25.045235624678494" lon="114.25310001934889"><ele>55.0</ele><time>2026-04-17T02:22:20Z</time></trkpt><trkpt lat="-25.045222526609823" lon="114.25339855852638"><ele>55.0</ele><time>2026-04-17T02:22:21Z</time></trkpt><trkpt lat="-25.045209309037705" lon="114.25369811415322"><ele>55.0</ele><time>2026-04-17T02:22:22Z</time></trkpt><trkpt lat="-25.045194476314183" lon="114.25400281505351"><ele>55.0</ele><time>2026-04-17T02:22:23Z</time></trkpt><trkpt lat="-25.045169446161392" lon="114.25461428961107"><ele>55.5</ele><time>2026-04-17T02:22:25Z</time></trkpt><trkpt lat="-25.045159271176455" lon="114.25492423560517"><ele>56.0</ele><time>2026-04-17T02:22:26Z</time></trkpt><trkpt lat="-25.04515060924989" lon="114.25523322103695"><ele>56.0</ele><time>2026-04-17T02:22:27Z</time></trkpt><trkpt lat="-25.045142015697465" lon="114.25554371628971"><ele>56.0</ele><time>2026-04-17T02:22:28Z</time></trkpt><trkpt lat="-25.045131877083072" lon="114.25585685280228"><ele>56.5</ele><time>2026-04-17T02:22:29Z</time></trkpt><trkpt lat="-25.045118426240755" lon="114.25615906370447"><ele>57.0</ele><time>2026-04-17T02:22:30Z</time></trkpt><trkpt lat="-25.04510479994087" lon="114.2564608840224"><ele>56.0</ele><time>2026-04-17T02:22:31Z</time></trkpt><trkpt lat="-25.04508870199265" lon="114.25676070893128"><ele>55.0</ele><time>2026-04-17T02:22:32Z</time></trkpt><trkpt lat="-25.045073892132322" lon="114.257058206984"><ele>55.0</ele><time>2026-04-17T02:22:33Z</time></trkpt><trkpt lat="-25.045060646070024" lon="114.25735919264291"><ele>55.0</ele><time>2026-04-17T02:22:34Z</time></trkpt><trkpt lat="-25.045050293012952" lon="114.25766060669098"><ele>55.0</ele><time>2026-04-17T02:22:35Z</time></trkpt><trkpt lat="-25.0450392048128" lon="114.25796332392042"><ele>55.0</ele><time>2026-04-17T02:22:36Z</time></trkpt><trkpt lat="-25.045029354187324" lon="114.25826252877665"><ele>55.5</ele><time>2026-04-17T02:22:37Z</time></trkpt><trkpt lat="-25.045018758528197" lon="114.25856461228734"><ele>56.0</ele><time>2026-04-17T02:22:38Z</time></trkpt><trkpt lat="-25.045007934994544" lon="114.25886844298822"><ele>56.0</ele><time>2026-04-17T02:22:39Z</time></trkpt><trkpt lat="-25.04499656123014" lon="114.25917046860744"><ele>56.0</ele><time>2026-04-17T02:22:40Z</time></trkpt><trkpt lat="-25.044985322674123" lon="114.25947167778064"><ele>56.0</ele><time>2026-04-17T02:22:41Z</time></trkpt><trkpt lat="-25.044974719321655" lon="114.25977984469844"><ele>56.0</ele><time>2026-04-17T02:22:42Z</time></trkpt><trkpt lat="-25.044963761036414" lon="114.26008752331816"><ele>56.5</ele><time>2026-04-17T02:22:43Z</time></trkpt><trkpt lat="-25.04495044005109" lon="114.26039246783913"><ele>57.0</ele><time>2026-04-17T02:22:44Z</time></trkpt><trkpt lat="-25.044935348806376" lon="114.26069604608763"><ele>56.0</ele><time>2026-04-17T02:22:45Z</time></trkpt><trkpt lat="-25.044920594614915" lon="114.26099758937862"><ele>55.0</ele><time>2026-04-17T02:22:46Z</time></trkpt><trkpt lat="-25.04490527799934" lon="114.26129736784677"><ele>55.0</ele><time>2026-04-17T02:22:47Z</time></trkpt><trkpt lat="-25.044890010472486" lon="114.2615945654332"><ele>55.0</ele><time>2026-04-17T02:22:48Z</time></trkpt><trkpt lat="-25.044879061764075" lon="114.2618917203707"><ele>55.0</ele><time>2026-04-17T02:22:49Z</time></trkpt><trkpt lat="-25.04486783135019" lon="114.26219581871041"><ele>55.0</ele><time>2026-04-17T02:22:50Z</time></trkpt><trkpt lat="-25.044856808257194" lon="114.26249666669008"><ele>56.0</ele><time>2026-04-17T02:22:51Z</time></trkpt><trkpt lat="-25.04484512983345" lon="114.26279549745006"><ele>57.0</ele><time>2026-04-17T02:22:52Z</time></trkpt><trkpt lat="-25.044837254137203" lon="114.26309372834851"><ele>57.0</ele><time>2026-04-17T02:22:53Z</time></trkpt><trkpt lat="-25.044828424179755" lon="114.2633928493109"><ele>57.0</ele><time>2026-04-17T02:22:54Z</time></trkpt><trkpt lat="-25.044818545147272" lon="114.26369468028844"><ele>57.0</ele><time>2026-04-17T02:22:55Z</time></trkpt><trkpt lat="-25.044809125156974" lon="114.26399391127438"><ele>57.0</ele><time>2026-04-17T02:22:56Z</time></trkpt><trkpt lat="-25.044798980303003" lon="114.26429325031485"><ele>57.0</ele><time>2026-04-17T02:22:57Z</time></trkpt><trkpt lat="-25.04478787102857" lon="114.26459219309012"><ele>57.0</ele><time>2026-04-17T02:22:58Z</time></trkpt><trkpt lat="-25.044775449148823" lon="114.264889644721"><ele>57.5</ele><time>2026-04-17T02:22:59Z</time></trkpt><trkpt lat="-25.04476495561123" lon="114.26518902363571"><ele>58.0</ele><time>2026-04-17T02:23:00Z</time></trkpt><trkpt lat="-25.04475488187374" lon="114.26548836223515"><ele>58.0</ele><time>2026-04-17T02:23:01Z</time></trkpt><trkpt lat="-25.0447446471033" lon="114.2657878677072"><ele>58.0</ele><time>2026-04-17T02:23:02Z</time></trkpt><trkpt lat="-25.0447340977135" lon="114.26608867540537"><ele>58.0</ele><time>2026-04-17T02:23:03Z</time></trkpt><trkpt lat="-25.044721710921838" lon="114.26638849457717"><ele>58.0</ele><time>2026-04-17T02:23:04Z</time></trkpt><trkpt lat="-25.044707929174045" lon="114.26668607143047"><ele>58.0</ele><time>2026-04-17T02:23:05Z</time></trkpt><trkpt lat="-25.044693108539132" lon="114.26698723006359"><ele>58.0</ele><time>2026-04-17T02:23:06Z</time></trkpt><trkpt lat="-25.04467668472293" lon="114.2672868968597"><ele>58.0</ele><time>2026-04-17T02:23:07Z</time></trkpt><trkpt lat="-25.044661934384163" lon="114.26758685937929"><ele>58.0</ele><time>2026-04-17T02:23:08Z</time></trkpt><trkpt lat="-25.044649456457783" lon="114.26788857998945"><ele>57.5</ele><time>2026-04-17T02:23:09Z</time></trkpt><trkpt lat="-25.044641457489075" lon="114.26818328401882"><ele>57.0</ele><time>2026-04-17T02:23:10Z</time></trkpt><trkpt lat="-25.04463210615518" lon="114.26847691472"><ele>57.0</ele><time>2026-04-17T02:23:11Z</time></trkpt><trkpt lat="-25.044621886736877" lon="114.26876589965848"><ele>57.0</ele><time>2026-04-17T02:23:12Z</time></trkpt><trkpt lat="-25.044611167454363" lon="114.26906156542877"><ele>56.5</ele><time>2026-04-17T02:23:13Z</time></trkpt><trkpt lat="-25.04460039873594" lon="114.26936156830615"><ele>56.0</ele><time>2026-04-17T02:23:14Z</time></trkpt><trkpt lat="-25.044590264989676" lon="114.26966507478129"><ele>56.5</ele><time>2026-04-17T02:23:15Z</time></trkpt><trkpt lat="-25.04458085842536" lon="114.26996754919168"><ele>57.0</ele><time>2026-04-17T02:23:16Z</time></trkpt><trkpt lat="-25.044571202045095" lon="114.27027088872362"><ele>57.0</ele><time>2026-04-17T02:23:17Z</time></trkpt><trkpt lat="-25.044560515755386" lon="114.2705730694888"><ele>57.0</ele><time>2026-04-17T02:23:18Z</time></trkpt><trkpt lat="-25.044548750872956" lon="114.27087165685721"><ele>57.0</ele><time>2026-04-17T02:23:19Z</time></trkpt><trkpt lat="-25.04453386067035" lon="114.27116952075728"><ele>57.0</ele><time>2026-04-17T02:23:20Z</time></trkpt><trkpt lat="-25.04451984405568" lon="114.27146955543682"><ele>56.5</ele><time>2026-04-17T02:23:21Z</time></trkpt><trkpt lat="-25.044507874551947" lon="114.27177364847196"><ele>56.0</ele><time>2026-04-17T02:23:22Z</time></trkpt><trkpt lat="-25.04449716422634" lon="114.27208345257482"><ele>56.5</ele><time>2026-04-17T02:23:23Z</time></trkpt><trkpt lat="-25.04448766045223" lon="114.27238962849052"><ele>57.0</ele><time>2026-04-17T02:23:24Z</time></trkpt><trkpt lat="-25.044473998300816" lon="114.27269971189365"><ele>57.0</ele><time>2026-04-17T02:23:25Z</time></trkpt><trkpt lat="-25.04445868069481" lon="114.2730061911461"><ele>57.0</ele><time>2026-04-17T02:23:26Z</time></trkpt><trkpt lat="-25.044447377982515" lon="114.27331455658816"><ele>56.5</ele><time>2026-04-17T02:23:27Z</time></trkpt><trkpt lat="-25.0444366896699" lon="114.27361951563569"><ele>56.0</ele><time>2026-04-17T02:23:28Z</time></trkpt><trkpt lat="-25.044427244319092" lon="114.27392226883153"><ele>56.0</ele><time>2026-04-17T02:23:29Z</time></trkpt><trkpt lat="-25.04441383260581" lon="114.27422415511342"><ele>56.0</ele><time>2026-04-17T02:23:30Z</time></trkpt><trkpt lat="-25.04440114708781" lon="114.27452575426638"><ele>55.5</ele><time>2026-04-17T02:23:31Z</time></trkpt><trkpt lat="-25.044389139233516" lon="114.27482531479384"><ele>55.0</ele><time>2026-04-17T02:23:32Z</time></trkpt><trkpt lat="-25.044377635411845" lon="114.27512707473194"><ele>55.0</ele><time>2026-04-17T02:23:33Z</time></trkpt><trkpt lat="-25.04436610234581" lon="114.2754292665463"><ele>55.0</ele><time>2026-04-17T02:23:34Z</time></trkpt><trkpt lat="-25.04435391776943" lon="114.27573220371377"><ele>55.5</ele><time>2026-04-17T02:23:35Z</time></trkpt><trkpt lat="-25.04433991705018" lon="114.27603101088968"><ele>56.0</ele><time>2026-04-17T02:23:36Z</time></trkpt><trkpt lat="-25.04432540453114" lon="114.27633263737188"><ele>56.5</ele><time>2026-04-17T02:23:37Z</time></trkpt><trkpt lat="-25.044313002692576" lon="114.27663742200646"><ele>57.0</ele><time>2026-04-17T02:23:38Z</time></trkpt><trkpt lat="-25.044301451780886" lon="114.27693821197883"><ele>57.0</ele><time>2026-04-17T02:23:39Z</time></trkpt><trkpt lat="-25.044290717016963" lon="114.27723572367785"><ele>57.0</ele><time>2026-04-17T02:23:40Z</time></trkpt><trkpt lat="-25.044278779760457" lon="114.27753428553606"><ele>56.5</ele><time>2026-04-17T02:23:41Z</time></trkpt><trkpt lat="-25.04426748963083" lon="114.27783614058934"><ele>56.0</ele><time>2026-04-17T02:23:42Z</time></trkpt><trkpt lat="-25.044256628760287" lon="114.27814025435956"><ele>56.0</ele><time>2026-04-17T02:23:43Z</time></trkpt><trkpt lat="-25.044245967199558" lon="114.27843790812251"><ele>56.0</ele><time>2026-04-17T02:23:44Z</time></trkpt><trkpt lat="-25.044234561688473" lon="114.27873339473156"><ele>56.5</ele><time>2026-04-17T02:23:45Z</time></trkpt><trkpt lat="-25.044223445069218" lon="114.27902757489097"><ele>57.0</ele><time>2026-04-17T02:23:46Z</time></trkpt><trkpt lat="-25.044209944697013" lon="114.27931827683692"><ele>57.0</ele><time>2026-04-17T02:23:47Z</time></trkpt><trkpt lat="-25.044196010297497" lon="114.27959673746707"><ele>57.0</ele><time>2026-04-17T02:23:48Z</time></trkpt><trkpt lat="-25.044183404859428" lon="114.27987687759902"><ele>57.0</ele><time>2026-04-17T02:23:49Z</time></trkpt><trkpt lat="-25.04417476328174" lon="114.28015480779202"><ele>57.0</ele><time>2026-04-17T02:23:50Z</time></trkpt><trkpt lat="-25.044162922183773" lon="114.28043854494504"><ele>57.0</ele><time>2026-04-17T02:23:51Z</time></trkpt><trkpt lat="-25.044150283159084" lon="114.28072713510927"><ele>57.0</ele><time>2026-04-17T02:23:52Z</time></trkpt><trkpt lat="-25.044138989981054" lon="114.28101883786785"><ele>57.0</ele><time>2026-04-17T02:23:53Z</time></trkpt><trkpt lat="-25.04413033125582" lon="114.28131868194478"><ele>57.0</ele><time>2026-04-17T02:23:54Z</time></trkpt><trkpt lat="-25.044121673147995" lon="114.28161970116555"><ele>57.0</ele><time>2026-04-17T02:23:55Z</time></trkpt><trkpt lat="-25.044109000932597" lon="114.28192005904434"><ele>57.0</ele><time>2026-04-17T02:23:56Z</time></trkpt><trkpt lat="-25.04409572113902" lon="114.28222131853506"><ele>57.0</ele><time>2026-04-17T02:23:57Z</time></trkpt><trkpt lat="-25.044083634251585" lon="114.28252612262824"><ele>57.0</ele><time>2026-04-17T02:23:58Z</time></trkpt><trkpt lat="-25.04407401475072" lon="114.28283487786732"><ele>56.5</ele><time>2026-04-17T02:23:59Z</time></trkpt><trkpt lat="-25.044063807198402" lon="114.28314442745376"><ele>56.0</ele><time>2026-04-17T02:24:00Z</time></trkpt><trkpt lat="-25.044051424407204" lon="114.28345527955052"><ele>56.0</ele><time>2026-04-17T02:24:01Z</time></trkpt><trkpt lat="-25.04403980602681" lon="114.2837693942895"><ele>56.0</ele><time>2026-04-17T02:24:02Z</time></trkpt><trkpt lat="-25.044028970137237" lon="114.28408312750142"><ele>57.0</ele><time>2026-04-17T02:24:03Z</time></trkpt><trkpt lat="-25.044018299730034" lon="114.28440184399132"><ele>58.0</ele><time>2026-04-17T02:24:04Z</time></trkpt><trkpt lat="-25.044008656772075" lon="114.28471933629248"><ele>58.0</ele><time>2026-04-17T02:24:05Z</time></trkpt><trkpt lat="-25.043998203633606" lon="114.28503897748242"><ele>58.0</ele><time>2026-04-17T02:24:06Z</time></trkpt><trkpt lat="-25.04398772183862" lon="114.28535789147924"><ele>57.5</ele><time>2026-04-17T02:24:07Z</time></trkpt><trkpt lat="-25.043976156350997" lon="114.28567504077076"><ele>57.0</ele><time>2026-04-17T02:24:08Z</time></trkpt><trkpt lat="-25.043962589648267" lon="114.28599141362118"><ele>57.0</ele><time>2026-04-17T02:24:09Z</time></trkpt><trkpt lat="-25.043948313261392" lon="114.28630531025823"><ele>57.0</ele><time>2026-04-17T02:24:10Z</time></trkpt><trkpt lat="-25.04393333832714" lon="114.28662280371594"><ele>56.5</ele><time>2026-04-17T02:24:11Z</time></trkpt><trkpt lat="-25.043917872599764" lon="114.28693949437603"><ele>56.0</ele><time>2026-04-17T02:24:12Z</time></trkpt><trkpt lat="-25.043903012028558" lon="114.28725885529182"><ele>56.5</ele><time>2026-04-17T02:24:13Z</time></trkpt><trkpt lat="-25.043891606773055" lon="114.28757665709567"><ele>57.0</ele><time>2026-04-17T02:24:14Z</time></trkpt><trkpt lat="-25.04387985662527" lon="114.28789637203872"><ele>57.5</ele><time>2026-04-17T02:24:15Z</time></trkpt><trkpt lat="-25.04386689750019" lon="114.28821227551016"><ele>58.0</ele><time>2026-04-17T02:24:16Z</time></trkpt><trkpt lat="-25.043850960602718" lon="114.28853119431537"><ele>58.0</ele><time>2026-04-17T02:24:17Z</time></trkpt><trkpt lat="-25.043833643223827" lon="114.28885430067612"><ele>58.0</ele><time>2026-04-17T02:24:18Z</time></trkpt><trkpt lat="-25.04381665286887" lon="114.28918028682939"><ele>58.0</ele><time>2026-04-17T02:24:19Z</time></trkpt><trkpt lat="-25.043803802646792" lon="114.28950310063476"><ele>58.0</ele><time>2026-04-17T02:24:20Z</time></trkpt><trkpt lat="-25.043793516482225" lon="114.28982038286568"><ele>58.0</ele><time>2026-04-17T02:24:21Z</time></trkpt><trkpt lat="-25.04378106277182" lon="114.29013390829004"><ele>58.0</ele><time>2026-04-17T02:24:22Z</time></trkpt><trkpt lat="-25.04376782499597" lon="114.2904528264802"><ele>58.0</ele><time>2026-04-17T02:24:23Z</time></trkpt><trkpt lat="-25.043754827523383" lon="114.29076667840827"><ele>58.0</ele><time>2026-04-17T02:24:24Z</time></trkpt><trkpt lat="-25.043741879291588" lon="114.2910811018221"><ele>58.0</ele><time>2026-04-17T02:24:25Z</time></trkpt><trkpt lat="-25.043730510912535" lon="114.29139557268259"><ele>58.0</ele><time>2026-04-17T02:24:26Z</time></trkpt><trkpt lat="-25.04372045618365" lon="114.2917097572106"><ele>58.0</ele><time>2026-04-17T02:24:27Z</time></trkpt><trkpt lat="-25.04371082009464" lon="114.29202640948579"><ele>58.0</ele><time>2026-04-17T02:24:28Z</time></trkpt><trkpt lat="-25.043701721503215" lon="114.29234306030409"><ele>58.0</ele><time>2026-04-17T02:24:29Z</time></trkpt><trkpt lat="-25.043691279950025" lon="114.29265605274877"><ele>58.0</ele><time>2026-04-17T02:24:30Z</time></trkpt><trkpt lat="-25.04367966357432" lon="114.29297079889697"><ele>58.5</ele><time>2026-04-17T02:24:31Z</time></trkpt><trkpt lat="-25.043666706042554" lon="114.29328714108287"><ele>59.0</ele><time>2026-04-17T02:24:32Z</time></trkpt><trkpt lat="-25.04365441271798" lon="114.2935954781585"><ele>59.0</ele><time>2026-04-17T02:24:33Z</time></trkpt><trkpt lat="-25.043645316822392" lon="114.29389975004158"><ele>59.0</ele><time>2026-04-17T02:24:34Z</time></trkpt><trkpt lat="-25.043640540946704" lon="114.29420327682277"><ele>58.5</ele><time>2026-04-17T02:24:35Z</time></trkpt><trkpt lat="-25.04364115666846" lon="114.29451456051594"><ele>58.0</ele><time>2026-04-17T02:24:36Z</time></trkpt><trkpt lat="-25.043649969877514" lon="114.29483374486135"><ele>58.0</ele><time>2026-04-17T02:24:37Z</time></trkpt><trkpt lat="-25.043667564136992" lon="114.29515518238914"><ele>58.0</ele><time>2026-04-17T02:24:38Z</time></trkpt><trkpt lat="-25.04369559603184" lon="114.29547024866008"><ele>58.5</ele><time>2026-04-17T02:24:39Z</time></trkpt><trkpt lat="-25.043736953997005" lon="114.29576723862759"><ele>59.0</ele><time>2026-04-17T02:24:40Z</time></trkpt><trkpt lat="-25.04379483099579" lon="114.29606114714196"><ele>59.0</ele><time>2026-04-17T02:24:41Z</time></trkpt><trkpt lat="-25.043869031109434" lon="114.29635773104617"><ele>59.0</ele><time>2026-04-17T02:24:42Z</time></trkpt><trkpt lat="-25.043957679505176" lon="114.29666238463038"><ele>59.0</ele><time>2026-04-17T02:24:43Z</time></trkpt><trkpt lat="-25.044057950238056" lon="114.29696227232084"><ele>59.0</ele><time>2026-04-17T02:24:44Z</time></trkpt><trkpt lat="-25.044172729086796" lon="114.2972593419576"><ele>58.5</ele><time>2026-04-17T02:24:45Z</time></trkpt><trkpt lat="-25.04430237263454" lon="114.29755242471784"><ele>58.0</ele><time>2026-04-17T02:24:46Z</time></trkpt><trkpt lat="-25.044446207676142" lon="114.29784531120274"><ele>57.5</ele><time>2026-04-17T02:24:47Z</time></trkpt><trkpt lat="-25.044594151554467" lon="114.298131636356"><ele>57.0</ele><time>2026-04-17T02:24:48Z</time></trkpt><trkpt lat="-25.04474935415296" lon="114.29841604601623"><ele>57.0</ele><time>2026-04-17T02:24:49Z</time></trkpt><trkpt lat="-25.04491584354028" lon="114.29869953457204"><ele>57.0</ele><time>2026-04-17T02:24:50Z</time></trkpt><trkpt lat="-25.045082999280844" lon="114.2989719194672"><ele>57.0</ele><time>2026-04-17T02:24:51Z</time></trkpt><trkpt lat="-25.04525218325694" lon="114.29925110966533"><ele>57.0</ele><time>2026-04-17T02:24:52Z</time></trkpt><trkpt lat="-25.04541864783322" lon="114.29952149485703"><ele>57.5</ele><time>2026-04-17T02:24:53Z</time></trkpt><trkpt lat="-25.04558007018822" lon="114.29978887322835"><ele>58.0</ele><time>2026-04-17T02:24:54Z</time></trkpt><trkpt lat="-25.045742423216044" lon="114.30005765712835"><ele>58.0</ele><time>2026-04-17T02:24:55Z</time></trkpt><trkpt lat="-25.0459065378686" lon="114.30032673477805"><ele>58.0</ele><time>2026-04-17T02:24:56Z</time></trkpt><trkpt lat="-25.046069244314612" lon="114.30059273873619"><ele>58.0</ele><time>2026-04-17T02:24:57Z</time></trkpt><trkpt lat="-25.046232294870066" lon="114.30085795896746"><ele>58.0</ele><time>2026-04-17T02:24:58Z</time></trkpt><trkpt lat="-25.04638864226501" lon="114.30112348593411"><ele>58.0</ele><time>2026-04-17T02:24:59Z</time></trkpt><trkpt lat="-25.046548346368983" lon="114.30139326928465"><ele>58.0</ele><time>2026-04-17T02:25:00Z</time></trkpt><trkpt lat="-25.046711353628815" lon="114.3016617669428"><ele>58.0</ele><time>2026-04-17T02:25:01Z</time></trkpt><trkpt lat="-25.046877489241755" lon="114.30193235378543"><ele>58.0</ele><time>2026-04-17T02:25:02Z</time></trkpt><trkpt lat="-25.047040650484615" lon="114.30220376099213"><ele>58.0</ele><time>2026-04-17T02:25:03Z</time></trkpt><trkpt lat="-25.047203860650892" lon="114.30247807758822"><ele>58.0</ele><time>2026-04-17T02:25:04Z</time></trkpt><trkpt lat="-25.04736437858835" lon="114.30275097515594"><ele>58.0</ele><time>2026-04-17T02:25:05Z</time></trkpt><trkpt lat="-25.047527541488112" lon="114.30302489752161"><ele>58.0</ele><time>2026-04-17T02:25:06Z</time></trkpt><trkpt lat="-25.04769232614578" lon="114.3032993833633"><ele>58.0</ele><time>2026-04-17T02:25:07Z</time></trkpt><trkpt lat="-25.04785782949703" lon="114.30357316771904"><ele>58.0</ele><time>2026-04-17T02:25:08Z</time></trkpt><trkpt lat="-25.048023800923932" lon="114.30384616388174"><ele>58.5</ele><time>2026-04-17T02:25:09Z</time></trkpt><trkpt lat="-25.048184423838627" lon="114.30411436698364"><ele>59.0</ele><time>2026-04-17T02:25:10Z</time></trkpt><trkpt lat="-25.04834630351815" lon="114.30438235982867"><ele>59.0</ele><time>2026-04-17T02:25:11Z</time></trkpt><trkpt lat="-25.048506771913836" lon="114.30465009963561"><ele>59.0</ele><time>2026-04-17T02:25:12Z</time></trkpt><trkpt lat="-25.048665695407642" lon="114.3049189294628"><ele>59.5</ele><time>2026-04-17T02:25:13Z</time></trkpt><trkpt lat="-25.04882507063236" lon="114.30519019392722"><ele>60.0</ele><time>2026-04-17T02:25:14Z</time></trkpt><trkpt lat="-25.048987902299736" lon="114.30546111997263"><ele>59.5</ele><time>2026-04-17T02:25:15Z</time></trkpt><trkpt lat="-25.049152307849738" lon="114.30573153342374"><ele>59.0</ele><time>2026-04-17T02:25:16Z</time></trkpt><trkpt lat="-25.04931785850935" lon="114.30600045075259"><ele>59.0</ele><time>2026-04-17T02:25:17Z</time></trkpt><trkpt lat="-25.049483853588875" lon="114.30627269005043"><ele>59.0</ele><time>2026-04-17T02:25:18Z</time></trkpt><trkpt lat="-25.04964320980707" lon="114.30654045851641"><ele>59.5</ele><time>2026-04-17T02:25:19Z</time></trkpt><trkpt lat="-25.049803776237432" lon="114.30681176581054"><ele>60.0</ele><time>2026-04-17T02:25:20Z</time></trkpt><trkpt lat="-25.04996541557088" lon="114.30708062711557"><ele>59.5</ele><time>2026-04-17T02:25:21Z</time></trkpt><trkpt lat="-25.050128771705413" lon="114.30735118898473"><ele>59.0</ele><time>2026-04-17T02:25:22Z</time></trkpt><trkpt lat="-25.050292261962795" lon="114.30762196516895"><ele>59.0</ele><time>2026-04-17T02:25:23Z</time></trkpt><trkpt lat="-25.05045641032691" lon="114.30789507305607"><ele>59.0</ele><time>2026-04-17T02:25:24Z</time></trkpt><trkpt lat="-25.05061995993792" lon="114.30816611634097"><ele>58.5</ele><time>2026-04-17T02:25:25Z</time></trkpt><trkpt lat="-25.050784980478284" lon="114.30843470028643"><ele>58.0</ele><time>2026-04-17T02:25:26Z</time></trkpt><trkpt lat="-25.050950137612578" lon="114.30870430857495"><ele>59.0</ele><time>2026-04-17T02:25:27Z</time></trkpt><trkpt lat="-25.051113848147413" lon="114.30897627845667"><ele>60.0</ele><time>2026-04-17T02:25:28Z</time></trkpt><trkpt lat="-25.051278185213295" lon="114.30924772056757"><ele>60.0</ele><time>2026-04-17T02:25:29Z</time></trkpt><trkpt lat="-25.051446097488615" lon="114.30951466386719"><ele>60.0</ele><time>2026-04-17T02:25:30Z</time></trkpt><trkpt lat="-25.05161613877388" lon="114.30977747173102"><ele>59.5</ele><time>2026-04-17T02:25:31Z</time></trkpt><trkpt lat="-25.051785130871057" lon="114.31004125041257"><ele>59.0</ele><time>2026-04-17T02:25:32Z</time></trkpt><trkpt lat="-25.051943604379137" lon="114.31029022379789"><ele>59.0</ele><time>2026-04-17T02:25:33Z</time></trkpt><trkpt lat="-25.05209688141657" lon="114.31053637422038"><ele>59.0</ele><time>2026-04-17T02:25:34Z</time></trkpt><trkpt lat="-25.052240985781882" lon="114.31077931836808"><ele>58.5</ele><time>2026-04-17T02:25:35Z</time></trkpt><trkpt lat="-25.052385617406944" lon="114.3110284224835"><ele>58.0</ele><time>2026-04-17T02:25:36Z</time></trkpt><trkpt lat="-25.052529701275095" lon="114.31128039679948"><ele>58.5</ele><time>2026-04-17T02:25:37Z</time></trkpt><trkpt lat="-25.052675702354477" lon="114.31153333616419"><ele>59.0</ele><time>2026-04-17T02:25:38Z</time></trkpt><trkpt lat="-25.05282530080715" lon="114.3117848616583"><ele>59.0</ele><time>2026-04-17T02:25:39Z</time></trkpt><trkpt lat="-25.052974735120284" lon="114.31203471597127"><ele>59.0</ele><time>2026-04-17T02:25:40Z</time></trkpt><trkpt lat="-25.053121674394212" lon="114.31228510304273"><ele>59.0</ele><time>2026-04-17T02:25:41Z</time></trkpt><trkpt lat="-25.053270831370956" lon="114.3125345648298"><ele>59.0</ele><time>2026-04-17T02:25:42Z</time></trkpt><trkpt lat="-25.053421277668583" lon="114.31278198150845"><ele>58.5</ele><time>2026-04-17T02:25:43Z</time></trkpt><trkpt lat="-25.053575600219165" lon="114.31303026442112"><ele>58.0</ele><time>2026-04-17T02:25:44Z</time></trkpt><trkpt lat="-25.053731158383147" lon="114.31328403883096"><ele>58.0</ele><time>2026-04-17T02:25:45Z</time></trkpt><trkpt lat="-25.053886727366194" lon="114.31353800314426"><ele>58.0</ele><time>2026-04-17T02:25:46Z</time></trkpt><trkpt lat="-25.05403981839258" lon="114.31378752580571"><ele>58.5</ele><time>2026-04-17T02:25:47Z</time></trkpt><trkpt lat="-25.054192687524406" lon="114.31403973272575"><ele>59.0</ele><time>2026-04-17T02:25:48Z</time></trkpt><trkpt lat="-25.05434307707784" lon="114.31428961649826"><ele>59.0</ele><time>2026-04-17T02:25:49Z</time></trkpt><trkpt lat="-25.054491175293347" lon="114.31453657270612"><ele>59.0</ele><time>2026-04-17T02:25:50Z</time></trkpt><trkpt lat="-25.05464118616702" lon="114.31478683638487"><ele>59.0</ele><time>2026-04-17T02:25:51Z</time></trkpt><trkpt lat="-25.054791732331015" lon="114.31503518292084"><ele>59.0</ele><time>2026-04-17T02:25:52Z</time></trkpt><trkpt lat="-25.05494585791897" lon="114.31528411780361"><ele>59.5</ele><time>2026-04-17T02:25:53Z</time></trkpt><trkpt lat="-25.05509895399427" lon="114.31553196423549"><ele>60.0</ele><time>2026-04-17T02:25:54Z</time></trkpt><trkpt lat="-25.055252986470585" lon="114.31578112445114"><ele>60.0</ele><time>2026-04-17T02:25:55Z</time></trkpt><trkpt lat="-25.055407144441343" lon="114.31603156081843"><ele>60.0</ele><time>2026-04-17T02:25:56Z</time></trkpt><trkpt lat="-25.055561110547973" lon="114.31628272062993"><ele>60.0</ele><time>2026-04-17T02:25:57Z</time></trkpt><trkpt lat="-25.055714964224567" lon="114.31653547799338"><ele>60.0</ele><time>2026-04-17T02:25:58Z</time></trkpt><trkpt lat="-25.055867798414106" lon="114.31678707551653"><ele>60.0</ele><time>2026-04-17T02:25:59Z</time></trkpt><trkpt lat="-25.05602190384962" lon="114.31703847242724"><ele>60.0</ele><time>2026-04-17T02:26:00Z</time></trkpt><trkpt lat="-25.05617888886736" lon="114.31729072197648"><ele>59.5</ele><time>2026-04-17T02:26:01Z</time></trkpt><trkpt lat="-25.056336337560662" lon="114.31754274702871"><ele>59.0</ele><time>2026-04-17T02:26:02Z</time></trkpt><trkpt lat="-25.056495086488784" lon="114.31780016331473"><ele>59.0</ele><time>2026-04-17T02:26:03Z</time></trkpt><trkpt lat="-25.05665353780583" lon="114.31805722934332"><ele>59.0</ele><time>2026-04-17T02:26:04Z</time></trkpt><trkpt lat="-25.0568118769721" lon="114.31831330746425"><ele>58.5</ele><time>2026-04-17T02:26:05Z</time></trkpt><trkpt lat="-25.056968306583023" lon="114.3185694777436"><ele>58.0</ele><time>2026-04-17T02:26:06Z</time></trkpt><trkpt lat="-25.057121461486364" lon="114.3188265233917"><ele>58.0</ele><time>2026-04-17T02:26:07Z</time></trkpt><trkpt lat="-25.057266700808597" lon="114.31908295363519"><ele>58.0</ele><time>2026-04-17T02:26:08Z</time></trkpt><trkpt lat="-25.05740761305072" lon="114.31934428705429"><ele>58.0</ele><time>2026-04-17T02:26:09Z</time></trkpt><trkpt lat="-25.057540524227118" lon="114.31960988433858"><ele>58.0</ele><time>2026-04-17T02:26:10Z</time></trkpt><trkpt lat="-25.057662893564885" lon="114.3198868181669"><ele>58.0</ele><time>2026-04-17T02:26:11Z</time></trkpt><trkpt lat="-25.057777083192864" lon="114.32017616324168"><ele>58.0</ele><time>2026-04-17T02:26:12Z</time></trkpt><trkpt lat="-25.0578821382761" lon="114.32046966948282"><ele>59.0</ele><time>2026-04-17T02:26:13Z</time></trkpt><trkpt lat="-25.057979589714176" lon="114.32076745518343"><ele>60.0</ele><time>2026-04-17T02:26:14Z</time></trkpt><trkpt lat="-25.058068154834565" lon="114.32107143042822"><ele>60.0</ele><time>2026-04-17T02:26:15Z</time></trkpt><trkpt lat="-25.058146354595983" lon="114.3213738285231"><ele>60.0</ele><time>2026-04-17T02:26:16Z</time></trkpt><trkpt lat="-25.058219566518098" lon="114.32167888940714"><ele>59.5</ele><time>2026-04-17T02:26:17Z</time></trkpt><trkpt lat="-25.058279958729617" lon="114.32198108253642"><ele>59.0</ele><time>2026-04-17T02:26:18Z</time></trkpt><trkpt lat="-25.05833209043848" lon="114.32228772956873"><ele>59.0</ele><time>2026-04-17T02:26:19Z</time></trkpt><trkpt lat="-25.058379961939675" lon="114.32259350047393"><ele>59.0</ele><time>2026-04-17T02:26:20Z</time></trkpt><trkpt lat="-25.05842397369653" lon="114.32289559844153"><ele>58.5</ele><time>2026-04-17T02:26:21Z</time></trkpt><trkpt lat="-25.05846714360798" lon="114.32319435143015"><ele>58.0</ele><time>2026-04-17T02:26:22Z</time></trkpt><trkpt lat="-25.058508746700944" lon="114.32349044831031"><ele>58.0</ele><time>2026-04-17T02:26:23Z</time></trkpt><trkpt lat="-25.058549958719663" lon="114.32378094332279"><ele>58.0</ele><time>2026-04-17T02:26:24Z</time></trkpt><trkpt lat="-25.05858919402834" lon="114.32407216456443"><ele>58.5</ele><time>2026-04-17T02:26:25Z</time></trkpt><trkpt lat="-25.058627856433322" lon="114.32436375906715"><ele>59.0</ele><time>2026-04-17T02:26:26Z</time></trkpt><trkpt lat="-25.058667050921287" lon="114.32465206223851"><ele>59.0</ele><time>2026-04-17T02:26:27Z</time></trkpt><trkpt lat="-25.058705202917498" lon="114.32493441225517"><ele>59.0</ele><time>2026-04-17T02:26:28Z</time></trkpt><trkpt lat="-25.05874316108153" lon="114.32521062630144"><ele>59.0</ele><time>2026-04-17T02:26:29Z</time></trkpt><trkpt lat="-25.05878658731408" lon="114.32548461987547"><ele>59.0</ele><time>2026-04-17T02:26:30Z</time></trkpt><trkpt lat="-25.058834884407236" lon="114.32575847964243"><ele>59.5</ele><time>2026-04-17T02:26:31Z</time></trkpt><trkpt lat="-25.058882294424937" lon="114.32602953401364"><ele>60.0</ele><time>2026-04-17T02:26:32Z</time></trkpt><trkpt lat="-25.0589245255467" lon="114.32628754781133"><ele>59.5</ele><time>2026-04-17T02:26:33Z</time></trkpt><trkpt lat="-25.058958681130438" lon="114.32653672351378"><ele>59.0</ele><time>2026-04-17T02:26:34Z</time></trkpt><trkpt lat="-25.058991904684593" lon="114.32677817776056"><ele>59.0</ele><time>2026-04-17T02:26:35Z</time></trkpt><trkpt lat="-25.05903118626099" lon="114.32705292217263"><ele>59.0</ele><time>2026-04-17T02:26:36Z</time></trkpt><trkpt lat="-25.059069378394124" lon="114.32733007971233"><ele>59.5</ele><time>2026-04-17T02:26:37Z</time></trkpt><trkpt lat="-25.059104234885123" lon="114.327608217492"><ele>60.0</ele><time>2026-04-17T02:26:38Z</time></trkpt><trkpt lat="-25.05913936438341" lon="114.32789000075502"><ele>60.5</ele><time>2026-04-17T02:26:39Z</time></trkpt><trkpt lat="-25.059175450580412" lon="114.32818047952678"><ele>61.0</ele><time>2026-04-17T02:26:40Z</time></trkpt><trkpt lat="-25.059213902107157" lon="114.32846755749878"><ele>61.0</ele><time>2026-04-17T02:26:41Z</time></trkpt><trkpt lat="-25.05925232754114" lon="114.32875216167425"><ele>61.0</ele><time>2026-04-17T02:26:42Z</time></trkpt><trkpt lat="-25.059290398342487" lon="114.32903224165834"><ele>63.0</ele><time>2026-04-17T02:26:43Z</time></trkpt><trkpt lat="-25.05932809849581" lon="114.32931371679796"><ele>65.0</ele><time>2026-04-17T02:26:44Z</time></trkpt><trkpt lat="-25.059367155689145" lon="114.32959623580079"><ele>64.5</ele><time>2026-04-17T02:26:45Z</time></trkpt><trkpt lat="-25.059408010178267" lon="114.32988178097034"><ele>64.0</ele><time>2026-04-17T02:26:46Z</time></trkpt><trkpt lat="-25.059446221554445" lon="114.33017339080273"><ele>64.0</ele><time>2026-04-17T02:26:47Z</time></trkpt><trkpt lat="-25.059482952462954" lon="114.3304684831436"><ele>64.0</ele><time>2026-04-17T02:26:48Z</time></trkpt><trkpt lat="-25.059522872552016" lon="114.33076559477881"><ele>62.5</ele><time>2026-04-17T02:26:49Z</time></trkpt><trkpt lat="-25.059565448979217" lon="114.33107270959852"><ele>61.0</ele><time>2026-04-17T02:26:50Z</time></trkpt><trkpt lat="-25.059610137566946" lon="114.33138288095842"><ele>60.5</ele><time>2026-04-17T02:26:51Z</time></trkpt><trkpt lat="-25.05965702659527" lon="114.33168895374493"><ele>60.0</ele><time>2026-04-17T02:26:52Z</time></trkpt><trkpt lat="-25.059702900988956" lon="114.33199947499688"><ele>60.0</ele><time>2026-04-17T02:26:53Z</time></trkpt><trkpt lat="-25.05974792060409" lon="114.33230793837794"><ele>60.0</ele><time>2026-04-17T02:26:54Z</time></trkpt><trkpt lat="-25.059792139090252" lon="114.33261771290648"><ele>60.0</ele><time>2026-04-17T02:26:55Z</time></trkpt><trkpt lat="-25.059838127015027" lon="114.33292669094482"><ele>60.0</ele><time>2026-04-17T02:26:56Z</time></trkpt><trkpt lat="-25.059884638791427" lon="114.33323538003889"><ele>60.0</ele><time>2026-04-17T02:26:57Z</time></trkpt><trkpt lat="-25.059931400520625" lon="114.33354204752703"><ele>60.0</ele><time>2026-04-17T02:26:58Z</time></trkpt><trkpt lat="-25.059976846856255" lon="114.333849163099"><ele>60.0</ele><time>2026-04-17T02:26:59Z</time></trkpt><trkpt lat="-25.060020505300383" lon="114.33415389628637"><ele>60.0</ele><time>2026-04-17T02:27:00Z</time></trkpt><trkpt lat="-25.06006371349507" lon="114.33446129509767"><ele>60.5</ele><time>2026-04-17T02:27:01Z</time></trkpt><trkpt lat="-25.06010647915185" lon="114.33476546531298"><ele>61.0</ele><time>2026-04-17T02:27:02Z</time></trkpt><trkpt lat="-25.060149010983388" lon="114.3350698942838"><ele>61.0</ele><time>2026-04-17T02:27:03Z</time></trkpt><trkpt lat="-25.06018770380267" lon="114.33537116592657"><ele>61.0</ele><time>2026-04-17T02:27:04Z</time></trkpt><trkpt lat="-25.060227847368974" lon="114.3356724595502"><ele>60.5</ele><time>2026-04-17T02:27:05Z</time></trkpt><trkpt lat="-25.060269433875582" lon="114.33597776360047"><ele>60.0</ele><time>2026-04-17T02:27:06Z</time></trkpt><trkpt lat="-25.060314365100606" lon="114.33627710096138"><ele>60.0</ele><time>2026-04-17T02:27:07Z</time></trkpt><trkpt lat="-25.060358440894635" lon="114.3365815836732"><ele>60.0</ele><time>2026-04-17T02:27:08Z</time></trkpt><trkpt lat="-25.06040046773202" lon="114.33688850243037"><ele>60.0</ele><time>2026-04-17T02:27:09Z</time></trkpt><trkpt lat="-25.060441719722537" lon="114.33719548200905"><ele>60.0</ele><time>2026-04-17T02:27:10Z</time></trkpt><trkpt lat="-25.060482260497505" lon="114.33749830210701"><ele>60.5</ele><time>2026-04-17T02:27:11Z</time></trkpt><trkpt lat="-25.060521630839283" lon="114.33780152445443"><ele>61.0</ele><time>2026-04-17T02:27:12Z</time></trkpt><trkpt lat="-25.060560652035598" lon="114.33809765685795"><ele>61.5</ele><time>2026-04-17T02:27:13Z</time></trkpt><trkpt lat="-25.060600975584848" lon="114.33838217985479"><ele>62.0</ele><time>2026-04-17T02:27:14Z</time></trkpt><trkpt lat="-25.06064200757615" lon="114.33867083124946"><ele>61.5</ele><time>2026-04-17T02:27:15Z</time></trkpt><trkpt lat="-25.060681320659853" lon="114.33895802580624"><ele>61.0</ele><time>2026-04-17T02:27:16Z</time></trkpt><trkpt lat="-25.060719844271254" lon="114.3392480254674"><ele>61.0</ele><time>2026-04-17T02:27:17Z</time></trkpt><trkpt lat="-25.060757526210143" lon="114.33954226236547"><ele>61.0</ele><time>2026-04-17T02:27:18Z</time></trkpt><trkpt lat="-25.060793780372865" lon="114.33983202491868"><ele>60.5</ele><time>2026-04-17T02:27:19Z</time></trkpt><trkpt lat="-25.06083088987328" lon="114.3401247728483"><ele>60.0</ele><time>2026-04-17T02:27:20Z</time></trkpt><trkpt lat="-25.060870882874283" lon="114.34042009042761"><ele>61.0</ele><time>2026-04-17T02:27:21Z</time></trkpt><trkpt lat="-25.06091225637459" lon="114.34071732190694"><ele>62.0</ele><time>2026-04-17T02:27:22Z</time></trkpt><trkpt lat="-25.060954445954145" lon="114.3410178394839"><ele>62.0</ele><time>2026-04-17T02:27:23Z</time></trkpt><trkpt lat="-25.060997840456633" lon="114.34131469463856"><ele>62.0</ele><time>2026-04-17T02:27:24Z</time></trkpt><trkpt lat="-25.061040953390744" lon="114.3416085392254"><ele>62.5</ele><time>2026-04-17T02:27:25Z</time></trkpt><trkpt lat="-25.06108289195122" lon="114.34190572746567"><ele>63.0</ele><time>2026-04-17T02:27:26Z</time></trkpt><trkpt lat="-25.061125634721307" lon="114.34220043509728"><ele>62.0</ele><time>2026-04-17T02:27:27Z</time></trkpt><trkpt lat="-25.06116762194316" lon="114.34249794081815"><ele>61.0</ele><time>2026-04-17T02:27:28Z</time></trkpt><trkpt lat="-25.06121079169503" lon="114.34279788722691"><ele>61.0</ele><time>2026-04-17T02:27:29Z</time></trkpt><trkpt lat="-25.06125550136179" lon="114.34309909264239"><ele>61.0</ele><time>2026-04-17T02:27:30Z</time></trkpt><trkpt lat="-25.061299766966666" lon="114.34340126310246"><ele>61.0</ele><time>2026-04-17T02:27:31Z</time></trkpt><trkpt lat="-25.061345592855165" lon="114.34370248867637"><ele>61.0</ele><time>2026-04-17T02:27:32Z</time></trkpt><trkpt lat="-25.061390908979604" lon="114.3440023351301"><ele>61.5</ele><time>2026-04-17T02:27:33Z</time></trkpt><trkpt lat="-25.061432728411432" lon="114.34430514386828"><ele>62.0</ele><time>2026-04-17T02:27:34Z</time></trkpt><trkpt lat="-25.061476015636888" lon="114.34460994353842"><ele>62.5</ele><time>2026-04-17T02:27:35Z</time></trkpt><trkpt lat="-25.061515451625993" lon="114.3449157859416"><ele>63.0</ele><time>2026-04-17T02:27:36Z</time></trkpt><trkpt lat="-25.061556014075293" lon="114.34522598206816"><ele>63.0</ele><time>2026-04-17T02:27:37Z</time></trkpt><trkpt lat="-25.061597297252717" lon="114.34552977160546"><ele>63.0</ele><time>2026-04-17T02:27:38Z</time></trkpt><trkpt lat="-25.06164027861142" lon="114.34583530795294"><ele>62.5</ele><time>2026-04-17T02:27:39Z</time></trkpt><trkpt lat="-25.061684675622892" lon="114.346146906089"><ele>62.0</ele><time>2026-04-17T02:27:40Z</time></trkpt><trkpt lat="-25.06173053123317" lon="114.34645717980287"><ele>61.5</ele><time>2026-04-17T02:27:41Z</time></trkpt><trkpt lat="-25.061777471752205" lon="114.34677063437864"><ele>61.0</ele><time>2026-04-17T02:27:42Z</time></trkpt><trkpt lat="-25.061826154776952" lon="114.34708404049485"><ele>61.5</ele><time>2026-04-17T02:27:43Z</time></trkpt><trkpt lat="-25.0618762141243" lon="114.34740152127375"><ele>62.0</ele><time>2026-04-17T02:27:44Z</time></trkpt><trkpt lat="-25.06192600645837" lon="114.34771400920017"><ele>62.0</ele><time>2026-04-17T02:27:45Z</time></trkpt><trkpt lat="-25.061974890220394" lon="114.34802915853577"><ele>62.0</ele><time>2026-04-17T02:27:46Z</time></trkpt><trkpt lat="-25.06202256887944" lon="114.34834387675932"><ele>62.0</ele><time>2026-04-17T02:27:47Z</time></trkpt><trkpt lat="-25.062070201356008" lon="114.34865909584715"><ele>62.0</ele><time>2026-04-17T02:27:48Z</time></trkpt><trkpt lat="-25.06211702273884" lon="114.34897642117704"><ele>62.0</ele><time>2026-04-17T02:27:49Z</time></trkpt><trkpt lat="-25.062164624204517" lon="114.34929327115468"><ele>62.0</ele><time>2026-04-17T02:27:50Z</time></trkpt><trkpt lat="-25.0622145401192" lon="114.34960941898164"><ele>62.0</ele><time>2026-04-17T02:27:51Z</time></trkpt><trkpt lat="-25.062264621853007" lon="114.34992519626849"><ele>62.0</ele><time>2026-04-17T02:27:52Z</time></trkpt><trkpt lat="-25.062313909422286" lon="114.35024130330717"><ele>62.0</ele><time>2026-04-17T02:27:53Z</time></trkpt><trkpt lat="-25.06236335174853" lon="114.35055930116631"><ele>62.0</ele><time>2026-04-17T02:27:54Z</time></trkpt><trkpt lat="-25.06241210475641" lon="114.35088166156228"><ele>62.0</ele><time>2026-04-17T02:27:55Z</time></trkpt><trkpt lat="-25.062459756369535" lon="114.35120221221926"><ele>62.0</ele><time>2026-04-17T02:27:56Z</time></trkpt><trkpt lat="-25.062505790454324" lon="114.35151511423358"><ele>62.0</ele><time>2026-04-17T02:27:57Z</time></trkpt><trkpt lat="-25.062549659095964" lon="114.35182835428431"><ele>62.0</ele><time>2026-04-17T02:27:58Z</time></trkpt><trkpt lat="-25.062592210596023" lon="114.35214350000668"><ele>62.0</ele><time>2026-04-17T02:27:59Z</time></trkpt><trkpt lat="-25.062633195793808" lon="114.3524586510283"><ele>62.0</ele><time>2026-04-17T02:28:00Z</time></trkpt><trkpt lat="-25.062671506894524" lon="114.35277426196836"><ele>63.0</ele><time>2026-04-17T02:28:01Z</time></trkpt><trkpt lat="-25.062704012139054" lon="114.35309243330074"><ele>64.0</ele><time>2026-04-17T02:28:02Z</time></trkpt><trkpt lat="-25.062733254962943" lon="114.35340691300841"><ele>64.0</ele><time>2026-04-17T02:28:03Z</time></trkpt><trkpt lat="-25.062757966209336" lon="114.35371618263852"><ele>64.0</ele><time>2026-04-17T02:28:04Z</time></trkpt><trkpt lat="-25.06277957029861" lon="114.35402949153281"><ele>63.5</ele><time>2026-04-17T02:28:05Z</time></trkpt><trkpt lat="-25.062800574599247" lon="114.35434340924449"><ele>63.0</ele><time>2026-04-17T02:28:06Z</time></trkpt><trkpt lat="-25.062822650891153" lon="114.35465876133206"><ele>63.0</ele><time>2026-04-17T02:28:07Z</time></trkpt><trkpt lat="-25.062845983143745" lon="114.35497383607392"><ele>63.0</ele><time>2026-04-17T02:28:08Z</time></trkpt><trkpt lat="-25.062869367726137" lon="114.35528772870666"><ele>62.5</ele><time>2026-04-17T02:28:09Z</time></trkpt><trkpt lat="-25.062888719678025" lon="114.355601701477"><ele>62.0</ele><time>2026-04-17T02:28:10Z</time></trkpt><trkpt lat="-25.06290399042324" lon="114.35591374894628"><ele>62.0</ele><time>2026-04-17T02:28:11Z</time></trkpt><trkpt lat="-25.062919678378424" lon="114.3562251964139"><ele>62.0</ele><time>2026-04-17T02:28:12Z</time></trkpt><trkpt lat="-25.06293627631293" lon="114.35653889960533"><ele>62.5</ele><time>2026-04-17T02:28:13Z</time></trkpt><trkpt lat="-25.062952423201057" lon="114.35685109033727"><ele>63.0</ele><time>2026-04-17T02:28:14Z</time></trkpt><trkpt lat="-25.062968968594696" lon="114.35716638354691"><ele>63.0</ele><time>2026-04-17T02:28:15Z</time></trkpt><trkpt lat="-25.062986491688253" lon="114.35748060248521"><ele>63.0</ele><time>2026-04-17T02:28:16Z</time></trkpt><trkpt lat="-25.06300434696954" lon="114.35779482477834"><ele>62.5</ele><time>2026-04-17T02:28:17Z</time></trkpt><trkpt lat="-25.06302236517638" lon="114.35810947211827"><ele>62.0</ele><time>2026-04-17T02:28:18Z</time></trkpt><trkpt lat="-25.06304047326428" lon="114.35842367956093"><ele>62.0</ele><time>2026-04-17T02:28:19Z</time></trkpt><trkpt lat="-25.063058823894476" lon="114.35873786329043"><ele>62.0</ele><time>2026-04-17T02:28:20Z</time></trkpt><trkpt lat="-25.063079485793462" lon="114.35904800430569"><ele>62.5</ele><time>2026-04-17T02:28:21Z</time></trkpt><trkpt lat="-25.063101663796708" lon="114.3593530689482"><ele>63.0</ele><time>2026-04-17T02:28:22Z</time></trkpt><trkpt lat="-25.063122435524992" lon="114.35965240846645"><ele>63.5</ele><time>2026-04-17T02:28:23Z</time></trkpt><trkpt lat="-25.06314691311157" lon="114.35995155371079"><ele>64.0</ele><time>2026-04-17T02:28:24Z</time></trkpt><trkpt lat="-25.06317995717264" lon="114.36024501301083"><ele>64.5</ele><time>2026-04-17T02:28:25Z</time></trkpt><trkpt lat="-25.06322554491942" lon="114.36053998437428"><ele>65.0</ele><time>2026-04-17T02:28:26Z</time></trkpt><trkpt lat="-25.063282698944636" lon="114.36082805291495"><ele>64.0</ele><time>2026-04-17T02:28:27Z</time></trkpt><trkpt lat="-25.063348345916637" lon="114.3611064743029"><ele>63.0</ele><time>2026-04-17T02:28:28Z</time></trkpt><trkpt lat="-25.06341922670447" lon="114.36137978416038"><ele>63.0</ele><time>2026-04-17T02:28:29Z</time></trkpt><trkpt lat="-25.063502965129484" lon="114.36164266694219"><ele>63.0</ele><time>2026-04-17T02:28:30Z</time></trkpt><trkpt lat="-25.0636061292714" lon="114.361897213505"><ele>63.0</ele><time>2026-04-17T02:28:31Z</time></trkpt><trkpt lat="-25.0637249498543" lon="114.36215217424152"><ele>63.0</ele><time>2026-04-17T02:28:32Z</time></trkpt><trkpt lat="-25.06385834636105" lon="114.36240070178512"><ele>63.5</ele><time>2026-04-17T02:28:33Z</time></trkpt><trkpt lat="-25.064005011029373" lon="114.36264261241894"><ele>64.0</ele><time>2026-04-17T02:28:34Z</time></trkpt><trkpt lat="-25.06416596309157" lon="114.3628795729419"><ele>63.5</ele><time>2026-04-17T02:28:35Z</time></trkpt><trkpt lat="-25.064342524610232" lon="114.3631154281862"><ele>63.0</ele><time>2026-04-17T02:28:36Z</time></trkpt><trkpt lat="-25.064531248704366" lon="114.36334952363337"><ele>63.0</ele><time>2026-04-17T02:28:37Z</time></trkpt><trkpt lat="-25.06473005422989" lon="114.36357822982369"><ele>63.0</ele><time>2026-04-17T02:28:38Z</time></trkpt><trkpt lat="-25.064926639266343" lon="114.36380061667377"><ele>63.5</ele><time>2026-04-17T02:28:39Z</time></trkpt><trkpt lat="-25.06512715021771" lon="114.36402782186582"><ele>64.0</ele><time>2026-04-17T02:28:40Z</time></trkpt><trkpt lat="-25.065328732359212" lon="114.36425367455425"><ele>64.0</ele><time>2026-04-17T02:28:41Z</time></trkpt><trkpt lat="-25.065526812507226" lon="114.36447848905311"><ele>64.0</ele><time>2026-04-17T02:28:42Z</time></trkpt><trkpt lat="-25.065721599397765" lon="114.36470174210724"><ele>64.5</ele><time>2026-04-17T02:28:43Z</time></trkpt><trkpt lat="-25.06591729259839" lon="114.36492706470368"><ele>65.0</ele><time>2026-04-17T02:28:44Z</time></trkpt><trkpt lat="-25.06611420495002" lon="114.365151384538"><ele>65.0</ele><time>2026-04-17T02:28:45Z</time></trkpt><trkpt lat="-25.066313503400252" lon="114.36537398466919"><ele>65.0</ele><time>2026-04-17T02:28:46Z</time></trkpt><trkpt lat="-25.066513424473403" lon="114.36559798963908"><ele>64.5</ele><time>2026-04-17T02:28:47Z</time></trkpt><trkpt lat="-25.066711952189944" lon="114.3658249076622"><ele>64.0</ele><time>2026-04-17T02:28:48Z</time></trkpt><trkpt lat="-25.06691025431094" lon="114.36605502257673"><ele>64.0</ele><time>2026-04-17T02:28:49Z</time></trkpt><trkpt lat="-25.067106262879744" lon="114.3662829355341"><ele>64.0</ele><time>2026-04-17T02:28:50Z</time></trkpt><trkpt lat="-25.067302377473936" lon="114.36651042239859"><ele>63.5</ele><time>2026-04-17T02:28:51Z</time></trkpt><trkpt lat="-25.067498045839812" lon="114.36673562179784"><ele>63.0</ele><time>2026-04-17T02:28:52Z</time></trkpt><trkpt lat="-25.06769422418468" lon="114.366961052818"><ele>63.0</ele><time>2026-04-17T02:28:53Z</time></trkpt><trkpt lat="-25.0678894417186" lon="114.36718459494978"><ele>63.0</ele><time>2026-04-17T02:28:54Z</time></trkpt><trkpt lat="-25.068084342839796" lon="114.36740795567452"><ele>63.5</ele><time>2026-04-17T02:28:55Z</time></trkpt><trkpt lat="-25.06828098899608" lon="114.36763388739216"><ele>64.0</ele><time>2026-04-17T02:28:56Z</time></trkpt><trkpt lat="-25.06847903644367" lon="114.36785933008004"><ele>64.0</ele><time>2026-04-17T02:28:57Z</time></trkpt><trkpt lat="-25.06867839254505" lon="114.36808348226326"><ele>64.0</ele><time>2026-04-17T02:28:58Z</time></trkpt><trkpt lat="-25.06887823346732" lon="114.36830622326816"><ele>64.0</ele><time>2026-04-17T02:28:59Z</time></trkpt><trkpt lat="-25.06907575995927" lon="114.36852905354085"><ele>64.0</ele><time>2026-04-17T02:29:00Z</time></trkpt><trkpt lat="-25.069270723986996" lon="114.3687518070224"><ele>64.0</ele><time>2026-04-17T02:29:01Z</time></trkpt><trkpt lat="-25.069465637140237" lon="114.36897584264817"><ele>64.0</ele><time>2026-04-17T02:29:02Z</time></trkpt><trkpt lat="-25.069660420654756" lon="114.3691981306655"><ele>64.0</ele><time>2026-04-17T02:29:03Z</time></trkpt><trkpt lat="-25.069856867593007" lon="114.36942047405361"><ele>64.0</ele><time>2026-04-17T02:29:04Z</time></trkpt><trkpt lat="-25.07005475113624" lon="114.3696407525403"><ele>64.0</ele><time>2026-04-17T02:29:05Z</time></trkpt><trkpt lat="-25.07025232811382" lon="114.36986471755431"><ele>64.0</ele><time>2026-04-17T02:29:06Z</time></trkpt><trkpt lat="-25.070450532346904" lon="114.37009179934209"><ele>64.0</ele><time>2026-04-17T02:29:07Z</time></trkpt><trkpt lat="-25.070648209300323" lon="114.37031795942326"><ele>64.0</ele><time>2026-04-17T02:29:08Z</time></trkpt><trkpt lat="-25.07084439326399" lon="114.37054323088034"><ele>64.0</ele><time>2026-04-17T02:29:09Z</time></trkpt><trkpt lat="-25.071044062801644" lon="114.37076994718034"><ele>64.0</ele><time>2026-04-17T02:29:10Z</time></trkpt><trkpt lat="-25.07124184416627" lon="114.37099484915264"><ele>64.0</ele><time>2026-04-17T02:29:11Z</time></trkpt><trkpt lat="-25.07143879376801" lon="114.37121649717947"><ele>64.0</ele><time>2026-04-17T02:29:12Z</time></trkpt><trkpt lat="-25.071629340878555" lon="114.3714316267662"><ele>64.5</ele><time>2026-04-17T02:29:13Z</time></trkpt><trkpt lat="-25.07181838378894" lon="114.37164789664142"><ele>65.0</ele><time>2026-04-17T02:29:14Z</time></trkpt><trkpt lat="-25.072006282163553" lon="114.37186930003266"><ele>65.0</ele><time>2026-04-17T02:29:15Z</time></trkpt><trkpt lat="-25.072193245782536" lon="114.37209043160586"><ele>65.0</ele><time>2026-04-17T02:29:16Z</time></trkpt><trkpt lat="-25.072379122487757" lon="114.37230630717633"><ele>65.5</ele><time>2026-04-17T02:29:17Z</time></trkpt><trkpt lat="-25.07256120929298" lon="114.37251659824737"><ele>66.0</ele><time>2026-04-17T02:29:18Z</time></trkpt><trkpt lat="-25.072742700239317" lon="114.37272356088724"><ele>66.0</ele><time>2026-04-17T02:29:19Z</time></trkpt><trkpt lat="-25.07292468673245" lon="114.37293042394894"><ele>66.0</ele><time>2026-04-17T02:29:20Z</time></trkpt><trkpt lat="-25.073105679582472" lon="114.3731353841341"><ele>65.5</ele><time>2026-04-17T02:29:21Z</time></trkpt><trkpt lat="-25.07328883603532" lon="114.37334436788436"><ele>65.0</ele><time>2026-04-17T02:29:22Z</time></trkpt><trkpt lat="-25.073472607502854" lon="114.37355552784734"><ele>65.0</ele><time>2026-04-17T02:29:23Z</time></trkpt><trkpt lat="-25.07365788250587" lon="114.37376799484791"><ele>65.0</ele><time>2026-04-17T02:29:24Z</time></trkpt><trkpt lat="-25.07384827502798" lon="114.37398545910457"><ele>64.5</ele><time>2026-04-17T02:29:25Z</time></trkpt><trkpt lat="-25.07404401939484" lon="114.37420774519411"><ele>64.0</ele><time>2026-04-17T02:29:26Z</time></trkpt><trkpt lat="-25.074240337964536" lon="114.3744307606733"><ele>64.0</ele><time>2026-04-17T02:29:27Z</time></trkpt><trkpt lat="-25.07443414557985" lon="114.37465517485137"><ele>64.0</ele><time>2026-04-17T02:29:28Z</time></trkpt><trkpt lat="-25.074625813996672" lon="114.37487728596548"><ele>64.0</ele><time>2026-04-17T02:29:29Z</time></trkpt><trkpt lat="-25.074821458447456" lon="114.37510137370917"><ele>64.0</ele><time>2026-04-17T02:29:30Z</time></trkpt><trkpt lat="-25.07501930097531" lon="114.37532484312918"><ele>64.5</ele><time>2026-04-17T02:29:31Z</time></trkpt><trkpt lat="-25.0752174167266" lon="114.37554773056945"><ele>65.0</ele><time>2026-04-17T02:29:32Z</time></trkpt><trkpt lat="-25.075413262201526" lon="114.37577200782668"><ele>65.0</ele><time>2026-04-17T02:29:33Z</time></trkpt><trkpt lat="-25.07560997898622" lon="114.37599974936185"><ele>65.0</ele><time>2026-04-17T02:29:34Z</time></trkpt><trkpt lat="-25.075804213468302" lon="114.37622828565014"><ele>64.5</ele><time>2026-04-17T02:29:35Z</time></trkpt><trkpt lat="-25.075999812784595" lon="114.3764557743195"><ele>64.0</ele><time>2026-04-17T02:29:36Z</time></trkpt><trkpt lat="-25.076200283764976" lon="114.37668415625306"><ele>64.0</ele><time>2026-04-17T02:29:37Z</time></trkpt><trkpt lat="-25.076401036593257" lon="114.37690953990185"><ele>64.0</ele><time>2026-04-17T02:29:38Z</time></trkpt><trkpt lat="-25.076601835418263" lon="114.37713452757532"><ele>64.0</ele><time>2026-04-17T02:29:39Z</time></trkpt><trkpt lat="-25.076799577331702" lon="114.37736165929856"><ele>64.0</ele><time>2026-04-17T02:29:40Z</time></trkpt><trkpt lat="-25.076998267382024" lon="114.3775872568243"><ele>64.0</ele><time>2026-04-17T02:29:41Z</time></trkpt><trkpt lat="-25.07719538338158" lon="114.3778104303664"><ele>64.0</ele><time>2026-04-17T02:29:42Z</time></trkpt><trkpt lat="-25.07739345660177" lon="114.37803747670819"><ele>65.0</ele><time>2026-04-17T02:29:43Z</time></trkpt><trkpt lat="-25.07758921070683" lon="114.37826315871523"><ele>66.0</ele><time>2026-04-17T02:29:44Z</time></trkpt><trkpt lat="-25.077784065210864" lon="114.37848859495669"><ele>66.0</ele><time>2026-04-17T02:29:45Z</time></trkpt><trkpt lat="-25.07798204933696" lon="114.37871494733682"><ele>66.0</ele><time>2026-04-17T02:29:46Z</time></trkpt><trkpt lat="-25.078178355193696" lon="114.37893610194114"><ele>65.5</ele><time>2026-04-17T02:29:47Z</time></trkpt><trkpt lat="-25.078374931359285" lon="114.37915916590111"><ele>65.0</ele><time>2026-04-17T02:29:48Z</time></trkpt><trkpt lat="-25.07857181024948" lon="114.37938430667009"><ele>65.0</ele><time>2026-04-17T02:29:49Z</time></trkpt><trkpt lat="-25.078766404559115" lon="114.37960883873207"><ele>65.0</ele><time>2026-04-17T02:29:50Z</time></trkpt><trkpt lat="-25.078963308162454" lon="114.37983644265304"><ele>64.5</ele><time>2026-04-17T02:29:51Z</time></trkpt><trkpt lat="-25.0791617183771" lon="114.38006204272772"><ele>64.0</ele><time>2026-04-17T02:29:52Z</time></trkpt><trkpt lat="-25.079359621971193" lon="114.3802804261375"><ele>64.0</ele><time>2026-04-17T02:29:53Z</time></trkpt><trkpt lat="-25.079560029685066" lon="114.38049658048669"><ele>64.0</ele><time>2026-04-17T02:29:54Z</time></trkpt><trkpt lat="-25.07975996210203" lon="114.38071138645498"><ele>64.5</ele><time>2026-04-17T02:29:55Z</time></trkpt><trkpt lat="-25.079961364729254" lon="114.38091997475058"><ele>65.0</ele><time>2026-04-17T02:29:56Z</time></trkpt><trkpt lat="-25.080172992943062" lon="114.38111876385973"><ele>65.0</ele><time>2026-04-17T02:29:57Z</time></trkpt><trkpt lat="-25.080396807388723" lon="114.38130664352683"><ele>65.0</ele><time>2026-04-17T02:29:58Z</time></trkpt><trkpt lat="-25.080627381867604" lon="114.3814861171739"><ele>65.0</ele><time>2026-04-17T02:29:59Z</time></trkpt><trkpt lat="-25.08086332830528" lon="114.38166011127588"><ele>65.0</ele><time>2026-04-17T02:30:00Z</time></trkpt><trkpt lat="-25.081103409303957" lon="114.38182880230377"><ele>65.0</ele><time>2026-04-17T02:30:01Z</time></trkpt><trkpt lat="-25.08134168842922" lon="114.38199565410336"><ele>65.0</ele><time>2026-04-17T02:30:02Z</time></trkpt><trkpt lat="-25.081583973311634" lon="114.38216596469583"><ele>65.0</ele><time>2026-04-17T02:30:03Z</time></trkpt><trkpt lat="-25.08182513721249" lon="114.38233585618495"><ele>65.0</ele><time>2026-04-17T02:30:04Z</time></trkpt><trkpt lat="-25.082067417991603" lon="114.38250814704429"><ele>65.0</ele><time>2026-04-17T02:30:05Z</time></trkpt><trkpt lat="-25.082308039472984" lon="114.38268123142073"><ele>65.0</ele><time>2026-04-17T02:30:06Z</time></trkpt><trkpt lat="-25.082551049803097" lon="114.38285532400252"><ele>65.0</ele><time>2026-04-17T02:30:07Z</time></trkpt><trkpt lat="-25.08279599311159" lon="114.3830274393588"><ele>65.0</ele><time>2026-04-17T02:30:08Z</time></trkpt><trkpt lat="-25.08303983431058" lon="114.38319613145133"><ele>65.0</ele><time>2026-04-17T02:30:09Z</time></trkpt><trkpt lat="-25.083283894063964" lon="114.38336200015766"><ele>65.0</ele><time>2026-04-17T02:30:10Z</time></trkpt><trkpt lat="-25.083525406016797" lon="114.38352802466657"><ele>65.0</ele><time>2026-04-17T02:30:11Z</time></trkpt><trkpt lat="-25.08376254494887" lon="114.38369250986717"><ele>65.0</ele><time>2026-04-17T02:30:12Z</time></trkpt><trkpt lat="-25.08399469203964" lon="114.38385501716436"><ele>65.0</ele><time>2026-04-17T02:30:13Z</time></trkpt><trkpt lat="-25.084228133863704" lon="114.38401822118443"><ele>65.0</ele><time>2026-04-17T02:30:14Z</time></trkpt><trkpt lat="-25.084461948040424" lon="114.38417928106394"><ele>65.0</ele><time>2026-04-17T02:30:15Z</time></trkpt><trkpt lat="-25.08469516040512" lon="114.38434159811315"><ele>65.0</ele><time>2026-04-17T02:30:16Z</time></trkpt><trkpt lat="-25.08492773957305" lon="114.38450375412215"><ele>65.0</ele><time>2026-04-17T02:30:17Z</time></trkpt><trkpt lat="-25.085157994573954" lon="114.38466904171082"><ele>65.0</ele><time>2026-04-17T02:30:18Z</time></trkpt><trkpt lat="-25.085389421625962" lon="114.3848376204286"><ele>65.5</ele><time>2026-04-17T02:30:19Z</time></trkpt><trkpt lat="-25.085617337732266" lon="114.38500202072495"><ele>66.0</ele><time>2026-04-17T02:30:20Z</time></trkpt><trkpt lat="-25.08585046369283" lon="114.38516468660349"><ele>66.0</ele><time>2026-04-17T02:30:21Z</time></trkpt><trkpt lat="-25.086082066366735" lon="114.3853250732582"><ele>66.0</ele><time>2026-04-17T02:30:22Z</time></trkpt><trkpt lat="-25.086315288901453" lon="114.38548489639953"><ele>66.0</ele><time>2026-04-17T02:30:23Z</time></trkpt><trkpt lat="-25.086546031936937" lon="114.3856484414407"><ele>66.0</ele><time>2026-04-17T02:30:24Z</time></trkpt><trkpt lat="-25.086778049669146" lon="114.38581303034977"><ele>66.0</ele><time>2026-04-17T02:30:25Z</time></trkpt><trkpt lat="-25.087010217932267" lon="114.38597586446012"><ele>66.0</ele><time>2026-04-17T02:30:26Z</time></trkpt><trkpt lat="-25.087239645998448" lon="114.38613511209861"><ele>66.0</ele><time>2026-04-17T02:30:27Z</time></trkpt><trkpt lat="-25.087470575755855" lon="114.38629533199654"><ele>66.0</ele><time>2026-04-17T02:30:28Z</time></trkpt><trkpt lat="-25.08769720354416" lon="114.38645436415477"><ele>65.0</ele><time>2026-04-17T02:30:29Z</time></trkpt><trkpt lat="-25.087915120119032" lon="114.38660782409009"><ele>64.0</ele><time>2026-04-17T02:30:30Z</time></trkpt><trkpt lat="-25.08811979861765" lon="114.38675153211743"><ele>64.0</ele><time>2026-04-17T02:30:31Z</time></trkpt><trkpt lat="-25.08830688564418" lon="114.3868854139268"><ele>64.0</ele><time>2026-04-17T02:30:32Z</time></trkpt><trkpt lat="-25.088481455966594" lon="114.38700789585018"><ele>64.0</ele><time>2026-04-17T02:30:33Z</time></trkpt><trkpt lat="-25.088633789711732" lon="114.38711364885397"><ele>64.25</ele><time>2026-04-17T02:30:34Z</time></trkpt><trkpt lat="-25.08876804160624" lon="114.387204876865"><ele>64.5</ele><time>2026-04-17T02:30:35Z</time></trkpt><trkpt lat="-25.088883558851343" lon="114.38728471019812"><ele>64.75</ele><time>2026-04-17T02:30:36Z</time></trkpt><trkpt lat="-25.088985495420452" lon="114.38735340141928"><ele>65.0</ele><time>2026-04-17T02:30:37Z</time></trkpt><trkpt lat="-25.089069999430816" lon="114.38740812938528"><ele>65.0</ele><time>2026-04-17T02:30:38Z</time></trkpt><trkpt lat="-25.089139662826707" lon="114.3874552265838"><ele>65.0</ele><time>2026-04-17T02:30:39Z</time></trkpt><trkpt lat="-25.089197237647426" lon="114.38751305951382"><ele>65.0</ele><time>2026-04-17T02:30:40Z</time></trkpt><trkpt lat="-25.089239191878267" lon="114.38759060649812"><ele>65.0</ele><time>2026-04-17T02:30:41Z</time></trkpt><trkpt lat="-25.089257120208146" lon="114.38767778846916"><ele>65.0</ele><time>2026-04-17T02:30:42Z</time></trkpt><trkpt lat="-25.089255462531682" lon="114.38778225652194"><ele>65.0</ele><time>2026-04-17T02:30:43Z</time></trkpt><trkpt lat="-25.089237203225444" lon="114.38791759142138"><ele>65.0</ele><time>2026-04-17T02:30:44Z</time></trkpt><trkpt lat="-25.08920837792454" lon="114.38806246774845"><ele>65.0</ele><time>2026-04-17T02:30:45Z</time></trkpt><trkpt lat="-25.08916434393411" lon="114.38821648140606"><ele>65.0</ele><time>2026-04-17T02:30:46Z</time></trkpt><trkpt lat="-25.08910915617668" lon="114.38838952427515"><ele>65.0</ele><time>2026-04-17T02:30:47Z</time></trkpt><trkpt lat="-25.089049337243768" lon="114.3885740279581"><ele>65.0</ele><time>2026-04-17T02:30:48Z</time></trkpt><trkpt lat="-25.08898961161692" lon="114.38876596122198"><ele>65.0</ele><time>2026-04-17T02:30:49Z</time></trkpt><trkpt lat="-25.08892994665074" lon="114.38898188115334"><ele>65.0</ele><time>2026-04-17T02:30:50Z</time></trkpt><trkpt lat="-25.088869943524948" lon="114.38920893366515"><ele>65.33333333333334</ele><time>2026-04-17T02:30:51Z</time></trkpt><trkpt lat="-25.088808129751975" lon="114.3894395334817"><ele>65.66666666666667</ele><time>2026-04-17T02:30:52Z</time></trkpt><trkpt lat="-25.088739807401048" lon="114.38968204656125"><ele>66.0</ele><time>2026-04-17T02:30:53Z</time></trkpt><trkpt lat="-25.088664994703556" lon="114.38994710365063"><ele>66.0</ele><time>2026-04-17T02:30:54Z</time></trkpt><trkpt lat="-25.088591157373386" lon="114.39022436701295"><ele>66.0</ele><time>2026-04-17T02:30:55Z</time></trkpt><trkpt lat="-25.088522275196485" lon="114.39049687836008"><ele>65.5</ele><time>2026-04-17T02:30:56Z</time></trkpt><trkpt lat="-25.088454992279285" lon="114.39078400219584"><ele>65.0</ele><time>2026-04-17T02:30:57Z</time></trkpt><trkpt lat="-25.08839601215384" lon="114.3910827933877"><ele>65.5</ele><time>2026-04-17T02:30:58Z</time></trkpt><trkpt lat="-25.088345073030816" lon="114.39138129892385"><ele>66.0</ele><time>2026-04-17T02:30:59Z</time></trkpt><trkpt lat="-25.0883022823531" lon="114.39167168740573"><ele>66.0</ele><time>2026-04-17T02:31:00Z</time></trkpt><trkpt lat="-25.088269563232494" lon="114.39196568410028"><ele>66.0</ele><time>2026-04-17T02:31:01Z</time></trkpt><trkpt lat="-25.088242360498082" lon="114.39226361523237"><ele>66.0</ele><time>2026-04-17T02:31:02Z</time></trkpt><trkpt lat="-25.08821751420224" lon="114.39256937963722"><ele>66.0</ele><time>2026-04-17T02:31:03Z</time></trkpt><trkpt lat="-25.088189803071433" lon="114.39287328709898"><ele>66.5</ele><time>2026-04-17T02:31:04Z</time></trkpt><trkpt lat="-25.088162703096714" lon="114.39317547257494"><ele>67.0</ele><time>2026-04-17T02:31:05Z</time></trkpt><trkpt lat="-25.088136931547997" lon="114.39347914036263"><ele>67.0</ele><time>2026-04-17T02:31:06Z</time></trkpt><trkpt lat="-25.088110886631515" lon="114.39378269336429"><ele>67.0</ele><time>2026-04-17T02:31:07Z</time></trkpt><trkpt lat="-25.08808570387229" lon="114.39408300889971"><ele>66.5</ele><time>2026-04-17T02:31:08Z</time></trkpt><trkpt lat="-25.08806008532326" lon="114.39438989021815"><ele>66.0</ele><time>2026-04-17T02:31:09Z</time></trkpt><trkpt lat="-25.08803363722155" lon="114.39469529687815"><ele>66.0</ele><time>2026-04-17T02:31:10Z</time></trkpt><trkpt lat="-25.08800616697333" lon="114.39499983922268"><ele>66.0</ele><time>2026-04-17T02:31:11Z</time></trkpt><trkpt lat="-25.087977800674548" lon="114.3953025949967"><ele>67.0</ele><time>2026-04-17T02:31:12Z</time></trkpt><trkpt lat="-25.087950715251516" lon="114.3956050751785"><ele>68.0</ele><time>2026-04-17T02:31:13Z</time></trkpt><trkpt lat="-25.08792550152182" lon="114.39590393904325"><ele>68.0</ele><time>2026-04-17T02:31:14Z</time></trkpt><trkpt lat="-25.08789961834949" lon="114.39620372817363"><ele>68.0</ele><time>2026-04-17T02:31:15Z</time></trkpt><trkpt lat="-25.08787283448071" lon="114.39650144423132"><ele>67.0</ele><time>2026-04-17T02:31:16Z</time></trkpt><trkpt lat="-25.087844539625603" lon="114.3967905607756"><ele>66.0</ele><time>2026-04-17T02:31:17Z</time></trkpt><trkpt lat="-25.087815668960236" lon="114.39708636967426"><ele>66.0</ele><time>2026-04-17T02:31:18Z</time></trkpt><trkpt lat="-25.087787636742434" lon="114.39738227666886"><ele>66.0</ele><time>2026-04-17T02:31:19Z</time></trkpt><trkpt lat="-25.087759992408838" lon="114.39767381614784"><ele>66.0</ele><time>2026-04-17T02:31:20Z</time></trkpt><trkpt lat="-25.087733374879576" lon="114.39796779111272"><ele>66.0</ele><time>2026-04-17T02:31:21Z</time></trkpt><trkpt lat="-25.087706849467242" lon="114.39826283039542"><ele>66.0</ele><time>2026-04-17T02:31:22Z</time></trkpt><trkpt lat="-25.08768131680253" lon="114.39855865872138"><ele>66.0</ele><time>2026-04-17T02:31:23Z</time></trkpt><trkpt lat="-25.08765422682135" lon="114.39885115226791"><ele>66.0</ele><time>2026-04-17T02:31:24Z</time></trkpt><trkpt lat="-25.087625608594895" lon="114.39914818784573"><ele>66.0</ele><time>2026-04-17T02:31:25Z</time></trkpt><trkpt lat="-25.0875988630939" lon="114.39944393090975"><ele>66.0</ele><time>2026-04-17T02:31:26Z</time></trkpt><trkpt lat="-25.087574832304153" lon="114.39974193988802"><ele>66.0</ele><time>2026-04-17T02:31:27Z</time></trkpt><trkpt lat="-25.087549170990986" lon="114.4000416600194"><ele>66.0</ele><time>2026-04-17T02:31:28Z</time></trkpt><trkpt lat="-25.087520203662354" lon="114.40034354168112"><ele>66.0</ele><time>2026-04-17T02:31:29Z</time></trkpt><trkpt lat="-25.08749240657386" lon="114.40064523659593"><ele>65.5</ele><time>2026-04-17T02:31:30Z</time></trkpt><trkpt lat="-25.087463950967052" lon="114.40094902702978"><ele>65.0</ele><time>2026-04-17T02:31:31Z</time></trkpt><trkpt lat="-25.08743594503222" lon="114.40125597281322"><ele>66.0</ele><time>2026-04-17T02:31:32Z</time></trkpt><trkpt lat="-25.087410460917447" lon="114.40155925592076"><ele>67.0</ele><time>2026-04-17T02:31:33Z</time></trkpt><trkpt lat="-25.087383874564694" lon="114.40186488079604"><ele>67.0</ele><time>2026-04-17T02:31:34Z</time></trkpt><trkpt lat="-25.087357114689084" lon="114.40217021316192"><ele>67.0</ele><time>2026-04-17T02:31:35Z</time></trkpt><trkpt lat="-25.08732804268053" lon="114.40247876693496"><ele>67.0</ele><time>2026-04-17T02:31:36Z</time></trkpt><trkpt lat="-25.087301170316117" lon="114.40278810908183"><ele>67.0</ele><time>2026-04-17T02:31:37Z</time></trkpt><trkpt lat="-25.08727485801304" lon="114.40309884859224"><ele>67.0</ele><time>2026-04-17T02:31:38Z</time></trkpt><trkpt lat="-25.087245645908745" lon="114.40340732011475"><ele>67.0</ele><time>2026-04-17T02:31:39Z</time></trkpt><trkpt lat="-25.087214798427492" lon="114.40372266796737"><ele>66.5</ele><time>2026-04-17T02:31:40Z</time></trkpt><trkpt lat="-25.08718459173796" lon="114.40404056698557"><ele>66.0</ele><time>2026-04-17T02:31:41Z</time></trkpt><trkpt lat="-25.087157366465203" lon="114.40435761950557"><ele>66.5</ele><time>2026-04-17T02:31:42Z</time></trkpt><trkpt lat="-25.087132241999893" lon="114.40467049437663"><ele>67.0</ele><time>2026-04-17T02:31:43Z</time></trkpt><trkpt lat="-25.08710518402556" lon="114.40498447607357"><ele>67.0</ele><time>2026-04-17T02:31:44Z</time></trkpt><trkpt lat="-25.08707725900307" lon="114.40529651027944"><ele>67.0</ele><time>2026-04-17T02:31:45Z</time></trkpt><trkpt lat="-25.087047969743484" lon="114.40561106266786"><ele>67.5</ele><time>2026-04-17T02:31:46Z</time></trkpt><trkpt lat="-25.087016843091014" lon="114.40592438657184"><ele>68.0</ele><time>2026-04-17T02:31:47Z</time></trkpt><trkpt lat="-25.086986651588873" lon="114.40624282403844"><ele>68.0</ele><time>2026-04-17T02:31:48Z</time></trkpt><trkpt lat="-25.08695749017039" lon="114.40656545829461"><ele>68.0</ele><time>2026-04-17T02:31:49Z</time></trkpt><trkpt lat="-25.086930609889684" lon="114.40688572584699"><ele>67.5</ele><time>2026-04-17T02:31:50Z</time></trkpt><trkpt lat="-25.086904069995793" lon="114.40720892704647"><ele>67.0</ele><time>2026-04-17T02:31:51Z</time></trkpt><trkpt lat="-25.0868774471264" lon="114.40753029441352"><ele>67.0</ele><time>2026-04-17T02:31:52Z</time></trkpt><trkpt lat="-25.086848600659067" lon="114.40785680182407"><ele>67.0</ele><time>2026-04-17T02:31:53Z</time></trkpt><trkpt lat="-25.08681889355647" lon="114.40817978506453"><ele>66.5</ele><time>2026-04-17T02:31:54Z</time></trkpt><trkpt lat="-25.086789092316213" lon="114.40850142197691"><ele>66.0</ele><time>2026-04-17T02:31:55Z</time></trkpt><trkpt lat="-25.08675903099972" lon="114.40882355611967"><ele>67.5</ele><time>2026-04-17T02:31:56Z</time></trkpt><trkpt lat="-25.08672933367722" lon="114.4091457697097"><ele>69.0</ele><time>2026-04-17T02:31:57Z</time></trkpt><trkpt lat="-25.086702793112106" lon="114.40946750869915"><ele>69.0</ele><time>2026-04-17T02:31:58Z</time></trkpt><trkpt lat="-25.086675992979096" lon="114.40978822502859"><ele>69.0</ele><time>2026-04-17T02:31:59Z</time></trkpt><trkpt lat="-25.086647364847714" lon="114.41011256006745"><ele>69.0</ele><time>2026-04-17T02:32:00Z</time></trkpt><trkpt lat="-25.08661882449681" lon="114.41044159816664"><ele>69.0</ele><time>2026-04-17T02:32:01Z</time></trkpt><trkpt lat="-25.086588354511438" lon="114.4107764582156"><ele>69.0</ele><time>2026-04-17T02:32:02Z</time></trkpt><trkpt lat="-25.086558376148318" lon="114.41110799323823"><ele>69.0</ele><time>2026-04-17T02:32:03Z</time></trkpt><trkpt lat="-25.086528288756753" lon="114.4114351654354"><ele>69.0</ele><time>2026-04-17T02:32:04Z</time></trkpt><trkpt lat="-25.086497165290123" lon="114.41176082489966"><ele>69.0</ele><time>2026-04-17T02:32:05Z</time></trkpt><trkpt lat="-25.086467125578043" lon="114.41208146223434"><ele>69.5</ele><time>2026-04-17T02:32:06Z</time></trkpt><trkpt lat="-25.08643789773386" lon="114.41239959306348"><ele>70.0</ele><time>2026-04-17T02:32:07Z</time></trkpt><trkpt lat="-25.08640801344802" lon="114.41271655582139"><ele>69.0</ele><time>2026-04-17T02:32:08Z</time></trkpt><trkpt lat="-25.086382647357734" lon="114.41303149325124"><ele>68.0</ele><time>2026-04-17T02:32:09Z</time></trkpt><trkpt lat="-25.086362945792313" lon="114.41334791146888"><ele>68.0</ele><time>2026-04-17T02:32:10Z</time></trkpt><trkpt lat="-25.08635382001866" lon="114.41366208813305"><ele>68.0</ele><time>2026-04-17T02:32:11Z</time></trkpt><trkpt lat="-25.086354548941156" lon="114.4139781355578"><ele>68.5</ele><time>2026-04-17T02:32:12Z</time></trkpt><trkpt lat="-25.086366539070436" lon="114.41429646176488"><ele>69.0</ele><time>2026-04-17T02:32:13Z</time></trkpt><trkpt lat="-25.086397005470364" lon="114.41460706151504"><ele>69.0</ele><time>2026-04-17T02:32:14Z</time></trkpt><trkpt lat="-25.08644537583964" lon="114.41491377048739"><ele>69.0</ele><time>2026-04-17T02:32:15Z</time></trkpt><trkpt lat="-25.08651221529346" lon="114.41521372208042"><ele>69.0</ele><time>2026-04-17T02:32:16Z</time></trkpt><trkpt lat="-25.086598594631212" lon="114.41551168246288"><ele>69.0</ele><time>2026-04-17T02:32:17Z</time></trkpt><trkpt lat="-25.086697183004453" lon="114.41580554004445"><ele>69.0</ele><time>2026-04-17T02:32:18Z</time></trkpt><trkpt lat="-25.086806521737607" lon="114.41609475071952"><ele>69.0</ele><time>2026-04-17T02:32:19Z</time></trkpt><trkpt lat="-25.086927949785736" lon="114.41637908950186"><ele>69.0</ele><time>2026-04-17T02:32:20Z</time></trkpt><trkpt lat="-25.087062336873675" lon="114.41666002835699"><ele>69.0</ele><time>2026-04-17T02:32:21Z</time></trkpt><trkpt lat="-25.08720790179429" lon="114.41693648138848"><ele>69.0</ele><time>2026-04-17T02:32:22Z</time></trkpt><trkpt lat="-25.08736487562869" lon="114.41720570767912"><ele>69.0</ele><time>2026-04-17T02:32:23Z</time></trkpt><trkpt lat="-25.08753304585972" lon="114.41746553427727"><ele>68.5</ele><time>2026-04-17T02:32:24Z</time></trkpt><trkpt lat="-25.087709796398894" lon="114.41772036315876"><ele>68.0</ele><time>2026-04-17T02:32:25Z</time></trkpt><trkpt lat="-25.087890519097616" lon="114.41797510004649"><ele>68.0</ele><time>2026-04-17T02:32:26Z</time></trkpt><trkpt lat="-25.088069911589315" lon="114.41822640671653"><ele>68.0</ele><time>2026-04-17T02:32:27Z</time></trkpt><trkpt lat="-25.08824394796947" lon="114.41847461711285"><ele>68.0</ele><time>2026-04-17T02:32:28Z</time></trkpt><trkpt lat="-25.088418555792696" lon="114.41872384278741"><ele>68.0</ele><time>2026-04-17T02:32:29Z</time></trkpt><trkpt lat="-25.08859328541337" lon="114.41897449189915"><ele>68.0</ele><time>2026-04-17T02:32:30Z</time></trkpt><trkpt lat="-25.088765765829862" lon="114.41922871240305"><ele>68.0</ele><time>2026-04-17T02:32:31Z</time></trkpt><trkpt lat="-25.088935496031503" lon="114.4194831355962"><ele>67.5</ele><time>2026-04-17T02:32:32Z</time></trkpt><trkpt lat="-25.0891089835094" lon="114.4197383876279"><ele>67.0</ele><time>2026-04-17T02:32:33Z</time></trkpt><trkpt lat="-25.089282119485727" lon="114.41998783072401"><ele>67.0</ele><time>2026-04-17T02:32:34Z</time></trkpt><trkpt lat="-25.089453344860463" lon="114.4202316360494"><ele>67.0</ele><time>2026-04-17T02:32:35Z</time></trkpt><trkpt lat="-25.08962162689341" lon="114.42047025001575"><ele>67.5</ele><time>2026-04-17T02:32:36Z</time></trkpt><trkpt lat="-25.089788514912033" lon="114.42070561545542"><ele>68.0</ele><time>2026-04-17T02:32:37Z</time></trkpt><trkpt lat="-25.089953279723417" lon="114.42093920364864"><ele>68.0</ele><time>2026-04-17T02:32:38Z</time></trkpt><trkpt lat="-25.090115796033334" lon="114.42117427270945"><ele>68.0</ele><time>2026-04-17T02:32:39Z</time></trkpt><trkpt lat="-25.09027524481829" lon="114.42140841903657"><ele>68.0</ele><time>2026-04-17T02:32:40Z</time></trkpt><trkpt lat="-25.090430290511758" lon="114.42163567751693"><ele>68.0</ele><time>2026-04-17T02:32:41Z</time></trkpt><trkpt lat="-25.090582714038288" lon="114.42185745626314"><ele>68.0</ele><time>2026-04-17T02:32:42Z</time></trkpt><trkpt lat="-25.090735432065536" lon="114.42207713352671"><ele>68.0</ele><time>2026-04-17T02:32:43Z</time></trkpt><trkpt lat="-25.09088683457336" lon="114.42229762237645"><ele>68.0</ele><time>2026-04-17T02:32:44Z</time></trkpt><trkpt lat="-25.091040782761386" lon="114.4225245783697"><ele>68.0</ele><time>2026-04-17T02:32:45Z</time></trkpt><trkpt lat="-25.09119235969034" lon="114.42274866200057"><ele>68.0</ele><time>2026-04-17T02:32:46Z</time></trkpt><trkpt lat="-25.09134056325159" lon="114.42296645832323"><ele>68.0</ele><time>2026-04-17T02:32:47Z</time></trkpt><trkpt lat="-25.091489525248985" lon="114.42318079961206"><ele>68.5</ele><time>2026-04-17T02:32:48Z</time></trkpt><trkpt lat="-25.09164170894269" lon="114.42340058832427"><ele>69.0</ele><time>2026-04-17T02:32:49Z</time></trkpt><trkpt lat="-25.091801549520806" lon="114.42363364530003"><ele>68.5</ele><time>2026-04-17T02:32:50Z</time></trkpt><trkpt lat="-25.09195646805822" lon="114.42385628194158"><ele>68.0</ele><time>2026-04-17T02:32:51Z</time></trkpt><trkpt lat="-25.092106384472995" lon="114.42406868410434"><ele>68.0</ele><time>2026-04-17T02:32:52Z</time></trkpt><trkpt lat="-25.092263189793535" lon="114.4242867750446"><ele>68.0</ele><time>2026-04-17T02:32:53Z</time></trkpt><trkpt lat="-25.092426052903875" lon="114.42451260134617"><ele>68.5</ele><time>2026-04-17T02:32:54Z</time></trkpt><trkpt lat="-25.09259619536858" lon="114.42475256106763"><ele>69.0</ele><time>2026-04-17T02:32:55Z</time></trkpt><trkpt lat="-25.092773441954243" lon="114.42500833014367"><ele>69.0</ele><time>2026-04-17T02:32:56Z</time></trkpt><trkpt lat="-25.09296343281246" lon="114.42528059425777"><ele>69.0</ele><time>2026-04-17T02:32:57Z</time></trkpt><trkpt lat="-25.09315663096295" lon="114.42555881840342"><ele>69.0</ele><time>2026-04-17T02:32:58Z</time></trkpt><trkpt lat="-25.093340852853842" lon="114.42583275890101"><ele>69.0</ele><time>2026-04-17T02:32:59Z</time></trkpt><trkpt lat="-25.0935149255813" lon="114.42609801201465"><ele>69.0</ele><time>2026-04-17T02:33:00Z</time></trkpt><trkpt lat="-25.093686707932164" lon="114.42635749284106"><ele>69.0</ele><time>2026-04-17T02:33:01Z</time></trkpt><trkpt lat="-25.093857155944264" lon="114.42661071123649"><ele>69.0</ele><time>2026-04-17T02:33:02Z</time></trkpt><trkpt lat="-25.094028663264844" lon="114.42686386852637"><ele>69.0</ele><time>2026-04-17T02:33:03Z</time></trkpt><trkpt lat="-25.094198887189027" lon="114.42710983194118"><ele>70.0</ele><time>2026-04-17T02:33:04Z</time></trkpt><trkpt lat="-25.09436730895162" lon="114.42735280334294"><ele>71.0</ele><time>2026-04-17T02:33:05Z</time></trkpt><trkpt lat="-25.09453288996178" lon="114.42759693301517"><ele>71.0</ele><time>2026-04-17T02:33:06Z</time></trkpt><trkpt lat="-25.0946996462186" lon="114.4278393928931"><ele>71.0</ele><time>2026-04-17T02:33:07Z</time></trkpt><trkpt lat="-25.094869403861942" lon="114.42808102711957"><ele>70.5</ele><time>2026-04-17T02:33:08Z</time></trkpt><trkpt lat="-25.095038960600522" lon="114.42832059318924"><ele>70.0</ele><time>2026-04-17T02:33:09Z</time></trkpt><trkpt lat="-25.09520947417736" lon="114.42856320214212"><ele>70.0</ele><time>2026-04-17T02:33:10Z</time></trkpt><trkpt lat="-25.095377828549292" lon="114.42880325302065"><ele>70.0</ele><time>2026-04-17T02:33:11Z</time></trkpt><trkpt lat="-25.095544468771433" lon="114.42904436098821"><ele>70.0</ele><time>2026-04-17T02:33:12Z</time></trkpt><trkpt lat="-25.09570990529738" lon="114.42928415839589"><ele>70.0</ele><time>2026-04-17T02:33:13Z</time></trkpt><trkpt lat="-25.095878447943317" lon="114.42952615533567"><ele>70.0</ele><time>2026-04-17T02:33:14Z</time></trkpt><trkpt lat="-25.096047130931534" lon="114.42976613440774"><ele>70.0</ele><time>2026-04-17T02:33:15Z</time></trkpt><trkpt lat="-25.09621564051264" lon="114.43000920581102"><ele>70.0</ele><time>2026-04-17T02:33:16Z</time></trkpt><trkpt lat="-25.096381588140737" lon="114.43024966062059"><ele>70.0</ele><time>2026-04-17T02:33:17Z</time></trkpt><trkpt lat="-25.09654913089711" lon="114.43049268479037"><ele>69.5</ele><time>2026-04-17T02:33:18Z</time></trkpt><trkpt lat="-25.096714644618444" lon="114.43073293423868"><ele>69.0</ele><time>2026-04-17T02:33:19Z</time></trkpt><trkpt lat="-25.096877240098042" lon="114.43097195155406"><ele>69.0</ele><time>2026-04-17T02:33:20Z</time></trkpt><trkpt lat="-25.09703741421903" lon="114.43121547322095"><ele>69.0</ele><time>2026-04-17T02:33:21Z</time></trkpt><trkpt lat="-25.0971979969081" lon="114.4314661743709"><ele>68.5</ele><time>2026-04-17T02:33:22Z</time></trkpt><trkpt lat="-25.097351974230364" lon="114.4317222345927"><ele>68.0</ele><time>2026-04-17T02:33:23Z</time></trkpt><trkpt lat="-25.097499408194317" lon="114.43197888738604"><ele>69.5</ele><time>2026-04-17T02:33:24Z</time></trkpt><trkpt lat="-25.09763915037984" lon="114.43224107847969"><ele>71.0</ele><time>2026-04-17T02:33:25Z</time></trkpt><trkpt lat="-25.097767729997596" lon="114.43250590494938"><ele>71.0</ele><time>2026-04-17T02:33:26Z</time></trkpt><trkpt lat="-25.09788257024231" lon="114.43277399684801"><ele>71.0</ele><time>2026-04-17T02:33:27Z</time></trkpt><trkpt lat="-25.09798682147053" lon="114.43304798103698"><ele>72.0</ele><time>2026-04-17T02:33:28Z</time></trkpt><trkpt lat="-25.098078627063845" lon="114.43332926064882"><ele>73.0</ele><time>2026-04-17T02:33:29Z</time></trkpt><trkpt lat="-25.098161011710356" lon="114.43361665197162"><ele>73.0</ele><time>2026-04-17T02:33:30Z</time></trkpt><trkpt lat="-25.098238144806775" lon="114.43390641207587"><ele>73.0</ele><time>2026-04-17T02:33:31Z</time></trkpt><trkpt lat="-25.098318213196393" lon="114.43419721630436"><ele>72.0</ele><time>2026-04-17T02:33:32Z</time></trkpt><trkpt lat="-25.098399585876916" lon="114.43448830654901"><ele>71.0</ele><time>2026-04-17T02:33:33Z</time></trkpt><trkpt lat="-25.09848145129299" lon="114.43478019525993"><ele>70.5</ele><time>2026-04-17T02:33:34Z</time></trkpt><trkpt lat="-25.09856253447682" lon="114.43507138660847"><ele>70.0</ele><time>2026-04-17T02:33:35Z</time></trkpt><trkpt lat="-25.098644089651312" lon="114.43536733961662"><ele>70.0</ele><time>2026-04-17T02:33:36Z</time></trkpt><trkpt lat="-25.09872929116102" lon="114.43566599531653"><ele>70.0</ele><time>2026-04-17T02:33:37Z</time></trkpt><trkpt lat="-25.09881700267362" lon="114.43596378830652"><ele>70.0</ele><time>2026-04-17T02:33:38Z</time></trkpt><trkpt lat="-25.09890406407399" lon="114.43626085409029"><ele>70.0</ele><time>2026-04-17T02:33:39Z</time></trkpt><trkpt lat="-25.09899037077483" lon="114.43656136841683"><ele>70.0</ele><time>2026-04-17T02:33:40Z</time></trkpt><trkpt lat="-25.09907389600975" lon="114.43686367559813"><ele>70.0</ele><time>2026-04-17T02:33:41Z</time></trkpt><trkpt lat="-25.099159242171414" lon="114.43716788716873"><ele>70.0</ele><time>2026-04-17T02:33:42Z</time></trkpt><trkpt lat="-25.09924581430555" lon="114.4374732587764"><ele>70.0</ele><time>2026-04-17T02:33:43Z</time></trkpt><trkpt lat="-25.09933237749603" lon="114.43777732052153"><ele>70.0</ele><time>2026-04-17T02:33:44Z</time></trkpt><trkpt lat="-25.099417544522804" lon="114.43808190252363"><ele>70.0</ele><time>2026-04-17T02:33:45Z</time></trkpt><trkpt lat="-25.099501786082072" lon="114.43838519652809"><ele>70.0</ele><time>2026-04-17T02:33:46Z</time></trkpt><trkpt lat="-25.09958531863184" lon="114.43868715335076"><ele>70.0</ele><time>2026-04-17T02:33:47Z</time></trkpt><trkpt lat="-25.09966957014735" lon="114.43898967416462"><ele>70.0</ele><time>2026-04-17T02:33:48Z</time></trkpt><trkpt lat="-25.099755105100204" lon="114.43929373877027"><ele>70.0</ele><time>2026-04-17T02:33:49Z</time></trkpt><trkpt lat="-25.099842565915417" lon="114.43959680599023"><ele>70.0</ele><time>2026-04-17T02:33:50Z</time></trkpt><trkpt lat="-25.099927173816422" lon="114.43989408908463"><ele>70.0</ele><time>2026-04-17T02:33:51Z</time></trkpt><trkpt lat="-25.100011726842368" lon="114.44019680415632"><ele>70.0</ele><time>2026-04-17T02:33:52Z</time></trkpt><trkpt lat="-25.10009810985408" lon="114.44049796569517"><ele>70.0</ele><time>2026-04-17T02:33:53Z</time></trkpt><trkpt lat="-25.100184217881043" lon="114.44079805044554"><ele>70.0</ele><time>2026-04-17T02:33:54Z</time></trkpt><trkpt lat="-25.10027245605968" lon="114.44110060164975"><ele>70.0</ele><time>2026-04-17T02:33:55Z</time></trkpt><trkpt lat="-25.100361358149236" lon="114.441404226684"><ele>69.5</ele><time>2026-04-17T02:33:56Z</time></trkpt><trkpt lat="-25.100447823827086" lon="114.44170699698299"><ele>69.0</ele><time>2026-04-17T02:33:57Z</time></trkpt><trkpt lat="-25.10053214672079" lon="114.44201207840294"><ele>69.5</ele><time>2026-04-17T02:33:58Z</time></trkpt><trkpt lat="-25.1006174510579" lon="114.44231861237566"><ele>70.0</ele><time>2026-04-17T02:33:59Z</time></trkpt><trkpt lat="-25.10070268695546" lon="114.44262540205078"><ele>70.0</ele><time>2026-04-17T02:34:00Z</time></trkpt><trkpt lat="-25.100790561341878" lon="114.4429336161634"><ele>70.0</ele><time>2026-04-17T02:34:01Z</time></trkpt><trkpt lat="-25.100880009543094" lon="114.44324135092955"><ele>70.0</ele><time>2026-04-17T02:34:02Z</time></trkpt><trkpt lat="-25.10096878889597" lon="114.44354653989801"><ele>70.0</ele><time>2026-04-17T02:34:03Z</time></trkpt><trkpt lat="-25.101057009906587" lon="114.4438497925453"><ele>71.0</ele><time>2026-04-17T02:34:04Z</time></trkpt><trkpt lat="-25.101145986592527" lon="114.44415681674515"><ele>72.0</ele><time>2026-04-17T02:34:05Z</time></trkpt><trkpt lat="-25.101230336637776" lon="114.44445947051098"><ele>72.0</ele><time>2026-04-17T02:34:06Z</time></trkpt><trkpt lat="-25.1013143673987" lon="114.4447649608812"><ele>72.0</ele><time>2026-04-17T02:34:07Z</time></trkpt><trkpt lat="-25.101398721381997" lon="114.44506985027691"><ele>72.0</ele><time>2026-04-17T02:34:08Z</time></trkpt><trkpt lat="-25.1014846988096" lon="114.44537326490403"><ele>72.0</ele><time>2026-04-17T02:34:09Z</time></trkpt><trkpt lat="-25.101571995836945" lon="114.4456775031705"><ele>71.5</ele><time>2026-04-17T02:34:10Z</time></trkpt><trkpt lat="-25.10165868524103" lon="114.4459837961817"><ele>71.0</ele><time>2026-04-17T02:34:11Z</time></trkpt><trkpt lat="-25.101746985296145" lon="114.44629428524796"><ele>70.5</ele><time>2026-04-17T02:34:12Z</time></trkpt><trkpt lat="-25.10183678633413" lon="114.4466049045496"><ele>70.0</ele><time>2026-04-17T02:34:13Z</time></trkpt><trkpt lat="-25.10192592660081" lon="114.4469140352661"><ele>70.0</ele><time>2026-04-17T02:34:14Z</time></trkpt><trkpt lat="-25.10201210490797" lon="114.44722157932446"><ele>70.0</ele><time>2026-04-17T02:34:15Z</time></trkpt><trkpt lat="-25.10209932372179" lon="114.44752922266606"><ele>70.0</ele><time>2026-04-17T02:34:16Z</time></trkpt><trkpt lat="-25.102182926997553" lon="114.4478360743411"><ele>70.0</ele><time>2026-04-17T02:34:17Z</time></trkpt><trkpt lat="-25.102265430895095" lon="114.44814134553549"><ele>70.0</ele><time>2026-04-17T02:34:18Z</time></trkpt><trkpt lat="-25.10235027221028" lon="114.44844929542188"><ele>70.0</ele><time>2026-04-17T02:34:19Z</time></trkpt><trkpt lat="-25.10243655978153" lon="114.44875659338959"><ele>71.0</ele><time>2026-04-17T02:34:20Z</time></trkpt><trkpt lat="-25.102524588266032" lon="114.44906376032914"><ele>72.0</ele><time>2026-04-17T02:34:21Z</time></trkpt><trkpt lat="-25.102612794483296" lon="114.44937011334312"><ele>71.5</ele><time>2026-04-17T02:34:22Z</time></trkpt><trkpt lat="-25.1026976405173" lon="114.44967357433829"><ele>71.0</ele><time>2026-04-17T02:34:23Z</time></trkpt><trkpt lat="-25.10277955243505" lon="114.44997240329998"><ele>71.0</ele><time>2026-04-17T02:34:24Z</time></trkpt><trkpt lat="-25.1028619136166" lon="114.45026875916037"><ele>71.0</ele><time>2026-04-17T02:34:25Z</time></trkpt><trkpt lat="-25.102949775691513" lon="114.45055970961556"><ele>71.5</ele><time>2026-04-17T02:34:26Z</time></trkpt><trkpt lat="-25.10304560760568" lon="114.45084572751675"><ele>72.0</ele><time>2026-04-17T02:34:27Z</time></trkpt><trkpt lat="-25.103150363118676" lon="114.45112869700752"><ele>72.0</ele><time>2026-04-17T02:34:28Z</time></trkpt><trkpt lat="-25.10326332912708" lon="114.45140413471434"><ele>72.0</ele><time>2026-04-17T02:34:29Z</time></trkpt><trkpt lat="-25.103389822411874" lon="114.45167112957257"><ele>72.0</ele><time>2026-04-17T02:34:30Z</time></trkpt><trkpt lat="-25.10353116274015" lon="114.45193782760465"><ele>72.0</ele><time>2026-04-17T02:34:31Z</time></trkpt><trkpt lat="-25.103691837392528" lon="114.45220607071259"><ele>71.5</ele><time>2026-04-17T02:34:32Z</time></trkpt><trkpt lat="-25.103857954475643" lon="114.45246470452685"><ele>71.0</ele><time>2026-04-17T02:34:33Z</time></trkpt><trkpt lat="-25.104032847075068" lon="114.45272698310117"><ele>71.0</ele><time>2026-04-17T02:34:34Z</time></trkpt><trkpt lat="-25.104210264713924" lon="114.45298838431151"><ele>71.0</ele><time>2026-04-17T02:34:35Z</time></trkpt><trkpt lat="-25.104387540145765" lon="114.45324854817397"><ele>71.0</ele><time>2026-04-17T02:34:36Z</time></trkpt><trkpt lat="-25.104565854475926" lon="114.45350730716308"><ele>71.0</ele><time>2026-04-17T02:34:37Z</time></trkpt><trkpt lat="-25.10474401739292" lon="114.45376375771137"><ele>71.5</ele><time>2026-04-17T02:34:38Z</time></trkpt><trkpt lat="-25.104922285225697" lon="114.45401657195167"><ele>72.0</ele><time>2026-04-17T02:34:39Z</time></trkpt><trkpt lat="-25.10510296420195" lon="114.45427315619838"><ele>72.0</ele><time>2026-04-17T02:34:40Z</time></trkpt><trkpt lat="-25.10527924377521" lon="114.45452760647362"><ele>72.0</ele><time>2026-04-17T02:34:41Z</time></trkpt><trkpt lat="-25.105454180875753" lon="114.45478207309144"><ele>72.0</ele><time>2026-04-17T02:34:42Z</time></trkpt><trkpt lat="-25.105628045708137" lon="114.45503502247783"><ele>72.0</ele><time>2026-04-17T02:34:43Z</time></trkpt><trkpt lat="-25.105802237234414" lon="114.4552857806928"><ele>71.5</ele><time>2026-04-17T02:34:44Z</time></trkpt><trkpt lat="-25.105978486712896" lon="114.45553695890376"><ele>71.0</ele><time>2026-04-17T02:34:45Z</time></trkpt><trkpt lat="-25.10615454339087" lon="114.45578794915951"><ele>71.0</ele><time>2026-04-17T02:34:46Z</time></trkpt><trkpt lat="-25.106329738945757" lon="114.45603702075258"><ele>71.0</ele><time>2026-04-17T02:34:47Z</time></trkpt><trkpt lat="-25.10650440777651" lon="114.45628875614518"><ele>70.5</ele><time>2026-04-17T02:34:48Z</time></trkpt><trkpt lat="-25.106681894535978" lon="114.4565445677967"><ele>70.0</ele><time>2026-04-17T02:34:49Z</time></trkpt><trkpt lat="-25.106860933917613" lon="114.45679845941858"><ele>70.0</ele><time>2026-04-17T02:34:50Z</time></trkpt><trkpt lat="-25.107040952570333" lon="114.45705067770112"><ele>70.0</ele><time>2026-04-17T02:34:51Z</time></trkpt><trkpt lat="-25.10722011198605" lon="114.45730046046468"><ele>71.0</ele><time>2026-04-17T02:34:52Z</time></trkpt><trkpt lat="-25.107397379342444" lon="114.45754863336902"><ele>72.0</ele><time>2026-04-17T02:34:53Z</time></trkpt><trkpt lat="-25.107572614456995" lon="114.45779646166845"><ele>73.0</ele><time>2026-04-17T02:34:54Z</time></trkpt><trkpt lat="-25.107750163439892" lon="114.45804769219909"><ele>74.0</ele><time>2026-04-17T02:34:55Z</time></trkpt><trkpt lat="-25.107919121456007" lon="114.45829595984365"><ele>74.0</ele><time>2026-04-17T02:34:56Z</time></trkpt><trkpt lat="-25.108084002227884" lon="114.45853712599254"><ele>74.0</ele><time>2026-04-17T02:34:57Z</time></trkpt><trkpt lat="-25.108246856009394" lon="114.45877759198615"><ele>72.5</ele><time>2026-04-17T02:34:58Z</time></trkpt><trkpt lat="-25.108414327131566" lon="114.45901984179204"><ele>71.0</ele><time>2026-04-17T02:34:59Z</time></trkpt><trkpt lat="-25.10858294590892" lon="114.4592640890598"><ele>71.0</ele><time>2026-04-17T02:35:00Z</time></trkpt><trkpt lat="-25.10874535912126" lon="114.45950811217777"><ele>71.0</ele><time>2026-04-17T02:35:01Z</time></trkpt><trkpt lat="-25.108901139068088" lon="114.45974991025464"><ele>71.0</ele><time>2026-04-17T02:35:02Z</time></trkpt><trkpt lat="-25.109049908930185" lon="114.45999055514922"><ele>71.0</ele><time>2026-04-17T02:35:03Z</time></trkpt><trkpt lat="-25.109189943880008" lon="114.46024212718869"><ele>71.5</ele><time>2026-04-17T02:35:04Z</time></trkpt><trkpt lat="-25.10931743298861" lon="114.4605051077088"><ele>72.0</ele><time>2026-04-17T02:35:05Z</time></trkpt><trkpt lat="-25.10943415388451" lon="114.46078024689189"><ele>72.0</ele><time>2026-04-17T02:35:06Z</time></trkpt><trkpt lat="-25.109543477569762" lon="114.46107006849088"><ele>72.0</ele><time>2026-04-17T02:35:07Z</time></trkpt><trkpt lat="-25.109645546576406" lon="114.46136798694221"><ele>71.5</ele><time>2026-04-17T02:35:08Z</time></trkpt><trkpt lat="-25.10973770987686" lon="114.46167233250748"><ele>71.0</ele><time>2026-04-17T02:35:09Z</time></trkpt><trkpt lat="-25.109821444099087" lon="114.46198251614375"><ele>71.5</ele><time>2026-04-17T02:35:10Z</time></trkpt><trkpt lat="-25.109897509662105" lon="114.46229571894929"><ele>72.0</ele><time>2026-04-17T02:35:11Z</time></trkpt><trkpt lat="-25.109967202563045" lon="114.46260734744952"><ele>72.5</ele><time>2026-04-17T02:35:12Z</time></trkpt><trkpt lat="-25.110030169235422" lon="114.46292496147602"><ele>73.0</ele><time>2026-04-17T02:35:13Z</time></trkpt><trkpt lat="-25.110090996360068" lon="114.4632486990515"><ele>73.0</ele><time>2026-04-17T02:35:14Z</time></trkpt><trkpt lat="-25.11015307800285" lon="114.46357022042639"><ele>73.0</ele><time>2026-04-17T02:35:15Z</time></trkpt><trkpt lat="-25.110216871086482" lon="114.4638948267204"><ele>73.0</ele><time>2026-04-17T02:35:16Z</time></trkpt><trkpt lat="-25.11028254926569" lon="114.46421654255299"><ele>73.0</ele><time>2026-04-17T02:35:17Z</time></trkpt><trkpt lat="-25.110347766657785" lon="114.46453456193854"><ele>72.0</ele><time>2026-04-17T02:35:18Z</time></trkpt><trkpt lat="-25.110414139625448" lon="114.46485013948802"><ele>71.0</ele><time>2026-04-17T02:35:19Z</time></trkpt><trkpt lat="-25.110480815086547" lon="114.46516678174542"><ele>71.5</ele><time>2026-04-17T02:35:20Z</time></trkpt><trkpt lat="-25.110548626223746" lon="114.46548847801999"><ele>72.0</ele><time>2026-04-17T02:35:21Z</time></trkpt><trkpt lat="-25.110619345772623" lon="114.46581457741019"><ele>72.0</ele><time>2026-04-17T02:35:22Z</time></trkpt><trkpt lat="-25.110689735002587" lon="114.46613876385004"><ele>72.0</ele><time>2026-04-17T02:35:23Z</time></trkpt><trkpt lat="-25.110760247651008" lon="114.46646153570725"><ele>73.0</ele><time>2026-04-17T02:35:24Z</time></trkpt><trkpt lat="-25.110831189997498" lon="114.46678231748952"><ele>74.0</ele><time>2026-04-17T02:35:25Z</time></trkpt><trkpt lat="-25.1109032167198" lon="114.46710536847748"><ele>74.0</ele><time>2026-04-17T02:35:26Z</time></trkpt><trkpt lat="-25.110973659671412" lon="114.46742866623914"><ele>74.0</ele><time>2026-04-17T02:35:27Z</time></trkpt><trkpt lat="-25.111042674946873" lon="114.46775351602248"><ele>73.5</ele><time>2026-04-17T02:35:28Z</time></trkpt><trkpt lat="-25.111111085985947" lon="114.46807852564429"><ele>73.0</ele><time>2026-04-17T02:35:29Z</time></trkpt><trkpt lat="-25.111178384334412" lon="114.46840225211064"><ele>73.0</ele><time>2026-04-17T02:35:30Z</time></trkpt><trkpt lat="-25.111246422198413" lon="114.46872348614002"><ele>73.0</ele><time>2026-04-17T02:35:31Z</time></trkpt><trkpt lat="-25.111314423139508" lon="114.46904343850619"><ele>73.0</ele><time>2026-04-17T02:35:32Z</time></trkpt><trkpt lat="-25.111380344204623" lon="114.46935978624774"><ele>73.0</ele><time>2026-04-17T02:35:33Z</time></trkpt><trkpt lat="-25.11144634385403" lon="114.46967854643394"><ele>72.5</ele><time>2026-04-17T02:35:34Z</time></trkpt><trkpt lat="-25.111512362700374" lon="114.46999677969812"><ele>72.0</ele><time>2026-04-17T02:35:35Z</time></trkpt><trkpt lat="-25.111579117397913" lon="114.47031695758149"><ele>73.0</ele><time>2026-04-17T02:35:36Z</time></trkpt><trkpt lat="-25.111646465518934" lon="114.47063906861038"><ele>74.0</ele><time>2026-04-17T02:35:37Z</time></trkpt><trkpt lat="-25.11171205255783" lon="114.47096127332141"><ele>74.0</ele><time>2026-04-17T02:35:38Z</time></trkpt><trkpt lat="-25.111779708370943" lon="114.47128242799697"><ele>74.0</ele><time>2026-04-17T02:35:39Z</time></trkpt><trkpt lat="-25.111851033528467" lon="114.47160559560022"><ele>74.0</ele><time>2026-04-17T02:35:40Z</time></trkpt><trkpt lat="-25.111923676546372" lon="114.47192956605866"><ele>74.0</ele><time>2026-04-17T02:35:41Z</time></trkpt><trkpt lat="-25.11199788027951" lon="114.4722528045564"><ele>74.0</ele><time>2026-04-17T02:35:42Z</time></trkpt><trkpt lat="-25.112067931038236" lon="114.47257440717888"><ele>74.0</ele><time>2026-04-17T02:35:43Z</time></trkpt><trkpt lat="-25.11213423654845" lon="114.472898017427"><ele>74.0</ele><time>2026-04-17T02:35:44Z</time></trkpt><trkpt lat="-25.1121985156901" lon="114.47322116026581"><ele>74.0</ele><time>2026-04-17T02:35:45Z</time></trkpt><trkpt lat="-25.1122632466454" lon="114.47353984154512"><ele>73.5</ele><time>2026-04-17T02:35:46Z</time></trkpt><trkpt lat="-25.112331499411567" lon="114.47385698445935"><ele>73.0</ele><time>2026-04-17T02:35:47Z</time></trkpt><trkpt lat="-25.112401352080003" lon="114.4741796329289"><ele>73.0</ele><time>2026-04-17T02:35:48Z</time></trkpt><trkpt lat="-25.112470602504352" lon="114.47450017405767"><ele>73.0</ele><time>2026-04-17T02:35:49Z</time></trkpt><trkpt lat="-25.112536848945062" lon="114.47481194302263"><ele>73.0</ele><time>2026-04-17T02:35:50Z</time></trkpt><trkpt lat="-25.112603723377024" lon="114.47511249971151"><ele>73.0</ele><time>2026-04-17T02:35:51Z</time></trkpt><trkpt lat="-25.112669030723044" lon="114.47539554689224"><ele>73.5</ele><time>2026-04-17T02:35:52Z</time></trkpt><trkpt lat="-25.112732645616717" lon="114.4756716761904"><ele>74.0</ele><time>2026-04-17T02:35:53Z</time></trkpt><trkpt lat="-25.112796351166757" lon="114.47595201380645"><ele>74.0</ele><time>2026-04-17T02:35:54Z</time></trkpt><trkpt lat="-25.11285944333606" lon="114.47623987466274"><ele>74.0</ele><time>2026-04-17T02:35:55Z</time></trkpt><trkpt lat="-25.11291536388942" lon="114.47653497015703"><ele>74.0</ele><time>2026-04-17T02:35:56Z</time></trkpt><trkpt lat="-25.112968313468812" lon="114.47683447156462"><ele>74.0</ele><time>2026-04-17T02:35:57Z</time></trkpt><trkpt lat="-25.11302634101843" lon="114.47713275833868"><ele>73.5</ele><time>2026-04-17T02:35:58Z</time></trkpt><trkpt lat="-25.113089917926448" lon="114.47743629324621"><ele>73.0</ele><time>2026-04-17T02:35:59Z</time></trkpt><trkpt lat="-25.11315732773419" lon="114.47774554638985"><ele>72.5</ele><time>2026-04-17T02:36:00Z</time></trkpt><trkpt lat="-25.113225717270883" lon="114.47805706684254"><ele>72.0</ele><time>2026-04-17T02:36:01Z</time></trkpt><trkpt lat="-25.11329368225301" lon="114.4783707436449"><ele>72.0</ele><time>2026-04-17T02:36:02Z</time></trkpt><trkpt lat="-25.113358851920324" lon="114.47868739160096"><ele>72.0</ele><time>2026-04-17T02:36:03Z</time></trkpt><trkpt lat="-25.11342442310827" lon="114.47900374870422"><ele>73.0</ele><time>2026-04-17T02:36:04Z</time></trkpt><trkpt lat="-25.11348844926238" lon="114.47931757547376"><ele>74.0</ele><time>2026-04-17T02:36:05Z</time></trkpt><trkpt lat="-25.113554863604286" lon="114.47963118998283"><ele>74.5</ele><time>2026-04-17T02:36:06Z</time></trkpt><trkpt lat="-25.113626648101878" lon="114.47994752882977"><ele>75.0</ele><time>2026-04-17T02:36:07Z</time></trkpt><trkpt lat="-25.11370289559121" lon="114.48026377185293"><ele>76.0</ele><time>2026-04-17T02:36:08Z</time></trkpt><trkpt lat="-25.113779640821758" lon="114.48058457543395"><ele>77.0</ele><time>2026-04-17T02:36:09Z</time></trkpt><trkpt lat="-25.113852925682828" lon="114.48090758783242"><ele>77.0</ele><time>2026-04-17T02:36:10Z</time></trkpt><trkpt lat="-25.113924908282954" lon="114.4812317602976"><ele>77.0</ele><time>2026-04-17T02:36:11Z</time></trkpt><trkpt lat="-25.113992872707723" lon="114.48155680352286"><ele>77.0</ele><time>2026-04-17T02:36:12Z</time></trkpt><trkpt lat="-25.11406049739951" lon="114.48188415285618"><ele>77.0</ele><time>2026-04-17T02:36:13Z</time></trkpt><trkpt lat="-25.114129749559673" lon="114.48221106818653"><ele>75.5</ele><time>2026-04-17T02:36:14Z</time></trkpt><trkpt lat="-25.11419982542051" lon="114.48253331422008"><ele>74.0</ele><time>2026-04-17T02:36:15Z</time></trkpt><trkpt lat="-25.114269641004768" lon="114.4828557825401"><ele>74.0</ele><time>2026-04-17T02:36:16Z</time></trkpt><trkpt lat="-25.114338453456256" lon="114.48317648223933"><ele>74.0</ele><time>2026-04-17T02:36:17Z</time></trkpt><trkpt lat="-25.11440757631782" lon="114.48349169114593"><ele>75.5</ele><time>2026-04-17T02:36:18Z</time></trkpt><trkpt lat="-25.1144793362797" lon="114.48378811394414"><ele>77.0</ele><time>2026-04-17T02:36:19Z</time></trkpt><trkpt lat="-25.114553793514183" lon="114.48406553784855"><ele>77.0</ele><time>2026-04-17T02:36:20Z</time></trkpt><trkpt lat="-25.114632477699242" lon="114.48433461778363"><ele>77.0</ele><time>2026-04-17T02:36:21Z</time></trkpt><trkpt lat="-25.11472308710279" lon="114.48459554043184"><ele>77.0</ele><time>2026-04-17T02:36:22Z</time></trkpt><trkpt lat="-25.1148244230459" lon="114.48484012677348"><ele>77.0</ele><time>2026-04-17T02:36:23Z</time></trkpt><trkpt lat="-25.114947965060235" lon="114.48508826558086"><ele>77.0</ele><time>2026-04-17T02:36:24Z</time></trkpt><trkpt lat="-25.115089488629877" lon="114.48533809642038"><ele>77.0</ele><time>2026-04-17T02:36:25Z</time></trkpt><trkpt lat="-25.115250134593374" lon="114.48559065751415"><ele>76.5</ele><time>2026-04-17T02:36:26Z</time></trkpt><trkpt lat="-25.11542256717615" lon="114.48584059769802"><ele>76.0</ele><time>2026-04-17T02:36:27Z</time></trkpt><trkpt lat="-25.11560045910883" lon="114.4860900006406"><ele>76.5</ele><time>2026-04-17T02:36:28Z</time></trkpt><trkpt lat="-25.115778201987645" lon="114.4863407356818"><ele>77.0</ele><time>2026-04-17T02:36:29Z</time></trkpt><trkpt lat="-25.115954170663958" lon="114.4865928140378"><ele>77.0</ele><time>2026-04-17T02:36:30Z</time></trkpt><trkpt lat="-25.11612990071394" lon="114.48684757175018"><ele>77.0</ele><time>2026-04-17T02:36:31Z</time></trkpt><trkpt lat="-25.11630471609769" lon="114.48710140575572"><ele>77.5</ele><time>2026-04-17T02:36:32Z</time></trkpt><trkpt lat="-25.116478915172735" lon="114.48735160140414"><ele>78.0</ele><time>2026-04-17T02:36:33Z</time></trkpt><trkpt lat="-25.116654632680618" lon="114.48760710859106"><ele>78.0</ele><time>2026-04-17T02:36:34Z</time></trkpt><trkpt lat="-25.11683202712512" lon="114.48786600446516"><ele>78.0</ele><time>2026-04-17T02:36:35Z</time></trkpt><trkpt lat="-25.117009046346745" lon="114.48812322022924"><ele>77.0</ele><time>2026-04-17T02:36:36Z</time></trkpt><trkpt lat="-25.117180784103468" lon="114.48837734492555"><ele>76.0</ele><time>2026-04-17T02:36:37Z</time></trkpt><trkpt lat="-25.117353990919717" lon="114.488630415254"><ele>76.0</ele><time>2026-04-17T02:36:38Z</time></trkpt><trkpt lat="-25.117528447556328" lon="114.48888013105503"><ele>76.0</ele><time>2026-04-17T02:36:39Z</time></trkpt><trkpt lat="-25.117704846014735" lon="114.4891269961607"><ele>76.0</ele><time>2026-04-17T02:36:40Z</time></trkpt><trkpt lat="-25.11788057972826" lon="114.48937339390139"><ele>76.0</ele><time>2026-04-17T02:36:41Z</time></trkpt><trkpt lat="-25.118059863384882" lon="114.48962580778986"><ele>76.0</ele><time>2026-04-17T02:36:42Z</time></trkpt><trkpt lat="-25.11823383344396" lon="114.4898749702585"><ele>76.0</ele><time>2026-04-17T02:36:43Z</time></trkpt><trkpt lat="-25.11840863285489" lon="114.49012573153654"><ele>76.0</ele><time>2026-04-17T02:36:44Z</time></trkpt><trkpt lat="-25.11858537160658" lon="114.4903810454127"><ele>76.0</ele><time>2026-04-17T02:36:45Z</time></trkpt><trkpt lat="-25.11876425004731" lon="114.49063650306462"><ele>76.5</ele><time>2026-04-17T02:36:46Z</time></trkpt><trkpt lat="-25.1189443575848" lon="114.49089516795489"><ele>77.0</ele><time>2026-04-17T02:36:47Z</time></trkpt><trkpt lat="-25.1191256890653" lon="114.49115377353"><ele>76.0</ele><time>2026-04-17T02:36:48Z</time></trkpt><trkpt lat="-25.11930510960625" lon="114.49141393453057"><ele>75.0</ele><time>2026-04-17T02:36:49Z</time></trkpt><trkpt lat="-25.119479541273154" lon="114.49167099199666"><ele>75.0</ele><time>2026-04-17T02:36:50Z</time></trkpt><trkpt lat="-25.11965530850259" lon="114.49192875721525"><ele>75.0</ele><time>2026-04-17T02:36:51Z</time></trkpt><trkpt lat="-25.11983023146276" lon="114.49218350284133"><ele>75.0</ele><time>2026-04-17T02:36:52Z</time></trkpt><trkpt lat="-25.12000432847399" lon="114.49243981759743"><ele>75.0</ele><time>2026-04-17T02:36:53Z</time></trkpt><trkpt lat="-25.12017970994503" lon="114.49269339986866"><ele>75.0</ele><time>2026-04-17T02:36:54Z</time></trkpt><trkpt lat="-25.120355331727396" lon="114.49294606204766"><ele>75.0</ele><time>2026-04-17T02:36:55Z</time></trkpt><trkpt lat="-25.12053106812744" lon="114.49320263000459"><ele>75.0</ele><time>2026-04-17T02:36:56Z</time></trkpt><trkpt lat="-25.12070595582756" lon="114.49346134627706"><ele>75.0</ele><time>2026-04-17T02:36:57Z</time></trkpt><trkpt lat="-25.12088105753721" lon="114.49371971212682"><ele>76.5</ele><time>2026-04-17T02:36:58Z</time></trkpt><trkpt lat="-25.121057964282357" lon="114.49397040042925"><ele>78.0</ele><time>2026-04-17T02:36:59Z</time></trkpt><trkpt lat="-25.12123903084446" lon="114.49421847368434"><ele>78.0</ele><time>2026-04-17T02:37:00Z</time></trkpt><trkpt lat="-25.12142052453454" lon="114.4944656548126"><ele>78.0</ele><time>2026-04-17T02:37:01Z</time></trkpt><trkpt lat="-25.121600597939885" lon="114.49471553688595"><ele>77.5</ele><time>2026-04-17T02:37:02Z</time></trkpt><trkpt lat="-25.121778176421625" lon="114.49496967861882"><ele>77.0</ele><time>2026-04-17T02:37:03Z</time></trkpt><trkpt lat="-25.121954927198612" lon="114.49522489397377"><ele>76.5</ele><time>2026-04-17T02:37:04Z</time></trkpt><trkpt lat="-25.122135797026147" lon="114.495480132277"><ele>76.0</ele><time>2026-04-17T02:37:05Z</time></trkpt><trkpt lat="-25.122317684271984" lon="114.4957358979706"><ele>77.0</ele><time>2026-04-17T02:37:06Z</time></trkpt><trkpt lat="-25.122494401672785" lon="114.49598938144324"><ele>78.0</ele><time>2026-04-17T02:37:07Z</time></trkpt><trkpt lat="-25.12266604655364" lon="114.49624481349598"><ele>77.0</ele><time>2026-04-17T02:37:08Z</time></trkpt><trkpt lat="-25.122831867029653" lon="114.49650127706826"><ele>76.0</ele><time>2026-04-17T02:37:09Z</time></trkpt><trkpt lat="-25.122990001139495" lon="114.49675868999313"><ele>76.0</ele><time>2026-04-17T02:37:10Z</time></trkpt><trkpt lat="-25.12314418110623" lon="114.49702219852165"><ele>76.0</ele><time>2026-04-17T02:37:11Z</time></trkpt><trkpt lat="-25.123291158960765" lon="114.49729118285714"><ele>76.0</ele><time>2026-04-17T02:37:12Z</time></trkpt><trkpt lat="-25.123431284920294" lon="114.49757191448518"><ele>76.0</ele><time>2026-04-17T02:37:13Z</time></trkpt><trkpt lat="-25.12356336411854" lon="114.49785489874203"><ele>76.0</ele><time>2026-04-17T02:37:14Z</time></trkpt><trkpt lat="-25.123684103724052" lon="114.49813960762357"><ele>76.0</ele><time>2026-04-17T02:37:15Z</time></trkpt><trkpt lat="-25.12379968775824" lon="114.49843382068117"><ele>76.0</ele><time>2026-04-17T02:37:16Z</time></trkpt><trkpt lat="-25.123913153579803" lon="114.49872564220549"><ele>76.0</ele><time>2026-04-17T02:37:17Z</time></trkpt><trkpt lat="-25.124029379238785" lon="114.49902154124729"><ele>76.0</ele><time>2026-04-17T02:37:18Z</time></trkpt><trkpt lat="-25.124142590303364" lon="114.49931555108488"><ele>76.0</ele><time>2026-04-17T02:37:19Z</time></trkpt><trkpt lat="-25.124252879282206" lon="114.4996093931569"><ele>75.5</ele><time>2026-04-17T02:37:20Z</time></trkpt><trkpt lat="-25.124362446788037" lon="114.49989980659329"><ele>75.0</ele><time>2026-04-17T02:37:21Z</time></trkpt><trkpt lat="-25.124473529881083" lon="114.50018647106522"><ele>76.0</ele><time>2026-04-17T02:37:22Z</time></trkpt><trkpt lat="-25.12458553218635" lon="114.50047636584316"><ele>77.0</ele><time>2026-04-17T02:37:23Z</time></trkpt><trkpt lat="-25.124697875421727" lon="114.50076534951354"><ele>77.0</ele><time>2026-04-17T02:37:24Z</time></trkpt><trkpt lat="-25.124810004754256" lon="114.50105389587003"><ele>77.0</ele><time>2026-04-17T02:37:25Z</time></trkpt><trkpt lat="-25.124921440386125" lon="114.50134165810002"><ele>77.0</ele><time>2026-04-17T02:37:26Z</time></trkpt><trkpt lat="-25.125032880682685" lon="114.50162763157051"><ele>77.0</ele><time>2026-04-17T02:37:27Z</time></trkpt><trkpt lat="-25.125144612789505" lon="114.50191228184707"><ele>77.0</ele><time>2026-04-17T02:37:28Z</time></trkpt><trkpt lat="-25.1252562891606" lon="114.5022042236492"><ele>77.0</ele><time>2026-04-17T02:37:29Z</time></trkpt><trkpt lat="-25.125362682609936" lon="114.50250286018206"><ele>77.0</ele><time>2026-04-17T02:37:30Z</time></trkpt><trkpt lat="-25.125476264545224" lon="114.50279605555836"><ele>77.0</ele><time>2026-04-17T02:37:31Z</time></trkpt><trkpt lat="-25.125588803501984" lon="114.50308969172296"><ele>77.5</ele><time>2026-04-17T02:37:32Z</time></trkpt><trkpt lat="-25.125690765645416" lon="114.50338402621671"><ele>78.0</ele><time>2026-04-17T02:37:33Z</time></trkpt><trkpt lat="-25.125785855944176" lon="114.50367823706688"><ele>77.0</ele><time>2026-04-17T02:37:34Z</time></trkpt><trkpt lat="-25.125875095357554" lon="114.50397686155823"><ele>76.0</ele><time>2026-04-17T02:37:35Z</time></trkpt><trkpt lat="-25.125956990153963" lon="114.50428015284989"><ele>75.5</ele><time>2026-04-17T02:37:36Z</time></trkpt><trkpt lat="-25.12603091120416" lon="114.50459301706572"><ele>75.0</ele><time>2026-04-17T02:37:37Z</time></trkpt><trkpt lat="-25.12610068868222" lon="114.50490911916087"><ele>75.0</ele><time>2026-04-17T02:37:38Z</time></trkpt><trkpt lat="-25.12616554574271" lon="114.50523130874853"><ele>75.0</ele><time>2026-04-17T02:37:39Z</time></trkpt><trkpt lat="-25.12622259358305" lon="114.50555623258377"><ele>76.0</ele><time>2026-04-17T02:37:40Z</time></trkpt><trkpt lat="-25.126273910372408" lon="114.50588093114116"><ele>77.0</ele><time>2026-04-17T02:37:41Z</time></trkpt><trkpt lat="-25.1263278168906" lon="114.50620736957914"><ele>77.5</ele><time>2026-04-17T02:37:42Z</time></trkpt><trkpt lat="-25.126386999818767" lon="114.50653211515345"><ele>78.0</ele><time>2026-04-17T02:37:43Z</time></trkpt><trkpt lat="-25.126447290942654" lon="114.50685391232886"><ele>77.0</ele><time>2026-04-17T02:37:44Z</time></trkpt><trkpt lat="-25.126504933300417" lon="114.50717441454097"><ele>76.0</ele><time>2026-04-17T02:37:45Z</time></trkpt><trkpt lat="-25.126563797470382" lon="114.50749458885953"><ele>75.5</ele><time>2026-04-17T02:37:46Z</time></trkpt><trkpt lat="-25.126622572257933" lon="114.50781433173313"><ele>75.0</ele><time>2026-04-17T02:37:47Z</time></trkpt><trkpt lat="-25.126680703632733" lon="114.50813270048364"><ele>75.0</ele><time>2026-04-17T02:37:48Z</time></trkpt><trkpt lat="-25.126738240358858" lon="114.50845435332543"><ele>75.0</ele><time>2026-04-17T02:37:49Z</time></trkpt><trkpt lat="-25.126796523827615" lon="114.50877651089837"><ele>75.5</ele><time>2026-04-17T02:37:50Z</time></trkpt><trkpt lat="-25.126854237177152" lon="114.50909705984556"><ele>76.0</ele><time>2026-04-17T02:37:51Z</time></trkpt><trkpt lat="-25.126911002604288" lon="114.50941866584135"><ele>77.0</ele><time>2026-04-17T02:37:52Z</time></trkpt><trkpt lat="-25.126963496805264" lon="114.5097421585311"><ele>78.0</ele><time>2026-04-17T02:37:53Z</time></trkpt><trkpt lat="-25.12701570559213" lon="114.51006955971803"><ele>78.0</ele><time>2026-04-17T02:37:54Z</time></trkpt><trkpt lat="-25.127070690795136" lon="114.51039261488522"><ele>78.0</ele><time>2026-04-17T02:37:55Z</time></trkpt><trkpt lat="-25.127124465224647" lon="114.51071470130672"><ele>77.0</ele><time>2026-04-17T02:37:56Z</time></trkpt><trkpt lat="-25.127176103968978" lon="114.51103506287222"><ele>76.0</ele><time>2026-04-17T02:37:57Z</time></trkpt><trkpt lat="-25.127231481833125" lon="114.51135562326125"><ele>76.0</ele><time>2026-04-17T02:37:58Z</time></trkpt><trkpt lat="-25.127286122598196" lon="114.51167400122497"><ele>76.0</ele><time>2026-04-17T02:37:59Z</time></trkpt><trkpt lat="-25.12733822508602" lon="114.51199245474544"><ele>76.0</ele><time>2026-04-17T02:38:00Z</time></trkpt><trkpt lat="-25.127390931606826" lon="114.51231543776693"><ele>76.0</ele><time>2026-04-17T02:38:01Z</time></trkpt><trkpt lat="-25.127444518662223" lon="114.51263789377097"><ele>77.0</ele><time>2026-04-17T02:38:02Z</time></trkpt><trkpt lat="-25.127497976446037" lon="114.51296019522611"><ele>78.0</ele><time>2026-04-17T02:38:03Z</time></trkpt><trkpt lat="-25.127549445193072" lon="114.51328206235044"><ele>78.0</ele><time>2026-04-17T02:38:04Z</time></trkpt><trkpt lat="-25.127599966898842" lon="114.51360201306538"><ele>78.0</ele><time>2026-04-17T02:38:05Z</time></trkpt><trkpt lat="-25.127650050920053" lon="114.51391820122886"><ele>78.0</ele><time>2026-04-17T02:38:06Z</time></trkpt><trkpt lat="-25.12770462256877" lon="114.51424231211031"><ele>78.0</ele><time>2026-04-17T02:38:07Z</time></trkpt><trkpt lat="-25.12775843444047" lon="114.51456237776999"><ele>77.5</ele><time>2026-04-17T02:38:08Z</time></trkpt><trkpt lat="-25.127814332581863" lon="114.51488313075615"><ele>77.0</ele><time>2026-04-17T02:38:09Z</time></trkpt><trkpt lat="-25.127871114767142" lon="114.51521011538964"><ele>77.5</ele><time>2026-04-17T02:38:10Z</time></trkpt><trkpt lat="-25.127923813265834" lon="114.51553820033436"><ele>78.0</ele><time>2026-04-17T02:38:11Z</time></trkpt><trkpt lat="-25.127975847892067" lon="114.5158712773455"><ele>78.0</ele><time>2026-04-17T02:38:12Z</time></trkpt><trkpt lat="-25.128028256340706" lon="114.51620625073664"><ele>78.0</ele><time>2026-04-17T02:38:13Z</time></trkpt><trkpt lat="-25.12808280724792" lon="114.51654012083495"><ele>78.5</ele><time>2026-04-17T02:38:14Z</time></trkpt><trkpt lat="-25.12813426486157" lon="114.51686670907053"><ele>79.0</ele><time>2026-04-17T02:38:15Z</time></trkpt><trkpt lat="-25.128184215083817" lon="114.51719600900293"><ele>78.5</ele><time>2026-04-17T02:38:16Z</time></trkpt><trkpt lat="-25.12823074448449" lon="114.51752399193155"><ele>78.0</ele><time>2026-04-17T02:38:17Z</time></trkpt><trkpt lat="-25.128275585153457" lon="114.51785028332027"><ele>77.5</ele><time>2026-04-17T02:38:18Z</time></trkpt><trkpt lat="-25.12831465304821" lon="114.51817938000096"><ele>77.0</ele><time>2026-04-17T02:38:19Z</time></trkpt><trkpt lat="-25.128345376371968" lon="114.51850779892358"><ele>77.5</ele><time>2026-04-17T02:38:20Z</time></trkpt><trkpt lat="-25.12837363173323" lon="114.51883448959748"><ele>78.0</ele><time>2026-04-17T02:38:21Z</time></trkpt><trkpt lat="-25.128401132258485" lon="114.51915864105068"><ele>78.0</ele><time>2026-04-17T02:38:22Z</time></trkpt><trkpt lat="-25.12842870637063" lon="114.51948576245678"><ele>78.0</ele><time>2026-04-17T02:38:23Z</time></trkpt><trkpt lat="-25.128454848693675" lon="114.51980898163545"><ele>78.5</ele><time>2026-04-17T02:38:24Z</time></trkpt><trkpt lat="-25.128480330096668" lon="114.52013526403205"><ele>79.0</ele><time>2026-04-17T02:38:25Z</time></trkpt><trkpt lat="-25.128502365523364" lon="114.52045640937448"><ele>79.0</ele><time>2026-04-17T02:38:26Z</time></trkpt><trkpt lat="-25.12852350577637" lon="114.52077995465682"><ele>79.0</ele><time>2026-04-17T02:38:27Z</time></trkpt><trkpt lat="-25.128547102757086" lon="114.5211023462968"><ele>78.5</ele><time>2026-04-17T02:38:28Z</time></trkpt><trkpt lat="-25.128568415730683" lon="114.52142661239732"><ele>78.0</ele><time>2026-04-17T02:38:29Z</time></trkpt><trkpt lat="-25.12859027221507" lon="114.52175199033846"><ele>78.0</ele><time>2026-04-17T02:38:30Z</time></trkpt><trkpt lat="-25.12861344497098" lon="114.52207345678458"><ele>78.0</ele><time>2026-04-17T02:38:31Z</time></trkpt><trkpt lat="-25.128635334644226" lon="114.52239314775595"><ele>78.0</ele><time>2026-04-17T02:38:32Z</time></trkpt><trkpt lat="-25.128654813652552" lon="114.52270841087918"><ele>78.0</ele><time>2026-04-17T02:38:33Z</time></trkpt><trkpt lat="-25.128674582049946" lon="114.52302390421752"><ele>78.5</ele><time>2026-04-17T02:38:34Z</time></trkpt><trkpt lat="-25.12869523984807" lon="114.5233385108553"><ele>79.0</ele><time>2026-04-17T02:38:35Z</time></trkpt><trkpt lat="-25.128720783954858" lon="114.52365399734909"><ele>79.5</ele><time>2026-04-17T02:38:36Z</time></trkpt><trkpt lat="-25.128751768188767" lon="114.52396621389349"><ele>80.0</ele><time>2026-04-17T02:38:37Z</time></trkpt><trkpt lat="-25.128791522162537" lon="114.52428262469117"><ele>79.5</ele><time>2026-04-17T02:38:38Z</time></trkpt><trkpt lat="-25.128842125335826" lon="114.52459504792762"><ele>79.0</ele><time>2026-04-17T02:38:39Z</time></trkpt><trkpt lat="-25.128906564941186" lon="114.5249048117908"><ele>79.0</ele><time>2026-04-17T02:38:40Z</time></trkpt><trkpt lat="-25.128988359653253" lon="114.52521062586729"><ele>79.0</ele><time>2026-04-17T02:38:41Z</time></trkpt><trkpt lat="-25.129079056735943" lon="114.52551503852739"><ele>79.0</ele><time>2026-04-17T02:38:42Z</time></trkpt><trkpt lat="-25.129180822558855" lon="114.52581763505853"><ele>79.0</ele><time>2026-04-17T02:38:43Z</time></trkpt><trkpt lat="-25.129286239019198" lon="114.52612016733649"><ele>79.0</ele><time>2026-04-17T02:38:44Z</time></trkpt><trkpt lat="-25.12939281633889" lon="114.52642224476496"><ele>79.0</ele><time>2026-04-17T02:38:45Z</time></trkpt><trkpt lat="-25.129500931838777" lon="114.52672432968401"><ele>79.0</ele><time>2026-04-17T02:38:46Z</time></trkpt><trkpt lat="-25.12960754162552" lon="114.52702300158533"><ele>79.0</ele><time>2026-04-17T02:38:47Z</time></trkpt><trkpt lat="-25.12971386864131" lon="114.52732253455272"><ele>79.5</ele><time>2026-04-17T02:38:48Z</time></trkpt><trkpt lat="-25.129819177112715" lon="114.52762332765062"><ele>80.0</ele><time>2026-04-17T02:38:49Z</time></trkpt><trkpt lat="-25.129921537512104" lon="114.52792600825128"><ele>80.0</ele><time>2026-04-17T02:38:50Z</time></trkpt><trkpt lat="-25.13002246382025" lon="114.52822271196693"><ele>80.0</ele><time>2026-04-17T02:38:51Z</time></trkpt><trkpt lat="-25.130125263683073" lon="114.52852199426086"><ele>80.0</ele><time>2026-04-17T02:38:52Z</time></trkpt><trkpt lat="-25.13022724952755" lon="114.52881938835282"><ele>80.0</ele><time>2026-04-17T02:38:53Z</time></trkpt><trkpt lat="-25.13032804865415" lon="114.52911546613498"><ele>80.0</ele><time>2026-04-17T02:38:54Z</time></trkpt><trkpt lat="-25.130428617633996" lon="114.52941394258963"><ele>80.0</ele><time>2026-04-17T02:38:55Z</time></trkpt><trkpt lat="-25.130530730572687" lon="114.52971005737203"><ele>80.0</ele><time>2026-04-17T02:38:56Z</time></trkpt><trkpt lat="-25.13063453449106" lon="114.53000267768823"><ele>80.0</ele><time>2026-04-17T02:38:57Z</time></trkpt><trkpt lat="-25.130735912902914" lon="114.53029448654537"><ele>80.0</ele><time>2026-04-17T02:38:58Z</time></trkpt><trkpt lat="-25.130835505414176" lon="114.53058680653781"><ele>80.0</ele><time>2026-04-17T02:38:59Z</time></trkpt><trkpt lat="-25.130937503595497" lon="114.5308779723568"><ele>80.0</ele><time>2026-04-17T02:39:00Z</time></trkpt><trkpt lat="-25.131041241280926" lon="114.53117211948745"><ele>80.0</ele><time>2026-04-17T02:39:01Z</time></trkpt><trkpt lat="-25.13114483527539" lon="114.53146795219737"><ele>79.5</ele><time>2026-04-17T02:39:02Z</time></trkpt><trkpt lat="-25.131245303200398" lon="114.53175804586081"><ele>79.0</ele><time>2026-04-17T02:39:03Z</time></trkpt><trkpt lat="-25.131342169945288" lon="114.5320472769751"><ele>79.5</ele><time>2026-04-17T02:39:04Z</time></trkpt><trkpt lat="-25.131436711736466" lon="114.53233424966001"><ele>80.0</ele><time>2026-04-17T02:39:05Z</time></trkpt><trkpt lat="-25.13153103429267" lon="114.53261662558019"><ele>80.0</ele><time>2026-04-17T02:39:06Z</time></trkpt><trkpt lat="-25.131624869228737" lon="114.5328913363261"><ele>80.0</ele><time>2026-04-17T02:39:07Z</time></trkpt><trkpt lat="-25.131715915904554" lon="114.53315200278199"><ele>80.0</ele><time>2026-04-17T02:39:08Z</time></trkpt><trkpt lat="-25.131804401177167" lon="114.53340151733093"><ele>80.0</ele><time>2026-04-17T02:39:09Z</time></trkpt><trkpt lat="-25.131892909456514" lon="114.5336636542142"><ele>79.5</ele><time>2026-04-17T02:39:10Z</time></trkpt><trkpt lat="-25.131982223326254" lon="114.53393425620317"><ele>79.0</ele><time>2026-04-17T02:39:11Z</time></trkpt><trkpt lat="-25.132076423190554" lon="114.53420694471447"><ele>79.0</ele><time>2026-04-17T02:39:12Z</time></trkpt><trkpt lat="-25.132177136301735" lon="114.53448809297974"><ele>79.0</ele><time>2026-04-17T02:39:13Z</time></trkpt><trkpt lat="-25.13227768459639" lon="114.5347717683756"><ele>79.0</ele><time>2026-04-17T02:39:14Z</time></trkpt><trkpt lat="-25.132378488237467" lon="114.53506104115733"><ele>79.0</ele><time>2026-04-17T02:39:15Z</time></trkpt><trkpt lat="-25.13247910397602" lon="114.53535364561309"><ele>80.0</ele><time>2026-04-17T02:39:16Z</time></trkpt><trkpt lat="-25.132576805918582" lon="114.53565470312256"><ele>81.0</ele><time>2026-04-17T02:39:17Z</time></trkpt><trkpt lat="-25.132671538834817" lon="114.53595678420862"><ele>80.5</ele><time>2026-04-17T02:39:18Z</time></trkpt><trkpt lat="-25.132761501701403" lon="114.53625738032258"><ele>80.0</ele><time>2026-04-17T02:39:19Z</time></trkpt><trkpt lat="-25.1328394896478" lon="114.53655898181982"><ele>80.0</ele><time>2026-04-17T02:39:20Z</time></trkpt><trkpt lat="-25.132903460757422" lon="114.53686178034859"><ele>80.0</ele><time>2026-04-17T02:39:21Z</time></trkpt><trkpt lat="-25.13295330496703" lon="114.53716701897605"><ele>79.5</ele><time>2026-04-17T02:39:22Z</time></trkpt><trkpt lat="-25.132992419175864" lon="114.53747861193294"><ele>79.0</ele><time>2026-04-17T02:39:23Z</time></trkpt><trkpt lat="-25.13301934494818" lon="114.53778944243216"><ele>79.0</ele><time>2026-04-17T02:39:24Z</time></trkpt><trkpt lat="-25.133028930598382" lon="114.53810074790759"><ele>79.0</ele><time>2026-04-17T02:39:25Z</time></trkpt><trkpt lat="-25.13302284985434" lon="114.53840803403425"><ele>80.0</ele><time>2026-04-17T02:39:26Z</time></trkpt><trkpt lat="-25.132998086385793" lon="114.53871876536725"><ele>81.0</ele><time>2026-04-17T02:39:27Z</time></trkpt><trkpt lat="-25.13296259564765" lon="114.53903112971135"><ele>81.0</ele><time>2026-04-17T02:39:28Z</time></trkpt><trkpt lat="-25.132924198650485" lon="114.539342887636"><ele>81.0</ele><time>2026-04-17T02:39:29Z</time></trkpt><trkpt lat="-25.132891201559524" lon="114.53965718979846"><ele>81.5</ele><time>2026-04-17T02:39:30Z</time></trkpt><trkpt lat="-25.13286418292272" lon="114.53996653362887"><ele>82.0</ele><time>2026-04-17T02:39:31Z</time></trkpt><trkpt lat="-25.132834550096856" lon="114.54027979010019"><ele>80.5</ele><time>2026-04-17T02:39:32Z</time></trkpt><trkpt lat="-25.1328025398118" lon="114.54058633034471"><ele>79.0</ele><time>2026-04-17T02:39:33Z</time></trkpt><trkpt lat="-25.132773095876328" lon="114.540897323865"><ele>79.0</ele><time>2026-04-17T02:39:34Z</time></trkpt><trkpt lat="-25.13274628627757" lon="114.54121334293518"><ele>79.0</ele><time>2026-04-17T02:39:35Z</time></trkpt><trkpt lat="-25.132717062162204" lon="114.54153056765662"><ele>79.0</ele><time>2026-04-17T02:39:36Z</time></trkpt><trkpt lat="-25.132687178352796" lon="114.54184884670363"><ele>79.0</ele><time>2026-04-17T02:39:37Z</time></trkpt><trkpt lat="-25.1326546559579" lon="114.54216919693137"><ele>79.5</ele><time>2026-04-17T02:39:38Z</time></trkpt><trkpt lat="-25.132620264230162" lon="114.54248916222174"><ele>80.0</ele><time>2026-04-17T02:39:39Z</time></trkpt><trkpt lat="-25.132587446972835" lon="114.54281177543422"><ele>81.0</ele><time>2026-04-17T02:39:40Z</time></trkpt><trkpt lat="-25.13255758750402" lon="114.54313353454346"><ele>82.0</ele><time>2026-04-17T02:39:41Z</time></trkpt><trkpt lat="-25.132527370877398" lon="114.5434519876723"><ele>82.0</ele><time>2026-04-17T02:39:42Z</time></trkpt><trkpt lat="-25.132495935071404" lon="114.54376993830971"><ele>82.0</ele><time>2026-04-17T02:39:43Z</time></trkpt><trkpt lat="-25.132463102362646" lon="114.54408668390631"><ele>82.0</ele><time>2026-04-17T02:39:44Z</time></trkpt><trkpt lat="-25.132430389613127" lon="114.5444010795659"><ele>82.0</ele><time>2026-04-17T02:39:45Z</time></trkpt><trkpt lat="-25.132398958732207" lon="114.54471895801505"><ele>82.0</ele><time>2026-04-17T02:39:46Z</time></trkpt><trkpt lat="-25.13236640614066" lon="114.54503815671461"><ele>82.0</ele><time>2026-04-17T02:39:47Z</time></trkpt><trkpt lat="-25.13233702700599" lon="114.54535174840593"><ele>82.0</ele><time>2026-04-17T02:39:48Z</time></trkpt><trkpt lat="-25.13230731048758" lon="114.54566455592965"><ele>82.0</ele><time>2026-04-17T02:39:49Z</time></trkpt><trkpt lat="-25.132282773683063" lon="114.54597317128407"><ele>82.0</ele><time>2026-04-17T02:39:50Z</time></trkpt><trkpt lat="-25.132257347496864" lon="114.54628856878455"><ele>82.0</ele><time>2026-04-17T02:39:51Z</time></trkpt><trkpt lat="-25.13223251044695" lon="114.54660147723745"><ele>82.0</ele><time>2026-04-17T02:39:52Z</time></trkpt><trkpt lat="-25.132206155480905" lon="114.54692147620008"><ele>82.0</ele><time>2026-04-17T02:39:53Z</time></trkpt><trkpt lat="-25.13217904900965" lon="114.54724136722643"><ele>82.0</ele><time>2026-04-17T02:39:54Z</time></trkpt><trkpt lat="-25.132151632686668" lon="114.54756074155948"><ele>82.0</ele><time>2026-04-17T02:39:55Z</time></trkpt><trkpt lat="-25.13212459046853" lon="114.54787712680944"><ele>83.0</ele><time>2026-04-17T02:39:56Z</time></trkpt><trkpt lat="-25.132095376251716" lon="114.54819193662226"><ele>84.0</ele><time>2026-04-17T02:39:57Z</time></trkpt><trkpt lat="-25.132065362562596" lon="114.54850412508206"><ele>84.0</ele><time>2026-04-17T02:39:58Z</time></trkpt><trkpt lat="-25.132034160464773" lon="114.548815419174"><ele>84.0</ele><time>2026-04-17T02:39:59Z</time></trkpt><trkpt lat="-25.13200325848751" lon="114.5491267795355"><ele>84.0</ele><time>2026-04-17T02:40:00Z</time></trkpt><trkpt lat="-25.13197275586116" lon="114.54943585302865"><ele>84.0</ele><time>2026-04-17T02:40:01Z</time></trkpt><trkpt lat="-25.13193952465784" lon="114.54974903476399"><ele>83.5</ele><time>2026-04-17T02:40:02Z</time></trkpt><trkpt lat="-25.131905782423857" lon="114.55006018252352"><ele>83.0</ele><time>2026-04-17T02:40:03Z</time></trkpt><trkpt lat="-25.13187384973969" lon="114.55037284511586"><ele>82.0</ele><time>2026-04-17T02:40:04Z</time></trkpt><trkpt lat="-25.131844861664625" lon="114.55068598267597"><ele>81.0</ele><time>2026-04-17T02:40:05Z</time></trkpt><trkpt lat="-25.131815924587436" lon="114.55100198004342"><ele>80.5</ele><time>2026-04-17T02:40:06Z</time></trkpt><trkpt lat="-25.131786565166763" lon="114.55131890047687"><ele>80.0</ele><time>2026-04-17T02:40:07Z</time></trkpt><trkpt lat="-25.13175775485788" lon="114.55163681433685"><ele>80.0</ele><time>2026-04-17T02:40:08Z</time></trkpt><trkpt lat="-25.131731539398242" lon="114.55195402160379"><ele>80.0</ele><time>2026-04-17T02:40:09Z</time></trkpt><trkpt lat="-25.131704253382306" lon="114.55227136944183"><ele>81.5</ele><time>2026-04-17T02:40:10Z</time></trkpt><trkpt lat="-25.131673286019442" lon="114.55259063508376"><ele>83.0</ele><time>2026-04-17T02:40:11Z</time></trkpt><trkpt lat="-25.131641121630608" lon="114.5529134923843"><ele>83.0</ele><time>2026-04-17T02:40:12Z</time></trkpt><trkpt lat="-25.131608550843996" lon="114.55323531829583"><ele>83.0</ele><time>2026-04-17T02:40:13Z</time></trkpt><trkpt lat="-25.131576325445195" lon="114.55355745645608"><ele>82.5</ele><time>2026-04-17T02:40:14Z</time></trkpt><trkpt lat="-25.13154481595639" lon="114.5538803124474"><ele>82.0</ele><time>2026-04-17T02:40:15Z</time></trkpt><trkpt lat="-25.13151461006676" lon="114.55420173259311"><ele>82.0</ele><time>2026-04-17T02:40:16Z</time></trkpt><trkpt lat="-25.131483639439463" lon="114.5545232960799"><ele>82.0</ele><time>2026-04-17T02:40:17Z</time></trkpt><trkpt lat="-25.131452882420565" lon="114.55484281956255"><ele>82.0</ele><time>2026-04-17T02:40:18Z</time></trkpt><trkpt lat="-25.131423899231024" lon="114.5551603733036"><ele>82.0</ele><time>2026-04-17T02:40:19Z</time></trkpt><trkpt lat="-25.1313959740222" lon="114.55547787408669"><ele>82.0</ele><time>2026-04-17T02:40:20Z</time></trkpt><trkpt lat="-25.131367320783305" lon="114.55579188147766"><ele>82.0</ele><time>2026-04-17T02:40:21Z</time></trkpt><trkpt lat="-25.13133840929703" lon="114.55610968490329"><ele>81.0</ele><time>2026-04-17T02:40:22Z</time></trkpt><trkpt lat="-25.13130728703047" lon="114.55642739270685"><ele>80.0</ele><time>2026-04-17T02:40:23Z</time></trkpt><trkpt lat="-25.13127323122905" lon="114.55674469363747"><ele>82.0</ele><time>2026-04-17T02:40:24Z</time></trkpt><trkpt lat="-25.131238612047806" lon="114.55705898604481"><ele>84.0</ele><time>2026-04-17T02:40:25Z</time></trkpt><trkpt lat="-25.131204084590674" lon="114.55737906341062"><ele>84.0</ele><time>2026-04-17T02:40:26Z</time></trkpt><trkpt lat="-25.1311710167496" lon="114.55770117041496"><ele>84.0</ele><time>2026-04-17T02:40:27Z</time></trkpt><trkpt lat="-25.13113772701678" lon="114.55801855726357"><ele>84.0</ele><time>2026-04-17T02:40:28Z</time></trkpt><trkpt lat="-25.131106524334086" lon="114.5583390263325"><ele>84.0</ele><time>2026-04-17T02:40:29Z</time></trkpt><trkpt lat="-25.13107624532155" lon="114.5586593276283"><ele>83.0</ele><time>2026-04-17T02:40:30Z</time></trkpt><trkpt lat="-25.13104905676213" lon="114.55898347677635"><ele>82.0</ele><time>2026-04-17T02:40:31Z</time></trkpt><trkpt lat="-25.131019886014926" lon="114.55931071229921"><ele>82.5</ele><time>2026-04-17T02:40:32Z</time></trkpt><trkpt lat="-25.130992548179083" lon="114.55963969626347"><ele>83.0</ele><time>2026-04-17T02:40:33Z</time></trkpt><trkpt lat="-25.130964923049543" lon="114.55996809521531"><ele>83.0</ele><time>2026-04-17T02:40:34Z</time></trkpt><trkpt lat="-25.130935330177344" lon="114.56029840321268"><ele>83.0</ele><time>2026-04-17T02:40:35Z</time></trkpt><trkpt lat="-25.13090430371167" lon="114.56063176739788"><ele>83.0</ele><time>2026-04-17T02:40:36Z</time></trkpt><trkpt lat="-25.130873247537966" lon="114.56096436780459"><ele>83.0</ele><time>2026-04-17T02:40:37Z</time></trkpt><trkpt lat="-25.13084148411044" lon="114.56129565530526"><ele>82.5</ele><time>2026-04-17T02:40:38Z</time></trkpt><trkpt lat="-25.130809219155324" lon="114.56162570553418"><ele>82.0</ele><time>2026-04-17T02:40:39Z</time></trkpt><trkpt lat="-25.130777063270667" lon="114.56195375221405"><ele>82.5</ele><time>2026-04-17T02:40:40Z</time></trkpt><trkpt lat="-25.130744818885418" lon="114.56228571571874"><ele>83.0</ele><time>2026-04-17T02:40:41Z</time></trkpt><trkpt lat="-25.13071648495701" lon="114.56261514023446"><ele>82.5</ele><time>2026-04-17T02:40:42Z</time></trkpt><trkpt lat="-25.130691734574363" lon="114.56294635817952"><ele>82.0</ele><time>2026-04-17T02:40:43Z</time></trkpt><trkpt lat="-25.13066726931029" lon="114.56327391546941"><ele>82.0</ele><time>2026-04-17T02:40:44Z</time></trkpt><trkpt lat="-25.130638369205755" lon="114.56360312656801"><ele>82.0</ele><time>2026-04-17T02:40:45Z</time></trkpt><trkpt lat="-25.130607080533462" lon="114.56393207910392"><ele>83.0</ele><time>2026-04-17T02:40:46Z</time></trkpt><trkpt lat="-25.130576737152275" lon="114.56426022970187"><ele>84.0</ele><time>2026-04-17T02:40:47Z</time></trkpt><trkpt lat="-25.130547516987594" lon="114.56458690776525"><ele>84.5</ele><time>2026-04-17T02:40:48Z</time></trkpt><trkpt lat="-25.130518142698897" lon="114.56491393383018"><ele>85.0</ele><time>2026-04-17T02:40:49Z</time></trkpt><trkpt lat="-25.13048902518044" lon="114.5652390128468"><ele>84.0</ele><time>2026-04-17T02:40:50Z</time></trkpt><trkpt lat="-25.130458485110307" lon="114.56556393221258"><ele>83.0</ele><time>2026-04-17T02:40:51Z</time></trkpt><trkpt lat="-25.130427274169822" lon="114.56588911633735"><ele>83.5</ele><time>2026-04-17T02:40:52Z</time></trkpt><trkpt lat="-25.130396104321676" lon="114.56621247457929"><ele>84.0</ele><time>2026-04-17T02:40:53Z</time></trkpt><trkpt lat="-25.13036497936394" lon="114.56653804701301"><ele>84.0</ele><time>2026-04-17T02:40:54Z</time></trkpt><trkpt lat="-25.130333824515052" lon="114.56686222580743"><ele>84.0</ele><time>2026-04-17T02:40:55Z</time></trkpt><trkpt lat="-25.13030371013744" lon="114.56718591765339"><ele>83.5</ele><time>2026-04-17T02:40:56Z</time></trkpt><trkpt lat="-25.130272346824306" lon="114.56751283195914"><ele>83.0</ele><time>2026-04-17T02:40:57Z</time></trkpt><trkpt lat="-25.13023978137462" lon="114.56784172251676"><ele>83.0</ele><time>2026-04-17T02:40:58Z</time></trkpt><trkpt lat="-25.130208975390193" lon="114.56816884352833"><ele>83.0</ele><time>2026-04-17T02:40:59Z</time></trkpt><trkpt lat="-25.13017715801703" lon="114.56849756940308"><ele>83.5</ele><time>2026-04-17T02:41:00Z</time></trkpt><trkpt lat="-25.13014492153833" lon="114.56882799589782"><ele>84.0</ele><time>2026-04-17T02:41:01Z</time></trkpt><trkpt lat="-25.130112784444194" lon="114.56915892767005"><ele>84.0</ele><time>2026-04-17T02:41:02Z</time></trkpt><trkpt lat="-25.130083230362214" lon="114.5694882513433"><ele>84.0</ele><time>2026-04-17T02:41:03Z</time></trkpt><trkpt lat="-25.130056061048855" lon="114.56981274369653"><ele>84.0</ele><time>2026-04-17T02:41:04Z</time></trkpt><trkpt lat="-25.130029330336818" lon="114.5701392704624"><ele>84.0</ele><time>2026-04-17T02:41:05Z</time></trkpt><trkpt lat="-25.130001700595106" lon="114.57046869673869"><ele>84.0</ele><time>2026-04-17T02:41:06Z</time></trkpt><trkpt lat="-25.129973357527142" lon="114.57080085957938"><ele>84.0</ele><time>2026-04-17T02:41:07Z</time></trkpt><trkpt lat="-25.129944544069893" lon="114.57112775172794"><ele>83.5</ele><time>2026-04-17T02:41:08Z</time></trkpt><trkpt lat="-25.12991496104875" lon="114.57145510630632"><ele>83.0</ele><time>2026-04-17T02:41:09Z</time></trkpt><trkpt lat="-25.129882449683596" lon="114.57178292641805"><ele>84.5</ele><time>2026-04-17T02:41:10Z</time></trkpt><trkpt lat="-25.129852812891297" lon="114.57211024991379"><ele>86.0</ele><time>2026-04-17T02:41:11Z</time></trkpt><trkpt lat="-25.12982404695176" lon="114.5724335834731"><ele>86.0</ele><time>2026-04-17T02:41:12Z</time></trkpt><trkpt lat="-25.12979735801294" lon="114.572758884169"><ele>86.0</ele><time>2026-04-17T02:41:13Z</time></trkpt><trkpt lat="-25.129767381759912" lon="114.57307792892853"><ele>86.0</ele><time>2026-04-17T02:41:14Z</time></trkpt><trkpt lat="-25.129736344017623" lon="114.573397173588"><ele>86.0</ele><time>2026-04-17T02:41:15Z</time></trkpt><trkpt lat="-25.129706649162994" lon="114.57371545212759"><ele>86.5</ele><time>2026-04-17T02:41:16Z</time></trkpt><trkpt lat="-25.129674845334392" lon="114.57403275505078"><ele>87.0</ele><time>2026-04-17T02:41:17Z</time></trkpt><trkpt lat="-25.129644138497532" lon="114.57435395605489"><ele>86.0</ele><time>2026-04-17T02:41:18Z</time></trkpt><trkpt lat="-25.12961458141665" lon="114.57467830324823"><ele>85.0</ele><time>2026-04-17T02:41:19Z</time></trkpt><trkpt lat="-25.129584274540505" lon="114.57500464986938"><ele>85.0</ele><time>2026-04-17T02:41:20Z</time></trkpt><trkpt lat="-25.129553710444327" lon="114.57533046096854"><ele>85.0</ele><time>2026-04-17T02:41:21Z</time></trkpt><trkpt lat="-25.129524385568455" lon="114.5756590373229"><ele>85.5</ele><time>2026-04-17T02:41:22Z</time></trkpt><trkpt lat="-25.12949585445417" lon="114.57598932861822"><ele>86.0</ele><time>2026-04-17T02:41:23Z</time></trkpt><trkpt lat="-25.12946644508813" lon="114.57632095770184"><ele>86.0</ele><time>2026-04-17T02:41:24Z</time></trkpt><trkpt lat="-25.129438656141367" lon="114.57664772884304"><ele>86.0</ele><time>2026-04-17T02:41:25Z</time></trkpt><trkpt lat="-25.12941136679617" lon="114.57697216028562"><ele>86.0</ele><time>2026-04-17T02:41:26Z</time></trkpt><trkpt lat="-25.129383114473477" lon="114.57729166538111"><ele>86.0</ele><time>2026-04-17T02:41:27Z</time></trkpt><trkpt lat="-25.129353516764457" lon="114.57761030788593"><ele>85.0</ele><time>2026-04-17T02:41:28Z</time></trkpt><trkpt lat="-25.129323318005646" lon="114.57792823372235"><ele>84.0</ele><time>2026-04-17T02:41:29Z</time></trkpt><trkpt lat="-25.129292715973175" lon="114.57824260392196"><ele>84.0</ele><time>2026-04-17T02:41:30Z</time></trkpt><trkpt lat="-25.129261112552115" lon="114.57855951752167"><ele>84.0</ele><time>2026-04-17T02:41:31Z</time></trkpt><trkpt lat="-25.129231877415524" lon="114.57887776181644"><ele>84.0</ele><time>2026-04-17T02:41:32Z</time></trkpt><trkpt lat="-25.129203141547183" lon="114.57919980501588"><ele>84.0</ele><time>2026-04-17T02:41:33Z</time></trkpt><trkpt lat="-25.12917421705925" lon="114.57952462492172"><ele>84.0</ele><time>2026-04-17T02:41:34Z</time></trkpt><trkpt lat="-25.129146538613462" lon="114.57984714079424"><ele>84.0</ele><time>2026-04-17T02:41:35Z</time></trkpt><trkpt lat="-25.129117253604814" lon="114.58017116098908"><ele>84.0</ele><time>2026-04-17T02:41:36Z</time></trkpt><trkpt lat="-25.129084881817835" lon="114.58049540243799"><ele>84.0</ele><time>2026-04-17T02:41:37Z</time></trkpt><trkpt lat="-25.129051633044764" lon="114.58082730035754"><ele>84.0</ele><time>2026-04-17T02:41:38Z</time></trkpt><trkpt lat="-25.129022487230568" lon="114.58115929215856"><ele>84.0</ele><time>2026-04-17T02:41:39Z</time></trkpt><trkpt lat="-25.128994208618703" lon="114.58148861995483"><ele>84.5</ele><time>2026-04-17T02:41:40Z</time></trkpt><trkpt lat="-25.1289650787073" lon="114.5818147552754"><ele>85.0</ele><time>2026-04-17T02:41:41Z</time></trkpt><trkpt lat="-25.128934625257266" lon="114.58214045010234"><ele>84.0</ele><time>2026-04-17T02:41:42Z</time></trkpt><trkpt lat="-25.12890487094133" lon="114.5824647582878"><ele>83.0</ele><time>2026-04-17T02:41:43Z</time></trkpt><trkpt lat="-25.1288730663856" lon="114.5827880724698"><ele>83.5</ele><time>2026-04-17T02:41:44Z</time></trkpt><trkpt lat="-25.12884224583731" lon="114.58311475696311"><ele>84.0</ele><time>2026-04-17T02:41:45Z</time></trkpt><trkpt lat="-25.128814218858395" lon="114.58343713011092"><ele>84.5</ele><time>2026-04-17T02:41:46Z</time></trkpt><trkpt lat="-25.12878676867367" lon="114.5837636331091"><ele>85.0</ele><time>2026-04-17T02:41:47Z</time></trkpt><trkpt lat="-25.128757645181338" lon="114.584089419781"><ele>85.0</ele><time>2026-04-17T02:41:48Z</time></trkpt><trkpt lat="-25.12872746765647" lon="114.58441601129164"><ele>85.0</ele><time>2026-04-17T02:41:49Z</time></trkpt><trkpt lat="-25.128697604823095" lon="114.58474200402166"><ele>84.5</ele><time>2026-04-17T02:41:50Z</time></trkpt><trkpt lat="-25.1286698403734" lon="114.58506729566504"><ele>84.0</ele><time>2026-04-17T02:41:51Z</time></trkpt><trkpt lat="-25.128642957579057" lon="114.58538993151872"><ele>83.5</ele><time>2026-04-17T02:41:52Z</time></trkpt><trkpt lat="-25.12861450636869" lon="114.58571475679614"><ele>83.0</ele><time>2026-04-17T02:41:53Z</time></trkpt><trkpt lat="-25.12858426640208" lon="114.58603580438145"><ele>83.5</ele><time>2026-04-17T02:41:54Z</time></trkpt><trkpt lat="-25.12855173882972" lon="114.58635665815454"><ele>84.0</ele><time>2026-04-17T02:41:55Z</time></trkpt><trkpt lat="-25.12851900101663" lon="114.586676902852"><ele>84.0</ele><time>2026-04-17T02:41:56Z</time></trkpt><trkpt lat="-25.12848637355312" lon="114.58700277470334"><ele>84.0</ele><time>2026-04-17T02:41:57Z</time></trkpt><trkpt lat="-25.128454330364473" lon="114.58733928456441"><ele>84.0</ele><time>2026-04-17T02:41:58Z</time></trkpt><trkpt lat="-25.128423676727436" lon="114.5876776642064"><ele>84.0</ele><time>2026-04-17T02:41:59Z</time></trkpt><trkpt lat="-25.12839500821649" lon="114.5880092192052"><ele>84.5</ele><time>2026-04-17T02:42:00Z</time></trkpt><trkpt lat="-25.128368811879113" lon="114.58834340888377"><ele>85.0</ele><time>2026-04-17T02:42:01Z</time></trkpt><trkpt lat="-25.12834563339034" lon="114.58867319210516"><ele>85.0</ele><time>2026-04-17T02:42:02Z</time></trkpt><trkpt lat="-25.12831865678038" lon="114.58900560618636"><ele>85.0</ele><time>2026-04-17T02:42:03Z</time></trkpt><trkpt lat="-25.12828957256727" lon="114.58933428664149"><ele>84.5</ele><time>2026-04-17T02:42:04Z</time></trkpt><trkpt lat="-25.128259447261975" lon="114.58966207610774"><ele>84.0</ele><time>2026-04-17T02:42:05Z</time></trkpt><trkpt lat="-25.128228864436217" lon="114.58999097018868"><ele>84.0</ele><time>2026-04-17T02:42:06Z</time></trkpt><trkpt lat="-25.128197682946226" lon="114.59031837745638"><ele>84.0</ele><time>2026-04-17T02:42:07Z</time></trkpt><trkpt lat="-25.12816609502203" lon="114.59065055694647"><ele>84.0</ele><time>2026-04-17T02:42:08Z</time></trkpt><trkpt lat="-25.128135304734958" lon="114.59098210610875"><ele>84.0</ele><time>2026-04-17T02:42:09Z</time></trkpt><trkpt lat="-25.128105841417806" lon="114.59131439350124"><ele>84.5</ele><time>2026-04-17T02:42:10Z</time></trkpt><trkpt lat="-25.128076642990635" lon="114.59164934585993"><ele>85.0</ele><time>2026-04-17T02:42:11Z</time></trkpt><trkpt lat="-25.128048338051755" lon="114.59198551026743"><ele>85.5</ele><time>2026-04-17T02:42:12Z</time></trkpt><trkpt lat="-25.128021717255496" lon="114.59231757586815"><ele>86.0</ele><time>2026-04-17T02:42:13Z</time></trkpt><trkpt lat="-25.127997099431326" lon="114.59264758242277"><ele>85.0</ele><time>2026-04-17T02:42:14Z</time></trkpt><trkpt lat="-25.1279691237993" lon="114.59297163869213"><ele>84.0</ele><time>2026-04-17T02:42:15Z</time></trkpt><trkpt lat="-25.12794171800509" lon="114.59329219671763"><ele>84.0</ele><time>2026-04-17T02:42:16Z</time></trkpt><trkpt lat="-25.127914206934253" lon="114.59361797930109"><ele>84.0</ele><time>2026-04-17T02:42:17Z</time></trkpt><trkpt lat="-25.12788162492124" lon="114.59394129246873"><ele>85.0</ele><time>2026-04-17T02:42:18Z</time></trkpt><trkpt lat="-25.127851029335112" lon="114.59425193197123"><ele>86.0</ele><time>2026-04-17T02:42:19Z</time></trkpt><trkpt lat="-25.12782874624613" lon="114.59454477787159"><ele>86.0</ele><time>2026-04-17T02:42:20Z</time></trkpt><trkpt lat="-25.12781875910633" lon="114.59483319194179"><ele>86.0</ele><time>2026-04-17T02:42:21Z</time></trkpt><trkpt lat="-25.127821140227024" lon="114.5951362999045"><ele>86.0</ele><time>2026-04-17T02:42:22Z</time></trkpt><trkpt lat="-25.127835624351384" lon="114.59544777896423"><ele>86.0</ele><time>2026-04-17T02:42:23Z</time></trkpt><trkpt lat="-25.127867011223202" lon="114.59575865591637"><ele>86.0</ele><time>2026-04-17T02:42:24Z</time></trkpt><trkpt lat="-25.127916226141068" lon="114.59606406815102"><ele>86.0</ele><time>2026-04-17T02:42:25Z</time></trkpt><trkpt lat="-25.127981010274766" lon="114.59636189368311"><ele>84.5</ele><time>2026-04-17T02:42:26Z</time></trkpt><trkpt lat="-25.12806030767235" lon="114.59665260525911"><ele>83.0</ele><time>2026-04-17T02:42:27Z</time></trkpt><trkpt lat="-25.128155742253007" lon="114.59693693925377"><ele>83.5</ele><time>2026-04-17T02:42:28Z</time></trkpt><trkpt lat="-25.12826820213949" lon="114.59722061405094"><ele>84.0</ele><time>2026-04-17T02:42:29Z</time></trkpt><trkpt lat="-25.128396627173544" lon="114.5975018750894"><ele>84.0</ele><time>2026-04-17T02:42:30Z</time></trkpt><trkpt lat="-25.128534543555265" lon="114.59777689643876"><ele>84.0</ele><time>2026-04-17T02:42:31Z</time></trkpt><trkpt lat="-25.128681865234483" lon="114.59805116625232"><ele>84.5</ele><time>2026-04-17T02:42:32Z</time></trkpt><trkpt lat="-25.12884256794179" lon="114.59831844983047"><ele>85.0</ele><time>2026-04-17T02:42:33Z</time></trkpt><trkpt lat="-25.12901625058861" lon="114.59857582597405"><ele>85.0</ele><time>2026-04-17T02:42:34Z</time></trkpt><trkpt lat="-25.129196938588912" lon="114.59882431741542"><ele>85.0</ele><time>2026-04-17T02:42:35Z</time></trkpt><trkpt lat="-25.129381758728197" lon="114.59906807288145"><ele>85.0</ele><time>2026-04-17T02:42:36Z</time></trkpt><trkpt lat="-25.12956785624585" lon="114.59931109503785"><ele>85.0</ele><time>2026-04-17T02:42:37Z</time></trkpt><trkpt lat="-25.129754429635305" lon="114.59955162323322"><ele>85.0</ele><time>2026-04-17T02:42:38Z</time></trkpt><trkpt lat="-25.129939247707906" lon="114.59979124247774"><ele>85.0</ele><time>2026-04-17T02:42:39Z</time></trkpt><trkpt lat="-25.130122954980834" lon="114.60003594349298"><ele>85.0</ele><time>2026-04-17T02:42:40Z</time></trkpt><trkpt lat="-25.130309116677036" lon="114.60027974536027"><ele>85.0</ele><time>2026-04-17T02:42:41Z</time></trkpt><trkpt lat="-25.130501787095813" lon="114.60051889744634"><ele>85.5</ele><time>2026-04-17T02:42:42Z</time></trkpt><trkpt lat="-25.13069481979851" lon="114.60075693081723"><ele>86.0</ele><time>2026-04-17T02:42:43Z</time></trkpt><trkpt lat="-25.13088673478091" lon="114.60100022657086"><ele>86.5</ele><time>2026-04-17T02:42:44Z</time></trkpt><trkpt lat="-25.131079469643463" lon="114.60124224890777"><ele>87.0</ele><time>2026-04-17T02:42:45Z</time></trkpt><trkpt lat="-25.131273519588845" lon="114.60148519246025"><ele>87.0</ele><time>2026-04-17T02:42:46Z</time></trkpt><trkpt lat="-25.13146440214881" lon="114.60172882448325"><ele>87.0</ele><time>2026-04-17T02:42:47Z</time></trkpt><trkpt lat="-25.131656629440705" lon="114.60197543153969"><ele>86.5</ele><time>2026-04-17T02:42:48Z</time></trkpt><trkpt lat="-25.131848530389" lon="114.60221938359231"><ele>86.0</ele><time>2026-04-17T02:42:49Z</time></trkpt><trkpt lat="-25.132040177534687" lon="114.60246570443874"><ele>86.0</ele><time>2026-04-17T02:42:50Z</time></trkpt><trkpt lat="-25.13223040149242" lon="114.60271281798784"><ele>86.0</ele><time>2026-04-17T02:42:51Z</time></trkpt><trkpt lat="-25.132421767733128" lon="114.60295869402707"><ele>85.5</ele><time>2026-04-17T02:42:52Z</time></trkpt><trkpt lat="-25.13261426905431" lon="114.60320403609603"><ele>85.0</ele><time>2026-04-17T02:42:53Z</time></trkpt><trkpt lat="-25.132805738758524" lon="114.60344653173468"><ele>85.5</ele><time>2026-04-17T02:42:54Z</time></trkpt><trkpt lat="-25.13299696877867" lon="114.6036890624907"><ele>86.0</ele><time>2026-04-17T02:42:55Z</time></trkpt><trkpt lat="-25.133187408038513" lon="114.60393004808809"><ele>85.5</ele><time>2026-04-17T02:42:56Z</time></trkpt><trkpt lat="-25.133379017602913" lon="114.60417397528626"><ele>85.0</ele><time>2026-04-17T02:42:57Z</time></trkpt><trkpt lat="-25.13356896223628" lon="114.60441781368054"><ele>86.0</ele><time>2026-04-17T02:42:58Z</time></trkpt><trkpt lat="-25.133757841249516" lon="114.60466295386259"><ele>87.0</ele><time>2026-04-17T02:42:59Z</time></trkpt><trkpt lat="-25.133947216014594" lon="114.60490664127222"><ele>87.0</ele><time>2026-04-17T02:43:00Z</time></trkpt><trkpt lat="-25.13413751349941" lon="114.60514714275266"><ele>87.0</ele><time>2026-04-17T02:43:01Z</time></trkpt><trkpt lat="-25.134328049604107" lon="114.6053874067063"><ele>86.5</ele><time>2026-04-17T02:43:02Z</time></trkpt><trkpt lat="-25.134520868241456" lon="114.60563218668976"><ele>86.0</ele><time>2026-04-17T02:43:03Z</time></trkpt><trkpt lat="-25.13471377033585" lon="114.60587653397172"><ele>85.5</ele><time>2026-04-17T02:43:04Z</time></trkpt><trkpt lat="-25.13490655616925" lon="114.60612022008141"><ele>85.0</ele><time>2026-04-17T02:43:05Z</time></trkpt><trkpt lat="-25.13509659489769" lon="114.60636300216444"><ele>85.0</ele><time>2026-04-17T02:43:06Z</time></trkpt><trkpt lat="-25.135292101848094" lon="114.60661271400014"><ele>85.0</ele><time>2026-04-17T02:43:07Z</time></trkpt><trkpt lat="-25.135486825110284" lon="114.60686161252468"><ele>85.0</ele><time>2026-04-17T02:43:08Z</time></trkpt><trkpt lat="-25.135678828605766" lon="114.60711084369481"><ele>85.0</ele><time>2026-04-17T02:43:09Z</time></trkpt><trkpt lat="-25.135871053496675" lon="114.60735794299161"><ele>85.0</ele><time>2026-04-17T02:43:10Z</time></trkpt><trkpt lat="-25.13606466641809" lon="114.6076023633224"><ele>85.0</ele><time>2026-04-17T02:43:11Z</time></trkpt><trkpt lat="-25.136257752275334" lon="114.60784990353211"><ele>86.0</ele><time>2026-04-17T02:43:12Z</time></trkpt><trkpt lat="-25.136447796671735" lon="114.6080954725591"><ele>87.0</ele><time>2026-04-17T02:43:13Z</time></trkpt><trkpt lat="-25.136636073609996" lon="114.60834163242663"><ele>87.0</ele><time>2026-04-17T02:43:14Z</time></trkpt><trkpt lat="-25.136819595056377" lon="114.60858375015047"><ele>87.0</ele><time>2026-04-17T02:43:15Z</time></trkpt><trkpt lat="-25.137003054540727" lon="114.6088259968192"><ele>87.0</ele><time>2026-04-17T02:43:16Z</time></trkpt><trkpt lat="-25.137185438013482" lon="114.60906518483222"><ele>87.0</ele><time>2026-04-17T02:43:17Z</time></trkpt><trkpt lat="-25.137370270126436" lon="114.60930005954711"><ele>86.5</ele><time>2026-04-17T02:43:18Z</time></trkpt><trkpt lat="-25.13755574144349" lon="114.60953279072585"><ele>86.0</ele><time>2026-04-17T02:43:19Z</time></trkpt><trkpt lat="-25.137740523389137" lon="114.60976240459352"><ele>86.0</ele><time>2026-04-17T02:43:20Z</time></trkpt><trkpt lat="-25.13792278994963" lon="114.60999217532458"><ele>86.0</ele><time>2026-04-17T02:43:21Z</time></trkpt><trkpt lat="-25.138104760621495" lon="114.61022520042928"><ele>86.0</ele><time>2026-04-17T02:43:22Z</time></trkpt><trkpt lat="-25.138287071250552" lon="114.61045618664343"><ele>86.0</ele><time>2026-04-17T02:43:23Z</time></trkpt><trkpt lat="-25.13846804333772" lon="114.61068492144543"><ele>86.0</ele><time>2026-04-17T02:43:24Z</time></trkpt><trkpt lat="-25.138649721169738" lon="114.61091362306391"><ele>86.0</ele><time>2026-04-17T02:43:25Z</time></trkpt><trkpt lat="-25.138833492732182" lon="114.61114446731732"><ele>86.0</ele><time>2026-04-17T02:43:26Z</time></trkpt><trkpt lat="-25.13901573947623" lon="114.61137649873898"><ele>86.0</ele><time>2026-04-17T02:43:27Z</time></trkpt><trkpt lat="-25.13919758776624" lon="114.61161478871644"><ele>86.0</ele><time>2026-04-17T02:43:28Z</time></trkpt><trkpt lat="-25.139381449506676" lon="114.6118541566457"><ele>86.0</ele><time>2026-04-17T02:43:29Z</time></trkpt><trkpt lat="-25.139567552594446" lon="114.61209234579361"><ele>86.0</ele><time>2026-04-17T02:43:30Z</time></trkpt><trkpt lat="-25.13975059773099" lon="114.61232680639351"><ele>86.0</ele><time>2026-04-17T02:43:31Z</time></trkpt><trkpt lat="-25.139929509148804" lon="114.61255824979831"><ele>86.5</ele><time>2026-04-17T02:43:32Z</time></trkpt><trkpt lat="-25.140110069225635" lon="114.61279085171766"><ele>87.0</ele><time>2026-04-17T02:43:33Z</time></trkpt><trkpt lat="-25.140289179200703" lon="114.61301992993707"><ele>87.5</ele><time>2026-04-17T02:43:34Z</time></trkpt><trkpt lat="-25.140471021151978" lon="114.61325301591438"><ele>88.0</ele><time>2026-04-17T02:43:35Z</time></trkpt><trkpt lat="-25.140654277034347" lon="114.61348558738062"><ele>87.5</ele><time>2026-04-17T02:43:36Z</time></trkpt><trkpt lat="-25.140836471898535" lon="114.61371827094597"><ele>87.0</ele><time>2026-04-17T02:43:37Z</time></trkpt><trkpt lat="-25.141017932457594" lon="114.61395119746759"><ele>87.0</ele><time>2026-04-17T02:43:38Z</time></trkpt><trkpt lat="-25.14120104856703" lon="114.61418643420407"><ele>87.0</ele><time>2026-04-17T02:43:39Z</time></trkpt><trkpt lat="-25.141384806191166" lon="114.61442264733854"><ele>88.0</ele><time>2026-04-17T02:43:40Z</time></trkpt><trkpt lat="-25.141572640464425" lon="114.61466270468807"><ele>89.0</ele><time>2026-04-17T02:43:41Z</time></trkpt><trkpt lat="-25.1417573821526" lon="114.61490085851732"><ele>89.0</ele><time>2026-04-17T02:43:42Z</time></trkpt><trkpt lat="-25.14194105391556" lon="114.61513904182463"><ele>89.0</ele><time>2026-04-17T02:43:43Z</time></trkpt><trkpt lat="-25.142124889671717" lon="114.61537682515736"><ele>88.0</ele><time>2026-04-17T02:43:44Z</time></trkpt><trkpt lat="-25.142308370570234" lon="114.61561414676586"><ele>87.0</ele><time>2026-04-17T02:43:45Z</time></trkpt><trkpt lat="-25.142491383800603" lon="114.61585067901613"><ele>86.5</ele><time>2026-04-17T02:43:46Z</time></trkpt><trkpt lat="-25.142675531289182" lon="114.61608531705167"><ele>86.0</ele><time>2026-04-17T02:43:47Z</time></trkpt><trkpt lat="-25.142861642472187" lon="114.61631391886219"><ele>87.0</ele><time>2026-04-17T02:43:48Z</time></trkpt><trkpt lat="-25.143049970984787" lon="114.61654022390415"><ele>88.0</ele><time>2026-04-17T02:43:49Z</time></trkpt><trkpt lat="-25.143242279516386" lon="114.61675912100024"><ele>88.0</ele><time>2026-04-17T02:43:50Z</time></trkpt><trkpt lat="-25.143444000115856" lon="114.61697189507323"><ele>88.0</ele><time>2026-04-17T02:43:51Z</time></trkpt><trkpt lat="-25.14365729963837" lon="114.61717897662304"><ele>87.5</ele><time>2026-04-17T02:43:52Z</time></trkpt><trkpt lat="-25.14387412389888" lon="114.61737914320989"><ele>87.0</ele><time>2026-04-17T02:43:53Z</time></trkpt><trkpt lat="-25.1440982759954" lon="114.61756946901602"><ele>87.0</ele><time>2026-04-17T02:43:54Z</time></trkpt><trkpt lat="-25.144329647383795" lon="114.61775015283378"><ele>87.0</ele><time>2026-04-17T02:43:55Z</time></trkpt><trkpt lat="-25.144567505353514" lon="114.61792457234084"><ele>87.0</ele><time>2026-04-17T02:43:56Z</time></trkpt><trkpt lat="-25.14481053898992" lon="114.61808976846905"><ele>87.0</ele><time>2026-04-17T02:43:57Z</time></trkpt><trkpt lat="-25.145060011302704" lon="114.61824968612902"><ele>86.5</ele><time>2026-04-17T02:43:58Z</time></trkpt><trkpt lat="-25.14531509697838" lon="114.61840568433881"><ele>86.0</ele><time>2026-04-17T02:43:59Z</time></trkpt><trkpt lat="-25.145571543832364" lon="114.61855860066937"><ele>86.5</ele><time>2026-04-17T02:44:00Z</time></trkpt><trkpt lat="-25.145823810118735" lon="114.61870678918336"><ele>87.0</ele><time>2026-04-17T02:44:01Z</time></trkpt><trkpt lat="-25.14607165714407" lon="114.61885473697507"><ele>87.0</ele><time>2026-04-17T02:44:02Z</time></trkpt><trkpt lat="-25.14631316614984" lon="114.61900144194307"><ele>87.0</ele><time>2026-04-17T02:44:03Z</time></trkpt><trkpt lat="-25.146556622758165" lon="114.61914426360498"><ele>87.0</ele><time>2026-04-17T02:44:04Z</time></trkpt><trkpt lat="-25.146798906699246" lon="114.61928188349074"><ele>87.0</ele><time>2026-04-17T02:44:05Z</time></trkpt><trkpt lat="-25.147041478449953" lon="114.61941966957822"><ele>87.0</ele><time>2026-04-17T02:44:06Z</time></trkpt><trkpt lat="-25.14728634238523" lon="114.61955978546251"><ele>87.0</ele><time>2026-04-17T02:44:07Z</time></trkpt><trkpt lat="-25.14753195996409" lon="114.61970216461769"><ele>88.0</ele><time>2026-04-17T02:44:08Z</time></trkpt><trkpt lat="-25.147774757530463" lon="114.61984787238092"><ele>89.0</ele><time>2026-04-17T02:44:09Z</time></trkpt><trkpt lat="-25.148018353971747" lon="114.61999351848814"><ele>89.0</ele><time>2026-04-17T02:44:10Z</time></trkpt><trkpt lat="-25.148262861084252" lon="114.62013709651139"><ele>89.0</ele><time>2026-04-17T02:44:11Z</time></trkpt><trkpt lat="-25.1485093487527" lon="114.62027946324037"><ele>88.5</ele><time>2026-04-17T02:44:12Z</time></trkpt><trkpt lat="-25.148757028687044" lon="114.62042012577263"><ele>88.0</ele><time>2026-04-17T02:44:13Z</time></trkpt><trkpt lat="-25.1490037964064" lon="114.62056048463279"><ele>87.5</ele><time>2026-04-17T02:44:14Z</time></trkpt><trkpt lat="-25.149252703398407" lon="114.62070238042915"><ele>87.0</ele><time>2026-04-17T02:44:15Z</time></trkpt><trkpt lat="-25.149499398326153" lon="114.62084537834637"><ele>87.0</ele><time>2026-04-17T02:44:16Z</time></trkpt><trkpt lat="-25.149746583310385" lon="114.62098887603227"><ele>87.0</ele><time>2026-04-17T02:44:17Z</time></trkpt><trkpt lat="-25.149994404733935" lon="114.62113200958642"><ele>87.5</ele><time>2026-04-17T02:44:18Z</time></trkpt><trkpt lat="-25.15024332393644" lon="114.62127553582344"><ele>88.0</ele><time>2026-04-17T02:44:19Z</time></trkpt><trkpt lat="-25.15048597300336" lon="114.62141798258644"><ele>88.5</ele><time>2026-04-17T02:44:20Z</time></trkpt><trkpt lat="-25.150727910203138" lon="114.62156001818673"><ele>89.0</ele><time>2026-04-17T02:44:21Z</time></trkpt><trkpt lat="-25.15096904784533" lon="114.62170413466292"><ele>89.0</ele><time>2026-04-17T02:44:22Z</time></trkpt><trkpt lat="-25.151212573331627" lon="114.62184966701034"><ele>89.0</ele><time>2026-04-17T02:44:23Z</time></trkpt><trkpt lat="-25.15145354188349" lon="114.62199330711913"><ele>88.5</ele><time>2026-04-17T02:44:24Z</time></trkpt><trkpt lat="-25.151693860018018" lon="114.62213657251539"><ele>88.0</ele><time>2026-04-17T02:44:25Z</time></trkpt><trkpt lat="-25.15193043615526" lon="114.62227767726202"><ele>88.0</ele><time>2026-04-17T02:44:26Z</time></trkpt><trkpt lat="-25.152167649832784" lon="114.62242171271696"><ele>88.0</ele><time>2026-04-17T02:44:27Z</time></trkpt><trkpt lat="-25.15240403191699" lon="114.62256013922442"><ele>88.0</ele><time>2026-04-17T02:44:28Z</time></trkpt><trkpt lat="-25.152639852008615" lon="114.6226972964494"><ele>88.0</ele><time>2026-04-17T02:44:29Z</time></trkpt><trkpt lat="-25.152875969181434" lon="114.62283347971955"><ele>88.0</ele><time>2026-04-17T02:44:30Z</time></trkpt><trkpt lat="-25.153112041843578" lon="114.62297113903905"><ele>88.0</ele><time>2026-04-17T02:44:31Z</time></trkpt><trkpt lat="-25.153347807533713" lon="114.62310991946426"><ele>88.0</ele><time>2026-04-17T02:44:32Z</time></trkpt><trkpt lat="-25.153582602023416" lon="114.62325135409303"><ele>88.0</ele><time>2026-04-17T02:44:33Z</time></trkpt><trkpt lat="-25.15381782727246" lon="114.6233982322814"><ele>88.5</ele><time>2026-04-17T02:44:34Z</time></trkpt><trkpt lat="-25.15404962826895" lon="114.62354914347256"><ele>89.0</ele><time>2026-04-17T02:44:35Z</time></trkpt><trkpt lat="-25.154276985427153" lon="114.62370326562593"><ele>89.0</ele><time>2026-04-17T02:44:36Z</time></trkpt><trkpt lat="-25.15450324816727" lon="114.62386301116491"><ele>89.0</ele><time>2026-04-17T02:44:37Z</time></trkpt><trkpt lat="-25.15472581794013" lon="114.62403225971815"><ele>89.0</ele><time>2026-04-17T02:44:38Z</time></trkpt><trkpt lat="-25.154942533026585" lon="114.62421361337354"><ele>89.0</ele><time>2026-04-17T02:44:39Z</time></trkpt><trkpt lat="-25.155157966926716" lon="114.62440894859293"><ele>90.5</ele><time>2026-04-17T02:44:40Z</time></trkpt><trkpt lat="-25.15536697668571" lon="114.6246092490915"><ele>92.0</ele><time>2026-04-17T02:44:41Z</time></trkpt><trkpt lat="-25.15557507099733" lon="114.62481397866904"><ele>91.5</ele><time>2026-04-17T02:44:42Z</time></trkpt><trkpt lat="-25.155779073654305" lon="114.62502302510451"><ele>91.0</ele><time>2026-04-17T02:44:43Z</time></trkpt><trkpt lat="-25.155975743117665" lon="114.62523495203149"><ele>92.0</ele><time>2026-04-17T02:44:44Z</time></trkpt><trkpt lat="-25.156163950466546" lon="114.62545026722493"><ele>93.0</ele><time>2026-04-17T02:44:45Z</time></trkpt><trkpt lat="-25.156344990997187" lon="114.62567136554263"><ele>93.0</ele><time>2026-04-17T02:44:46Z</time></trkpt><trkpt lat="-25.156518776668403" lon="114.62589986871816"><ele>93.0</ele><time>2026-04-17T02:44:47Z</time></trkpt><trkpt lat="-25.1566844408516" lon="114.62613372836326"><ele>92.0</ele><time>2026-04-17T02:44:48Z</time></trkpt><trkpt lat="-25.15684730647595" lon="114.62637283315294"><ele>91.0</ele><time>2026-04-17T02:44:49Z</time></trkpt><trkpt lat="-25.157007058838598" lon="114.62661656086554"><ele>91.0</ele><time>2026-04-17T02:44:50Z</time></trkpt><trkpt lat="-25.15715982138406" lon="114.62686206745293"><ele>91.0</ele><time>2026-04-17T02:44:51Z</time></trkpt><trkpt lat="-25.157306079257108" lon="114.62711097790077"><ele>89.5</ele><time>2026-04-17T02:44:52Z</time></trkpt><trkpt lat="-25.15744606602345" lon="114.62735965675046"><ele>88.0</ele><time>2026-04-17T02:44:53Z</time></trkpt><trkpt lat="-25.15758419157433" lon="114.62760805178063"><ele>88.0</ele><time>2026-04-17T02:44:54Z</time></trkpt><trkpt lat="-25.15772336665442" lon="114.62785605178853"><ele>88.0</ele><time>2026-04-17T02:44:55Z</time></trkpt><trkpt lat="-25.157866690387305" lon="114.62810473154858"><ele>88.0</ele><time>2026-04-17T02:44:56Z</time></trkpt><trkpt lat="-25.15801082739025" lon="114.62835284677716"><ele>88.0</ele><time>2026-04-17T02:44:57Z</time></trkpt><trkpt lat="-25.158159722899214" lon="114.62860272538228"><ele>88.0</ele><time>2026-04-17T02:44:58Z</time></trkpt><trkpt lat="-25.15830792758052" lon="114.62885515573723"><ele>88.0</ele><time>2026-04-17T02:44:59Z</time></trkpt><trkpt lat="-25.158455336888903" lon="114.62911663624374"><ele>88.0</ele><time>2026-04-17T02:45:00Z</time></trkpt><trkpt lat="-25.1586010338852" lon="114.62938395433706"><ele>88.0</ele><time>2026-04-17T02:45:01Z</time></trkpt><trkpt lat="-25.158752777024205" lon="114.62965405320281"><ele>88.5</ele><time>2026-04-17T02:45:02Z</time></trkpt><trkpt lat="-25.158908235617332" lon="114.62992540905839"><ele>89.0</ele><time>2026-04-17T02:45:03Z</time></trkpt><trkpt lat="-25.15906423408812" lon="114.63019396981798"><ele>89.0</ele><time>2026-04-17T02:45:04Z</time></trkpt><trkpt lat="-25.159218692932555" lon="114.63046265569606"><ele>89.0</ele><time>2026-04-17T02:45:05Z</time></trkpt><trkpt lat="-25.159370805757916" lon="114.63073094163836"><ele>89.0</ele><time>2026-04-17T02:45:06Z</time></trkpt><trkpt lat="-25.15952138273349" lon="114.6309963375917"><ele>89.0</ele><time>2026-04-17T02:45:07Z</time></trkpt><trkpt lat="-25.159671708356388" lon="114.63125891420384"><ele>89.0</ele><time>2026-04-17T02:45:08Z</time></trkpt><trkpt lat="-25.15982221682463" lon="114.63151920785097"><ele>89.0</ele><time>2026-04-17T02:45:09Z</time></trkpt><trkpt lat="-25.159975915813025" lon="114.63178321845469"><ele>88.5</ele><time>2026-04-17T02:45:10Z</time></trkpt><trkpt lat="-25.16012509441686" lon="114.63204620761836"><ele>88.0</ele><time>2026-04-17T02:45:11Z</time></trkpt><trkpt lat="-25.16027227972762" lon="114.63230848429066"><ele>88.0</ele><time>2026-04-17T02:45:12Z</time></trkpt><trkpt lat="-25.160422781504995" lon="114.63256769239547"><ele>88.0</ele><time>2026-04-17T02:45:13Z</time></trkpt><trkpt lat="-25.160573643388776" lon="114.63282361352786"><ele>88.0</ele><time>2026-04-17T02:45:14Z</time></trkpt><trkpt lat="-25.16072868738847" lon="114.63308396058366"><ele>88.0</ele><time>2026-04-17T02:45:15Z</time></trkpt><trkpt lat="-25.160879149246565" lon="114.63334371675991"><ele>88.0</ele><time>2026-04-17T02:45:16Z</time></trkpt><trkpt lat="-25.161027306736592" lon="114.63360267064786"><ele>88.0</ele><time>2026-04-17T02:45:17Z</time></trkpt><trkpt lat="-25.161177579123574" lon="114.63386206154651"><ele>88.0</ele><time>2026-04-17T02:45:18Z</time></trkpt><trkpt lat="-25.161322411220002" lon="114.63411912133022"><ele>88.0</ele><time>2026-04-17T02:45:19Z</time></trkpt><trkpt lat="-25.161463892524615" lon="114.63437979687698"><ele>88.0</ele><time>2026-04-17T02:45:20Z</time></trkpt><trkpt lat="-25.161606608830525" lon="114.63463931254786"><ele>88.0</ele><time>2026-04-17T02:45:21Z</time></trkpt><trkpt lat="-25.161750689763085" lon="114.63489679117994"><ele>88.0</ele><time>2026-04-17T02:45:22Z</time></trkpt><trkpt lat="-25.16189749253084" lon="114.63515605071835"><ele>88.0</ele><time>2026-04-17T02:45:23Z</time></trkpt><trkpt lat="-25.162044136209936" lon="114.6354175646219"><ele>88.0</ele><time>2026-04-17T02:45:24Z</time></trkpt><trkpt lat="-25.162190195536144" lon="114.63568208977578"><ele>88.0</ele><time>2026-04-17T02:45:25Z</time></trkpt><trkpt lat="-25.162336432231555" lon="114.63594733706252"><ele>88.5</ele><time>2026-04-17T02:45:26Z</time></trkpt><trkpt lat="-25.162486090432214" lon="114.63621166965042"><ele>89.0</ele><time>2026-04-17T02:45:27Z</time></trkpt><trkpt lat="-25.162640410515625" lon="114.63647569211587"><ele>89.0</ele><time>2026-04-17T02:45:28Z</time></trkpt><trkpt lat="-25.162793976911455" lon="114.6367378232666"><ele>89.0</ele><time>2026-04-17T02:45:29Z</time></trkpt><trkpt lat="-25.162949654472904" lon="114.63700527261378"><ele>88.5</ele><time>2026-04-17T02:45:30Z</time></trkpt><trkpt lat="-25.163109391316446" lon="114.63727263807766"><ele>88.0</ele><time>2026-04-17T02:45:31Z</time></trkpt><trkpt lat="-25.163265996391114" lon="114.63753555581457"><ele>88.5</ele><time>2026-04-17T02:45:32Z</time></trkpt><trkpt lat="-25.16341875604576" lon="114.63780421338562"><ele>89.0</ele><time>2026-04-17T02:45:33Z</time></trkpt><trkpt lat="-25.16356913592295" lon="114.63807330536034"><ele>89.0</ele><time>2026-04-17T02:45:34Z</time></trkpt><trkpt lat="-25.163719177127742" lon="114.63834016216971"><ele>89.0</ele><time>2026-04-17T02:45:35Z</time></trkpt><trkpt lat="-25.163871239137258" lon="114.63860549716772"><ele>89.5</ele><time>2026-04-17T02:45:36Z</time></trkpt><trkpt lat="-25.164022463037952" lon="114.63886979514096"><ele>90.0</ele><time>2026-04-17T02:45:37Z</time></trkpt><trkpt lat="-25.16417316304538" lon="114.63913254968035"><ele>90.0</ele><time>2026-04-17T02:45:38Z</time></trkpt><trkpt lat="-25.16432523624916" lon="114.63939661810232"><ele>90.0</ele><time>2026-04-17T02:45:39Z</time></trkpt><trkpt lat="-25.164478198045312" lon="114.63966073596465"><ele>90.0</ele><time>2026-04-17T02:45:40Z</time></trkpt><trkpt lat="-25.16462968231135" lon="114.63992332562971"><ele>90.0</ele><time>2026-04-17T02:45:41Z</time></trkpt><trkpt lat="-25.16478195380403" lon="114.6401831528283"><ele>90.5</ele><time>2026-04-17T02:45:42Z</time></trkpt><trkpt lat="-25.16493278140467" lon="114.6404416251047"><ele>91.0</ele><time>2026-04-17T02:45:43Z</time></trkpt><trkpt lat="-25.165083283069244" lon="114.64069976245707"><ele>91.0</ele><time>2026-04-17T02:45:44Z</time></trkpt><trkpt lat="-25.16522887063695" lon="114.64096029091114"><ele>91.0</ele><time>2026-04-17T02:45:45Z</time></trkpt><trkpt lat="-25.165370847560148" lon="114.64122366152856"><ele>91.0</ele><time>2026-04-17T02:45:46Z</time></trkpt><trkpt lat="-25.16551005734601" lon="114.64148861625331"><ele>91.0</ele><time>2026-04-17T02:45:47Z</time></trkpt><trkpt lat="-25.165645937355844" lon="114.64175486479286"><ele>90.0</ele><time>2026-04-17T02:45:48Z</time></trkpt><trkpt lat="-25.165770576927226" lon="114.64202466211356"><ele>89.0</ele><time>2026-04-17T02:45:49Z</time></trkpt><trkpt lat="-25.165884035540905" lon="114.64229960162591"><ele>89.0</ele><time>2026-04-17T02:45:50Z</time></trkpt><trkpt lat="-25.16598602033837" lon="114.64258300107758"><ele>89.0</ele><time>2026-04-17T02:45:51Z</time></trkpt><trkpt lat="-25.166072407720918" lon="114.6428763928245"><ele>89.5</ele><time>2026-04-17T02:45:52Z</time></trkpt><trkpt lat="-25.166144149453814" lon="114.64318079581551"><ele>90.0</ele><time>2026-04-17T02:45:53Z</time></trkpt><trkpt lat="-25.166201556444417" lon="114.64348929752616"><ele>90.0</ele><time>2026-04-17T02:45:54Z</time></trkpt><trkpt lat="-25.16624026784542" lon="114.64380229730972"><ele>90.0</ele><time>2026-04-17T02:45:55Z</time></trkpt><trkpt lat="-25.166261957513793" lon="114.64411963489395"><ele>90.0</ele><time>2026-04-17T02:45:56Z</time></trkpt><trkpt lat="-25.1662731609952" lon="114.6444418891204"><ele>90.0</ele><time>2026-04-17T02:45:57Z</time></trkpt><trkpt lat="-25.16628176156732" lon="114.64476452105897"><ele>90.0</ele><time>2026-04-17T02:45:58Z</time></trkpt><trkpt lat="-25.16629300350243" lon="114.64508667872623"><ele>90.0</ele><time>2026-04-17T02:45:59Z</time></trkpt><trkpt lat="-25.16630803094895" lon="114.64540906520565"><ele>90.5</ele><time>2026-04-17T02:46:00Z</time></trkpt><trkpt lat="-25.166323630605838" lon="114.64573233293429"><ele>91.0</ele><time>2026-04-17T02:46:01Z</time></trkpt><trkpt lat="-25.166339543649293" lon="114.64605405119913"><ele>91.0</ele><time>2026-04-17T02:46:02Z</time></trkpt><trkpt lat="-25.166354598561128" lon="114.64637421361275"><ele>91.0</ele><time>2026-04-17T02:46:03Z</time></trkpt><trkpt lat="-25.16637232525106" lon="114.6466963048132"><ele>91.0</ele><time>2026-04-17T02:46:04Z</time></trkpt><trkpt lat="-25.166388759991317" lon="114.64702086280262"><ele>91.0</ele><time>2026-04-17T02:46:05Z</time></trkpt><trkpt lat="-25.16640653219139" lon="114.64734378154797"><ele>91.0</ele><time>2026-04-17T02:46:06Z</time></trkpt><trkpt lat="-25.166424238747258" lon="114.64766111991058"><ele>91.0</ele><time>2026-04-17T02:46:07Z</time></trkpt><trkpt lat="-25.166442862118455" lon="114.64798252078087"><ele>91.5</ele><time>2026-04-17T02:46:08Z</time></trkpt><trkpt lat="-25.166460023124486" lon="114.64830111803263"><ele>92.0</ele><time>2026-04-17T02:46:09Z</time></trkpt><trkpt lat="-25.16647819704391" lon="114.64862134119203"><ele>91.0</ele><time>2026-04-17T02:46:10Z</time></trkpt><trkpt lat="-25.166495712950606" lon="114.64894404342904"><ele>90.0</ele><time>2026-04-17T02:46:11Z</time></trkpt><trkpt lat="-25.166508694835578" lon="114.64926748635904"><ele>90.0</ele><time>2026-04-17T02:46:12Z</time></trkpt><trkpt lat="-25.166522439042417" lon="114.64958639112804"><ele>90.0</ele><time>2026-04-17T02:46:13Z</time></trkpt><trkpt lat="-25.1665379383121" lon="114.64990580699558"><ele>90.0</ele><time>2026-04-17T02:46:14Z</time></trkpt><trkpt lat="-25.166553450050305" lon="114.65022580340454"><ele>90.0</ele><time>2026-04-17T02:46:15Z</time></trkpt><trkpt lat="-25.166570578515678" lon="114.65054541182573"><ele>90.0</ele><time>2026-04-17T02:46:16Z</time></trkpt><trkpt lat="-25.16658783436987" lon="114.65086238882003"><ele>90.0</ele><time>2026-04-17T02:46:17Z</time></trkpt><trkpt lat="-25.16660556049917" lon="114.65117765852683"><ele>90.0</ele><time>2026-04-17T02:46:18Z</time></trkpt><trkpt lat="-25.16662165537772" lon="114.65149292238495"><ele>90.0</ele><time>2026-04-17T02:46:19Z</time></trkpt><trkpt lat="-25.166637640768972" lon="114.65180901225233"><ele>91.0</ele><time>2026-04-17T02:46:20Z</time></trkpt><trkpt lat="-25.16665226537722" lon="114.65212751812918"><ele>92.0</ele><time>2026-04-17T02:46:21Z</time></trkpt><trkpt lat="-25.166662712069094" lon="114.65244464129994"><ele>92.0</ele><time>2026-04-17T02:46:22Z</time></trkpt><trkpt lat="-25.166675610979468" lon="114.65276408511228"><ele>92.0</ele><time>2026-04-17T02:46:23Z</time></trkpt><trkpt lat="-25.166691719271153" lon="114.65308355307097"><ele>91.5</ele><time>2026-04-17T02:46:24Z</time></trkpt><trkpt lat="-25.166708955775974" lon="114.65340626689057"><ele>91.0</ele><time>2026-04-17T02:46:25Z</time></trkpt><trkpt lat="-25.16672496927181" lon="114.65372717388301"><ele>91.0</ele><time>2026-04-17T02:46:26Z</time></trkpt><trkpt lat="-25.166739939349466" lon="114.65404784978156"><ele>91.0</ele><time>2026-04-17T02:46:27Z</time></trkpt><trkpt lat="-25.166752736800575" lon="114.65436790065282"><ele>91.0</ele><time>2026-04-17T02:46:28Z</time></trkpt><trkpt lat="-25.166766131195956" lon="114.65468635349107"><ele>91.0</ele><time>2026-04-17T02:46:29Z</time></trkpt><trkpt lat="-25.166780560063348" lon="114.65500593498979"><ele>92.0</ele><time>2026-04-17T02:46:30Z</time></trkpt><trkpt lat="-25.1667949578564" lon="114.65532912071387"><ele>93.0</ele><time>2026-04-17T02:46:31Z</time></trkpt><trkpt lat="-25.166809134616052" lon="114.65565001073143"><ele>93.0</ele><time>2026-04-17T02:46:32Z</time></trkpt><trkpt lat="-25.166824895808908" lon="114.65597278547014"><ele>93.0</ele><time>2026-04-17T02:46:33Z</time></trkpt><trkpt lat="-25.166840983857725" lon="114.65629680404486"><ele>93.5</ele><time>2026-04-17T02:46:34Z</time></trkpt><trkpt lat="-25.166855635457384" lon="114.6566186264062"><ele>94.0</ele><time>2026-04-17T02:46:35Z</time></trkpt><trkpt lat="-25.16687015985417" lon="114.6569353917273"><ele>94.0</ele><time>2026-04-17T02:46:36Z</time></trkpt><trkpt lat="-25.16688582474553" lon="114.65724935634495"><ele>94.0</ele><time>2026-04-17T02:46:37Z</time></trkpt><trkpt lat="-25.166902999051352" lon="114.65756758888435"><ele>93.5</ele><time>2026-04-17T02:46:38Z</time></trkpt><trkpt lat="-25.16692008050355" lon="114.65788426429205"><ele>93.0</ele><time>2026-04-17T02:46:39Z</time></trkpt><trkpt lat="-25.16693970021613" lon="114.65819906990303"><ele>93.0</ele><time>2026-04-17T02:46:40Z</time></trkpt><trkpt lat="-25.16696090640848" lon="114.65851516863471"><ele>93.0</ele><time>2026-04-17T02:46:41Z</time></trkpt><trkpt lat="-25.166979792026048" lon="114.6588334274887"><ele>93.0</ele><time>2026-04-17T02:46:42Z</time></trkpt><trkpt lat="-25.166997728403004" lon="114.65914916403776"><ele>93.0</ele><time>2026-04-17T02:46:43Z</time></trkpt><trkpt lat="-25.167014198282562" lon="114.65947015491093"><ele>93.0</ele><time>2026-04-17T02:46:44Z</time></trkpt><trkpt lat="-25.167030378927606" lon="114.65979334405056"><ele>93.0</ele><time>2026-04-17T02:46:45Z</time></trkpt><trkpt lat="-25.16704480708399" lon="114.66011371694047"><ele>93.0</ele><time>2026-04-17T02:46:46Z</time></trkpt><trkpt lat="-25.167058633393065" lon="114.66043685857065"><ele>93.0</ele><time>2026-04-17T02:46:47Z</time></trkpt><trkpt lat="-25.167072732692052" lon="114.66075263255654"><ele>93.0</ele><time>2026-04-17T02:46:48Z</time></trkpt><trkpt lat="-25.167090874783494" lon="114.66106977761959"><ele>93.0</ele><time>2026-04-17T02:46:49Z</time></trkpt><trkpt lat="-25.167108372576116" lon="114.66138585783506"><ele>93.0</ele><time>2026-04-17T02:46:50Z</time></trkpt><trkpt lat="-25.167124909451143" lon="114.66170291376963"><ele>93.0</ele><time>2026-04-17T02:46:51Z</time></trkpt><trkpt lat="-25.167142869409005" lon="114.66202173943844"><ele>92.0</ele><time>2026-04-17T02:46:52Z</time></trkpt><trkpt lat="-25.167159490817824" lon="114.66234051431621"><ele>91.0</ele><time>2026-04-17T02:46:53Z</time></trkpt><trkpt lat="-25.16717740069819" lon="114.66266346309618"><ele>90.5</ele><time>2026-04-17T02:46:54Z</time></trkpt><trkpt lat="-25.167194107584223" lon="114.66298755695074"><ele>90.0</ele><time>2026-04-17T02:46:55Z</time></trkpt><trkpt lat="-25.167209485488566" lon="114.66331050317777"><ele>91.0</ele><time>2026-04-17T02:46:56Z</time></trkpt><trkpt lat="-25.167222677247135" lon="114.66363202219435"><ele>92.0</ele><time>2026-04-17T02:46:57Z</time></trkpt><trkpt lat="-25.167233212650192" lon="114.66395309407531"><ele>92.0</ele><time>2026-04-17T02:46:58Z</time></trkpt><trkpt lat="-25.16724497922102" lon="114.66427503316825"><ele>92.0</ele><time>2026-04-17T02:46:59Z</time></trkpt><trkpt lat="-25.167260591401416" lon="114.6645967626046"><ele>91.5</ele><time>2026-04-17T02:47:00Z</time></trkpt><trkpt lat="-25.167277367183452" lon="114.66491804220769"><ele>91.0</ele><time>2026-04-17T02:47:01Z</time></trkpt><trkpt lat="-25.16729436824358" lon="114.66523550181257"><ele>90.5</ele><time>2026-04-17T02:47:02Z</time></trkpt><trkpt lat="-25.167309549805978" lon="114.66555556455879"><ele>90.0</ele><time>2026-04-17T02:47:03Z</time></trkpt><trkpt lat="-25.16732135627594" lon="114.66587593116363"><ele>90.0</ele><time>2026-04-17T02:47:04Z</time></trkpt><trkpt lat="-25.167332540500094" lon="114.66619370174446"><ele>90.0</ele><time>2026-04-17T02:47:05Z</time></trkpt><trkpt lat="-25.167348120449777" lon="114.6665061069904"><ele>91.0</ele><time>2026-04-17T02:47:06Z</time></trkpt><trkpt lat="-25.167370331190575" lon="114.66681874449478"><ele>92.0</ele><time>2026-04-17T02:47:07Z</time></trkpt><trkpt lat="-25.16739607326766" lon="114.66712980581914"><ele>92.0</ele><time>2026-04-17T02:47:08Z</time></trkpt><trkpt lat="-25.167427343086015" lon="114.66743841685629"><ele>92.0</ele><time>2026-04-17T02:47:09Z</time></trkpt><trkpt lat="-25.167465525643106" lon="114.66774786776904"><ele>92.0</ele><time>2026-04-17T02:47:10Z</time></trkpt><trkpt lat="-25.167510580206237" lon="114.66805859224411"><ele>92.0</ele><time>2026-04-17T02:47:11Z</time></trkpt><trkpt lat="-25.167564232560473" lon="114.6683651663303"><ele>91.5</ele><time>2026-04-17T02:47:12Z</time></trkpt><trkpt lat="-25.167630080216597" lon="114.66866684806863"><ele>91.0</ele><time>2026-04-17T02:47:13Z</time></trkpt><trkpt lat="-25.16771053356421" lon="114.6689693759916"><ele>91.0</ele><time>2026-04-17T02:47:14Z</time></trkpt><trkpt lat="-25.167802439549984" lon="114.66926923206543"><ele>91.0</ele><time>2026-04-17T02:47:15Z</time></trkpt><trkpt lat="-25.16790621082869" lon="114.66957130546136"><ele>93.0</ele><time>2026-04-17T02:47:16Z</time></trkpt><trkpt lat="-25.168018887934235" lon="114.6698755108762"><ele>95.0</ele><time>2026-04-17T02:47:17Z</time></trkpt><trkpt lat="-25.168136884077555" lon="114.67017835882281"><ele>94.5</ele><time>2026-04-17T02:47:18Z</time></trkpt><trkpt lat="-25.16825229778115" lon="114.67047970137499"><ele>94.0</ele><time>2026-04-17T02:47:19Z</time></trkpt><trkpt lat="-25.1683661380745" lon="114.67077837750725"><ele>94.0</ele><time>2026-04-17T02:47:20Z</time></trkpt><trkpt lat="-25.16847867887437" lon="114.67107984459753"><ele>94.0</ele><time>2026-04-17T02:47:21Z</time></trkpt><trkpt lat="-25.16859076681196" lon="114.67138004186916"><ele>94.0</ele><time>2026-04-17T02:47:22Z</time></trkpt><trkpt lat="-25.168700067422197" lon="114.67167864495752"><ele>94.0</ele><time>2026-04-17T02:47:23Z</time></trkpt><trkpt lat="-25.168809989790336" lon="114.67198239255502"><ele>94.0</ele><time>2026-04-17T02:47:24Z</time></trkpt><trkpt lat="-25.168920617912217" lon="114.67228448002703"><ele>94.0</ele><time>2026-04-17T02:47:25Z</time></trkpt><trkpt lat="-25.169033783001208" lon="114.67258986728255"><ele>93.5</ele><time>2026-04-17T02:47:26Z</time></trkpt><trkpt lat="-25.169144673104345" lon="114.67289201816507"><ele>93.0</ele><time>2026-04-17T02:47:27Z</time></trkpt><trkpt lat="-25.16925292427712" lon="114.67319656690246"><ele>93.0</ele><time>2026-04-17T02:47:28Z</time></trkpt><trkpt lat="-25.16936220305753" lon="114.67350068642621"><ele>93.0</ele><time>2026-04-17T02:47:29Z</time></trkpt><trkpt lat="-25.16947333092129" lon="114.67380783781358"><ele>92.5</ele><time>2026-04-17T02:47:30Z</time></trkpt><trkpt lat="-25.169583868906933" lon="114.67411542140431"><ele>92.0</ele><time>2026-04-17T02:47:31Z</time></trkpt><trkpt lat="-25.16969512313301" lon="114.67442295525278"><ele>92.0</ele><time>2026-04-17T02:47:32Z</time></trkpt><trkpt lat="-25.169805968159434" lon="114.67472658353586"><ele>92.0</ele><time>2026-04-17T02:47:33Z</time></trkpt><trkpt lat="-25.169917835154113" lon="114.67503269536306"><ele>93.0</ele><time>2026-04-17T02:47:34Z</time></trkpt><trkpt lat="-25.170032778237452" lon="114.67533635336957"><ele>94.0</ele><time>2026-04-17T02:47:35Z</time></trkpt><trkpt lat="-25.17014650783794" lon="114.6756354585563"><ele>94.0</ele><time>2026-04-17T02:47:36Z</time></trkpt><trkpt lat="-25.170263415817345" lon="114.67594222599116"><ele>94.0</ele><time>2026-04-17T02:47:37Z</time></trkpt><trkpt lat="-25.170379727424354" lon="114.67624444448424"><ele>93.5</ele><time>2026-04-17T02:47:38Z</time></trkpt><trkpt lat="-25.17049036734624" lon="114.67653846670616"><ele>93.0</ele><time>2026-04-17T02:47:39Z</time></trkpt><trkpt lat="-25.17059942043274" lon="114.67683289409968"><ele>92.5</ele><time>2026-04-17T02:47:40Z</time></trkpt><trkpt lat="-25.170708387043046" lon="114.67712395042138"><ele>92.0</ele><time>2026-04-17T02:47:41Z</time></trkpt><trkpt lat="-25.170819751824357" lon="114.67741440562725"><ele>92.0</ele><time>2026-04-17T02:47:42Z</time></trkpt><trkpt lat="-25.170931138504805" lon="114.67770888240005"><ele>92.0</ele><time>2026-04-17T02:47:43Z</time></trkpt><trkpt lat="-25.17104155812976" lon="114.67800386585009"><ele>91.5</ele><time>2026-04-17T02:47:44Z</time></trkpt><trkpt lat="-25.171149637624698" lon="114.67829548355303"><ele>91.0</ele><time>2026-04-17T02:47:45Z</time></trkpt><trkpt lat="-25.17126011078599" lon="114.67858768643912"><ele>91.0</ele><time>2026-04-17T02:47:46Z</time></trkpt><trkpt lat="-25.171369291254816" lon="114.6788787874894"><ele>91.0</ele><time>2026-04-17T02:47:47Z</time></trkpt><trkpt lat="-25.17147356800409" lon="114.67916494308476"><ele>91.0</ele><time>2026-04-17T02:47:48Z</time></trkpt><trkpt lat="-25.17157828129069" lon="114.67945937291213"><ele>91.0</ele><time>2026-04-17T02:47:49Z</time></trkpt><trkpt lat="-25.17168251980282" lon="114.67975359238605"><ele>91.0</ele><time>2026-04-17T02:47:50Z</time></trkpt><trkpt lat="-25.17179247450692" lon="114.68004943228057"><ele>91.0</ele><time>2026-04-17T02:47:51Z</time></trkpt><trkpt lat="-25.17190558304324" lon="114.68034124081154"><ele>91.5</ele><time>2026-04-17T02:47:52Z</time></trkpt><trkpt lat="-25.172019547124012" lon="114.68063696550013"><ele>92.0</ele><time>2026-04-17T02:47:53Z</time></trkpt><trkpt lat="-25.172131484922463" lon="114.68093049980178"><ele>92.5</ele><time>2026-04-17T02:47:54Z</time></trkpt><trkpt lat="-25.17224301700661" lon="114.68122515083488"><ele>93.0</ele><time>2026-04-17T02:47:55Z</time></trkpt><trkpt lat="-25.17235265878678" lon="114.68152218699181"><ele>92.5</ele><time>2026-04-17T02:47:56Z</time></trkpt><trkpt lat="-25.17246226470254" lon="114.68181985299697"><ele>92.0</ele><time>2026-04-17T02:47:57Z</time></trkpt><trkpt lat="-25.17257469672749" lon="114.68212139685555"><ele>92.0</ele><time>2026-04-17T02:47:58Z</time></trkpt><trkpt lat="-25.172690066383367" lon="114.6824190901061"><ele>92.0</ele><time>2026-04-17T02:47:59Z</time></trkpt><trkpt lat="-25.172802728928804" lon="114.6827176202967"><ele>93.0</ele><time>2026-04-17T02:48:00Z</time></trkpt><trkpt lat="-25.172914151893618" lon="114.6830165923782"><ele>94.0</ele><time>2026-04-17T02:48:01Z</time></trkpt><trkpt lat="-25.17302522444617" lon="114.68331813128883"><ele>93.0</ele><time>2026-04-17T02:48:02Z</time></trkpt><trkpt lat="-25.17313613077489" lon="114.68361831274508"><ele>92.0</ele><time>2026-04-17T02:48:03Z</time></trkpt><trkpt lat="-25.17324688816817" lon="114.68391884138151"><ele>92.0</ele><time>2026-04-17T02:48:04Z</time></trkpt><trkpt lat="-25.173358983784915" lon="114.68421720200932"><ele>92.0</ele><time>2026-04-17T02:48:05Z</time></trkpt><trkpt lat="-25.17347026669924" lon="114.68451538865054"><ele>93.0</ele><time>2026-04-17T02:48:06Z</time></trkpt><trkpt lat="-25.173581347103386" lon="114.68481458904726"><ele>94.0</ele><time>2026-04-17T02:48:07Z</time></trkpt><trkpt lat="-25.173694401088248" lon="114.68511611040313"><ele>94.5</ele><time>2026-04-17T02:48:08Z</time></trkpt><trkpt lat="-25.173805135539265" lon="114.68541360207477"><ele>95.0</ele><time>2026-04-17T02:48:09Z</time></trkpt><trkpt lat="-25.173919440941884" lon="114.68572264701749"><ele>95.0</ele><time>2026-04-17T02:48:10Z</time></trkpt><trkpt lat="-25.174034086583266" lon="114.68603164516358"><ele>95.0</ele><time>2026-04-17T02:48:11Z</time></trkpt><trkpt lat="-25.17414862991169" lon="114.68633969692985"><ele>95.0</ele><time>2026-04-17T02:48:12Z</time></trkpt><trkpt lat="-25.174262295950683" lon="114.6866443222739"><ele>95.0</ele><time>2026-04-17T02:48:13Z</time></trkpt><trkpt lat="-25.174377599679236" lon="114.6869474624264"><ele>94.5</ele><time>2026-04-17T02:48:14Z</time></trkpt><trkpt lat="-25.17449172363368" lon="114.68725026742678"><ele>94.0</ele><time>2026-04-17T02:48:15Z</time></trkpt><trkpt lat="-25.174605303347516" lon="114.6875503336741"><ele>94.0</ele><time>2026-04-17T02:48:16Z</time></trkpt><trkpt lat="-25.174721794856314" lon="114.68785114182582"><ele>94.0</ele><time>2026-04-17T02:48:17Z</time></trkpt><trkpt lat="-25.17483469096752" lon="114.68814458711378"><ele>94.0</ele><time>2026-04-17T02:48:18Z</time></trkpt><trkpt lat="-25.174951658913475" lon="114.68844041622675"><ele>94.0</ele><time>2026-04-17T02:48:19Z</time></trkpt><trkpt lat="-25.175074351035967" lon="114.6887411723997"><ele>94.5</ele><time>2026-04-17T02:48:20Z</time></trkpt><trkpt lat="-25.175201230886486" lon="114.68903711253814"><ele>95.0</ele><time>2026-04-17T02:48:21Z</time></trkpt><trkpt lat="-25.17533387771854" lon="114.68932981560364"><ele>95.0</ele><time>2026-04-17T02:48:22Z</time></trkpt><trkpt lat="-25.175475674359554" lon="114.68961563211242"><ele>95.0</ele><time>2026-04-17T02:48:23Z</time></trkpt><trkpt lat="-25.175625246193643" lon="114.68990015227347"><ele>95.0</ele><time>2026-04-17T02:48:24Z</time></trkpt><trkpt lat="-25.17578267463453" lon="114.69018383697212"><ele>95.0</ele><time>2026-04-17T02:48:25Z</time></trkpt><trkpt lat="-25.175942262489304" lon="114.6904643145537"><ele>94.5</ele><time>2026-04-17T02:48:26Z</time></trkpt><trkpt lat="-25.17610069927645" lon="114.69074641345601"><ele>94.0</ele><time>2026-04-17T02:48:27Z</time></trkpt><trkpt lat="-25.176253570546972" lon="114.69102450500549"><ele>94.0</ele><time>2026-04-17T02:48:28Z</time></trkpt><trkpt lat="-25.176406623920947" lon="114.69131282123557"><ele>94.0</ele><time>2026-04-17T02:48:29Z</time></trkpt><trkpt lat="-25.176559931787295" lon="114.69160115374709"><ele>94.0</ele><time>2026-04-17T02:48:30Z</time></trkpt><trkpt lat="-25.17671420614495" lon="114.69188723648905"><ele>94.0</ele><time>2026-04-17T02:48:31Z</time></trkpt><trkpt lat="-25.176869356973338" lon="114.69217673419418"><ele>94.0</ele><time>2026-04-17T02:48:32Z</time></trkpt><trkpt lat="-25.177025893888096" lon="114.69246329019356"><ele>94.0</ele><time>2026-04-17T02:48:33Z</time></trkpt><trkpt lat="-25.17718354644493" lon="114.69275154602845"><ele>93.5</ele><time>2026-04-17T02:48:34Z</time></trkpt><trkpt lat="-25.17734193903294" lon="114.69303919634801"><ele>93.0</ele><time>2026-04-17T02:48:35Z</time></trkpt><trkpt lat="-25.177499178632342" lon="114.69332773215719"><ele>93.5</ele><time>2026-04-17T02:48:36Z</time></trkpt><trkpt lat="-25.177658798637854" lon="114.69361954752677"><ele>94.0</ele><time>2026-04-17T02:48:37Z</time></trkpt><trkpt lat="-25.177816184393038" lon="114.69390959284866"><ele>94.0</ele><time>2026-04-17T02:48:38Z</time></trkpt><trkpt lat="-25.1779748847206" lon="114.69420128197048"><ele>94.0</ele><time>2026-04-17T02:48:39Z</time></trkpt><trkpt lat="-25.178136086087935" lon="114.69449526100477"><ele>94.5</ele><time>2026-04-17T02:48:40Z</time></trkpt><trkpt lat="-25.178299893361906" lon="114.69478712090365"><ele>95.0</ele><time>2026-04-17T02:48:41Z</time></trkpt><trkpt lat="-25.178461177402475" lon="114.69507772852812"><ele>94.5</ele><time>2026-04-17T02:48:42Z</time></trkpt><trkpt lat="-25.178621452349304" lon="114.69537078874828"><ele>94.0</ele><time>2026-04-17T02:48:43Z</time></trkpt><trkpt lat="-25.178778457005254" lon="114.69566034956141"><ele>94.0</ele><time>2026-04-17T02:48:44Z</time></trkpt><trkpt lat="-25.178935124104786" lon="114.69595322555872"><ele>94.0</ele><time>2026-04-17T02:48:45Z</time></trkpt><trkpt lat="-25.17909053692224" lon="114.6962462998071"><ele>94.0</ele><time>2026-04-17T02:48:46Z</time></trkpt><trkpt lat="-25.179243635843836" lon="114.69653742179199"><ele>94.0</ele><time>2026-04-17T02:48:47Z</time></trkpt><trkpt lat="-25.17939746438248" lon="114.69682688928215"><ele>93.5</ele><time>2026-04-17T02:48:48Z</time></trkpt><trkpt lat="-25.179550719700856" lon="114.69711473624541"><ele>93.0</ele><time>2026-04-17T02:48:49Z</time></trkpt><trkpt lat="-25.179704512929444" lon="114.69740043544782"><ele>93.0</ele><time>2026-04-17T02:48:50Z</time></trkpt><trkpt lat="-25.179858539491246" lon="114.69768226392307"><ele>93.0</ele><time>2026-04-17T02:48:51Z</time></trkpt><trkpt lat="-25.180013530026407" lon="114.69796512235554"><ele>93.5</ele><time>2026-04-17T02:48:52Z</time></trkpt><trkpt lat="-25.18016737285077" lon="114.6982482555708"><ele>94.0</ele><time>2026-04-17T02:48:53Z</time></trkpt><trkpt lat="-25.180321721660388" lon="114.69853141747468"><ele>94.0</ele><time>2026-04-17T02:48:54Z</time></trkpt><trkpt lat="-25.180474789188832" lon="114.69881585218516"><ele>94.0</ele><time>2026-04-17T02:48:55Z</time></trkpt><trkpt lat="-25.18062981643373" lon="114.69910343924779"><ele>94.0</ele><time>2026-04-17T02:48:56Z</time></trkpt><trkpt lat="-25.180787858653314" lon="114.69938863379663"><ele>94.0</ele><time>2026-04-17T02:48:57Z</time></trkpt><trkpt lat="-25.180948025537127" lon="114.69967164993614"><ele>94.5</ele><time>2026-04-17T02:48:58Z</time></trkpt><trkpt lat="-25.181106387889578" lon="114.69995343785646"><ele>95.0</ele><time>2026-04-17T02:48:59Z</time></trkpt><trkpt lat="-25.181264016216314" lon="114.70023996643644"><ele>95.0</ele><time>2026-04-17T02:49:00Z</time></trkpt><trkpt lat="-25.181420274213085" lon="114.70052673209133"><ele>95.0</ele><time>2026-04-17T02:49:01Z</time></trkpt><trkpt lat="-25.181576733889255" lon="114.70081417825668"><ele>95.5</ele><time>2026-04-17T02:49:02Z</time></trkpt><trkpt lat="-25.181732418718866" lon="114.70110256124546"><ele>96.0</ele><time>2026-04-17T02:49:03Z</time></trkpt><trkpt lat="-25.18188809641198" lon="114.70138820509503"><ele>96.0</ele><time>2026-04-17T02:49:04Z</time></trkpt><trkpt lat="-25.182045296387884" lon="114.70167695380196"><ele>96.0</ele><time>2026-04-17T02:49:05Z</time></trkpt><trkpt lat="-25.18220542565205" lon="114.70196583173059"><ele>96.0</ele><time>2026-04-17T02:49:06Z</time></trkpt><trkpt lat="-25.182367462623787" lon="114.70225762040478"><ele>96.0</ele><time>2026-04-17T02:49:07Z</time></trkpt><trkpt lat="-25.18252508422319" lon="114.70254638952686"><ele>97.5</ele><time>2026-04-17T02:49:08Z</time></trkpt><trkpt lat="-25.1826764552913" lon="114.70283428817754"><ele>99.0</ele><time>2026-04-17T02:49:09Z</time></trkpt><trkpt lat="-25.18282418955694" lon="114.70311600193166"><ele>99.0</ele><time>2026-04-17T02:49:10Z</time></trkpt><trkpt lat="-25.182972269436586" lon="114.70339629506991"><ele>99.0</ele><time>2026-04-17T02:49:11Z</time></trkpt><trkpt lat="-25.183123342843846" lon="114.70367612621894"><ele>98.5</ele><time>2026-04-17T02:49:12Z</time></trkpt><trkpt lat="-25.183277817519304" lon="114.70395362839224"><ele>98.0</ele><time>2026-04-17T02:49:13Z</time></trkpt><trkpt lat="-25.18343446596783" lon="114.70422748252906"><ele>100.0</ele><time>2026-04-17T02:49:14Z</time></trkpt><trkpt lat="-25.183589539161606" lon="114.70450295571369"><ele>102.0</ele><time>2026-04-17T02:49:15Z</time></trkpt><trkpt lat="-25.18374434731271" lon="114.70477727555432"><ele>102.0</ele><time>2026-04-17T02:49:16Z</time></trkpt><trkpt lat="-25.18389709055856" lon="114.70505376885541"><ele>102.0</ele><time>2026-04-17T02:49:17Z</time></trkpt><trkpt lat="-25.184047282602375" lon="114.7053247191097"><ele>101.0</ele><time>2026-04-17T02:49:18Z</time></trkpt><trkpt lat="-25.184193995634963" lon="114.70559557383207"><ele>100.0</ele><time>2026-04-17T02:49:19Z</time></trkpt><trkpt lat="-25.18434274788345" lon="114.70586932563296"><ele>100.5</ele><time>2026-04-17T02:49:20Z</time></trkpt><trkpt lat="-25.18449344815534" lon="114.70614021952358"><ele>101.0</ele><time>2026-04-17T02:49:21Z</time></trkpt><trkpt lat="-25.184647559590584" lon="114.70640921223324"><ele>101.0</ele><time>2026-04-17T02:49:22Z</time></trkpt><trkpt lat="-25.184809613074226" lon="114.70667620616692"><ele>101.0</ele><time>2026-04-17T02:49:23Z</time></trkpt><trkpt lat="-25.184977841509202" lon="114.70693534849597"><ele>99.5</ele><time>2026-04-17T02:49:24Z</time></trkpt><trkpt lat="-25.185153124065913" lon="114.70719431762491"><ele>98.0</ele><time>2026-04-17T02:49:25Z</time></trkpt><trkpt lat="-25.18532949282248" lon="114.70744493647153"><ele>98.0</ele><time>2026-04-17T02:49:26Z</time></trkpt><trkpt lat="-25.18550807300626" lon="114.70769533774715"><ele>98.0</ele><time>2026-04-17T02:49:27Z</time></trkpt><trkpt lat="-25.185683326026854" lon="114.70794808812747"><ele>97.5</ele><time>2026-04-17T02:49:28Z</time></trkpt><trkpt lat="-25.18586164719512" lon="114.70820472324482"><ele>97.0</ele><time>2026-04-17T02:49:29Z</time></trkpt><trkpt lat="-25.186036130569576" lon="114.70845760838444"><ele>98.5</ele><time>2026-04-17T02:49:30Z</time></trkpt><trkpt lat="-25.18621693118796" lon="114.70871799341705"><ele>100.0</ele><time>2026-04-17T02:49:31Z</time></trkpt><trkpt lat="-25.18639764671802" lon="114.70898215570898"><ele>99.5</ele><time>2026-04-17T02:49:32Z</time></trkpt><trkpt lat="-25.186579259520244" lon="114.7092473303561"><ele>99.0</ele><time>2026-04-17T02:49:33Z</time></trkpt><trkpt lat="-25.1867620037305" lon="114.7095119924031"><ele>99.0</ele><time>2026-04-17T02:49:34Z</time></trkpt><trkpt lat="-25.186946201649498" lon="114.70977691100187"><ele>99.0</ele><time>2026-04-17T02:49:35Z</time></trkpt><trkpt lat="-25.187130540653012" lon="114.71004176909408"><ele>99.0</ele><time>2026-04-17T02:49:36Z</time></trkpt><trkpt lat="-25.187313960797958" lon="114.71030513614355"><ele>99.0</ele><time>2026-04-17T02:49:37Z</time></trkpt><trkpt lat="-25.187499890226103" lon="114.71057234187947"><ele>99.0</ele><time>2026-04-17T02:49:38Z</time></trkpt><trkpt lat="-25.18768409530888" lon="114.71083666707752"><ele>99.0</ele><time>2026-04-17T02:49:39Z</time></trkpt><trkpt lat="-25.187867000210296" lon="114.71109702364697"><ele>99.0</ele><time>2026-04-17T02:49:40Z</time></trkpt><trkpt lat="-25.188051153357275" lon="114.71136030427692"><ele>99.0</ele><time>2026-04-17T02:49:41Z</time></trkpt><trkpt lat="-25.188231121584526" lon="114.71162485023402"><ele>99.0</ele><time>2026-04-17T02:49:42Z</time></trkpt><trkpt lat="-25.1884107562817" lon="114.71189105302182"><ele>99.0</ele><time>2026-04-17T02:49:43Z</time></trkpt><trkpt lat="-25.18858991971673" lon="114.71215157149348"><ele>99.0</ele><time>2026-04-17T02:49:44Z</time></trkpt><trkpt lat="-25.188769289712788" lon="114.71240908903322"><ele>99.0</ele><time>2026-04-17T02:49:45Z</time></trkpt><trkpt lat="-25.188947048241417" lon="114.71266518546074"><ele>99.0</ele><time>2026-04-17T02:49:46Z</time></trkpt><trkpt lat="-25.189124783181434" lon="114.71292025931758"><ele>99.0</ele><time>2026-04-17T02:49:47Z</time></trkpt><trkpt lat="-25.189299714997507" lon="114.71317294869984"><ele>99.0</ele><time>2026-04-17T02:49:48Z</time></trkpt><trkpt lat="-25.189475297541993" lon="114.71342326252297"><ele>99.0</ele><time>2026-04-17T02:49:49Z</time></trkpt><trkpt lat="-25.18965050043599" lon="114.71367557735036"><ele>99.0</ele><time>2026-04-17T02:49:50Z</time></trkpt><trkpt lat="-25.18982611266519" lon="114.7139260627871"><ele>99.0</ele><time>2026-04-17T02:49:51Z</time></trkpt><trkpt lat="-25.19000304790864" lon="114.71417532533381"><ele>99.0</ele><time>2026-04-17T02:49:52Z</time></trkpt><trkpt lat="-25.190177071523593" lon="114.71442450492357"><ele>99.0</ele><time>2026-04-17T02:49:53Z</time></trkpt><trkpt lat="-25.190350000986765" lon="114.71467655107864"><ele>99.0</ele><time>2026-04-17T02:49:54Z</time></trkpt><trkpt lat="-25.190518193351977" lon="114.71492898801135"><ele>99.0</ele><time>2026-04-17T02:49:55Z</time></trkpt><trkpt lat="-25.19068676442541" lon="114.7151849082931"><ele>99.5</ele><time>2026-04-17T02:49:56Z</time></trkpt><trkpt lat="-25.190856213683556" lon="114.71543959349732"><ele>100.0</ele><time>2026-04-17T02:49:57Z</time></trkpt><trkpt lat="-25.191026735356036" lon="114.71569183019274"><ele>100.0</ele><time>2026-04-17T02:49:58Z</time></trkpt><trkpt lat="-25.1912014250664" lon="114.71594557245558"><ele>100.0</ele><time>2026-04-17T02:49:59Z</time></trkpt><trkpt lat="-25.191375826049253" lon="114.71619787599087"><ele>99.5</ele><time>2026-04-17T02:50:00Z</time></trkpt><trkpt lat="-25.1915502030029" lon="114.71645054664546"><ele>99.0</ele><time>2026-04-17T02:50:01Z</time></trkpt><trkpt lat="-25.19172532104846" lon="114.71670199477178"><ele>99.0</ele><time>2026-04-17T02:50:02Z</time></trkpt><trkpt lat="-25.191901025377998" lon="114.71695253620882"><ele>99.0</ele><time>2026-04-17T02:50:03Z</time></trkpt><trkpt lat="-25.192078910061515" lon="114.71720584972272"><ele>99.0</ele><time>2026-04-17T02:50:04Z</time></trkpt><trkpt lat="-25.192258083012327" lon="114.71746543775764"><ele>99.0</ele><time>2026-04-17T02:50:05Z</time></trkpt><trkpt lat="-25.1924316999631" lon="114.71772354719359"><ele>99.5</ele><time>2026-04-17T02:50:06Z</time></trkpt><trkpt lat="-25.192602254324175" lon="114.71798027782862"><ele>100.0</ele><time>2026-04-17T02:50:07Z</time></trkpt><trkpt lat="-25.19276770625972" lon="114.71822785385832"><ele>100.0</ele><time>2026-04-17T02:50:08Z</time></trkpt><trkpt lat="-25.192931602942878" lon="114.71847230090266"><ele>100.0</ele><time>2026-04-17T02:50:09Z</time></trkpt><trkpt lat="-25.193092900387004" lon="114.7187187184433"><ele>100.5</ele><time>2026-04-17T02:50:10Z</time></trkpt><trkpt lat="-25.193252671500595" lon="114.71896893374429"><ele>101.0</ele><time>2026-04-17T02:50:11Z</time></trkpt><trkpt lat="-25.19340818800204" lon="114.71921914790288"><ele>101.5</ele><time>2026-04-17T02:50:12Z</time></trkpt><trkpt lat="-25.193561194267502" lon="114.71947659717591"><ele>102.0</ele><time>2026-04-17T02:50:13Z</time></trkpt><trkpt lat="-25.193707673151568" lon="114.71973471610212"><ele>102.0</ele><time>2026-04-17T02:50:14Z</time></trkpt><trkpt lat="-25.193849642772797" lon="114.71999971135821"><ele>102.0</ele><time>2026-04-17T02:50:15Z</time></trkpt><trkpt lat="-25.193989235706717" lon="114.72026818428773"><ele>102.0</ele><time>2026-04-17T02:50:16Z</time></trkpt><trkpt lat="-25.194129796018867" lon="114.72053865171647"><ele>102.0</ele><time>2026-04-17T02:50:17Z</time></trkpt><trkpt lat="-25.194273300826517" lon="114.72081349124758"><ele>102.0</ele><time>2026-04-17T02:50:18Z</time></trkpt><trkpt lat="-25.19441664090839" lon="114.7210916669398"><ele>102.0</ele><time>2026-04-17T02:50:19Z</time></trkpt><trkpt lat="-25.194559890171405" lon="114.72136879687818"><ele>102.0</ele><time>2026-04-17T02:50:20Z</time></trkpt><trkpt lat="-25.194706207249823" lon="114.7216519583334"><ele>102.0</ele><time>2026-04-17T02:50:21Z</time></trkpt><trkpt lat="-25.19485303067949" lon="114.72193384018733"><ele>102.5</ele><time>2026-04-17T02:50:22Z</time></trkpt><trkpt lat="-25.19499939534828" lon="114.72221175154067"><ele>103.0</ele><time>2026-04-17T02:50:23Z</time></trkpt><trkpt lat="-25.195145462094143" lon="114.72248859410321"><ele>103.0</ele><time>2026-04-17T02:50:24Z</time></trkpt><trkpt lat="-25.19529069836633" lon="114.7227666244001"><ele>103.0</ele><time>2026-04-17T02:50:25Z</time></trkpt><trkpt lat="-25.195436722405734" lon="114.72304484134742"><ele>103.0</ele><time>2026-04-17T02:50:26Z</time></trkpt><trkpt lat="-25.195582705992805" lon="114.72332226778336"><ele>103.0</ele><time>2026-04-17T02:50:27Z</time></trkpt><trkpt lat="-25.195731059967816" lon="114.72360246953657"><ele>102.0</ele><time>2026-04-17T02:50:28Z</time></trkpt><trkpt lat="-25.195876443678436" lon="114.72388113479211"><ele>101.0</ele><time>2026-04-17T02:50:29Z</time></trkpt><trkpt lat="-25.196022965581594" lon="114.72416206473837"><ele>102.0</ele><time>2026-04-17T02:50:30Z</time></trkpt><trkpt lat="-25.1961708178701" lon="114.72444169179704"><ele>103.0</ele><time>2026-04-17T02:50:31Z</time></trkpt><trkpt lat="-25.19631722259925" lon="114.72471907138579"><ele>103.0</ele><time>2026-04-17T02:50:32Z</time></trkpt><trkpt lat="-25.19646311514607" lon="114.72499455459102"><ele>103.0</ele><time>2026-04-17T02:50:33Z</time></trkpt><trkpt lat="-25.196607523545598" lon="114.72527531828283"><ele>103.5</ele><time>2026-04-17T02:50:34Z</time></trkpt><trkpt lat="-25.196753958016714" lon="114.72555409504716"><ele>104.0</ele><time>2026-04-17T02:50:35Z</time></trkpt><trkpt lat="-25.19689990293141" lon="114.72583238676596"><ele>104.5</ele><time>2026-04-17T02:50:36Z</time></trkpt><trkpt lat="-25.197042432935422" lon="114.72610640584952"><ele>105.0</ele><time>2026-04-17T02:50:37Z</time></trkpt><trkpt lat="-25.197186325514604" lon="114.7263847900856"><ele>105.0</ele><time>2026-04-17T02:50:38Z</time></trkpt><trkpt lat="-25.197331375394523" lon="114.72666374098588"><ele>105.0</ele><time>2026-04-17T02:50:39Z</time></trkpt><trkpt lat="-25.19747486290483" lon="114.72693948212573"><ele>104.5</ele><time>2026-04-17T02:50:40Z</time></trkpt><trkpt lat="-25.19762126556521" lon="114.72721660834436"><ele>104.0</ele><time>2026-04-17T02:50:41Z</time></trkpt><trkpt lat="-25.197770131529236" lon="114.72749617967608"><ele>104.5</ele><time>2026-04-17T02:50:42Z</time></trkpt><trkpt lat="-25.19792172034631" lon="114.727778462877"><ele>105.0</ele><time>2026-04-17T02:50:43Z</time></trkpt><trkpt lat="-25.198073283762582" lon="114.72806477802511"><ele>105.0</ele><time>2026-04-17T02:50:44Z</time></trkpt><trkpt lat="-25.198223666683678" lon="114.7283521142514"><ele>105.0</ele><time>2026-04-17T02:50:45Z</time></trkpt><trkpt lat="-25.198375066254854" lon="114.7286395547212"><ele>105.0</ele><time>2026-04-17T02:50:46Z</time></trkpt><trkpt lat="-25.19852764135195" lon="114.72892973686005"><ele>105.0</ele><time>2026-04-17T02:50:47Z</time></trkpt><trkpt lat="-25.19867969219962" lon="114.72922114208697"><ele>105.0</ele><time>2026-04-17T02:50:48Z</time></trkpt><trkpt lat="-25.19882855783328" lon="114.72951268837348"><ele>105.0</ele><time>2026-04-17T02:50:49Z</time></trkpt><trkpt lat="-25.198979657982225" lon="114.7298070170233"><ele>105.0</ele><time>2026-04-17T02:50:50Z</time></trkpt><trkpt lat="-25.199130887725385" lon="114.73009950448088"><ele>105.0</ele><time>2026-04-17T02:50:51Z</time></trkpt><trkpt lat="-25.19928540397516" lon="114.73039027219183"><ele>106.0</ele><time>2026-04-17T02:50:52Z</time></trkpt><trkpt lat="-25.19943712808376" lon="114.73067730336884"><ele>107.0</ele><time>2026-04-17T02:50:53Z</time></trkpt><trkpt lat="-25.199593436859008" lon="114.73096892462593"><ele>107.0</ele><time>2026-04-17T02:50:54Z</time></trkpt><trkpt lat="-25.199748126942076" lon="114.73125348076303"><ele>107.0</ele><time>2026-04-17T02:50:55Z</time></trkpt><trkpt lat="-25.199909888234007" lon="114.73154803797728"><ele>107.0</ele><time>2026-04-17T02:50:56Z</time></trkpt><trkpt lat="-25.200066342224666" lon="114.73184746236142"><ele>107.0</ele><time>2026-04-17T02:50:57Z</time></trkpt><trkpt lat="-25.200223145502626" lon="114.73215141920812"><ele>107.0</ele><time>2026-04-17T02:50:58Z</time></trkpt><trkpt lat="-25.20037788086121" lon="114.73245097075514"><ele>107.0</ele><time>2026-04-17T02:50:59Z</time></trkpt><trkpt lat="-25.20053438304949" lon="114.73274833426397"><ele>107.0</ele><time>2026-04-17T02:51:00Z</time></trkpt><trkpt lat="-25.20068978432173" lon="114.7330471122121"><ele>107.0</ele><time>2026-04-17T02:51:01Z</time></trkpt><trkpt lat="-25.200848757748243" lon="114.7333466045991"><ele>107.0</ele><time>2026-04-17T02:51:02Z</time></trkpt><trkpt lat="-25.201010059124744" lon="114.7336445229219"><ele>107.0</ele><time>2026-04-17T02:51:03Z</time></trkpt><trkpt lat="-25.201171642288394" lon="114.73394586861973"><ele>107.0</ele><time>2026-04-17T02:51:04Z</time></trkpt><trkpt lat="-25.201329354114513" lon="114.73424379012202"><ele>107.0</ele><time>2026-04-17T02:51:05Z</time></trkpt><trkpt lat="-25.20148739983108" lon="114.73454298261551"><ele>106.0</ele><time>2026-04-17T02:51:06Z</time></trkpt><trkpt lat="-25.20164040204932" lon="114.73483842927672"><ele>105.0</ele><time>2026-04-17T02:51:07Z</time></trkpt><trkpt lat="-25.201793102714767" lon="114.73513572395848"><ele>105.0</ele><time>2026-04-17T02:51:08Z</time></trkpt><trkpt lat="-25.201947075756095" lon="114.73543384555829"><ele>105.0</ele><time>2026-04-17T02:51:09Z</time></trkpt><trkpt lat="-25.202101226280586" lon="114.73573023623499"><ele>105.0</ele><time>2026-04-17T02:51:10Z</time></trkpt><trkpt lat="-25.202257797917945" lon="114.73602118094108"><ele>105.0</ele><time>2026-04-17T02:51:11Z</time></trkpt><trkpt lat="-25.202413564218677" lon="114.73631117085661"><ele>106.0</ele><time>2026-04-17T02:51:12Z</time></trkpt><trkpt lat="-25.202569037714458" lon="114.73660269606957"><ele>107.0</ele><time>2026-04-17T02:51:13Z</time></trkpt><trkpt lat="-25.202720984833437" lon="114.73689218785888"><ele>107.5</ele><time>2026-04-17T02:51:14Z</time></trkpt><trkpt lat="-25.202875161732557" lon="114.73718479377335"><ele>108.0</ele><time>2026-04-17T02:51:15Z</time></trkpt><trkpt lat="-25.203030643195923" lon="114.73747640445247"><ele>106.5</ele><time>2026-04-17T02:51:16Z</time></trkpt><trkpt lat="-25.20318511011682" lon="114.73776610111322"><ele>105.0</ele><time>2026-04-17T02:51:17Z</time></trkpt><trkpt lat="-25.20333628010574" lon="114.73805128004513"><ele>105.0</ele><time>2026-04-17T02:51:18Z</time></trkpt><trkpt lat="-25.20349026652268" lon="114.73833920049697"><ele>105.0</ele><time>2026-04-17T02:51:19Z</time></trkpt><trkpt lat="-25.203642247549098" lon="114.73862570542784"><ele>106.0</ele><time>2026-04-17T02:51:20Z</time></trkpt><trkpt lat="-25.20379237861316" lon="114.73891686655577"><ele>107.0</ele><time>2026-04-17T02:51:21Z</time></trkpt><trkpt lat="-25.203938210983726" lon="114.73920440240724"><ele>107.0</ele><time>2026-04-17T02:51:22Z</time></trkpt><trkpt lat="-25.204087498962597" lon="114.73950048363972"><ele>107.0</ele><time>2026-04-17T02:51:23Z</time></trkpt><trkpt lat="-25.204243122842737" lon="114.73979698231815"><ele>107.0</ele><time>2026-04-17T02:51:24Z</time></trkpt><trkpt lat="-25.204400158942754" lon="114.74009016287218"><ele>107.0</ele><time>2026-04-17T02:51:25Z</time></trkpt><trkpt lat="-25.204560342765397" lon="114.74038858585186"><ele>106.5</ele><time>2026-04-17T02:51:26Z</time></trkpt><trkpt lat="-25.20472010716082" lon="114.74069495690846"><ele>106.0</ele><time>2026-04-17T02:51:27Z</time></trkpt><trkpt lat="-25.20487797194773" lon="114.74099891054371"><ele>106.0</ele><time>2026-04-17T02:51:28Z</time></trkpt><trkpt lat="-25.20503715909441" lon="114.74130580712881"><ele>106.0</ele><time>2026-04-17T02:51:29Z</time></trkpt><trkpt lat="-25.20519984900197" lon="114.74160975708223"><ele>107.5</ele><time>2026-04-17T02:51:30Z</time></trkpt><trkpt lat="-25.205358195527193" lon="114.7419096858583"><ele>109.0</ele><time>2026-04-17T02:51:31Z</time></trkpt><trkpt lat="-25.205516675746676" lon="114.74221381071266"><ele>107.5</ele><time>2026-04-17T02:51:32Z</time></trkpt><trkpt lat="-25.205675877998722" lon="114.74251739436711"><ele>106.0</ele><time>2026-04-17T02:51:33Z</time></trkpt><trkpt lat="-25.20583337049037" lon="114.74281321691865"><ele>106.0</ele><time>2026-04-17T02:51:34Z</time></trkpt><trkpt lat="-25.205985962734925" lon="114.74310304694862"><ele>106.0</ele><time>2026-04-17T02:51:35Z</time></trkpt><trkpt lat="-25.2061352421127" lon="114.74338718771966"><ele>108.0</ele><time>2026-04-17T02:51:36Z</time></trkpt><trkpt lat="-25.20627815430632" lon="114.74366312482069"><ele>110.0</ele><time>2026-04-17T02:51:37Z</time></trkpt><trkpt lat="-25.20641060341688" lon="114.74392225746827"><ele>109.0</ele><time>2026-04-17T02:51:38Z</time></trkpt><trkpt lat="-25.206547172259285" lon="114.74418486163958"><ele>108.0</ele><time>2026-04-17T02:51:39Z</time></trkpt><trkpt lat="-25.206689083645667" lon="114.7444515289951"><ele>108.0</ele><time>2026-04-17T02:51:40Z</time></trkpt><trkpt lat="-25.206836125486063" lon="114.74472905368327"><ele>108.0</ele><time>2026-04-17T02:51:41Z</time></trkpt><trkpt lat="-25.206986368047463" lon="114.74501016573655"><ele>109.5</ele><time>2026-04-17T02:51:42Z</time></trkpt><trkpt lat="-25.207134553701056" lon="114.74528965831371"><ele>111.0</ele><time>2026-04-17T02:51:43Z</time></trkpt><trkpt lat="-25.20728465083137" lon="114.7455762239571"><ele>110.0</ele><time>2026-04-17T02:51:44Z</time></trkpt><trkpt lat="-25.20743405291928" lon="114.74586504672911"><ele>109.0</ele><time>2026-04-17T02:51:45Z</time></trkpt><trkpt lat="-25.207583168797456" lon="114.74615008414119"><ele>109.0</ele><time>2026-04-17T02:51:46Z</time></trkpt><trkpt lat="-25.207732306418745" lon="114.74643457847334"><ele>109.0</ele><time>2026-04-17T02:51:47Z</time></trkpt><trkpt lat="-25.207879105615355" lon="114.74671588302033"><ele>110.0</ele><time>2026-04-17T02:51:48Z</time></trkpt><trkpt lat="-25.208025347581522" lon="114.74699660967632"><ele>111.0</ele><time>2026-04-17T02:51:49Z</time></trkpt><trkpt lat="-25.20817819155801" lon="114.7472869369735"><ele>109.5</ele><time>2026-04-17T02:51:50Z</time></trkpt><trkpt lat="-25.208330993166513" lon="114.74758051637426"><ele>108.0</ele><time>2026-04-17T02:51:51Z</time></trkpt><trkpt lat="-25.208483450812334" lon="114.74787755029757"><ele>108.0</ele><time>2026-04-17T02:51:52Z</time></trkpt><trkpt lat="-25.208633405408268" lon="114.74817210824986"><ele>108.0</ele><time>2026-04-17T02:51:53Z</time></trkpt><trkpt lat="-25.20878994698251" lon="114.74847392554358"><ele>108.5</ele><time>2026-04-17T02:51:54Z</time></trkpt><trkpt lat="-25.208949621485058" lon="114.74877760074239"><ele>109.0</ele><time>2026-04-17T02:51:55Z</time></trkpt><trkpt lat="-25.20911303872415" lon="114.74908139106158"><ele>108.0</ele><time>2026-04-17T02:51:56Z</time></trkpt><trkpt lat="-25.209280722477715" lon="114.74939403261595"><ele>107.0</ele><time>2026-04-17T02:51:57Z</time></trkpt><trkpt lat="-25.20944737311198" lon="114.74970691237098"><ele>107.0</ele><time>2026-04-17T02:51:58Z</time></trkpt><trkpt lat="-25.209612583205736" lon="114.75002230330874"><ele>107.0</ele><time>2026-04-17T02:51:59Z</time></trkpt><trkpt lat="-25.209776702687435" lon="114.75033634088429"><ele>107.5</ele><time>2026-04-17T02:52:00Z</time></trkpt><trkpt lat="-25.209939731607708" lon="114.75064791512146"><ele>108.0</ele><time>2026-04-17T02:52:01Z</time></trkpt><trkpt lat="-25.21010092958494" lon="114.75095029226372"><ele>107.0</ele><time>2026-04-17T02:52:02Z</time></trkpt><trkpt lat="-25.210266749231266" lon="114.75125690002771"><ele>106.0</ele><time>2026-04-17T02:52:03Z</time></trkpt><trkpt lat="-25.2104300493473" lon="114.75156051342793"><ele>106.0</ele><time>2026-04-17T02:52:04Z</time></trkpt><trkpt lat="-25.21059360091871" lon="114.75186654194093"><ele>106.0</ele><time>2026-04-17T02:52:05Z</time></trkpt><trkpt lat="-25.21075732157575" lon="114.7521733592189"><ele>106.5</ele><time>2026-04-17T02:52:06Z</time></trkpt><trkpt lat="-25.210916610560314" lon="114.75247943556325"><ele>107.0</ele><time>2026-04-17T02:52:07Z</time></trkpt><trkpt lat="-25.211071651706884" lon="114.7527836874102"><ele>107.0</ele><time>2026-04-17T02:52:08Z</time></trkpt><trkpt lat="-25.211230768520455" lon="114.75309125755017"><ele>107.0</ele><time>2026-04-17T02:52:09Z</time></trkpt><trkpt lat="-25.211397638606222" lon="114.75340558463482"><ele>107.0</ele><time>2026-04-17T02:52:10Z</time></trkpt><trkpt lat="-25.211563012499276" lon="114.75371710158817"><ele>107.0</ele><time>2026-04-17T02:52:11Z</time></trkpt><trkpt lat="-25.211727367508825" lon="114.75402175848161"><ele>107.0</ele><time>2026-04-17T02:52:12Z</time></trkpt><trkpt lat="-25.211890756630453" lon="114.75432846512905"><ele>107.0</ele><time>2026-04-17T02:52:13Z</time></trkpt><trkpt lat="-25.21204965895475" lon="114.75463477632255"><ele>106.5</ele><time>2026-04-17T02:52:14Z</time></trkpt><trkpt lat="-25.212211191310793" lon="114.75494384124212"><ele>106.0</ele><time>2026-04-17T02:52:15Z</time></trkpt><trkpt lat="-25.212375306493662" lon="114.7552502434227"><ele>106.0</ele><time>2026-04-17T02:52:16Z</time></trkpt><trkpt lat="-25.212539855930043" lon="114.75555851225137"><ele>106.0</ele><time>2026-04-17T02:52:17Z</time></trkpt><trkpt lat="-25.212702741386483" lon="114.755864740656"><ele>107.5</ele><time>2026-04-17T02:52:18Z</time></trkpt><trkpt lat="-25.212862695056558" lon="114.7561750270455"><ele>109.0</ele><time>2026-04-17T02:52:19Z</time></trkpt><trkpt lat="-25.213017611243178" lon="114.7564806269151"><ele>107.5</ele><time>2026-04-17T02:52:20Z</time></trkpt><trkpt lat="-25.213167193846132" lon="114.75678776903314"><ele>106.0</ele><time>2026-04-17T02:52:21Z</time></trkpt><trkpt lat="-25.213307730752756" lon="114.75709259276141"><ele>106.0</ele><time>2026-04-17T02:52:22Z</time></trkpt><trkpt lat="-25.21343798964878" lon="114.75739281296138"><ele>106.0</ele><time>2026-04-17T02:52:23Z</time></trkpt><trkpt lat="-25.21354946757993" lon="114.75768795781745"><ele>107.5</ele><time>2026-04-17T02:52:24Z</time></trkpt><trkpt lat="-25.213643574331897" lon="114.75799806331123"><ele>109.0</ele><time>2026-04-17T02:52:25Z</time></trkpt><trkpt lat="-25.213719555772908" lon="114.7583183998828"><ele>110.5</ele><time>2026-04-17T02:52:26Z</time></trkpt><trkpt lat="-25.213780024170713" lon="114.75864429528765"><ele>112.0</ele><time>2026-04-17T02:52:27Z</time></trkpt><trkpt lat="-25.21383382581682" lon="114.75897797043528"><ele>112.0</ele><time>2026-04-17T02:52:28Z</time></trkpt><trkpt lat="-25.213891226304725" lon="114.7592973477542"><ele>112.0</ele><time>2026-04-17T02:52:29Z</time></trkpt><trkpt lat="-25.213952463109297" lon="114.75962123184739"><ele>110.5</ele><time>2026-04-17T02:52:30Z</time></trkpt><trkpt lat="-25.214016216969906" lon="114.75994993084926"><ele>109.0</ele><time>2026-04-17T02:52:31Z</time></trkpt><trkpt lat="-25.214077414465567" lon="114.76027720616814"><ele>109.0</ele><time>2026-04-17T02:52:32Z</time></trkpt><trkpt lat="-25.214136266227563" lon="114.76060423274167"><ele>109.0</ele><time>2026-04-17T02:52:33Z</time></trkpt><trkpt lat="-25.214192119108976" lon="114.76092085673804"><ele>109.0</ele><time>2026-04-17T02:52:34Z</time></trkpt><trkpt lat="-25.214246859171027" lon="114.76125043190937"><ele>109.0</ele><time>2026-04-17T02:52:35Z</time></trkpt><trkpt lat="-25.214300400219905" lon="114.76157764060854"><ele>110.0</ele><time>2026-04-17T02:52:36Z</time></trkpt><trkpt lat="-25.21435694263421" lon="114.76189356796856"><ele>111.0</ele><time>2026-04-17T02:52:37Z</time></trkpt><trkpt lat="-25.214414665032436" lon="114.76221423089072"><ele>111.0</ele><time>2026-04-17T02:52:38Z</time></trkpt><trkpt lat="-25.214475373021482" lon="114.76253286737347"><ele>111.0</ele><time>2026-04-17T02:52:39Z</time></trkpt><trkpt lat="-25.21453312581662" lon="114.76284968779254"><ele>111.5</ele><time>2026-04-17T02:52:40Z</time></trkpt><trkpt lat="-25.2145895740539" lon="114.76317284044615"><ele>112.0</ele><time>2026-04-17T02:52:41Z</time></trkpt><trkpt lat="-25.21464207580226" lon="114.76348817056224"><ele>111.5</ele><time>2026-04-17T02:52:42Z</time></trkpt><trkpt lat="-25.214698462186956" lon="114.7638150955865"><ele>111.0</ele><time>2026-04-17T02:52:43Z</time></trkpt><trkpt lat="-25.214756619256477" lon="114.76414138614379"><ele>112.0</ele><time>2026-04-17T02:52:44Z</time></trkpt><trkpt lat="-25.21481665894967" lon="114.76446828621796"><ele>113.0</ele><time>2026-04-17T02:52:45Z</time></trkpt><trkpt lat="-25.21487554256683" lon="114.76479419372596"><ele>111.0</ele><time>2026-04-17T02:52:46Z</time></trkpt><trkpt lat="-25.214936947400535" lon="114.76512235516428"><ele>109.0</ele><time>2026-04-17T02:52:47Z</time></trkpt><trkpt lat="-25.214998762719958" lon="114.76545437531247"><ele>109.0</ele><time>2026-04-17T02:52:48Z</time></trkpt><trkpt lat="-25.215062032809023" lon="114.76578869485492"><ele>109.0</ele><time>2026-04-17T02:52:49Z</time></trkpt><trkpt lat="-25.21512876836653" lon="114.76611965256843"><ele>109.5</ele><time>2026-04-17T02:52:50Z</time></trkpt><trkpt lat="-25.215195469309705" lon="114.766449369037"><ele>110.0</ele><time>2026-04-17T02:52:51Z</time></trkpt><trkpt lat="-25.21526503889371" lon="114.76677865281205"><ele>111.5</ele><time>2026-04-17T02:52:52Z</time></trkpt><trkpt lat="-25.215338718786843" lon="114.76710397868796"><ele>113.0</ele><time>2026-04-17T02:52:53Z</time></trkpt><trkpt lat="-25.215417957070752" lon="114.76743010999185"><ele>114.0</ele><time>2026-04-17T02:52:54Z</time></trkpt><trkpt lat="-25.215497529746845" lon="114.76775220542562"><ele>115.0</ele><time>2026-04-17T02:52:55Z</time></trkpt><trkpt lat="-25.215577342574427" lon="114.76807988881198"><ele>113.0</ele><time>2026-04-17T02:52:56Z</time></trkpt><trkpt lat="-25.215659736890974" lon="114.76840750585073"><ele>111.0</ele><time>2026-04-17T02:52:57Z</time></trkpt><trkpt lat="-25.215739203682865" lon="114.76873135094472"><ele>110.5</ele><time>2026-04-17T02:52:58Z</time></trkpt><trkpt lat="-25.215816906975704" lon="114.76906156440835"><ele>110.0</ele><time>2026-04-17T02:52:59Z</time></trkpt><trkpt lat="-25.215893892263562" lon="114.76939183317386"><ele>111.0</ele><time>2026-04-17T02:53:00Z</time></trkpt><trkpt lat="-25.215970611682028" lon="114.76972011328701"><ele>112.0</ele><time>2026-04-17T02:53:01Z</time></trkpt><trkpt lat="-25.216046122537282" lon="114.77004674748378"><ele>112.5</ele><time>2026-04-17T02:53:02Z</time></trkpt><trkpt lat="-25.216118776211903" lon="114.7703728097823"><ele>113.0</ele><time>2026-04-17T02:53:03Z</time></trkpt><trkpt lat="-25.21619178777378" lon="114.77070159855234"><ele>115.0</ele><time>2026-04-17T02:53:04Z</time></trkpt><trkpt lat="-25.216265975060754" lon="114.77102736748712"><ele>117.0</ele><time>2026-04-17T02:53:05Z</time></trkpt><trkpt lat="-25.216340675757806" lon="114.77135436320962"><ele>117.0</ele><time>2026-04-17T02:53:06Z</time></trkpt><trkpt lat="-25.216418151129147" lon="114.7716829531916"><ele>117.0</ele><time>2026-04-17T02:53:07Z</time></trkpt><trkpt lat="-25.21649861427085" lon="114.7720071884095"><ele>114.5</ele><time>2026-04-17T02:53:08Z</time></trkpt><trkpt lat="-25.216582373065766" lon="114.77233788561573"><ele>112.0</ele><time>2026-04-17T02:53:09Z</time></trkpt><trkpt lat="-25.21666728402971" lon="114.772665035932"><ele>113.0</ele><time>2026-04-17T02:53:10Z</time></trkpt><trkpt lat="-25.216750995294085" lon="114.77298687423908"><ele>114.0</ele><time>2026-04-17T02:53:11Z</time></trkpt><trkpt lat="-25.216832095042708" lon="114.77331023734428"><ele>116.0</ele><time>2026-04-17T02:53:12Z</time></trkpt><trkpt lat="-25.21691347513586" lon="114.7736324132283"><ele>118.0</ele><time>2026-04-17T02:53:13Z</time></trkpt><trkpt lat="-25.21699479486665" lon="114.77395108319136"><ele>118.0</ele><time>2026-04-17T02:53:14Z</time></trkpt><trkpt lat="-25.2170685294707" lon="114.77426024804977"><ele>118.0</ele><time>2026-04-17T02:53:15Z</time></trkpt><trkpt lat="-25.21713936256283" lon="114.77457641569103"><ele>118.5</ele><time>2026-04-17T02:53:16Z</time></trkpt><trkpt lat="-25.217207499616478" lon="114.77490135579123"><ele>119.0</ele><time>2026-04-17T02:53:17Z</time></trkpt><trkpt lat="-25.217280760740092" lon="114.77523284794998"><ele>117.0</ele><time>2026-04-17T02:53:18Z</time></trkpt><trkpt lat="-25.217357677558546" lon="114.77556267727033"><ele>115.0</ele><time>2026-04-17T02:53:19Z</time></trkpt><trkpt lat="-25.217438407775955" lon="114.7758828169808"><ele>114.5</ele><time>2026-04-17T02:53:20Z</time></trkpt><trkpt lat="-25.217517503231928" lon="114.77620080275291"><ele>114.0</ele><time>2026-04-17T02:53:21Z</time></trkpt><trkpt lat="-25.217597950263695" lon="114.776527411541"><ele>114.5</ele><time>2026-04-17T02:53:22Z</time></trkpt><trkpt lat="-25.217675165824144" lon="114.77685461757383"><ele>115.0</ele><time>2026-04-17T02:53:23Z</time></trkpt><trkpt lat="-25.217748068273885" lon="114.77717698199605"><ele>115.0</ele><time>2026-04-17T02:53:24Z</time></trkpt><trkpt lat="-25.217821972620158" lon="114.77750074585035"><ele>115.0</ele><time>2026-04-17T02:53:25Z</time></trkpt><trkpt lat="-25.21789533319928" lon="114.77782607047996"><ele>115.5</ele><time>2026-04-17T02:53:26Z</time></trkpt><trkpt lat="-25.217971026562772" lon="114.77815696909826"><ele>116.0</ele><time>2026-04-17T02:53:27Z</time></trkpt><trkpt lat="-25.218049234379155" lon="114.77848820129604"><ele>116.0</ele><time>2026-04-17T02:53:28Z</time></trkpt><trkpt lat="-25.218131114235828" lon="114.7788238050686"><ele>116.0</ele><time>2026-04-17T02:53:29Z</time></trkpt><trkpt lat="-25.218211197901088" lon="114.77915891592572"><ele>116.0</ele><time>2026-04-17T02:53:30Z</time></trkpt><trkpt lat="-25.21829108841442" lon="114.77949312147668"><ele>116.0</ele><time>2026-04-17T02:53:31Z</time></trkpt><trkpt lat="-25.218369756708917" lon="114.779826171281"><ele>116.0</ele><time>2026-04-17T02:53:32Z</time></trkpt><trkpt lat="-25.218447601486677" lon="114.78015474421655"><ele>116.0</ele><time>2026-04-17T02:53:33Z</time></trkpt><trkpt lat="-25.218525863072156" lon="114.78047847833857"><ele>116.5</ele><time>2026-04-17T02:53:34Z</time></trkpt><trkpt lat="-25.218605652867275" lon="114.78079851113894"><ele>117.0</ele><time>2026-04-17T02:53:35Z</time></trkpt><trkpt lat="-25.21868259090669" lon="114.78110627247123"><ele>117.0</ele><time>2026-04-17T02:53:36Z</time></trkpt><trkpt lat="-25.2187523966506" lon="114.7813995147045"><ele>117.0</ele><time>2026-04-17T02:53:37Z</time></trkpt><trkpt lat="-25.218813152536416" lon="114.78167518858731"><ele>117.5</ele><time>2026-04-17T02:53:38Z</time></trkpt><trkpt lat="-25.218871833797138" lon="114.78193700354089"><ele>118.0</ele><time>2026-04-17T02:53:39Z</time></trkpt><trkpt lat="-25.218928965477623" lon="114.78218938131667"><ele>118.0</ele><time>2026-04-17T02:53:40Z</time></trkpt><trkpt lat="-25.21898517958179" lon="114.78242931798081"><ele>118.0</ele><time>2026-04-17T02:53:41Z</time></trkpt><trkpt lat="-25.21903698874901" lon="114.78264838458844"><ele>118.0</ele><time>2026-04-17T02:53:42Z</time></trkpt><trkpt lat="-25.21908545109821" lon="114.78284649271781"><ele>118.0</ele><time>2026-04-17T02:53:43Z</time></trkpt><trkpt lat="-25.219127120983373" lon="114.78301635140669"><ele>118.0</ele><time>2026-04-17T02:53:44Z</time></trkpt><trkpt lat="-25.219163086516208" lon="114.78316402900256"><ele>118.0</ele><time>2026-04-17T02:53:45Z</time></trkpt><trkpt lat="-25.219196132662137" lon="114.78329266691128"><ele>118.0</ele><time>2026-04-17T02:53:46Z</time></trkpt><trkpt lat="-25.219229798626937" lon="114.78342405507146"><ele>117.80000000000001</ele><time>2026-04-17T02:53:47Z</time></trkpt><trkpt lat="-25.219259173813896" lon="114.78354887520264"><ele>117.60000000000001</ele><time>2026-04-17T02:53:48Z</time></trkpt><trkpt lat="-25.219287529542314" lon="114.78366933944368"><ele>117.39999999999999</ele><time>2026-04-17T02:53:49Z</time></trkpt><trkpt lat="-25.21931471445088" lon="114.7837805789227"><ele>117.19999999999999</ele><time>2026-04-17T02:53:50Z</time></trkpt><trkpt lat="-25.219340421624597" lon="114.78388671068866"><ele>117.0</ele><time>2026-04-17T02:53:51Z</time></trkpt><trkpt lat="-25.21936443468814" lon="114.78398364692109"><ele>117.0</ele><time>2026-04-17T02:53:52Z</time></trkpt><trkpt lat="-25.219385922592316" lon="114.78407671239484"><ele>117.0</ele><time>2026-04-17T02:53:53Z</time></trkpt><trkpt lat="-25.219405346615243" lon="114.78415598446226"><ele>117.0</ele><time>2026-04-17T02:53:54Z</time></trkpt><trkpt lat="-25.21942530448809" lon="114.7842402372988"><ele>117.0</ele><time>2026-04-17T02:53:56Z</time></trkpt><trkpt lat="-25.21945215649807" lon="114.78434738126045"><ele>117.0</ele><time>2026-04-17T02:54:24Z</time></trkpt><trkpt lat="-25.219471703720167" lon="114.78442286792875"><ele>117.0</ele><time>2026-04-17T02:54:25Z</time></trkpt><trkpt lat="-25.219495391372156" lon="114.78452397418538"><ele>117.5</ele><time>2026-04-17T02:54:26Z</time></trkpt><trkpt lat="-25.219521358512793" lon="114.78464152904422"><ele>118.0</ele><time>2026-04-17T02:54:27Z</time></trkpt><trkpt lat="-25.21955334972435" lon="114.78478691252751"><ele>118.5</ele><time>2026-04-17T02:54:28Z</time></trkpt><trkpt lat="-25.21958856651053" lon="114.78494629518391"><ele>119.0</ele><time>2026-04-17T02:54:29Z</time></trkpt><trkpt lat="-25.21962538743836" lon="114.78511412463408"><ele>119.33333333333333</ele><time>2026-04-17T02:54:30Z</time></trkpt><trkpt lat="-25.2196681768159" lon="114.78530097123483"><ele>119.66666666666666</ele><time>2026-04-17T02:54:31Z</time></trkpt><trkpt lat="-25.219715666998084" lon="114.7855072725107"><ele>120.0</ele><time>2026-04-17T02:54:32Z</time></trkpt><trkpt lat="-25.219766972652845" lon="114.78572045993971"><ele>120.0</ele><time>2026-04-17T02:54:33Z</time></trkpt><trkpt lat="-25.219819850937725" lon="114.7859472598182"><ele>120.0</ele><time>2026-04-17T02:54:34Z</time></trkpt><trkpt lat="-25.21988148969904" lon="114.78618963330689"><ele>120.0</ele><time>2026-04-17T02:54:35Z</time></trkpt><trkpt lat="-25.21995143416951" lon="114.78643425348291"><ele>120.0</ele><time>2026-04-17T02:54:36Z</time></trkpt><trkpt lat="-25.2200297524168" lon="114.78667931470035"><ele>120.0</ele><time>2026-04-17T02:54:37Z</time></trkpt><trkpt lat="-25.2201178279667" lon="114.78694631192832"><ele>120.0</ele><time>2026-04-17T02:54:38Z</time></trkpt><trkpt lat="-25.22021145023625" lon="114.78722350031481"><ele>120.0</ele><time>2026-04-17T02:54:39Z</time></trkpt><trkpt lat="-25.220312220454353" lon="114.78752009171482"><ele>119.0</ele><time>2026-04-17T02:54:40Z</time></trkpt><trkpt lat="-25.22041082341891" lon="114.78781117581674"><ele>118.0</ele><time>2026-04-17T02:54:41Z</time></trkpt><trkpt lat="-25.220510898543946" lon="114.7880941279536"><ele>118.0</ele><time>2026-04-17T02:54:42Z</time></trkpt><trkpt lat="-25.22060226762265" lon="114.78836113745497"><ele>118.0</ele><time>2026-04-17T02:54:43Z</time></trkpt><trkpt lat="-25.220684801971125" lon="114.78861091681951"><ele>118.5</ele><time>2026-04-17T02:54:44Z</time></trkpt><trkpt lat="-25.220767923504596" lon="114.7888562228595"><ele>119.0</ele><time>2026-04-17T02:54:45Z</time></trkpt><trkpt lat="-25.22085305774058" lon="114.78910515008609"><ele>118.5</ele><time>2026-04-17T02:54:46Z</time></trkpt><trkpt lat="-25.220940582052375" lon="114.78936172179033"><ele>118.0</ele><time>2026-04-17T02:54:47Z</time></trkpt><trkpt lat="-25.221028403890944" lon="114.7896198892866"><ele>118.0</ele><time>2026-04-17T02:54:48Z</time></trkpt><trkpt lat="-25.221120327970556" lon="114.78989183954742"><ele>118.0</ele><time>2026-04-17T02:54:49Z</time></trkpt><trkpt lat="-25.22121204497704" lon="114.79016882429717"><ele>117.5</ele><time>2026-04-17T02:54:50Z</time></trkpt><trkpt lat="-25.221312537994006" lon="114.79046200746072"><ele>117.0</ele><time>2026-04-17T02:54:51Z</time></trkpt><trkpt lat="-25.22141258512431" lon="114.79075265277501"><ele>117.5</ele><time>2026-04-17T02:54:52Z</time></trkpt><trkpt lat="-25.22151140815425" lon="114.79104267241911"><ele>118.0</ele><time>2026-04-17T02:54:53Z</time></trkpt><trkpt lat="-25.221612355928738" lon="114.79133494550538"><ele>118.0</ele><time>2026-04-17T02:54:54Z</time></trkpt><trkpt lat="-25.221714866644124" lon="114.79162985308551"><ele>118.0</ele><time>2026-04-17T02:54:55Z</time></trkpt><trkpt lat="-25.221816381958398" lon="114.7919216944922"><ele>116.5</ele><time>2026-04-17T02:54:56Z</time></trkpt><trkpt lat="-25.22191558741348" lon="114.79221990184955"><ele>115.0</ele><time>2026-04-17T02:54:57Z</time></trkpt><trkpt lat="-25.222015053292708" lon="114.79252037071629"><ele>115.0</ele><time>2026-04-17T02:54:58Z</time></trkpt><trkpt lat="-25.222114346350683" lon="114.7928155959276"><ele>115.0</ele><time>2026-04-17T02:54:59Z</time></trkpt><trkpt lat="-25.22221420319464" lon="114.79311106719621"><ele>115.5</ele><time>2026-04-17T02:55:00Z</time></trkpt><trkpt lat="-25.222316828776638" lon="114.79341179564484"><ele>116.0</ele><time>2026-04-17T02:55:01Z</time></trkpt><trkpt lat="-25.222416908330796" lon="114.79371664503452"><ele>116.0</ele><time>2026-04-17T02:55:02Z</time></trkpt><trkpt lat="-25.22251729810159" lon="114.79402079409756"><ele>116.0</ele><time>2026-04-17T02:55:03Z</time></trkpt><trkpt lat="-25.22262057055948" lon="114.79432772927609"><ele>116.5</ele><time>2026-04-17T02:55:04Z</time></trkpt><trkpt lat="-25.22272576448168" lon="114.79463399053114"><ele>117.0</ele><time>2026-04-17T02:55:05Z</time></trkpt><trkpt lat="-25.22283085698776" lon="114.79494152899922"><ele>117.5</ele><time>2026-04-17T02:55:06Z</time></trkpt><trkpt lat="-25.222938225130783" lon="114.79525153584765"><ele>118.0</ele><time>2026-04-17T02:55:07Z</time></trkpt><trkpt lat="-25.22304432692453" lon="114.79555620419343"><ele>118.0</ele><time>2026-04-17T02:55:08Z</time></trkpt><trkpt lat="-25.223152084328568" lon="114.79586895933379"><ele>118.0</ele><time>2026-04-17T02:55:09Z</time></trkpt><trkpt lat="-25.223255544328836" lon="114.7961760439715"><ele>118.0</ele><time>2026-04-17T02:55:10Z</time></trkpt><trkpt lat="-25.22335990250293" lon="114.79648864633229"><ele>118.0</ele><time>2026-04-17T02:55:11Z</time></trkpt><trkpt lat="-25.223464164130235" lon="114.79680189415456"><ele>118.0</ele><time>2026-04-17T02:55:12Z</time></trkpt><trkpt lat="-25.223567217333464" lon="114.79711240648255"><ele>118.0</ele><time>2026-04-17T02:55:13Z</time></trkpt><trkpt lat="-25.223673950507976" lon="114.79742672771309"><ele>118.5</ele><time>2026-04-17T02:55:14Z</time></trkpt><trkpt lat="-25.223779334303487" lon="114.79773909279967"><ele>119.0</ele><time>2026-04-17T02:55:15Z</time></trkpt><trkpt lat="-25.223886949960185" lon="114.79806220702173"><ele>118.5</ele><time>2026-04-17T02:55:16Z</time></trkpt><trkpt lat="-25.223989771088732" lon="114.79837860967353"><ele>118.0</ele><time>2026-04-17T02:55:17Z</time></trkpt><trkpt lat="-25.224086420359832" lon="114.7986693575017"><ele>118.0</ele><time>2026-04-17T02:55:18Z</time></trkpt><trkpt lat="-25.224174785736373" lon="114.79894464710841"><ele>118.0</ele><time>2026-04-17T02:55:19Z</time></trkpt><trkpt lat="-25.224250945570642" lon="114.79921669711818"><ele>119.0</ele><time>2026-04-17T02:55:20Z</time></trkpt><trkpt lat="-25.224317543362645" lon="114.79949376833429"><ele>120.0</ele><time>2026-04-17T02:55:21Z</time></trkpt><trkpt lat="-25.224368470871735" lon="114.79977058881558"><ele>120.0</ele><time>2026-04-17T02:55:22Z</time></trkpt><trkpt lat="-25.224413484201126" lon="114.80005106306679"><ele>120.0</ele><time>2026-04-17T02:55:23Z</time></trkpt><trkpt lat="-25.22445541792705" lon="114.80034287508762"><ele>119.5</ele><time>2026-04-17T02:55:24Z</time></trkpt><trkpt lat="-25.224488057535474" lon="114.80063666864109"><ele>119.0</ele><time>2026-04-17T02:55:25Z</time></trkpt><trkpt lat="-25.224515345684406" lon="114.80092725894592"><ele>119.0</ele><time>2026-04-17T02:55:26Z</time></trkpt><trkpt lat="-25.22454335640427" lon="114.80121542813141"><ele>119.0</ele><time>2026-04-17T02:55:27Z</time></trkpt><trkpt lat="-25.22458119858103" lon="114.80151858201289"><ele>118.5</ele><time>2026-04-17T02:55:28Z</time></trkpt><trkpt lat="-25.224626134789812" lon="114.80183802517477"><ele>118.0</ele><time>2026-04-17T02:55:29Z</time></trkpt><trkpt lat="-25.22467010215309" lon="114.80214653434471"><ele>118.0</ele><time>2026-04-17T02:55:30Z</time></trkpt><trkpt lat="-25.22471513972174" lon="114.80245771647523"><ele>118.0</ele><time>2026-04-17T02:55:31Z</time></trkpt><trkpt lat="-25.224759435973883" lon="114.80277684024593"><ele>118.0</ele><time>2026-04-17T02:55:32Z</time></trkpt><trkpt lat="-25.22480142344868" lon="114.80308592594537"><ele>118.0</ele><time>2026-04-17T02:55:33Z</time></trkpt><trkpt lat="-25.224839557533198" lon="114.80338752061512"><ele>118.0</ele><time>2026-04-17T02:55:34Z</time></trkpt><trkpt lat="-25.224875453360234" lon="114.80369613241236"><ele>118.0</ele><time>2026-04-17T02:55:35Z</time></trkpt><trkpt lat="-25.224915674934007" lon="114.80400800993357"><ele>118.0</ele><time>2026-04-17T02:55:36Z</time></trkpt><trkpt lat="-25.224959712147" lon="114.80432420287352"><ele>118.0</ele><time>2026-04-17T02:55:37Z</time></trkpt><trkpt lat="-25.22500342512506" lon="114.80463679099962"><ele>118.0</ele><time>2026-04-17T02:55:38Z</time></trkpt><trkpt lat="-25.225045801964892" lon="114.80494672677702"><ele>118.0</ele><time>2026-04-17T02:55:39Z</time></trkpt><trkpt lat="-25.22509174969887" lon="114.80526682603818"><ele>118.5</ele><time>2026-04-17T02:55:40Z</time></trkpt><trkpt lat="-25.225137697741793" lon="114.80557836172007"><ele>119.0</ele><time>2026-04-17T02:55:41Z</time></trkpt><trkpt lat="-25.22518236192749" lon="114.8058858197327"><ele>120.0</ele><time>2026-04-17T02:55:42Z</time></trkpt><trkpt lat="-25.225223387155673" lon="114.80618642685816"><ele>121.0</ele><time>2026-04-17T02:55:43Z</time></trkpt><trkpt lat="-25.225265907183637" lon="114.80648551723452"><ele>121.0</ele><time>2026-04-17T02:55:44Z</time></trkpt><trkpt lat="-25.225309208987348" lon="114.80678554744368"><ele>121.0</ele><time>2026-04-17T02:55:45Z</time></trkpt><trkpt lat="-25.22535279998624" lon="114.80708127180803"><ele>122.0</ele><time>2026-04-17T02:55:46Z</time></trkpt><trkpt lat="-25.22539465352722" lon="114.80737690027694"><ele>123.0</ele><time>2026-04-17T02:55:47Z</time></trkpt><trkpt lat="-25.225434899757353" lon="114.80766934375761"><ele>123.5</ele><time>2026-04-17T02:55:48Z</time></trkpt><trkpt lat="-25.225472952377324" lon="114.80796912184638"><ele>124.0</ele><time>2026-04-17T02:55:49Z</time></trkpt><trkpt lat="-25.225508105384545" lon="114.80827259027987"><ele>123.0</ele><time>2026-04-17T02:55:50Z</time></trkpt><trkpt lat="-25.225547019849653" lon="114.80857078615172"><ele>122.0</ele><time>2026-04-17T02:55:51Z</time></trkpt><trkpt lat="-25.225588446469143" lon="114.80887066944187"><ele>122.0</ele><time>2026-04-17T02:55:52Z</time></trkpt><trkpt lat="-25.22562664051295" lon="114.80917447098649"><ele>122.0</ele><time>2026-04-17T02:55:53Z</time></trkpt><trkpt lat="-25.22566555485892" lon="114.80947876745546"><ele>119.0</ele><time>2026-04-17T02:55:54Z</time></trkpt><trkpt lat="-25.225707510865767" lon="114.80978879207822"><ele>116.0</ele><time>2026-04-17T02:55:55Z</time></trkpt><trkpt lat="-25.22575194346494" lon="114.81010234714584"><ele>115.5</ele><time>2026-04-17T02:55:56Z</time></trkpt><trkpt lat="-25.22579622706665" lon="114.81041778794224"><ele>115.0</ele><time>2026-04-17T02:55:57Z</time></trkpt><trkpt lat="-25.22583970801068" lon="114.81073183710014"><ele>114.5</ele><time>2026-04-17T02:55:58Z</time></trkpt><trkpt lat="-25.22588233250881" lon="114.81104605557088"><ele>114.0</ele><time>2026-04-17T02:55:59Z</time></trkpt><trkpt lat="-25.225921832269393" lon="114.81135645805306"><ele>114.0</ele><time>2026-04-17T02:56:00Z</time></trkpt><trkpt lat="-25.22595726089902" lon="114.811665249338"><ele>114.0</ele><time>2026-04-17T02:56:01Z</time></trkpt><trkpt lat="-25.22598898800529" lon="114.81197198401293"><ele>114.0</ele><time>2026-04-17T02:56:02Z</time></trkpt><trkpt lat="-25.22602295130846" lon="114.81227954478318"><ele>114.0</ele><time>2026-04-17T02:56:03Z</time></trkpt><trkpt lat="-25.226057092459854" lon="114.81257197693793"><ele>115.5</ele><time>2026-04-17T02:56:04Z</time></trkpt><trkpt lat="-25.22609700189075" lon="114.81286839798472"><ele>117.0</ele><time>2026-04-17T02:56:05Z</time></trkpt><trkpt lat="-25.226136555918636" lon="114.81314866937116"><ele>117.0</ele><time>2026-04-17T02:56:06Z</time></trkpt><trkpt lat="-25.22617217284615" lon="114.8134177704484"><ele>117.0</ele><time>2026-04-17T02:56:07Z</time></trkpt><trkpt lat="-25.226207850665997" lon="114.8136952218755"><ele>117.0</ele><time>2026-04-17T02:56:08Z</time></trkpt><trkpt lat="-25.226247151879658" lon="114.81398617972424"><ele>117.0</ele><time>2026-04-17T02:56:09Z</time></trkpt><trkpt lat="-25.226290767678275" lon="114.81428434587937"><ele>117.0</ele><time>2026-04-17T02:56:10Z</time></trkpt><trkpt lat="-25.22633358354137" lon="114.81458624147285"><ele>117.0</ele><time>2026-04-17T02:56:11Z</time></trkpt><trkpt lat="-25.226376043061713" lon="114.81489703499716"><ele>116.0</ele><time>2026-04-17T02:56:12Z</time></trkpt><trkpt lat="-25.226416756791284" lon="114.81520733078133"><ele>115.0</ele><time>2026-04-17T02:56:13Z</time></trkpt><trkpt lat="-25.226458072679325" lon="114.81551368924167"><ele>114.5</ele><time>2026-04-17T02:56:14Z</time></trkpt><trkpt lat="-25.226499500515423" lon="114.815816405737"><ele>114.0</ele><time>2026-04-17T02:56:15Z</time></trkpt><trkpt lat="-25.226540933749884" lon="114.81612201717644"><ele>113.5</ele><time>2026-04-17T02:56:16Z</time></trkpt><trkpt lat="-25.226583716854073" lon="114.81643147587138"><ele>113.0</ele><time>2026-04-17T02:56:17Z</time></trkpt><trkpt lat="-25.22663255002767" lon="114.81673494419141"><ele>114.5</ele><time>2026-04-17T02:56:17.999Z</time></trkpt><trkpt lat="-25.226686869779797" lon="114.81702989604909"><ele>116.0</ele><time>2026-04-17T02:56:18.999Z</time></trkpt><trkpt lat="-25.226748681976474" lon="114.81733173038944"><ele>116.0</ele><time>2026-04-17T02:56:19.999Z</time></trkpt><trkpt lat="-25.22681830868921" lon="114.81763252331768"><ele>116.0</ele><time>2026-04-17T02:56:20.999Z</time></trkpt><trkpt lat="-25.226896347739608" lon="114.81792998852195"><ele>115.5</ele><time>2026-04-17T02:56:21.999Z</time></trkpt><trkpt lat="-25.22698770571823" lon="114.81821595328127"><ele>115.0</ele><time>2026-04-17T02:56:22.999Z</time></trkpt><trkpt lat="-25.22709176313545" lon="114.81850051156984"><ele>114.5</ele><time>2026-04-17T02:56:23.999Z</time></trkpt><trkpt lat="-25.22721089843113" lon="114.81876724933798"><ele>114.0</ele><time>2026-04-17T02:56:24.999Z</time></trkpt><trkpt lat="-25.22734670758677" lon="114.81905350919571"><ele>113.5</ele><time>2026-04-17T02:56:25.999Z</time></trkpt><trkpt lat="-25.22749022174738" lon="114.81934738211041"><ele>113.0</ele><time>2026-04-17T02:56:26.999Z</time></trkpt><trkpt lat="-25.2276384413238" lon="114.81964187627469"><ele>113.0</ele><time>2026-04-17T02:56:27.999Z</time></trkpt><trkpt lat="-25.227792225009694" lon="114.81993579151712"><ele>113.0</ele><time>2026-04-17T02:56:28.999Z</time></trkpt><trkpt lat="-25.227950628685456" lon="114.82022470308259"><ele>113.0</ele><time>2026-04-17T02:56:29.999Z</time></trkpt><trkpt lat="-25.228111848852567" lon="114.82051439963111"><ele>113.0</ele><time>2026-04-17T02:56:30.999Z</time></trkpt><trkpt lat="-25.228273584662965" lon="114.82080675480447"><ele>113.5</ele><time>2026-04-17T02:56:31.999Z</time></trkpt><trkpt lat="-25.228434869273887" lon="114.82109409261338"><ele>114.0</ele><time>2026-04-17T02:56:32.999Z</time></trkpt><trkpt lat="-25.228599204805338" lon="114.82138583507309"><ele>114.0</ele><time>2026-04-17T02:56:33.999Z</time></trkpt><trkpt lat="-25.228758956302478" lon="114.82167514201983"><ele>114.0</ele><time>2026-04-17T02:56:34.999Z</time></trkpt><trkpt lat="-25.228916051396425" lon="114.8219633388856"><ele>113.0</ele><time>2026-04-17T02:56:35.999Z</time></trkpt><trkpt lat="-25.229075002907273" lon="114.82225688354475"><ele>112.0</ele><time>2026-04-17T02:56:36.999Z</time></trkpt><trkpt lat="-25.229233472839" lon="114.82254697228605"><ele>113.0</ele><time>2026-04-17T02:56:37.999Z</time></trkpt><trkpt lat="-25.229396377124566" lon="114.82284036398572"><ele>114.0</ele><time>2026-04-17T02:56:38.999Z</time></trkpt><trkpt lat="-25.229559147837016" lon="114.82312954319552"><ele>114.0</ele><time>2026-04-17T02:56:39.999Z</time></trkpt><trkpt lat="-25.22972080400813" lon="114.82341998931939"><ele>114.0</ele><time>2026-04-17T02:56:40.999Z</time></trkpt><trkpt lat="-25.229881406310124" lon="114.82370948800397"><ele>113.0</ele><time>2026-04-17T02:56:41.999Z</time></trkpt><trkpt lat="-25.23003951272032" lon="114.82399360946071"><ele>112.0</ele><time>2026-04-17T02:56:42.999Z</time></trkpt><trkpt lat="-25.230195660241836" lon="114.82426910707316"><ele>112.5</ele><time>2026-04-17T02:56:43.999Z</time></trkpt><trkpt lat="-25.230349969598112" lon="114.82454874334859"><ele>113.0</ele><time>2026-04-17T02:56:44.999Z</time></trkpt><trkpt lat="-25.23050411158462" lon="114.82483024497975"><ele>112.5</ele><time>2026-04-17T02:56:45.999Z</time></trkpt><trkpt lat="-25.230658853271326" lon="114.82510980198603"><ele>112.0</ele><time>2026-04-17T02:56:46.999Z</time></trkpt><trkpt lat="-25.23081584319133" lon="114.82539799185982"><ele>111.5</ele><time>2026-04-17T02:56:47.999Z</time></trkpt><trkpt lat="-25.230970220805634" lon="114.8256871358908"><ele>111.0</ele><time>2026-04-17T02:56:48.999Z</time></trkpt><trkpt lat="-25.23112398452226" lon="114.82597554607808"><ele>111.0</ele><time>2026-04-17T02:56:49.999Z</time></trkpt><trkpt lat="-25.23128077240491" lon="114.82626323603449"><ele>111.0</ele><time>2026-04-17T02:56:50.999Z</time></trkpt><trkpt lat="-25.231437852752514" lon="114.82655008618708"><ele>111.5</ele><time>2026-04-17T02:56:51.999Z</time></trkpt><trkpt lat="-25.231596249769858" lon="114.82683419811475"><ele>112.0</ele><time>2026-04-17T02:56:52.999Z</time></trkpt><trkpt lat="-25.231754794704234" lon="114.82711458083024"><ele>112.0</ele><time>2026-04-17T02:56:53.999Z</time></trkpt><trkpt lat="-25.23191648960038" lon="114.82739689385954"><ele>112.0</ele><time>2026-04-17T02:56:54.999Z</time></trkpt><trkpt lat="-25.232075556707354" lon="114.82768032620918"><ele>113.0</ele><time>2026-04-17T02:56:55.999Z</time></trkpt><trkpt lat="-25.232230230686362" lon="114.82796005951307"><ele>114.0</ele><time>2026-04-17T02:56:56.999Z</time></trkpt><trkpt lat="-25.232382090660806" lon="114.82824138925287"><ele>115.0</ele><time>2026-04-17T02:56:57.999Z</time></trkpt><trkpt lat="-25.232536761309273" lon="114.82852572950218"><ele>116.0</ele><time>2026-04-17T02:56:58.999Z</time></trkpt><trkpt lat="-25.23269311385745" lon="114.82881019681706"><ele>116.0</ele><time>2026-04-17T02:56:59.999Z</time></trkpt><trkpt lat="-25.232843940360116" lon="114.82908582269836"><ele>116.0</ele><time>2026-04-17T02:57:00.999Z</time></trkpt><trkpt lat="-25.23299932816654" lon="114.82937195446274"><ele>115.0</ele><time>2026-04-17T02:57:01.999Z</time></trkpt><trkpt lat="-25.233151841516317" lon="114.8296588351067"><ele>114.0</ele><time>2026-04-17T02:57:02.999Z</time></trkpt><trkpt lat="-25.233299342663386" lon="114.82993709745168"><ele>115.0</ele><time>2026-04-17T02:57:03.999Z</time></trkpt><trkpt lat="-25.233445054618386" lon="114.8302089214181"><ele>116.0</ele><time>2026-04-17T02:57:04.999Z</time></trkpt><trkpt lat="-25.23359085777792" lon="114.83047988859552"><ele>116.0</ele><time>2026-04-17T02:57:05.999Z</time></trkpt><trkpt lat="-25.23374138228277" lon="114.83075299415502"><ele>116.0</ele><time>2026-04-17T02:57:06.999Z</time></trkpt><trkpt lat="-25.2338945832291" lon="114.8310326835404"><ele>115.5</ele><time>2026-04-17T02:57:07.999Z</time></trkpt><trkpt lat="-25.23404686993775" lon="114.83131622587983"><ele>115.0</ele><time>2026-04-17T02:57:08.999Z</time></trkpt><trkpt lat="-25.234199235227393" lon="114.83160315034425"><ele>115.0</ele><time>2026-04-17T02:57:09.999Z</time></trkpt><trkpt lat="-25.23435181958969" lon="114.83188863076508"><ele>115.0</ele><time>2026-04-17T02:57:10.999Z</time></trkpt><trkpt lat="-25.234505834450093" lon="114.83217509406484"><ele>115.0</ele><time>2026-04-17T02:57:11.999Z</time></trkpt><trkpt lat="-25.23466025989291" lon="114.83246043201216"><ele>115.0</ele><time>2026-04-17T02:57:12.999Z</time></trkpt><trkpt lat="-25.234812547730694" lon="114.83274290048038"><ele>114.5</ele><time>2026-04-17T02:57:13.999Z</time></trkpt><trkpt lat="-25.234968826455248" lon="114.83302822662363"><ele>114.0</ele><time>2026-04-17T02:57:14.999Z</time></trkpt><trkpt lat="-25.235125835623222" lon="114.83331359177048"><ele>114.0</ele><time>2026-04-17T02:57:15.999Z</time></trkpt><trkpt lat="-25.23528432271823" lon="114.83359961028383"><ele>114.0</ele><time>2026-04-17T02:57:16.999Z</time></trkpt><trkpt lat="-25.235443026205076" lon="114.83388621495627"><ele>114.0</ele><time>2026-04-17T02:57:17.999Z</time></trkpt><trkpt lat="-25.235601470173467" lon="114.83417565667715"><ele>114.0</ele><time>2026-04-17T02:57:18.999Z</time></trkpt><trkpt lat="-25.235758300172936" lon="114.83446450698054"><ele>115.0</ele><time>2026-04-17T02:57:19.999Z</time></trkpt><trkpt lat="-25.235912527558284" lon="114.83474995252325"><ele>116.0</ele><time>2026-04-17T02:57:20.999Z</time></trkpt><trkpt lat="-25.23606687111791" lon="114.83504134359639"><ele>116.0</ele><time>2026-04-17T02:57:21.999Z</time></trkpt><trkpt lat="-25.236223524843048" lon="114.83533929612332"><ele>116.0</ele><time>2026-04-17T02:57:22.999Z</time></trkpt><trkpt lat="-25.236383151041345" lon="114.83563874613547"><ele>116.0</ele><time>2026-04-17T02:57:23.999Z</time></trkpt><trkpt lat="-25.23653892019861" lon="114.83593252471194"><ele>116.0</ele><time>2026-04-17T02:57:24.999Z</time></trkpt><trkpt lat="-25.23669260382905" lon="114.83622644986193"><ele>116.0</ele><time>2026-04-17T02:57:25.999Z</time></trkpt><trkpt lat="-25.23684142599885" lon="114.8365229778056"><ele>116.0</ele><time>2026-04-17T02:57:26.999Z</time></trkpt><trkpt lat="-25.236980862968295" lon="114.83681411455979"><ele>116.0</ele><time>2026-04-17T02:57:27.999Z</time></trkpt><trkpt lat="-25.237122657767625" lon="114.83710367311511"><ele>116.0</ele><time>2026-04-17T02:57:28.999Z</time></trkpt><trkpt lat="-25.237268392678857" lon="114.83739125433671"><ele>116.5</ele><time>2026-04-17T02:57:29.999Z</time></trkpt><trkpt lat="-25.237410013114065" lon="114.83768029589798"><ele>117.0</ele><time>2026-04-17T02:57:30.999Z</time></trkpt><trkpt lat="-25.23755190922014" lon="114.83797777782594"><ele>117.0</ele><time>2026-04-17T02:57:31.999Z</time></trkpt><trkpt lat="-25.23769162189631" lon="114.83827384501122"><ele>117.0</ele><time>2026-04-17T02:57:32.999Z</time></trkpt><trkpt lat="-25.237832219275784" lon="114.83856996472142"><ele>116.5</ele><time>2026-04-17T02:57:33.999Z</time></trkpt><trkpt lat="-25.23797269284037" lon="114.83886404128303"><ele>116.0</ele><time>2026-04-17T02:57:34.999Z</time></trkpt><trkpt lat="-25.238116736395817" lon="114.83915932206807"><ele>117.5</ele><time>2026-04-17T02:57:35.999Z</time></trkpt><trkpt lat="-25.238258328124036" lon="114.8394474706535"><ele>119.0</ele><time>2026-04-17T02:57:36.999Z</time></trkpt><trkpt lat="-25.238398595345927" lon="114.83973692931286"><ele>119.0</ele><time>2026-04-17T02:57:37.999Z</time></trkpt><trkpt lat="-25.238535931543872" lon="114.84002145273541"><ele>119.0</ele><time>2026-04-17T02:57:38.999Z</time></trkpt><trkpt lat="-25.23867697489789" lon="114.84031315707803"><ele>118.5</ele><time>2026-04-17T02:57:39.999Z</time></trkpt><trkpt lat="-25.238819729018733" lon="114.84060448721021"><ele>118.0</ele><time>2026-04-17T02:57:40.999Z</time></trkpt><trkpt lat="-25.2389657205417" lon="114.84089232455086"><ele>118.5</ele><time>2026-04-17T02:57:41.999Z</time></trkpt><trkpt lat="-25.239109750675244" lon="114.8411813849555"><ele>119.0</ele><time>2026-04-17T02:57:42.999Z</time></trkpt><trkpt lat="-25.23925251444738" lon="114.84147300904266"><ele>119.0</ele><time>2026-04-17T02:57:43.999Z</time></trkpt><trkpt lat="-25.239395338834388" lon="114.84176544438363"><ele>119.0</ele><time>2026-04-17T02:57:44.999Z</time></trkpt><trkpt lat="-25.239541203850262" lon="114.84206098077506"><ele>118.5</ele><time>2026-04-17T02:57:45.999Z</time></trkpt><trkpt lat="-25.239687020674094" lon="114.84235636967705"><ele>118.0</ele><time>2026-04-17T02:57:46.999Z</time></trkpt><trkpt lat="-25.23983179455188" lon="114.8426503127547"><ele>118.0</ele><time>2026-04-17T02:57:47.999Z</time></trkpt><trkpt lat="-25.239976382200943" lon="114.84294508115465"><ele>118.0</ele><time>2026-04-17T02:57:48.999Z</time></trkpt><trkpt lat="-25.24011993051474" lon="114.84323880254745"><ele>118.5</ele><time>2026-04-17T02:57:49.999Z</time></trkpt><trkpt lat="-25.24026606598147" lon="114.84353260902056"><ele>119.0</ele><time>2026-04-17T02:57:50.999Z</time></trkpt><trkpt lat="-25.240407434749486" lon="114.84382112105507"><ele>119.0</ele><time>2026-04-17T02:57:51.999Z</time></trkpt><trkpt lat="-25.240549376988046" lon="114.84410950518259"><ele>119.0</ele><time>2026-04-17T02:57:52.999Z</time></trkpt><trkpt lat="-25.240688232915776" lon="114.8443944126831"><ele>120.0</ele><time>2026-04-17T02:57:53.999Z</time></trkpt><trkpt lat="-25.240824866146262" lon="114.84467730339495"><ele>121.0</ele><time>2026-04-17T02:57:54.999Z</time></trkpt><trkpt lat="-25.240960735052223" lon="114.84496097029711"><ele>121.0</ele><time>2026-04-17T02:57:55.999Z</time></trkpt><trkpt lat="-25.241098566943236" lon="114.84524417164464"><ele>121.0</ele><time>2026-04-17T02:57:56.999Z</time></trkpt><trkpt lat="-25.241229140336955" lon="114.84551805825852"><ele>121.0</ele><time>2026-04-17T02:57:57.999Z</time></trkpt><trkpt lat="-25.24135639172207" lon="114.84578985808861"><ele>121.0</ele><time>2026-04-17T02:57:58.999Z</time></trkpt><trkpt lat="-25.24148577713109" lon="114.84606408486113"><ele>121.5</ele><time>2026-04-17T02:57:59.999Z</time></trkpt><trkpt lat="-25.241620205466244" lon="114.84633985377536"><ele>122.0</ele><time>2026-04-17T02:58:00.999Z</time></trkpt><trkpt lat="-25.24175634714635" lon="114.84662102419591"><ele>121.5</ele><time>2026-04-17T02:58:01.999Z</time></trkpt><trkpt lat="-25.24189042318351" lon="114.84689917615276"><ele>121.0</ele><time>2026-04-17T02:58:02.999Z</time></trkpt><trkpt lat="-25.242026996045745" lon="114.84718253222528"><ele>121.0</ele><time>2026-04-17T02:58:03.999Z</time></trkpt><trkpt lat="-25.24216327450009" lon="114.84746300210588"><ele>121.0</ele><time>2026-04-17T02:58:04.999Z</time></trkpt><trkpt lat="-25.242303391072323" lon="114.84774834112052"><ele>122.0</ele><time>2026-04-17T02:58:05.999Z</time></trkpt><trkpt lat="-25.242447752284672" lon="114.84803866356394"><ele>123.0</ele><time>2026-04-17T02:58:06.999Z</time></trkpt><trkpt lat="-25.242591570285803" lon="114.84832516431563"><ele>121.0</ele><time>2026-04-17T02:58:07.999Z</time></trkpt><trkpt lat="-25.242736392956658" lon="114.84861610608577"><ele>119.0</ele><time>2026-04-17T02:58:08.999Z</time></trkpt><trkpt lat="-25.242876203556644" lon="114.84890832294487"><ele>119.0</ele><time>2026-04-17T02:58:09.999Z</time></trkpt><trkpt lat="-25.24301997425157" lon="114.84919859499789"><ele>119.0</ele><time>2026-04-17T02:58:10.999Z</time></trkpt><trkpt lat="-25.243165595545562" lon="114.84948845025758"><ele>121.5</ele><time>2026-04-17T02:58:11.999Z</time></trkpt><trkpt lat="-25.2433035442772" lon="114.84977562636573"><ele>124.0</ele><time>2026-04-17T02:58:12.999Z</time></trkpt><trkpt lat="-25.243439472917355" lon="114.85005717362424"><ele>123.5</ele><time>2026-04-17T02:58:13.999Z</time></trkpt><trkpt lat="-25.243576470953943" lon="114.85034094607607"><ele>123.0</ele><time>2026-04-17T02:58:14.999Z</time></trkpt><trkpt lat="-25.243709896311227" lon="114.85062200096516"><ele>123.0</ele><time>2026-04-17T02:58:15.999Z</time></trkpt><trkpt lat="-25.243840975255388" lon="114.85089847315406"><ele>123.0</ele><time>2026-04-17T02:58:17Z</time></trkpt><trkpt lat="-25.243975072149432" lon="114.8511793614958"><ele>123.5</ele><time>2026-04-17T02:58:17.999Z</time></trkpt><trkpt lat="-25.24411153731223" lon="114.85145625688708"><ele>124.0</ele><time>2026-04-17T02:58:18.999Z</time></trkpt><trkpt lat="-25.24425117843" lon="114.85173318210593"><ele>123.0</ele><time>2026-04-17T02:58:19.999Z</time></trkpt><trkpt lat="-25.244391588568714" lon="114.85201257364626"><ele>122.0</ele><time>2026-04-17T02:58:20.998Z</time></trkpt><trkpt lat="-25.244528597126582" lon="114.85229136112433"><ele>122.0</ele><time>2026-04-17T02:58:21.998Z</time></trkpt><trkpt lat="-25.244662125989777" lon="114.85257185962777"><ele>122.0</ele><time>2026-04-17T02:58:22.998Z</time></trkpt><trkpt lat="-25.244797289873905" lon="114.85285103100665"><ele>123.0</ele><time>2026-04-17T02:58:23.998Z</time></trkpt><trkpt lat="-25.244934615405175" lon="114.85313598286275"><ele>124.0</ele><time>2026-04-17T02:58:24.997Z</time></trkpt><trkpt lat="-25.245073118699278" lon="114.85341758054545"><ele>125.0</ele><time>2026-04-17T02:58:25.997Z</time></trkpt><trkpt lat="-25.245211844356696" lon="114.85369693255511"><ele>126.0</ele><time>2026-04-17T02:58:26.997Z</time></trkpt><trkpt lat="-25.245352246857486" lon="114.85397905405135"><ele>126.0</ele><time>2026-04-17T02:58:27.997Z</time></trkpt><trkpt lat="-25.245492630865858" lon="114.85426640365374"><ele>126.0</ele><time>2026-04-17T02:58:28.997Z</time></trkpt><trkpt lat="-25.24563007005539" lon="114.85455470759767"><ele>126.0</ele><time>2026-04-17T02:58:29.996Z</time></trkpt><trkpt lat="-25.245768526759047" lon="114.85483896013002"><ele>126.0</ele><time>2026-04-17T02:58:30.996Z</time></trkpt><trkpt lat="-25.245908431260847" lon="114.85512290702407"><ele>126.0</ele><time>2026-04-17T02:58:31.996Z</time></trkpt><trkpt lat="-25.246050281283583" lon="114.85540227816021"><ele>126.0</ele><time>2026-04-17T02:58:32.996Z</time></trkpt><trkpt lat="-25.246190093066204" lon="114.85568401870945"><ele>125.5</ele><time>2026-04-17T02:58:33.996Z</time></trkpt><trkpt lat="-25.246330220631545" lon="114.85596825861634"><ele>125.0</ele><time>2026-04-17T02:58:34.996Z</time></trkpt><trkpt lat="-25.246472315521416" lon="114.856254615679"><ele>124.5</ele><time>2026-04-17T02:58:35.996Z</time></trkpt><trkpt lat="-25.246607682948607" lon="114.8565394707305"><ele>124.0</ele><time>2026-04-17T02:58:36.996Z</time></trkpt><trkpt lat="-25.24674762812462" lon="114.85683165605326"><ele>124.0</ele><time>2026-04-17T02:58:37.995Z</time></trkpt><trkpt lat="-25.24688439196421" lon="114.85712041586444"><ele>124.0</ele><time>2026-04-17T02:58:38.995Z</time></trkpt><trkpt lat="-25.24702461494077" lon="114.85741365058158"><ele>123.5</ele><time>2026-04-17T02:58:39.995Z</time></trkpt><trkpt lat="-25.247163396285487" lon="114.85770653136761"><ele>123.0</ele><time>2026-04-17T02:58:40.995Z</time></trkpt><trkpt lat="-25.247302297971604" lon="114.85799892785266"><ele>123.0</ele><time>2026-04-17T02:58:41.995Z</time></trkpt><trkpt lat="-25.247441281006353" lon="114.8582916015873"><ele>123.0</ele><time>2026-04-17T02:58:42.995Z</time></trkpt><trkpt lat="-25.247582941094684" lon="114.85858785289201"><ele>122.5</ele><time>2026-04-17T02:58:43.995Z</time></trkpt><trkpt lat="-25.247729026913923" lon="114.85887974894516"><ele>122.0</ele><time>2026-04-17T02:58:44.995Z</time></trkpt><trkpt lat="-25.247875421299916" lon="114.85917157754892"><ele>122.0</ele><time>2026-04-17T02:58:45.995Z</time></trkpt><trkpt lat="-25.248019417546494" lon="114.85946211268649"><ele>122.0</ele><time>2026-04-17T02:58:46.995Z</time></trkpt><trkpt lat="-25.248162456059784" lon="114.85975681156026"><ele>123.0</ele><time>2026-04-17T02:58:47.995Z</time></trkpt><trkpt lat="-25.248304124698937" lon="114.86005373114261"><ele>124.0</ele><time>2026-04-17T02:58:48.995Z</time></trkpt><trkpt lat="-25.248444881557397" lon="114.86034981855177"><ele>124.0</ele><time>2026-04-17T02:58:49.995Z</time></trkpt><trkpt lat="-25.24858566440416" lon="114.86064565053117"><ele>124.0</ele><time>2026-04-17T02:58:50.995Z</time></trkpt><trkpt lat="-25.248728240105063" lon="114.86093925286043"><ele>124.0</ele><time>2026-04-17T02:58:51.995Z</time></trkpt><trkpt lat="-25.248874829122634" lon="114.86123309414192"><ele>124.0</ele><time>2026-04-17T02:58:52.995Z</time></trkpt><trkpt lat="-25.249022275524965" lon="114.86152795697181"><ele>123.5</ele><time>2026-04-17T02:58:53.994Z</time></trkpt><trkpt lat="-25.249167979085147" lon="114.86182055692169"><ele>123.0</ele><time>2026-04-17T02:58:54.994Z</time></trkpt><trkpt lat="-25.249312959488385" lon="114.86211663442545"><ele>123.0</ele><time>2026-04-17T02:58:55.994Z</time></trkpt><trkpt lat="-25.24944995772033" lon="114.86241303986249"><ele>123.0</ele><time>2026-04-17T02:58:56.994Z</time></trkpt><trkpt lat="-25.249579420837982" lon="114.86270959060367"><ele>123.0</ele><time>2026-04-17T02:58:57.994Z</time></trkpt><trkpt lat="-25.249701860204826" lon="114.86301039653662"><ele>123.0</ele><time>2026-04-17T02:58:58.994Z</time></trkpt><trkpt lat="-25.249812340983276" lon="114.86330810750856"><ele>123.0</ele><time>2026-04-17T02:58:59.994Z</time></trkpt><trkpt lat="-25.249912650986495" lon="114.86360864791666"><ele>123.0</ele><time>2026-04-17T02:59:00.994Z</time></trkpt><trkpt lat="-25.25000589123247" lon="114.86391532654342"><ele>123.0</ele><time>2026-04-17T02:59:01.994Z</time></trkpt><trkpt lat="-25.250092955210818" lon="114.86422839862934"><ele>123.0</ele><time>2026-04-17T02:59:02.994Z</time></trkpt><trkpt lat="-25.250181714322117" lon="114.86454177182996"><ele>123.0</ele><time>2026-04-17T02:59:03.994Z</time></trkpt><trkpt lat="-25.25027050127227" lon="114.86485198328215"><ele>123.0</ele><time>2026-04-17T02:59:04.994Z</time></trkpt><trkpt lat="-25.250358184729805" lon="114.86516233700515"><ele>122.5</ele><time>2026-04-17T02:59:05.994Z</time></trkpt><trkpt lat="-25.250448348719196" lon="114.86547223645618"><ele>122.0</ele><time>2026-04-17T02:59:06.994Z</time></trkpt><trkpt lat="-25.250536922713025" lon="114.86577990241027"><ele>123.0</ele><time>2026-04-17T02:59:07.994Z</time></trkpt><trkpt lat="-25.250625476336044" lon="114.86608765437842"><ele>124.0</ele><time>2026-04-17T02:59:08.994Z</time></trkpt><trkpt lat="-25.250715429419675" lon="114.8663938176936"><ele>124.0</ele><time>2026-04-17T02:59:09.994Z</time></trkpt><trkpt lat="-25.250803698667447" lon="114.86669798878259"><ele>124.0</ele><time>2026-04-17T02:59:10.994Z</time></trkpt><trkpt lat="-25.250889320660285" lon="114.86699862393529"><ele>124.0</ele><time>2026-04-17T02:59:11.994Z</time></trkpt><trkpt lat="-25.250980516215094" lon="114.86730984413776"><ele>124.0</ele><time>2026-04-17T02:59:12.994Z</time></trkpt><trkpt lat="-25.251068564892787" lon="114.86761797184542"><ele>124.0</ele><time>2026-04-17T02:59:13.994Z</time></trkpt><trkpt lat="-25.251155024098534" lon="114.86792661422233"><ele>124.0</ele><time>2026-04-17T02:59:14.994Z</time></trkpt><trkpt lat="-25.251242408874464" lon="114.86823639595768"><ele>122.5</ele><time>2026-04-17T02:59:15.994Z</time></trkpt><trkpt lat="-25.25132923344477" lon="114.8685451367779"><ele>121.0</ele><time>2026-04-17T02:59:16.994Z</time></trkpt><trkpt lat="-25.251420190188757" lon="114.86885843787437"><ele>122.0</ele><time>2026-04-17T02:59:17.994Z</time></trkpt><trkpt lat="-25.251509004144697" lon="114.86916817917204"><ele>123.0</ele><time>2026-04-17T02:59:18.994Z</time></trkpt><trkpt lat="-25.251599236656826" lon="114.86948059541163"><ele>123.0</ele><time>2026-04-17T02:59:19.994Z</time></trkpt><trkpt lat="-25.251689177682188" lon="114.86979591256967"><ele>123.0</ele><time>2026-04-17T02:59:20.994Z</time></trkpt><trkpt lat="-25.251776162487715" lon="114.87010854618235"><ele>122.5</ele><time>2026-04-17T02:59:21.994Z</time></trkpt><trkpt lat="-25.251863851214956" lon="114.87041696469889"><ele>122.0</ele><time>2026-04-17T02:59:22.994Z</time></trkpt><trkpt lat="-25.251956956799745" lon="114.87071795197977"><ele>122.0</ele><time>2026-04-17T02:59:23.994Z</time></trkpt><trkpt lat="-25.25204969182948" lon="114.8710130487955"><ele>122.0</ele><time>2026-04-17T02:59:24.994Z</time></trkpt><trkpt lat="-25.252146317205476" lon="114.87131121321312"><ele>122.0</ele><time>2026-04-17T02:59:25.994Z</time></trkpt><trkpt lat="-25.252241094331428" lon="114.87160681757747"><ele>122.0</ele><time>2026-04-17T02:59:26.994Z</time></trkpt><trkpt lat="-25.252337205805524" lon="114.87189749804863"><ele>122.0</ele><time>2026-04-17T02:59:27.994Z</time></trkpt><trkpt lat="-25.252438532761996" lon="114.8721836476924"><ele>122.0</ele><time>2026-04-17T02:59:28.994Z</time></trkpt><trkpt lat="-25.252556082017158" lon="114.87246529318853"><ele>121.5</ele><time>2026-04-17T02:59:29.994Z</time></trkpt><trkpt lat="-25.25269104068948" lon="114.87274018263705"><ele>121.0</ele><time>2026-04-17T02:59:30.994Z</time></trkpt><trkpt lat="-25.252841640676856" lon="114.87300844291266"><ele>121.0</ele><time>2026-04-17T02:59:31.994Z</time></trkpt><trkpt lat="-25.25299999422568" lon="114.87327026967512"><ele>121.0</ele><time>2026-04-17T02:59:32.994Z</time></trkpt><trkpt lat="-25.253159608822497" lon="114.8735367257546"><ele>122.0</ele><time>2026-04-17T02:59:33.994Z</time></trkpt><trkpt lat="-25.253315229741762" lon="114.87381039473078"><ele>123.0</ele><time>2026-04-17T02:59:34.994Z</time></trkpt><trkpt lat="-25.25346866854944" lon="114.87408436526665"><ele>123.0</ele><time>2026-04-17T02:59:35.994Z</time></trkpt><trkpt lat="-25.253624405962206" lon="114.8743578189309"><ele>123.0</ele><time>2026-04-17T02:59:36.994Z</time></trkpt><trkpt lat="-25.253781332632006" lon="114.87463093055001"><ele>123.0</ele><time>2026-04-17T02:59:37.994Z</time></trkpt><trkpt lat="-25.25393534097888" lon="114.87490442302912"><ele>123.0</ele><time>2026-04-17T02:59:38.994Z</time></trkpt><trkpt lat="-25.25409022202922" lon="114.87517992995299"><ele>123.5</ele><time>2026-04-17T02:59:39.994Z</time></trkpt><trkpt lat="-25.25424605095459" lon="114.8754581834344"><ele>124.0</ele><time>2026-04-17T02:59:40.994Z</time></trkpt><trkpt lat="-25.254404814975445" lon="114.87573735813183"><ele>123.0</ele><time>2026-04-17T02:59:41.994Z</time></trkpt><trkpt lat="-25.2545649424257" lon="114.87601700660457"><ele>122.0</ele><time>2026-04-17T02:59:42.994Z</time></trkpt><trkpt lat="-25.25472520825727" lon="114.87630066845935"><ele>122.0</ele><time>2026-04-17T02:59:43.994Z</time></trkpt><trkpt lat="-25.25488507666618" lon="114.87658474791871"><ele>122.0</ele><time>2026-04-17T02:59:44.994Z</time></trkpt><trkpt lat="-25.25504608197556" lon="114.87687200348897"><ele>122.5</ele><time>2026-04-17T02:59:45.994Z</time></trkpt><trkpt lat="-25.25520885531085" lon="114.87715748180167"><ele>123.0</ele><time>2026-04-17T02:59:46.994Z</time></trkpt><trkpt lat="-25.255370437148915" lon="114.87744057873194"><ele>123.5</ele><time>2026-04-17T02:59:47.994Z</time></trkpt><trkpt lat="-25.25552746340057" lon="114.8777225051585"><ele>124.0</ele><time>2026-04-17T02:59:48.994Z</time></trkpt><trkpt lat="-25.255682399102167" lon="114.87800999891232"><ele>124.0</ele><time>2026-04-17T02:59:49.994Z</time></trkpt><trkpt lat="-25.255838048685" lon="114.87828994208816"><ele>124.0</ele><time>2026-04-17T02:59:50.994Z</time></trkpt><trkpt lat="-25.255994291083837" lon="114.87856678496253"><ele>124.5</ele><time>2026-04-17T02:59:51.994Z</time></trkpt><trkpt lat="-25.256152728838664" lon="114.87884731177785"><ele>125.0</ele><time>2026-04-17T02:59:52.994Z</time></trkpt><trkpt lat="-25.25630940673586" lon="114.87912863180115"><ele>124.5</ele><time>2026-04-17T02:59:53.994Z</time></trkpt><trkpt lat="-25.256467104978267" lon="114.87940992616466"><ele>124.0</ele><time>2026-04-17T02:59:54.994Z</time></trkpt><trkpt lat="-25.256627175318496" lon="114.8796933982548"><ele>124.0</ele><time>2026-04-17T02:59:55.994Z</time></trkpt><trkpt lat="-25.25678873760438" lon="114.87997901480566"><ele>124.0</ele><time>2026-04-17T02:59:56.994Z</time></trkpt><trkpt lat="-25.256945781659745" lon="114.88025642929682"><ele>124.0</ele><time>2026-04-17T02:59:57.994Z</time></trkpt><trkpt lat="-25.257106958688354" lon="114.88053230795087"><ele>124.0</ele><time>2026-04-17T02:59:58.994Z</time></trkpt><trkpt lat="-25.257268731995236" lon="114.88081619729714"><ele>125.0</ele><time>2026-04-17T02:59:59.994Z</time></trkpt><trkpt lat="-25.257429990331072" lon="114.88109687938544"><ele>126.0</ele><time>2026-04-17T03:00:00.994Z</time></trkpt><trkpt lat="-25.257584821730553" lon="114.88137659631387"><ele>126.0</ele><time>2026-04-17T03:00:01.994Z</time></trkpt><trkpt lat="-25.257735631269238" lon="114.88165466979805"><ele>126.0</ele><time>2026-04-17T03:00:02.994Z</time></trkpt><trkpt lat="-25.25789050212437" lon="114.88193495292381"><ele>125.5</ele><time>2026-04-17T03:00:03.994Z</time></trkpt><trkpt lat="-25.25804635355315" lon="114.88221167088416"><ele>125.0</ele><time>2026-04-17T03:00:04.994Z</time></trkpt><trkpt lat="-25.25820449310861" lon="114.88248840117289"><ele>125.5</ele><time>2026-04-17T03:00:05.994Z</time></trkpt><trkpt lat="-25.258364135141257" lon="114.88276420246599"><ele>126.0</ele><time>2026-04-17T03:00:06.994Z</time></trkpt><trkpt lat="-25.258520678064155" lon="114.88303760514806"><ele>126.0</ele><time>2026-04-17T03:00:07.994Z</time></trkpt><trkpt lat="-25.25867999823643" lon="114.88331461138907"><ele>126.0</ele><time>2026-04-17T03:00:08.994Z</time></trkpt><trkpt lat="-25.258839316032713" lon="114.88358928365182"><ele>125.5</ele><time>2026-04-17T03:00:09.994Z</time></trkpt><trkpt lat="-25.258997136239667" lon="114.88386567232799"><ele>125.0</ele><time>2026-04-17T03:00:10.994Z</time></trkpt><trkpt lat="-25.259154357244984" lon="114.88414137056667"><ele>125.0</ele><time>2026-04-17T03:00:11.995Z</time></trkpt><trkpt lat="-25.259312499910973" lon="114.88441687280945"><ele>125.0</ele><time>2026-04-17T03:00:12.995Z</time></trkpt><trkpt lat="-25.2594717329079" lon="114.88469284112533"><ele>125.0</ele><time>2026-04-17T03:00:13.995Z</time></trkpt><trkpt lat="-25.25963141694963" lon="114.88497017145791"><ele>125.0</ele><time>2026-04-17T03:00:14.995Z</time></trkpt><trkpt lat="-25.259792565856877" lon="114.88525235957837"><ele>126.0</ele><time>2026-04-17T03:00:15.996Z</time></trkpt><trkpt lat="-25.259950003999357" lon="114.8855300394478"><ele>127.0</ele><time>2026-04-17T03:00:16.996Z</time></trkpt><trkpt lat="-25.26010837864878" lon="114.88580720875855"><ele>126.0</ele><time>2026-04-17T03:00:17.996Z</time></trkpt><trkpt lat="-25.260270027393137" lon="114.88609016221876"><ele>125.0</ele><time>2026-04-17T03:00:18.996Z</time></trkpt><trkpt lat="-25.26043058782479" lon="114.88637277187844"><ele>125.0</ele><time>2026-04-17T03:00:19.997Z</time></trkpt><trkpt lat="-25.260590242271533" lon="114.88665824504359"><ele>125.0</ele><time>2026-04-17T03:00:20.997Z</time></trkpt><trkpt lat="-25.260750211309645" lon="114.88694376136533"><ele>124.5</ele><time>2026-04-17T03:00:21.997Z</time></trkpt><trkpt lat="-25.2609105719998" lon="114.88722665628441"><ele>124.0</ele><time>2026-04-17T03:00:22.997Z</time></trkpt><trkpt lat="-25.261067205283588" lon="114.8875055016042"><ele>124.0</ele><time>2026-04-17T03:00:23.997Z</time></trkpt><trkpt lat="-25.261225558184435" lon="114.88778631801954"><ele>124.0</ele><time>2026-04-17T03:00:24.998Z</time></trkpt><trkpt lat="-25.261385379938464" lon="114.88806475067477"><ele>124.5</ele><time>2026-04-17T03:00:25.998Z</time></trkpt><trkpt lat="-25.261544296047308" lon="114.88834015255243"><ele>125.0</ele><time>2026-04-17T03:00:26.998Z</time></trkpt><trkpt lat="-25.261705179018815" lon="114.8886166372129"><ele>125.0</ele><time>2026-04-17T03:00:27.998Z</time></trkpt><trkpt lat="-25.261866340314445" lon="114.88889392702025"><ele>125.0</ele><time>2026-04-17T03:00:28.998Z</time></trkpt><trkpt lat="-25.262021349619495" lon="114.88916908257931"><ele>126.0</ele><time>2026-04-17T03:00:29.998Z</time></trkpt><trkpt lat="-25.262176232088873" lon="114.88944210187348"><ele>127.0</ele><time>2026-04-17T03:00:30.998Z</time></trkpt><trkpt lat="-25.26233026174664" lon="114.88971471414253"><ele>128.0</ele><time>2026-04-17T03:00:31.998Z</time></trkpt><trkpt lat="-25.2624860175321" lon="114.88998796755189"><ele>129.0</ele><time>2026-04-17T03:00:32.999Z</time></trkpt><trkpt lat="-25.262637709472813" lon="114.89026163164948"><ele>130.0</ele><time>2026-04-17T03:00:33.999Z</time></trkpt><trkpt lat="-25.26278630647042" lon="114.89053879632104"><ele>131.0</ele><time>2026-04-17T03:00:34.999Z</time></trkpt><trkpt lat="-25.262928890948086" lon="114.89081819596673"><ele>131.5</ele><time>2026-04-17T03:00:35.999Z</time></trkpt><trkpt lat="-25.263068039095554" lon="114.89110746637812"><ele>132.0</ele><time>2026-04-17T03:00:36.999Z</time></trkpt><trkpt lat="-25.263198549531413" lon="114.89139725086534"><ele>132.0</ele><time>2026-04-17T03:00:37.999Z</time></trkpt><trkpt lat="-25.26333030048111" lon="114.89169100174384"><ele>132.0</ele><time>2026-04-17T03:00:38.999Z</time></trkpt><trkpt lat="-25.263457840546973" lon="114.89198908418389"><ele>132.5</ele><time>2026-04-17T03:00:39.999Z</time></trkpt><trkpt lat="-25.263583186671067" lon="114.89228903740891"><ele>133.0</ele><time>2026-04-17T03:00:40.999Z</time></trkpt><trkpt lat="-25.263704856523738" lon="114.89258660037906"><ele>133.0</ele><time>2026-04-17T03:00:41.999Z</time></trkpt><trkpt lat="-25.263827459101822" lon="114.89288369043494"><ele>133.0</ele><time>2026-04-17T03:00:42.999Z</time></trkpt><trkpt lat="-25.26395406395679" lon="114.89317736569068"><ele>131.0</ele><time>2026-04-17T03:00:43.999Z</time></trkpt><trkpt lat="-25.2640837793266" lon="114.89346669537937"><ele>129.0</ele><time>2026-04-17T03:00:44.999Z</time></trkpt><trkpt lat="-25.26421810791829" lon="114.89376266963835"><ele>129.0</ele><time>2026-04-17T03:00:45.999Z</time></trkpt><trkpt lat="-25.26435175122122" lon="114.89405550704255"><ele>129.0</ele><time>2026-04-17T03:00:46.999Z</time></trkpt><trkpt lat="-25.26448587332076" lon="114.89434941181463"><ele>128.0</ele><time>2026-04-17T03:00:47.999Z</time></trkpt><trkpt lat="-25.26461934408175" lon="114.89464576044882"><ele>127.0</ele><time>2026-04-17T03:00:48.999Z</time></trkpt><trkpt lat="-25.26475150189606" lon="114.89494362143914"><ele>127.0</ele><time>2026-04-17T03:00:50Z</time></trkpt><trkpt lat="-25.264878983025163" lon="114.89523561472615"><ele>127.0</ele><time>2026-04-17T03:00:51Z</time></trkpt><trkpt lat="-25.265010323446635" lon="114.8955320747143"><ele>127.0</ele><time>2026-04-17T03:00:52Z</time></trkpt><trkpt lat="-25.265137667822938" lon="114.89582697577669"><ele>127.0</ele><time>2026-04-17T03:00:53Z</time></trkpt><trkpt lat="-25.265265553092867" lon="114.89611787165695"><ele>127.5</ele><time>2026-04-17T03:00:54Z</time></trkpt><trkpt lat="-25.265390279951873" lon="114.89639724675993"><ele>128.0</ele><time>2026-04-17T03:00:55Z</time></trkpt><trkpt lat="-25.26551358901952" lon="114.89666974614819"><ele>127.0</ele><time>2026-04-17T03:00:56Z</time></trkpt><trkpt lat="-25.26562952550355" lon="114.89693764907254"><ele>126.0</ele><time>2026-04-17T03:00:57Z</time></trkpt><trkpt lat="-25.265744672051603" lon="114.89721822699677"><ele>126.0</ele><time>2026-04-17T03:00:58Z</time></trkpt><trkpt lat="-25.265862967158355" lon="114.89750359186817"><ele>126.0</ele><time>2026-04-17T03:00:59Z</time></trkpt><trkpt lat="-25.265983464868597" lon="114.89778754434104"><ele>126.0</ele><time>2026-04-17T03:01:00Z</time></trkpt><trkpt lat="-25.266102964117973" lon="114.89806982949504"><ele>126.0</ele><time>2026-04-17T03:01:01Z</time></trkpt><trkpt lat="-25.26622453085842" lon="114.89835169119318"><ele>126.0</ele><time>2026-04-17T03:01:02Z</time></trkpt><trkpt lat="-25.26634764031864" lon="114.89863536934534"><ele>126.0</ele><time>2026-04-17T03:01:03Z</time></trkpt><trkpt lat="-25.266472762899586" lon="114.89892022085492"><ele>126.5</ele><time>2026-04-17T03:01:04Z</time></trkpt><trkpt lat="-25.266596384685506" lon="114.89920214130152"><ele>127.0</ele><time>2026-04-17T03:01:05Z</time></trkpt><trkpt lat="-25.266724566526193" lon="114.89948865686064"><ele>128.0</ele><time>2026-04-17T03:01:06Z</time></trkpt><trkpt lat="-25.266855453351507" lon="114.89977660220521"><ele>129.0</ele><time>2026-04-17T03:01:07Z</time></trkpt><trkpt lat="-25.26698659980099" lon="114.90006386385681"><ele>131.0</ele><time>2026-04-17T03:01:08Z</time></trkpt><trkpt lat="-25.26711817729806" lon="114.9003528465686"><ele>133.0</ele><time>2026-04-17T03:01:09Z</time></trkpt><trkpt lat="-25.26724952241128" lon="114.90064584523893"><ele>133.0</ele><time>2026-04-17T03:01:10Z</time></trkpt><trkpt lat="-25.267379342144586" lon="114.90093816906818"><ele>133.0</ele><time>2026-04-17T03:01:11Z</time></trkpt><trkpt lat="-25.267506984490577" lon="114.90123027397034"><ele>133.0</ele><time>2026-04-17T03:01:12Z</time></trkpt><trkpt lat="-25.267634516752864" lon="114.90152239152016"><ele>133.0</ele><time>2026-04-17T03:01:13Z</time></trkpt><trkpt lat="-25.267763023335863" lon="114.90181689323717"><ele>133.5</ele><time>2026-04-17T03:01:14Z</time></trkpt><trkpt lat="-25.267892376067724" lon="114.90211080488116"><ele>134.0</ele><time>2026-04-17T03:01:15Z</time></trkpt><trkpt lat="-25.268020151802425" lon="114.90240239777906"><ele>133.0</ele><time>2026-04-17T03:01:16Z</time></trkpt><trkpt lat="-25.268144705682705" lon="114.90268890134001"><ele>132.0</ele><time>2026-04-17T03:01:17Z</time></trkpt><trkpt lat="-25.268270330591438" lon="114.90297660315775"><ele>132.0</ele><time>2026-04-17T03:01:18Z</time></trkpt><trkpt lat="-25.268389961082224" lon="114.90326296349426"><ele>132.0</ele><time>2026-04-17T03:01:19Z</time></trkpt><trkpt lat="-25.268499904919228" lon="114.90355562090345"><ele>133.0</ele><time>2026-04-17T03:01:20Z</time></trkpt><trkpt lat="-25.268602248249" lon="114.90385700890987"><ele>134.0</ele><time>2026-04-17T03:01:21Z</time></trkpt><trkpt lat="-25.26869119534887" lon="114.90416058133282"><ele>134.5</ele><time>2026-04-17T03:01:22Z</time></trkpt><trkpt lat="-25.268776481182314" lon="114.90446733095253"><ele>135.0</ele><time>2026-04-17T03:01:23Z</time></trkpt><trkpt lat="-25.268860308438878" lon="114.90478784294154"><ele>132.5</ele><time>2026-04-17T03:01:24Z</time></trkpt><trkpt lat="-25.26894785875598" lon="114.90510842611283"><ele>130.0</ele><time>2026-04-17T03:01:25Z</time></trkpt><trkpt lat="-25.269042448708355" lon="114.90542052246364"><ele>130.0</ele><time>2026-04-17T03:01:26Z</time></trkpt><trkpt lat="-25.269134120723532" lon="114.90572903537971"><ele>130.0</ele><time>2026-04-17T03:01:27Z</time></trkpt><trkpt lat="-25.26922315824187" lon="114.90604563370681"><ele>130.0</ele><time>2026-04-17T03:01:28Z</time></trkpt><trkpt lat="-25.269311587102358" lon="114.9063647810103"><ele>130.0</ele><time>2026-04-17T03:01:29Z</time></trkpt><trkpt lat="-25.269400630524174" lon="114.90668449054272"><ele>131.0</ele><time>2026-04-17T03:01:30Z</time></trkpt><trkpt lat="-25.269491631634704" lon="114.90700486680251"><ele>132.0</ele><time>2026-04-17T03:01:31Z</time></trkpt><trkpt lat="-25.26958286909645" lon="114.90732486778873"><ele>133.5</ele><time>2026-04-17T03:01:32Z</time></trkpt><trkpt lat="-25.269676957739403" lon="114.90764635385457"><ele>135.0</ele><time>2026-04-17T03:01:33Z</time></trkpt><trkpt lat="-25.26977242309315" lon="114.90796631904841"><ele>133.5</ele><time>2026-04-17T03:01:34Z</time></trkpt><trkpt lat="-25.26986777243618" lon="114.90827904733234"><ele>132.0</ele><time>2026-04-17T03:01:35Z</time></trkpt><trkpt lat="-25.269961808190512" lon="114.90859558135791"><ele>131.5</ele><time>2026-04-17T03:01:36Z</time></trkpt><trkpt lat="-25.270052030111923" lon="114.9089071231372"><ele>131.0</ele><time>2026-04-17T03:01:37Z</time></trkpt><trkpt lat="-25.27014113849833" lon="114.909220830758"><ele>130.5</ele><time>2026-04-17T03:01:38Z</time></trkpt><trkpt lat="-25.270231705946806" lon="114.9095383617409"><ele>130.0</ele><time>2026-04-17T03:01:39Z</time></trkpt><trkpt lat="-25.270322417188233" lon="114.90985300037626"><ele>132.0</ele><time>2026-04-17T03:01:40Z</time></trkpt><trkpt lat="-25.27041284269829" lon="114.91016589019513"><ele>134.0</ele><time>2026-04-17T03:01:41Z</time></trkpt><trkpt lat="-25.270502310539282" lon="114.9104798056006"><ele>134.0</ele><time>2026-04-17T03:01:42Z</time></trkpt><trkpt lat="-25.270591920304785" lon="114.91079263049792"><ele>134.0</ele><time>2026-04-17T03:01:43Z</time></trkpt><trkpt lat="-25.270681794597387" lon="114.91110662036006"><ele>133.0</ele><time>2026-04-17T03:01:44Z</time></trkpt><trkpt lat="-25.270770724711163" lon="114.91141838452307"><ele>132.0</ele><time>2026-04-17T03:01:45Z</time></trkpt><trkpt lat="-25.270858091854514" lon="114.91172853898811"><ele>132.0</ele><time>2026-04-17T03:01:46Z</time></trkpt><trkpt lat="-25.27094711752183" lon="114.9120430945121"><ele>132.0</ele><time>2026-04-17T03:01:47Z</time></trkpt><trkpt lat="-25.271036079266043" lon="114.91235355271107"><ele>132.0</ele><time>2026-04-17T03:01:48Z</time></trkpt><trkpt lat="-25.271129615997626" lon="114.91266885277655"><ele>132.0</ele><time>2026-04-17T03:01:49Z</time></trkpt><trkpt lat="-25.271223330357273" lon="114.91298305123544"><ele>132.0</ele><time>2026-04-17T03:01:50Z</time></trkpt><trkpt lat="-25.27131609653023" lon="114.91329410963003"><ele>132.0</ele><time>2026-04-17T03:01:51Z</time></trkpt><trkpt lat="-25.27141037842861" lon="114.91360674902761"><ele>132.5</ele><time>2026-04-17T03:01:52Z</time></trkpt><trkpt lat="-25.27149622047021" lon="114.91391624205552"><ele>133.0</ele><time>2026-04-17T03:01:53Z</time></trkpt><trkpt lat="-25.27158135866449" lon="114.91422650390375"><ele>133.0</ele><time>2026-04-17T03:01:54Z</time></trkpt><trkpt lat="-25.27166087828594" lon="114.91453619954268"><ele>133.0</ele><time>2026-04-17T03:01:55Z</time></trkpt><trkpt lat="-25.271729551232433" lon="114.91484372236856"><ele>133.0</ele><time>2026-04-17T03:01:56Z</time></trkpt><trkpt lat="-25.271784343484264" lon="114.91515522327657"><ele>133.0</ele><time>2026-04-17T03:01:57Z</time></trkpt><trkpt lat="-25.27182553041215" lon="114.91547795359776"><ele>133.0</ele><time>2026-04-17T03:01:58Z</time></trkpt><trkpt lat="-25.271860088402427" lon="114.91580416131559"><ele>133.0</ele><time>2026-04-17T03:01:59Z</time></trkpt><trkpt lat="-25.27188778662987" lon="114.91614115383331"><ele>132.5</ele><time>2026-04-17T03:02:00Z</time></trkpt><trkpt lat="-25.271905056160147" lon="114.91648110183095"><ele>132.0</ele><time>2026-04-17T03:02:01Z</time></trkpt><trkpt lat="-25.27190926092534" lon="114.9168157593813"><ele>132.0</ele><time>2026-04-17T03:02:02Z</time></trkpt><trkpt lat="-25.27190506543561" lon="114.91715456003448"><ele>132.0</ele><time>2026-04-17T03:02:03Z</time></trkpt><trkpt lat="-25.271895951564368" lon="114.91749224150536"><ele>132.0</ele><time>2026-04-17T03:02:04Z</time></trkpt><trkpt lat="-25.2718835417185" lon="114.91782720918435"><ele>132.0</ele><time>2026-04-17T03:02:05Z</time></trkpt><trkpt lat="-25.271875209165497" lon="114.91816600479689"><ele>133.5</ele><time>2026-04-17T03:02:06Z</time></trkpt><trkpt lat="-25.27187279184596" lon="114.91850478892124"><ele>135.0</ele><time>2026-04-17T03:02:07Z</time></trkpt><trkpt lat="-25.271869478324543" lon="114.91884660861592"><ele>135.0</ele><time>2026-04-17T03:02:08Z</time></trkpt><trkpt lat="-25.271865231512606" lon="114.91918545402295"><ele>135.0</ele><time>2026-04-17T03:02:09Z</time></trkpt><trkpt lat="-25.271860896957143" lon="114.91952894678747"><ele>134.5</ele><time>2026-04-17T03:02:10Z</time></trkpt><trkpt lat="-25.271856705238093" lon="114.91987229970675"><ele>134.0</ele><time>2026-04-17T03:02:11Z</time></trkpt><trkpt lat="-25.271848614056367" lon="114.92021508190369"><ele>134.0</ele><time>2026-04-17T03:02:12Z</time></trkpt><trkpt lat="-25.27184326600943" lon="114.92056210023746"><ele>134.0</ele><time>2026-04-17T03:02:13Z</time></trkpt><trkpt lat="-25.2718413418466" lon="114.92090828981388"><ele>134.0</ele><time>2026-04-17T03:02:14Z</time></trkpt><trkpt lat="-25.271839627970582" lon="114.92125022824587"><ele>134.0</ele><time>2026-04-17T03:02:15Z</time></trkpt><trkpt lat="-25.27183592272947" lon="114.92159137527229"><ele>134.0</ele><time>2026-04-17T03:02:16Z</time></trkpt><trkpt lat="-25.271832254229142" lon="114.921931965661"><ele>134.0</ele><time>2026-04-17T03:02:17Z</time></trkpt><trkpt lat="-25.271827677333462" lon="114.92227765978338"><ele>135.0</ele><time>2026-04-17T03:02:18Z</time></trkpt><trkpt lat="-25.271825753163977" lon="114.92262069403566"><ele>136.0</ele><time>2026-04-17T03:02:19Z</time></trkpt><trkpt lat="-25.27182477831019" lon="114.92296406300935"><ele>136.0</ele><time>2026-04-17T03:02:20Z</time></trkpt><trkpt lat="-25.271822007803465" lon="114.92330847890014"><ele>136.0</ele><time>2026-04-17T03:02:21Z</time></trkpt><trkpt lat="-25.271817684526027" lon="114.92365011403093"><ele>136.0</ele><time>2026-04-17T03:02:22Z</time></trkpt><trkpt lat="-25.271812557153808" lon="114.92398821268544"><ele>136.0</ele><time>2026-04-17T03:02:23Z</time></trkpt><trkpt lat="-25.271810741694328" lon="114.92432864593988"><ele>136.0</ele><time>2026-04-17T03:02:24Z</time></trkpt><trkpt lat="-25.27181068678058" lon="114.92466590025832"><ele>136.0</ele><time>2026-04-17T03:02:25Z</time></trkpt><trkpt lat="-25.271813339758687" lon="114.92499817034263"><ele>136.0</ele><time>2026-04-17T03:02:26Z</time></trkpt><trkpt lat="-25.271815347368868" lon="114.92532582685938"><ele>136.0</ele><time>2026-04-17T03:02:27Z</time></trkpt><trkpt lat="-25.27181330317144" lon="114.9256567718449"><ele>136.5</ele><time>2026-04-17T03:02:28Z</time></trkpt><trkpt lat="-25.271808218376474" lon="114.92598096931783"><ele>137.0</ele><time>2026-04-17T03:02:29Z</time></trkpt><trkpt lat="-25.271802013747266" lon="114.92630660920543"><ele>137.0</ele><time>2026-04-17T03:02:30Z</time></trkpt><trkpt lat="-25.271794121620793" lon="114.9266323975593"><ele>137.0</ele><time>2026-04-17T03:02:31Z</time></trkpt><trkpt lat="-25.2717876828542" lon="114.92696680042448"><ele>137.5</ele><time>2026-04-17T03:02:32Z</time></trkpt><trkpt lat="-25.271782903872502" lon="114.92729680062772"><ele>138.0</ele><time>2026-04-17T03:02:33Z</time></trkpt><trkpt lat="-25.271778285549743" lon="114.92762731870319"><ele>138.0</ele><time>2026-04-17T03:02:34Z</time></trkpt><trkpt lat="-25.271775480657656" lon="114.92795698677183"><ele>138.0</ele><time>2026-04-17T03:02:35Z</time></trkpt><trkpt lat="-25.27177603522528" lon="114.92828055173129"><ele>138.5</ele><time>2026-04-17T03:02:36Z</time></trkpt><trkpt lat="-25.271777394542443" lon="114.92860025875238"><ele>139.0</ele><time>2026-04-17T03:02:37Z</time></trkpt><trkpt lat="-25.27177446488487" lon="114.92892456521848"><ele>139.0</ele><time>2026-04-17T03:02:38Z</time></trkpt><trkpt lat="-25.271768962930842" lon="114.92925167966634"><ele>139.0</ele><time>2026-04-17T03:02:39Z</time></trkpt><trkpt lat="-25.27176340549567" lon="114.92957200034387"><ele>139.0</ele><time>2026-04-17T03:02:40Z</time></trkpt><trkpt lat="-25.271758817679956" lon="114.92990876556536"><ele>139.0</ele><time>2026-04-17T03:02:41Z</time></trkpt><trkpt lat="-25.271756590616658" lon="114.93024628903248"><ele>139.5</ele><time>2026-04-17T03:02:42Z</time></trkpt><trkpt lat="-25.271754019309686" lon="114.93057909098849"><ele>140.0</ele><time>2026-04-17T03:02:43Z</time></trkpt><trkpt lat="-25.2717506439289" lon="114.93090984262227"><ele>140.0</ele><time>2026-04-17T03:02:44Z</time></trkpt><trkpt lat="-25.271746826231876" lon="114.93124181060148"><ele>140.0</ele><time>2026-04-17T03:02:45Z</time></trkpt><trkpt lat="-25.271743234313696" lon="114.9315763126956"><ele>139.5</ele><time>2026-04-17T03:02:46Z</time></trkpt><trkpt lat="-25.271740139981695" lon="114.93191477060427"><ele>139.0</ele><time>2026-04-17T03:02:47Z</time></trkpt><trkpt lat="-25.271738727118738" lon="114.93225163531342"><ele>138.5</ele><time>2026-04-17T03:02:48Z</time></trkpt><trkpt lat="-25.271739215448797" lon="114.93258784684441"><ele>138.0</ele><time>2026-04-17T03:02:49Z</time></trkpt><trkpt lat="-25.271736832685853" lon="114.9329320724501"><ele>138.0</ele><time>2026-04-17T03:02:50Z</time></trkpt><trkpt lat="-25.27173438657246" lon="114.93326544526995"><ele>138.0</ele><time>2026-04-17T03:02:51Z</time></trkpt><trkpt lat="-25.27172955483853" lon="114.93359862779984"><ele>138.0</ele><time>2026-04-17T03:02:52Z</time></trkpt><trkpt lat="-25.271722974782694" lon="114.93393185356413"><ele>138.0</ele><time>2026-04-17T03:02:53Z</time></trkpt><trkpt lat="-25.27171428890406" lon="114.93426557928854"><ele>139.0</ele><time>2026-04-17T03:02:54Z</time></trkpt><trkpt lat="-25.271707486319034" lon="114.93459836268997"><ele>140.0</ele><time>2026-04-17T03:02:55Z</time></trkpt><trkpt lat="-25.2717037589287" lon="114.9349295679233"><ele>140.0</ele><time>2026-04-17T03:02:56Z</time></trkpt><trkpt lat="-25.27170111963737" lon="114.93526865046965"><ele>140.0</ele><time>2026-04-17T03:02:57Z</time></trkpt><trkpt lat="-25.271694998425904" lon="114.93560388483004"><ele>139.5</ele><time>2026-04-17T03:02:58Z</time></trkpt><trkpt lat="-25.27168631493016" lon="114.9359417925183"><ele>139.0</ele><time>2026-04-17T03:02:59Z</time></trkpt><trkpt lat="-25.27167957736982" lon="114.93627793987169"><ele>139.0</ele><time>2026-04-17T03:03:00Z</time></trkpt><trkpt lat="-25.27167546302379" lon="114.93661598983559"><ele>139.0</ele><time>2026-04-17T03:03:01Z</time></trkpt><trkpt lat="-25.271672141516813" lon="114.93695167418383"><ele>139.0</ele><time>2026-04-17T03:03:02Z</time></trkpt><trkpt lat="-25.27166867284726" lon="114.93728690472452"><ele>139.0</ele><time>2026-04-17T03:03:03Z</time></trkpt><trkpt lat="-25.2716635057259" lon="114.93762409031034"><ele>139.5</ele><time>2026-04-17T03:03:04Z</time></trkpt><trkpt lat="-25.271657665328394" lon="114.9379605706939"><ele>140.0</ele><time>2026-04-17T03:03:05Z</time></trkpt><trkpt lat="-25.271649921721313" lon="114.93829396594414"><ele>140.5</ele><time>2026-04-17T03:03:06Z</time></trkpt><trkpt lat="-25.2716424705924" lon="114.938633012759"><ele>141.0</ele><time>2026-04-17T03:03:07Z</time></trkpt><trkpt lat="-25.271637448761986" lon="114.93896119253156"><ele>141.0</ele><time>2026-04-17T03:03:08Z</time></trkpt><trkpt lat="-25.271633509151627" lon="114.9392736502624"><ele>141.0</ele><time>2026-04-17T03:03:09Z</time></trkpt><trkpt lat="-25.271630335349744" lon="114.93957014963568"><ele>141.0</ele><time>2026-04-17T03:03:10Z</time></trkpt><trkpt lat="-25.2716276248352" lon="114.93987477382416"><ele>141.0</ele><time>2026-04-17T03:03:11Z</time></trkpt><trkpt lat="-25.27162450102715" lon="114.94018960315348"><ele>141.5</ele><time>2026-04-17T03:03:12Z</time></trkpt><trkpt lat="-25.271622336854897" lon="114.94051004126548"><ele>142.0</ele><time>2026-04-17T03:03:13Z</time></trkpt><trkpt lat="-25.271619754726046" lon="114.94083710422497"><ele>142.0</ele><time>2026-04-17T03:03:14Z</time></trkpt><trkpt lat="-25.271617802910786" lon="114.94116384832448"><ele>142.0</ele><time>2026-04-17T03:03:15Z</time></trkpt><trkpt lat="-25.271615902220425" lon="114.94149759134267"><ele>143.5</ele><time>2026-04-17T03:03:16Z</time></trkpt><trkpt lat="-25.271612472547893" lon="114.94182915124797"><ele>145.0</ele><time>2026-04-17T03:03:17Z</time></trkpt><trkpt lat="-25.27160747787294" lon="114.94216428858479"><ele>145.0</ele><time>2026-04-17T03:03:18Z</time></trkpt><trkpt lat="-25.271603020760292" lon="114.94249800515028"><ele>145.0</ele><time>2026-04-17T03:03:19Z</time></trkpt><trkpt lat="-25.271600444401674" lon="114.94282001110844"><ele>145.5</ele><time>2026-04-17T03:03:20Z</time></trkpt><trkpt lat="-25.271596120396993" lon="114.94313426595843"><ele>146.0</ele><time>2026-04-17T03:03:21Z</time></trkpt><trkpt lat="-25.27159525615973" lon="114.94343168559043"><ele>146.5</ele><time>2026-04-17T03:03:22Z</time></trkpt><trkpt lat="-25.271597761443246" lon="114.94373155840711"><ele>147.0</ele><time>2026-04-17T03:03:23Z</time></trkpt><trkpt lat="-25.27160128992819" lon="114.94399376643285"><ele>146.5</ele><time>2026-04-17T03:03:24Z</time></trkpt><trkpt lat="-25.271604699774464" lon="114.94425720183308"><ele>146.0</ele><time>2026-04-17T03:03:25Z</time></trkpt><trkpt lat="-25.2716018904417" lon="114.94452864469488"><ele>146.0</ele><time>2026-04-17T03:03:26Z</time></trkpt><trkpt lat="-25.271591056334312" lon="114.94480331286972"><ele>146.0</ele><time>2026-04-17T03:03:27Z</time></trkpt><trkpt lat="-25.27158234442923" lon="114.9450841115467"><ele>145.5</ele><time>2026-04-17T03:03:28Z</time></trkpt><trkpt lat="-25.27158253077986" lon="114.9453649835659"><ele>145.0</ele><time>2026-04-17T03:03:29Z</time></trkpt><trkpt lat="-25.27158044108152" lon="114.94565687453252"><ele>144.0</ele><time>2026-04-17T03:03:30Z</time></trkpt><trkpt lat="-25.271576201980288" lon="114.94594057913851"><ele>143.0</ele><time>2026-04-17T03:03:31Z</time></trkpt><trkpt lat="-25.271575768704896" lon="114.94621655144233"><ele>143.0</ele><time>2026-04-17T03:03:32Z</time></trkpt><trkpt lat="-25.27157652877869" lon="114.94648695520122"><ele>143.0</ele><time>2026-04-17T03:03:33Z</time></trkpt><trkpt lat="-25.271573968139787" lon="114.94677592958814"><ele>143.5</ele><time>2026-04-17T03:03:34Z</time></trkpt><trkpt lat="-25.27157076634735" lon="114.94706642066151"><ele>144.0</ele><time>2026-04-17T03:03:35Z</time></trkpt><trkpt lat="-25.271567741670392" lon="114.94735938772008"><ele>144.5</ele><time>2026-04-17T03:03:36Z</time></trkpt><trkpt lat="-25.27155912283156" lon="114.94766473172396"><ele>145.0</ele><time>2026-04-17T03:03:37Z</time></trkpt><trkpt lat="-25.27155017311201" lon="114.94796632180012"><ele>145.0</ele><time>2026-04-17T03:03:38Z</time></trkpt><trkpt lat="-25.271541593478123" lon="114.94827250296511"><ele>145.0</ele><time>2026-04-17T03:03:39Z</time></trkpt><trkpt lat="-25.27153520687888" lon="114.94858244068686"><ele>145.0</ele><time>2026-04-17T03:03:40Z</time></trkpt><trkpt lat="-25.27153062359983" lon="114.9488954871426"><ele>145.0</ele><time>2026-04-17T03:03:41Z</time></trkpt><trkpt lat="-25.27152833031374" lon="114.94920904316827"><ele>145.0</ele><time>2026-04-17T03:03:42Z</time></trkpt><trkpt lat="-25.27152184531782" lon="114.94952052297884"><ele>145.0</ele><time>2026-04-17T03:03:43Z</time></trkpt><trkpt lat="-25.271513826452946" lon="114.94983177775721"><ele>145.0</ele><time>2026-04-17T03:03:44Z</time></trkpt><trkpt lat="-25.27151061763957" lon="114.95014471566995"><ele>145.0</ele><time>2026-04-17T03:03:45Z</time></trkpt><trkpt lat="-25.27151382973002" lon="114.95046433554043"><ele>145.0</ele><time>2026-04-17T03:03:46Z</time></trkpt><trkpt lat="-25.271515636820002" lon="114.95078889585074"><ele>145.0</ele><time>2026-04-17T03:03:47Z</time></trkpt><trkpt lat="-25.27151016248258" lon="114.951103629335"><ele>146.0</ele><time>2026-04-17T03:03:48Z</time></trkpt><trkpt lat="-25.271499809749187" lon="114.95143083356047"><ele>147.0</ele><time>2026-04-17T03:03:49Z</time></trkpt><trkpt lat="-25.271483498489275" lon="114.9517595127876"><ele>147.5</ele><time>2026-04-17T03:03:50Z</time></trkpt><trkpt lat="-25.271464155767557" lon="114.95208623453202"><ele>148.0</ele><time>2026-04-17T03:03:51Z</time></trkpt><trkpt lat="-25.271443049481384" lon="114.95241716247794"><ele>148.0</ele><time>2026-04-17T03:03:52Z</time></trkpt><trkpt lat="-25.27142782049011" lon="114.95275152752093"><ele>148.0</ele><time>2026-04-17T03:03:53Z</time></trkpt><trkpt lat="-25.271415542041364" lon="114.95308509992157"><ele>149.5</ele><time>2026-04-17T03:03:54Z</time></trkpt><trkpt lat="-25.27140257158182" lon="114.95341973488001"><ele>151.0</ele><time>2026-04-17T03:03:55Z</time></trkpt><trkpt lat="-25.2713916752713" lon="114.9537568497961"><ele>151.0</ele><time>2026-04-17T03:03:56Z</time></trkpt><trkpt lat="-25.27138675113873" lon="114.95409449098705"><ele>151.0</ele><time>2026-04-17T03:03:57Z</time></trkpt><trkpt lat="-25.271381716946543" lon="114.95443358605941"><ele>151.0</ele><time>2026-04-17T03:03:58Z</time></trkpt><trkpt lat="-25.271372635489126" lon="114.95477693553492"><ele>151.0</ele><time>2026-04-17T03:03:59Z</time></trkpt><trkpt lat="-25.271362680488643" lon="114.95511992380021"><ele>152.0</ele><time>2026-04-17T03:04:00Z</time></trkpt><trkpt lat="-25.27135003677798" lon="114.95546008482546"><ele>153.0</ele><time>2026-04-17T03:04:01Z</time></trkpt><trkpt lat="-25.271334630774525" lon="114.95580104004559"><ele>153.0</ele><time>2026-04-17T03:04:02Z</time></trkpt><trkpt lat="-25.271319182912734" lon="114.95613817380968"><ele>153.0</ele><time>2026-04-17T03:04:03Z</time></trkpt><trkpt lat="-25.27130556763084" lon="114.95647832039701"><ele>153.0</ele><time>2026-04-17T03:04:04Z</time></trkpt><trkpt lat="-25.271290739557596" lon="114.95681676167939"><ele>153.0</ele><time>2026-04-17T03:04:05Z</time></trkpt><trkpt lat="-25.27127647484724" lon="114.95715366086333"><ele>153.0</ele><time>2026-04-17T03:04:06Z</time></trkpt><trkpt lat="-25.271263895920526" lon="114.9574911689183"><ele>153.0</ele><time>2026-04-17T03:04:07Z</time></trkpt><trkpt lat="-25.271253689984782" lon="114.95783140699477"><ele>152.5</ele><time>2026-04-17T03:04:08Z</time></trkpt><trkpt lat="-25.271244608141316" lon="114.95816954560838"><ele>152.0</ele><time>2026-04-17T03:04:09Z</time></trkpt><trkpt lat="-25.271234469805542" lon="114.95850905097379"><ele>152.0</ele><time>2026-04-17T03:04:10Z</time></trkpt><trkpt lat="-25.271227174884675" lon="114.95885007688365"><ele>152.0</ele><time>2026-04-17T03:04:11Z</time></trkpt><trkpt lat="-25.271220603490185" lon="114.9591856114662"><ele>153.0</ele><time>2026-04-17T03:04:12Z</time></trkpt><trkpt lat="-25.27120976978699" lon="114.95952054228489"><ele>154.0</ele><time>2026-04-17T03:04:13Z</time></trkpt><trkpt lat="-25.271195600585745" lon="114.95985444395552"><ele>153.0</ele><time>2026-04-17T03:04:14Z</time></trkpt><trkpt lat="-25.27118411956779" lon="114.96019123367051"><ele>152.0</ele><time>2026-04-17T03:04:15Z</time></trkpt><trkpt lat="-25.27117489868805" lon="114.9605260286066"><ele>152.0</ele><time>2026-04-17T03:04:16Z</time></trkpt><trkpt lat="-25.27115920605532" lon="114.9608597617223"><ele>152.0</ele><time>2026-04-17T03:04:17Z</time></trkpt><trkpt lat="-25.27113750318965" lon="114.96119335640006"><ele>152.0</ele><time>2026-04-17T03:04:18Z</time></trkpt><trkpt lat="-25.271120815052782" lon="114.9615240505423"><ele>152.0</ele><time>2026-04-17T03:04:19Z</time></trkpt><trkpt lat="-25.27110464800605" lon="114.9618598396964"><ele>152.0</ele><time>2026-04-17T03:04:20Z</time></trkpt><trkpt lat="-25.271087658434652" lon="114.96219035661474"><ele>152.0</ele><time>2026-04-17T03:04:21Z</time></trkpt><trkpt lat="-25.271069790528752" lon="114.96252228236634"><ele>151.5</ele><time>2026-04-17T03:04:22Z</time></trkpt><trkpt lat="-25.27105311701778" lon="114.96285048173482"><ele>151.0</ele><time>2026-04-17T03:04:23Z</time></trkpt><trkpt lat="-25.271036742675435" lon="114.96317797487559"><ele>152.0</ele><time>2026-04-17T03:04:24Z</time></trkpt><trkpt lat="-25.271020944854108" lon="114.96349506382572"><ele>153.0</ele><time>2026-04-17T03:04:25Z</time></trkpt><trkpt lat="-25.271017884774594" lon="114.96383118207287"><ele>153.0</ele><time>2026-04-17T03:04:26Z</time></trkpt><trkpt lat="-25.271016984222697" lon="114.96415757409679"><ele>153.0</ele><time>2026-04-17T03:04:27Z</time></trkpt><trkpt lat="-25.27102258292991" lon="114.96446571727317"><ele>152.5</ele><time>2026-04-17T03:04:28Z</time></trkpt><trkpt lat="-25.271031091161188" lon="114.96475783488475"><ele>152.0</ele><time>2026-04-17T03:04:29Z</time></trkpt><trkpt lat="-25.271046929236167" lon="114.96504398810357"><ele>153.5</ele><time>2026-04-17T03:04:30Z</time></trkpt><trkpt lat="-25.271068123068826" lon="114.96532047787177"><ele>155.0</ele><time>2026-04-17T03:04:31Z</time></trkpt><trkpt lat="-25.271098653127382" lon="114.9655925026274"><ele>155.0</ele><time>2026-04-17T03:04:32Z</time></trkpt><trkpt lat="-25.27113998529517" lon="114.96585711581761"><ele>155.0</ele><time>2026-04-17T03:04:33Z</time></trkpt><trkpt lat="-25.271192890127534" lon="114.96612315956625"><ele>155.0</ele><time>2026-04-17T03:04:34Z</time></trkpt><trkpt lat="-25.271264209974227" lon="114.96639860269293"><ele>155.0</ele><time>2026-04-17T03:04:35Z</time></trkpt><trkpt lat="-25.271342550380965" lon="114.96667979455331"><ele>155.5</ele><time>2026-04-17T03:04:36Z</time></trkpt><trkpt lat="-25.271428432971643" lon="114.96695898258517"><ele>156.0</ele><time>2026-04-17T03:04:37Z</time></trkpt><trkpt lat="-25.271521260532463" lon="114.96724297334544"><ele>156.0</ele><time>2026-04-17T03:04:38Z</time></trkpt><trkpt lat="-25.271625620369374" lon="114.96753074673244"><ele>156.0</ele><time>2026-04-17T03:04:39Z</time></trkpt><trkpt lat="-25.271742853194898" lon="114.96781600529475"><ele>156.0</ele><time>2026-04-17T03:04:40Z</time></trkpt><trkpt lat="-25.271871190515927" lon="114.96808974541082"><ele>156.0</ele><time>2026-04-17T03:04:41Z</time></trkpt><trkpt lat="-25.272009583648746" lon="114.9683628025958"><ele>156.0</ele><time>2026-04-17T03:04:42Z</time></trkpt><trkpt lat="-25.272157955621914" lon="114.96863019639905"><ele>156.0</ele><time>2026-04-17T03:04:43Z</time></trkpt><trkpt lat="-25.272315073946448" lon="114.96889830753155"><ele>156.0</ele><time>2026-04-17T03:04:44Z</time></trkpt><trkpt lat="-25.272473929010914" lon="114.96916869559112"><ele>156.0</ele><time>2026-04-17T03:04:45Z</time></trkpt><trkpt lat="-25.272628408532036" lon="114.96943816417918"><ele>156.0</ele><time>2026-04-17T03:04:46Z</time></trkpt><trkpt lat="-25.27278495374613" lon="114.96971319861376"><ele>156.0</ele><time>2026-04-17T03:04:47Z</time></trkpt><trkpt lat="-25.27294664504835" lon="114.96998415948661"><ele>156.0</ele><time>2026-04-17T03:04:48Z</time></trkpt><trkpt lat="-25.273109350765285" lon="114.97025883163627"><ele>156.0</ele><time>2026-04-17T03:04:49Z</time></trkpt><trkpt lat="-25.273276072289626" lon="114.97053409609947"><ele>156.0</ele><time>2026-04-17T03:04:50Z</time></trkpt><trkpt lat="-25.27344428135982" lon="114.9708039925258"><ele>156.0</ele><time>2026-04-17T03:04:51Z</time></trkpt><trkpt lat="-25.273607517991262" lon="114.97107325150314"><ele>156.5</ele><time>2026-04-17T03:04:52Z</time></trkpt><trkpt lat="-25.27377301643958" lon="114.97134393236496"><ele>157.0</ele><time>2026-04-17T03:04:53Z</time></trkpt><trkpt lat="-25.273933883708395" lon="114.97161200560522"><ele>157.0</ele><time>2026-04-17T03:04:54Z</time></trkpt><trkpt lat="-25.274089776865047" lon="114.97188334958689"><ele>157.0</ele><time>2026-04-17T03:04:55Z</time></trkpt><trkpt lat="-25.27424671132629" lon="114.97215703199605"><ele>157.0</ele><time>2026-04-17T03:04:56Z</time></trkpt><trkpt lat="-25.274405371940688" lon="114.97242471180195"><ele>157.0</ele><time>2026-04-17T03:04:57Z</time></trkpt><trkpt lat="-25.274561820710897" lon="114.97269137278897"><ele>157.5</ele><time>2026-04-17T03:04:58Z</time></trkpt><trkpt lat="-25.274719610908893" lon="114.97296371886245"><ele>158.0</ele><time>2026-04-17T03:04:59Z</time></trkpt><trkpt lat="-25.27487421511945" lon="114.97323596938924"><ele>157.5</ele><time>2026-04-17T03:05:00Z</time></trkpt><trkpt lat="-25.27502924262925" lon="114.97350849198143"><ele>157.0</ele><time>2026-04-17T03:05:01Z</time></trkpt><trkpt lat="-25.27517616661231" lon="114.97376491684936"><ele>157.0</ele><time>2026-04-17T03:05:02Z</time></trkpt><trkpt lat="-25.27532838657326" lon="114.97403787496742"><ele>157.0</ele><time>2026-04-17T03:05:03Z</time></trkpt><trkpt lat="-25.275481875954117" lon="114.97429931120357"><ele>157.0</ele><time>2026-04-17T03:05:04Z</time></trkpt><trkpt lat="-25.275632338515095" lon="114.97454953050463"><ele>157.0</ele><time>2026-04-17T03:05:05Z</time></trkpt><trkpt lat="-25.27577924840192" lon="114.97478731842189"><ele>158.0</ele><time>2026-04-17T03:05:06Z</time></trkpt><trkpt lat="-25.275925431505488" lon="114.97503130904943"><ele>159.0</ele><time>2026-04-17T03:05:07Z</time></trkpt><trkpt lat="-25.276069280492177" lon="114.9752697751414"><ele>159.0</ele><time>2026-04-17T03:05:08Z</time></trkpt><trkpt lat="-25.276213428039707" lon="114.97551137994246"><ele>159.0</ele><time>2026-04-17T03:05:09Z</time></trkpt><trkpt lat="-25.27635360697375" lon="114.97574270293266"><ele>159.0</ele><time>2026-04-17T03:05:10Z</time></trkpt><trkpt lat="-25.27649697018184" lon="114.9759959003479"><ele>159.0</ele><time>2026-04-17T03:05:11Z</time></trkpt><trkpt lat="-25.276639489808726" lon="114.97625403848085"><ele>159.0</ele><time>2026-04-17T03:05:12Z</time></trkpt><trkpt lat="-25.276782574593064" lon="114.97651419821088"><ele>159.0</ele><time>2026-04-17T03:05:13Z</time></trkpt><trkpt lat="-25.276931227423546" lon="114.97677285557967"><ele>160.0</ele><time>2026-04-17T03:05:14Z</time></trkpt><trkpt lat="-25.277080843475773" lon="114.97703169559735"><ele>161.0</ele><time>2026-04-17T03:05:15Z</time></trkpt><trkpt lat="-25.27723012972378" lon="114.97727846419743"><ele>160.5</ele><time>2026-04-17T03:05:16Z</time></trkpt><trkpt lat="-25.277373379189097" lon="114.9775055950596"><ele>160.0</ele><time>2026-04-17T03:05:17Z</time></trkpt><trkpt lat="-25.277515125250947" lon="114.97773259412052"><ele>161.5</ele><time>2026-04-17T03:05:18Z</time></trkpt><trkpt lat="-25.27765983273269" lon="114.97795556676365"><ele>163.0</ele><time>2026-04-17T03:05:19Z</time></trkpt><trkpt lat="-25.27781069773547" lon="114.97817926680536"><ele>163.0</ele><time>2026-04-17T03:05:20Z</time></trkpt><trkpt lat="-25.277966500002535" lon="114.97841174038605"><ele>163.0</ele><time>2026-04-17T03:05:21Z</time></trkpt><trkpt lat="-25.27812982898163" lon="114.97864184702934"><ele>163.0</ele><time>2026-04-17T03:05:22Z</time></trkpt><trkpt lat="-25.27830033151112" lon="114.97886465822214"><ele>163.0</ele><time>2026-04-17T03:05:23Z</time></trkpt><trkpt lat="-25.278475181745097" lon="114.97907904848506"><ele>163.5</ele><time>2026-04-17T03:05:24Z</time></trkpt><trkpt lat="-25.27866099794005" lon="114.97929472021961"><ele>164.0</ele><time>2026-04-17T03:05:25Z</time></trkpt><trkpt lat="-25.27885136689915" lon="114.97950581339711"><ele>164.5</ele><time>2026-04-17T03:05:26Z</time></trkpt><trkpt lat="-25.279052772552564" lon="114.97971150830223"><ele>165.0</ele><time>2026-04-17T03:05:27Z</time></trkpt><trkpt lat="-25.279258154561365" lon="114.97989932126909"><ele>165.5</ele><time>2026-04-17T03:05:28Z</time></trkpt><trkpt lat="-25.279476363078423" lon="114.98007833702229"><ele>166.0</ele><time>2026-04-17T03:05:29Z</time></trkpt><trkpt lat="-25.279706106685538" lon="114.98024228551039"><ele>166.5</ele><time>2026-04-17T03:05:30Z</time></trkpt><trkpt lat="-25.279952799282718" lon="114.98039811614494"><ele>167.0</ele><time>2026-04-17T03:05:31Z</time></trkpt><trkpt lat="-25.28021140051491" lon="114.98054628878258"><ele>167.0</ele><time>2026-04-17T03:05:32Z</time></trkpt><trkpt lat="-25.280478326372805" lon="114.98069282428393"><ele>167.0</ele><time>2026-04-17T03:05:33Z</time></trkpt><trkpt lat="-25.28073651956251" lon="114.98082425575934"><ele>165.5</ele><time>2026-04-17T03:05:34Z</time></trkpt><trkpt lat="-25.280974737238523" lon="114.98093063742688"><ele>164.0</ele><time>2026-04-17T03:05:35Z</time></trkpt><trkpt lat="-25.281210074140247" lon="114.98102926796501"><ele>164.5</ele><time>2026-04-17T03:05:36Z</time></trkpt><trkpt lat="-25.281449949886113" lon="114.98112946980953"><ele>165.0</ele><time>2026-04-17T03:05:37Z</time></trkpt><trkpt lat="-25.28169468901722" lon="114.98123668838363"><ele>165.0</ele><time>2026-04-17T03:05:38Z</time></trkpt><trkpt lat="-25.281929989716026" lon="114.9813405698838"><ele>165.0</ele><time>2026-04-17T03:05:39Z</time></trkpt><trkpt lat="-25.282158667105087" lon="114.9814460937469"><ele>165.0</ele><time>2026-04-17T03:05:40Z</time></trkpt><trkpt lat="-25.282408739727714" lon="114.9815564260045"><ele>165.0</ele><time>2026-04-17T03:05:41Z</time></trkpt><trkpt lat="-25.282650587847353" lon="114.98166440070428"><ele>165.5</ele><time>2026-04-17T03:05:42Z</time></trkpt><trkpt lat="-25.28289591161397" lon="114.98176939796387"><ele>166.0</ele><time>2026-04-17T03:05:43Z</time></trkpt><trkpt lat="-25.28313804009536" lon="114.98187418403066"><ele>167.0</ele><time>2026-04-17T03:05:44Z</time></trkpt><trkpt lat="-25.28337841489217" lon="114.98197598424795"><ele>168.0</ele><time>2026-04-17T03:05:45Z</time></trkpt><trkpt lat="-25.283609466427965" lon="114.9820737999181"><ele>168.0</ele><time>2026-04-17T03:05:46Z</time></trkpt><trkpt lat="-25.283838990186144" lon="114.98217400619014"><ele>168.0</ele><time>2026-04-17T03:05:47Z</time></trkpt><trkpt lat="-25.284071232509778" lon="114.9822735423275"><ele>169.5</ele><time>2026-04-17T03:05:48Z</time></trkpt><trkpt lat="-25.284312374100192" lon="114.98237428410073"><ele>171.0</ele><time>2026-04-17T03:05:49Z</time></trkpt><trkpt lat="-25.284563518263035" lon="114.98247790854035"><ele>171.0</ele><time>2026-04-17T03:05:50Z</time></trkpt><trkpt lat="-25.284819230210193" lon="114.98258298275552"><ele>171.0</ele><time>2026-04-17T03:05:51Z</time></trkpt><trkpt lat="-25.285074340548935" lon="114.98268965550028"><ele>171.0</ele><time>2026-04-17T03:05:52Z</time></trkpt><trkpt lat="-25.28533314996972" lon="114.98280074161634"><ele>171.0</ele><time>2026-04-17T03:05:53Z</time></trkpt><trkpt lat="-25.285600382701872" lon="114.98291494587191"><ele>171.5</ele><time>2026-04-17T03:05:54Z</time></trkpt><trkpt lat="-25.28587094709455" lon="114.98303161137902"><ele>172.0</ele><time>2026-04-17T03:05:55Z</time></trkpt><trkpt lat="-25.28614096281823" lon="114.98314793104382"><ele>172.0</ele><time>2026-04-17T03:05:56Z</time></trkpt><trkpt lat="-25.286413710865066" lon="114.98326569807328"><ele>172.0</ele><time>2026-04-17T03:05:57Z</time></trkpt><trkpt lat="-25.286684378256453" lon="114.98338415843307"><ele>172.5</ele><time>2026-04-17T03:05:58Z</time></trkpt><trkpt lat="-25.28695891902694" lon="114.98350114844612"><ele>173.0</ele><time>2026-04-17T03:05:59Z</time></trkpt><trkpt lat="-25.287235293472133" lon="114.98362047435862"><ele>172.5</ele><time>2026-04-17T03:06:00Z</time></trkpt><trkpt lat="-25.287512300204938" lon="114.98374151180957"><ele>172.0</ele><time>2026-04-17T03:06:01Z</time></trkpt><trkpt lat="-25.287780670674394" lon="114.9838613699323"><ele>172.0</ele><time>2026-04-17T03:06:02Z</time></trkpt><trkpt lat="-25.28804180636543" lon="114.98397983435044"><ele>172.0</ele><time>2026-04-17T03:06:03Z</time></trkpt><trkpt lat="-25.288281965649666" lon="114.98409346301233"><ele>172.0</ele><time>2026-04-17T03:06:04Z</time></trkpt><trkpt lat="-25.288513752298886" lon="114.98420571480482"><ele>172.0</ele><time>2026-04-17T03:06:05Z</time></trkpt><trkpt lat="-25.28873715723827" lon="114.98432584798451"><ele>171.5</ele><time>2026-04-17T03:06:06Z</time></trkpt><trkpt lat="-25.28895554232706" lon="114.98444303792547"><ele>171.0</ele><time>2026-04-17T03:06:07Z</time></trkpt><trkpt lat="-25.289154309768957" lon="114.9845579588733"><ele>171.0</ele><time>2026-04-17T03:06:08Z</time></trkpt><trkpt lat="-25.28933864672515" lon="114.9846664184584"><ele>171.0</ele><time>2026-04-17T03:06:09Z</time></trkpt><trkpt lat="-25.289489931175048" lon="114.98476191379666"><ele>171.0</ele><time>2026-04-17T03:06:10Z</time></trkpt><trkpt lat="-25.28964002264817" lon="114.98485504505224"><ele>171.0</ele><time>2026-04-17T03:06:11Z</time></trkpt><trkpt lat="-25.289796658184457" lon="114.98496218538253"><ele>171.0</ele><time>2026-04-17T03:06:12Z</time></trkpt><trkpt lat="-25.289931777883474" lon="114.9850764279234"><ele>171.0</ele><time>2026-04-17T03:06:13Z</time></trkpt><trkpt lat="-25.290076705422443" lon="114.98521842410808"><ele>171.66666666666666</ele><time>2026-04-17T03:06:14Z</time></trkpt><trkpt lat="-25.29021858909434" lon="114.98536754050218"><ele>172.33333333333331</ele><time>2026-04-17T03:06:15Z</time></trkpt><trkpt lat="-25.29036551196993" lon="114.98553112221497"><ele>173.0</ele><time>2026-04-17T03:06:16Z</time></trkpt><trkpt lat="-25.29052580175358" lon="114.98570948337384"><ele>171.5</ele><time>2026-04-17T03:06:17Z</time></trkpt><trkpt lat="-25.290698243855005" lon="114.98591100154378"><ele>170.0</ele><time>2026-04-17T03:06:18Z</time></trkpt><trkpt lat="-25.29086274402447" lon="114.9861155750473"><ele>170.0</ele><time>2026-04-17T03:06:19Z</time></trkpt><trkpt lat="-25.29102149729672" lon="114.98632777108664"><ele>170.0</ele><time>2026-04-17T03:06:20Z</time></trkpt><trkpt lat="-25.291184761506027" lon="114.98655132350233"><ele>171.5</ele><time>2026-04-17T03:06:21Z</time></trkpt><trkpt lat="-25.291346764773543" lon="114.98678239302299"><ele>173.0</ele><time>2026-04-17T03:06:22Z</time></trkpt><trkpt lat="-25.291501380193743" lon="114.98701389745665"><ele>173.5</ele><time>2026-04-17T03:06:23Z</time></trkpt><trkpt lat="-25.291646135097096" lon="114.98724774816432"><ele>174.0</ele><time>2026-04-17T03:06:24Z</time></trkpt><trkpt lat="-25.29178994300016" lon="114.98749447429661"><ele>174.5</ele><time>2026-04-17T03:06:25Z</time></trkpt><trkpt lat="-25.291928221886508" lon="114.9877470659134"><ele>175.0</ele><time>2026-04-17T03:06:26Z</time></trkpt><trkpt lat="-25.292058242460282" lon="114.9880061948184"><ele>175.0</ele><time>2026-04-17T03:06:27Z</time></trkpt><trkpt lat="-25.292180611236663" lon="114.98827569055074"><ele>175.0</ele><time>2026-04-17T03:06:28Z</time></trkpt><trkpt lat="-25.29229660889521" lon="114.98855581731523"><ele>175.5</ele><time>2026-04-17T03:06:29Z</time></trkpt><trkpt lat="-25.29240251587007" lon="114.98884190799497"><ele>176.0</ele><time>2026-04-17T03:06:30Z</time></trkpt><trkpt lat="-25.29249586444001" lon="114.98912853381395"><ele>176.0</ele><time>2026-04-17T03:06:31Z</time></trkpt><trkpt lat="-25.29257661745869" lon="114.989417470005"><ele>176.0</ele><time>2026-04-17T03:06:32Z</time></trkpt><trkpt lat="-25.292649953785546" lon="114.9897199247845"><ele>177.0</ele><time>2026-04-17T03:06:33Z</time></trkpt><trkpt lat="-25.292717294019567" lon="114.99002883996182"><ele>178.0</ele><time>2026-04-17T03:06:34Z</time></trkpt><trkpt lat="-25.292770275350684" lon="114.99032611429462"><ele>178.0</ele><time>2026-04-17T03:06:35Z</time></trkpt><trkpt lat="-25.292803683053894" lon="114.9906226644978"><ele>178.0</ele><time>2026-04-17T03:06:36Z</time></trkpt><trkpt lat="-25.292823158083355" lon="114.99092297614666"><ele>178.5</ele><time>2026-04-17T03:06:37Z</time></trkpt><trkpt lat="-25.29282963874942" lon="114.99123049129639"><ele>179.0</ele><time>2026-04-17T03:06:38Z</time></trkpt><trkpt lat="-25.292825976798454" lon="114.9915491201282"><ele>180.0</ele><time>2026-04-17T03:06:39Z</time></trkpt><trkpt lat="-25.292815746820985" lon="114.99186649788318"><ele>181.0</ele><time>2026-04-17T03:06:40Z</time></trkpt><trkpt lat="-25.292798648687512" lon="114.99219125219018"><ele>181.0</ele><time>2026-04-17T03:06:41Z</time></trkpt><trkpt lat="-25.292780015177243" lon="114.99251521463364"><ele>181.0</ele><time>2026-04-17T03:06:42Z</time></trkpt><trkpt lat="-25.292761542678836" lon="114.99283411642614"><ele>181.0</ele><time>2026-04-17T03:06:43Z</time></trkpt><trkpt lat="-25.292743322637186" lon="114.99315198777987"><ele>181.0</ele><time>2026-04-17T03:06:44Z</time></trkpt><trkpt lat="-25.292725031307945" lon="114.9934681805055"><ele>183.5</ele><time>2026-04-17T03:06:45Z</time></trkpt><trkpt lat="-25.292707816891493" lon="114.99378356099905"><ele>186.0</ele><time>2026-04-17T03:06:46Z</time></trkpt><trkpt lat="-25.29268967389402" lon="114.99409778456852"><ele>187.0</ele><time>2026-04-17T03:06:47Z</time></trkpt><trkpt lat="-25.292673524460607" lon="114.99440933719643"><ele>188.0</ele><time>2026-04-17T03:06:48Z</time></trkpt><trkpt lat="-25.292658804202397" lon="114.9947144990453"><ele>189.0</ele><time>2026-04-17T03:06:49Z</time></trkpt><trkpt lat="-25.292643730567477" lon="114.995014898823"><ele>190.0</ele><time>2026-04-17T03:06:50Z</time></trkpt><trkpt lat="-25.29262520462709" lon="114.99530972284741"><ele>190.0</ele><time>2026-04-17T03:06:51Z</time></trkpt><trkpt lat="-25.292609128913153" lon="114.99559626609621"><ele>190.0</ele><time>2026-04-17T03:06:52Z</time></trkpt><trkpt lat="-25.29259265546305" lon="114.99589001913468"><ele>190.0</ele><time>2026-04-17T03:06:53Z</time></trkpt><trkpt lat="-25.292581166953234" lon="114.99617431074184"><ele>190.0</ele><time>2026-04-17T03:06:54Z</time></trkpt><trkpt lat="-25.292566033967155" lon="114.9964701284891"><ele>190.5</ele><time>2026-04-17T03:06:55Z</time></trkpt><trkpt lat="-25.292547385410785" lon="114.99677044305714"><ele>191.0</ele><time>2026-04-17T03:06:56Z</time></trkpt><trkpt lat="-25.292526889219182" lon="114.99707000811829"><ele>191.0</ele><time>2026-04-17T03:06:57Z</time></trkpt><trkpt lat="-25.292508976230714" lon="114.99738336378778"><ele>191.0</ele><time>2026-04-17T03:06:58Z</time></trkpt><trkpt lat="-25.292492479186468" lon="114.99769159116268"><ele>192.0</ele><time>2026-04-17T03:06:59Z</time></trkpt><trkpt lat="-25.29247577772043" lon="114.9980010776149"><ele>193.0</ele><time>2026-04-17T03:07:00Z</time></trkpt><trkpt lat="-25.29245809527563" lon="114.9983122226104"><ele>193.0</ele><time>2026-04-17T03:07:01Z</time></trkpt><trkpt lat="-25.292441229585027" lon="114.99862522059381"><ele>193.0</ele><time>2026-04-17T03:07:02Z</time></trkpt><trkpt lat="-25.292422202774137" lon="114.9989370006794"><ele>193.5</ele><time>2026-04-17T03:07:03Z</time></trkpt><trkpt lat="-25.292401670821008" lon="114.99925078652805"><ele>194.0</ele><time>2026-04-17T03:07:04Z</time></trkpt><trkpt lat="-25.292381571722707" lon="114.99956336489575"><ele>194.0</ele><time>2026-04-17T03:07:05Z</time></trkpt><trkpt lat="-25.29236725830648" lon="114.99987308681371"><ele>194.0</ele><time>2026-04-17T03:07:06Z</time></trkpt><trkpt lat="-25.292355227347617" lon="115.00018364942795"><ele>194.0</ele><time>2026-04-17T03:07:07Z</time></trkpt><trkpt lat="-25.292343415062323" lon="115.0004950432221"><ele>194.0</ele><time>2026-04-17T03:07:08Z</time></trkpt><trkpt lat="-25.29232649217575" lon="115.00081214860852"><ele>193.5</ele><time>2026-04-17T03:07:09Z</time></trkpt><trkpt lat="-25.292302572971625" lon="115.00112773701146"><ele>193.0</ele><time>2026-04-17T03:07:10Z</time></trkpt><trkpt lat="-25.29227771707261" lon="115.00144666020614"><ele>192.5</ele><time>2026-04-17T03:07:11Z</time></trkpt><trkpt lat="-25.292253892568" lon="115.0017664483326"><ele>192.0</ele><time>2026-04-17T03:07:12Z</time></trkpt><trkpt lat="-25.292232257932355" lon="115.00209131447492"><ele>192.0</ele><time>2026-04-17T03:07:13Z</time></trkpt><trkpt lat="-25.2922127489602" lon="115.00241344017103"><ele>192.0</ele><time>2026-04-17T03:07:14Z</time></trkpt><trkpt lat="-25.292192956175576" lon="115.0027362996249"><ele>191.5</ele><time>2026-04-17T03:07:15Z</time></trkpt><trkpt lat="-25.29217400028277" lon="115.00306184799123"><ele>191.0</ele><time>2026-04-17T03:07:16Z</time></trkpt><trkpt lat="-25.292155246187185" lon="115.00338923107205"><ele>190.0</ele><time>2026-04-17T03:07:17Z</time></trkpt><trkpt lat="-25.292137411859343" lon="115.00371179293062"><ele>189.0</ele><time>2026-04-17T03:07:18Z</time></trkpt><trkpt lat="-25.292120972231192" lon="115.00403454903783"><ele>189.5</ele><time>2026-04-17T03:07:19Z</time></trkpt><trkpt lat="-25.292104496265317" lon="115.00435760594979"><ele>190.0</ele><time>2026-04-17T03:07:20Z</time></trkpt><trkpt lat="-25.292087620852147" lon="115.00468289911689"><ele>190.5</ele><time>2026-04-17T03:07:21Z</time></trkpt><trkpt lat="-25.292068395477344" lon="115.00500766914034"><ele>191.0</ele><time>2026-04-17T03:07:22Z</time></trkpt><trkpt lat="-25.292047708972717" lon="115.00532775311385"><ele>191.0</ele><time>2026-04-17T03:07:23Z</time></trkpt><trkpt lat="-25.292029427294718" lon="115.00563940255623"><ele>191.0</ele><time>2026-04-17T03:07:24Z</time></trkpt><trkpt lat="-25.292013647914345" lon="115.00595789421092"><ele>193.0</ele><time>2026-04-17T03:07:25Z</time></trkpt><trkpt lat="-25.291999796583102" lon="115.00627703538676"><ele>195.0</ele><time>2026-04-17T03:07:26Z</time></trkpt><trkpt lat="-25.291983860147234" lon="115.00659275165981"><ele>196.5</ele><time>2026-04-17T03:07:27Z</time></trkpt><trkpt lat="-25.29196917325615" lon="115.0069013173741"><ele>198.0</ele><time>2026-04-17T03:07:28Z</time></trkpt><trkpt lat="-25.291953734242796" lon="115.00721290068537"><ele>199.0</ele><time>2026-04-17T03:07:29Z</time></trkpt><trkpt lat="-25.291939333818686" lon="115.0075269410525"><ele>200.0</ele><time>2026-04-17T03:07:30Z</time></trkpt><trkpt lat="-25.291921804167714" lon="115.00784326362746"><ele>200.0</ele><time>2026-04-17T03:07:31Z</time></trkpt><trkpt lat="-25.291903714760032" lon="115.0081593170298"><ele>200.0</ele><time>2026-04-17T03:07:32Z</time></trkpt><trkpt lat="-25.29188688907302" lon="115.00847647339488"><ele>200.0</ele><time>2026-04-17T03:07:33Z</time></trkpt><trkpt lat="-25.291869070571348" lon="115.00879727460926"><ele>200.0</ele><time>2026-04-17T03:07:34Z</time></trkpt><trkpt lat="-25.291850860403738" lon="115.00912177216087"><ele>199.5</ele><time>2026-04-17T03:07:35Z</time></trkpt><trkpt lat="-25.291832875811238" lon="115.00944678904325"><ele>199.0</ele><time>2026-04-17T03:07:36Z</time></trkpt><trkpt lat="-25.291818706817804" lon="115.00976795851172"><ele>198.5</ele><time>2026-04-17T03:07:37Z</time></trkpt><trkpt lat="-25.291804742776026" lon="115.01008305292322"><ele>198.0</ele><time>2026-04-17T03:07:38Z</time></trkpt><trkpt lat="-25.291788260771412" lon="115.01039977004002"><ele>198.0</ele><time>2026-04-17T03:07:39Z</time></trkpt><trkpt lat="-25.29177085972978" lon="115.01071700871796"><ele>198.0</ele><time>2026-04-17T03:07:40Z</time></trkpt><trkpt lat="-25.291750835214586" lon="115.01103995157307"><ele>197.5</ele><time>2026-04-17T03:07:41Z</time></trkpt><trkpt lat="-25.291731896433117" lon="115.01136516982564"><ele>197.0</ele><time>2026-04-17T03:07:42Z</time></trkpt><trkpt lat="-25.29171524519459" lon="115.01169283377153"><ele>196.0</ele><time>2026-04-17T03:07:43Z</time></trkpt><trkpt lat="-25.291702398300064" lon="115.01201985607807"><ele>195.0</ele><time>2026-04-17T03:07:44Z</time></trkpt><trkpt lat="-25.291688589083" lon="115.01234457518248"><ele>193.5</ele><time>2026-04-17T03:07:45Z</time></trkpt><trkpt lat="-25.29167189033526" lon="115.01266439243783"><ele>192.0</ele><time>2026-04-17T03:07:46Z</time></trkpt><trkpt lat="-25.291658423736905" lon="115.01298101274195"><ele>192.0</ele><time>2026-04-17T03:07:47Z</time></trkpt><trkpt lat="-25.29164453487351" lon="115.01329342284005"><ele>192.0</ele><time>2026-04-17T03:07:48Z</time></trkpt><trkpt lat="-25.29162417594576" lon="115.01360173199599"><ele>192.5</ele><time>2026-04-17T03:07:49Z</time></trkpt><trkpt lat="-25.29160837682161" lon="115.01390235268838"><ele>193.0</ele><time>2026-04-17T03:07:50Z</time></trkpt><trkpt lat="-25.29160125476665" lon="115.01419826012793"><ele>193.0</ele><time>2026-04-17T03:07:51Z</time></trkpt><trkpt lat="-25.291587294083524" lon="115.01450009945567"><ele>193.0</ele><time>2026-04-17T03:07:52Z</time></trkpt><trkpt lat="-25.291566599739912" lon="115.01480433679106"><ele>194.0</ele><time>2026-04-17T03:07:53Z</time></trkpt><trkpt lat="-25.291547157885923" lon="115.01511079745846"><ele>195.0</ele><time>2026-04-17T03:07:54Z</time></trkpt><trkpt lat="-25.291531449574897" lon="115.01541978092114"><ele>195.0</ele><time>2026-04-17T03:07:55Z</time></trkpt><trkpt lat="-25.291515858836526" lon="115.01572660190168"><ele>195.0</ele><time>2026-04-17T03:07:56Z</time></trkpt><trkpt lat="-25.29149785269836" lon="115.01602901245495"><ele>194.0</ele><time>2026-04-17T03:07:57Z</time></trkpt><trkpt lat="-25.291475844338752" lon="115.0163325178493"><ele>193.0</ele><time>2026-04-17T03:07:58Z</time></trkpt><trkpt lat="-25.291452932766767" lon="115.01664161724136"><ele>193.5</ele><time>2026-04-17T03:07:59Z</time></trkpt><trkpt lat="-25.291429329296964" lon="115.01694982007113"><ele>194.0</ele><time>2026-04-17T03:08:00Z</time></trkpt><trkpt lat="-25.291408366886223" lon="115.0172628306255"><ele>194.0</ele><time>2026-04-17T03:08:01Z</time></trkpt><trkpt lat="-25.291387922812145" lon="115.0175753379321"><ele>194.0</ele><time>2026-04-17T03:08:02Z</time></trkpt><trkpt lat="-25.291365263733162" lon="115.01789041490272"><ele>194.0</ele><time>2026-04-17T03:08:03Z</time></trkpt><trkpt lat="-25.291342019525388" lon="115.01820347915414"><ele>194.0</ele><time>2026-04-17T03:08:04Z</time></trkpt><trkpt lat="-25.291321021525548" lon="115.01852413520837"><ele>194.0</ele><time>2026-04-17T03:08:05Z</time></trkpt><trkpt lat="-25.29130116476342" lon="115.01884237386282"><ele>194.0</ele><time>2026-04-17T03:08:06Z</time></trkpt><trkpt lat="-25.291283909375117" lon="115.01916331164708"><ele>193.0</ele><time>2026-04-17T03:08:07Z</time></trkpt><trkpt lat="-25.291266625507344" lon="115.01948296302561"><ele>192.0</ele><time>2026-04-17T03:08:08Z</time></trkpt><trkpt lat="-25.291249603308586" lon="115.01980095250437"><ele>192.0</ele><time>2026-04-17T03:08:09Z</time></trkpt><trkpt lat="-25.291232722417742" lon="115.02012304422678"><ele>192.0</ele><time>2026-04-17T03:08:10Z</time></trkpt><trkpt lat="-25.29121557208714" lon="115.0204440812647"><ele>192.0</ele><time>2026-04-17T03:08:11Z</time></trkpt><trkpt lat="-25.291199747159563" lon="115.02077413926303"><ele>192.0</ele><time>2026-04-17T03:08:12Z</time></trkpt><trkpt lat="-25.291185561877306" lon="115.02110697809287"><ele>190.5</ele><time>2026-04-17T03:08:13Z</time></trkpt><trkpt lat="-25.291173376311015" lon="115.02142672388428"><ele>189.0</ele><time>2026-04-17T03:08:14Z</time></trkpt><trkpt lat="-25.29115884313699" lon="115.02175020223791"><ele>188.5</ele><time>2026-04-17T03:08:15Z</time></trkpt><trkpt lat="-25.291141168841392" lon="115.02206797142814"><ele>188.0</ele><time>2026-04-17T03:08:16Z</time></trkpt><trkpt lat="-25.291118285748162" lon="115.02238780633623"><ele>188.0</ele><time>2026-04-17T03:08:16.999Z</time></trkpt><trkpt lat="-25.291095231587462" lon="115.02270934099602"><ele>188.0</ele><time>2026-04-17T03:08:17.999Z</time></trkpt><trkpt lat="-25.291074760063683" lon="115.02303467262267"><ele>187.5</ele><time>2026-04-17T03:08:18.999Z</time></trkpt><trkpt lat="-25.291056581886338" lon="115.02336197585558"><ele>187.0</ele><time>2026-04-17T03:08:19.999Z</time></trkpt><trkpt lat="-25.291040137251027" lon="115.02369250666838"><ele>187.0</ele><time>2026-04-17T03:08:20.999Z</time></trkpt><trkpt lat="-25.291021458330714" lon="115.02402695041442"><ele>187.0</ele><time>2026-04-17T03:08:21.999Z</time></trkpt><trkpt lat="-25.291001897482992" lon="115.02435751576442"><ele>186.5</ele><time>2026-04-17T03:08:22.999Z</time></trkpt><trkpt lat="-25.290982667924037" lon="115.02468563743074"><ele>186.0</ele><time>2026-04-17T03:08:23.999Z</time></trkpt><trkpt lat="-25.290963772428807" lon="115.02500884506712"><ele>186.0</ele><time>2026-04-17T03:08:24.999Z</time></trkpt><trkpt lat="-25.290946836509885" lon="115.02532873570007"><ele>186.0</ele><time>2026-04-17T03:08:25.999Z</time></trkpt><trkpt lat="-25.29093110872916" lon="115.0256460198192"><ele>186.5</ele><time>2026-04-17T03:08:26.999Z</time></trkpt><trkpt lat="-25.290915926846182" lon="115.02596014416645"><ele>187.0</ele><time>2026-04-17T03:08:27.999Z</time></trkpt><trkpt lat="-25.29089800311839" lon="115.02628109323129"><ele>187.0</ele><time>2026-04-17T03:08:28.999Z</time></trkpt><trkpt lat="-25.290880849504553" lon="115.0266012711663"><ele>187.0</ele><time>2026-04-17T03:08:30Z</time></trkpt><trkpt lat="-25.29086241302774" lon="115.02691874970111"><ele>187.0</ele><time>2026-04-17T03:08:31Z</time></trkpt><trkpt lat="-25.29083844733986" lon="115.02723943839841"><ele>187.0</ele><time>2026-04-17T03:08:32Z</time></trkpt><trkpt lat="-25.29081673347186" lon="115.02755355338793"><ele>186.5</ele><time>2026-04-17T03:08:33Z</time></trkpt><trkpt lat="-25.290797692585464" lon="115.02787485361175"><ele>186.0</ele><time>2026-04-17T03:08:34Z</time></trkpt><trkpt lat="-25.290778281440694" lon="115.02820220339076"><ele>186.5</ele><time>2026-04-17T03:08:35Z</time></trkpt><trkpt lat="-25.290758591539127" lon="115.02853020964699"><ele>187.0</ele><time>2026-04-17T03:08:36Z</time></trkpt><trkpt lat="-25.290739907067618" lon="115.02885612401077"><ele>186.0</ele><time>2026-04-17T03:08:37Z</time></trkpt><trkpt lat="-25.29072236783354" lon="115.02918358264824"><ele>185.0</ele><time>2026-04-17T03:08:38Z</time></trkpt><trkpt lat="-25.29070736187885" lon="115.02949915663301"><ele>185.0</ele><time>2026-04-17T03:08:39Z</time></trkpt><trkpt lat="-25.290691465147045" lon="115.0298250855534"><ele>185.0</ele><time>2026-04-17T03:08:40Z</time></trkpt><trkpt lat="-25.29067406524953" lon="115.03014739152147"><ele>186.0</ele><time>2026-04-17T03:08:41Z</time></trkpt><trkpt lat="-25.290653306106673" lon="115.03047500690846"><ele>187.0</ele><time>2026-04-17T03:08:42Z</time></trkpt><trkpt lat="-25.290628339871997" lon="115.03079921528966"><ele>187.0</ele><time>2026-04-17T03:08:43Z</time></trkpt><trkpt lat="-25.290603459923336" lon="115.03112702081742"><ele>187.0</ele><time>2026-04-17T03:08:44Z</time></trkpt><trkpt lat="-25.29058072608602" lon="115.03146131150767"><ele>188.0</ele><time>2026-04-17T03:08:45Z</time></trkpt><trkpt lat="-25.290559766123792" lon="115.03179009430126"><ele>189.0</ele><time>2026-04-17T03:08:46Z</time></trkpt><trkpt lat="-25.290538494565904" lon="115.0321170362097"><ele>189.0</ele><time>2026-04-17T03:08:47Z</time></trkpt><trkpt lat="-25.29051872417195" lon="115.03244195269025"><ele>189.0</ele><time>2026-04-17T03:08:48Z</time></trkpt><trkpt lat="-25.290503174701087" lon="115.03276651360443"><ele>189.0</ele><time>2026-04-17T03:08:49Z</time></trkpt><trkpt lat="-25.290494616169216" lon="115.03308864014924"><ele>189.0</ele><time>2026-04-17T03:08:50Z</time></trkpt><trkpt lat="-25.290497944088408" lon="115.03340413823662"><ele>189.0</ele><time>2026-04-17T03:08:51Z</time></trkpt><trkpt lat="-25.290517931980997" lon="115.03371535542539"><ele>189.0</ele><time>2026-04-17T03:08:52Z</time></trkpt><trkpt lat="-25.29055402341991" lon="115.03403103030846"><ele>188.0</ele><time>2026-04-17T03:08:53Z</time></trkpt><trkpt lat="-25.290602547817397" lon="115.03434893554038"><ele>187.0</ele><time>2026-04-17T03:08:54Z</time></trkpt><trkpt lat="-25.290657951298492" lon="115.03467264114754"><ele>188.0</ele><time>2026-04-17T03:08:55Z</time></trkpt><trkpt lat="-25.290720534312324" lon="115.0349974677133"><ele>189.0</ele><time>2026-04-17T03:08:56Z</time></trkpt><trkpt lat="-25.29078746137597" lon="115.0353224776113"><ele>189.0</ele><time>2026-04-17T03:08:57Z</time></trkpt><trkpt lat="-25.290860628332215" lon="115.03564236848908"><ele>189.0</ele><time>2026-04-17T03:08:58Z</time></trkpt><trkpt lat="-25.290926063599123" lon="115.03595770609294"><ele>189.5</ele><time>2026-04-17T03:08:59Z</time></trkpt><trkpt lat="-25.29098923083022" lon="115.03626726078542"><ele>190.0</ele><time>2026-04-17T03:09:00Z</time></trkpt><trkpt lat="-25.29105280537721" lon="115.03657191828603"><ele>189.5</ele><time>2026-04-17T03:09:01Z</time></trkpt><trkpt lat="-25.291116549697133" lon="115.03688299038507"><ele>189.0</ele><time>2026-04-17T03:09:02Z</time></trkpt><trkpt lat="-25.291183307781807" lon="115.03720478390974"><ele>188.5</ele><time>2026-04-17T03:09:03Z</time></trkpt><trkpt lat="-25.29125379266572" lon="115.03752788184704"><ele>188.0</ele><time>2026-04-17T03:09:04Z</time></trkpt><trkpt lat="-25.291324330986345" lon="115.03785022173685"><ele>188.0</ele><time>2026-04-17T03:09:05Z</time></trkpt><trkpt lat="-25.291395375884086" lon="115.03816944792106"><ele>188.0</ele><time>2026-04-17T03:09:06Z</time></trkpt><trkpt lat="-25.2914657395193" lon="115.03849412098532"><ele>189.0</ele><time>2026-04-17T03:09:07Z</time></trkpt><trkpt lat="-25.2915342403283" lon="115.03882067505317"><ele>190.0</ele><time>2026-04-17T03:09:08Z</time></trkpt><trkpt lat="-25.291601531565117" lon="115.03914809273267"><ele>190.0</ele><time>2026-04-17T03:09:09Z</time></trkpt><trkpt lat="-25.291670105782476" lon="115.03947551405366"><ele>190.0</ele><time>2026-04-17T03:09:10Z</time></trkpt><trkpt lat="-25.291740733035958" lon="115.0398072395294"><ele>190.5</ele><time>2026-04-17T03:09:11Z</time></trkpt><trkpt lat="-25.291808638315942" lon="115.04013465155937"><ele>191.0</ele><time>2026-04-17T03:09:12Z</time></trkpt><trkpt lat="-25.291873680261446" lon="115.04046127691612"><ele>191.0</ele><time>2026-04-17T03:09:13Z</time></trkpt><trkpt lat="-25.291941636204246" lon="115.04079015289635"><ele>191.0</ele><time>2026-04-17T03:09:14Z</time></trkpt><trkpt lat="-25.29200977084934" lon="115.04111466711312"><ele>192.0</ele><time>2026-04-17T03:09:15Z</time></trkpt><trkpt lat="-25.29207733414138" lon="115.04142965793015"><ele>193.0</ele><time>2026-04-17T03:09:16Z</time></trkpt><trkpt lat="-25.292138797569987" lon="115.04173893031245"><ele>193.0</ele><time>2026-04-17T03:09:17Z</time></trkpt><trkpt lat="-25.292194187633385" lon="115.0420432877343"><ele>193.0</ele><time>2026-04-17T03:09:18Z</time></trkpt><trkpt lat="-25.292252427164552" lon="115.04234861182513"><ele>193.0</ele><time>2026-04-17T03:09:19Z</time></trkpt><trkpt lat="-25.29231344498789" lon="115.04265664705589"><ele>193.0</ele><time>2026-04-17T03:09:20Z</time></trkpt><trkpt lat="-25.292378081598322" lon="115.0429672764716"><ele>193.0</ele><time>2026-04-17T03:09:21Z</time></trkpt><trkpt lat="-25.292445180747517" lon="115.04328306716347"><ele>193.0</ele><time>2026-04-17T03:09:22Z</time></trkpt><trkpt lat="-25.292509363201543" lon="115.04358877986375"><ele>193.0</ele><time>2026-04-17T03:09:23Z</time></trkpt><trkpt lat="-25.29257568049586" lon="115.04390415356836"><ele>193.0</ele><time>2026-04-17T03:09:24Z</time></trkpt><trkpt lat="-25.29264083038704" lon="115.04421611674543"><ele>193.0</ele><time>2026-04-17T03:09:25Z</time></trkpt><trkpt lat="-25.29271050429651" lon="115.04453822879513"><ele>193.0</ele><time>2026-04-17T03:09:26Z</time></trkpt><trkpt lat="-25.292777369185316" lon="115.04486250110472"><ele>192.5</ele><time>2026-04-17T03:09:27Z</time></trkpt><trkpt lat="-25.292843592080512" lon="115.04519070839518"><ele>192.0</ele><time>2026-04-17T03:09:28Z</time></trkpt><trkpt lat="-25.292911759655993" lon="115.04552161289418"><ele>192.0</ele><time>2026-04-17T03:09:29Z</time></trkpt><trkpt lat="-25.292980590481065" lon="115.04585319792666"><ele>192.0</ele><time>2026-04-17T03:09:30Z</time></trkpt><trkpt lat="-25.293049192778366" lon="115.04618846876706"><ele>192.0</ele><time>2026-04-17T03:09:31Z</time></trkpt><trkpt lat="-25.29311675340834" lon="115.04652504876505"><ele>192.0</ele><time>2026-04-17T03:09:32Z</time></trkpt><trkpt lat="-25.293184712466548" lon="115.0468591841006"><ele>191.5</ele><time>2026-04-17T03:09:33Z</time></trkpt><trkpt lat="-25.293251331705594" lon="115.04719488785707"><ele>191.0</ele><time>2026-04-17T03:09:34Z</time></trkpt><trkpt lat="-25.293318155465283" lon="115.04752841930579"><ele>192.5</ele><time>2026-04-17T03:09:35Z</time></trkpt><trkpt lat="-25.29338385449172" lon="115.04786354200002"><ele>194.0</ele><time>2026-04-17T03:09:36Z</time></trkpt><trkpt lat="-25.293449346178114" lon="115.04819613907632"><ele>194.0</ele><time>2026-04-17T03:09:37Z</time></trkpt><trkpt lat="-25.29351715811441" lon="115.0485270090561"><ele>194.0</ele><time>2026-04-17T03:09:38Z</time></trkpt><trkpt lat="-25.29358563029434" lon="115.04885481348988"><ele>195.0</ele><time>2026-04-17T03:09:39Z</time></trkpt><trkpt lat="-25.293655378044644" lon="115.04918318131817"><ele>196.0</ele><time>2026-04-17T03:09:40Z</time></trkpt><trkpt lat="-25.293726073128152" lon="115.0495103005753"><ele>196.0</ele><time>2026-04-17T03:09:41Z</time></trkpt><trkpt lat="-25.293796659525526" lon="115.04983625856434"><ele>196.0</ele><time>2026-04-17T03:09:42Z</time></trkpt><trkpt lat="-25.293866634781086" lon="115.05016185491915"><ele>195.5</ele><time>2026-04-17T03:09:43Z</time></trkpt><trkpt lat="-25.293933931011242" lon="115.0504877314784"><ele>195.0</ele><time>2026-04-17T03:09:43.999Z</time></trkpt><trkpt lat="-25.293998221904793" lon="115.05081130152385"><ele>195.0</ele><time>2026-04-17T03:09:44.999Z</time></trkpt><trkpt lat="-25.29405513359237" lon="115.05113619853827"><ele>195.0</ele><time>2026-04-17T03:09:45.999Z</time></trkpt><trkpt lat="-25.294115872228524" lon="115.05145940651862"><ele>195.5</ele><time>2026-04-17T03:09:46.999Z</time></trkpt><trkpt lat="-25.294180481339772" lon="115.05178452432146"><ele>196.0</ele><time>2026-04-17T03:09:47.999Z</time></trkpt><trkpt lat="-25.2942466554752" lon="115.05210709269244"><ele>196.0</ele><time>2026-04-17T03:09:48.999Z</time></trkpt><trkpt lat="-25.29431251004403" lon="115.05242662906447"><ele>196.0</ele><time>2026-04-17T03:09:49.999Z</time></trkpt><trkpt lat="-25.29437991172534" lon="115.05275012804816"><ele>195.5</ele><time>2026-04-17T03:09:50.999Z</time></trkpt><trkpt lat="-25.294444742519953" lon="115.05307303905022"><ele>195.0</ele><time>2026-04-17T03:09:51.999Z</time></trkpt><trkpt lat="-25.294506219687733" lon="115.05339821596114"><ele>194.0</ele><time>2026-04-17T03:09:52.999Z</time></trkpt><trkpt lat="-25.294564500447954" lon="115.05372776189836"><ele>193.0</ele><time>2026-04-17T03:09:53.999Z</time></trkpt><trkpt lat="-25.294619135941854" lon="115.05406167151814"><ele>192.5</ele><time>2026-04-17T03:09:54.999Z</time></trkpt><trkpt lat="-25.29466876282923" lon="115.05439065794133"><ele>192.0</ele><time>2026-04-17T03:09:55.999Z</time></trkpt><trkpt lat="-25.29470711372939" lon="115.0547204793666"><ele>191.0</ele><time>2026-04-17T03:09:56.999Z</time></trkpt><trkpt lat="-25.29473118377122" lon="115.0550498262836"><ele>190.0</ele><time>2026-04-17T03:09:57.999Z</time></trkpt><trkpt lat="-25.294746020210955" lon="115.05537911895622"><ele>190.0</ele><time>2026-04-17T03:09:58.999Z</time></trkpt><trkpt lat="-25.2947485816591" lon="115.05571017208925"><ele>190.0</ele><time>2026-04-17T03:09:59.999Z</time></trkpt><trkpt lat="-25.294739600873214" lon="115.05603956629378"><ele>190.0</ele><time>2026-04-17T03:10:00.999Z</time></trkpt><trkpt lat="-25.29471871305745" lon="115.05637323876716"><ele>190.0</ele><time>2026-04-17T03:10:01.999Z</time></trkpt><trkpt lat="-25.294686713494727" lon="115.05670215589645"><ele>190.0</ele><time>2026-04-17T03:10:02.999Z</time></trkpt><trkpt lat="-25.294648106951374" lon="115.05702808905397"><ele>190.0</ele><time>2026-04-17T03:10:03.999Z</time></trkpt><trkpt lat="-25.294604421549206" lon="115.05733631055388"><ele>190.5</ele><time>2026-04-17T03:10:04.999Z</time></trkpt><trkpt lat="-25.294559541116175" lon="115.05763905606783"><ele>191.0</ele><time>2026-04-17T03:10:05.999Z</time></trkpt><trkpt lat="-25.294518491331097" lon="115.05793103608109"><ele>191.0</ele><time>2026-04-17T03:10:06.999Z</time></trkpt><trkpt lat="-25.294479903284312" lon="115.05822559542617"><ele>191.0</ele><time>2026-04-17T03:10:07.999Z</time></trkpt><trkpt lat="-25.294440930093923" lon="115.05852776504446"><ele>191.0</ele><time>2026-04-17T03:10:08.999Z</time></trkpt><trkpt lat="-25.294399156968414" lon="115.05882918626645"><ele>191.0</ele><time>2026-04-17T03:10:09.999Z</time></trkpt><trkpt lat="-25.294353137470754" lon="115.05913254700775"><ele>190.0</ele><time>2026-04-17T03:10:10.999Z</time></trkpt><trkpt lat="-25.294308054583514" lon="115.05944275518787"><ele>189.0</ele><time>2026-04-17T03:10:11.999Z</time></trkpt><trkpt lat="-25.294265858117726" lon="115.05974378549858"><ele>188.0</ele><time>2026-04-17T03:10:12.999Z</time></trkpt><trkpt lat="-25.29422475250009" lon="115.06003696700868"><ele>187.0</ele><time>2026-04-17T03:10:13.999Z</time></trkpt><trkpt lat="-25.29418419232771" lon="115.06033789883465"><ele>187.0</ele><time>2026-04-17T03:10:14.999Z</time></trkpt><trkpt lat="-25.29415277567955" lon="115.06063677159855"><ele>187.0</ele><time>2026-04-17T03:10:15.999Z</time></trkpt><trkpt lat="-25.294134823088132" lon="115.06093411294562"><ele>187.5</ele><time>2026-04-17T03:10:16.999Z</time></trkpt><trkpt lat="-25.294126306813663" lon="115.0612344736288"><ele>188.0</ele><time>2026-04-17T03:10:17.999Z</time></trkpt><trkpt lat="-25.294131975237146" lon="115.06152683470631"><ele>187.5</ele><time>2026-04-17T03:10:18.999Z</time></trkpt><trkpt lat="-25.294152392601347" lon="115.06181767961296"><ele>187.0</ele><time>2026-04-17T03:10:19.999Z</time></trkpt><trkpt lat="-25.2941870350571" lon="115.06211388044146"><ele>187.0</ele><time>2026-04-17T03:10:20.999Z</time></trkpt><trkpt lat="-25.29423102636789" lon="115.06242007137945"><ele>187.0</ele><time>2026-04-17T03:10:21.999Z</time></trkpt><trkpt lat="-25.294279434641783" lon="115.06272459516909"><ele>186.5</ele><time>2026-04-17T03:10:22.999Z</time></trkpt><trkpt lat="-25.294330549473507" lon="115.06303295506912"><ele>186.0</ele><time>2026-04-17T03:10:23.999Z</time></trkpt><trkpt lat="-25.294383936008177" lon="115.06332348415643"><ele>185.0</ele><time>2026-04-17T03:10:24.999Z</time></trkpt><trkpt lat="-25.294441750447593" lon="115.063638582733"><ele>184.0</ele><time>2026-04-17T03:10:25.999Z</time></trkpt><trkpt lat="-25.294498076851966" lon="115.06395296142148"><ele>184.5</ele><time>2026-04-17T03:10:26.999Z</time></trkpt><trkpt lat="-25.29455431556449" lon="115.0642746148593"><ele>185.0</ele><time>2026-04-17T03:10:27.999Z</time></trkpt><trkpt lat="-25.294610986256234" lon="115.06460167832272"><ele>185.0</ele><time>2026-04-17T03:10:28.999Z</time></trkpt><trkpt lat="-25.294668029579523" lon="115.06492693580194"><ele>185.0</ele><time>2026-04-17T03:10:29.999Z</time></trkpt><trkpt lat="-25.294728239339733" lon="115.0652596573144"><ele>183.5</ele><time>2026-04-17T03:10:30.999Z</time></trkpt><trkpt lat="-25.294791129943412" lon="115.06559391958282"><ele>182.0</ele><time>2026-04-17T03:10:31.999Z</time></trkpt><trkpt lat="-25.29485581708176" lon="115.06591941221089"><ele>181.0</ele><time>2026-04-17T03:10:32.999Z</time></trkpt><trkpt lat="-25.29492399345762" lon="115.0662443321757"><ele>180.0</ele><time>2026-04-17T03:10:33.999Z</time></trkpt><trkpt lat="-25.294997897581148" lon="115.06656873626817"><ele>180.5</ele><time>2026-04-17T03:10:34.999Z</time></trkpt><trkpt lat="-25.29507313349602" lon="115.06688771752731"><ele>181.0</ele><time>2026-04-17T03:10:36Z</time></trkpt><trkpt lat="-25.295149771965608" lon="115.06719533657993"><ele>180.5</ele><time>2026-04-17T03:10:37Z</time></trkpt><trkpt lat="-25.29521752760838" lon="115.0674765095778"><ele>180.0</ele><time>2026-04-17T03:10:38Z</time></trkpt><trkpt lat="-25.29528024625341" lon="115.0677430270515"><ele>180.0</ele><time>2026-04-17T03:10:39Z</time></trkpt><trkpt lat="-25.295340799015406" lon="115.06799969034284"><ele>180.0</ele><time>2026-04-17T03:10:40Z</time></trkpt><trkpt lat="-25.29540588990373" lon="115.06825794988283"><ele>180.0</ele><time>2026-04-17T03:10:41Z</time></trkpt><trkpt lat="-25.29547038000228" lon="115.06852405660737"><ele>180.0</ele><time>2026-04-17T03:10:42Z</time></trkpt><trkpt lat="-25.29553639402238" lon="115.06879576388678"><ele>180.0</ele><time>2026-04-17T03:10:43Z</time></trkpt><trkpt lat="-25.295602077261613" lon="115.06906565059303"><ele>180.0</ele><time>2026-04-17T03:10:44Z</time></trkpt><trkpt lat="-25.295668880380656" lon="115.06933581433195"><ele>180.0</ele><time>2026-04-17T03:10:45Z</time></trkpt><trkpt lat="-25.295734310711836" lon="115.06961181753749"><ele>180.0</ele><time>2026-04-17T03:10:46Z</time></trkpt><trkpt lat="-25.295799578068994" lon="115.0698835979521"><ele>180.0</ele><time>2026-04-17T03:10:47Z</time></trkpt><trkpt lat="-25.295865236637354" lon="115.07015940510144"><ele>180.0</ele><time>2026-04-17T03:10:48Z</time></trkpt><trkpt lat="-25.29593350834512" lon="115.07044183073597"><ele>180.0</ele><time>2026-04-17T03:10:49Z</time></trkpt><trkpt lat="-25.295999295995053" lon="115.07071160530022"><ele>180.0</ele><time>2026-04-17T03:10:50Z</time></trkpt><trkpt lat="-25.296068592410386" lon="115.07097599406487"><ele>179.5</ele><time>2026-04-17T03:10:51Z</time></trkpt><trkpt lat="-25.29612858703844" lon="115.07123658190665"><ele>179.0</ele><time>2026-04-17T03:10:52Z</time></trkpt><trkpt lat="-25.296187813363893" lon="115.07150513062534"><ele>179.0</ele><time>2026-04-17T03:10:53Z</time></trkpt><trkpt lat="-25.29623387175404" lon="115.07176126507507"><ele>179.0</ele><time>2026-04-17T03:10:54Z</time></trkpt><trkpt lat="-25.296290021756434" lon="115.07203060267861"><ele>179.0</ele><time>2026-04-17T03:10:55Z</time></trkpt><trkpt lat="-25.296342614526584" lon="115.07229681770075"><ele>179.0</ele><time>2026-04-17T03:10:56Z</time></trkpt><trkpt lat="-25.2963975501112" lon="115.07257562428141"><ele>178.5</ele><time>2026-04-17T03:10:57Z</time></trkpt><trkpt lat="-25.296455331037507" lon="115.07286002688717"><ele>178.0</ele><time>2026-04-17T03:10:58Z</time></trkpt><trkpt lat="-25.296519847499503" lon="115.07315169641363"><ele>178.5</ele><time>2026-04-17T03:10:59Z</time></trkpt><trkpt lat="-25.296586215383016" lon="115.0734481984683"><ele>179.0</ele><time>2026-04-17T03:11:00Z</time></trkpt><trkpt lat="-25.29665245700926" lon="115.07374898767645"><ele>179.0</ele><time>2026-04-17T03:11:01Z</time></trkpt><trkpt lat="-25.296719557022392" lon="115.07405479283533"><ele>179.0</ele><time>2026-04-17T03:11:02Z</time></trkpt><trkpt lat="-25.296789856087646" lon="115.0743630774164"><ele>179.0</ele><time>2026-04-17T03:11:03Z</time></trkpt><trkpt lat="-25.29685831714294" lon="115.07466731644831"><ele>179.0</ele><time>2026-04-17T03:11:04Z</time></trkpt><trkpt lat="-25.296925561697197" lon="115.07497121327131"><ele>179.0</ele><time>2026-04-17T03:11:05Z</time></trkpt><trkpt lat="-25.29699160350365" lon="115.07528104889788"><ele>179.0</ele><time>2026-04-17T03:11:06Z</time></trkpt><trkpt lat="-25.297057940301524" lon="115.07559712337417"><ele>179.0</ele><time>2026-04-17T03:11:07Z</time></trkpt><trkpt lat="-25.297125026659227" lon="115.07591560711575"><ele>179.0</ele><time>2026-04-17T03:11:08Z</time></trkpt><trkpt lat="-25.297190933467817" lon="115.07622463020192"><ele>179.0</ele><time>2026-04-17T03:11:08.999Z</time></trkpt><trkpt lat="-25.297249776277738" lon="115.07651066213809"><ele>179.0</ele><time>2026-04-17T03:11:09.999Z</time></trkpt><trkpt lat="-25.29730868882348" lon="115.0767946385647"><ele>180.0</ele><time>2026-04-17T03:11:10.999Z</time></trkpt><trkpt lat="-25.297372458930045" lon="115.07708375566655"><ele>181.0</ele><time>2026-04-17T03:11:11.999Z</time></trkpt><trkpt lat="-25.297438111449445" lon="115.07736627630017"><ele>181.0</ele><time>2026-04-17T03:11:12.999Z</time></trkpt><trkpt lat="-25.297504829102408" lon="115.07765479229248"><ele>181.0</ele><time>2026-04-17T03:11:13.999Z</time></trkpt><trkpt lat="-25.297573405578607" lon="115.07793857620743"><ele>181.0</ele><time>2026-04-17T03:11:14.999Z</time></trkpt><trkpt lat="-25.297639877954897" lon="115.07822719326562"><ele>181.0</ele><time>2026-04-17T03:11:15.999Z</time></trkpt><trkpt lat="-25.297697363606932" lon="115.0784927710638"><ele>181.5</ele><time>2026-04-17T03:11:16.999Z</time></trkpt><trkpt lat="-25.297748167340504" lon="115.07876048129222"><ele>182.0</ele><time>2026-04-17T03:11:17.999Z</time></trkpt><trkpt lat="-25.29780689814803" lon="115.07901725497923"><ele>181.5</ele><time>2026-04-17T03:11:18.999Z</time></trkpt><trkpt lat="-25.29787865610576" lon="115.0792862316982"><ele>181.0</ele><time>2026-04-17T03:11:19.999Z</time></trkpt><trkpt lat="-25.297957020056558" lon="115.07954556831851"><ele>181.0</ele><time>2026-04-17T03:11:20.999Z</time></trkpt><trkpt lat="-25.298055039940703" lon="115.07982905192904"><ele>181.0</ele><time>2026-04-17T03:11:21.999Z</time></trkpt><trkpt lat="-25.298161451181834" lon="115.08010540031474"><ele>182.5</ele><time>2026-04-17T03:11:22.999Z</time></trkpt><trkpt lat="-25.29828332562841" lon="115.08037822286694"><ele>184.0</ele><time>2026-04-17T03:11:23.999Z</time></trkpt><trkpt lat="-25.298416902159083" lon="115.08064494776852"><ele>185.0</ele><time>2026-04-17T03:11:24.999Z</time></trkpt><trkpt lat="-25.29856180480831" lon="115.08091057053245"><ele>186.0</ele><time>2026-04-17T03:11:25.999Z</time></trkpt><trkpt lat="-25.298717615628906" lon="115.0811682180552"><ele>186.0</ele><time>2026-04-17T03:11:26.999Z</time></trkpt><trkpt lat="-25.298883448473678" lon="115.08141882604382"><ele>186.0</ele><time>2026-04-17T03:11:27.999Z</time></trkpt><trkpt lat="-25.299054250656855" lon="115.08166830441967"><ele>185.0</ele><time>2026-04-17T03:11:28.999Z</time></trkpt><trkpt lat="-25.2992295282015" lon="115.08192087399703"><ele>184.0</ele><time>2026-04-17T03:11:29.999Z</time></trkpt><trkpt lat="-25.299400652310656" lon="115.08217785479272"><ele>185.0</ele><time>2026-04-17T03:11:30.999Z</time></trkpt><trkpt lat="-25.29957262460601" lon="115.08243498180165"><ele>186.0</ele><time>2026-04-17T03:11:31.999Z</time></trkpt><trkpt lat="-25.299742709316085" lon="115.08269700645258"><ele>184.5</ele><time>2026-04-17T03:11:32.999Z</time></trkpt><trkpt lat="-25.29991318808117" lon="115.08296218020837"><ele>183.0</ele><time>2026-04-17T03:11:33.999Z</time></trkpt><trkpt lat="-25.300084018764387" lon="115.08322575912771"><ele>183.5</ele><time>2026-04-17T03:11:34.999Z</time></trkpt><trkpt lat="-25.300254006371738" lon="115.08349082755949"><ele>184.0</ele><time>2026-04-17T03:11:35.999Z</time></trkpt><trkpt lat="-25.30042221084271" lon="115.08375662283063"><ele>184.0</ele><time>2026-04-17T03:11:36.999Z</time></trkpt><trkpt lat="-25.300581922616747" lon="115.08401649288203"><ele>184.0</ele><time>2026-04-17T03:11:37.999Z</time></trkpt><trkpt lat="-25.300736797535432" lon="115.0842559682045"><ele>183.0</ele><time>2026-04-17T03:11:38.999Z</time></trkpt><trkpt lat="-25.300887644436877" lon="115.08447018373411"><ele>182.0</ele><time>2026-04-17T03:11:39.999Z</time></trkpt><trkpt lat="-25.30104223923012" lon="115.08467921550802"><ele>182.0</ele><time>2026-04-17T03:11:40.999Z</time></trkpt><trkpt lat="-25.30118180745548" lon="115.08488526434068"><ele>182.0</ele><time>2026-04-17T03:11:41.999Z</time></trkpt><trkpt lat="-25.3013131739661" lon="115.08509960767022"><ele>181.5</ele><time>2026-04-17T03:11:42.999Z</time></trkpt><trkpt lat="-25.301435061902176" lon="115.08531128778885"><ele>181.0</ele><time>2026-04-17T03:11:43.999Z</time></trkpt><trkpt lat="-25.30154416367963" lon="115.08553032555822"><ele>181.0</ele><time>2026-04-17T03:11:44.999Z</time></trkpt><trkpt lat="-25.3016353208906" lon="115.0857574907178"><ele>181.0</ele><time>2026-04-17T03:11:45.999Z</time></trkpt><trkpt lat="-25.301712587016553" lon="115.0860076764675"><ele>182.5</ele><time>2026-04-17T03:11:46.999Z</time></trkpt><trkpt lat="-25.301778691252817" lon="115.08626153641922"><ele>184.0</ele><time>2026-04-17T03:11:47.999Z</time></trkpt><trkpt lat="-25.30183353910108" lon="115.0865333169149"><ele>184.0</ele><time>2026-04-17T03:11:48.999Z</time></trkpt><trkpt lat="-25.301874879547857" lon="115.08681746861791"><ele>184.0</ele><time>2026-04-17T03:11:49.999Z</time></trkpt><trkpt lat="-25.301909153397492" lon="115.08709605388177"><ele>184.0</ele><time>2026-04-17T03:11:50.999Z</time></trkpt><trkpt lat="-25.30193228694864" lon="115.08739226927493"><ele>184.0</ele><time>2026-04-17T03:11:51.999Z</time></trkpt><trkpt lat="-25.301948953174765" lon="115.08767955303227"><ele>184.0</ele><time>2026-04-17T03:11:52.999Z</time></trkpt><trkpt lat="-25.301960350890905" lon="115.08796811849658"><ele>184.0</ele><time>2026-04-17T03:11:53.999Z</time></trkpt><trkpt lat="-25.301960993972187" lon="115.08826692587034"><ele>183.0</ele><time>2026-04-17T03:11:54.999Z</time></trkpt><trkpt lat="-25.301951183953637" lon="115.08857069911707"><ele>182.0</ele><time>2026-04-17T03:11:55.999Z</time></trkpt><trkpt lat="-25.301931851194446" lon="115.08887610055295"><ele>182.0</ele><time>2026-04-17T03:11:56.999Z</time></trkpt><trkpt lat="-25.301897385968086" lon="115.08918290911694"><ele>182.0</ele><time>2026-04-17T03:11:57.999Z</time></trkpt><trkpt lat="-25.301844311656815" lon="115.08948566016778"><ele>182.0</ele><time>2026-04-17T03:11:58.999Z</time></trkpt><trkpt lat="-25.30178575303711" lon="115.08978500161537"><ele>182.0</ele><time>2026-04-17T03:11:59.999Z</time></trkpt><trkpt lat="-25.301725449728767" lon="115.0900634980993"><ele>182.5</ele><time>2026-04-17T03:12:00.999Z</time></trkpt><trkpt lat="-25.30166653570481" lon="115.09032719807277"><ele>183.0</ele><time>2026-04-17T03:12:01.999Z</time></trkpt><trkpt lat="-25.301601366447116" lon="115.09057716430125"><ele>183.0</ele><time>2026-04-17T03:12:02.999Z</time></trkpt><trkpt lat="-25.30152928946683" lon="115.09081114188433"><ele>183.0</ele><time>2026-04-17T03:12:03.999Z</time></trkpt><trkpt lat="-25.301459657310723" lon="115.09104390947279"><ele>183.0</ele><time>2026-04-17T03:12:04.999Z</time></trkpt><trkpt lat="-25.301388112257392" lon="115.09129544887331"><ele>182.66666666666666</ele><time>2026-04-17T03:12:05.999Z</time></trkpt><trkpt lat="-25.301317098128532" lon="115.09154613157031"><ele>182.33333333333331</ele><time>2026-04-17T03:12:06.999Z</time></trkpt><trkpt lat="-25.301282178123635" lon="115.09176111045726"><ele>182.0</ele><time>2026-04-17T03:12:07.999Z</time></trkpt><trkpt lat="-25.30123194559659" lon="115.09197553453699"><ele>182.0</ele><time>2026-04-17T03:12:08.999Z</time></trkpt><trkpt lat="-25.30118354900976" lon="115.09219763246004"><ele>182.0</ele><time>2026-04-17T03:12:09.999Z</time></trkpt><trkpt lat="-25.301130541560074" lon="115.09242785467043"><ele>182.0</ele><time>2026-04-17T03:12:10.999Z</time></trkpt><trkpt lat="-25.30108104525296" lon="115.09267056815196"><ele>183.0</ele><time>2026-04-17T03:12:11.999Z</time></trkpt><trkpt lat="-25.301024393228044" lon="115.0929292286973"><ele>184.0</ele><time>2026-04-17T03:12:12.999Z</time></trkpt><trkpt lat="-25.300965372096446" lon="115.09319023516814"><ele>184.0</ele><time>2026-04-17T03:12:13.999Z</time></trkpt><trkpt lat="-25.300901827921592" lon="115.0934608573601"><ele>184.0</ele><time>2026-04-17T03:12:14.999Z</time></trkpt><trkpt lat="-25.300837698293925" lon="115.09372835112151"><ele>184.0</ele><time>2026-04-17T03:12:15.999Z</time></trkpt><trkpt lat="-25.300771478809676" lon="115.09399694212765"><ele>184.0</ele><time>2026-04-17T03:12:16.999Z</time></trkpt><trkpt lat="-25.300700391189146" lon="115.09426400287032"><ele>183.5</ele><time>2026-04-17T03:12:17.999Z</time></trkpt><trkpt lat="-25.300634275485127" lon="115.09452642126938"><ele>183.0</ele><time>2026-04-17T03:12:18.999Z</time></trkpt><trkpt lat="-25.300585634791787" lon="115.0947636610988"><ele>183.0</ele><time>2026-04-17T03:12:19.999Z</time></trkpt><trkpt lat="-25.300549230016482" lon="115.0949845986636"><ele>183.0</ele><time>2026-04-17T03:12:20.999Z</time></trkpt><trkpt lat="-25.300524354536407" lon="115.0952053477097"><ele>183.0</ele><time>2026-04-17T03:12:21.999Z</time></trkpt><trkpt lat="-25.300516502169202" lon="115.09542231418388"><ele>183.0</ele><time>2026-04-17T03:12:22.999Z</time></trkpt><trkpt lat="-25.3005236768262" lon="115.09564716535584"><ele>183.0</ele><time>2026-04-17T03:12:23.999Z</time></trkpt><trkpt lat="-25.30054677563754" lon="115.09588806965063"><ele>183.0</ele><time>2026-04-17T03:12:24.999Z</time></trkpt><trkpt lat="-25.30059042081004" lon="115.09614477618955"><ele>183.0</ele><time>2026-04-17T03:12:25.999Z</time></trkpt><trkpt lat="-25.30064493964675" lon="115.09641121089793"><ele>183.0</ele><time>2026-04-17T03:12:26.999Z</time></trkpt><trkpt lat="-25.300709015190336" lon="115.09668678690687"><ele>184.0</ele><time>2026-04-17T03:12:27.999Z</time></trkpt><trkpt lat="-25.300778880204042" lon="115.09695920910508"><ele>185.0</ele><time>2026-04-17T03:12:28.999Z</time></trkpt><trkpt lat="-25.30086064870401" lon="115.097228225906"><ele>183.5</ele><time>2026-04-17T03:12:29.999Z</time></trkpt><trkpt lat="-25.3009470364345" lon="115.09749847085112"><ele>182.0</ele><time>2026-04-17T03:12:30.999Z</time></trkpt><trkpt lat="-25.30104543720756" lon="115.09777764226997"><ele>182.0</ele><time>2026-04-17T03:12:31.999Z</time></trkpt><trkpt lat="-25.30115064018543" lon="115.09805728474393"><ele>182.0</ele><time>2026-04-17T03:12:32.999Z</time></trkpt><trkpt lat="-25.301258702795337" lon="115.09833823281701"><ele>181.0</ele><time>2026-04-17T03:12:33.999Z</time></trkpt><trkpt lat="-25.301367911931543" lon="115.09861996155493"><ele>180.0</ele><time>2026-04-17T03:12:34.999Z</time></trkpt><trkpt lat="-25.30147666856131" lon="115.09890147383798"><ele>181.5</ele><time>2026-04-17T03:12:35.999Z</time></trkpt><trkpt lat="-25.301579304337153" lon="115.0991825465914"><ele>183.0</ele><time>2026-04-17T03:12:36.999Z</time></trkpt><trkpt lat="-25.301684243260173" lon="115.0994666102093"><ele>183.0</ele><time>2026-04-17T03:12:37.999Z</time></trkpt><trkpt lat="-25.301795201696816" lon="115.09974935741572"><ele>183.0</ele><time>2026-04-17T03:12:38.999Z</time></trkpt><trkpt lat="-25.301906109007646" lon="115.10002884214045"><ele>184.0</ele><time>2026-04-17T03:12:39.999Z</time></trkpt><trkpt lat="-25.302017243663997" lon="115.10031120345423"><ele>185.0</ele><time>2026-04-17T03:12:40.999Z</time></trkpt><trkpt lat="-25.30212579504213" lon="115.10058856242092"><ele>184.5</ele><time>2026-04-17T03:12:41.999Z</time></trkpt><trkpt lat="-25.302234240272718" lon="115.10086430257981"><ele>184.0</ele><time>2026-04-17T03:12:42.999Z</time></trkpt><trkpt lat="-25.30234750463162" lon="115.10113904939855"><ele>184.0</ele><time>2026-04-17T03:12:43.999Z</time></trkpt><trkpt lat="-25.302464203436692" lon="115.10140265541075"><ele>184.0</ele><time>2026-04-17T03:12:44.999Z</time></trkpt><trkpt lat="-25.30257995013614" lon="115.10165851311022"><ele>183.0</ele><time>2026-04-17T03:12:45.999Z</time></trkpt><trkpt lat="-25.302696653309447" lon="115.10191345440498"><ele>182.0</ele><time>2026-04-17T03:12:46.999Z</time></trkpt><trkpt lat="-25.30282030788844" lon="115.10217530646918"><ele>183.5</ele><time>2026-04-17T03:12:47.999Z</time></trkpt><trkpt lat="-25.30293675373319" lon="115.10241765553701"><ele>185.0</ele><time>2026-04-17T03:12:48.999Z</time></trkpt><trkpt lat="-25.30306233024337" lon="115.10267098023645"><ele>184.5</ele><time>2026-04-17T03:12:49.999Z</time></trkpt><trkpt lat="-25.303181995842085" lon="115.10292684270891"><ele>184.0</ele><time>2026-04-17T03:12:50.999Z</time></trkpt><trkpt lat="-25.303297955300422" lon="115.10318754617212"><ele>184.5</ele><time>2026-04-17T03:12:51.999Z</time></trkpt><trkpt lat="-25.303403308913623" lon="115.10345185055259"><ele>185.0</ele><time>2026-04-17T03:12:52.999Z</time></trkpt><trkpt lat="-25.303495005160645" lon="115.10371129571193"><ele>185.0</ele><time>2026-04-17T03:12:53.999Z</time></trkpt><trkpt lat="-25.30357247002766" lon="115.10397880807484"><ele>185.0</ele><time>2026-04-17T03:12:54.999Z</time></trkpt><trkpt lat="-25.303630423932525" lon="115.10425592154336"><ele>185.0</ele><time>2026-04-17T03:12:55.999Z</time></trkpt><trkpt lat="-25.303674607193653" lon="115.10453653439663"><ele>185.0</ele><time>2026-04-17T03:12:56.999Z</time></trkpt><trkpt lat="-25.30370794319162" lon="115.10482453769512"><ele>185.5</ele><time>2026-04-17T03:12:57.999Z</time></trkpt><trkpt lat="-25.303733896498784" lon="115.1051173715589"><ele>186.0</ele><time>2026-04-17T03:12:58.999Z</time></trkpt><trkpt lat="-25.30375753323806" lon="115.10540192495965"><ele>186.0</ele><time>2026-04-17T03:12:59.999Z</time></trkpt><trkpt lat="-25.303778869404212" lon="115.10569670444352"><ele>186.0</ele><time>2026-04-17T03:13:00.999Z</time></trkpt><trkpt lat="-25.303798644804164" lon="115.10599173166204"><ele>185.5</ele><time>2026-04-17T03:13:01.999Z</time></trkpt><trkpt lat="-25.30381556288182" lon="115.10627837963663"><ele>185.0</ele><time>2026-04-17T03:13:02.999Z</time></trkpt><trkpt lat="-25.30383767797985" lon="115.10656114625563"><ele>187.0</ele><time>2026-04-17T03:13:03.999Z</time></trkpt><trkpt lat="-25.303856882157135" lon="115.1068436239584"><ele>189.0</ele><time>2026-04-17T03:13:04.999Z</time></trkpt><trkpt lat="-25.30385716284141" lon="115.10711129671645"><ele>189.0</ele><time>2026-04-17T03:13:05.999Z</time></trkpt><trkpt lat="-25.303840490658516" lon="115.1074064559653"><ele>189.0</ele><time>2026-04-17T03:13:06.999Z</time></trkpt><trkpt lat="-25.303813754524676" lon="115.10771009747911"><ele>188.0</ele><time>2026-04-17T03:13:07.999Z</time></trkpt><trkpt lat="-25.303785116770463" lon="115.10801998936526"><ele>187.0</ele><time>2026-04-17T03:13:08.999Z</time></trkpt><trkpt lat="-25.303757183069024" lon="115.10833636397527"><ele>187.0</ele><time>2026-04-17T03:13:09.999Z</time></trkpt><trkpt lat="-25.303730565758837" lon="115.10865333665035"><ele>187.0</ele><time>2026-04-17T03:13:10.999Z</time></trkpt><trkpt lat="-25.30369962674386" lon="115.1089697326676"><ele>187.5</ele><time>2026-04-17T03:13:11.999Z</time></trkpt><trkpt lat="-25.303665721093058" lon="115.10928905680964"><ele>188.0</ele><time>2026-04-17T03:13:12.999Z</time></trkpt><trkpt lat="-25.30363294361405" lon="115.10960174903542"><ele>186.5</ele><time>2026-04-17T03:13:13.999Z</time></trkpt><trkpt lat="-25.30359938403569" lon="115.10991226095649"><ele>185.0</ele><time>2026-04-17T03:13:14.999Z</time></trkpt><trkpt lat="-25.30356195151684" lon="115.11021800682289"><ele>185.0</ele><time>2026-04-17T03:13:15.999Z</time></trkpt><trkpt lat="-25.30352335419336" lon="115.11052323902514"><ele>185.0</ele><time>2026-04-17T03:13:16.999Z</time></trkpt><trkpt lat="-25.303489125298835" lon="115.11082315299812"><ele>183.0</ele><time>2026-04-17T03:13:17.999Z</time></trkpt><trkpt lat="-25.303459837485374" lon="115.11112353351747"><ele>181.0</ele><time>2026-04-17T03:13:18.999Z</time></trkpt><trkpt lat="-25.303436593230717" lon="115.11141026909469"><ele>182.0</ele><time>2026-04-17T03:13:19.999Z</time></trkpt><trkpt lat="-25.303412104024186" lon="115.1117033652264"><ele>183.0</ele><time>2026-04-17T03:13:20.999Z</time></trkpt><trkpt lat="-25.303387456440817" lon="115.11198268032486"><ele>183.0</ele><time>2026-04-17T03:13:21.999Z</time></trkpt><trkpt lat="-25.303352674224865" lon="115.11224706569064"><ele>183.0</ele><time>2026-04-17T03:13:22.999Z</time></trkpt><trkpt lat="-25.30329977048961" lon="115.11249738984075"><ele>183.0</ele><time>2026-04-17T03:13:23.999Z</time></trkpt><trkpt lat="-25.303235265793997" lon="115.11273401421549"><ele>183.0</ele><time>2026-04-17T03:13:24.999Z</time></trkpt><trkpt lat="-25.303154578166517" lon="115.11295972923935"><ele>183.0</ele><time>2026-04-17T03:13:25.999Z</time></trkpt><trkpt lat="-25.303056235741796" lon="115.11318799417411"><ele>182.0</ele><time>2026-04-17T03:13:26.999Z</time></trkpt><trkpt lat="-25.30294207082877" lon="115.11340571616778"><ele>181.0</ele><time>2026-04-17T03:13:27.999Z</time></trkpt><trkpt lat="-25.302814039431283" lon="115.11362007261084"><ele>181.0</ele><time>2026-04-17T03:13:28.999Z</time></trkpt><trkpt lat="-25.302666017386464" lon="115.11384529460585"><ele>181.0</ele><time>2026-04-17T03:13:29.999Z</time></trkpt><trkpt lat="-25.302515180948138" lon="115.11407195456437"><ele>181.5</ele><time>2026-04-17T03:13:30.999Z</time></trkpt><trkpt lat="-25.302363389411287" lon="115.11430105434822"><ele>182.0</ele><time>2026-04-17T03:13:31.999Z</time></trkpt><trkpt lat="-25.30220892988093" lon="115.11453540331813"><ele>181.0</ele><time>2026-04-17T03:13:32.999Z</time></trkpt><trkpt lat="-25.302055857135663" lon="115.11476881103448"><ele>180.0</ele><time>2026-04-17T03:13:33.999Z</time></trkpt><trkpt lat="-25.301899276931596" lon="115.1150041071297"><ele>180.0</ele><time>2026-04-17T03:13:34.999Z</time></trkpt><trkpt lat="-25.301739375726275" lon="115.1152352980446"><ele>180.0</ele><time>2026-04-17T03:13:35.999Z</time></trkpt><trkpt lat="-25.30157619593644" lon="115.11545802639137"><ele>179.5</ele><time>2026-04-17T03:13:36.999Z</time></trkpt><trkpt lat="-25.301407308534834" lon="115.11568128160064"><ele>179.0</ele><time>2026-04-17T03:13:37.999Z</time></trkpt><trkpt lat="-25.301241549596277" lon="115.11590087412416"><ele>180.0</ele><time>2026-04-17T03:13:38.999Z</time></trkpt><trkpt lat="-25.301083166148405" lon="115.1161206780591"><ele>181.0</ele><time>2026-04-17T03:13:39.999Z</time></trkpt><trkpt lat="-25.300930010388402" lon="115.11633775141577"><ele>181.0</ele><time>2026-04-17T03:13:40.999Z</time></trkpt><trkpt lat="-25.300783813025525" lon="115.11654595049322"><ele>181.0</ele><time>2026-04-17T03:13:41.999Z</time></trkpt><trkpt lat="-25.300645657367426" lon="115.11674449391336"><ele>180.0</ele><time>2026-04-17T03:13:42.999Z</time></trkpt><trkpt lat="-25.300512687275887" lon="115.11693667587782"><ele>179.0</ele><time>2026-04-17T03:13:43.999Z</time></trkpt><trkpt lat="-25.300395158653647" lon="115.11711419137943"><ele>178.0</ele><time>2026-04-17T03:13:44.999Z</time></trkpt><trkpt lat="-25.30029128390858" lon="115.11728238951164"><ele>177.75</ele><time>2026-04-17T03:13:45.999Z</time></trkpt><trkpt lat="-25.300205803983985" lon="115.11743654930837"><ele>177.5</ele><time>2026-04-17T03:13:46.999Z</time></trkpt><trkpt lat="-25.300139798016083" lon="115.11757797429306"><ele>177.25</ele><time>2026-04-17T03:13:47.999Z</time></trkpt><trkpt lat="-25.300086079000234" lon="115.11771185107867"><ele>177.0</ele><time>2026-04-17T03:13:48.999Z</time></trkpt><trkpt lat="-25.300015303867077" lon="115.11786495982656"><ele>177.0</ele><time>2026-04-17T03:13:49.999Z</time></trkpt><trkpt lat="-25.2999426000369" lon="115.11802169065867"><ele>177.0</ele><time>2026-04-17T03:13:50.999Z</time></trkpt><trkpt lat="-25.299871436145896" lon="115.11818767791694"><ele>177.0</ele><time>2026-04-17T03:13:51.999Z</time></trkpt><trkpt lat="-25.299821977060596" lon="115.11831712080613"><ele>177.0</ele><time>2026-04-17T03:13:52.999Z</time></trkpt><trkpt lat="-25.2997552051607" lon="115.11848450454342"><ele>177.0</ele><time>2026-04-17T03:13:53.999Z</time></trkpt><trkpt lat="-25.29968580910674" lon="115.11866418462242"><ele>177.0</ele><time>2026-04-17T03:13:54.999Z</time></trkpt><trkpt lat="-25.299629682314418" lon="115.11884091415016"><ele>178.0</ele><time>2026-04-17T03:13:55.999Z</time></trkpt><trkpt lat="-25.29958069636427" lon="115.1190363964416"><ele>179.0</ele><time>2026-04-17T03:13:56.999Z</time></trkpt><trkpt lat="-25.29954835204326" lon="115.1192550025462"><ele>180.0</ele><time>2026-04-17T03:13:57.999Z</time></trkpt><trkpt lat="-25.299525726314137" lon="115.11948047031925"><ele>180.0</ele><time>2026-04-17T03:13:58.999Z</time></trkpt><trkpt lat="-25.29950741466888" lon="115.11972558892995"><ele>180.0</ele><time>2026-04-17T03:13:59.999Z</time></trkpt><trkpt lat="-25.29949040659626" lon="115.11996478596572"><ele>180.0</ele><time>2026-04-17T03:14:00.999Z</time></trkpt><trkpt lat="-25.299470195210553" lon="115.12020217149956"><ele>180.0</ele><time>2026-04-17T03:14:01.999Z</time></trkpt><trkpt lat="-25.29945498113863" lon="115.12043012597783"><ele>180.0</ele><time>2026-04-17T03:14:02.999Z</time></trkpt><trkpt lat="-25.299437129582742" lon="115.12066123138656"><ele>180.0</ele><time>2026-04-17T03:14:03.999Z</time></trkpt><trkpt lat="-25.29942598521817" lon="115.12089870540179"><ele>179.0</ele><time>2026-04-17T03:14:04.999Z</time></trkpt><trkpt lat="-25.299414579371028" lon="115.121146803"><ele>178.0</ele><time>2026-04-17T03:14:05.999Z</time></trkpt><trkpt lat="-25.299401010875037" lon="115.1214031941399"><ele>179.0</ele><time>2026-04-17T03:14:06.999Z</time></trkpt><trkpt lat="-25.299394466720337" lon="115.12167936950917"><ele>180.0</ele><time>2026-04-17T03:14:07.999Z</time></trkpt><trkpt lat="-25.299379965236245" lon="115.12197125191211"><ele>180.0</ele><time>2026-04-17T03:14:08.999Z</time></trkpt><trkpt lat="-25.29936392847483" lon="115.12225849302543"><ele>180.0</ele><time>2026-04-17T03:14:09.999Z</time></trkpt><trkpt lat="-25.29934894560503" lon="115.12256391536417"><ele>181.0</ele><time>2026-04-17T03:14:10.999Z</time></trkpt><trkpt lat="-25.299333362165964" lon="115.12288410818297"><ele>182.0</ele><time>2026-04-17T03:14:11.999Z</time></trkpt><trkpt lat="-25.29931999377712" lon="115.12321343392011"><ele>181.0</ele><time>2026-04-17T03:14:12.999Z</time></trkpt><trkpt lat="-25.299303838122878" lon="115.12355087334319"><ele>180.0</ele><time>2026-04-17T03:14:13.999Z</time></trkpt><trkpt lat="-25.299290625995205" lon="115.12386973725175"><ele>181.0</ele><time>2026-04-17T03:14:14.999Z</time></trkpt><trkpt lat="-25.299272657920294" lon="115.12419218707981"><ele>182.0</ele><time>2026-04-17T03:14:15.999Z</time></trkpt><trkpt lat="-25.299252766166266" lon="115.12451860523748"><ele>182.0</ele><time>2026-04-17T03:14:16.999Z</time></trkpt><trkpt lat="-25.29923156084936" lon="115.1248468519824"><ele>182.0</ele><time>2026-04-17T03:14:17.999Z</time></trkpt><trkpt lat="-25.299207330316435" lon="115.12517205996488"><ele>181.5</ele><time>2026-04-17T03:14:18.999Z</time></trkpt><trkpt lat="-25.299188566327587" lon="115.12549436295495"><ele>181.0</ele><time>2026-04-17T03:14:19.999Z</time></trkpt><trkpt lat="-25.29916984863224" lon="115.12582314174901"><ele>180.5</ele><time>2026-04-17T03:14:20.999Z</time></trkpt><trkpt lat="-25.29915281764422" lon="115.12614478764783"><ele>180.0</ele><time>2026-04-17T03:14:21.999Z</time></trkpt><trkpt lat="-25.299140968325926" lon="115.12646944512315"><ele>181.0</ele><time>2026-04-17T03:14:22.999Z</time></trkpt><trkpt lat="-25.2991317036675" lon="115.12679182741245"><ele>182.0</ele><time>2026-04-17T03:14:23.999Z</time></trkpt><trkpt lat="-25.299129501312137" lon="115.12712053626205"><ele>182.5</ele><time>2026-04-17T03:14:24.999Z</time></trkpt><trkpt lat="-25.299143100276954" lon="115.12744066121778"><ele>183.0</ele><time>2026-04-17T03:14:25.999Z</time></trkpt><trkpt lat="-25.2991669862223" lon="115.1277607194971"><ele>183.0</ele><time>2026-04-17T03:14:26.999Z</time></trkpt><trkpt lat="-25.29920119325002" lon="115.12807625923253"><ele>183.0</ele><time>2026-04-17T03:14:27.999Z</time></trkpt><trkpt lat="-25.29923777642373" lon="115.12839282282735"><ele>182.0</ele><time>2026-04-17T03:14:28.999Z</time></trkpt><trkpt lat="-25.29927238569773" lon="115.12871211492997"><ele>181.0</ele><time>2026-04-17T03:14:29.999Z</time></trkpt><trkpt lat="-25.29930456556811" lon="115.12903222986787"><ele>182.0</ele><time>2026-04-17T03:14:30.999Z</time></trkpt><trkpt lat="-25.299342533335246" lon="115.12934915144072"><ele>183.0</ele><time>2026-04-17T03:14:31.999Z</time></trkpt><trkpt lat="-25.299388968887037" lon="115.12964168251546"><ele>183.5</ele><time>2026-04-17T03:14:32.999Z</time></trkpt><trkpt lat="-25.299448708682128" lon="115.12991024014508"><ele>184.0</ele><time>2026-04-17T03:14:33.999Z</time></trkpt><trkpt lat="-25.299528502005128" lon="115.1301705337813"><ele>184.0</ele><time>2026-04-17T03:14:34.999Z</time></trkpt><trkpt lat="-25.29963168192406" lon="115.13042281673181"><ele>184.0</ele><time>2026-04-17T03:14:35.999Z</time></trkpt><trkpt lat="-25.29975895877075" lon="115.13066862839143"><ele>184.0</ele><time>2026-04-17T03:14:36.999Z</time></trkpt><trkpt lat="-25.299897225461933" lon="115.13091719691185"><ele>184.0</ele><time>2026-04-17T03:14:37.999Z</time></trkpt><trkpt lat="-25.300038144327356" lon="115.13117190273178"><ele>184.0</ele><time>2026-04-17T03:14:38.999Z</time></trkpt><trkpt lat="-25.30018266336911" lon="115.13143417955624"><ele>184.0</ele><time>2026-04-17T03:14:39.999Z</time></trkpt><trkpt lat="-25.300334624094454" lon="115.13169760372165"><ele>184.5</ele><time>2026-04-17T03:14:40.999Z</time></trkpt><trkpt lat="-25.300494444255573" lon="115.1319589734077"><ele>185.0</ele><time>2026-04-17T03:14:41.999Z</time></trkpt><trkpt lat="-25.30065762239084" lon="115.13222205082798"><ele>186.5</ele><time>2026-04-17T03:14:42.999Z</time></trkpt><trkpt lat="-25.30082499271864" lon="115.13248615453172"><ele>188.0</ele><time>2026-04-17T03:14:43.999Z</time></trkpt><trkpt lat="-25.30098825633658" lon="115.13274804682615"><ele>188.0</ele><time>2026-04-17T03:14:44.999Z</time></trkpt><trkpt lat="-25.301141456135053" lon="115.13300620934339"><ele>188.0</ele><time>2026-04-17T03:14:45.999Z</time></trkpt><trkpt lat="-25.301294612718454" lon="115.13326067484442"><ele>188.0</ele><time>2026-04-17T03:14:46.999Z</time></trkpt><trkpt lat="-25.301453789949107" lon="115.13351633483839"><ele>188.0</ele><time>2026-04-17T03:14:47.999Z</time></trkpt><trkpt lat="-25.30161354412993" lon="115.13375725474143"><ele>188.0</ele><time>2026-04-17T03:14:48.999Z</time></trkpt><trkpt lat="-25.301779956109627" lon="115.13397522239775"><ele>188.0</ele><time>2026-04-17T03:14:49.999Z</time></trkpt><trkpt lat="-25.301959605097103" lon="115.13418497940309"><ele>188.5</ele><time>2026-04-17T03:14:50.999Z</time></trkpt><trkpt lat="-25.30215527901316" lon="115.13438980908552"><ele>189.0</ele><time>2026-04-17T03:14:51.999Z</time></trkpt><trkpt lat="-25.30236522763586" lon="115.13458682422828"><ele>189.0</ele><time>2026-04-17T03:14:52.999Z</time></trkpt><trkpt lat="-25.302584099045024" lon="115.13477043539646"><ele>189.0</ele><time>2026-04-17T03:14:53.999Z</time></trkpt><trkpt lat="-25.302818647097492" lon="115.13494285355489"><ele>189.0</ele><time>2026-04-17T03:14:54.999Z</time></trkpt><trkpt lat="-25.303051023937062" lon="115.13509284280195"><ele>189.0</ele><time>2026-04-17T03:14:55.999Z</time></trkpt><trkpt lat="-25.303292238788565" lon="115.13523015260398"><ele>190.5</ele><time>2026-04-17T03:14:56.999Z</time></trkpt><trkpt lat="-25.303534904316464" lon="115.13535929564814"><ele>192.0</ele><time>2026-04-17T03:14:57.999Z</time></trkpt><trkpt lat="-25.303781661337233" lon="115.13548920671225"><ele>191.5</ele><time>2026-04-17T03:14:58.999Z</time></trkpt><trkpt lat="-25.30403424300499" lon="115.1356209243198"><ele>191.0</ele><time>2026-04-17T03:14:59.999Z</time></trkpt><trkpt lat="-25.304290402220637" lon="115.13575320810908"><ele>190.0</ele><time>2026-04-17T03:15:00.999Z</time></trkpt><trkpt lat="-25.30454436768157" lon="115.13588670862966"><ele>189.0</ele><time>2026-04-17T03:15:01.999Z</time></trkpt><trkpt lat="-25.30479333524825" lon="115.13601850328784"><ele>189.0</ele><time>2026-04-17T03:15:02.999Z</time></trkpt><trkpt lat="-25.30503669863271" lon="115.1361484358353"><ele>189.0</ele><time>2026-04-17T03:15:03.999Z</time></trkpt><trkpt lat="-25.305282284412435" lon="115.13628293298544"><ele>189.0</ele><time>2026-04-17T03:15:04.999Z</time></trkpt><trkpt lat="-25.305527006709102" lon="115.13642183235481"><ele>189.0</ele><time>2026-04-17T03:15:05.999Z</time></trkpt><trkpt lat="-25.305767211542513" lon="115.13656794100883"><ele>189.0</ele><time>2026-04-17T03:15:06.999Z</time></trkpt><trkpt lat="-25.30600039427424" lon="115.13672300254215"><ele>189.0</ele><time>2026-04-17T03:15:07.999Z</time></trkpt><trkpt lat="-25.30622056809342" lon="115.13688760647875"><ele>190.0</ele><time>2026-04-17T03:15:08.999Z</time></trkpt><trkpt lat="-25.306436123509496" lon="115.13706943085903"><ele>191.0</ele><time>2026-04-17T03:15:09.999Z</time></trkpt><trkpt lat="-25.306645998367827" lon="115.13726736870476"><ele>190.5</ele><time>2026-04-17T03:15:10.999Z</time></trkpt><trkpt lat="-25.30685080594237" lon="115.13747938073631"><ele>190.0</ele><time>2026-04-17T03:15:11.999Z</time></trkpt><trkpt lat="-25.307046942575624" lon="115.13770477192726"><ele>190.0</ele><time>2026-04-17T03:15:12.999Z</time></trkpt><trkpt lat="-25.307236639704268" lon="115.13794239573629"><ele>190.0</ele><time>2026-04-17T03:15:13.999Z</time></trkpt><trkpt lat="-25.307422423398016" lon="115.13819384842158"><ele>190.5</ele><time>2026-04-17T03:15:14.999Z</time></trkpt><trkpt lat="-25.307600364964458" lon="115.13845482582286"><ele>191.0</ele><time>2026-04-17T03:15:15.999Z</time></trkpt><trkpt lat="-25.307770599959348" lon="115.1387214476021"><ele>191.0</ele><time>2026-04-17T03:15:16.999Z</time></trkpt><trkpt lat="-25.30793816204555" lon="115.13899108541376"><ele>191.0</ele><time>2026-04-17T03:15:17.999Z</time></trkpt><trkpt lat="-25.30810965256618" lon="115.13926076330537"><ele>191.5</ele><time>2026-04-17T03:15:18.999Z</time></trkpt><trkpt lat="-25.308283447606993" lon="115.13952943316403"><ele>192.0</ele><time>2026-04-17T03:15:19.999Z</time></trkpt><trkpt lat="-25.308457953279756" lon="115.13979445381756"><ele>192.0</ele><time>2026-04-17T03:15:20.999Z</time></trkpt><trkpt lat="-25.30863261101909" lon="115.14006031196541"><ele>192.0</ele><time>2026-04-17T03:15:21.999Z</time></trkpt><trkpt lat="-25.308807302294777" lon="115.14032720699112"><ele>191.5</ele><time>2026-04-17T03:15:22.999Z</time></trkpt><trkpt lat="-25.30898204102655" lon="115.14059646046921"><ele>191.0</ele><time>2026-04-17T03:15:23.999Z</time></trkpt><trkpt lat="-25.309157837175043" lon="115.14086557389552"><ele>191.0</ele><time>2026-04-17T03:15:24.999Z</time></trkpt><trkpt lat="-25.309334077279086" lon="115.14113316345856"><ele>191.0</ele><time>2026-04-17T03:15:25.999Z</time></trkpt><trkpt lat="-25.309512449581394" lon="115.14140144225914"><ele>190.5</ele><time>2026-04-17T03:15:26.999Z</time></trkpt><trkpt lat="-25.309689674394065" lon="115.14167004478975"><ele>190.0</ele><time>2026-04-17T03:15:27.999Z</time></trkpt><trkpt lat="-25.30986868343577" lon="115.14194500769487"><ele>190.5</ele><time>2026-04-17T03:15:28.999Z</time></trkpt><trkpt lat="-25.310047053922357" lon="115.14222124693572"><ele>191.0</ele><time>2026-04-17T03:15:29.999Z</time></trkpt><trkpt lat="-25.31022370355983" lon="115.14249223901582"><ele>191.0</ele><time>2026-04-17T03:15:30.999Z</time></trkpt><trkpt lat="-25.310400022956244" lon="115.14276759176656"><ele>191.0</ele><time>2026-04-17T03:15:31.999Z</time></trkpt><trkpt lat="-25.31057944653011" lon="115.14304826514555"><ele>192.5</ele><time>2026-04-17T03:15:32.999Z</time></trkpt><trkpt lat="-25.310758240224057" lon="115.14332486169552"><ele>194.0</ele><time>2026-04-17T03:15:33.999Z</time></trkpt><trkpt lat="-25.310934678932913" lon="115.14359861680603"><ele>194.0</ele><time>2026-04-17T03:15:34.999Z</time></trkpt><trkpt lat="-25.31111329822607" lon="115.14387481090942"><ele>194.0</ele><time>2026-04-17T03:15:35.999Z</time></trkpt><trkpt lat="-25.31129261346746" lon="115.14414995703272"><ele>192.5</ele><time>2026-04-17T03:15:36.999Z</time></trkpt><trkpt lat="-25.31147716647868" lon="115.14442015605034"><ele>191.0</ele><time>2026-04-17T03:15:37.999Z</time></trkpt><trkpt lat="-25.311669665558785" lon="115.14468023732782"><ele>192.0</ele><time>2026-04-17T03:15:38.999Z</time></trkpt><trkpt lat="-25.311871548582104" lon="115.14493135951592"><ele>193.0</ele><time>2026-04-17T03:15:39.999Z</time></trkpt><trkpt lat="-25.312082704145872" lon="115.14517225023201"><ele>194.0</ele><time>2026-04-17T03:15:40.999Z</time></trkpt><trkpt lat="-25.312300905934897" lon="115.14540272567606"><ele>195.0</ele><time>2026-04-17T03:15:41.999Z</time></trkpt><trkpt lat="-25.312526255111045" lon="115.1456233725557"><ele>193.5</ele><time>2026-04-17T03:15:43Z</time></trkpt><trkpt lat="-25.3127532623224" lon="115.14583732341268"><ele>192.0</ele><time>2026-04-17T03:15:44Z</time></trkpt><trkpt lat="-25.312982602984466" lon="115.14604817043902"><ele>192.5</ele><time>2026-04-17T03:15:45Z</time></trkpt><trkpt lat="-25.313207749836607" lon="115.14625350531882"><ele>193.0</ele><time>2026-04-17T03:15:46Z</time></trkpt><trkpt lat="-25.313435397690082" lon="115.14645997677754"><ele>193.5</ele><time>2026-04-17T03:15:47Z</time></trkpt><trkpt lat="-25.313660991021504" lon="115.14666251856926"><ele>194.0</ele><time>2026-04-17T03:15:48Z</time></trkpt><trkpt lat="-25.313880331429914" lon="115.146857786624"><ele>194.5</ele><time>2026-04-17T03:15:49Z</time></trkpt><trkpt lat="-25.314096756876655" lon="115.1470540443931"><ele>195.0</ele><time>2026-04-17T03:15:50Z</time></trkpt><trkpt lat="-25.314301274483622" lon="115.14724442548749"><ele>193.5</ele><time>2026-04-17T03:15:51Z</time></trkpt><trkpt lat="-25.314490388913715" lon="115.14742524098762"><ele>192.0</ele><time>2026-04-17T03:15:52Z</time></trkpt><trkpt lat="-25.314661597901466" lon="115.14759128230288"><ele>192.33333333333331</ele><time>2026-04-17T03:15:53Z</time></trkpt><trkpt lat="-25.314807894658575" lon="115.14773592298032"><ele>192.66666666666666</ele><time>2026-04-17T03:15:54Z</time></trkpt><trkpt lat="-25.314933007086022" lon="115.14786115014455"><ele>193.0</ele><time>2026-04-17T03:15:55Z</time></trkpt><trkpt lat="-25.315027783450237" lon="115.14796137802983"><ele>193.0</ele><time>2026-04-17T03:15:56Z</time></trkpt><trkpt lat="-25.315100225143727" lon="115.14804978159776"><ele>193.0</ele><time>2026-04-17T03:15:57Z</time></trkpt><trkpt lat="-25.31513772228142" lon="115.14811936911617"><ele>193.0</ele><time>2026-04-17T03:15:58Z</time></trkpt><trkpt lat="-25.315141901495874" lon="115.1482442155241"><ele>193.0</ele><time>2026-04-17T03:16:00Z</time></trkpt><trkpt lat="-25.315080824626975" lon="115.14836314448273"><ele>193.0</ele><time>2026-04-17T03:16:02Z</time></trkpt><trkpt lat="-25.315017981331707" lon="115.14841782466576"><ele>192.5</ele><time>2026-04-17T03:16:03Z</time></trkpt><trkpt lat="-25.314937328691787" lon="115.14847820256266"><ele>192.0</ele><time>2026-04-17T03:16:04Z</time></trkpt><trkpt lat="-25.31484948886977" lon="115.1485427559279"><ele>191.5</ele><time>2026-04-17T03:16:05Z</time></trkpt><trkpt lat="-25.314744863222487" lon="115.14860556554538"><ele>191.0</ele><time>2026-04-17T03:16:06Z</time></trkpt><trkpt lat="-25.314621409547257" lon="115.14869328580949"><ele>191.0</ele><time>2026-04-17T03:16:07Z</time></trkpt><trkpt lat="-25.314474361899016" lon="115.14879720024305"><ele>191.0</ele><time>2026-04-17T03:16:08Z</time></trkpt><trkpt lat="-25.31432979327994" lon="115.14890748717013"><ele>191.0</ele><time>2026-04-17T03:16:09Z</time></trkpt><trkpt lat="-25.31417564812608" lon="115.14902989973896"><ele>190.66666666666666</ele><time>2026-04-17T03:16:10Z</time></trkpt><trkpt lat="-25.31401113415496" lon="115.1491629660467"><ele>190.33333333333334</ele><time>2026-04-17T03:16:11Z</time></trkpt><trkpt lat="-25.31384799750741" lon="115.1492967350685"><ele>190.0</ele><time>2026-04-17T03:16:12Z</time></trkpt><trkpt lat="-25.313669834220946" lon="115.14943983115818"><ele>190.0</ele><time>2026-04-17T03:16:13Z</time></trkpt><trkpt lat="-25.313484978966265" lon="115.14959028985308"><ele>190.0</ele><time>2026-04-17T03:16:14Z</time></trkpt><trkpt lat="-25.313297173305525" lon="115.14974616979228"><ele>190.0</ele><time>2026-04-17T03:16:15Z</time></trkpt><trkpt lat="-25.313117533247713" lon="115.14989861354209"><ele>190.0</ele><time>2026-04-17T03:16:16Z</time></trkpt><trkpt lat="-25.312946617338078" lon="115.15004998230263"><ele>190.0</ele><time>2026-04-17T03:16:17Z</time></trkpt><trkpt lat="-25.312773804681125" lon="115.1501965376071"><ele>191.0</ele><time>2026-04-17T03:16:18Z</time></trkpt><trkpt lat="-25.312590978707348" lon="115.15033912742588"><ele>192.0</ele><time>2026-04-17T03:16:19Z</time></trkpt><trkpt lat="-25.312388071763614" lon="115.1504951344114"><ele>192.0</ele><time>2026-04-17T03:16:20Z</time></trkpt><trkpt lat="-25.312181976601604" lon="115.15065333295048"><ele>192.0</ele><time>2026-04-17T03:16:21Z</time></trkpt><trkpt lat="-25.31197923881185" lon="115.15081765145929"><ele>193.0</ele><time>2026-04-17T03:16:22Z</time></trkpt><trkpt lat="-25.311786001256866" lon="115.1509754701023"><ele>194.0</ele><time>2026-04-17T03:16:23Z</time></trkpt><trkpt lat="-25.311585591407262" lon="115.15113861939014"><ele>194.0</ele><time>2026-04-17T03:16:24Z</time></trkpt><trkpt lat="-25.311382954978207" lon="115.15130210889244"><ele>194.0</ele><time>2026-04-17T03:16:25Z</time></trkpt><trkpt lat="-25.31118175152246" lon="115.15146175139441"><ele>193.5</ele><time>2026-04-17T03:16:26Z</time></trkpt><trkpt lat="-25.310976427763855" lon="115.15162667092883"><ele>193.0</ele><time>2026-04-17T03:16:27Z</time></trkpt><trkpt lat="-25.310775040781007" lon="115.15179485002915"><ele>192.5</ele><time>2026-04-17T03:16:28Z</time></trkpt><trkpt lat="-25.31056788855128" lon="115.15196461172887"><ele>192.0</ele><time>2026-04-17T03:16:29Z</time></trkpt><trkpt lat="-25.310354598942617" lon="115.15213435869204"><ele>192.0</ele><time>2026-04-17T03:16:30Z</time></trkpt><trkpt lat="-25.31013661414711" lon="115.1523078283955"><ele>192.0</ele><time>2026-04-17T03:16:31Z</time></trkpt><trkpt lat="-25.309920156680736" lon="115.15248490316289"><ele>192.0</ele><time>2026-04-17T03:16:32Z</time></trkpt><trkpt lat="-25.309701626447804" lon="115.15266129481101"><ele>192.0</ele><time>2026-04-17T03:16:33Z</time></trkpt><trkpt lat="-25.309482670859328" lon="115.15283912603797"><ele>192.0</ele><time>2026-04-17T03:16:34Z</time></trkpt><trkpt lat="-25.30926270595796" lon="115.15301625601491"><ele>192.0</ele><time>2026-04-17T03:16:35Z</time></trkpt><trkpt lat="-25.30904386548419" lon="115.15319347740524"><ele>192.5</ele><time>2026-04-17T03:16:36Z</time></trkpt><trkpt lat="-25.308826559899625" lon="115.15337145333727"><ele>193.0</ele><time>2026-04-17T03:16:37Z</time></trkpt><trkpt lat="-25.308611289784892" lon="115.1535450982171"><ele>193.0</ele><time>2026-04-17T03:16:38Z</time></trkpt><trkpt lat="-25.30839664965053" lon="115.15371231040346"><ele>193.0</ele><time>2026-04-17T03:16:39Z</time></trkpt><trkpt lat="-25.30818545705763" lon="115.15387826551891"><ele>193.0</ele><time>2026-04-17T03:16:40Z</time></trkpt><trkpt lat="-25.307968597883466" lon="115.15405045197504"><ele>193.0</ele><time>2026-04-17T03:16:41Z</time></trkpt><trkpt lat="-25.307755997149563" lon="115.1542227986807"><ele>193.0</ele><time>2026-04-17T03:16:42Z</time></trkpt><trkpt lat="-25.30754006097971" lon="115.15439560257383"><ele>193.0</ele><time>2026-04-17T03:16:43Z</time></trkpt><trkpt lat="-25.307321771058092" lon="115.15457024881206"><ele>193.0</ele><time>2026-04-17T03:16:44Z</time></trkpt><trkpt lat="-25.307104297863685" lon="115.15474313430929"><ele>193.0</ele><time>2026-04-17T03:16:45Z</time></trkpt><trkpt lat="-25.30688928915369" lon="115.1549149052239"><ele>194.0</ele><time>2026-04-17T03:16:46Z</time></trkpt><trkpt lat="-25.30667816831987" lon="115.15508776905594"><ele>195.0</ele><time>2026-04-17T03:16:47Z</time></trkpt><trkpt lat="-25.306471890927412" lon="115.15525811593925"><ele>195.0</ele><time>2026-04-17T03:16:48Z</time></trkpt><trkpt lat="-25.306271489652833" lon="115.15543186648394"><ele>195.0</ele><time>2026-04-17T03:16:49Z</time></trkpt><trkpt lat="-25.306076436750274" lon="115.15560752932562"><ele>194.0</ele><time>2026-04-17T03:16:50Z</time></trkpt><trkpt lat="-25.30589851562912" lon="115.15578408766365"><ele>193.0</ele><time>2026-04-17T03:16:51Z</time></trkpt><trkpt lat="-25.305726896957722" lon="115.15596747237979"><ele>192.5</ele><time>2026-04-17T03:16:52Z</time></trkpt><trkpt lat="-25.305567922864892" lon="115.15616769854772"><ele>192.0</ele><time>2026-04-17T03:16:53Z</time></trkpt><trkpt lat="-25.305416455794944" lon="115.15638366864412"><ele>192.5</ele><time>2026-04-17T03:16:54Z</time></trkpt><trkpt lat="-25.30527659597864" lon="115.15662121086504"><ele>193.0</ele><time>2026-04-17T03:16:55Z</time></trkpt><trkpt lat="-25.30514926776753" lon="115.15686688289924"><ele>193.0</ele><time>2026-04-17T03:16:56Z</time></trkpt><trkpt lat="-25.305030600881533" lon="115.1571307973801"><ele>193.0</ele><time>2026-04-17T03:16:57Z</time></trkpt><trkpt lat="-25.304921672543202" lon="115.15740124701166"><ele>192.0</ele><time>2026-04-17T03:16:58Z</time></trkpt><trkpt lat="-25.304818458621217" lon="115.15767752306304"><ele>191.0</ele><time>2026-04-17T03:16:59Z</time></trkpt><trkpt lat="-25.30472208821177" lon="115.1579574038564"><ele>189.5</ele><time>2026-04-17T03:17:00Z</time></trkpt><trkpt lat="-25.30463142688368" lon="115.15824023811882"><ele>188.0</ele><time>2026-04-17T03:17:01Z</time></trkpt><trkpt lat="-25.30454677340429" lon="115.15852754376009"><ele>188.0</ele><time>2026-04-17T03:17:02Z</time></trkpt><trkpt lat="-25.30446581835759" lon="115.15881817689313"><ele>188.0</ele><time>2026-04-17T03:17:03Z</time></trkpt><trkpt lat="-25.304384459295118" lon="115.15911254472731"><ele>188.0</ele><time>2026-04-17T03:17:04Z</time></trkpt><trkpt lat="-25.30430272401867" lon="115.15940553846694"><ele>188.0</ele><time>2026-04-17T03:17:05Z</time></trkpt><trkpt lat="-25.304221376101403" lon="115.15969615467306"><ele>188.5</ele><time>2026-04-17T03:17:06Z</time></trkpt><trkpt lat="-25.30413737810835" lon="115.15998639365283"><ele>189.0</ele><time>2026-04-17T03:17:07Z</time></trkpt><trkpt lat="-25.30405375303823" lon="115.16027771522617"><ele>189.0</ele><time>2026-04-17T03:17:08Z</time></trkpt><trkpt lat="-25.303968681412993" lon="115.16057294616681"><ele>189.0</ele><time>2026-04-17T03:17:09Z</time></trkpt><trkpt lat="-25.3038870924178" lon="115.1608674722038"><ele>188.0</ele><time>2026-04-17T03:17:10Z</time></trkpt><trkpt lat="-25.303807432808163" lon="115.16115808087025"><ele>187.0</ele><time>2026-04-17T03:17:11Z</time></trkpt><trkpt lat="-25.303725830625307" lon="115.16145141776767"><ele>186.0</ele><time>2026-04-17T03:17:12Z</time></trkpt><trkpt lat="-25.30364304535776" lon="115.16173964767154"><ele>185.0</ele><time>2026-04-17T03:17:13Z</time></trkpt><trkpt lat="-25.303559559764317" lon="115.16202326491577"><ele>185.0</ele><time>2026-04-17T03:17:14Z</time></trkpt><trkpt lat="-25.3034644502514" lon="115.16230869561905"><ele>185.0</ele><time>2026-04-17T03:17:15Z</time></trkpt><trkpt lat="-25.303360797257774" lon="115.16258912514758"><ele>185.0</ele><time>2026-04-17T03:17:16Z</time></trkpt><trkpt lat="-25.303246667767258" lon="115.16286485384089"><ele>185.0</ele><time>2026-04-17T03:17:17Z</time></trkpt><trkpt lat="-25.30312139036841" lon="115.16311964436385"><ele>183.5</ele><time>2026-04-17T03:17:18Z</time></trkpt><trkpt lat="-25.302977136161758" lon="115.16336424453105"><ele>182.0</ele><time>2026-04-17T03:17:19Z</time></trkpt><trkpt lat="-25.302815465404343" lon="115.16359571288557"><ele>182.0</ele><time>2026-04-17T03:17:20Z</time></trkpt><trkpt lat="-25.30263526140777" lon="115.16381737478487"><ele>182.0</ele><time>2026-04-17T03:17:21Z</time></trkpt><trkpt lat="-25.30243681847798" lon="115.16402622683955"><ele>183.0</ele><time>2026-04-17T03:17:22Z</time></trkpt><trkpt lat="-25.302232176251778" lon="115.16422759569241"><ele>184.0</ele><time>2026-04-17T03:17:23Z</time></trkpt><trkpt lat="-25.30201871260393" lon="115.1644162769431"><ele>184.0</ele><time>2026-04-17T03:17:24Z</time></trkpt><trkpt lat="-25.30179656286988" lon="115.16459902578532"><ele>184.0</ele><time>2026-04-17T03:17:25Z</time></trkpt><trkpt lat="-25.301569957740004" lon="115.16476954275811"><ele>182.0</ele><time>2026-04-17T03:17:26Z</time></trkpt><trkpt lat="-25.30134286447322" lon="115.16493941578045"><ele>180.0</ele><time>2026-04-17T03:17:27Z</time></trkpt><trkpt lat="-25.30111688317323" lon="115.16510965386468"><ele>180.0</ele><time>2026-04-17T03:17:28Z</time></trkpt><trkpt lat="-25.300892063180605" lon="115.1652842931578"><ele>180.0</ele><time>2026-04-17T03:17:29Z</time></trkpt><trkpt lat="-25.300665668072586" lon="115.1654603427596"><ele>179.5</ele><time>2026-04-17T03:17:30Z</time></trkpt><trkpt lat="-25.30043619216429" lon="115.16563586758703"><ele>179.0</ele><time>2026-04-17T03:17:31Z</time></trkpt><trkpt lat="-25.30020578775414" lon="115.16580959655435"><ele>179.0</ele><time>2026-04-17T03:17:32Z</time></trkpt><trkpt lat="-25.299977925005386" lon="115.1659798196615"><ele>179.0</ele><time>2026-04-17T03:17:33Z</time></trkpt><trkpt lat="-25.299742834783085" lon="115.16615478343316"><ele>180.0</ele><time>2026-04-17T03:17:34Z</time></trkpt><trkpt lat="-25.299507598123974" lon="115.1663315508384"><ele>181.0</ele><time>2026-04-17T03:17:35Z</time></trkpt><trkpt lat="-25.299274879352094" lon="115.16650813081267"><ele>181.0</ele><time>2026-04-17T03:17:36Z</time></trkpt><trkpt lat="-25.299041762997252" lon="115.16668696139976"><ele>181.0</ele><time>2026-04-17T03:17:37Z</time></trkpt><trkpt lat="-25.29880460211596" lon="115.16686826699832"><ele>179.5</ele><time>2026-04-17T03:17:38Z</time></trkpt><trkpt lat="-25.29856496556664" lon="115.1670510190929"><ele>178.0</ele><time>2026-04-17T03:17:39Z</time></trkpt><trkpt lat="-25.298327521801333" lon="115.16723329470346"><ele>178.5</ele><time>2026-04-17T03:17:40Z</time></trkpt><trkpt lat="-25.29808515620382" lon="115.16741637728695"><ele>179.0</ele><time>2026-04-17T03:17:41Z</time></trkpt><trkpt lat="-25.297835126124294" lon="115.16760309974812"><ele>179.5</ele><time>2026-04-17T03:17:42Z</time></trkpt><trkpt lat="-25.297584379334843" lon="115.16778820569412"><ele>180.0</ele><time>2026-04-17T03:17:43Z</time></trkpt><trkpt lat="-25.29733385602579" lon="115.16797541904273"><ele>180.0</ele><time>2026-04-17T03:17:44Z</time></trkpt><trkpt lat="-25.29708686833428" lon="115.16816471777837"><ele>180.0</ele><time>2026-04-17T03:17:45Z</time></trkpt><trkpt lat="-25.296840839271812" lon="115.16835384000669"><ele>180.0</ele><time>2026-04-17T03:17:46Z</time></trkpt><trkpt lat="-25.296595295930125" lon="115.16854311119882"><ele>180.0</ele><time>2026-04-17T03:17:47Z</time></trkpt><trkpt lat="-25.296347899609472" lon="115.16873110415231"><ele>179.5</ele><time>2026-04-17T03:17:48Z</time></trkpt><trkpt lat="-25.296098128903783" lon="115.16891753669093"><ele>179.0</ele><time>2026-04-17T03:17:49Z</time></trkpt><trkpt lat="-25.295849579503138" lon="115.16910329448237"><ele>178.5</ele><time>2026-04-17T03:17:50Z</time></trkpt><trkpt lat="-25.295599967182262" lon="115.16928777720604"><ele>178.0</ele><time>2026-04-17T03:17:51Z</time></trkpt><trkpt lat="-25.2953548795189" lon="115.16947008405519"><ele>177.5</ele><time>2026-04-17T03:17:52Z</time></trkpt><trkpt lat="-25.29510810363987" lon="115.16965120784455"><ele>177.0</ele><time>2026-04-17T03:17:53Z</time></trkpt><trkpt lat="-25.294866925656248" lon="115.1698305048955"><ele>177.5</ele><time>2026-04-17T03:17:54Z</time></trkpt><trkpt lat="-25.294625655852574" lon="115.17000870882518"><ele>178.0</ele><time>2026-04-17T03:17:55Z</time></trkpt><trkpt lat="-25.29438370417334" lon="115.17018389594806"><ele>178.0</ele><time>2026-04-17T03:17:56Z</time></trkpt><trkpt lat="-25.29413622986953" lon="115.17035671009671"><ele>178.0</ele><time>2026-04-17T03:17:57Z</time></trkpt><trkpt lat="-25.29388537978355" lon="115.17051581516134"><ele>177.5</ele><time>2026-04-17T03:17:58Z</time></trkpt><trkpt lat="-25.293631444698836" lon="115.1706673512951"><ele>177.0</ele><time>2026-04-17T03:17:59Z</time></trkpt><trkpt lat="-25.29337301569829" lon="115.17080940910931"><ele>177.0</ele><time>2026-04-17T03:18:00Z</time></trkpt><trkpt lat="-25.293109927313964" lon="115.17094240723068"><ele>177.0</ele><time>2026-04-17T03:18:01Z</time></trkpt><trkpt lat="-25.292846169686896" lon="115.1710665165574"><ele>177.0</ele><time>2026-04-17T03:18:02Z</time></trkpt><trkpt lat="-25.292579761352837" lon="115.1711882181686"><ele>177.0</ele><time>2026-04-17T03:18:03Z</time></trkpt><trkpt lat="-25.292317741405135" lon="115.17130857348992"><ele>176.5</ele><time>2026-04-17T03:18:04Z</time></trkpt><trkpt lat="-25.292053551927047" lon="115.17142871793723"><ele>176.0</ele><time>2026-04-17T03:18:05Z</time></trkpt><trkpt lat="-25.29178455619783" lon="115.17155383780019"><ele>176.0</ele><time>2026-04-17T03:18:06Z</time></trkpt><trkpt lat="-25.291518720956272" lon="115.17168005046541"><ele>176.0</ele><time>2026-04-17T03:18:07Z</time></trkpt><trkpt lat="-25.29125200561152" lon="115.17180688184256"><ele>175.5</ele><time>2026-04-17T03:18:08Z</time></trkpt><trkpt lat="-25.29098139321046" lon="115.17193154747129"><ele>175.0</ele><time>2026-04-17T03:18:09Z</time></trkpt><trkpt lat="-25.290710984849717" lon="115.1720580544893"><ele>176.5</ele><time>2026-04-17T03:18:10Z</time></trkpt><trkpt lat="-25.290442790444736" lon="115.17218520695904"><ele>178.0</ele><time>2026-04-17T03:18:11Z</time></trkpt><trkpt lat="-25.29017521256271" lon="115.17231217556966"><ele>178.5</ele><time>2026-04-17T03:18:12Z</time></trkpt><trkpt lat="-25.28990653229119" lon="115.17243774014763"><ele>179.0</ele><time>2026-04-17T03:18:13Z</time></trkpt><trkpt lat="-25.289634740132602" lon="115.1725660226085"><ele>177.5</ele><time>2026-04-17T03:18:14Z</time></trkpt><trkpt lat="-25.289362677297497" lon="115.17269221414966"><ele>176.0</ele><time>2026-04-17T03:18:15Z</time></trkpt><trkpt lat="-25.289087812662586" lon="115.17281693926975"><ele>175.5</ele><time>2026-04-17T03:18:16Z</time></trkpt><trkpt lat="-25.288813033067086" lon="115.17293999516018"><ele>175.0</ele><time>2026-04-17T03:18:17Z</time></trkpt><trkpt lat="-25.288534910030876" lon="115.17306630574195"><ele>175.5</ele><time>2026-04-17T03:18:18Z</time></trkpt><trkpt lat="-25.288256396626103" lon="115.17319458533196"><ele>176.0</ele><time>2026-04-17T03:18:19Z</time></trkpt><trkpt lat="-25.287979191324357" lon="115.17332478770001"><ele>177.0</ele><time>2026-04-17T03:18:20Z</time></trkpt><trkpt lat="-25.287703770983335" lon="115.17345386472742"><ele>178.0</ele><time>2026-04-17T03:18:21Z</time></trkpt><trkpt lat="-25.287428450751523" lon="115.1735830170225"><ele>175.5</ele><time>2026-04-17T03:18:22Z</time></trkpt><trkpt lat="-25.2871537017277" lon="115.17371173130421"><ele>173.0</ele><time>2026-04-17T03:18:23Z</time></trkpt><trkpt lat="-25.286878458680537" lon="115.17384169801973"><ele>173.0</ele><time>2026-04-17T03:18:24Z</time></trkpt><trkpt lat="-25.286605548815622" lon="115.17397110282312"><ele>173.0</ele><time>2026-04-17T03:18:25Z</time></trkpt><trkpt lat="-25.286332321707782" lon="115.17409998605646"><ele>174.5</ele><time>2026-04-17T03:18:26Z</time></trkpt><trkpt lat="-25.286059562404333" lon="115.1742269774757"><ele>176.0</ele><time>2026-04-17T03:18:27Z</time></trkpt><trkpt lat="-25.285784250748712" lon="115.17435226996369"><ele>176.5</ele><time>2026-04-17T03:18:28Z</time></trkpt><trkpt lat="-25.28550589735359" lon="115.17447829287778"><ele>177.0</ele><time>2026-04-17T03:18:29Z</time></trkpt><trkpt lat="-25.285229337538908" lon="115.17460726455863"><ele>177.0</ele><time>2026-04-17T03:18:30Z</time></trkpt><trkpt lat="-25.284954927496155" lon="115.17473672690194"><ele>177.0</ele><time>2026-04-17T03:18:31Z</time></trkpt><trkpt lat="-25.28467956508487" lon="115.17486538254919"><ele>176.5</ele><time>2026-04-17T03:18:32Z</time></trkpt><trkpt lat="-25.284401900041765" lon="115.17499640006118"><ele>176.0</ele><time>2026-04-17T03:18:33Z</time></trkpt><trkpt lat="-25.284123324023664" lon="115.17512633119495"><ele>175.0</ele><time>2026-04-17T03:18:34Z</time></trkpt><trkpt lat="-25.283844800317404" lon="115.17525436477852"><ele>174.0</ele><time>2026-04-17T03:18:35Z</time></trkpt><trkpt lat="-25.283566464886945" lon="115.17538168943341"><ele>174.0</ele><time>2026-04-17T03:18:36Z</time></trkpt><trkpt lat="-25.283285917936688" lon="115.17550342544729"><ele>174.0</ele><time>2026-04-17T03:18:37Z</time></trkpt><trkpt lat="-25.283003734913372" lon="115.17562271923082"><ele>174.5</ele><time>2026-04-17T03:18:38Z</time></trkpt><trkpt lat="-25.282717888566786" lon="115.17573811043647"><ele>175.0</ele><time>2026-04-17T03:18:39Z</time></trkpt><trkpt lat="-25.28243374981309" lon="115.17584848965866"><ele>175.0</ele><time>2026-04-17T03:18:40Z</time></trkpt><trkpt lat="-25.282147950725452" lon="115.17595335411292"><ele>175.0</ele><time>2026-04-17T03:18:41Z</time></trkpt><trkpt lat="-25.281863498757733" lon="115.17604866323734"><ele>175.0</ele><time>2026-04-17T03:18:42Z</time></trkpt><trkpt lat="-25.281575413922113" lon="115.17613266187881"><ele>175.0</ele><time>2026-04-17T03:18:43Z</time></trkpt><trkpt lat="-25.281281074237416" lon="115.17620141351213"><ele>174.5</ele><time>2026-04-17T03:18:44Z</time></trkpt><trkpt lat="-25.280987000916003" lon="115.17625644038738"><ele>174.0</ele><time>2026-04-17T03:18:45Z</time></trkpt><trkpt lat="-25.28069180719857" lon="115.17630062200661"><ele>174.0</ele><time>2026-04-17T03:18:46Z</time></trkpt><trkpt lat="-25.28039643069092" lon="115.17632914079758"><ele>174.0</ele><time>2026-04-17T03:18:47Z</time></trkpt><trkpt lat="-25.28009984111302" lon="115.17633926251888"><ele>174.0</ele><time>2026-04-17T03:18:48Z</time></trkpt><trkpt lat="-25.279800742346684" lon="115.1763288228572"><ele>174.0</ele><time>2026-04-17T03:18:49Z</time></trkpt><trkpt lat="-25.279494553613144" lon="115.17631347355768"><ele>174.5</ele><time>2026-04-17T03:18:50Z</time></trkpt><trkpt lat="-25.27918937165424" lon="115.17629131974253"><ele>175.0</ele><time>2026-04-17T03:18:51Z</time></trkpt><trkpt lat="-25.27888325584264" lon="115.17626128095044"><ele>174.0</ele><time>2026-04-17T03:18:52Z</time></trkpt><trkpt lat="-25.278582321406724" lon="115.17622185910854"><ele>173.0</ele><time>2026-04-17T03:18:53Z</time></trkpt><trkpt lat="-25.278281283716968" lon="115.17617630707907"><ele>173.5</ele><time>2026-04-17T03:18:54Z</time></trkpt><trkpt lat="-25.277978957181947" lon="115.17612529150533"><ele>174.0</ele><time>2026-04-17T03:18:55Z</time></trkpt><trkpt lat="-25.277678517573797" lon="115.17607284132154"><ele>174.0</ele><time>2026-04-17T03:18:56Z</time></trkpt><trkpt lat="-25.27737586286265" lon="115.1760185791249"><ele>174.0</ele><time>2026-04-17T03:18:57Z</time></trkpt><trkpt lat="-25.27707709328855" lon="115.17596224690644"><ele>173.5</ele><time>2026-04-17T03:18:58Z</time></trkpt><trkpt lat="-25.276780556116567" lon="115.17590534119881"><ele>173.0</ele><time>2026-04-17T03:18:59Z</time></trkpt><trkpt lat="-25.27648395458596" lon="115.17585278869257"><ele>172.5</ele><time>2026-04-17T03:19:00Z</time></trkpt><trkpt lat="-25.276187372937034" lon="115.17580280171339"><ele>172.0</ele><time>2026-04-17T03:19:01Z</time></trkpt><trkpt lat="-25.27589661359794" lon="115.17575461685439"><ele>172.0</ele><time>2026-04-17T03:19:02Z</time></trkpt><trkpt lat="-25.27560707388699" lon="115.17570582445664"><ele>172.0</ele><time>2026-04-17T03:19:03Z</time></trkpt><trkpt lat="-25.275319532363863" lon="115.1756561313369"><ele>172.5</ele><time>2026-04-17T03:19:04Z</time></trkpt><trkpt lat="-25.275032056265914" lon="115.1756063265396"><ele>173.0</ele><time>2026-04-17T03:19:05Z</time></trkpt><trkpt lat="-25.27474168522407" lon="115.17555387850568"><ele>172.0</ele><time>2026-04-17T03:19:06Z</time></trkpt><trkpt lat="-25.27445248559722" lon="115.17549982739868"><ele>171.0</ele><time>2026-04-17T03:19:07Z</time></trkpt><trkpt lat="-25.274164939834773" lon="115.17544682247647"><ele>172.0</ele><time>2026-04-17T03:19:08Z</time></trkpt><trkpt lat="-25.273876280196024" lon="115.17539424429403"><ele>173.0</ele><time>2026-04-17T03:19:09Z</time></trkpt><trkpt lat="-25.273588535680318" lon="115.17533899630273"><ele>173.0</ele><time>2026-04-17T03:19:10Z</time></trkpt><trkpt lat="-25.273302436627134" lon="115.17528394196039"><ele>173.0</ele><time>2026-04-17T03:19:11Z</time></trkpt><trkpt lat="-25.27301751992693" lon="115.17522483479684"><ele>173.0</ele><time>2026-04-17T03:19:12Z</time></trkpt><trkpt lat="-25.272732878774153" lon="115.17516045780968"><ele>173.0</ele><time>2026-04-17T03:19:13Z</time></trkpt><trkpt lat="-25.27244963212673" lon="115.17508792355005"><ele>173.0</ele><time>2026-04-17T03:19:14Z</time></trkpt><trkpt lat="-25.272165982277638" lon="115.17500521452972"><ele>173.0</ele><time>2026-04-17T03:19:15Z</time></trkpt><trkpt lat="-25.271886695662882" lon="115.17491019886378"><ele>173.0</ele><time>2026-04-17T03:19:16Z</time></trkpt><trkpt lat="-25.271612277036706" lon="115.17480524339948"><ele>173.0</ele><time>2026-04-17T03:19:17Z</time></trkpt><trkpt lat="-25.27134067359384" lon="115.17468656468371"><ele>173.0</ele><time>2026-04-17T03:19:18Z</time></trkpt><trkpt lat="-25.27107113625221" lon="115.17455661258319"><ele>173.0</ele><time>2026-04-17T03:19:19Z</time></trkpt><trkpt lat="-25.270803246292243" lon="115.17441730780939"><ele>172.5</ele><time>2026-04-17T03:19:20Z</time></trkpt><trkpt lat="-25.27053416345437" lon="115.17427105744588"><ele>172.0</ele><time>2026-04-17T03:19:21Z</time></trkpt><trkpt lat="-25.270271340493636" lon="115.17411907159486"><ele>172.0</ele><time>2026-04-17T03:19:22Z</time></trkpt><trkpt lat="-25.270012991296642" lon="115.17396365043018"><ele>172.0</ele><time>2026-04-17T03:19:23Z</time></trkpt><trkpt lat="-25.269758172368128" lon="115.1738056146872"><ele>171.5</ele><time>2026-04-17T03:19:24Z</time></trkpt><trkpt lat="-25.26950691048158" lon="115.17364230549155"><ele>171.0</ele><time>2026-04-17T03:19:25Z</time></trkpt><trkpt lat="-25.269263490078057" lon="115.17347196523572"><ele>171.0</ele><time>2026-04-17T03:19:26Z</time></trkpt><trkpt lat="-25.269019686117712" lon="115.17329275129394"><ele>171.0</ele><time>2026-04-17T03:19:27Z</time></trkpt><trkpt lat="-25.268775689265702" lon="115.17311556932495"><ele>171.5</ele><time>2026-04-17T03:19:28Z</time></trkpt><trkpt lat="-25.26852951833262" lon="115.17294760009412"><ele>172.0</ele><time>2026-04-17T03:19:29Z</time></trkpt><trkpt lat="-25.268280352715156" lon="115.1727848697396"><ele>170.5</ele><time>2026-04-17T03:19:30Z</time></trkpt><trkpt lat="-25.268025646354733" lon="115.17262969192645"><ele>169.0</ele><time>2026-04-17T03:19:31Z</time></trkpt><trkpt lat="-25.26776210413277" lon="115.17248477952472"><ele>170.0</ele><time>2026-04-17T03:19:32Z</time></trkpt><trkpt lat="-25.267494334163697" lon="115.1723498603096"><ele>171.0</ele><time>2026-04-17T03:19:33Z</time></trkpt><trkpt lat="-25.2672210250307" lon="115.1722254773907"><ele>172.5</ele><time>2026-04-17T03:19:34Z</time></trkpt><trkpt lat="-25.26694409687303" lon="115.17210692373264"><ele>174.0</ele><time>2026-04-17T03:19:35Z</time></trkpt><trkpt lat="-25.266664161385197" lon="115.17199548202167"><ele>171.5</ele><time>2026-04-17T03:19:36Z</time></trkpt><trkpt lat="-25.266388975106356" lon="115.1718895123754"><ele>169.0</ele><time>2026-04-17T03:19:37Z</time></trkpt><trkpt lat="-25.266119237170166" lon="115.17179023686118"><ele>169.0</ele><time>2026-04-17T03:19:38Z</time></trkpt><trkpt lat="-25.265860539416828" lon="115.17169463218958"><ele>169.0</ele><time>2026-04-17T03:19:39Z</time></trkpt><trkpt lat="-25.265598888125666" lon="115.17159856851804"><ele>170.5</ele><time>2026-04-17T03:19:40Z</time></trkpt><trkpt lat="-25.265338208785" lon="115.17150572507816"><ele>172.0</ele><time>2026-04-17T03:19:41Z</time></trkpt><trkpt lat="-25.265080530072858" lon="115.17141401540349"><ele>172.0</ele><time>2026-04-17T03:19:42Z</time></trkpt><trkpt lat="-25.264821325455163" lon="115.17131989209346"><ele>172.0</ele><time>2026-04-17T03:19:43Z</time></trkpt><trkpt lat="-25.264567746280214" lon="115.17122702523811"><ele>171.0</ele><time>2026-04-17T03:19:44Z</time></trkpt><trkpt lat="-25.26431176023353" lon="115.17113359283222"><ele>170.0</ele><time>2026-04-17T03:19:45Z</time></trkpt><trkpt lat="-25.264057783910516" lon="115.17104168345986"><ele>169.5</ele><time>2026-04-17T03:19:46Z</time></trkpt><trkpt lat="-25.263802130627752" lon="115.17094840467752"><ele>169.0</ele><time>2026-04-17T03:19:47Z</time></trkpt><trkpt lat="-25.263544830194387" lon="115.17085838125064"><ele>169.0</ele><time>2026-04-17T03:19:48Z</time></trkpt><trkpt lat="-25.263283454971624" lon="115.17076732044228"><ele>169.0</ele><time>2026-04-17T03:19:49Z</time></trkpt><trkpt lat="-25.26302540020302" lon="115.17067283053547"><ele>168.5</ele><time>2026-04-17T03:19:50Z</time></trkpt><trkpt lat="-25.262771966477388" lon="115.17057817658961"><ele>168.0</ele><time>2026-04-17T03:19:51Z</time></trkpt><trkpt lat="-25.262515189252248" lon="115.17048165296154"><ele>169.5</ele><time>2026-04-17T03:19:52Z</time></trkpt><trkpt lat="-25.26225817079599" lon="115.17038627871204"><ele>171.0</ele><time>2026-04-17T03:19:53Z</time></trkpt><trkpt lat="-25.261998353238493" lon="115.1702919317025"><ele>171.0</ele><time>2026-04-17T03:19:54Z</time></trkpt><trkpt lat="-25.261733005241474" lon="115.17019851620879"><ele>171.0</ele><time>2026-04-17T03:19:55Z</time></trkpt><trkpt lat="-25.261466951734477" lon="115.17010535210348"><ele>170.0</ele><time>2026-04-17T03:19:56Z</time></trkpt><trkpt lat="-25.26120063125772" lon="115.17001049214423"><ele>169.0</ele><time>2026-04-17T03:19:57Z</time></trkpt><trkpt lat="-25.260935282258433" lon="115.16991655801701"><ele>169.0</ele><time>2026-04-17T03:19:58Z</time></trkpt><trkpt lat="-25.26066816889427" lon="115.1698207025877"><ele>169.0</ele><time>2026-04-17T03:19:59Z</time></trkpt><trkpt lat="-25.2604061987224" lon="115.16972481629102"><ele>169.0</ele><time>2026-04-17T03:20:00Z</time></trkpt><trkpt lat="-25.260140664897705" lon="115.16962636089775"><ele>169.0</ele><time>2026-04-17T03:20:01Z</time></trkpt><trkpt lat="-25.259875734195347" lon="115.16952933824554"><ele>169.5</ele><time>2026-04-17T03:20:02Z</time></trkpt><trkpt lat="-25.259609285730548" lon="115.16943456383589"><ele>170.0</ele><time>2026-04-17T03:20:03Z</time></trkpt><trkpt lat="-25.259337124600034" lon="115.1693402290634"><ele>170.0</ele><time>2026-04-17T03:20:04Z</time></trkpt><trkpt lat="-25.259067794407297" lon="115.16924743658979"><ele>170.0</ele><time>2026-04-17T03:20:05Z</time></trkpt><trkpt lat="-25.25880114535977" lon="115.16915238327879"><ele>171.5</ele><time>2026-04-17T03:20:06Z</time></trkpt><trkpt lat="-25.258531866161643" lon="115.16905602558552"><ele>173.0</ele><time>2026-04-17T03:20:07Z</time></trkpt><trkpt lat="-25.2582646929006" lon="115.16896069752801"><ele>171.5</ele><time>2026-04-17T03:20:08Z</time></trkpt><trkpt lat="-25.25800279522759" lon="115.16887222528767"><ele>170.0</ele><time>2026-04-17T03:20:09Z</time></trkpt><trkpt lat="-25.257741642560067" lon="115.168794334235"><ele>170.0</ele><time>2026-04-17T03:20:10Z</time></trkpt><trkpt lat="-25.25748377975565" lon="115.16871960850182"><ele>170.0</ele><time>2026-04-17T03:20:11Z</time></trkpt><trkpt lat="-25.25722662535977" lon="115.1686411076341"><ele>169.5</ele><time>2026-04-17T03:20:12Z</time></trkpt><trkpt lat="-25.256967198065105" lon="115.16856133570212"><ele>169.0</ele><time>2026-04-17T03:20:13Z</time></trkpt><trkpt lat="-25.25670408598347" lon="115.16849002391227"><ele>167.5</ele><time>2026-04-17T03:20:14Z</time></trkpt><trkpt lat="-25.256437152521936" lon="115.16842679052188"><ele>166.0</ele><time>2026-04-17T03:20:15Z</time></trkpt><trkpt lat="-25.256169883456227" lon="115.16837315726745"><ele>166.0</ele><time>2026-04-17T03:20:16Z</time></trkpt><trkpt lat="-25.25590083590232" lon="115.16832516872473"><ele>166.0</ele><time>2026-04-17T03:20:17Z</time></trkpt><trkpt lat="-25.25563224679228" lon="115.1682767537943"><ele>167.0</ele><time>2026-04-17T03:20:18Z</time></trkpt><trkpt lat="-25.255366260082724" lon="115.16822541656477"><ele>168.0</ele><time>2026-04-17T03:20:19Z</time></trkpt><trkpt lat="-25.255100801010443" lon="115.16817124368528"><ele>168.0</ele><time>2026-04-17T03:20:20Z</time></trkpt><trkpt lat="-25.254833791973105" lon="115.16812123145242"><ele>168.0</ele><time>2026-04-17T03:20:21Z</time></trkpt><trkpt lat="-25.25456765922178" lon="115.16807508057181"><ele>168.0</ele><time>2026-04-17T03:20:22Z</time></trkpt><trkpt lat="-25.254299599170007" lon="115.16803018278883"><ele>168.0</ele><time>2026-04-17T03:20:23Z</time></trkpt><trkpt lat="-25.254029642330504" lon="115.16798313177249"><ele>168.5</ele><time>2026-04-17T03:20:24Z</time></trkpt><trkpt lat="-25.253764780923184" lon="115.16793566349962"><ele>169.0</ele><time>2026-04-17T03:20:25Z</time></trkpt><trkpt lat="-25.25349662748553" lon="115.16789013771591"><ele>169.0</ele><time>2026-04-17T03:20:26Z</time></trkpt><trkpt lat="-25.253222724997315" lon="115.16784538042336"><ele>169.0</ele><time>2026-04-17T03:20:27Z</time></trkpt><trkpt lat="-25.252950677968798" lon="115.16780201158618"><ele>169.5</ele><time>2026-04-17T03:20:28Z</time></trkpt><trkpt lat="-25.252673806768485" lon="115.16775234388045"><ele>170.0</ele><time>2026-04-17T03:20:29Z</time></trkpt><trkpt lat="-25.252395628146243" lon="115.16769718917317"><ele>170.0</ele><time>2026-04-17T03:20:30Z</time></trkpt><trkpt lat="-25.252120504863623" lon="115.1676454478675"><ele>170.0</ele><time>2026-04-17T03:20:31Z</time></trkpt><trkpt lat="-25.251845816309757" lon="115.16759785842993"><ele>170.0</ele><time>2026-04-17T03:20:32Z</time></trkpt><trkpt lat="-25.25157558459503" lon="115.1675552729275"><ele>170.0</ele><time>2026-04-17T03:20:33Z</time></trkpt><trkpt lat="-25.251304168406996" lon="115.16751193525602"><ele>169.5</ele><time>2026-04-17T03:20:34Z</time></trkpt><trkpt lat="-25.25103990982929" lon="115.16746805029966"><ele>169.0</ele><time>2026-04-17T03:20:35Z</time></trkpt><trkpt lat="-25.250779957589167" lon="115.16742000114692"><ele>169.5</ele><time>2026-04-17T03:20:36Z</time></trkpt><trkpt lat="-25.250519728551964" lon="115.1673686829784"><ele>170.0</ele><time>2026-04-17T03:20:37Z</time></trkpt><trkpt lat="-25.250259292355103" lon="115.16731137647339"><ele>170.0</ele><time>2026-04-17T03:20:38Z</time></trkpt><trkpt lat="-25.249996498094053" lon="115.16725041494689"><ele>170.0</ele><time>2026-04-17T03:20:39Z</time></trkpt><trkpt lat="-25.249731623244017" lon="115.16719174479051"><ele>169.0</ele><time>2026-04-17T03:20:40Z</time></trkpt><trkpt lat="-25.249464090043972" lon="115.16713016168282"><ele>168.0</ele><time>2026-04-17T03:20:41Z</time></trkpt><trkpt lat="-25.249200982128702" lon="115.16706831327257"><ele>167.5</ele><time>2026-04-17T03:20:42Z</time></trkpt><trkpt lat="-25.24894371439072" lon="115.16699854715118"><ele>167.0</ele><time>2026-04-17T03:20:43Z</time></trkpt><trkpt lat="-25.248689803753518" lon="115.16691647979597"><ele>167.0</ele><time>2026-04-17T03:20:44Z</time></trkpt><trkpt lat="-25.24843941273443" lon="115.16681998315086"><ele>167.0</ele><time>2026-04-17T03:20:45Z</time></trkpt><trkpt lat="-25.24819406905536" lon="115.16669983908845"><ele>167.0</ele><time>2026-04-17T03:20:46Z</time></trkpt><trkpt lat="-25.247951949212673" lon="115.16656095270162"><ele>167.0</ele><time>2026-04-17T03:20:47Z</time></trkpt><trkpt lat="-25.247714144919122" lon="115.16641290107108"><ele>167.0</ele><time>2026-04-17T03:20:48Z</time></trkpt><trkpt lat="-25.24748093292502" lon="115.16625470283381"><ele>167.0</ele><time>2026-04-17T03:20:49Z</time></trkpt><trkpt lat="-25.24725078917538" lon="115.16608750971217"><ele>167.5</ele><time>2026-04-17T03:20:50Z</time></trkpt><trkpt lat="-25.24702599518797" lon="115.1659143341015"><ele>168.0</ele><time>2026-04-17T03:20:51Z</time></trkpt><trkpt lat="-25.24681089019345" lon="115.16575043435647"><ele>168.0</ele><time>2026-04-17T03:20:52Z</time></trkpt><trkpt lat="-25.24660288235092" lon="115.16559387900958"><ele>168.0</ele><time>2026-04-17T03:20:53Z</time></trkpt><trkpt lat="-25.246388137448708" lon="115.16543034058833"><ele>166.5</ele><time>2026-04-17T03:20:54Z</time></trkpt><trkpt lat="-25.246167876013914" lon="115.1652676157689"><ele>165.0</ele><time>2026-04-17T03:20:55Z</time></trkpt><trkpt lat="-25.24594349551057" lon="115.16510031400038"><ele>165.0</ele><time>2026-04-17T03:20:56Z</time></trkpt><trkpt lat="-25.245717566757943" lon="115.1649298249592"><ele>165.0</ele><time>2026-04-17T03:20:57Z</time></trkpt><trkpt lat="-25.24549039694968" lon="115.16475446906777"><ele>166.5</ele><time>2026-04-17T03:20:58Z</time></trkpt><trkpt lat="-25.245264530006274" lon="115.16457897751893"><ele>168.0</ele><time>2026-04-17T03:20:59Z</time></trkpt><trkpt lat="-25.245036684282013" lon="115.16440724408068"><ele>168.0</ele><time>2026-04-17T03:21:00Z</time></trkpt><trkpt lat="-25.24480265093082" lon="115.16423836484519"><ele>168.0</ele><time>2026-04-17T03:21:01Z</time></trkpt><trkpt lat="-25.244570834514366" lon="115.16407312558671"><ele>166.5</ele><time>2026-04-17T03:21:02Z</time></trkpt><trkpt lat="-25.24434650261455" lon="115.16390326694103"><ele>165.0</ele><time>2026-04-17T03:21:03Z</time></trkpt><trkpt lat="-25.24412015452383" lon="115.16373779241681"><ele>164.0</ele><time>2026-04-17T03:21:04Z</time></trkpt><trkpt lat="-25.243890142140017" lon="115.1635847929906"><ele>163.0</ele><time>2026-04-17T03:21:05Z</time></trkpt><trkpt lat="-25.243659821843465" lon="115.16342982642313"><ele>163.0</ele><time>2026-04-17T03:21:06Z</time></trkpt><trkpt lat="-25.243431712893862" lon="115.16326764735066"><ele>163.0</ele><time>2026-04-17T03:21:07Z</time></trkpt><trkpt lat="-25.24320558951119" lon="115.16310111542381"><ele>165.0</ele><time>2026-04-17T03:21:08Z</time></trkpt><trkpt lat="-25.242981029179553" lon="115.16293728312682"><ele>167.0</ele><time>2026-04-17T03:21:09Z</time></trkpt><trkpt lat="-25.242758382640496" lon="115.16277365604608"><ele>167.0</ele><time>2026-04-17T03:21:10Z</time></trkpt><trkpt lat="-25.242533375324456" lon="115.16260351206445"><ele>167.0</ele><time>2026-04-17T03:21:11Z</time></trkpt><trkpt lat="-25.242310407315248" lon="115.16243016347731"><ele>165.5</ele><time>2026-04-17T03:21:12Z</time></trkpt><trkpt lat="-25.242087135573094" lon="115.16226066444689"><ele>164.0</ele><time>2026-04-17T03:21:13Z</time></trkpt><trkpt lat="-25.2418628550114" lon="115.16209131790902"><ele>164.0</ele><time>2026-04-17T03:21:14Z</time></trkpt><trkpt lat="-25.24163783257194" lon="115.16192386597638"><ele>164.0</ele><time>2026-04-17T03:21:15Z</time></trkpt><trkpt lat="-25.241407799995496" lon="115.16175464850714"><ele>165.0</ele><time>2026-04-17T03:21:16Z</time></trkpt><trkpt lat="-25.24117764136061" lon="115.16158396894534"><ele>166.0</ele><time>2026-04-17T03:21:17Z</time></trkpt><trkpt lat="-25.240946984702944" lon="115.16141402211797"><ele>166.5</ele><time>2026-04-17T03:21:18Z</time></trkpt><trkpt lat="-25.24071361032754" lon="115.16124251349487"><ele>167.0</ele><time>2026-04-17T03:21:19Z</time></trkpt><trkpt lat="-25.240476005716836" lon="115.16106812824916"><ele>167.5</ele><time>2026-04-17T03:21:20Z</time></trkpt><trkpt lat="-25.240241987633183" lon="115.16089519042173"><ele>168.0</ele><time>2026-04-17T03:21:21Z</time></trkpt><trkpt lat="-25.240004001442973" lon="115.16071850765948"><ele>166.5</ele><time>2026-04-17T03:21:22Z</time></trkpt><trkpt lat="-25.239770024524624" lon="115.16054030242282"><ele>165.0</ele><time>2026-04-17T03:21:23Z</time></trkpt><trkpt lat="-25.239536780506814" lon="115.1603609654822"><ele>165.0</ele><time>2026-04-17T03:21:24Z</time></trkpt><trkpt lat="-25.239304929543877" lon="115.16018432972177"><ele>165.0</ele><time>2026-04-17T03:21:25Z</time></trkpt><trkpt lat="-25.239070166213306" lon="115.16001197769508"><ele>164.5</ele><time>2026-04-17T03:21:26Z</time></trkpt><trkpt lat="-25.238835355505028" lon="115.15984570624607"><ele>164.0</ele><time>2026-04-17T03:21:27Z</time></trkpt><trkpt lat="-25.238598875426575" lon="115.15968502313562"><ele>164.0</ele><time>2026-04-17T03:21:28Z</time></trkpt><trkpt lat="-25.238355990421912" lon="115.1595318268078"><ele>164.0</ele><time>2026-04-17T03:21:29Z</time></trkpt><trkpt lat="-25.23810680346443" lon="115.15938904145621"><ele>164.0</ele><time>2026-04-17T03:21:30Z</time></trkpt><trkpt lat="-25.23785298946245" lon="115.1592551951479"><ele>164.0</ele><time>2026-04-17T03:21:31Z</time></trkpt><trkpt lat="-25.237595948019365" lon="115.15913155013676"><ele>165.0</ele><time>2026-04-17T03:21:32Z</time></trkpt><trkpt lat="-25.237338759240046" lon="115.15902110772198"><ele>166.0</ele><time>2026-04-17T03:21:33Z</time></trkpt><trkpt lat="-25.237073730891886" lon="115.15892598107436"><ele>166.5</ele><time>2026-04-17T03:21:34Z</time></trkpt><trkpt lat="-25.23680567837914" lon="115.15884200744371"><ele>167.0</ele><time>2026-04-17T03:21:35Z</time></trkpt><trkpt lat="-25.236538955110234" lon="115.15876381006912"><ele>165.5</ele><time>2026-04-17T03:21:36Z</time></trkpt><trkpt lat="-25.236267955622424" lon="115.15868803092327"><ele>164.0</ele><time>2026-04-17T03:21:37Z</time></trkpt><trkpt lat="-25.23599549224792" lon="115.15861180126291"><ele>164.0</ele><time>2026-04-17T03:21:38Z</time></trkpt><trkpt lat="-25.235718104102748" lon="115.15853776595642"><ele>164.0</ele><time>2026-04-17T03:21:39Z</time></trkpt><trkpt lat="-25.23544013715366" lon="115.1584661585279"><ele>164.5</ele><time>2026-04-17T03:21:40Z</time></trkpt><trkpt lat="-25.235160194275547" lon="115.1583919019863"><ele>165.0</ele><time>2026-04-17T03:21:41Z</time></trkpt><trkpt lat="-25.234879804915018" lon="115.15831428840318"><ele>165.5</ele><time>2026-04-17T03:21:42Z</time></trkpt><trkpt lat="-25.23459679176152" lon="115.15823618885369"><ele>166.0</ele><time>2026-04-17T03:21:43Z</time></trkpt><trkpt lat="-25.234307999265024" lon="115.15815828820203"><ele>166.0</ele><time>2026-04-17T03:21:44Z</time></trkpt><trkpt lat="-25.23402145696875" lon="115.15807734120135"><ele>166.0</ele><time>2026-04-17T03:21:45Z</time></trkpt><trkpt lat="-25.23373487293188" lon="115.15799212397019"><ele>166.5</ele><time>2026-04-17T03:21:46Z</time></trkpt><trkpt lat="-25.233450408034404" lon="115.15790533119232"><ele>167.0</ele><time>2026-04-17T03:21:47Z</time></trkpt><trkpt lat="-25.23315988534544" lon="115.15781986669501"><ele>167.0</ele><time>2026-04-17T03:21:48Z</time></trkpt><trkpt lat="-25.232869356009633" lon="115.15773871944579"><ele>167.0</ele><time>2026-04-17T03:21:49Z</time></trkpt><trkpt lat="-25.232579725119354" lon="115.15765923546628"><ele>166.0</ele><time>2026-04-17T03:21:50Z</time></trkpt><trkpt lat="-25.2322922764532" lon="115.15758433975229"><ele>165.0</ele><time>2026-04-17T03:21:51Z</time></trkpt><trkpt lat="-25.23200581230609" lon="115.15751449401651"><ele>165.0</ele><time>2026-04-17T03:21:52Z</time></trkpt><trkpt lat="-25.2317215225723" lon="115.15744281676031"><ele>165.0</ele><time>2026-04-17T03:21:53Z</time></trkpt><trkpt lat="-25.231437176785125" lon="115.15736526664277"><ele>166.0</ele><time>2026-04-17T03:21:54Z</time></trkpt><trkpt lat="-25.23115478412482" lon="115.15728840926042"><ele>167.0</ele><time>2026-04-17T03:21:55Z</time></trkpt><trkpt lat="-25.230869100305892" lon="115.15720743802117"><ele>167.0</ele><time>2026-04-17T03:21:56Z</time></trkpt><trkpt lat="-25.230588231831007" lon="115.15712640748717"><ele>167.0</ele><time>2026-04-17T03:21:57Z</time></trkpt><trkpt lat="-25.230312024897245" lon="115.15704804493798"><ele>167.0</ele><time>2026-04-17T03:21:58Z</time></trkpt><trkpt lat="-25.23003738163824" lon="115.1569724247535"><ele>167.0</ele><time>2026-04-17T03:21:59Z</time></trkpt><trkpt lat="-25.22976307968976" lon="115.15689912119538"><ele>165.5</ele><time>2026-04-17T03:22:00Z</time></trkpt><trkpt lat="-25.22948472777083" lon="115.15682575497088"><ele>164.0</ele><time>2026-04-17T03:22:01Z</time></trkpt><trkpt lat="-25.229205309374784" lon="115.15675240920214"><ele>164.0</ele><time>2026-04-17T03:22:02Z</time></trkpt><trkpt lat="-25.22892852438929" lon="115.15667987328901"><ele>164.0</ele><time>2026-04-17T03:22:03Z</time></trkpt><trkpt lat="-25.228653224912872" lon="115.15660584067574"><ele>163.5</ele><time>2026-04-17T03:22:04Z</time></trkpt><trkpt lat="-25.228375506375603" lon="115.15652930970919"><ele>163.0</ele><time>2026-04-17T03:22:05Z</time></trkpt><trkpt lat="-25.228097940667432" lon="115.15645037467924"><ele>164.0</ele><time>2026-04-17T03:22:06Z</time></trkpt><trkpt lat="-25.227818269938297" lon="115.15637371373809"><ele>165.0</ele><time>2026-04-17T03:22:07Z</time></trkpt><trkpt lat="-25.227534354065856" lon="115.15629659752017"><ele>166.0</ele><time>2026-04-17T03:22:08Z</time></trkpt><trkpt lat="-25.227249664747408" lon="115.15621930194428"><ele>167.0</ele><time>2026-04-17T03:22:09Z</time></trkpt><trkpt lat="-25.22696649418485" lon="115.15614392391875"><ele>167.0</ele><time>2026-04-17T03:22:10Z</time></trkpt><trkpt lat="-25.226686967911423" lon="115.15607062664812"><ele>167.0</ele><time>2026-04-17T03:22:11Z</time></trkpt><trkpt lat="-25.22641025833326" lon="115.15599533154317"><ele>167.5</ele><time>2026-04-17T03:22:12Z</time></trkpt><trkpt lat="-25.226136224735317" lon="115.15591833347908"><ele>168.0</ele><time>2026-04-17T03:22:13Z</time></trkpt><trkpt lat="-25.22585590885874" lon="115.155841054897"><ele>167.0</ele><time>2026-04-17T03:22:14Z</time></trkpt><trkpt lat="-25.22557020569342" lon="115.15576697078075"><ele>166.0</ele><time>2026-04-17T03:22:15Z</time></trkpt><trkpt lat="-25.225281244117298" lon="115.155693772774"><ele>165.5</ele><time>2026-04-17T03:22:16Z</time></trkpt><trkpt lat="-25.22498992314002" lon="115.15562463939698"><ele>165.0</ele><time>2026-04-17T03:22:17Z</time></trkpt><trkpt lat="-25.224699755823917" lon="115.1555667397026"><ele>163.0</ele><time>2026-04-17T03:22:18Z</time></trkpt><trkpt lat="-25.224404381077143" lon="115.1555252495977"><ele>161.0</ele><time>2026-04-17T03:22:19Z</time></trkpt><trkpt lat="-25.22410802033923" lon="115.1554981680873"><ele>162.0</ele><time>2026-04-17T03:22:20Z</time></trkpt><trkpt lat="-25.223808558101638" lon="115.15548954410959"><ele>163.0</ele><time>2026-04-17T03:22:21Z</time></trkpt><trkpt lat="-25.223505668469603" lon="115.15549686296907"><ele>163.0</ele><time>2026-04-17T03:22:22Z</time></trkpt><trkpt lat="-25.22319891041138" lon="115.15551306641676"><ele>163.0</ele><time>2026-04-17T03:22:23Z</time></trkpt><trkpt lat="-25.222889641107336" lon="115.15552909370005"><ele>163.5</ele><time>2026-04-17T03:22:24Z</time></trkpt><trkpt lat="-25.22258042374647" lon="115.15554559345141"><ele>164.0</ele><time>2026-04-17T03:22:25Z</time></trkpt><trkpt lat="-25.22227460201716" lon="115.15556391641225"><ele>164.5</ele><time>2026-04-17T03:22:26Z</time></trkpt><trkpt lat="-25.221970464283824" lon="115.15558224228842"><ele>165.0</ele><time>2026-04-17T03:22:27Z</time></trkpt><trkpt lat="-25.221662664987825" lon="115.1555962010412"><ele>166.5</ele><time>2026-04-17T03:22:28Z</time></trkpt><trkpt lat="-25.221351383685548" lon="115.15560602558267"><ele>168.0</ele><time>2026-04-17T03:22:29Z</time></trkpt><trkpt lat="-25.221040468952665" lon="115.15561157621187"><ele>168.0</ele><time>2026-04-17T03:22:30Z</time></trkpt><trkpt lat="-25.220729224431132" lon="115.15560820862783"><ele>168.0</ele><time>2026-04-17T03:22:31Z</time></trkpt><trkpt lat="-25.22041926422197" lon="115.15559377440168"><ele>167.0</ele><time>2026-04-17T03:22:32Z</time></trkpt><trkpt lat="-25.220113394555444" lon="115.1555714297935"><ele>166.0</ele><time>2026-04-17T03:22:33Z</time></trkpt><trkpt lat="-25.21980436315968" lon="115.1555480795647"><ele>165.0</ele><time>2026-04-17T03:22:34Z</time></trkpt><trkpt lat="-25.21949304767978" lon="115.15551930401703"><ele>164.0</ele><time>2026-04-17T03:22:35Z</time></trkpt><trkpt lat="-25.219183447995984" lon="115.15548842373597"><ele>163.5</ele><time>2026-04-17T03:22:36Z</time></trkpt><trkpt lat="-25.218872279167236" lon="115.15545269788112"><ele>163.0</ele><time>2026-04-17T03:22:37Z</time></trkpt><trkpt lat="-25.218562681962265" lon="115.15541382589058"><ele>163.0</ele><time>2026-04-17T03:22:38Z</time></trkpt><trkpt lat="-25.21825352651068" lon="115.15537758360286"><ele>163.0</ele><time>2026-04-17T03:22:39Z</time></trkpt><trkpt lat="-25.217940242860205" lon="115.15534510263969"><ele>163.0</ele><time>2026-04-17T03:22:40Z</time></trkpt><trkpt lat="-25.217629458951773" lon="115.15532252813489"><ele>163.0</ele><time>2026-04-17T03:22:41Z</time></trkpt><trkpt lat="-25.217321866696846" lon="115.15530782360636"><ele>163.0</ele><time>2026-04-17T03:22:42Z</time></trkpt><trkpt lat="-25.217020880395733" lon="115.1553053592312"><ele>163.0</ele><time>2026-04-17T03:22:43Z</time></trkpt><trkpt lat="-25.216721044477104" lon="115.15531678639857"><ele>162.5</ele><time>2026-04-17T03:22:44Z</time></trkpt><trkpt lat="-25.216422973822624" lon="115.15534576855842"><ele>162.0</ele><time>2026-04-17T03:22:45Z</time></trkpt><trkpt lat="-25.216123732810814" lon="115.1553883397053"><ele>162.0</ele><time>2026-04-17T03:22:46Z</time></trkpt><trkpt lat="-25.21582604318938" lon="115.15544353374365"><ele>162.0</ele><time>2026-04-17T03:22:47Z</time></trkpt><trkpt lat="-25.21553640757385" lon="115.1555085182416"><ele>161.0</ele><time>2026-04-17T03:22:48Z</time></trkpt><trkpt lat="-25.21525280522538" lon="115.15558318801979"><ele>160.0</ele><time>2026-04-17T03:22:49Z</time></trkpt><trkpt lat="-25.214970254623797" lon="115.1556710971472"><ele>160.5</ele><time>2026-04-17T03:22:50Z</time></trkpt><trkpt lat="-25.214699065662717" lon="115.15577255994758"><ele>161.0</ele><time>2026-04-17T03:22:51Z</time></trkpt><trkpt lat="-25.2144291598656" lon="115.15588707810684"><ele>161.0</ele><time>2026-04-17T03:22:52Z</time></trkpt><trkpt lat="-25.21419473709264" lon="115.15600600423787"><ele>161.0</ele><time>2026-04-17T03:22:53Z</time></trkpt><trkpt lat="-25.2139783894793" lon="115.15614862277896"><ele>161.0</ele><time>2026-04-17T03:22:54Z</time></trkpt><trkpt lat="-25.213761986525608" lon="115.15631249912188"><ele>161.0</ele><time>2026-04-17T03:22:55Z</time></trkpt><trkpt lat="-25.213541539650024" lon="115.15647759869263"><ele>160.5</ele><time>2026-04-17T03:22:56Z</time></trkpt><trkpt lat="-25.213340702905523" lon="115.15663147424355"><ele>160.0</ele><time>2026-04-17T03:22:57Z</time></trkpt><trkpt lat="-25.21315620540153" lon="115.15677927104822"><ele>160.5</ele><time>2026-04-17T03:22:58Z</time></trkpt><trkpt lat="-25.212970369288552" lon="115.15692118372141"><ele>161.0</ele><time>2026-04-17T03:22:59Z</time></trkpt><trkpt lat="-25.21276127004759" lon="115.15706712970973"><ele>161.0</ele><time>2026-04-17T03:23:00Z</time></trkpt><trkpt lat="-25.21255890287904" lon="115.1572010806769"><ele>161.0</ele><time>2026-04-17T03:23:01Z</time></trkpt><trkpt lat="-25.212340507397474" lon="115.15734274764252"><ele>161.0</ele><time>2026-04-17T03:23:02Z</time></trkpt><trkpt lat="-25.21212056461304" lon="115.15749183085822"><ele>161.0</ele><time>2026-04-17T03:23:03Z</time></trkpt><trkpt lat="-25.211900399846204" lon="115.15764420526838"><ele>161.0</ele><time>2026-04-17T03:23:04Z</time></trkpt><trkpt lat="-25.211675929180416" lon="115.15779886827087"><ele>161.0</ele><time>2026-04-17T03:23:05Z</time></trkpt><trkpt lat="-25.211445496888377" lon="115.15795360539816"><ele>161.5</ele><time>2026-04-17T03:23:06Z</time></trkpt><trkpt lat="-25.21121408005866" lon="115.15810764365662"><ele>162.0</ele><time>2026-04-17T03:23:07Z</time></trkpt><trkpt lat="-25.21098507601468" lon="115.15826070151009"><ele>162.5</ele><time>2026-04-17T03:23:08Z</time></trkpt><trkpt lat="-25.21075402527215" lon="115.1584153984356"><ele>163.0</ele><time>2026-04-17T03:23:09Z</time></trkpt><trkpt lat="-25.210520850212212" lon="115.15856982299023"><ele>163.0</ele><time>2026-04-17T03:23:10Z</time></trkpt><trkpt lat="-25.210292698045087" lon="115.15872281235096"><ele>163.0</ele><time>2026-04-17T03:23:11Z</time></trkpt><trkpt lat="-25.210056604566393" lon="115.15887638710339"><ele>165.0</ele><time>2026-04-17T03:23:12Z</time></trkpt><trkpt lat="-25.209821925593463" lon="115.15903477379948"><ele>167.0</ele><time>2026-04-17T03:23:13Z</time></trkpt><trkpt lat="-25.20958627466485" lon="115.15919517417561"><ele>167.0</ele><time>2026-04-17T03:23:14Z</time></trkpt><trkpt lat="-25.209353700717458" lon="115.15935357004344"><ele>167.0</ele><time>2026-04-17T03:23:15Z</time></trkpt><trkpt lat="-25.209121514436273" lon="115.15951143668032"><ele>164.5</ele><time>2026-04-17T03:23:16Z</time></trkpt><trkpt lat="-25.208881043470154" lon="115.15967052887994"><ele>162.0</ele><time>2026-04-17T03:23:17Z</time></trkpt><trkpt lat="-25.20863242410564" lon="115.1598238434586"><ele>161.5</ele><time>2026-04-17T03:23:18Z</time></trkpt><trkpt lat="-25.208383150454946" lon="115.15996944108072"><ele>161.0</ele><time>2026-04-17T03:23:19Z</time></trkpt><trkpt lat="-25.208132820735994" lon="115.16010536660464"><ele>160.5</ele><time>2026-04-17T03:23:20Z</time></trkpt><trkpt lat="-25.207878945450066" lon="115.16022899289266"><ele>160.0</ele><time>2026-04-17T03:23:21Z</time></trkpt><trkpt lat="-25.207618598123496" lon="115.16034107638266"><ele>160.0</ele><time>2026-04-17T03:23:22Z</time></trkpt><trkpt lat="-25.207355049251227" lon="115.1604409226868"><ele>160.0</ele><time>2026-04-17T03:23:23Z</time></trkpt><trkpt lat="-25.20708798774759" lon="115.16052870918293"><ele>160.5</ele><time>2026-04-17T03:23:24Z</time></trkpt><trkpt lat="-25.206817666371265" lon="115.16060235420194"><ele>161.0</ele><time>2026-04-17T03:23:25Z</time></trkpt><trkpt lat="-25.206552452921656" lon="115.16065919796416"><ele>160.5</ele><time>2026-04-17T03:23:26Z</time></trkpt><trkpt lat="-25.206288444817147" lon="115.16070374124303"><ele>160.0</ele><time>2026-04-17T03:23:27Z</time></trkpt><trkpt lat="-25.206031362332737" lon="115.16075359614588"><ele>160.0</ele><time>2026-04-17T03:23:28Z</time></trkpt><trkpt lat="-25.205777327515317" lon="115.16081434612109"><ele>160.0</ele><time>2026-04-17T03:23:29Z</time></trkpt><trkpt lat="-25.20551974417896" lon="115.16086918006656"><ele>162.0</ele><time>2026-04-17T03:23:30Z</time></trkpt><trkpt lat="-25.205255996024967" lon="115.1609102861304"><ele>164.0</ele><time>2026-04-17T03:23:31Z</time></trkpt><trkpt lat="-25.2049881717225" lon="115.16094579324819"><ele>163.0</ele><time>2026-04-17T03:23:32Z</time></trkpt><trkpt lat="-25.204722747276534" lon="115.16096989212936"><ele>162.0</ele><time>2026-04-17T03:23:33Z</time></trkpt><trkpt lat="-25.20446915331193" lon="115.16098267400992"><ele>162.0</ele><time>2026-04-17T03:23:34Z</time></trkpt><trkpt lat="-25.204215840436422" lon="115.16098109137761"><ele>162.0</ele><time>2026-04-17T03:23:35Z</time></trkpt><trkpt lat="-25.20396100480281" lon="115.16097219358868"><ele>162.0</ele><time>2026-04-17T03:23:36Z</time></trkpt><trkpt lat="-25.203701786050022" lon="115.16097084142447"><ele>162.0</ele><time>2026-04-17T03:23:37Z</time></trkpt><trkpt lat="-25.20344049467411" lon="115.16096212314382"><ele>162.0</ele><time>2026-04-17T03:23:38Z</time></trkpt><trkpt lat="-25.203164479134063" lon="115.16093116107989"><ele>162.0</ele><time>2026-04-17T03:23:39Z</time></trkpt><trkpt lat="-25.202887543370093" lon="115.16089580412154"><ele>162.0</ele><time>2026-04-17T03:23:40Z</time></trkpt><trkpt lat="-25.20260642872053" lon="115.16086013601004"><ele>162.0</ele><time>2026-04-17T03:23:41Z</time></trkpt><trkpt lat="-25.20232704898418" lon="115.16082573256286"><ele>162.0</ele><time>2026-04-17T03:23:42Z</time></trkpt><trkpt lat="-25.202048048031404" lon="115.16079278895131"><ele>162.0</ele><time>2026-04-17T03:23:43Z</time></trkpt><trkpt lat="-25.201767171083006" lon="115.16076305643928"><ele>162.0</ele><time>2026-04-17T03:23:44Z</time></trkpt><trkpt lat="-25.20148923294095" lon="115.16073065060978"><ele>162.0</ele><time>2026-04-17T03:23:45Z</time></trkpt><trkpt lat="-25.201206992358347" lon="115.1606952439778"><ele>162.0</ele><time>2026-04-17T03:23:46Z</time></trkpt><trkpt lat="-25.200922158294272" lon="115.16065602892762"><ele>162.0</ele><time>2026-04-17T03:23:47Z</time></trkpt><trkpt lat="-25.20063585424811" lon="115.16061949515249"><ele>162.5</ele><time>2026-04-17T03:23:48Z</time></trkpt><trkpt lat="-25.20034642925158" lon="115.16058219609062"><ele>163.0</ele><time>2026-04-17T03:23:49Z</time></trkpt><trkpt lat="-25.200045713033045" lon="115.16054662287095"><ele>162.5</ele><time>2026-04-17T03:23:50Z</time></trkpt><trkpt lat="-25.199741708943268" lon="115.1605133877397"><ele>162.0</ele><time>2026-04-17T03:23:51Z</time></trkpt><trkpt lat="-25.19943707838418" lon="115.16047716092922"><ele>162.0</ele><time>2026-04-17T03:23:52Z</time></trkpt><trkpt lat="-25.19913409140303" lon="115.1604367299832"><ele>162.0</ele><time>2026-04-17T03:23:53Z</time></trkpt><trkpt lat="-25.19882867093363" lon="115.1603954195192"><ele>162.5</ele><time>2026-04-17T03:23:54Z</time></trkpt><trkpt lat="-25.19852016812962" lon="115.16035632789844"><ele>163.0</ele><time>2026-04-17T03:23:55Z</time></trkpt><trkpt lat="-25.198211614567235" lon="115.16032009768263"><ele>163.5</ele><time>2026-04-17T03:23:56Z</time></trkpt><trkpt lat="-25.197904137468896" lon="115.16028733480069"><ele>164.0</ele><time>2026-04-17T03:23:57Z</time></trkpt><trkpt lat="-25.197595251424985" lon="115.16025431270073"><ele>164.5</ele><time>2026-04-17T03:23:58Z</time></trkpt><trkpt lat="-25.197288396551315" lon="115.16022449257318"><ele>165.0</ele><time>2026-04-17T03:23:59Z</time></trkpt><trkpt lat="-25.196982735349458" lon="115.16019207016866"><ele>165.0</ele><time>2026-04-17T03:24:00Z</time></trkpt><trkpt lat="-25.196673677565126" lon="115.16015707553922"><ele>165.0</ele><time>2026-04-17T03:24:01Z</time></trkpt><trkpt lat="-25.196368473760703" lon="115.16011908259333"><ele>163.5</ele><time>2026-04-17T03:24:02Z</time></trkpt><trkpt lat="-25.19605693118389" lon="115.16008632452245"><ele>162.0</ele><time>2026-04-17T03:24:03Z</time></trkpt><trkpt lat="-25.195749856120436" lon="115.16005393647325"><ele>160.0</ele><time>2026-04-17T03:24:04Z</time></trkpt><trkpt lat="-25.195443024199943" lon="115.16002305466847"><ele>158.0</ele><time>2026-04-17T03:24:05Z</time></trkpt><trkpt lat="-25.19513722822054" lon="115.15999680705997"><ele>158.0</ele><time>2026-04-17T03:24:06Z</time></trkpt><trkpt lat="-25.194838800837427" lon="115.15997820734052"><ele>158.0</ele><time>2026-04-17T03:24:07Z</time></trkpt><trkpt lat="-25.194541994182096" lon="115.15997045271081"><ele>160.0</ele><time>2026-04-17T03:24:08Z</time></trkpt><trkpt lat="-25.19424186522532" lon="115.15997871091514"><ele>162.0</ele><time>2026-04-17T03:24:09Z</time></trkpt><trkpt lat="-25.193941387084415" lon="115.15999982395257"><ele>162.5</ele><time>2026-04-17T03:24:10Z</time></trkpt><trkpt lat="-25.193640683713696" lon="115.16002787107975"><ele>163.0</ele><time>2026-04-17T03:24:11Z</time></trkpt><trkpt lat="-25.193341299742386" lon="115.16005879811948"><ele>162.5</ele><time>2026-04-17T03:24:12Z</time></trkpt><trkpt lat="-25.19304203472143" lon="115.16009542029323"><ele>162.0</ele><time>2026-04-17T03:24:13Z</time></trkpt><trkpt lat="-25.192739006271623" lon="115.16013643270519"><ele>162.0</ele><time>2026-04-17T03:24:14Z</time></trkpt><trkpt lat="-25.192437633339136" lon="115.16017687094947"><ele>162.0</ele><time>2026-04-17T03:24:15Z</time></trkpt><trkpt lat="-25.19212953437903" lon="115.16021550613591"><ele>161.5</ele><time>2026-04-17T03:24:16Z</time></trkpt><trkpt lat="-25.191818316226367" lon="115.16025256824572"><ele>161.0</ele><time>2026-04-17T03:24:17Z</time></trkpt><trkpt lat="-25.191506305324033" lon="115.16028976639588"><ele>160.5</ele><time>2026-04-17T03:24:18Z</time></trkpt><trkpt lat="-25.19119378863304" lon="115.16032847046763"><ele>160.0</ele><time>2026-04-17T03:24:19Z</time></trkpt><trkpt lat="-25.190881703599185" lon="115.16036740686377"><ele>162.0</ele><time>2026-04-17T03:24:20Z</time></trkpt><trkpt lat="-25.19056813891297" lon="115.1604050287453"><ele>164.0</ele><time>2026-04-17T03:24:21Z</time></trkpt><trkpt lat="-25.190256635731643" lon="115.16044098899852"><ele>164.0</ele><time>2026-04-17T03:24:22Z</time></trkpt><trkpt lat="-25.1899462577391" lon="115.1604786028665"><ele>164.0</ele><time>2026-04-17T03:24:23Z</time></trkpt><trkpt lat="-25.189637253219427" lon="115.16051667710133"><ele>162.5</ele><time>2026-04-17T03:24:24Z</time></trkpt><trkpt lat="-25.189331142127322" lon="115.16055199587183"><ele>161.0</ele><time>2026-04-17T03:24:25Z</time></trkpt><trkpt lat="-25.189023341313625" lon="115.16059136184457"><ele>161.5</ele><time>2026-04-17T03:24:26Z</time></trkpt><trkpt lat="-25.188719447012524" lon="115.1606274566384"><ele>162.0</ele><time>2026-04-17T03:24:27Z</time></trkpt><trkpt lat="-25.18841578052076" lon="115.16066350424607"><ele>162.5</ele><time>2026-04-17T03:24:28Z</time></trkpt><trkpt lat="-25.18810949602695" lon="115.16070112490044"><ele>163.0</ele><time>2026-04-17T03:24:29Z</time></trkpt><trkpt lat="-25.187803607027046" lon="115.16073675805718"><ele>163.0</ele><time>2026-04-17T03:24:30Z</time></trkpt><trkpt lat="-25.187494431611693" lon="115.1607702743192"><ele>163.0</ele><time>2026-04-17T03:24:31Z</time></trkpt><trkpt lat="-25.187187497228713" lon="115.16080571250752"><ele>163.0</ele><time>2026-04-17T03:24:32Z</time></trkpt><trkpt lat="-25.18687861178927" lon="115.16084261842752"><ele>163.0</ele><time>2026-04-17T03:24:33Z</time></trkpt><trkpt lat="-25.1865732760473" lon="115.16087743245609"><ele>163.0</ele><time>2026-04-17T03:24:34Z</time></trkpt><trkpt lat="-25.186269188282775" lon="115.16090768688815"><ele>163.0</ele><time>2026-04-17T03:24:35Z</time></trkpt><trkpt lat="-25.185966007468902" lon="115.1609375054982"><ele>161.0</ele><time>2026-04-17T03:24:36Z</time></trkpt><trkpt lat="-25.185663502338922" lon="115.1609710353934"><ele>159.0</ele><time>2026-04-17T03:24:37Z</time></trkpt><trkpt lat="-25.185361802456814" lon="115.16100718933433"><ele>159.0</ele><time>2026-04-17T03:24:38Z</time></trkpt><trkpt lat="-25.185056509745742" lon="115.16104482755651"><ele>159.0</ele><time>2026-04-17T03:24:39Z</time></trkpt><trkpt lat="-25.184751382491395" lon="115.1610827616041"><ele>160.5</ele><time>2026-04-17T03:24:40Z</time></trkpt><trkpt lat="-25.184448521865182" lon="115.16112314227117"><ele>162.0</ele><time>2026-04-17T03:24:41Z</time></trkpt><trkpt lat="-25.184150207682453" lon="115.1611624676453"><ele>163.0</ele><time>2026-04-17T03:24:42Z</time></trkpt><trkpt lat="-25.18385159045176" lon="115.16120045248985"><ele>164.0</ele><time>2026-04-17T03:24:43Z</time></trkpt><trkpt lat="-25.183564065755114" lon="115.16123674299949"><ele>164.0</ele><time>2026-04-17T03:24:44Z</time></trkpt><trkpt lat="-25.183287799437114" lon="115.16127134036634"><ele>164.0</ele><time>2026-04-17T03:24:45Z</time></trkpt><trkpt lat="-25.183022352534074" lon="115.16131276227019"><ele>161.5</ele><time>2026-04-17T03:24:46Z</time></trkpt><trkpt lat="-25.18275270905274" lon="115.16136425063085"><ele>159.0</ele><time>2026-04-17T03:24:47Z</time></trkpt><trkpt lat="-25.182479665568827" lon="115.16142060527962"><ele>158.5</ele><time>2026-04-17T03:24:48Z</time></trkpt><trkpt lat="-25.18220337761137" lon="115.16147533655923"><ele>158.0</ele><time>2026-04-17T03:24:49Z</time></trkpt><trkpt lat="-25.18192203045269" lon="115.1615251613992"><ele>158.5</ele><time>2026-04-17T03:24:50Z</time></trkpt><trkpt lat="-25.181643802048004" lon="115.16157260715597"><ele>159.0</ele><time>2026-04-17T03:24:51Z</time></trkpt><trkpt lat="-25.181371573444718" lon="115.1616200322748"><ele>159.0</ele><time>2026-04-17T03:24:52Z</time></trkpt><trkpt lat="-25.181094950402233" lon="115.16166834922011"><ele>159.0</ele><time>2026-04-17T03:24:53Z</time></trkpt><trkpt lat="-25.180823260590937" lon="115.16172162666201"><ele>158.5</ele><time>2026-04-17T03:24:54Z</time></trkpt><trkpt lat="-25.180542783450964" lon="115.1617752130054"><ele>158.0</ele><time>2026-04-17T03:24:55Z</time></trkpt><trkpt lat="-25.180252618218635" lon="115.16182884640384"><ele>158.0</ele><time>2026-04-17T03:24:56Z</time></trkpt><trkpt lat="-25.179977556823054" lon="115.16189280911557"><ele>158.0</ele><time>2026-04-17T03:24:57Z</time></trkpt><trkpt lat="-25.179694932668703" lon="115.16195034353859"><ele>159.0</ele><time>2026-04-17T03:24:58Z</time></trkpt><trkpt lat="-25.1794167026581" lon="115.16200997320871"><ele>160.0</ele><time>2026-04-17T03:24:59Z</time></trkpt><trkpt lat="-25.179146476896662" lon="115.162062391875"><ele>158.5</ele><time>2026-04-17T03:25:00Z</time></trkpt><trkpt lat="-25.178874004503097" lon="115.1621165390387"><ele>157.0</ele><time>2026-04-17T03:25:01Z</time></trkpt><trkpt lat="-25.17860660438897" lon="115.16217237640959"><ele>157.0</ele><time>2026-04-17T03:25:02Z</time></trkpt><trkpt lat="-25.178342683219874" lon="115.16222870747436"><ele>157.0</ele><time>2026-04-17T03:25:03Z</time></trkpt><trkpt lat="-25.1780844201044" lon="115.16228607156036"><ele>158.0</ele><time>2026-04-17T03:25:04Z</time></trkpt><trkpt lat="-25.177828515062828" lon="115.16235279330071"><ele>159.0</ele><time>2026-04-17T03:25:05Z</time></trkpt><trkpt lat="-25.17758027826517" lon="115.1624276989214"><ele>159.0</ele><time>2026-04-17T03:25:06Z</time></trkpt><trkpt lat="-25.177353323553955" lon="115.162517560693"><ele>159.0</ele><time>2026-04-17T03:25:07Z</time></trkpt><trkpt lat="-25.177132805099884" lon="115.16263193555737"><ele>159.5</ele><time>2026-04-17T03:25:08Z</time></trkpt><trkpt lat="-25.17690940099896" lon="115.16277482533874"><ele>160.0</ele><time>2026-04-17T03:25:09Z</time></trkpt><trkpt lat="-25.17668714058352" lon="115.16294259770382"><ele>160.5</ele><time>2026-04-17T03:25:10Z</time></trkpt><trkpt lat="-25.176465956302764" lon="115.16311476822193"><ele>161.0</ele><time>2026-04-17T03:25:11Z</time></trkpt><trkpt lat="-25.17625460518948" lon="115.1632798984245"><ele>161.0</ele><time>2026-04-17T03:25:12Z</time></trkpt><trkpt lat="-25.176043874640264" lon="115.16346561144711"><ele>161.0</ele><time>2026-04-17T03:25:13Z</time></trkpt><trkpt lat="-25.175828087968405" lon="115.16366321845985"><ele>160.5</ele><time>2026-04-17T03:25:14Z</time></trkpt><trkpt lat="-25.17560407871583" lon="115.16386659885248"><ele>160.0</ele><time>2026-04-17T03:25:15Z</time></trkpt><trkpt lat="-25.175375110359628" lon="115.16406941984744"><ele>159.5</ele><time>2026-04-17T03:25:16Z</time></trkpt><trkpt lat="-25.175143543280626" lon="115.16427045000371"><ele>159.0</ele><time>2026-04-17T03:25:17Z</time></trkpt><trkpt lat="-25.17490669476044" lon="115.16446518077522"><ele>161.0</ele><time>2026-04-17T03:25:18Z</time></trkpt><trkpt lat="-25.174668781168872" lon="115.16465550199852"><ele>163.0</ele><time>2026-04-17T03:25:19Z</time></trkpt><trkpt lat="-25.174430528266218" lon="115.16484399968803"><ele>163.0</ele><time>2026-04-17T03:25:20Z</time></trkpt><trkpt lat="-25.17418421895169" lon="115.16503658147127"><ele>163.0</ele><time>2026-04-17T03:25:21Z</time></trkpt><trkpt lat="-25.17394270628514" lon="115.16522469883685"><ele>160.5</ele><time>2026-04-17T03:25:22Z</time></trkpt><trkpt lat="-25.17370664965871" lon="115.16541452142081"><ele>158.0</ele><time>2026-04-17T03:25:23Z</time></trkpt><trkpt lat="-25.173476124816137" lon="115.16560648306813"><ele>159.5</ele><time>2026-04-17T03:25:24Z</time></trkpt><trkpt lat="-25.17324506910166" lon="115.16579826258824"><ele>161.0</ele><time>2026-04-17T03:25:25Z</time></trkpt><trkpt lat="-25.173013719155893" lon="115.16598872352962"><ele>162.5</ele><time>2026-04-17T03:25:26Z</time></trkpt><trkpt lat="-25.172787634110858" lon="115.16616962180656"><ele>164.0</ele><time>2026-04-17T03:25:27Z</time></trkpt><trkpt lat="-25.172557523713557" lon="115.16634849823862"><ele>163.5</ele><time>2026-04-17T03:25:28Z</time></trkpt><trkpt lat="-25.17231852179623" lon="115.1665291238089"><ele>163.0</ele><time>2026-04-17T03:25:29Z</time></trkpt><trkpt lat="-25.172074803233947" lon="115.16670183094601"><ele>163.0</ele><time>2026-04-17T03:25:30Z</time></trkpt><trkpt lat="-25.171835524684838" lon="115.16687328002106"><ele>163.0</ele><time>2026-04-17T03:25:31Z</time></trkpt><trkpt lat="-25.171596080408083" lon="115.16705312085188"><ele>163.0</ele><time>2026-04-17T03:25:32Z</time></trkpt><trkpt lat="-25.17136198639445" lon="115.16723039469029"><ele>163.0</ele><time>2026-04-17T03:25:33Z</time></trkpt><trkpt lat="-25.17112144283622" lon="115.16741348565039"><ele>163.0</ele><time>2026-04-17T03:25:34Z</time></trkpt><trkpt lat="-25.170880381671473" lon="115.16759798069198"><ele>163.0</ele><time>2026-04-17T03:25:35Z</time></trkpt><trkpt lat="-25.17063973679188" lon="115.16778466679072"><ele>163.5</ele><time>2026-04-17T03:25:36Z</time></trkpt><trkpt lat="-25.17040761581489" lon="115.16796871859997"><ele>164.0</ele><time>2026-04-17T03:25:37Z</time></trkpt><trkpt lat="-25.170183645467965" lon="115.16815316522606"><ele>163.0</ele><time>2026-04-17T03:25:38Z</time></trkpt><trkpt lat="-25.169957055868974" lon="115.16834133194061"><ele>162.0</ele><time>2026-04-17T03:25:39Z</time></trkpt><trkpt lat="-25.16973296948589" lon="115.16853595411455"><ele>160.5</ele><time>2026-04-17T03:25:40Z</time></trkpt><trkpt lat="-25.169512221938227" lon="115.16873791925948"><ele>159.0</ele><time>2026-04-17T03:25:41Z</time></trkpt><trkpt lat="-25.169297182055814" lon="115.16895328913793"><ele>159.0</ele><time>2026-04-17T03:25:42Z</time></trkpt><trkpt lat="-25.169092814389455" lon="115.16917534336396"><ele>159.0</ele><time>2026-04-17T03:25:43Z</time></trkpt><trkpt lat="-25.168896854977223" lon="115.16940203727998"><ele>159.0</ele><time>2026-04-17T03:25:44Z</time></trkpt><trkpt lat="-25.168701571920796" lon="115.16963516538048"><ele>159.0</ele><time>2026-04-17T03:25:45Z</time></trkpt><trkpt lat="-25.16850910221123" lon="115.16986775276078"><ele>159.5</ele><time>2026-04-17T03:25:46Z</time></trkpt><trkpt lat="-25.168314367738624" lon="115.17009403537294"><ele>160.0</ele><time>2026-04-17T03:25:47Z</time></trkpt><trkpt lat="-25.16811799087342" lon="115.17031433382266"><ele>160.0</ele><time>2026-04-17T03:25:48Z</time></trkpt><trkpt lat="-25.167921970297602" lon="115.17053181041362"><ele>160.0</ele><time>2026-04-17T03:25:49Z</time></trkpt><trkpt lat="-25.167727466099514" lon="115.17074855571526"><ele>160.0</ele><time>2026-04-17T03:25:50Z</time></trkpt><trkpt lat="-25.167538036704304" lon="115.17095952920556"><ele>160.0</ele><time>2026-04-17T03:25:51Z</time></trkpt><trkpt lat="-25.167350904773436" lon="115.17117500198994"><ele>160.0</ele><time>2026-04-17T03:25:52Z</time></trkpt><trkpt lat="-25.167173432049562" lon="115.17140366015917"><ele>160.0</ele><time>2026-04-17T03:25:53Z</time></trkpt><trkpt lat="-25.167004790751587" lon="115.17164986190497"><ele>160.5</ele><time>2026-04-17T03:25:54Z</time></trkpt><trkpt lat="-25.16685189601571" lon="115.17190937515434"><ele>161.0</ele><time>2026-04-17T03:25:55Z</time></trkpt><trkpt lat="-25.16670629519714" lon="115.17218555903233"><ele>160.0</ele><time>2026-04-17T03:25:56Z</time></trkpt><trkpt lat="-25.166573432676774" lon="115.17246579767216"><ele>159.0</ele><time>2026-04-17T03:25:57Z</time></trkpt><trkpt lat="-25.16645114677183" lon="115.17275649416105"><ele>161.0</ele><time>2026-04-17T03:25:58Z</time></trkpt><trkpt lat="-25.16634096513916" lon="115.17305636171325"><ele>163.0</ele><time>2026-04-17T03:25:59Z</time></trkpt><trkpt lat="-25.166239362477988" lon="115.17336266424353"><ele>163.0</ele><time>2026-04-17T03:26:00Z</time></trkpt><trkpt lat="-25.166141150343584" lon="115.17366795537805"><ele>163.0</ele><time>2026-04-17T03:26:01Z</time></trkpt><trkpt lat="-25.166036186717538" lon="115.17397517192377"><ele>163.0</ele><time>2026-04-17T03:26:02Z</time></trkpt><trkpt lat="-25.165929097479758" lon="115.17428120001429"><ele>163.0</ele><time>2026-04-17T03:26:03Z</time></trkpt><trkpt lat="-25.16581997867507" lon="115.17459151448234"><ele>161.0</ele><time>2026-04-17T03:26:04Z</time></trkpt><trkpt lat="-25.165713663938405" lon="115.17490327550928"><ele>159.0</ele><time>2026-04-17T03:26:05Z</time></trkpt><trkpt lat="-25.165608300512307" lon="115.17520946052834"><ele>159.0</ele><time>2026-04-17T03:26:06Z</time></trkpt><trkpt lat="-25.16550365217315" lon="115.17552372186945"><ele>159.0</ele><time>2026-04-17T03:26:07Z</time></trkpt><trkpt lat="-25.16539808995011" lon="115.17583668042221"><ele>160.0</ele><time>2026-04-17T03:26:08Z</time></trkpt><trkpt lat="-25.165292531427124" lon="115.17615449505512"><ele>161.0</ele><time>2026-04-17T03:26:09Z</time></trkpt><trkpt lat="-25.165186769102423" lon="115.17647138357863"><ele>160.5</ele><time>2026-04-17T03:26:10Z</time></trkpt><trkpt lat="-25.165082244763717" lon="115.17678695503976"><ele>160.0</ele><time>2026-04-17T03:26:11Z</time></trkpt><trkpt lat="-25.164977973528806" lon="115.17710389326126"><ele>162.5</ele><time>2026-04-17T03:26:12Z</time></trkpt><trkpt lat="-25.164872873768957" lon="115.17742280968812"><ele>165.0</ele><time>2026-04-17T03:26:13Z</time></trkpt><trkpt lat="-25.164765594571286" lon="115.1777447190541"><ele>165.5</ele><time>2026-04-17T03:26:14Z</time></trkpt><trkpt lat="-25.16465831044741" lon="115.17806652244022"><ele>166.0</ele><time>2026-04-17T03:26:15Z</time></trkpt><trkpt lat="-25.164551822855586" lon="115.17838756341462"><ele>166.0</ele><time>2026-04-17T03:26:16Z</time></trkpt><trkpt lat="-25.164451709401515" lon="115.17871250338848"><ele>166.0</ele><time>2026-04-17T03:26:17Z</time></trkpt><trkpt lat="-25.16436778080246" lon="115.17903796261942"><ele>165.5</ele><time>2026-04-17T03:26:18Z</time></trkpt><trkpt lat="-25.16430029792844" lon="115.1793686999066"><ele>165.0</ele><time>2026-04-17T03:26:19Z</time></trkpt><trkpt lat="-25.164250456878037" lon="115.17970447959966"><ele>162.0</ele><time>2026-04-17T03:26:20Z</time></trkpt><trkpt lat="-25.16422351626214" lon="115.18003137201639"><ele>159.0</ele><time>2026-04-17T03:26:21Z</time></trkpt><trkpt lat="-25.164208358949548" lon="115.18034761308334"><ele>159.0</ele><time>2026-04-17T03:26:22Z</time></trkpt><trkpt lat="-25.164194388843676" lon="115.18063740758514"><ele>159.0</ele><time>2026-04-17T03:26:23Z</time></trkpt><trkpt lat="-25.164192374714393" lon="115.18092551628222"><ele>160.0</ele><time>2026-04-17T03:26:24Z</time></trkpt><trkpt lat="-25.1642011560004" lon="115.18122213955435"><ele>161.0</ele><time>2026-04-17T03:26:25Z</time></trkpt><trkpt lat="-25.16420724113348" lon="115.18150254837421"><ele>161.5</ele><time>2026-04-17T03:26:26Z</time></trkpt><trkpt lat="-25.16421056772366" lon="115.18179519819356"><ele>162.0</ele><time>2026-04-17T03:26:27Z</time></trkpt><trkpt lat="-25.16420303061147" lon="115.18209959815549"><ele>161.5</ele><time>2026-04-17T03:26:28Z</time></trkpt><trkpt lat="-25.164192789651295" lon="115.18241954136568"><ele>161.0</ele><time>2026-04-17T03:26:29Z</time></trkpt><trkpt lat="-25.164181552992382" lon="115.18274533726913"><ele>161.0</ele><time>2026-04-17T03:26:30Z</time></trkpt><trkpt lat="-25.164172860528954" lon="115.18307109760366"><ele>161.0</ele><time>2026-04-17T03:26:31Z</time></trkpt><trkpt lat="-25.16416662344531" lon="115.1834043746276"><ele>161.5</ele><time>2026-04-17T03:26:32Z</time></trkpt><trkpt lat="-25.16416118221184" lon="115.1837422309946"><ele>162.0</ele><time>2026-04-17T03:26:33Z</time></trkpt><trkpt lat="-25.16415577692223" lon="115.18408491991585"><ele>162.5</ele><time>2026-04-17T03:26:34Z</time></trkpt><trkpt lat="-25.16415033220914" lon="115.18443111911658"><ele>163.0</ele><time>2026-04-17T03:26:35Z</time></trkpt><trkpt lat="-25.164144011694358" lon="115.1847806334862"><ele>163.5</ele><time>2026-04-17T03:26:36Z</time></trkpt><trkpt lat="-25.16413625512519" lon="115.18513874657755"><ele>164.0</ele><time>2026-04-17T03:26:37Z</time></trkpt><trkpt lat="-25.16412891522118" lon="115.18549933256882"><ele>164.5</ele><time>2026-04-17T03:26:38Z</time></trkpt><trkpt lat="-25.164125159969498" lon="115.18586960647563"><ele>165.0</ele><time>2026-04-17T03:26:39Z</time></trkpt><trkpt lat="-25.164122034230967" lon="115.18624294874891"><ele>164.0</ele><time>2026-04-17T03:26:40Z</time></trkpt><trkpt lat="-25.1641171849626" lon="115.18660932827221"><ele>163.0</ele><time>2026-04-17T03:26:41Z</time></trkpt><trkpt lat="-25.1641104981666" lon="115.18697016492658"><ele>163.0</ele><time>2026-04-17T03:26:42Z</time></trkpt><trkpt lat="-25.164104802094595" lon="115.18732625579023"><ele>163.0</ele><time>2026-04-17T03:26:43Z</time></trkpt><trkpt lat="-25.164101649993974" lon="115.18767901301796"><ele>163.0</ele><time>2026-04-17T03:26:44Z</time></trkpt><trkpt lat="-25.164100789304037" lon="115.18803121453537"><ele>163.0</ele><time>2026-04-17T03:26:45Z</time></trkpt><trkpt lat="-25.164099386832152" lon="115.18838174507674"><ele>162.5</ele><time>2026-04-17T03:26:46Z</time></trkpt><trkpt lat="-25.16409600422777" lon="115.18873735964486"><ele>162.0</ele><time>2026-04-17T03:26:47Z</time></trkpt><trkpt lat="-25.16409337672066" lon="115.18909352740391"><ele>162.0</ele><time>2026-04-17T03:26:48Z</time></trkpt><trkpt lat="-25.164089494784047" lon="115.18945360662049"><ele>162.0</ele><time>2026-04-17T03:26:49Z</time></trkpt><trkpt lat="-25.1640838868581" lon="115.18980983263951"><ele>163.5</ele><time>2026-04-17T03:26:50Z</time></trkpt><trkpt lat="-25.164077802163934" lon="115.19016684346443"><ele>165.0</ele><time>2026-04-17T03:26:51Z</time></trkpt><trkpt lat="-25.16406920983193" lon="115.19051981874178"><ele>166.0</ele><time>2026-04-17T03:26:52Z</time></trkpt><trkpt lat="-25.16405776822569" lon="115.19087191866686"><ele>167.0</ele><time>2026-04-17T03:26:53Z</time></trkpt><trkpt lat="-25.164039794465996" lon="115.1912226316374"><ele>164.0</ele><time>2026-04-17T03:26:54Z</time></trkpt><trkpt lat="-25.16401797341901" lon="115.19157154306568"><ele>161.0</ele><time>2026-04-17T03:26:55Z</time></trkpt><trkpt lat="-25.163990766925888" lon="115.19191629125935"><ele>161.0</ele><time>2026-04-17T03:26:56Z</time></trkpt><trkpt lat="-25.16395117822944" lon="115.19224853740562"><ele>161.0</ele><time>2026-04-17T03:26:57Z</time></trkpt><trkpt lat="-25.163899349717923" lon="115.19256368726201"><ele>162.5</ele><time>2026-04-17T03:26:58Z</time></trkpt><trkpt lat="-25.16384087713292" lon="115.19286496167418"><ele>164.0</ele><time>2026-04-17T03:26:59Z</time></trkpt><trkpt lat="-25.163772914488476" lon="115.19316387596946"><ele>161.5</ele><time>2026-04-17T03:27:00Z</time></trkpt><trkpt lat="-25.163688286914507" lon="115.1934675458319"><ele>159.0</ele><time>2026-04-17T03:27:01Z</time></trkpt><trkpt lat="-25.16358357937761" lon="115.19376828924746"><ele>161.5</ele><time>2026-04-17T03:27:02Z</time></trkpt><trkpt lat="-25.163459229252883" lon="115.19406469291809"><ele>164.0</ele><time>2026-04-17T03:27:03Z</time></trkpt><trkpt lat="-25.16331775304429" lon="115.19436197956038"><ele>164.5</ele><time>2026-04-17T03:27:04Z</time></trkpt><trkpt lat="-25.163163349803497" lon="115.19465376353418"><ele>165.0</ele><time>2026-04-17T03:27:05Z</time></trkpt><trkpt lat="-25.162994134926166" lon="115.19494118888804"><ele>165.0</ele><time>2026-04-17T03:27:06Z</time></trkpt><trkpt lat="-25.16282362971383" lon="115.19521622080322"><ele>165.0</ele><time>2026-04-17T03:27:07Z</time></trkpt><trkpt lat="-25.162660377733587" lon="115.19548371931538"><ele>164.0</ele><time>2026-04-17T03:27:08Z</time></trkpt><trkpt lat="-25.162497188799268" lon="115.19573863952876"><ele>163.0</ele><time>2026-04-17T03:27:09Z</time></trkpt><trkpt lat="-25.162325516529062" lon="115.19599090721478"><ele>163.0</ele><time>2026-04-17T03:27:10Z</time></trkpt><trkpt lat="-25.162148655246234" lon="115.1962386290884"><ele>163.0</ele><time>2026-04-17T03:27:11Z</time></trkpt><trkpt lat="-25.161960913530102" lon="115.19647014402918"><ele>162.5</ele><time>2026-04-17T03:27:12Z</time></trkpt><trkpt lat="-25.16176417351458" lon="115.19668271153442"><ele>162.0</ele><time>2026-04-17T03:27:13Z</time></trkpt><trkpt lat="-25.16156938810818" lon="115.19688431406041"><ele>162.5</ele><time>2026-04-17T03:27:14Z</time></trkpt><trkpt lat="-25.16136768834678" lon="115.19707987502215"><ele>163.0</ele><time>2026-04-17T03:27:15Z</time></trkpt><trkpt lat="-25.161137000940396" lon="115.19724364799474"><ele>163.5</ele><time>2026-04-17T03:27:16Z</time></trkpt><trkpt lat="-25.160914696457723" lon="115.19740712891175"><ele>164.0</ele><time>2026-04-17T03:27:17Z</time></trkpt><trkpt lat="-25.160682615092938" lon="115.1975624289862"><ele>164.0</ele><time>2026-04-17T03:27:18Z</time></trkpt><trkpt lat="-25.16045415871352" lon="115.19772386301857"><ele>164.0</ele><time>2026-04-17T03:27:19Z</time></trkpt><trkpt lat="-25.16019479223595" lon="115.1978678897945"><ele>164.0</ele><time>2026-04-17T03:27:20Z</time></trkpt><trkpt lat="-25.159936226178704" lon="115.19800709660082"><ele>164.0</ele><time>2026-04-17T03:27:21Z</time></trkpt><trkpt lat="-25.159668846779613" lon="115.19811470353365"><ele>161.5</ele><time>2026-04-17T03:27:22Z</time></trkpt><trkpt lat="-25.15940703296456" lon="115.19825007195426"><ele>159.0</ele><time>2026-04-17T03:27:23Z</time></trkpt><trkpt lat="-25.159130740789603" lon="115.19836109720917"><ele>160.5</ele><time>2026-04-17T03:27:24Z</time></trkpt><trkpt lat="-25.158853290320803" lon="115.19848098342817"><ele>162.0</ele><time>2026-04-17T03:27:25Z</time></trkpt><trkpt lat="-25.158573566678022" lon="115.19860486381887"><ele>162.0</ele><time>2026-04-17T03:27:26Z</time></trkpt><trkpt lat="-25.158298727297943" lon="115.19872797783606"><ele>162.0</ele><time>2026-04-17T03:27:27.001Z</time></trkpt><trkpt lat="-25.15801903384941" lon="115.19885275166254"><ele>163.0</ele><time>2026-04-17T03:27:28Z</time></trkpt><trkpt lat="-25.157739494816504" lon="115.19897736158399"><ele>164.0</ele><time>2026-04-17T03:27:29Z</time></trkpt><trkpt lat="-25.157457574979677" lon="115.19909947373726"><ele>166.0</ele><time>2026-04-17T03:27:30Z</time></trkpt><trkpt lat="-25.157176800079174" lon="115.1992210535735"><ele>168.0</ele><time>2026-04-17T03:27:31Z</time></trkpt><trkpt lat="-25.15689761825551" lon="115.19934293741446"><ele>168.0</ele><time>2026-04-17T03:27:32Z</time></trkpt><trkpt lat="-25.156616973241878" lon="115.19946388418573"><ele>168.0</ele><time>2026-04-17T03:27:33Z</time></trkpt><trkpt lat="-25.15633539780051" lon="115.19958849422434"><ele>167.5</ele><time>2026-04-17T03:27:34Z</time></trkpt><trkpt lat="-25.156056021923746" lon="115.19971586336096"><ele>167.0</ele><time>2026-04-17T03:27:35Z</time></trkpt><trkpt lat="-25.155775765350377" lon="115.19984439428879"><ele>165.5</ele><time>2026-04-17T03:27:36Z</time></trkpt><trkpt lat="-25.15549011221489" lon="115.19994997869523"><ele>164.0</ele><time>2026-04-17T03:27:37Z</time></trkpt><trkpt lat="-25.155212079198506" lon="115.20007213792337"><ele>164.0</ele><time>2026-04-17T03:27:38Z</time></trkpt><trkpt lat="-25.15493550002251" lon="115.20019348596573"><ele>164.0</ele><time>2026-04-17T03:27:39Z</time></trkpt><trkpt lat="-25.15466777997206" lon="115.20032506266135"><ele>165.0</ele><time>2026-04-17T03:27:40Z</time></trkpt><trkpt lat="-25.154396026024813" lon="115.2004392328492"><ele>166.0</ele><time>2026-04-17T03:27:41Z</time></trkpt><trkpt lat="-25.154123316661526" lon="115.20055525835899"><ele>168.0</ele><time>2026-04-17T03:27:42Z</time></trkpt><trkpt lat="-25.15385036699899" lon="115.20067238812211"><ele>170.0</ele><time>2026-04-17T03:27:43Z</time></trkpt><trkpt lat="-25.153583289461697" lon="115.20079328435519"><ele>170.0</ele><time>2026-04-17T03:27:44Z</time></trkpt><trkpt lat="-25.153319173321623" lon="115.20092147525258"><ele>170.0</ele><time>2026-04-17T03:27:45Z</time></trkpt><trkpt lat="-25.153059171345394" lon="115.20106011907872"><ele>169.0</ele><time>2026-04-17T03:27:46Z</time></trkpt><trkpt lat="-25.152799747426346" lon="115.20121440282435"><ele>168.0</ele><time>2026-04-17T03:27:47Z</time></trkpt><trkpt lat="-25.152543797522053" lon="115.20138366298823"><ele>167.5</ele><time>2026-04-17T03:27:48Z</time></trkpt><trkpt lat="-25.15229630293705" lon="115.2015682379949"><ele>167.0</ele><time>2026-04-17T03:27:49Z</time></trkpt><trkpt lat="-25.152061391627928" lon="115.20176143441306"><ele>167.0</ele><time>2026-04-17T03:27:50Z</time></trkpt><trkpt lat="-25.151824832199956" lon="115.20195789043349"><ele>167.0</ele><time>2026-04-17T03:27:51Z</time></trkpt><trkpt lat="-25.15159401369797" lon="115.20215416794686"><ele>166.5</ele><time>2026-04-17T03:27:52Z</time></trkpt><trkpt lat="-25.151359497469823" lon="115.20232986039925"><ele>166.0</ele><time>2026-04-17T03:27:53Z</time></trkpt><trkpt lat="-25.151129505775536" lon="115.20253189420345"><ele>165.5</ele><time>2026-04-17T03:27:54Z</time></trkpt><trkpt lat="-25.15090196009508" lon="115.20274138760708"><ele>165.0</ele><time>2026-04-17T03:27:55Z</time></trkpt><trkpt lat="-25.15068081110274" lon="115.20295017613978"><ele>165.0</ele><time>2026-04-17T03:27:56Z</time></trkpt><trkpt lat="-25.15046010625652" lon="115.20316408997775"><ele>165.0</ele><time>2026-04-17T03:27:57Z</time></trkpt><trkpt lat="-25.150243381008476" lon="115.20338725771445"><ele>165.0</ele><time>2026-04-17T03:27:58Z</time></trkpt><trkpt lat="-25.150035484823846" lon="115.20362317427796"><ele>165.0</ele><time>2026-04-17T03:27:59Z</time></trkpt><trkpt lat="-25.149834395273018" lon="115.20386373792779"><ele>166.5</ele><time>2026-04-17T03:28:00Z</time></trkpt><trkpt lat="-25.149635462999846" lon="115.2041087308168"><ele>168.0</ele><time>2026-04-17T03:28:01Z</time></trkpt><trkpt lat="-25.14943816449407" lon="115.2043574693192"><ele>168.0</ele><time>2026-04-17T03:28:02Z</time></trkpt><trkpt lat="-25.14925119214571" lon="115.20462127928195"><ele>168.0</ele><time>2026-04-17T03:28:03Z</time></trkpt><trkpt lat="-25.14905270279237" lon="115.20487092457802"><ele>167.5</ele><time>2026-04-17T03:28:04Z</time></trkpt><trkpt lat="-25.14885915595026" lon="115.20512159714413"><ele>167.0</ele><time>2026-04-17T03:28:05Z</time></trkpt><trkpt lat="-25.14865026490455" lon="115.20536223998671"><ele>167.0</ele><time>2026-04-17T03:28:06Z</time></trkpt><trkpt lat="-25.148454525479362" lon="115.20561082698865"><ele>167.0</ele><time>2026-04-17T03:28:07Z</time></trkpt><trkpt lat="-25.14825936739551" lon="115.20585884821703"><ele>168.5</ele><time>2026-04-17T03:28:08Z</time></trkpt><trkpt lat="-25.148062480538954" lon="115.2061077820884"><ele>170.0</ele><time>2026-04-17T03:28:09Z</time></trkpt><trkpt lat="-25.147865232517034" lon="115.20635435831431"><ele>169.5</ele><time>2026-04-17T03:28:10Z</time></trkpt><trkpt lat="-25.147667715894478" lon="115.20660224943286"><ele>169.0</ele><time>2026-04-17T03:28:11Z</time></trkpt><trkpt lat="-25.147469463995723" lon="115.20684996038021"><ele>169.5</ele><time>2026-04-17T03:28:12Z</time></trkpt><trkpt lat="-25.147272006537534" lon="115.20709878963387"><ele>170.0</ele><time>2026-04-17T03:28:13Z</time></trkpt><trkpt lat="-25.147075191814547" lon="115.2073494389496"><ele>169.0</ele><time>2026-04-17T03:28:14Z</time></trkpt><trkpt lat="-25.146888328748172" lon="115.20761201524815"><ele>168.0</ele><time>2026-04-17T03:28:15Z</time></trkpt><trkpt lat="-25.14668828056426" lon="115.20786350739662"><ele>168.5</ele><time>2026-04-17T03:28:16Z</time></trkpt><trkpt lat="-25.146488588758825" lon="115.20811982629156"><ele>169.0</ele><time>2026-04-17T03:28:17Z</time></trkpt><trkpt lat="-25.146291115882363" lon="115.20837374409264"><ele>167.5</ele><time>2026-04-17T03:28:18Z</time></trkpt><trkpt lat="-25.146091198727845" lon="115.20862687376048"><ele>166.0</ele><time>2026-04-17T03:28:19Z</time></trkpt><trkpt lat="-25.145891496140575" lon="115.208877917167"><ele>167.5</ele><time>2026-04-17T03:28:20Z</time></trkpt><trkpt lat="-25.145693312268715" lon="115.2091323432295"><ele>169.0</ele><time>2026-04-17T03:28:21Z</time></trkpt><trkpt lat="-25.145493986054227" lon="115.20938630793441"><ele>169.0</ele><time>2026-04-17T03:28:22Z</time></trkpt><trkpt lat="-25.145291373552556" lon="115.2096387844231"><ele>169.0</ele><time>2026-04-17T03:28:23Z</time></trkpt><trkpt lat="-25.14509544912342" lon="115.20989564982094"><ele>169.0</ele><time>2026-04-17T03:28:24Z</time></trkpt><trkpt lat="-25.14488431112269" lon="115.21013852927359"><ele>169.0</ele><time>2026-04-17T03:28:25Z</time></trkpt><trkpt lat="-25.144683938004793" lon="115.21039579896255"><ele>168.5</ele><time>2026-04-17T03:28:26Z</time></trkpt><trkpt lat="-25.14450155354865" lon="115.2106594295563"><ele>168.0</ele><time>2026-04-17T03:28:27Z</time></trkpt><trkpt lat="-25.14429376045237" lon="115.21091444011043"><ele>168.0</ele><time>2026-04-17T03:28:28Z</time></trkpt><trkpt lat="-25.144085984171745" lon="115.21117036509415"><ele>168.0</ele><time>2026-04-17T03:28:29Z</time></trkpt><trkpt lat="-25.143877247539262" lon="115.21143296285787"><ele>169.5</ele><time>2026-04-17T03:28:30Z</time></trkpt><trkpt lat="-25.143672201744167" lon="115.21169435778982"><ele>171.0</ele><time>2026-04-17T03:28:31Z</time></trkpt><trkpt lat="-25.143465203627414" lon="115.21195917441052"><ele>171.0</ele><time>2026-04-17T03:28:32Z</time></trkpt><trkpt lat="-25.143257761384767" lon="115.21222460069367"><ele>171.0</ele><time>2026-04-17T03:28:33Z</time></trkpt><trkpt lat="-25.143051927368074" lon="115.21248552873872"><ele>171.0</ele><time>2026-04-17T03:28:34Z</time></trkpt><trkpt lat="-25.142845269465568" lon="115.21274640245885"><ele>171.0</ele><time>2026-04-17T03:28:35Z</time></trkpt><trkpt lat="-25.14263721771339" lon="115.21300632777589"><ele>170.5</ele><time>2026-04-17T03:28:36Z</time></trkpt><trkpt lat="-25.142426145360538" lon="115.2132685178788"><ele>170.0</ele><time>2026-04-17T03:28:37Z</time></trkpt><trkpt lat="-25.14221954074325" lon="115.21352659097273"><ele>170.0</ele><time>2026-04-17T03:28:38Z</time></trkpt><trkpt lat="-25.142018175905086" lon="115.21378206066552"><ele>170.0</ele><time>2026-04-17T03:28:39Z</time></trkpt><trkpt lat="-25.14181200459605" lon="115.21404485716421"><ele>169.5</ele><time>2026-04-17T03:28:40Z</time></trkpt><trkpt lat="-25.141604997505738" lon="115.21430385680573"><ele>169.0</ele><time>2026-04-17T03:28:41Z</time></trkpt><trkpt lat="-25.141396965771342" lon="115.21456465941004"><ele>169.0</ele><time>2026-04-17T03:28:42Z</time></trkpt><trkpt lat="-25.141189517078754" lon="115.21482752687658"><ele>169.0</ele><time>2026-04-17T03:28:43Z</time></trkpt><trkpt lat="-25.140981128445635" lon="115.21509218011015"><ele>169.0</ele><time>2026-04-17T03:28:44Z</time></trkpt><trkpt lat="-25.14077145784308" lon="115.21535965688992"><ele>169.0</ele><time>2026-04-17T03:28:45Z</time></trkpt><trkpt lat="-25.140562387120205" lon="115.21562690256218"><ele>169.5</ele><time>2026-04-17T03:28:46Z</time></trkpt><trkpt lat="-25.14036046043458" lon="115.2158874409171"><ele>170.0</ele><time>2026-04-17T03:28:47Z</time></trkpt><trkpt lat="-25.14015818044032" lon="115.21614947413035"><ele>170.0</ele><time>2026-04-17T03:28:48Z</time></trkpt><trkpt lat="-25.139955410713927" lon="115.21641450818238"><ele>170.0</ele><time>2026-04-17T03:28:49Z</time></trkpt><trkpt lat="-25.139753632490162" lon="115.21667887596125"><ele>171.0</ele><time>2026-04-17T03:28:50Z</time></trkpt><trkpt lat="-25.139554738714963" lon="115.21694402512814"><ele>172.0</ele><time>2026-04-17T03:28:51Z</time></trkpt><trkpt lat="-25.13936139038979" lon="115.21721557473947"><ele>171.5</ele><time>2026-04-17T03:28:52Z</time></trkpt><trkpt lat="-25.139177075216306" lon="115.21749268593167"><ele>171.0</ele><time>2026-04-17T03:28:53Z</time></trkpt><trkpt lat="-25.139000095038803" lon="115.21777682399976"><ele>170.5</ele><time>2026-04-17T03:28:54Z</time></trkpt><trkpt lat="-25.138829421915297" lon="115.21806712755601"><ele>170.0</ele><time>2026-04-17T03:28:55Z</time></trkpt><trkpt lat="-25.138664186273292" lon="115.21836078158178"><ele>169.5</ele><time>2026-04-17T03:28:56Z</time></trkpt><trkpt lat="-25.138502818820317" lon="115.21865796909137"><ele>169.0</ele><time>2026-04-17T03:28:57Z</time></trkpt><trkpt lat="-25.13834290242769" lon="115.21895866822946"><ele>167.0</ele><time>2026-04-17T03:28:58Z</time></trkpt><trkpt lat="-25.13818437776246" lon="115.21926015974762"><ele>165.0</ele><time>2026-04-17T03:28:59Z</time></trkpt><trkpt lat="-25.13802151529285" lon="115.21956159239595"><ele>168.0</ele><time>2026-04-17T03:29:00Z</time></trkpt><trkpt lat="-25.13785511152444" lon="115.21986554183262"><ele>171.0</ele><time>2026-04-17T03:29:01Z</time></trkpt><trkpt lat="-25.13768955313327" lon="115.22016539791856"><ele>171.0</ele><time>2026-04-17T03:29:02Z</time></trkpt><trkpt lat="-25.137525602591474" lon="115.22046365087706"><ele>171.0</ele><time>2026-04-17T03:29:03Z</time></trkpt><trkpt lat="-25.137357949068637" lon="115.22076340116173"><ele>169.0</ele><time>2026-04-17T03:29:04Z</time></trkpt><trkpt lat="-25.137194155409247" lon="115.22106041176336"><ele>167.0</ele><time>2026-04-17T03:29:05Z</time></trkpt><trkpt lat="-25.137026012989867" lon="115.22136179005365"><ele>166.0</ele><time>2026-04-17T03:29:06Z</time></trkpt><trkpt lat="-25.136857761590424" lon="115.22166149486898"><ele>165.0</ele><time>2026-04-17T03:29:07Z</time></trkpt><trkpt lat="-25.136689438578372" lon="115.22196089357861"><ele>165.5</ele><time>2026-04-17T03:29:08Z</time></trkpt><trkpt lat="-25.136526267133522" lon="115.22225444582963"><ele>166.0</ele><time>2026-04-17T03:29:09Z</time></trkpt><trkpt lat="-25.13636233849184" lon="115.22254417152585"><ele>167.0</ele><time>2026-04-17T03:29:10Z</time></trkpt><trkpt lat="-25.136195459398856" lon="115.22283235095422"><ele>168.0</ele><time>2026-04-17T03:29:11Z</time></trkpt><trkpt lat="-25.136028998222827" lon="115.2231159890944"><ele>166.0</ele><time>2026-04-17T03:29:12Z</time></trkpt><trkpt lat="-25.135861822567833" lon="115.22339985307411"><ele>164.0</ele><time>2026-04-17T03:29:13Z</time></trkpt><trkpt lat="-25.135695904233035" lon="115.22367905934262"><ele>164.0</ele><time>2026-04-17T03:29:14Z</time></trkpt><trkpt lat="-25.135530880056038" lon="115.22396095053787"><ele>164.0</ele><time>2026-04-17T03:29:15Z</time></trkpt><trkpt lat="-25.135369302399365" lon="115.22424564172486"><ele>165.0</ele><time>2026-04-17T03:29:16Z</time></trkpt><trkpt lat="-25.135212588378533" lon="115.22452936929494"><ele>166.0</ele><time>2026-04-17T03:29:17Z</time></trkpt><trkpt lat="-25.135058737734" lon="115.22481595877741"><ele>169.0</ele><time>2026-04-17T03:29:18Z</time></trkpt><trkpt lat="-25.13491368777965" lon="115.2251073756114"><ele>172.0</ele><time>2026-04-17T03:29:19Z</time></trkpt><trkpt lat="-25.134774048130865" lon="115.22539884738417"><ele>170.0</ele><time>2026-04-17T03:29:20Z</time></trkpt><trkpt lat="-25.134642830225143" lon="115.22569385674312"><ele>168.0</ele><time>2026-04-17T03:29:21Z</time></trkpt><trkpt lat="-25.13452535784726" lon="115.22599202958828"><ele>168.0</ele><time>2026-04-17T03:29:22Z</time></trkpt><trkpt lat="-25.13441663513195" lon="115.22629830160918"><ele>168.0</ele><time>2026-04-17T03:29:23Z</time></trkpt><trkpt lat="-25.134317770413407" lon="115.22661453277227"><ele>167.0</ele><time>2026-04-17T03:29:24Z</time></trkpt><trkpt lat="-25.134229385149716" lon="115.22693871377712"><ele>166.0</ele><time>2026-04-17T03:29:25Z</time></trkpt><trkpt lat="-25.134148835894386" lon="115.22726446167121"><ele>166.5</ele><time>2026-04-17T03:29:26Z</time></trkpt><trkpt lat="-25.13406886907619" lon="115.22759131017092"><ele>167.0</ele><time>2026-04-17T03:29:27Z</time></trkpt><trkpt lat="-25.13398549710298" lon="115.22791811641756"><ele>167.5</ele><time>2026-04-17T03:29:28Z</time></trkpt><trkpt lat="-25.133902480765695" lon="115.22824429515025"><ele>168.0</ele><time>2026-04-17T03:29:29Z</time></trkpt><trkpt lat="-25.133819705882935" lon="115.22857229455171"><ele>168.0</ele><time>2026-04-17T03:29:30Z</time></trkpt><trkpt lat="-25.13373572462265" lon="115.22890407311743"><ele>168.0</ele><time>2026-04-17T03:29:31Z</time></trkpt><trkpt lat="-25.133654646950212" lon="115.229232692912"><ele>168.0</ele><time>2026-04-17T03:29:32Z</time></trkpt><trkpt lat="-25.13357578762486" lon="115.22956262488279"><ele>168.0</ele><time>2026-04-17T03:29:33Z</time></trkpt><trkpt lat="-25.133494983294145" lon="115.22989130428601"><ele>168.0</ele><time>2026-04-17T03:29:34Z</time></trkpt><trkpt lat="-25.133410758008868" lon="115.23021930594481"><ele>168.0</ele><time>2026-04-17T03:29:35Z</time></trkpt><trkpt lat="-25.133325399162896" lon="115.23054740567108"><ele>168.5</ele><time>2026-04-17T03:29:36Z</time></trkpt><trkpt lat="-25.13323893088538" lon="115.23087630983339"><ele>169.0</ele><time>2026-04-17T03:29:37Z</time></trkpt><trkpt lat="-25.133152591312196" lon="115.23120508200344"><ele>167.5</ele><time>2026-04-17T03:29:38Z</time></trkpt><trkpt lat="-25.13306874251234" lon="115.23153528726765"><ele>166.0</ele><time>2026-04-17T03:29:39Z</time></trkpt><trkpt lat="-25.13298466466277" lon="115.23186664707453"><ele>166.0</ele><time>2026-04-17T03:29:40Z</time></trkpt><trkpt lat="-25.13290180593777" lon="115.23219719580386"><ele>166.0</ele><time>2026-04-17T03:29:41Z</time></trkpt><trkpt lat="-25.132818109161494" lon="115.23252904356534"><ele>167.0</ele><time>2026-04-17T03:29:42Z</time></trkpt><trkpt lat="-25.1327338050682" lon="115.23285959818233"><ele>168.0</ele><time>2026-04-17T03:29:43Z</time></trkpt><trkpt lat="-25.132644433552695" lon="115.23319103132961"><ele>168.0</ele><time>2026-04-17T03:29:44Z</time></trkpt><trkpt lat="-25.132550341292113" lon="115.2335243569625"><ele>168.0</ele><time>2026-04-17T03:29:45Z</time></trkpt><trkpt lat="-25.132459288592393" lon="115.23385651814847"><ele>170.0</ele><time>2026-04-17T03:29:46Z</time></trkpt><trkpt lat="-25.132370453948255" lon="115.23418751842885"><ele>172.0</ele><time>2026-04-17T03:29:47Z</time></trkpt><trkpt lat="-25.13228267474915" lon="115.23451751070452"><ele>170.5</ele><time>2026-04-17T03:29:48Z</time></trkpt><trkpt lat="-25.132194881667505" lon="115.23484883349668"><ele>169.0</ele><time>2026-04-17T03:29:49Z</time></trkpt><trkpt lat="-25.132105513499774" lon="115.23518109808205"><ele>169.0</ele><time>2026-04-17T03:29:50Z</time></trkpt><trkpt lat="-25.13201752435256" lon="115.23551590971697"><ele>169.0</ele><time>2026-04-17T03:29:51Z</time></trkpt><trkpt lat="-25.1319344959926" lon="115.23584757648226"><ele>169.0</ele><time>2026-04-17T03:29:52Z</time></trkpt><trkpt lat="-25.13184645416229" lon="115.2361862629228"><ele>169.0</ele><time>2026-04-17T03:29:53Z</time></trkpt><trkpt lat="-25.131754826836552" lon="115.23652266875162"><ele>169.0</ele><time>2026-04-17T03:29:54Z</time></trkpt><trkpt lat="-25.131662717104668" lon="115.23686185531315"><ele>169.0</ele><time>2026-04-17T03:29:55Z</time></trkpt><trkpt lat="-25.131571795968398" lon="115.23719862663833"><ele>171.5</ele><time>2026-04-17T03:29:56Z</time></trkpt><trkpt lat="-25.131481016854114" lon="115.23753403899063"><ele>174.0</ele><time>2026-04-17T03:29:57Z</time></trkpt><trkpt lat="-25.131389243258162" lon="115.23787110074294"><ele>173.0</ele><time>2026-04-17T03:29:58Z</time></trkpt><trkpt lat="-25.131295059668798" lon="115.23820916828116"><ele>172.0</ele><time>2026-04-17T03:29:59Z</time></trkpt><trkpt lat="-25.131204274352307" lon="115.23854642358826"><ele>172.0</ele><time>2026-04-17T03:30:00Z</time></trkpt><trkpt lat="-25.13111284291139" lon="115.23888549490476"><ele>172.0</ele><time>2026-04-17T03:30:01Z</time></trkpt><trkpt lat="-25.131022365940662" lon="115.23922332352555"><ele>171.5</ele><time>2026-04-17T03:30:02Z</time></trkpt><trkpt lat="-25.13093375910731" lon="115.23955868485697"><ele>171.0</ele><time>2026-04-17T03:30:03Z</time></trkpt><trkpt lat="-25.130844601752273" lon="115.23989643730253"><ele>171.0</ele><time>2026-04-17T03:30:04Z</time></trkpt><trkpt lat="-25.13075446106965" lon="115.2402311643226"><ele>171.0</ele><time>2026-04-17T03:30:05Z</time></trkpt><trkpt lat="-25.13066456035654" lon="115.2405649521249"><ele>172.0</ele><time>2026-04-17T03:30:06Z</time></trkpt><trkpt lat="-25.130575125493145" lon="115.24089876860984"><ele>173.0</ele><time>2026-04-17T03:30:07Z</time></trkpt><trkpt lat="-25.130488742521774" lon="115.24122719161588"><ele>174.5</ele><time>2026-04-17T03:30:08Z</time></trkpt><trkpt lat="-25.130401380303358" lon="115.24155988871104"><ele>176.0</ele><time>2026-04-17T03:30:09Z</time></trkpt><trkpt lat="-25.130310437059375" lon="115.24188991175232"><ele>176.0</ele><time>2026-04-17T03:30:10Z</time></trkpt><trkpt lat="-25.130216878307074" lon="115.24221729417907"><ele>176.0</ele><time>2026-04-17T03:30:11Z</time></trkpt><trkpt lat="-25.130122453194925" lon="115.24254394319564"><ele>175.0</ele><time>2026-04-17T03:30:12Z</time></trkpt><trkpt lat="-25.130033704832698" lon="115.24287132117436"><ele>174.0</ele><time>2026-04-17T03:30:13Z</time></trkpt><trkpt lat="-25.12994807899976" lon="115.24319790888067"><ele>174.0</ele><time>2026-04-17T03:30:14Z</time></trkpt><trkpt lat="-25.12986270420361" lon="115.24352480479715"><ele>174.0</ele><time>2026-04-17T03:30:15Z</time></trkpt><trkpt lat="-25.12977657408253" lon="115.24385174709887"><ele>173.5</ele><time>2026-04-17T03:30:16Z</time></trkpt><trkpt lat="-25.129688399276656" lon="115.24418100766255"><ele>173.0</ele><time>2026-04-17T03:30:17Z</time></trkpt><trkpt lat="-25.129602066718846" lon="115.24451047471295"><ele>172.5</ele><time>2026-04-17T03:30:18Z</time></trkpt><trkpt lat="-25.12951084400221" lon="115.24484327020008"><ele>172.0</ele><time>2026-04-17T03:30:19Z</time></trkpt><trkpt lat="-25.129421072652132" lon="115.24516800725435"><ele>172.0</ele><time>2026-04-17T03:30:20Z</time></trkpt><trkpt lat="-25.129331001326896" lon="115.24549795890007"><ele>172.0</ele><time>2026-04-17T03:30:21Z</time></trkpt><trkpt lat="-25.129239619362792" lon="115.24583185742486"><ele>172.0</ele><time>2026-04-17T03:30:22Z</time></trkpt><trkpt lat="-25.129149095155107" lon="115.24616595120104"><ele>172.0</ele><time>2026-04-17T03:30:23Z</time></trkpt><trkpt lat="-25.129057260495685" lon="115.24650141798034"><ele>172.0</ele><time>2026-04-17T03:30:24Z</time></trkpt><trkpt lat="-25.12896406238325" lon="115.24683208488064"><ele>172.0</ele><time>2026-04-17T03:30:25Z</time></trkpt><trkpt lat="-25.128871351388245" lon="115.24716218577517"><ele>172.5</ele><time>2026-04-17T03:30:26Z</time></trkpt><trkpt lat="-25.12877549143088" lon="115.24749599612586"><ele>173.0</ele><time>2026-04-17T03:30:27Z</time></trkpt><trkpt lat="-25.128675154696197" lon="115.24782258746463"><ele>174.0</ele><time>2026-04-17T03:30:28Z</time></trkpt><trkpt lat="-25.12856531803147" lon="115.24814582143786"><ele>175.0</ele><time>2026-04-17T03:30:29Z</time></trkpt><trkpt lat="-25.128445251767726" lon="115.24845416562711"><ele>175.0</ele><time>2026-04-17T03:30:30Z</time></trkpt><trkpt lat="-25.128311582171687" lon="115.24873648899384"><ele>175.0</ele><time>2026-04-17T03:30:31Z</time></trkpt><trkpt lat="-25.128158735650086" lon="115.24900319036303"><ele>174.5</ele><time>2026-04-17T03:30:32Z</time></trkpt><trkpt lat="-25.12799127552358" lon="115.24924055396978"><ele>174.0</ele><time>2026-04-17T03:30:33Z</time></trkpt><trkpt lat="-25.127799645120536" lon="115.24946148656755"><ele>174.0</ele><time>2026-04-17T03:30:34Z</time></trkpt><trkpt lat="-25.12758340926504" lon="115.24966492729912"><ele>174.0</ele><time>2026-04-17T03:30:35Z</time></trkpt><trkpt lat="-25.127348535233537" lon="115.2498510197429"><ele>174.5</ele><time>2026-04-17T03:30:36Z</time></trkpt><trkpt lat="-25.12709258745333" lon="115.2500176697652"><ele>175.0</ele><time>2026-04-17T03:30:37Z</time></trkpt><trkpt lat="-25.12683161758123" lon="115.25017331171597"><ele>175.0</ele><time>2026-04-17T03:30:38Z</time></trkpt><trkpt lat="-25.126568110187453" lon="115.25031445869047"><ele>175.0</ele><time>2026-04-17T03:30:39Z</time></trkpt><trkpt lat="-25.126309405682576" lon="115.25045276788042"><ele>176.0</ele><time>2026-04-17T03:30:40Z</time></trkpt><trkpt lat="-25.126047912447415" lon="115.25058779878044"><ele>177.0</ele><time>2026-04-17T03:30:41Z</time></trkpt><trkpt lat="-25.125786901637436" lon="115.25071855653236"><ele>177.5</ele><time>2026-04-17T03:30:42Z</time></trkpt><trkpt lat="-25.125523243812523" lon="115.25084734555858"><ele>178.0</ele><time>2026-04-17T03:30:43Z</time></trkpt><trkpt lat="-25.12525707733392" lon="115.2509648286383"><ele>178.0</ele><time>2026-04-17T03:30:44Z</time></trkpt><trkpt lat="-25.124984148038077" lon="115.251070873429"><ele>178.0</ele><time>2026-04-17T03:30:45Z</time></trkpt><trkpt lat="-25.124716520536317" lon="115.25116152543846"><ele>177.0</ele><time>2026-04-17T03:30:46Z</time></trkpt><trkpt lat="-25.124452782409563" lon="115.2512310792416"><ele>176.0</ele><time>2026-04-17T03:30:47Z</time></trkpt><trkpt lat="-25.124192116830788" lon="115.25128441598889"><ele>176.0</ele><time>2026-04-17T03:30:48Z</time></trkpt><trkpt lat="-25.123932367045665" lon="115.25132109925296"><ele>176.0</ele><time>2026-04-17T03:30:49Z</time></trkpt><trkpt lat="-25.12366429948929" lon="115.25133976173667"><ele>176.0</ele><time>2026-04-17T03:30:50Z</time></trkpt><trkpt lat="-25.12339825099184" lon="115.25135266641372"><ele>176.0</ele><time>2026-04-17T03:30:51Z</time></trkpt><trkpt lat="-25.123128739379116" lon="115.25135954954277"><ele>176.0</ele><time>2026-04-17T03:30:52Z</time></trkpt><trkpt lat="-25.122859046073277" lon="115.25134795906312"><ele>176.0</ele><time>2026-04-17T03:30:53Z</time></trkpt><trkpt lat="-25.12259550539363" lon="115.25132099048942"><ele>175.0</ele><time>2026-04-17T03:30:54Z</time></trkpt><trkpt lat="-25.12233016500317" lon="115.2512865721337"><ele>174.0</ele><time>2026-04-17T03:30:55Z</time></trkpt><trkpt lat="-25.122064152945548" lon="115.25124007271754"><ele>174.0</ele><time>2026-04-17T03:30:56Z</time></trkpt><trkpt lat="-25.121800232269784" lon="115.2511880116235"><ele>174.0</ele><time>2026-04-17T03:30:57Z</time></trkpt><trkpt lat="-25.121537474260442" lon="115.25113687787614"><ele>174.0</ele><time>2026-04-17T03:30:58Z</time></trkpt><trkpt lat="-25.121276071224898" lon="115.25108346569756"><ele>174.0</ele><time>2026-04-17T03:30:59Z</time></trkpt><trkpt lat="-25.121010815416838" lon="115.25102346640193"><ele>174.0</ele><time>2026-04-17T03:31:00Z</time></trkpt><trkpt lat="-25.120747793921222" lon="115.25096477052624"><ele>174.0</ele><time>2026-04-17T03:31:01Z</time></trkpt><trkpt lat="-25.1204832483886" lon="115.25091146694204"><ele>174.0</ele><time>2026-04-17T03:31:02Z</time></trkpt><trkpt lat="-25.12021689810612" lon="115.2508564791527"><ele>174.0</ele><time>2026-04-17T03:31:03Z</time></trkpt><trkpt lat="-25.11995090675854" lon="115.25079404607986"><ele>176.0</ele><time>2026-04-17T03:31:04Z</time></trkpt><trkpt lat="-25.11968646745895" lon="115.25072688495698"><ele>178.0</ele><time>2026-04-17T03:31:05Z</time></trkpt><trkpt lat="-25.11942484155927" lon="115.25065706995198"><ele>177.0</ele><time>2026-04-17T03:31:06Z</time></trkpt><trkpt lat="-25.119168201166932" lon="115.25057461991281"><ele>176.0</ele><time>2026-04-17T03:31:07Z</time></trkpt><trkpt lat="-25.118918004761042" lon="115.25047707546706"><ele>174.0</ele><time>2026-04-17T03:31:08Z</time></trkpt><trkpt lat="-25.118675464871654" lon="115.25036482567972"><ele>172.0</ele><time>2026-04-17T03:31:09Z</time></trkpt><trkpt lat="-25.118440853249936" lon="115.25023740154933"><ele>173.0</ele><time>2026-04-17T03:31:10Z</time></trkpt><trkpt lat="-25.11820848852386" lon="115.25009529311173"><ele>174.0</ele><time>2026-04-17T03:31:11Z</time></trkpt><trkpt lat="-25.11797723152794" lon="115.24994597893834"><ele>174.0</ele><time>2026-04-17T03:31:12Z</time></trkpt><trkpt lat="-25.117748790092236" lon="115.24979264317194"><ele>174.0</ele><time>2026-04-17T03:31:13Z</time></trkpt><trkpt lat="-25.11752382740296" lon="115.24963979889486"><ele>174.5</ele><time>2026-04-17T03:31:14Z</time></trkpt><trkpt lat="-25.11730492251968" lon="115.24947458247492"><ele>175.0</ele><time>2026-04-17T03:31:15Z</time></trkpt><trkpt lat="-25.117094710456318" lon="115.2492940836656"><ele>175.0</ele><time>2026-04-17T03:31:16Z</time></trkpt><trkpt lat="-25.116893865467535" lon="115.24910551722053"><ele>175.0</ele><time>2026-04-17T03:31:17Z</time></trkpt><trkpt lat="-25.116708749467215" lon="115.24890965679512"><ele>174.0</ele><time>2026-04-17T03:31:18Z</time></trkpt><trkpt lat="-25.11653675857495" lon="115.24870253556959"><ele>173.0</ele><time>2026-04-17T03:31:19Z</time></trkpt><trkpt lat="-25.116370096657057" lon="115.24847900084733"><ele>173.0</ele><time>2026-04-17T03:31:20Z</time></trkpt><trkpt lat="-25.11620350198615" lon="115.24824899153138"><ele>173.0</ele><time>2026-04-17T03:31:21Z</time></trkpt><trkpt lat="-25.11604078642158" lon="115.24801254863912"><ele>172.0</ele><time>2026-04-17T03:31:22Z</time></trkpt><trkpt lat="-25.11587998036074" lon="115.24777119955324"><ele>171.0</ele><time>2026-04-17T03:31:23Z</time></trkpt><trkpt lat="-25.1157226378687" lon="115.2475292258744"><ele>169.5</ele><time>2026-04-17T03:31:24Z</time></trkpt><trkpt lat="-25.11556776100854" lon="115.24728714800385"><ele>168.0</ele><time>2026-04-17T03:31:25Z</time></trkpt><trkpt lat="-25.115411339322414" lon="115.24704585335799"><ele>168.0</ele><time>2026-04-17T03:31:26Z</time></trkpt><trkpt lat="-25.115255032555083" lon="115.24680158276162"><ele>168.0</ele><time>2026-04-17T03:31:27Z</time></trkpt><trkpt lat="-25.115101314245248" lon="115.24655552973248"><ele>170.0</ele><time>2026-04-17T03:31:28Z</time></trkpt><trkpt lat="-25.114948731665447" lon="115.24630960644463"><ele>172.0</ele><time>2026-04-17T03:31:29Z</time></trkpt><trkpt lat="-25.114793198710558" lon="115.24606006851752"><ele>172.0</ele><time>2026-04-17T03:31:30Z</time></trkpt><trkpt lat="-25.114635192043462" lon="115.24580655286586"><ele>172.0</ele><time>2026-04-17T03:31:31Z</time></trkpt><trkpt lat="-25.114476002876792" lon="115.2455551192786"><ele>170.0</ele><time>2026-04-17T03:31:32Z</time></trkpt><trkpt lat="-25.1143190091488" lon="115.24530457454098"><ele>168.0</ele><time>2026-04-17T03:31:33Z</time></trkpt><trkpt lat="-25.114163040727743" lon="115.24505452687865"><ele>171.0</ele><time>2026-04-17T03:31:34Z</time></trkpt><trkpt lat="-25.11400658365699" lon="115.24480167084644"><ele>174.0</ele><time>2026-04-17T03:31:35Z</time></trkpt><trkpt lat="-25.11385070644909" lon="115.2445542172349"><ele>174.0</ele><time>2026-04-17T03:31:36Z</time></trkpt><trkpt lat="-25.113689817106607" lon="115.24430739954643"><ele>174.0</ele><time>2026-04-17T03:31:37Z</time></trkpt><trkpt lat="-25.11352723672851" lon="115.24405903676052"><ele>175.5</ele><time>2026-04-17T03:31:38Z</time></trkpt><trkpt lat="-25.113367926278126" lon="115.2438064801269"><ele>177.0</ele><time>2026-04-17T03:31:39Z</time></trkpt><trkpt lat="-25.11321267084871" lon="115.24355096975351"><ele>177.5</ele><time>2026-04-17T03:31:40Z</time></trkpt><trkpt lat="-25.113065503710928" lon="115.24329796513892"><ele>178.0</ele><time>2026-04-17T03:31:41Z</time></trkpt><trkpt lat="-25.112940085266853" lon="115.24305122086106"><ele>178.0</ele><time>2026-04-17T03:31:42Z</time></trkpt><trkpt lat="-25.112835416185778" lon="115.24279233379812"><ele>178.0</ele><time>2026-04-17T03:31:43Z</time></trkpt><trkpt lat="-25.112743738423635" lon="115.24252046926972"><ele>178.0</ele><time>2026-04-17T03:31:44Z</time></trkpt><trkpt lat="-25.11266588446918" lon="115.24224226073214"><ele>178.0</ele><time>2026-04-17T03:31:45Z</time></trkpt><trkpt lat="-25.112601748734335" lon="115.24195701168325"><ele>178.0</ele><time>2026-04-17T03:31:46Z</time></trkpt><trkpt lat="-25.11255149606203" lon="115.24166279878472"><ele>178.0</ele><time>2026-04-17T03:31:47Z</time></trkpt><trkpt lat="-25.112509362950817" lon="115.24136982137084"><ele>178.0</ele><time>2026-04-17T03:31:48Z</time></trkpt><trkpt lat="-25.11247355026624" lon="115.24107409637429"><ele>178.0</ele><time>2026-04-17T03:31:49Z</time></trkpt><trkpt lat="-25.11244421036006" lon="115.24077801835038"><ele>177.5</ele><time>2026-04-17T03:31:50Z</time></trkpt><trkpt lat="-25.112420644742595" lon="115.2404877734907"><ele>177.0</ele><time>2026-04-17T03:31:51Z</time></trkpt><trkpt lat="-25.112401904485566" lon="115.24019771329645"><ele>176.5</ele><time>2026-04-17T03:31:52Z</time></trkpt><trkpt lat="-25.11238292427198" lon="115.23990980276734"><ele>176.0</ele><time>2026-04-17T03:31:53Z</time></trkpt><trkpt lat="-25.11235733548767" lon="115.23963124157544"><ele>176.0</ele><time>2026-04-17T03:31:54Z</time></trkpt><trkpt lat="-25.112330085809514" lon="115.23934575313714"><ele>176.0</ele><time>2026-04-17T03:31:55Z</time></trkpt><trkpt lat="-25.112297890712192" lon="115.23905687872272"><ele>175.0</ele><time>2026-04-17T03:31:56Z</time></trkpt><trkpt lat="-25.112258674701323" lon="115.2387646684798"><ele>174.0</ele><time>2026-04-17T03:31:57Z</time></trkpt><trkpt lat="-25.112216392892535" lon="115.23847353278586"><ele>174.0</ele><time>2026-04-17T03:31:58Z</time></trkpt><trkpt lat="-25.11216695798629" lon="115.2381855840426"><ele>174.0</ele><time>2026-04-17T03:31:59Z</time></trkpt><trkpt lat="-25.112111748105466" lon="115.23790704394392"><ele>175.0</ele><time>2026-04-17T03:32:00Z</time></trkpt><trkpt lat="-25.112043746512857" lon="115.23762334499624"><ele>176.0</ele><time>2026-04-17T03:32:01Z</time></trkpt><trkpt lat="-25.111966080611978" lon="115.2373465588005"><ele>176.0</ele><time>2026-04-17T03:32:02Z</time></trkpt><trkpt lat="-25.111876019287887" lon="115.23707386287202"><ele>176.0</ele><time>2026-04-17T03:32:03Z</time></trkpt><trkpt lat="-25.111770485834036" lon="115.23680752803712"><ele>176.0</ele><time>2026-04-17T03:32:04Z</time></trkpt><trkpt lat="-25.111650139738018" lon="115.23654873997388"><ele>176.0</ele><time>2026-04-17T03:32:05Z</time></trkpt><trkpt lat="-25.111536060977933" lon="115.23627974258288"><ele>175.5</ele><time>2026-04-17T03:32:06Z</time></trkpt><trkpt lat="-25.11140419604868" lon="115.23601715513738"><ele>175.0</ele><time>2026-04-17T03:32:07Z</time></trkpt><trkpt lat="-25.111257216148037" lon="115.23576271550029"><ele>176.0</ele><time>2026-04-17T03:32:08Z</time></trkpt><trkpt lat="-25.1110981471255" lon="115.23551487135383"><ele>177.0</ele><time>2026-04-17T03:32:09Z</time></trkpt><trkpt lat="-25.11093724336479" lon="115.23528215582111"><ele>177.0</ele><time>2026-04-17T03:32:10Z</time></trkpt><trkpt lat="-25.11077999376366" lon="115.23507374530453"><ele>177.0</ele><time>2026-04-17T03:32:11Z</time></trkpt><trkpt lat="-25.110616498589547" lon="115.23488870101885"><ele>176.0</ele><time>2026-04-17T03:32:12Z</time></trkpt><trkpt lat="-25.110429659068682" lon="115.23471215792935"><ele>175.0</ele><time>2026-04-17T03:32:13Z</time></trkpt><trkpt lat="-25.110223002640264" lon="115.23455021835404"><ele>175.0</ele><time>2026-04-17T03:32:14Z</time></trkpt><trkpt lat="-25.109999007605673" lon="115.23442320255339"><ele>175.0</ele><time>2026-04-17T03:32:15Z</time></trkpt><trkpt lat="-25.109785318014822" lon="115.23428608139218"><ele>175.0</ele><time>2026-04-17T03:32:16Z</time></trkpt><trkpt lat="-25.109561811920905" lon="115.23416696284752"><ele>175.0</ele><time>2026-04-17T03:32:17Z</time></trkpt><trkpt lat="-25.109330047014343" lon="115.234062812598"><ele>174.5</ele><time>2026-04-17T03:32:18Z</time></trkpt><trkpt lat="-25.10909666623142" lon="115.23395361814933"><ele>174.0</ele><time>2026-04-17T03:32:19Z</time></trkpt><trkpt lat="-25.108851954129406" lon="115.233858516475"><ele>175.0</ele><time>2026-04-17T03:32:20Z</time></trkpt><trkpt lat="-25.10860149224839" lon="115.2337686859211"><ele>176.0</ele><time>2026-04-17T03:32:21Z</time></trkpt><trkpt lat="-25.10835182974563" lon="115.233678173917"><ele>173.5</ele><time>2026-04-17T03:32:22Z</time></trkpt><trkpt lat="-25.108104717597676" lon="115.23357579701698"><ele>171.0</ele><time>2026-04-17T03:32:23Z</time></trkpt><trkpt lat="-25.10785037929086" lon="115.23346962254283"><ele>171.0</ele><time>2026-04-17T03:32:24Z</time></trkpt><trkpt lat="-25.10760832298125" lon="115.23333391677258"><ele>171.0</ele><time>2026-04-17T03:32:25Z</time></trkpt><trkpt lat="-25.107368481953245" lon="115.23318076906348"><ele>173.0</ele><time>2026-04-17T03:32:26Z</time></trkpt><trkpt lat="-25.10713281390186" lon="115.23301531526032"><ele>175.0</ele><time>2026-04-17T03:32:27Z</time></trkpt><trkpt lat="-25.10690176336332" lon="115.23284959942497"><ele>175.0</ele><time>2026-04-17T03:32:28Z</time></trkpt><trkpt lat="-25.10669122352569" lon="115.23268497534"><ele>175.0</ele><time>2026-04-17T03:32:29Z</time></trkpt><trkpt lat="-25.10650753291927" lon="115.23250292379954"><ele>173.5</ele><time>2026-04-17T03:32:30Z</time></trkpt><trkpt lat="-25.106339030284854" lon="115.23229948162798"><ele>172.0</ele><time>2026-04-17T03:32:31Z</time></trkpt><trkpt lat="-25.10618158116117" lon="115.2320806615461"><ele>172.0</ele><time>2026-04-17T03:32:32Z</time></trkpt><trkpt lat="-25.10603670891071" lon="115.23185391908963"><ele>172.0</ele><time>2026-04-17T03:32:33Z</time></trkpt><trkpt lat="-25.105904455338596" lon="115.2316114769061"><ele>171.5</ele><time>2026-04-17T03:32:34Z</time></trkpt><trkpt lat="-25.10578697076787" lon="115.23135798632693"><ele>171.0</ele><time>2026-04-17T03:32:35Z</time></trkpt><trkpt lat="-25.10567609765204" lon="115.23109398664072"><ele>171.0</ele><time>2026-04-17T03:32:36Z</time></trkpt><trkpt lat="-25.10557176292676" lon="115.23082703194268"><ele>171.0</ele><time>2026-04-17T03:32:37Z</time></trkpt><trkpt lat="-25.10546795037182" lon="115.2305530879011"><ele>171.5</ele><time>2026-04-17T03:32:38Z</time></trkpt><trkpt lat="-25.105361549078566" lon="115.23027378760713"><ele>172.0</ele><time>2026-04-17T03:32:39Z</time></trkpt><trkpt lat="-25.105254866195327" lon="115.22999150068017"><ele>172.5</ele><time>2026-04-17T03:32:40Z</time></trkpt><trkpt lat="-25.105149498354645" lon="115.2297058243106"><ele>173.0</ele><time>2026-04-17T03:32:41Z</time></trkpt><trkpt lat="-25.10504308853922" lon="115.22941645540239"><ele>173.0</ele><time>2026-04-17T03:32:42Z</time></trkpt><trkpt lat="-25.10494021828498" lon="115.22912501745546"><ele>173.0</ele><time>2026-04-17T03:32:43Z</time></trkpt><trkpt lat="-25.104834417130682" lon="115.22883253603175"><ele>172.5</ele><time>2026-04-17T03:32:44Z</time></trkpt><trkpt lat="-25.104728857789826" lon="115.22854575751114"><ele>172.0</ele><time>2026-04-17T03:32:45Z</time></trkpt><trkpt lat="-25.104616715292774" lon="115.22826537087333"><ele>171.5</ele><time>2026-04-17T03:32:46Z</time></trkpt><trkpt lat="-25.104493036964108" lon="115.2279902821484"><ele>171.0</ele><time>2026-04-17T03:32:47Z</time></trkpt><trkpt lat="-25.104368327039573" lon="115.22771917490185"><ele>171.0</ele><time>2026-04-17T03:32:48Z</time></trkpt><trkpt lat="-25.104236068052604" lon="115.22744819689282"><ele>171.0</ele><time>2026-04-17T03:32:49Z</time></trkpt><trkpt lat="-25.10409713059249" lon="115.227184615664"><ele>171.0</ele><time>2026-04-17T03:32:50Z</time></trkpt><trkpt lat="-25.10394339608511" lon="115.22692132257114"><ele>171.0</ele><time>2026-04-17T03:32:51Z</time></trkpt><trkpt lat="-25.103776805663657" lon="115.22667099084838"><ele>171.0</ele><time>2026-04-17T03:32:52Z</time></trkpt><trkpt lat="-25.10359651293538" lon="115.2264296922094"><ele>171.0</ele><time>2026-04-17T03:32:53Z</time></trkpt><trkpt lat="-25.1034053048233" lon="115.22619108349896"><ele>170.0</ele><time>2026-04-17T03:32:54Z</time></trkpt><trkpt lat="-25.103205427128714" lon="115.22595922550975"><ele>169.0</ele><time>2026-04-17T03:32:55Z</time></trkpt><trkpt lat="-25.102991033523708" lon="115.22573145483497"><ele>169.5</ele><time>2026-04-17T03:32:56Z</time></trkpt><trkpt lat="-25.102773583998406" lon="115.22551417974526"><ele>170.0</ele><time>2026-04-17T03:32:57Z</time></trkpt><trkpt lat="-25.102553964177755" lon="115.22530211668273"><ele>170.5</ele><time>2026-04-17T03:32:58Z</time></trkpt><trkpt lat="-25.102329986349037" lon="115.22509297359274"><ele>171.0</ele><time>2026-04-17T03:32:59Z</time></trkpt><trkpt lat="-25.102103019565273" lon="115.22488633330772"><ele>171.0</ele><time>2026-04-17T03:33:00Z</time></trkpt><trkpt lat="-25.101869334742087" lon="115.22468045450972"><ele>171.0</ele><time>2026-04-17T03:33:01Z</time></trkpt><trkpt lat="-25.10163979391508" lon="115.22448444080943"><ele>173.0</ele><time>2026-04-17T03:33:02Z</time></trkpt><trkpt lat="-25.101410292384582" lon="115.22428707794681"><ele>175.0</ele><time>2026-04-17T03:33:03Z</time></trkpt><trkpt lat="-25.1011846295769" lon="115.22408951503637"><ele>174.5</ele><time>2026-04-17T03:33:04Z</time></trkpt><trkpt lat="-25.100964068846732" lon="115.22389640511413"><ele>174.0</ele><time>2026-04-17T03:33:05Z</time></trkpt><trkpt lat="-25.100748442675968" lon="115.22370369253977"><ele>173.0</ele><time>2026-04-17T03:33:06Z</time></trkpt><trkpt lat="-25.100529186218743" lon="115.22351574960693"><ele>172.0</ele><time>2026-04-17T03:33:07Z</time></trkpt><trkpt lat="-25.100305261898594" lon="115.22333051727955"><ele>172.0</ele><time>2026-04-17T03:33:08Z</time></trkpt><trkpt lat="-25.10007280510251" lon="115.2231523313766"><ele>172.0</ele><time>2026-04-17T03:33:09Z</time></trkpt><trkpt lat="-25.09983109907764" lon="115.22297937044117"><ele>171.5</ele><time>2026-04-17T03:33:10Z</time></trkpt><trkpt lat="-25.099587234808094" lon="115.22280898536589"><ele>171.0</ele><time>2026-04-17T03:33:11Z</time></trkpt><trkpt lat="-25.099343459007606" lon="115.22264222811035"><ele>171.0</ele><time>2026-04-17T03:33:12Z</time></trkpt><trkpt lat="-25.099100201669675" lon="115.22247731340265"><ele>171.0</ele><time>2026-04-17T03:33:13Z</time></trkpt><trkpt lat="-25.098854780139714" lon="115.22230949208846"><ele>172.0</ele><time>2026-04-17T03:33:14Z</time></trkpt><trkpt lat="-25.098616307460308" lon="115.22213830709948"><ele>173.0</ele><time>2026-04-17T03:33:15Z</time></trkpt><trkpt lat="-25.09838310810064" lon="115.22196206005486"><ele>174.0</ele><time>2026-04-17T03:33:16Z</time></trkpt><trkpt lat="-25.09815849680604" lon="115.22177790035181"><ele>175.0</ele><time>2026-04-17T03:33:17Z</time></trkpt><trkpt lat="-25.097945662792323" lon="115.22158362290493"><ele>173.5</ele><time>2026-04-17T03:33:18Z</time></trkpt><trkpt lat="-25.097739750321225" lon="115.22137387258104"><ele>172.0</ele><time>2026-04-17T03:33:19Z</time></trkpt><trkpt lat="-25.097541088405237" lon="115.22115311422488"><ele>172.5</ele><time>2026-04-17T03:33:20Z</time></trkpt><trkpt lat="-25.09734147188081" lon="115.22092403134012"><ele>173.0</ele><time>2026-04-17T03:33:21Z</time></trkpt><trkpt lat="-25.09715169445682" lon="115.22068664995105"><ele>173.5</ele><time>2026-04-17T03:33:22Z</time></trkpt><trkpt lat="-25.096971022354147" lon="115.22043520959176"><ele>174.0</ele><time>2026-04-17T03:33:23Z</time></trkpt><trkpt lat="-25.096794676510363" lon="115.22017362512848"><ele>174.0</ele><time>2026-04-17T03:33:24Z</time></trkpt><trkpt lat="-25.096620382095903" lon="115.21990609676863"><ele>174.0</ele><time>2026-04-17T03:33:25Z</time></trkpt><trkpt lat="-25.096452491393208" lon="115.21963545783878"><ele>174.0</ele><time>2026-04-17T03:33:26Z</time></trkpt><trkpt lat="-25.096286946136495" lon="115.21935665251804"><ele>174.0</ele><time>2026-04-17T03:33:27Z</time></trkpt><trkpt lat="-25.096126218519494" lon="115.21907993821262"><ele>173.0</ele><time>2026-04-17T03:33:28Z</time></trkpt><trkpt lat="-25.095971551183208" lon="115.21879892208946"><ele>172.0</ele><time>2026-04-17T03:33:29Z</time></trkpt><trkpt lat="-25.095832103744172" lon="115.21851170127862"><ele>172.0</ele><time>2026-04-17T03:33:30Z</time></trkpt><trkpt lat="-25.095702562072766" lon="115.2182285318582"><ele>172.0</ele><time>2026-04-17T03:33:31Z</time></trkpt><trkpt lat="-25.095587578707853" lon="115.2179452753525"><ele>172.0</ele><time>2026-04-17T03:33:32Z</time></trkpt><trkpt lat="-25.09548813264388" lon="115.21766164557756"><ele>172.0</ele><time>2026-04-17T03:33:33Z</time></trkpt><trkpt lat="-25.095407417911797" lon="115.21738665954221"><ele>172.0</ele><time>2026-04-17T03:33:34Z</time></trkpt><trkpt lat="-25.09533968753472" lon="115.21711781402105"><ele>172.0</ele><time>2026-04-17T03:33:35Z</time></trkpt><trkpt lat="-25.09527798136946" lon="115.21685987778154"><ele>172.0</ele><time>2026-04-17T03:33:36Z</time></trkpt><trkpt lat="-25.09521283932977" lon="115.21660591372122"><ele>172.0</ele><time>2026-04-17T03:33:37Z</time></trkpt><trkpt lat="-25.0951270853825" lon="115.21635637151985"><ele>172.5</ele><time>2026-04-17T03:33:38Z</time></trkpt><trkpt lat="-25.095017526733425" lon="115.21610962909986"><ele>173.0</ele><time>2026-04-17T03:33:39Z</time></trkpt><trkpt lat="-25.094898865175804" lon="115.21586615755908"><ele>172.0</ele><time>2026-04-17T03:33:40.001Z</time></trkpt><trkpt lat="-25.094767852428994" lon="115.21563777098241"><ele>171.0</ele><time>2026-04-17T03:33:41.001Z</time></trkpt><trkpt lat="-25.09462674668543" lon="115.2154097413932"><ele>171.0</ele><time>2026-04-17T03:33:42.001Z</time></trkpt><trkpt lat="-25.09447088622686" lon="115.21518911538082"><ele>171.0</ele><time>2026-04-17T03:33:43.001Z</time></trkpt><trkpt lat="-25.094302095560444" lon="115.21497409209414"><ele>171.5</ele><time>2026-04-17T03:33:44.001Z</time></trkpt><trkpt lat="-25.094118943178323" lon="115.21476577011109"><ele>172.0</ele><time>2026-04-17T03:33:45.001Z</time></trkpt><trkpt lat="-25.093918895615964" lon="115.21456749692216"><ele>171.0</ele><time>2026-04-17T03:33:46.001Z</time></trkpt><trkpt lat="-25.093706532062534" lon="115.21437608695287"><ele>170.0</ele><time>2026-04-17T03:33:47.001Z</time></trkpt><trkpt lat="-25.09348304675727" lon="115.21419601908207"><ele>170.0</ele><time>2026-04-17T03:33:48.001Z</time></trkpt><trkpt lat="-25.093247284283517" lon="115.2140225824913"><ele>170.0</ele><time>2026-04-17T03:33:49.001Z</time></trkpt><trkpt lat="-25.093004540088014" lon="115.21385978792408"><ele>170.0</ele><time>2026-04-17T03:33:50.001Z</time></trkpt><trkpt lat="-25.09276527249382" lon="115.21368462629418"><ele>170.0</ele><time>2026-04-17T03:33:51.001Z</time></trkpt><trkpt lat="-25.09251434726773" lon="115.21352852627278"><ele>168.0</ele><time>2026-04-17T03:33:52.001Z</time></trkpt><trkpt lat="-25.09226139303076" lon="115.21337589819365"><ele>166.0</ele><time>2026-04-17T03:33:53.001Z</time></trkpt><trkpt lat="-25.09200537602308" lon="115.21322854056083"><ele>166.0</ele><time>2026-04-17T03:33:54Z</time></trkpt><trkpt lat="-25.091745593653076" lon="115.21309165568466"><ele>166.0</ele><time>2026-04-17T03:33:55Z</time></trkpt><trkpt lat="-25.091486377896484" lon="115.21296343970594"><ele>166.0</ele><time>2026-04-17T03:33:56Z</time></trkpt><trkpt lat="-25.091232255759458" lon="115.21284736862884"><ele>166.0</ele><time>2026-04-17T03:33:57Z</time></trkpt><trkpt lat="-25.09096304955689" lon="115.21274351022876"><ele>167.0</ele><time>2026-04-17T03:33:58Z</time></trkpt><trkpt lat="-25.09069480140397" lon="115.21264790280364"><ele>168.0</ele><time>2026-04-17T03:33:59Z</time></trkpt><trkpt lat="-25.090416603002524" lon="115.21256117608309"><ele>168.0</ele><time>2026-04-17T03:34:00Z</time></trkpt><trkpt lat="-25.090131304943736" lon="115.2124906232849"><ele>168.0</ele><time>2026-04-17T03:34:01Z</time></trkpt><trkpt lat="-25.089844147065488" lon="115.2124363978967"><ele>166.5</ele><time>2026-04-17T03:34:02Z</time></trkpt><trkpt lat="-25.089551285358727" lon="115.21239356280444"><ele>165.0</ele><time>2026-04-17T03:34:03Z</time></trkpt><trkpt lat="-25.089254210430948" lon="115.2123724990416"><ele>165.5</ele><time>2026-04-17T03:34:04Z</time></trkpt><trkpt lat="-25.08895683578513" lon="115.2123768266028"><ele>166.0</ele><time>2026-04-17T03:34:05Z</time></trkpt><trkpt lat="-25.088650452808622" lon="115.21238276646093"><ele>166.0</ele><time>2026-04-17T03:34:06Z</time></trkpt><trkpt lat="-25.088345191035135" lon="115.21238988504408"><ele>166.0</ele><time>2026-04-17T03:34:07Z</time></trkpt><trkpt lat="-25.088046273378332" lon="115.21239706852766"><ele>166.0</ele><time>2026-04-17T03:34:08Z</time></trkpt><trkpt lat="-25.087747714136245" lon="115.2124042602034"><ele>166.0</ele><time>2026-04-17T03:34:09Z</time></trkpt><trkpt lat="-25.087451529774796" lon="115.21241147955287"><ele>166.0</ele><time>2026-04-17T03:34:10Z</time></trkpt><trkpt lat="-25.08715619261807" lon="115.21241950828012"><ele>166.0</ele><time>2026-04-17T03:34:11Z</time></trkpt><trkpt lat="-25.08685924310791" lon="115.21242698838712"><ele>164.5</ele><time>2026-04-17T03:34:12Z</time></trkpt><trkpt lat="-25.08656427083291" lon="115.21245204768589"><ele>163.0</ele><time>2026-04-17T03:34:13Z</time></trkpt><trkpt lat="-25.086268341226834" lon="115.21245083715459"><ele>163.0</ele><time>2026-04-17T03:34:14Z</time></trkpt><trkpt lat="-25.085972841659196" lon="115.2124494348653"><ele>163.0</ele><time>2026-04-17T03:34:15Z</time></trkpt><trkpt lat="-25.085678617379916" lon="115.21244957311845"><ele>164.0</ele><time>2026-04-17T03:34:16Z</time></trkpt><trkpt lat="-25.085383392913624" lon="115.21245079319192"><ele>165.0</ele><time>2026-04-17T03:34:17Z</time></trkpt><trkpt lat="-25.085089860594376" lon="115.21245070059912"><ele>165.0</ele><time>2026-04-17T03:34:18Z</time></trkpt><trkpt lat="-25.084804760469588" lon="115.21244809523313"><ele>165.0</ele><time>2026-04-17T03:34:19Z</time></trkpt><trkpt lat="-25.08452491062129" lon="115.21244211658012"><ele>165.0</ele><time>2026-04-17T03:34:20Z</time></trkpt><trkpt lat="-25.08423986867211" lon="115.21243023868557"><ele>165.0</ele><time>2026-04-17T03:34:21Z</time></trkpt><trkpt lat="-25.083957125830025" lon="115.2124070184555"><ele>165.0</ele><time>2026-04-17T03:34:22Z</time></trkpt><trkpt lat="-25.083673835022104" lon="115.2123737719693"><ele>165.0</ele><time>2026-04-17T03:34:23Z</time></trkpt><trkpt lat="-25.083401352234986" lon="115.2123211988452"><ele>166.0</ele><time>2026-04-17T03:34:24Z</time></trkpt><trkpt lat="-25.083145395239324" lon="115.21221778516401"><ele>167.0</ele><time>2026-04-17T03:34:25Z</time></trkpt><trkpt lat="-25.082903281637595" lon="115.21212208535846"><ele>167.0</ele><time>2026-04-17T03:34:26Z</time></trkpt><trkpt lat="-25.082676954418123" lon="115.2120126319049"><ele>167.0</ele><time>2026-04-17T03:34:27Z</time></trkpt><trkpt lat="-25.082447931366627" lon="115.21187211190562"><ele>167.0</ele><time>2026-04-17T03:34:28Z</time></trkpt><trkpt lat="-25.082222129665258" lon="115.21171518073554"><ele>167.0</ele><time>2026-04-17T03:34:29Z</time></trkpt><trkpt lat="-25.08198270030031" lon="115.21155574726194"><ele>167.0</ele><time>2026-04-17T03:34:30Z</time></trkpt><trkpt lat="-25.08175943685374" lon="115.21137678273642"><ele>167.0</ele><time>2026-04-17T03:34:31Z</time></trkpt><trkpt lat="-25.081529855770214" lon="115.21119514251964"><ele>167.0</ele><time>2026-04-17T03:34:32Z</time></trkpt><trkpt lat="-25.081300261000784" lon="115.21101978636753"><ele>167.0</ele><time>2026-04-17T03:34:33Z</time></trkpt><trkpt lat="-25.081073661625535" lon="115.21084614089175"><ele>167.0</ele><time>2026-04-17T03:34:34Z</time></trkpt><trkpt lat="-25.080846652355657" lon="115.21066956172274"><ele>167.0</ele><time>2026-04-17T03:34:35Z</time></trkpt><trkpt lat="-25.080623571355982" lon="115.21050095870551"><ele>165.5</ele><time>2026-04-17T03:34:36Z</time></trkpt><trkpt lat="-25.080397522828765" lon="115.21032776201852"><ele>164.0</ele><time>2026-04-17T03:34:37Z</time></trkpt><trkpt lat="-25.080170176536367" lon="115.21016150869133"><ele>164.0</ele><time>2026-04-17T03:34:38Z</time></trkpt><trkpt lat="-25.07993381328804" lon="115.20998954633453"><ele>164.0</ele><time>2026-04-17T03:34:39Z</time></trkpt><trkpt lat="-25.07969877476032" lon="115.20981616044718"><ele>163.5</ele><time>2026-04-17T03:34:40Z</time></trkpt><trkpt lat="-25.079467826484034" lon="115.20964816040053"><ele>163.0</ele><time>2026-04-17T03:34:41Z</time></trkpt><trkpt lat="-25.079234143116793" lon="115.20947698017902"><ele>163.5</ele><time>2026-04-17T03:34:42Z</time></trkpt><trkpt lat="-25.07900029711777" lon="115.20930544254045"><ele>164.0</ele><time>2026-04-17T03:34:43Z</time></trkpt><trkpt lat="-25.078771505119303" lon="115.20913527189848"><ele>163.0</ele><time>2026-04-17T03:34:44Z</time></trkpt><trkpt lat="-25.078542669237745" lon="115.20896666435985"><ele>162.0</ele><time>2026-04-17T03:34:45Z</time></trkpt><trkpt lat="-25.07831368491412" lon="115.20879890451162"><ele>163.5</ele><time>2026-04-17T03:34:46Z</time></trkpt><trkpt lat="-25.07808519420511" lon="115.20863349007571"><ele>165.0</ele><time>2026-04-17T03:34:47Z</time></trkpt><trkpt lat="-25.077857879293852" lon="115.2084691526548"><ele>165.0</ele><time>2026-04-17T03:34:48Z</time></trkpt><trkpt lat="-25.07762805037013" lon="115.20829813087718"><ele>165.0</ele><time>2026-04-17T03:34:49Z</time></trkpt><trkpt lat="-25.07739703548666" lon="115.20812610158265"><ele>162.5</ele><time>2026-04-17T03:34:50Z</time></trkpt><trkpt lat="-25.077159627840967" lon="115.20794826225934"><ele>160.0</ele><time>2026-04-17T03:34:51Z</time></trkpt><trkpt lat="-25.07692373319299" lon="115.20776784287543"><ele>160.0</ele><time>2026-04-17T03:34:52Z</time></trkpt><trkpt lat="-25.076685135366667" lon="115.20758145787114"><ele>160.0</ele><time>2026-04-17T03:34:53Z</time></trkpt><trkpt lat="-25.076445725038095" lon="115.20739371813742"><ele>161.0</ele><time>2026-04-17T03:34:54Z</time></trkpt><trkpt lat="-25.076207721564238" lon="115.20720927966869"><ele>162.0</ele><time>2026-04-17T03:34:55Z</time></trkpt><trkpt lat="-25.07597201452316" lon="115.20702371210191"><ele>160.5</ele><time>2026-04-17T03:34:56Z</time></trkpt><trkpt lat="-25.075739465903073" lon="115.20683885810249"><ele>159.0</ele><time>2026-04-17T03:34:57Z</time></trkpt><trkpt lat="-25.07551284770405" lon="115.20665601030996"><ele>160.0</ele><time>2026-04-17T03:34:58Z</time></trkpt><trkpt lat="-25.075289566802496" lon="115.20647964895304"><ele>161.0</ele><time>2026-04-17T03:34:59Z</time></trkpt><trkpt lat="-25.075069987017862" lon="115.20630412885784"><ele>161.0</ele><time>2026-04-17T03:35:00Z</time></trkpt><trkpt lat="-25.074854254506906" lon="115.2061276529146"><ele>161.0</ele><time>2026-04-17T03:35:01Z</time></trkpt><trkpt lat="-25.074639135313053" lon="115.20594937094555"><ele>161.0</ele><time>2026-04-17T03:35:02Z</time></trkpt><trkpt lat="-25.074425331795844" lon="115.2057694545353"><ele>161.0</ele><time>2026-04-17T03:35:03Z</time></trkpt><trkpt lat="-25.07421222147186" lon="115.20558769518823"><ele>160.5</ele><time>2026-04-17T03:35:04Z</time></trkpt><trkpt lat="-25.07399256553554" lon="115.20540961693402"><ele>160.0</ele><time>2026-04-17T03:35:05Z</time></trkpt><trkpt lat="-25.073772499498848" lon="115.20523433389648"><ele>160.0</ele><time>2026-04-17T03:35:06Z</time></trkpt><trkpt lat="-25.07355972569996" lon="115.20506737145273"><ele>160.0</ele><time>2026-04-17T03:35:07Z</time></trkpt><trkpt lat="-25.073353934983718" lon="115.20490352265573"><ele>159.0</ele><time>2026-04-17T03:35:08Z</time></trkpt><trkpt lat="-25.07314282005944" lon="115.20474123990373"><ele>158.0</ele><time>2026-04-17T03:35:09Z</time></trkpt><trkpt lat="-25.072927913307186" lon="115.20458079926208"><ele>158.0</ele><time>2026-04-17T03:35:10Z</time></trkpt><trkpt lat="-25.072707817961987" lon="115.20442541763917"><ele>158.0</ele><time>2026-04-17T03:35:11Z</time></trkpt><trkpt lat="-25.07248131250265" lon="115.20427999371277"><ele>158.5</ele><time>2026-04-17T03:35:12Z</time></trkpt><trkpt lat="-25.072250087693348" lon="115.20413810615871"><ele>159.0</ele><time>2026-04-17T03:35:13Z</time></trkpt><trkpt lat="-25.07200947705984" lon="115.2040122441625"><ele>160.0</ele><time>2026-04-17T03:35:14Z</time></trkpt><trkpt lat="-25.071764400146026" lon="115.20390778385006"><ele>161.0</ele><time>2026-04-17T03:35:15Z</time></trkpt><trkpt lat="-25.071513161800986" lon="115.20381468814823"><ele>158.5</ele><time>2026-04-17T03:35:16Z</time></trkpt><trkpt lat="-25.07126125768009" lon="115.20373828644857"><ele>156.0</ele><time>2026-04-17T03:35:17Z</time></trkpt><trkpt lat="-25.071009396922566" lon="115.20367368564355"><ele>156.5</ele><time>2026-04-17T03:35:18Z</time></trkpt><trkpt lat="-25.07074872278972" lon="115.20360732368482"><ele>157.0</ele><time>2026-04-17T03:35:19Z</time></trkpt><trkpt lat="-25.070496551945006" lon="115.20354244230563"><ele>157.0</ele><time>2026-04-17T03:35:20Z</time></trkpt><trkpt lat="-25.070231711709575" lon="115.20348371759361"><ele>157.0</ele><time>2026-04-17T03:35:21Z</time></trkpt><trkpt lat="-25.069968751911198" lon="115.20343931500094"><ele>156.5</ele><time>2026-04-17T03:35:22Z</time></trkpt><trkpt lat="-25.06969928773633" lon="115.20341079922139"><ele>156.0</ele><time>2026-04-17T03:35:23Z</time></trkpt><trkpt lat="-25.069424058925655" lon="115.20339233977661"><ele>156.0</ele><time>2026-04-17T03:35:24Z</time></trkpt><trkpt lat="-25.069143741195116" lon="115.20338283167658"><ele>156.0</ele><time>2026-04-17T03:35:25Z</time></trkpt><trkpt lat="-25.068865997540318" lon="115.20337960813184"><ele>155.5</ele><time>2026-04-17T03:35:26Z</time></trkpt><trkpt lat="-25.06858867422054" lon="115.20337928656208"><ele>155.0</ele><time>2026-04-17T03:35:27Z</time></trkpt><trkpt lat="-25.06831258428911" lon="115.20338166613064"><ele>155.0</ele><time>2026-04-17T03:35:28Z</time></trkpt><trkpt lat="-25.068038335852854" lon="115.20338973758672"><ele>155.0</ele><time>2026-04-17T03:35:29Z</time></trkpt><trkpt lat="-25.06776343493936" lon="115.20339997266852"><ele>155.0</ele><time>2026-04-17T03:35:30Z</time></trkpt><trkpt lat="-25.067493051324238" lon="115.2034124099566"><ele>155.0</ele><time>2026-04-17T03:35:31Z</time></trkpt><trkpt lat="-25.0672246913918" lon="115.20342486706794"><ele>155.0</ele><time>2026-04-17T03:35:32Z</time></trkpt><trkpt lat="-25.066954757452585" lon="115.2034362213691"><ele>155.0</ele><time>2026-04-17T03:35:33Z</time></trkpt><trkpt lat="-25.066685258168615" lon="115.20344734072854"><ele>154.5</ele><time>2026-04-17T03:35:34Z</time></trkpt><trkpt lat="-25.06641383096126" lon="115.20346042954333"><ele>154.0</ele><time>2026-04-17T03:35:35Z</time></trkpt><trkpt lat="-25.066139722331588" lon="115.20347523059966"><ele>154.0</ele><time>2026-04-17T03:35:36Z</time></trkpt><trkpt lat="-25.06586816903596" lon="115.20348883615267"><ele>154.0</ele><time>2026-04-17T03:35:37Z</time></trkpt><trkpt lat="-25.065590481822117" lon="115.20350007516265"><ele>155.0</ele><time>2026-04-17T03:35:38Z</time></trkpt><trkpt lat="-25.065312291017552" lon="115.20350870419414"><ele>156.0</ele><time>2026-04-17T03:35:39Z</time></trkpt><trkpt lat="-25.065037291721943" lon="115.20352348223305"><ele>154.5</ele><time>2026-04-17T03:35:40Z</time></trkpt><trkpt lat="-25.064762040084233" lon="115.20354641695111"><ele>153.0</ele><time>2026-04-17T03:35:41Z</time></trkpt><trkpt lat="-25.064488022883683" lon="115.20357836402823"><ele>153.0</ele><time>2026-04-17T03:35:42Z</time></trkpt><trkpt lat="-25.064215010164695" lon="115.20362161715265"><ele>153.0</ele><time>2026-04-17T03:35:43Z</time></trkpt><trkpt lat="-25.06395062029707" lon="115.20368580840149"><ele>154.0</ele><time>2026-04-17T03:35:44Z</time></trkpt><trkpt lat="-25.06369647779912" lon="115.20376410131813"><ele>155.0</ele><time>2026-04-17T03:35:45Z</time></trkpt><trkpt lat="-25.063446955456612" lon="115.20385258836089"><ele>155.0</ele><time>2026-04-17T03:35:46.001Z</time></trkpt><trkpt lat="-25.06320640258338" lon="115.20394940408963"><ele>155.0</ele><time>2026-04-17T03:35:47.001Z</time></trkpt><trkpt lat="-25.062979192666223" lon="115.20405037641464"><ele>155.0</ele><time>2026-04-17T03:35:48.001Z</time></trkpt><trkpt lat="-25.062756793562716" lon="115.20415635487484"><ele>155.0</ele><time>2026-04-17T03:35:49.001Z</time></trkpt><trkpt lat="-25.062542582710396" lon="115.20427064679406"><ele>154.0</ele><time>2026-04-17T03:35:50.001Z</time></trkpt><trkpt lat="-25.062331123690093" lon="115.20439780254834"><ele>153.0</ele><time>2026-04-17T03:35:51.001Z</time></trkpt><trkpt lat="-25.062123600393182" lon="115.20454160872382"><ele>153.0</ele><time>2026-04-17T03:35:52.001Z</time></trkpt><trkpt lat="-25.06191317505651" lon="115.20470032108403"><ele>153.0</ele><time>2026-04-17T03:35:53.001Z</time></trkpt><trkpt lat="-25.061707762807732" lon="115.20486898797307"><ele>154.0</ele><time>2026-04-17T03:35:54.001Z</time></trkpt><trkpt lat="-25.06150279557253" lon="115.20504732515822"><ele>155.0</ele><time>2026-04-17T03:35:55.001Z</time></trkpt><trkpt lat="-25.061299178992495" lon="115.20523543740993"><ele>155.0</ele><time>2026-04-17T03:35:56.001Z</time></trkpt><trkpt lat="-25.061097470225473" lon="115.20543104585883"><ele>155.0</ele><time>2026-04-17T03:35:57.001Z</time></trkpt><trkpt lat="-25.06090482900492" lon="115.20562077937319"><ele>153.5</ele><time>2026-04-17T03:35:58.001Z</time></trkpt><trkpt lat="-25.06071649227076" lon="115.20580071654591"><ele>152.0</ele><time>2026-04-17T03:35:59.001Z</time></trkpt><trkpt lat="-25.060534315613086" lon="115.20597149613867"><ele>152.0</ele><time>2026-04-17T03:36:00.001Z</time></trkpt><trkpt lat="-25.060358658309852" lon="115.20613615992917"><ele>152.0</ele><time>2026-04-17T03:36:01.001Z</time></trkpt><trkpt lat="-25.060193493552756" lon="115.2062932954655"><ele>152.0</ele><time>2026-04-17T03:36:02.001Z</time></trkpt><trkpt lat="-25.060035511020054" lon="115.20644297024661"><ele>151.0</ele><time>2026-04-17T03:36:03.001Z</time></trkpt><trkpt lat="-25.05988342566472" lon="115.20658861130215"><ele>150.0</ele><time>2026-04-17T03:36:04.001Z</time></trkpt><trkpt lat="-25.059734918063096" lon="115.20673250122607"><ele>149.0</ele><time>2026-04-17T03:36:05.001Z</time></trkpt><trkpt lat="-25.059592376416806" lon="115.20686326542624"><ele>149.0</ele><time>2026-04-17T03:36:06.001Z</time></trkpt><trkpt lat="-25.05945396714468" lon="115.20697563321743"><ele>149.0</ele><time>2026-04-17T03:36:07.001Z</time></trkpt><trkpt lat="-25.059324783992153" lon="115.20707462822187"><ele>149.0</ele><time>2026-04-17T03:36:08.001Z</time></trkpt><trkpt lat="-25.0592176185341" lon="115.20717136621123"><ele>149.0</ele><time>2026-04-17T03:36:09.001Z</time></trkpt><trkpt lat="-25.059128611116943" lon="115.20725291819406"><ele>149.0</ele><time>2026-04-17T03:36:10.001Z</time></trkpt><trkpt lat="-25.059047590267966" lon="115.20732134574642"><ele>149.0</ele><time>2026-04-17T03:36:11.001Z</time></trkpt><trkpt lat="-25.058975221365845" lon="115.20737793278367"><ele>149.0</ele><time>2026-04-17T03:36:12.001Z</time></trkpt><trkpt lat="-25.058910670176232" lon="115.20742758754648"><ele>149.0</ele><time>2026-04-17T03:36:13.001Z</time></trkpt><trkpt lat="-25.05883914530071" lon="115.2074792013888"><ele>149.75</ele><time>2026-04-17T03:36:14.001Z</time></trkpt><trkpt lat="-25.058752035773626" lon="115.20754688405057"><ele>150.5</ele><time>2026-04-17T03:36:15.001Z</time></trkpt><trkpt lat="-25.05864455079414" lon="115.20761170778296"><ele>151.25</ele><time>2026-04-17T03:36:16.001Z</time></trkpt><trkpt lat="-25.058507769724958" lon="115.20765095259708"><ele>152.0</ele><time>2026-04-17T03:36:17.001Z</time></trkpt><trkpt lat="-25.05836047392203" lon="115.2076997413923"><ele>152.0</ele><time>2026-04-17T03:36:18.001Z</time></trkpt><trkpt lat="-25.058201697306576" lon="115.20774203746137"><ele>152.0</ele><time>2026-04-17T03:36:19.001Z</time></trkpt><trkpt lat="-25.058033229748695" lon="115.20778973495122"><ele>152.0</ele><time>2026-04-17T03:36:20.001Z</time></trkpt><trkpt lat="-25.05786355642745" lon="115.20777946715351"><ele>152.0</ele><time>2026-04-17T03:36:21.001Z</time></trkpt><trkpt lat="-25.05770451125627" lon="115.20778202780998"><ele>152.0</ele><time>2026-04-17T03:36:22.001Z</time></trkpt><trkpt lat="-25.057538212592554" lon="115.20777686574138"><ele>152.0</ele><time>2026-04-17T03:36:23.001Z</time></trkpt><trkpt lat="-25.05735484691533" lon="115.20777714009775"><ele>151.0</ele><time>2026-04-17T03:36:24.001Z</time></trkpt><trkpt lat="-25.05716597238254" lon="115.20779585311158"><ele>150.0</ele><time>2026-04-17T03:36:25.001Z</time></trkpt><trkpt lat="-25.056972578468528" lon="115.20778787774046"><ele>149.0</ele><time>2026-04-17T03:36:26.001Z</time></trkpt><trkpt lat="-25.056779712560832" lon="115.20778135332696"><ele>149.0</ele><time>2026-04-17T03:36:27.001Z</time></trkpt><trkpt lat="-25.056592027517773" lon="115.20777551214213"><ele>149.0</ele><time>2026-04-17T03:36:28.001Z</time></trkpt><trkpt lat="-25.05639776478466" lon="115.20777168876995"><ele>149.0</ele><time>2026-04-17T03:36:29.001Z</time></trkpt><trkpt lat="-25.056206630692596" lon="115.20777521478806"><ele>149.0</ele><time>2026-04-17T03:36:30.001Z</time></trkpt><trkpt lat="-25.05601190111144" lon="115.20778011271594"><ele>149.0</ele><time>2026-04-17T03:36:31.001Z</time></trkpt><trkpt lat="-25.05580967778514" lon="115.20778178786396"><ele>149.0</ele><time>2026-04-17T03:36:32.001Z</time></trkpt><trkpt lat="-25.055606853655963" lon="115.2077816759304"><ele>148.66666666666666</ele><time>2026-04-17T03:36:33Z</time></trkpt><trkpt lat="-25.055406967490647" lon="115.20777914777351"><ele>148.33333333333334</ele><time>2026-04-17T03:36:34Z</time></trkpt><trkpt lat="-25.055211697270334" lon="115.20777617431207"><ele>148.0</ele><time>2026-04-17T03:36:35Z</time></trkpt><trkpt lat="-25.0550235456456" lon="115.20777546171625"><ele>147.66666666666669</ele><time>2026-04-17T03:36:36Z</time></trkpt><trkpt lat="-25.054849438291757" lon="115.2077782783339"><ele>147.33333333333334</ele><time>2026-04-17T03:36:37Z</time></trkpt><trkpt lat="-25.054691935889416" lon="115.2077838864945"><ele>147.0</ele><time>2026-04-17T03:36:38Z</time></trkpt><trkpt lat="-25.054548000080974" lon="115.20778648468428"><ele>147.0</ele><time>2026-04-17T03:36:39Z</time></trkpt><trkpt lat="-25.054415262399807" lon="115.20778698677461"><ele>147.0</ele><time>2026-04-17T03:36:40Z</time></trkpt><trkpt lat="-25.054304432135442" lon="115.20778195586473"><ele>147.0</ele><time>2026-04-17T03:36:41Z</time></trkpt><trkpt lat="-25.05420410434634" lon="115.20778565094044"><ele>147.0</ele><time>2026-04-17T03:36:42Z</time></trkpt><trkpt lat="-25.05412204089934" lon="115.20777556646162"><ele>147.0</ele><time>2026-04-17T03:36:43Z</time></trkpt><trkpt lat="-25.05405856097747" lon="115.20777434328848"><ele>147.5</ele><time>2026-04-17T03:36:44Z</time></trkpt><trkpt lat="-25.054041935459328" lon="115.20798805446584"><ele>148.0</ele><time>2026-04-17T03:36:46Z</time></trkpt><trkpt lat="-25.05404092400177" lon="115.20807735773093"><ele>148.5</ele><time>2026-04-17T03:36:47Z</time></trkpt><trkpt lat="-25.054065146915434" lon="115.20817249644134"><ele>149.0</ele><time>2026-04-17T03:36:48Z</time></trkpt><trkpt lat="-25.054064996725444" lon="115.2082812843151"><ele>149.0</ele><time>2026-04-17T03:36:49Z</time></trkpt><trkpt lat="-25.054064827801493" lon="115.20840364129096"><ele>149.0</ele><time>2026-04-17T03:36:50Z</time></trkpt><trkpt lat="-25.054064651375626" lon="115.2085314335608"><ele>149.0</ele><time>2026-04-17T03:36:51Z</time></trkpt><trkpt lat="-25.05406447496803" lon="115.20865921167261"><ele>149.0</ele><time>2026-04-17T03:36:52Z</time></trkpt><trkpt lat="-25.054064315275554" lon="115.20877488219053"><ele>149.0</ele><time>2026-04-17T03:36:53Z</time></trkpt><trkpt lat="-25.05406417667424" lon="115.20887527606523"><ele>149.0</ele><time>2026-04-17T03:36:54Z</time></trkpt><trkpt lat="-25.054064099367103" lon="115.20895429571733"><ele>149.0</ele><time>2026-04-17T03:36:55Z</time></trkpt><trkpt lat="-25.05406409936797" lon="115.20905162684346"><ele>149.0</ele><time>2026-04-17T03:36:57Z</time></trkpt><trkpt lat="-25.05385699742682" lon="115.20903937207157"><ele>149.0</ele><time>2026-04-17T03:36:58Z</time></trkpt><trkpt lat="-25.053773412056938" lon="115.20903962255849"><ele>148.75</ele><time>2026-04-17T03:36:59Z</time></trkpt><trkpt lat="-25.05367195542976" lon="115.20904753287475"><ele>148.5</ele><time>2026-04-17T03:37:00Z</time></trkpt><trkpt lat="-25.053559461474716" lon="115.20904231746837"><ele>148.25</ele><time>2026-04-17T03:37:01Z</time></trkpt><trkpt lat="-25.053438035159775" lon="115.20903978446636"><ele>148.0</ele><time>2026-04-17T03:37:02Z</time></trkpt><trkpt lat="-25.05330796313129" lon="115.20903688636831"><ele>147.75</ele><time>2026-04-17T03:37:03Z</time></trkpt><trkpt lat="-25.05317102359306" lon="115.20903618278092"><ele>147.5</ele><time>2026-04-17T03:37:04Z</time></trkpt><trkpt lat="-25.05303267022151" lon="115.20903774557198"><ele>147.25</ele><time>2026-04-17T03:37:05Z</time></trkpt><trkpt lat="-25.052901756099033" lon="115.209041116259"><ele>147.0</ele><time>2026-04-17T03:37:06Z</time></trkpt><trkpt lat="-25.052766808335566" lon="115.20904133176413"><ele>147.0</ele><time>2026-04-17T03:37:07Z</time></trkpt><trkpt lat="-25.05262072830186" lon="115.20903779719129"><ele>147.0</ele><time>2026-04-17T03:37:08Z</time></trkpt><trkpt lat="-25.052467926715327" lon="115.20903805364183"><ele>147.0</ele><time>2026-04-17T03:37:09Z</time></trkpt><trkpt lat="-25.052311771294743" lon="115.20904007806955"><ele>146.25</ele><time>2026-04-17T03:37:10Z</time></trkpt><trkpt lat="-25.052153080138137" lon="115.20904033761772"><ele>145.5</ele><time>2026-04-17T03:37:11Z</time></trkpt><trkpt lat="-25.052004513363297" lon="115.20903970538834"><ele>144.75</ele><time>2026-04-17T03:37:12Z</time></trkpt><trkpt lat="-25.051863286252136" lon="115.20903711505898"><ele>144.0</ele><time>2026-04-17T03:37:13Z</time></trkpt><trkpt lat="-25.051723518815326" lon="115.20903682127867"><ele>144.5</ele><time>2026-04-17T03:37:14Z</time></trkpt><trkpt lat="-25.051584461689806" lon="115.20903811283539"><ele>145.0</ele><time>2026-04-17T03:37:15Z</time></trkpt><trkpt lat="-25.051446056020513" lon="115.20903917856268"><ele>145.5</ele><time>2026-04-17T03:37:16Z</time></trkpt><trkpt lat="-25.051304041484663" lon="115.2090394196502"><ele>146.0</ele><time>2026-04-17T03:37:17Z</time></trkpt><trkpt lat="-25.05116223463653" lon="115.2090396512407"><ele>146.0</ele><time>2026-04-17T03:37:18Z</time></trkpt><trkpt lat="-25.05101681288733" lon="115.2090391650885"><ele>146.0</ele><time>2026-04-17T03:37:19Z</time></trkpt><trkpt lat="-25.05087078793838" lon="115.20904084533078"><ele>146.0</ele><time>2026-04-17T03:37:20Z</time></trkpt><trkpt lat="-25.05072397717771" lon="115.20903922094108"><ele>146.0</ele><time>2026-04-17T03:37:21Z</time></trkpt><trkpt lat="-25.050587921986104" lon="115.20903839338156"><ele>145.25</ele><time>2026-04-17T03:37:22.001Z</time></trkpt><trkpt lat="-25.050461882025452" lon="115.20903812869965"><ele>144.5</ele><time>2026-04-17T03:37:23Z</time></trkpt><trkpt lat="-25.050341041178577" lon="115.20904185268"><ele>143.75</ele><time>2026-04-17T03:37:24Z</time></trkpt><trkpt lat="-25.050224596546883" lon="115.20904767353399"><ele>143.0</ele><time>2026-04-17T03:37:25Z</time></trkpt><trkpt lat="-25.05011553728451" lon="115.20905008212036"><ele>143.0</ele><time>2026-04-17T03:37:26Z</time></trkpt><trkpt lat="-25.050012809493882" lon="115.20904847448664"><ele>143.0</ele><time>2026-04-17T03:37:27Z</time></trkpt><trkpt lat="-25.049916052771003" lon="115.20904816025391"><ele>143.0</ele><time>2026-04-17T03:37:28Z</time></trkpt><trkpt lat="-25.049828187807307" lon="115.2090507187867"><ele>143.0</ele><time>2026-04-17T03:37:29Z</time></trkpt><trkpt lat="-25.049755461138897" lon="115.20905060463957"><ele>143.0</ele><time>2026-04-17T03:37:30Z</time></trkpt><trkpt lat="-25.049691347159985" lon="115.20904713322368"><ele>143.0</ele><time>2026-04-17T03:37:31Z</time></trkpt><trkpt lat="-25.049588626190907" lon="115.20904410228923"><ele>142.8</ele><time>2026-04-17T03:37:33Z</time></trkpt><trkpt lat="-25.04949205047965" lon="115.20906545147626"><ele>142.60000000000002</ele><time>2026-04-17T03:38:21.001Z</time></trkpt><trkpt lat="-25.04942068659777" lon="115.20894769479456"><ele>142.39999999999998</ele><time>2026-04-17T03:38:23Z</time></trkpt><trkpt lat="-25.0493739379813" lon="115.20881549705925"><ele>142.2</ele><time>2026-04-17T03:38:25Z</time></trkpt><trkpt lat="-25.04934920318863" lon="115.20872184035348"><ele>142.0</ele><time>2026-04-17T03:38:26Z</time></trkpt><trkpt lat="-25.049324759468607" lon="115.20862287879197"><ele>142.0</ele><time>2026-04-17T03:38:27Z</time></trkpt><trkpt lat="-25.049292072576335" lon="115.20851531668553"><ele>142.0</ele><time>2026-04-17T03:38:28Z</time></trkpt><trkpt lat="-25.049257549640586" lon="115.20840193602763"><ele>142.0</ele><time>2026-04-17T03:38:29Z</time></trkpt><trkpt lat="-25.04922510238442" lon="115.20828479939124"><ele>142.0</ele><time>2026-04-17T03:38:30Z</time></trkpt><trkpt lat="-25.049198688521507" lon="115.2081803982501"><ele>142.0</ele><time>2026-04-17T03:38:31Z</time></trkpt><trkpt lat="-25.04917601041098" lon="115.20808409754984"><ele>142.0</ele><time>2026-04-17T03:38:32Z</time></trkpt><trkpt lat="-25.049160375843297" lon="115.20799954022912"><ele>142.0</ele><time>2026-04-17T03:38:33Z</time></trkpt><trkpt lat="-25.049129067289893" lon="115.20788271406644"><ele>142.0</ele><time>2026-04-17T03:38:35Z</time></trkpt><trkpt lat="-25.049307133874958" lon="115.20779716234419"><ele>142.0</ele><time>2026-04-17T03:38:37Z</time></trkpt><trkpt lat="-25.04939289684355" lon="115.20779829396422"><ele>142.0</ele><time>2026-04-17T03:38:38Z</time></trkpt><trkpt lat="-25.04949105492103" lon="115.20780989483082"><ele>142.0</ele><time>2026-04-17T03:38:39Z</time></trkpt><trkpt lat="-25.04959725720345" lon="115.20781608898248"><ele>142.0</ele><time>2026-04-17T03:38:40Z</time></trkpt><trkpt lat="-25.049716782272906" lon="115.20781586239282"><ele>142.0</ele><time>2026-04-17T03:38:41Z</time></trkpt><trkpt lat="-25.04984872776519" lon="115.20781623275856"><ele>142.5</ele><time>2026-04-17T03:38:42Z</time></trkpt><trkpt lat="-25.049983765038295" lon="115.20781822202781"><ele>143.0</ele><time>2026-04-17T03:38:43Z</time></trkpt><trkpt lat="-25.050124034709803" lon="115.20782251185612"><ele>143.5</ele><time>2026-04-17T03:38:44Z</time></trkpt><trkpt lat="-25.050270779095534" lon="115.20782368384639"><ele>144.0</ele><time>2026-04-17T03:38:45Z</time></trkpt><trkpt lat="-25.050420080707475" lon="115.207825502356"><ele>144.0</ele><time>2026-04-17T03:38:46Z</time></trkpt><trkpt lat="-25.050575605425603" lon="115.20782377773732"><ele>144.0</ele><time>2026-04-17T03:38:47Z</time></trkpt><trkpt lat="-25.05073597445802" lon="115.20782344603163"><ele>144.0</ele><time>2026-04-17T03:38:48Z</time></trkpt><trkpt lat="-25.05089903431904" lon="115.20782211447971"><ele>143.66666666666666</ele><time>2026-04-17T03:38:49Z</time></trkpt><trkpt lat="-25.05105811078269" lon="115.20781782551614"><ele>143.33333333333331</ele><time>2026-04-17T03:38:50Z</time></trkpt><trkpt lat="-25.051221581739117" lon="115.20782071695261"><ele>143.0</ele><time>2026-04-17T03:38:51Z</time></trkpt><trkpt lat="-25.05139231418873" lon="115.20782263801672"><ele>143.0</ele><time>2026-04-17T03:38:52Z</time></trkpt><trkpt lat="-25.05157054110206" lon="115.20782048376091"><ele>143.0</ele><time>2026-04-17T03:38:53Z</time></trkpt><trkpt lat="-25.051753667672422" lon="115.20781923262037"><ele>143.0</ele><time>2026-04-17T03:38:54Z</time></trkpt><trkpt lat="-25.05194005235206" lon="115.20781929027788"><ele>143.33333333333331</ele><time>2026-04-17T03:38:55Z</time></trkpt><trkpt lat="-25.05212312578233" lon="115.20781948389286"><ele>143.66666666666666</ele><time>2026-04-17T03:38:56Z</time></trkpt><trkpt lat="-25.05229398582445" lon="115.20782150881693"><ele>144.0</ele><time>2026-04-17T03:38:57Z</time></trkpt><trkpt lat="-25.05245372165891" lon="115.20782364015616"><ele>144.25</ele><time>2026-04-17T03:38:58Z</time></trkpt><trkpt lat="-25.05259788310326" lon="115.20782456934795"><ele>144.5</ele><time>2026-04-17T03:38:59Z</time></trkpt><trkpt lat="-25.05273487663523" lon="115.20782276968107"><ele>144.75</ele><time>2026-04-17T03:39:00Z</time></trkpt><trkpt lat="-25.05286164962339" lon="115.20781949927837"><ele>145.0</ele><time>2026-04-17T03:39:01Z</time></trkpt><trkpt lat="-25.052980925184404" lon="115.20781999226368"><ele>145.0</ele><time>2026-04-17T03:39:02Z</time></trkpt><trkpt lat="-25.053094347456764" lon="115.20782181082468"><ele>145.0</ele><time>2026-04-17T03:39:03Z</time></trkpt><trkpt lat="-25.053201077756327" lon="115.20782329866694"><ele>145.0</ele><time>2026-04-17T03:39:04Z</time></trkpt><trkpt lat="-25.053300905343992" lon="115.20782474835684"><ele>145.0</ele><time>2026-04-17T03:39:05Z</time></trkpt><trkpt lat="-25.053390673160838" lon="115.20782779197131"><ele>145.0</ele><time>2026-04-17T03:39:06Z</time></trkpt><trkpt lat="-25.053476696080246" lon="115.20782705661509"><ele>146.2</ele><time>2026-04-17T03:39:07Z</time></trkpt><trkpt lat="-25.053557230370583" lon="115.20782324932155"><ele>147.4</ele><time>2026-04-17T03:39:08Z</time></trkpt><trkpt lat="-25.053632439831123" lon="115.20780917647402"><ele>148.6</ele><time>2026-04-17T03:39:09Z</time></trkpt><trkpt lat="-25.053730049351312" lon="115.20781064467029"><ele>149.8</ele><time>2026-04-17T03:39:11Z</time></trkpt><trkpt lat="-25.053719629344265" lon="115.207610047522"><ele>151.0</ele><time>2026-04-17T03:39:12Z</time></trkpt><trkpt lat="-25.053795021619273" lon="115.20754840589599"><ele>151.0</ele><time>2026-04-17T03:39:14Z</time></trkpt><trkpt lat="-25.053837063737642" lon="115.20745725910893"><ele>151.0</ele><time>2026-04-17T03:39:16Z</time></trkpt><trkpt lat="-25.053855285632913" lon="115.20736608085802"><ele>151.0</ele><time>2026-04-17T03:39:18Z</time></trkpt><trkpt lat="-25.05384337546629" lon="115.2072783667014"><ele>151.0</ele><time>2026-04-17T03:39:20Z</time></trkpt><trkpt lat="-25.053849894343724" lon="115.207202005281"><ele>151.0</ele><time>2026-04-17T03:39:22Z</time></trkpt><trkpt lat="-25.05384200284298" lon="115.20709467483887"><ele>151.0</ele><time>2026-04-17T03:39:25Z</time></trkpt><trkpt lat="-25.053825901891205" lon="115.20702266765475"><ele>144.0</ele><time>2026-04-17T03:39:28Z</time></trkpt><trkpt lat="-25.05379341225093" lon="115.20694533194163"><ele>144.0</ele><time>2026-04-17T03:39:32Z</time></trkpt></trkseg></trk></gpx>